<?xml version="1.0" encoding="utf-8"?>
<gpx xmlns:xsi="http://www.w3.org/2001/XMLSchema-instance" xmlns:xsd="http://www.w3.org/2001/XMLSchema" version="1.1" creator="Shapelink.com" xmlns="http://www.topografix.com/GPX/1/1" xmlns:gpxtpx="http://www.garmin.com/xmlschemas/TrackPointExtension/v1">
  <metadata>
    <name>Løping 17.44 km, 2012-09-30</name>
    <desc></desc>
    <author><name>Mikael Blom</name></author> 
    <time>2012-09-30T08:09:54Z</time>
  </metadata>
  <trk>
    <name>Løping 17.44 km, 2012-09-30</name>
    <trkseg>
      <trkpt lat="59.9788576" lon="17.7393117">
        <ele>42.4354</ele>
        <time>2012-09-30T08:09:54Z</time>
      </trkpt>
      <trkpt lat="59.9788382" lon="17.7393135">
        <ele>41.9547</ele>
        <time>2012-09-30T08:09:55Z</time>
      </trkpt>
      <trkpt lat="59.9788141" lon="17.7393106">
        <ele>41.9547</ele>
        <time>2012-09-30T08:09:56Z</time>
      </trkpt>
      <trkpt lat="59.9787857" lon="17.7393041">
        <ele>41.9547</ele>
        <time>2012-09-30T08:09:57Z</time>
      </trkpt>
      <trkpt lat="59.9787598" lon="17.7392968">
        <ele>41.9547</ele>
        <time>2012-09-30T08:09:58Z</time>
      </trkpt>
      <trkpt lat="59.9787328" lon="17.7392927">
        <ele>41.9547</ele>
        <time>2012-09-30T08:09:59Z</time>
      </trkpt>
      <trkpt lat="59.9787033" lon="17.7392995">
        <ele>41.9547</ele>
        <time>2012-09-30T08:10:00Z</time>
      </trkpt>
      <trkpt lat="59.9786766" lon="17.739316">
        <ele>41.474</ele>
        <time>2012-09-30T08:10:01Z</time>
      </trkpt>
      <trkpt lat="59.9786491" lon="17.7393232">
        <ele>40.9934</ele>
        <time>2012-09-30T08:10:02Z</time>
      </trkpt>
      <trkpt lat="59.9786271" lon="17.7393195">
        <ele>40.9934</ele>
        <time>2012-09-30T08:10:03Z</time>
      </trkpt>
      <trkpt lat="59.9786071" lon="17.7393199">
        <ele>40.9934</ele>
        <time>2012-09-30T08:10:04Z</time>
      </trkpt>
      <trkpt lat="59.978576" lon="17.7393123">
        <ele>41.474</ele>
        <time>2012-09-30T08:10:05Z</time>
      </trkpt>
      <trkpt lat="59.9785403" lon="17.7393109">
        <ele>41.9547</ele>
        <time>2012-09-30T08:10:06Z</time>
      </trkpt>
      <trkpt lat="59.9785042" lon="17.7393101">
        <ele>41.9547</ele>
        <time>2012-09-30T08:10:07Z</time>
      </trkpt>
      <trkpt lat="59.9784712" lon="17.7393093">
        <ele>42.4354</ele>
        <time>2012-09-30T08:10:08Z</time>
      </trkpt>
      <trkpt lat="59.9784419" lon="17.7393207">
        <ele>42.4354</ele>
        <time>2012-09-30T08:10:09Z</time>
      </trkpt>
      <trkpt lat="59.9784106" lon="17.7393263">
        <ele>42.4354</ele>
        <time>2012-09-30T08:10:10Z</time>
      </trkpt>
      <trkpt lat="59.9783787" lon="17.7393235">
        <ele>42.916</ele>
        <time>2012-09-30T08:10:11Z</time>
      </trkpt>
      <trkpt lat="59.9783491" lon="17.7393148">
        <ele>42.916</ele>
        <time>2012-09-30T08:10:12Z</time>
      </trkpt>
      <trkpt lat="59.9783151" lon="17.7393113">
        <ele>42.916</ele>
        <time>2012-09-30T08:10:13Z</time>
      </trkpt>
      <trkpt lat="59.9782839" lon="17.7393018">
        <ele>42.916</ele>
        <time>2012-09-30T08:10:14Z</time>
      </trkpt>
      <trkpt lat="59.9782554" lon="17.7393044">
        <ele>43.3966</ele>
        <time>2012-09-30T08:10:15Z</time>
      </trkpt>
      <trkpt lat="59.9782321" lon="17.7393025">
        <ele>43.8773</ele>
        <time>2012-09-30T08:10:16Z</time>
      </trkpt>
      <trkpt lat="59.9782067" lon="17.7392818">
        <ele>43.8773</ele>
        <time>2012-09-30T08:10:17Z</time>
      </trkpt>
      <trkpt lat="59.9781808" lon="17.7392507">
        <ele>43.8773</ele>
        <time>2012-09-30T08:10:18Z</time>
      </trkpt>
      <trkpt lat="59.978155" lon="17.7392122">
        <ele>43.8773</ele>
        <time>2012-09-30T08:10:19Z</time>
      </trkpt>
      <trkpt lat="59.9781285" lon="17.7391894">
        <ele>43.3966</ele>
        <time>2012-09-30T08:10:20Z</time>
      </trkpt>
      <trkpt lat="59.9781036" lon="17.7391738">
        <ele>43.8773</ele>
        <time>2012-09-30T08:10:21Z</time>
      </trkpt>
      <trkpt lat="59.9780811" lon="17.7391393">
        <ele>43.8773</ele>
        <time>2012-09-30T08:10:22Z</time>
      </trkpt>
      <trkpt lat="59.978057" lon="17.7391083">
        <ele>43.8773</ele>
        <time>2012-09-30T08:10:23Z</time>
      </trkpt>
      <trkpt lat="59.9780279" lon="17.7390938">
        <ele>43.8773</ele>
        <time>2012-09-30T08:10:24Z</time>
      </trkpt>
      <trkpt lat="59.9779947" lon="17.739087">
        <ele>43.3966</ele>
        <time>2012-09-30T08:10:25Z</time>
      </trkpt>
      <trkpt lat="59.9779638" lon="17.7390772">
        <ele>43.3966</ele>
        <time>2012-09-30T08:10:26Z</time>
      </trkpt>
      <trkpt lat="59.9779332" lon="17.7390559">
        <ele>42.916</ele>
        <time>2012-09-30T08:10:27Z</time>
      </trkpt>
      <trkpt lat="59.9779048" lon="17.739028">
        <ele>42.916</ele>
        <time>2012-09-30T08:10:28Z</time>
      </trkpt>
      <trkpt lat="59.9778747" lon="17.739006">
        <ele>42.916</ele>
        <time>2012-09-30T08:10:29Z</time>
      </trkpt>
      <trkpt lat="59.9778419" lon="17.7390008">
        <ele>42.4354</ele>
        <time>2012-09-30T08:10:30Z</time>
      </trkpt>
      <trkpt lat="59.9778113" lon="17.7389927">
        <ele>41.9547</ele>
        <time>2012-09-30T08:10:31Z</time>
      </trkpt>
      <trkpt lat="59.9777851" lon="17.73897">
        <ele>42.4354</ele>
        <time>2012-09-30T08:10:32Z</time>
      </trkpt>
      <trkpt lat="59.9777633" lon="17.7389492">
        <ele>42.4354</ele>
        <time>2012-09-30T08:10:33Z</time>
      </trkpt>
      <trkpt lat="59.9777367" lon="17.738944">
        <ele>41.9547</ele>
        <time>2012-09-30T08:10:34Z</time>
      </trkpt>
      <trkpt lat="59.9777074" lon="17.738939">
        <ele>40.9934</ele>
        <time>2012-09-30T08:10:35Z</time>
      </trkpt>
      <trkpt lat="59.9776787" lon="17.7389328">
        <ele>40.5128</ele>
        <time>2012-09-30T08:10:36Z</time>
      </trkpt>
      <trkpt lat="59.977651" lon="17.7389302">
        <ele>40.0321</ele>
        <time>2012-09-30T08:10:37Z</time>
      </trkpt>
      <trkpt lat="59.9776193" lon="17.7389176">
        <ele>40.5128</ele>
        <time>2012-09-30T08:10:38Z</time>
      </trkpt>
      <trkpt lat="59.9775855" lon="17.7389228">
        <ele>40.0321</ele>
        <time>2012-09-30T08:10:39Z</time>
      </trkpt>
      <trkpt lat="59.977554" lon="17.7389347">
        <ele>40.0321</ele>
        <time>2012-09-30T08:10:40Z</time>
      </trkpt>
      <trkpt lat="59.9775243" lon="17.7389461">
        <ele>40.0321</ele>
        <time>2012-09-30T08:10:41Z</time>
      </trkpt>
      <trkpt lat="59.9775023" lon="17.738959">
        <ele>39.0707</ele>
        <time>2012-09-30T08:10:42Z</time>
      </trkpt>
      <trkpt lat="59.9774767" lon="17.7389768">
        <ele>38.1094</ele>
        <time>2012-09-30T08:10:43Z</time>
      </trkpt>
      <trkpt lat="59.9774544" lon="17.7389911">
        <ele>37.1481</ele>
        <time>2012-09-30T08:10:44Z</time>
      </trkpt>
      <trkpt lat="59.9774349" lon="17.7390013">
        <ele>36.1868</ele>
        <time>2012-09-30T08:10:45Z</time>
      </trkpt>
      <trkpt lat="59.9774134" lon="17.7390055">
        <ele>35.7061</ele>
        <time>2012-09-30T08:10:46Z</time>
      </trkpt>
      <trkpt lat="59.9773959" lon="17.7390181">
        <ele>34.7449</ele>
        <time>2012-09-30T08:10:47Z</time>
      </trkpt>
      <trkpt lat="59.9773826" lon="17.7390399">
        <ele>33.7834</ele>
        <time>2012-09-30T08:10:48Z</time>
      </trkpt>
      <trkpt lat="59.9773649" lon="17.7390519">
        <ele>33.3029</ele>
        <time>2012-09-30T08:10:49Z</time>
      </trkpt>
      <trkpt lat="59.9773437" lon="17.7390626">
        <ele>32.8223</ele>
        <time>2012-09-30T08:10:50Z</time>
      </trkpt>
      <trkpt lat="59.977322" lon="17.7390702">
        <ele>32.8223</ele>
        <time>2012-09-30T08:10:51Z</time>
      </trkpt>
      <trkpt lat="59.9773042" lon="17.7390721">
        <ele>32.8223</ele>
        <time>2012-09-30T08:10:52Z</time>
      </trkpt>
      <trkpt lat="59.9772852" lon="17.7390824">
        <ele>32.8223</ele>
        <time>2012-09-30T08:10:53Z</time>
      </trkpt>
      <trkpt lat="59.9772658" lon="17.7391">
        <ele>33.3029</ele>
        <time>2012-09-30T08:10:54Z</time>
      </trkpt>
      <trkpt lat="59.9772438" lon="17.7391133">
        <ele>33.3029</ele>
        <time>2012-09-30T08:10:55Z</time>
      </trkpt>
      <trkpt lat="59.9772168" lon="17.7391268">
        <ele>33.3029</ele>
        <time>2012-09-30T08:10:56Z</time>
      </trkpt>
      <trkpt lat="59.9771919" lon="17.7391393">
        <ele>33.3029</ele>
        <time>2012-09-30T08:10:57Z</time>
      </trkpt>
      <trkpt lat="59.9771707" lon="17.739154">
        <ele>33.3029</ele>
        <time>2012-09-30T08:10:58Z</time>
      </trkpt>
      <trkpt lat="59.9771518" lon="17.7391742">
        <ele>32.8223</ele>
        <time>2012-09-30T08:10:59Z</time>
      </trkpt>
      <trkpt lat="59.9771342" lon="17.7391936">
        <ele>32.8223</ele>
        <time>2012-09-30T08:11:00Z</time>
      </trkpt>
      <trkpt lat="59.9771194" lon="17.7392103">
        <ele>32.3416</ele>
        <time>2012-09-30T08:11:01Z</time>
      </trkpt>
      <trkpt lat="59.9771007" lon="17.7392319">
        <ele>31.8607</ele>
        <time>2012-09-30T08:11:02Z</time>
      </trkpt>
      <trkpt lat="59.9770809" lon="17.7392481">
        <ele>32.3416</ele>
        <time>2012-09-30T08:11:03Z</time>
      </trkpt>
      <trkpt lat="59.977061" lon="17.7392574">
        <ele>32.3416</ele>
        <time>2012-09-30T08:11:04Z</time>
      </trkpt>
      <trkpt lat="59.9770417" lon="17.739274">
        <ele>31.3801</ele>
        <time>2012-09-30T08:11:05Z</time>
      </trkpt>
      <trkpt lat="59.9770225" lon="17.7392761">
        <ele>31.3801</ele>
        <time>2012-09-30T08:11:06Z</time>
      </trkpt>
      <trkpt lat="59.9770017" lon="17.7392884">
        <ele>31.3801</ele>
        <time>2012-09-30T08:11:07Z</time>
      </trkpt>
      <trkpt lat="59.9769836" lon="17.7393116">
        <ele>31.3801</ele>
        <time>2012-09-30T08:11:08Z</time>
      </trkpt>
      <trkpt lat="59.9769626" lon="17.7393075">
        <ele>32.3416</ele>
        <time>2012-09-30T08:11:09Z</time>
      </trkpt>
      <trkpt lat="59.9769477" lon="17.7393247">
        <ele>31.8607</ele>
        <time>2012-09-30T08:11:10Z</time>
      </trkpt>
      <trkpt lat="59.9769226" lon="17.7393466">
        <ele>31.3801</ele>
        <time>2012-09-30T08:11:11Z</time>
      </trkpt>
      <trkpt lat="59.9768967" lon="17.739361">
        <ele>31.3801</ele>
        <time>2012-09-30T08:11:12Z</time>
      </trkpt>
      <trkpt lat="59.9768702" lon="17.739377">
        <ele>31.3801</ele>
        <time>2012-09-30T08:11:13Z</time>
      </trkpt>
      <trkpt lat="59.9768433" lon="17.7393895">
        <ele>30.8995</ele>
        <time>2012-09-30T08:11:14Z</time>
      </trkpt>
      <trkpt lat="59.9768189" lon="17.7394061">
        <ele>30.4188</ele>
        <time>2012-09-30T08:11:15Z</time>
      </trkpt>
      <trkpt lat="59.9767956" lon="17.7394191">
        <ele>29.9381</ele>
        <time>2012-09-30T08:11:16Z</time>
      </trkpt>
      <trkpt lat="59.9767749" lon="17.739437">
        <ele>29.9381</ele>
        <time>2012-09-30T08:11:17Z</time>
      </trkpt>
      <trkpt lat="59.9767532" lon="17.7394738">
        <ele>29.4575</ele>
        <time>2012-09-30T08:11:18Z</time>
      </trkpt>
      <trkpt lat="59.9767294" lon="17.7394969">
        <ele>29.9381</ele>
        <time>2012-09-30T08:11:19Z</time>
      </trkpt>
      <trkpt lat="59.9766998" lon="17.7395232">
        <ele>29.9381</ele>
        <time>2012-09-30T08:11:20Z</time>
      </trkpt>
      <trkpt lat="59.9766652" lon="17.7395605">
        <ele>29.9381</ele>
        <time>2012-09-30T08:11:21Z</time>
      </trkpt>
      <trkpt lat="59.9766393" lon="17.7395879">
        <ele>29.9381</ele>
        <time>2012-09-30T08:11:22Z</time>
      </trkpt>
      <trkpt lat="59.9766144" lon="17.7396111">
        <ele>29.4575</ele>
        <time>2012-09-30T08:11:23Z</time>
      </trkpt>
      <trkpt lat="59.9765874" lon="17.7396274">
        <ele>29.9381</ele>
        <time>2012-09-30T08:11:24Z</time>
      </trkpt>
      <trkpt lat="59.9765624" lon="17.7396325">
        <ele>30.8995</ele>
        <time>2012-09-30T08:11:25Z</time>
      </trkpt>
      <trkpt lat="59.976548" lon="17.7396485">
        <ele>30.4188</ele>
        <time>2012-09-30T08:11:26Z</time>
      </trkpt>
      <trkpt lat="59.9765298" lon="17.739681">
        <ele>30.4188</ele>
        <time>2012-09-30T08:11:27Z</time>
      </trkpt>
      <trkpt lat="59.9765009" lon="17.7397009">
        <ele>31.3801</ele>
        <time>2012-09-30T08:11:28Z</time>
      </trkpt>
      <trkpt lat="59.9764815" lon="17.7397407">
        <ele>30.8995</ele>
        <time>2012-09-30T08:11:29Z</time>
      </trkpt>
      <trkpt lat="59.976462" lon="17.7397739">
        <ele>31.3801</ele>
        <time>2012-09-30T08:11:30Z</time>
      </trkpt>
      <trkpt lat="59.9764491" lon="17.7397998">
        <ele>30.8995</ele>
        <time>2012-09-30T08:11:31Z</time>
      </trkpt>
      <trkpt lat="59.9764284" lon="17.739821">
        <ele>30.8995</ele>
        <time>2012-09-30T08:11:32Z</time>
      </trkpt>
      <trkpt lat="59.9764093" lon="17.7398552">
        <ele>30.4188</ele>
        <time>2012-09-30T08:11:33Z</time>
      </trkpt>
      <trkpt lat="59.9763916" lon="17.7398863">
        <ele>29.4575</ele>
        <time>2012-09-30T08:11:34Z</time>
      </trkpt>
      <trkpt lat="59.9763714" lon="17.7398867">
        <ele>29.4575</ele>
        <time>2012-09-30T08:11:35Z</time>
      </trkpt>
      <trkpt lat="59.9763481" lon="17.739877">
        <ele>29.4575</ele>
        <time>2012-09-30T08:11:36Z</time>
      </trkpt>
      <trkpt lat="59.9763233" lon="17.739863">
        <ele>29.4575</ele>
        <time>2012-09-30T08:11:37Z</time>
      </trkpt>
      <trkpt lat="59.9762973" lon="17.7398381">
        <ele>29.9381</ele>
        <time>2012-09-30T08:11:38Z</time>
      </trkpt>
      <trkpt lat="59.9762761" lon="17.7398112">
        <ele>29.9381</ele>
        <time>2012-09-30T08:11:39Z</time>
      </trkpt>
      <trkpt lat="59.9762549" lon="17.7397791">
        <ele>29.9381</ele>
        <time>2012-09-30T08:11:40Z</time>
      </trkpt>
      <trkpt lat="59.9762329" lon="17.7397532">
        <ele>29.4575</ele>
        <time>2012-09-30T08:11:41Z</time>
      </trkpt>
      <trkpt lat="59.9762063" lon="17.7397226">
        <ele>28.9769</ele>
        <time>2012-09-30T08:11:42Z</time>
      </trkpt>
      <trkpt lat="59.9761807" lon="17.739683">
        <ele>28.9769</ele>
        <time>2012-09-30T08:11:43Z</time>
      </trkpt>
      <trkpt lat="59.9761548" lon="17.7396375">
        <ele>28.9769</ele>
        <time>2012-09-30T08:11:44Z</time>
      </trkpt>
      <trkpt lat="59.9761321" lon="17.7395951">
        <ele>28.9769</ele>
        <time>2012-09-30T08:11:45Z</time>
      </trkpt>
      <trkpt lat="59.9761112" lon="17.7395569">
        <ele>28.4962</ele>
        <time>2012-09-30T08:11:46Z</time>
      </trkpt>
      <trkpt lat="59.9760922" lon="17.7395261">
        <ele>28.0155</ele>
        <time>2012-09-30T08:11:47Z</time>
      </trkpt>
      <trkpt lat="59.9760585" lon="17.7394744">
        <ele>29.9381</ele>
        <time>2012-09-30T08:11:48Z</time>
      </trkpt>
      <trkpt lat="59.9760342" lon="17.7394297">
        <ele>30.4188</ele>
        <time>2012-09-30T08:11:49Z</time>
      </trkpt>
      <trkpt lat="59.97602" lon="17.7394026">
        <ele>29.4575</ele>
        <time>2012-09-30T08:11:50Z</time>
      </trkpt>
      <trkpt lat="59.9759996" lon="17.7393665">
        <ele>28.9769</ele>
        <time>2012-09-30T08:11:51Z</time>
      </trkpt>
      <trkpt lat="59.975983" lon="17.7393262">
        <ele>28.4962</ele>
        <time>2012-09-30T08:11:52Z</time>
      </trkpt>
      <trkpt lat="59.9759637" lon="17.739278">
        <ele>28.4962</ele>
        <time>2012-09-30T08:11:53Z</time>
      </trkpt>
      <trkpt lat="59.9759441" lon="17.7392382">
        <ele>28.0155</ele>
        <time>2012-09-30T08:11:54Z</time>
      </trkpt>
      <trkpt lat="59.9759177" lon="17.7392001">
        <ele>28.4962</ele>
        <time>2012-09-30T08:11:55Z</time>
      </trkpt>
      <trkpt lat="59.9758954" lon="17.7391673">
        <ele>28.9769</ele>
        <time>2012-09-30T08:11:56Z</time>
      </trkpt>
      <trkpt lat="59.9758749" lon="17.7391373">
        <ele>28.9769</ele>
        <time>2012-09-30T08:11:57Z</time>
      </trkpt>
      <trkpt lat="59.9758581" lon="17.7391052">
        <ele>28.4962</ele>
        <time>2012-09-30T08:11:58Z</time>
      </trkpt>
      <trkpt lat="59.9758415" lon="17.7390721">
        <ele>28.4962</ele>
        <time>2012-09-30T08:11:59Z</time>
      </trkpt>
      <trkpt lat="59.9758271" lon="17.7390436">
        <ele>28.0155</ele>
        <time>2012-09-30T08:12:00Z</time>
      </trkpt>
      <trkpt lat="59.9758081" lon="17.7390031">
        <ele>28.0155</ele>
        <time>2012-09-30T08:12:01Z</time>
      </trkpt>
      <trkpt lat="59.9757923" lon="17.7389564">
        <ele>28.0155</ele>
        <time>2012-09-30T08:12:02Z</time>
      </trkpt>
      <trkpt lat="59.9757735" lon="17.738916">
        <ele>27.5349</ele>
        <time>2012-09-30T08:12:03Z</time>
      </trkpt>
      <trkpt lat="59.9757477" lon="17.7388753">
        <ele>27.5349</ele>
        <time>2012-09-30T08:12:04Z</time>
      </trkpt>
      <trkpt lat="59.9757255" lon="17.7388285">
        <ele>27.5349</ele>
        <time>2012-09-30T08:12:05Z</time>
      </trkpt>
      <trkpt lat="59.9757037" lon="17.7387916">
        <ele>27.5349</ele>
        <time>2012-09-30T08:12:06Z</time>
      </trkpt>
      <trkpt lat="59.9756753" lon="17.738753">
        <ele>28.0155</ele>
        <time>2012-09-30T08:12:07Z</time>
      </trkpt>
      <trkpt lat="59.9756518" lon="17.7387014">
        <ele>28.0155</ele>
        <time>2012-09-30T08:12:08Z</time>
      </trkpt>
      <trkpt lat="59.9756273" lon="17.7386558">
        <ele>28.0155</ele>
        <time>2012-09-30T08:12:09Z</time>
      </trkpt>
      <trkpt lat="59.9755978" lon="17.7386162">
        <ele>28.9769</ele>
        <time>2012-09-30T08:12:10Z</time>
      </trkpt>
      <trkpt lat="59.975567" lon="17.7385685">
        <ele>28.9769</ele>
        <time>2012-09-30T08:12:11Z</time>
      </trkpt>
      <trkpt lat="59.9755414" lon="17.7385261">
        <ele>29.4575</ele>
        <time>2012-09-30T08:12:12Z</time>
      </trkpt>
      <trkpt lat="59.9755181" lon="17.7384815">
        <ele>29.4575</ele>
        <time>2012-09-30T08:12:13Z</time>
      </trkpt>
      <trkpt lat="59.9754918" lon="17.7384354">
        <ele>29.4575</ele>
        <time>2012-09-30T08:12:14Z</time>
      </trkpt>
      <trkpt lat="59.9754659" lon="17.7384036">
        <ele>29.4575</ele>
        <time>2012-09-30T08:12:15Z</time>
      </trkpt>
      <trkpt lat="59.975442" lon="17.7383716">
        <ele>29.9381</ele>
        <time>2012-09-30T08:12:16Z</time>
      </trkpt>
      <trkpt lat="59.9754171" lon="17.7383271">
        <ele>29.9381</ele>
        <time>2012-09-30T08:12:17Z</time>
      </trkpt>
      <trkpt lat="59.9753857" lon="17.7382829">
        <ele>30.4188</ele>
        <time>2012-09-30T08:12:18Z</time>
      </trkpt>
      <trkpt lat="59.9753602" lon="17.7382555">
        <ele>30.4188</ele>
        <time>2012-09-30T08:12:19Z</time>
      </trkpt>
      <trkpt lat="59.9753322" lon="17.7382209">
        <ele>30.8995</ele>
        <time>2012-09-30T08:12:20Z</time>
      </trkpt>
      <trkpt lat="59.9753074" lon="17.7381858">
        <ele>30.8995</ele>
        <time>2012-09-30T08:12:21Z</time>
      </trkpt>
      <trkpt lat="59.9752827" lon="17.7381442">
        <ele>31.3801</ele>
        <time>2012-09-30T08:12:22Z</time>
      </trkpt>
      <trkpt lat="59.9752562" lon="17.738099">
        <ele>31.3801</ele>
        <time>2012-09-30T08:12:23Z</time>
      </trkpt>
      <trkpt lat="59.9752249" lon="17.738063">
        <ele>31.3801</ele>
        <time>2012-09-30T08:12:24Z</time>
      </trkpt>
      <trkpt lat="59.9751935" lon="17.7380228">
        <ele>31.3801</ele>
        <time>2012-09-30T08:12:25Z</time>
      </trkpt>
      <trkpt lat="59.9751674" lon="17.7379881">
        <ele>31.3801</ele>
        <time>2012-09-30T08:12:26Z</time>
      </trkpt>
      <trkpt lat="59.9751441" lon="17.7379578">
        <ele>32.3416</ele>
        <time>2012-09-30T08:12:27Z</time>
      </trkpt>
      <trkpt lat="59.9751221" lon="17.737914">
        <ele>32.3416</ele>
        <time>2012-09-30T08:12:28Z</time>
      </trkpt>
      <trkpt lat="59.9750997" lon="17.737879">
        <ele>32.8223</ele>
        <time>2012-09-30T08:12:29Z</time>
      </trkpt>
      <trkpt lat="59.9750738" lon="17.7378402">
        <ele>33.3029</ele>
        <time>2012-09-30T08:12:30Z</time>
      </trkpt>
      <trkpt lat="59.9750483" lon="17.7377987">
        <ele>33.7834</ele>
        <time>2012-09-30T08:12:31Z</time>
      </trkpt>
      <trkpt lat="59.9750219" lon="17.7377588">
        <ele>34.2642</ele>
        <time>2012-09-30T08:12:32Z</time>
      </trkpt>
      <trkpt lat="59.975007" lon="17.73772">
        <ele>34.7449</ele>
        <time>2012-09-30T08:12:33Z</time>
      </trkpt>
      <trkpt lat="59.9750002" lon="17.7376888">
        <ele>35.2255</ele>
        <time>2012-09-30T08:12:34Z</time>
      </trkpt>
      <trkpt lat="59.9749843" lon="17.7376527">
        <ele>35.2255</ele>
        <time>2012-09-30T08:12:35Z</time>
      </trkpt>
      <trkpt lat="59.9749633" lon="17.7376165">
        <ele>35.2255</ele>
        <time>2012-09-30T08:12:36Z</time>
      </trkpt>
      <trkpt lat="59.9749422" lon="17.7375848">
        <ele>35.2255</ele>
        <time>2012-09-30T08:12:37Z</time>
      </trkpt>
      <trkpt lat="59.9749148" lon="17.737551">
        <ele>35.2255</ele>
        <time>2012-09-30T08:12:38Z</time>
      </trkpt>
      <trkpt lat="59.9748882" lon="17.7375195">
        <ele>34.7449</ele>
        <time>2012-09-30T08:12:39Z</time>
      </trkpt>
      <trkpt lat="59.9748734" lon="17.7374893">
        <ele>34.7449</ele>
        <time>2012-09-30T08:12:40Z</time>
      </trkpt>
      <trkpt lat="59.9748548" lon="17.7374567">
        <ele>34.7449</ele>
        <time>2012-09-30T08:12:41Z</time>
      </trkpt>
      <trkpt lat="59.9748363" lon="17.7374194">
        <ele>34.7449</ele>
        <time>2012-09-30T08:12:42Z</time>
      </trkpt>
      <trkpt lat="59.9748177" lon="17.7373766">
        <ele>34.7449</ele>
        <time>2012-09-30T08:12:43Z</time>
      </trkpt>
      <trkpt lat="59.9747961" lon="17.7373324">
        <ele>34.7449</ele>
        <time>2012-09-30T08:12:44Z</time>
      </trkpt>
      <trkpt lat="59.9747762" lon="17.7372883">
        <ele>34.7449</ele>
        <time>2012-09-30T08:12:45Z</time>
      </trkpt>
      <trkpt lat="59.9747558" lon="17.7372465">
        <ele>34.7449</ele>
        <time>2012-09-30T08:12:46Z</time>
      </trkpt>
      <trkpt lat="59.9747381" lon="17.7372103">
        <ele>34.2642</ele>
        <time>2012-09-30T08:12:47Z</time>
      </trkpt>
      <trkpt lat="59.9747187" lon="17.7371672">
        <ele>33.7834</ele>
        <time>2012-09-30T08:12:48Z</time>
      </trkpt>
      <trkpt lat="59.9747029" lon="17.7371246">
        <ele>33.3029</ele>
        <time>2012-09-30T08:12:49Z</time>
      </trkpt>
      <trkpt lat="59.9746888" lon="17.7370849">
        <ele>33.3029</ele>
        <time>2012-09-30T08:12:50Z</time>
      </trkpt>
      <trkpt lat="59.9746764" lon="17.737044">
        <ele>33.3029</ele>
        <time>2012-09-30T08:12:51Z</time>
      </trkpt>
      <trkpt lat="59.9746621" lon="17.7370031">
        <ele>32.8223</ele>
        <time>2012-09-30T08:12:52Z</time>
      </trkpt>
      <trkpt lat="59.9746448" lon="17.7369578">
        <ele>32.8223</ele>
        <time>2012-09-30T08:12:53Z</time>
      </trkpt>
      <trkpt lat="59.9746278" lon="17.7369073">
        <ele>32.8223</ele>
        <time>2012-09-30T08:12:54Z</time>
      </trkpt>
      <trkpt lat="59.9746147" lon="17.7368651">
        <ele>32.8223</ele>
        <time>2012-09-30T08:12:55Z</time>
      </trkpt>
      <trkpt lat="59.9746032" lon="17.7368249">
        <ele>32.3416</ele>
        <time>2012-09-30T08:12:56Z</time>
      </trkpt>
      <trkpt lat="59.974591" lon="17.7367804">
        <ele>31.8607</ele>
        <time>2012-09-30T08:12:57Z</time>
      </trkpt>
      <trkpt lat="59.9745787" lon="17.7367393">
        <ele>31.3801</ele>
        <time>2012-09-30T08:12:58Z</time>
      </trkpt>
      <trkpt lat="59.9745663" lon="17.7366947">
        <ele>30.8995</ele>
        <time>2012-09-30T08:12:59Z</time>
      </trkpt>
      <trkpt lat="59.9745562" lon="17.7366466">
        <ele>30.4188</ele>
        <time>2012-09-30T08:13:00Z</time>
      </trkpt>
      <trkpt lat="59.974545" lon="17.736604">
        <ele>30.4188</ele>
        <time>2012-09-30T08:13:01Z</time>
      </trkpt>
      <trkpt lat="59.9745325" lon="17.7365617">
        <ele>29.9381</ele>
        <time>2012-09-30T08:13:02Z</time>
      </trkpt>
      <trkpt lat="59.9745201" lon="17.7365161">
        <ele>28.9769</ele>
        <time>2012-09-30T08:13:03Z</time>
      </trkpt>
      <trkpt lat="59.9745076" lon="17.7364727">
        <ele>28.4962</ele>
        <time>2012-09-30T08:13:04Z</time>
      </trkpt>
      <trkpt lat="59.9744962" lon="17.7364254">
        <ele>28.4962</ele>
        <time>2012-09-30T08:13:05Z</time>
      </trkpt>
      <trkpt lat="59.9744865" lon="17.7363793">
        <ele>28.0155</ele>
        <time>2012-09-30T08:13:06Z</time>
      </trkpt>
      <trkpt lat="59.9744753" lon="17.7363311">
        <ele>27.5349</ele>
        <time>2012-09-30T08:13:07Z</time>
      </trkpt>
      <trkpt lat="59.9744644" lon="17.7362792">
        <ele>27.5349</ele>
        <time>2012-09-30T08:13:08Z</time>
      </trkpt>
      <trkpt lat="59.9744532" lon="17.7362332">
        <ele>27.0543</ele>
        <time>2012-09-30T08:13:09Z</time>
      </trkpt>
      <trkpt lat="59.9744398" lon="17.7361816">
        <ele>26.5736</ele>
        <time>2012-09-30T08:13:10Z</time>
      </trkpt>
      <trkpt lat="59.9744278" lon="17.7361256">
        <ele>26.5736</ele>
        <time>2012-09-30T08:13:11Z</time>
      </trkpt>
      <trkpt lat="59.974415" lon="17.7360738">
        <ele>27.0543</ele>
        <time>2012-09-30T08:13:12Z</time>
      </trkpt>
      <trkpt lat="59.9744038" lon="17.7360245">
        <ele>27.0543</ele>
        <time>2012-09-30T08:13:13Z</time>
      </trkpt>
      <trkpt lat="59.9743946" lon="17.7359738">
        <ele>26.5736</ele>
        <time>2012-09-30T08:13:14Z</time>
      </trkpt>
      <trkpt lat="59.9743854" lon="17.7359283">
        <ele>26.0929</ele>
        <time>2012-09-30T08:13:15Z</time>
      </trkpt>
      <trkpt lat="59.9743776" lon="17.7358829">
        <ele>26.0929</ele>
        <time>2012-09-30T08:13:16Z</time>
      </trkpt>
      <trkpt lat="59.9743696" lon="17.7358355">
        <ele>25.1317</ele>
        <time>2012-09-30T08:13:17Z</time>
      </trkpt>
      <trkpt lat="59.9743598" lon="17.735789">
        <ele>25.1317</ele>
        <time>2012-09-30T08:13:18Z</time>
      </trkpt>
      <trkpt lat="59.9743511" lon="17.7357394">
        <ele>24.651</ele>
        <time>2012-09-30T08:13:19Z</time>
      </trkpt>
      <trkpt lat="59.9743404" lon="17.73568">
        <ele>24.651</ele>
        <time>2012-09-30T08:13:20Z</time>
      </trkpt>
      <trkpt lat="59.9743302" lon="17.7356252">
        <ele>24.651</ele>
        <time>2012-09-30T08:13:21Z</time>
      </trkpt>
      <trkpt lat="59.9743219" lon="17.7355697">
        <ele>25.1317</ele>
        <time>2012-09-30T08:13:22Z</time>
      </trkpt>
      <trkpt lat="59.9743145" lon="17.7355154">
        <ele>24.651</ele>
        <time>2012-09-30T08:13:23Z</time>
      </trkpt>
      <trkpt lat="59.9743052" lon="17.7354641">
        <ele>24.651</ele>
        <time>2012-09-30T08:13:24Z</time>
      </trkpt>
      <trkpt lat="59.9742973" lon="17.7354112">
        <ele>24.651</ele>
        <time>2012-09-30T08:13:25Z</time>
      </trkpt>
      <trkpt lat="59.9742832" lon="17.7353602">
        <ele>23.209</ele>
        <time>2012-09-30T08:13:26Z</time>
      </trkpt>
      <trkpt lat="59.9742729" lon="17.7353085">
        <ele>22.7283</ele>
        <time>2012-09-30T08:13:27Z</time>
      </trkpt>
      <trkpt lat="59.9742687" lon="17.7352567">
        <ele>22.7283</ele>
        <time>2012-09-30T08:13:28Z</time>
      </trkpt>
      <trkpt lat="59.9742642" lon="17.7352029">
        <ele>22.7283</ele>
        <time>2012-09-30T08:13:29Z</time>
      </trkpt>
      <trkpt lat="59.974259" lon="17.7351485">
        <ele>22.7283</ele>
        <time>2012-09-30T08:13:30Z</time>
      </trkpt>
      <trkpt lat="59.9742543" lon="17.7350927">
        <ele>22.7283</ele>
        <time>2012-09-30T08:13:31Z</time>
      </trkpt>
      <trkpt lat="59.9742516" lon="17.7350417">
        <ele>22.7283</ele>
        <time>2012-09-30T08:13:32Z</time>
      </trkpt>
      <trkpt lat="59.9742496" lon="17.7349973">
        <ele>22.7283</ele>
        <time>2012-09-30T08:13:33Z</time>
      </trkpt>
      <trkpt lat="59.9742491" lon="17.7349544">
        <ele>22.7283</ele>
        <time>2012-09-30T08:13:34Z</time>
      </trkpt>
      <trkpt lat="59.974243" lon="17.7349004">
        <ele>22.7283</ele>
        <time>2012-09-30T08:13:35Z</time>
      </trkpt>
      <trkpt lat="59.974232" lon="17.7348399">
        <ele>23.209</ele>
        <time>2012-09-30T08:13:36Z</time>
      </trkpt>
      <trkpt lat="59.9742268" lon="17.7347825">
        <ele>23.209</ele>
        <time>2012-09-30T08:13:37Z</time>
      </trkpt>
      <trkpt lat="59.9742258" lon="17.7347285">
        <ele>23.209</ele>
        <time>2012-09-30T08:13:38Z</time>
      </trkpt>
      <trkpt lat="59.9742213" lon="17.7346762">
        <ele>23.209</ele>
        <time>2012-09-30T08:13:39Z</time>
      </trkpt>
      <trkpt lat="59.9742155" lon="17.7346166">
        <ele>23.6896</ele>
        <time>2012-09-30T08:13:40Z</time>
      </trkpt>
      <trkpt lat="59.9742126" lon="17.734558">
        <ele>23.6896</ele>
        <time>2012-09-30T08:13:41Z</time>
      </trkpt>
      <trkpt lat="59.9742118" lon="17.7345074">
        <ele>23.6896</ele>
        <time>2012-09-30T08:13:42Z</time>
      </trkpt>
      <trkpt lat="59.9742129" lon="17.7344605">
        <ele>23.6896</ele>
        <time>2012-09-30T08:13:43Z</time>
      </trkpt>
      <trkpt lat="59.9742149" lon="17.7344159">
        <ele>23.6896</ele>
        <time>2012-09-30T08:13:44Z</time>
      </trkpt>
      <trkpt lat="59.9742171" lon="17.7343711">
        <ele>23.6896</ele>
        <time>2012-09-30T08:13:45Z</time>
      </trkpt>
      <trkpt lat="59.9742197" lon="17.7343216">
        <ele>23.209</ele>
        <time>2012-09-30T08:13:46Z</time>
      </trkpt>
      <trkpt lat="59.974221" lon="17.7342676">
        <ele>23.6896</ele>
        <time>2012-09-30T08:13:47Z</time>
      </trkpt>
      <trkpt lat="59.9742195" lon="17.734217">
        <ele>23.209</ele>
        <time>2012-09-30T08:13:48Z</time>
      </trkpt>
      <trkpt lat="59.9742215" lon="17.7341675">
        <ele>23.209</ele>
        <time>2012-09-30T08:13:49Z</time>
      </trkpt>
      <trkpt lat="59.9742253" lon="17.7341209">
        <ele>23.209</ele>
        <time>2012-09-30T08:13:50Z</time>
      </trkpt>
      <trkpt lat="59.9742283" lon="17.7340748">
        <ele>23.209</ele>
        <time>2012-09-30T08:13:51Z</time>
      </trkpt>
      <trkpt lat="59.9742305" lon="17.7340271">
        <ele>23.209</ele>
        <time>2012-09-30T08:13:52Z</time>
      </trkpt>
      <trkpt lat="59.9742352" lon="17.7339836">
        <ele>23.209</ele>
        <time>2012-09-30T08:13:53Z</time>
      </trkpt>
      <trkpt lat="59.9742401" lon="17.7339375">
        <ele>22.7283</ele>
        <time>2012-09-30T08:13:54Z</time>
      </trkpt>
      <trkpt lat="59.974242" lon="17.7338889">
        <ele>22.7283</ele>
        <time>2012-09-30T08:13:55Z</time>
      </trkpt>
      <trkpt lat="59.9742451" lon="17.7338365">
        <ele>23.209</ele>
        <time>2012-09-30T08:13:56Z</time>
      </trkpt>
      <trkpt lat="59.9742475" lon="17.7337873">
        <ele>22.7283</ele>
        <time>2012-09-30T08:13:57Z</time>
      </trkpt>
      <trkpt lat="59.9742507" lon="17.7337375">
        <ele>23.209</ele>
        <time>2012-09-30T08:13:58Z</time>
      </trkpt>
      <trkpt lat="59.9742548" lon="17.733685">
        <ele>23.209</ele>
        <time>2012-09-30T08:13:59Z</time>
      </trkpt>
      <trkpt lat="59.9742584" lon="17.7336381">
        <ele>23.209</ele>
        <time>2012-09-30T08:14:00Z</time>
      </trkpt>
      <trkpt lat="59.9742636" lon="17.7335915">
        <ele>23.209</ele>
        <time>2012-09-30T08:14:01Z</time>
      </trkpt>
      <trkpt lat="59.9742684" lon="17.7335438">
        <ele>23.209</ele>
        <time>2012-09-30T08:14:02Z</time>
      </trkpt>
      <trkpt lat="59.9742735" lon="17.7335008">
        <ele>23.6896</ele>
        <time>2012-09-30T08:14:03Z</time>
      </trkpt>
      <trkpt lat="59.9742767" lon="17.7334538">
        <ele>23.6896</ele>
        <time>2012-09-30T08:14:04Z</time>
      </trkpt>
      <trkpt lat="59.9742798" lon="17.7334024">
        <ele>23.6896</ele>
        <time>2012-09-30T08:14:05Z</time>
      </trkpt>
      <trkpt lat="59.9742838" lon="17.7333537">
        <ele>23.6896</ele>
        <time>2012-09-30T08:14:06Z</time>
      </trkpt>
      <trkpt lat="59.9742916" lon="17.7333055">
        <ele>23.6896</ele>
        <time>2012-09-30T08:14:07Z</time>
      </trkpt>
      <trkpt lat="59.9742983" lon="17.7332542">
        <ele>23.209</ele>
        <time>2012-09-30T08:14:08Z</time>
      </trkpt>
      <trkpt lat="59.9743024" lon="17.733206">
        <ele>23.209</ele>
        <time>2012-09-30T08:14:09Z</time>
      </trkpt>
      <trkpt lat="59.974307" lon="17.7331605">
        <ele>23.209</ele>
        <time>2012-09-30T08:14:10Z</time>
      </trkpt>
      <trkpt lat="59.9743093" lon="17.7331128">
        <ele>23.209</ele>
        <time>2012-09-30T08:14:11Z</time>
      </trkpt>
      <trkpt lat="59.9743102" lon="17.7330625">
        <ele>23.209</ele>
        <time>2012-09-30T08:14:12Z</time>
      </trkpt>
      <trkpt lat="59.9743088" lon="17.7330111">
        <ele>23.209</ele>
        <time>2012-09-30T08:14:13Z</time>
      </trkpt>
      <trkpt lat="59.9743054" lon="17.7329596">
        <ele>23.209</ele>
        <time>2012-09-30T08:14:14Z</time>
      </trkpt>
      <trkpt lat="59.9743044" lon="17.7329065">
        <ele>23.209</ele>
        <time>2012-09-30T08:14:15Z</time>
      </trkpt>
      <trkpt lat="59.9743061" lon="17.7328522">
        <ele>23.209</ele>
        <time>2012-09-30T08:14:16Z</time>
      </trkpt>
      <trkpt lat="59.9743077" lon="17.7328015">
        <ele>23.209</ele>
        <time>2012-09-30T08:14:17Z</time>
      </trkpt>
      <trkpt lat="59.9743088" lon="17.7327455">
        <ele>23.209</ele>
        <time>2012-09-30T08:14:18Z</time>
      </trkpt>
      <trkpt lat="59.9743082" lon="17.7326871">
        <ele>23.209</ele>
        <time>2012-09-30T08:14:19Z</time>
      </trkpt>
      <trkpt lat="59.9743074" lon="17.7326352">
        <ele>22.7283</ele>
        <time>2012-09-30T08:14:20Z</time>
      </trkpt>
      <trkpt lat="59.9743074" lon="17.732587">
        <ele>22.7283</ele>
        <time>2012-09-30T08:14:21Z</time>
      </trkpt>
      <trkpt lat="59.9743062" lon="17.7325357">
        <ele>22.7283</ele>
        <time>2012-09-30T08:14:22Z</time>
      </trkpt>
      <trkpt lat="59.9743026" lon="17.7324799">
        <ele>22.7283</ele>
        <time>2012-09-30T08:14:23Z</time>
      </trkpt>
      <trkpt lat="59.9742982" lon="17.7324317">
        <ele>22.7283</ele>
        <time>2012-09-30T08:14:24Z</time>
      </trkpt>
      <trkpt lat="59.9742955" lon="17.7323782">
        <ele>22.7283</ele>
        <time>2012-09-30T08:14:25Z</time>
      </trkpt>
      <trkpt lat="59.9742957" lon="17.7323151">
        <ele>23.209</ele>
        <time>2012-09-30T08:14:26Z</time>
      </trkpt>
      <trkpt lat="59.9742952" lon="17.7322568">
        <ele>23.209</ele>
        <time>2012-09-30T08:14:27Z</time>
      </trkpt>
      <trkpt lat="59.9742943" lon="17.7321983">
        <ele>23.6896</ele>
        <time>2012-09-30T08:14:28Z</time>
      </trkpt>
      <trkpt lat="59.9742927" lon="17.7321455">
        <ele>23.6896</ele>
        <time>2012-09-30T08:14:29Z</time>
      </trkpt>
      <trkpt lat="59.9742896" lon="17.7320927">
        <ele>24.1703</ele>
        <time>2012-09-30T08:14:30Z</time>
      </trkpt>
      <trkpt lat="59.9742858" lon="17.7320353">
        <ele>24.1703</ele>
        <time>2012-09-30T08:14:31Z</time>
      </trkpt>
      <trkpt lat="59.9742869" lon="17.7319872">
        <ele>24.1703</ele>
        <time>2012-09-30T08:14:32Z</time>
      </trkpt>
      <trkpt lat="59.9742894" lon="17.7319435">
        <ele>24.1703</ele>
        <time>2012-09-30T08:14:33Z</time>
      </trkpt>
      <trkpt lat="59.9742876" lon="17.7318893">
        <ele>24.1703</ele>
        <time>2012-09-30T08:14:34Z</time>
      </trkpt>
      <trkpt lat="59.9742824" lon="17.7318342">
        <ele>24.1703</ele>
        <time>2012-09-30T08:14:35Z</time>
      </trkpt>
      <trkpt lat="59.9742795" lon="17.7317811">
        <ele>24.651</ele>
        <time>2012-09-30T08:14:36Z</time>
      </trkpt>
      <trkpt lat="59.9742779" lon="17.73173">
        <ele>24.651</ele>
        <time>2012-09-30T08:14:37Z</time>
      </trkpt>
      <trkpt lat="59.9742786" lon="17.7316819">
        <ele>24.651</ele>
        <time>2012-09-30T08:14:38Z</time>
      </trkpt>
      <trkpt lat="59.9742795" lon="17.7316344">
        <ele>24.651</ele>
        <time>2012-09-30T08:14:39Z</time>
      </trkpt>
      <trkpt lat="59.9742812" lon="17.7315852">
        <ele>25.1317</ele>
        <time>2012-09-30T08:14:40Z</time>
      </trkpt>
      <trkpt lat="59.9742838" lon="17.7315386">
        <ele>25.1317</ele>
        <time>2012-09-30T08:14:41Z</time>
      </trkpt>
      <trkpt lat="59.9742864" lon="17.7314882">
        <ele>25.1317</ele>
        <time>2012-09-30T08:14:42Z</time>
      </trkpt>
      <trkpt lat="59.974288" lon="17.7314381">
        <ele>25.1317</ele>
        <time>2012-09-30T08:14:43Z</time>
      </trkpt>
      <trkpt lat="59.9742878" lon="17.7313882">
        <ele>25.1317</ele>
        <time>2012-09-30T08:14:44Z</time>
      </trkpt>
      <trkpt lat="59.9742895" lon="17.7313408">
        <ele>24.651</ele>
        <time>2012-09-30T08:14:45Z</time>
      </trkpt>
      <trkpt lat="59.9742937" lon="17.7312882">
        <ele>25.1317</ele>
        <time>2012-09-30T08:14:46Z</time>
      </trkpt>
      <trkpt lat="59.9742957" lon="17.7312359">
        <ele>25.1317</ele>
        <time>2012-09-30T08:14:47Z</time>
      </trkpt>
      <trkpt lat="59.9742986" lon="17.73119">
        <ele>24.651</ele>
        <time>2012-09-30T08:14:48Z</time>
      </trkpt>
      <trkpt lat="59.9743038" lon="17.7311457">
        <ele>24.651</ele>
        <time>2012-09-30T08:14:49Z</time>
      </trkpt>
      <trkpt lat="59.9743097" lon="17.731095">
        <ele>24.651</ele>
        <time>2012-09-30T08:14:50Z</time>
      </trkpt>
      <trkpt lat="59.9743142" lon="17.7310496">
        <ele>24.1703</ele>
        <time>2012-09-30T08:14:51Z</time>
      </trkpt>
      <trkpt lat="59.9743206" lon="17.7310024">
        <ele>24.651</ele>
        <time>2012-09-30T08:14:52Z</time>
      </trkpt>
      <trkpt lat="59.9743257" lon="17.7309528">
        <ele>24.651</ele>
        <time>2012-09-30T08:14:53Z</time>
      </trkpt>
      <trkpt lat="59.9743294" lon="17.7309019">
        <ele>25.1317</ele>
        <time>2012-09-30T08:14:54Z</time>
      </trkpt>
      <trkpt lat="59.9743324" lon="17.7308465">
        <ele>25.6123</ele>
        <time>2012-09-30T08:14:55Z</time>
      </trkpt>
      <trkpt lat="59.9743377" lon="17.7307919">
        <ele>25.6123</ele>
        <time>2012-09-30T08:14:56Z</time>
      </trkpt>
      <trkpt lat="59.9743422" lon="17.7307377">
        <ele>25.6123</ele>
        <time>2012-09-30T08:14:57Z</time>
      </trkpt>
      <trkpt lat="59.9743429" lon="17.7306802">
        <ele>26.0929</ele>
        <time>2012-09-30T08:14:58Z</time>
      </trkpt>
      <trkpt lat="59.9743455" lon="17.7306269">
        <ele>25.6123</ele>
        <time>2012-09-30T08:14:59Z</time>
      </trkpt>
      <trkpt lat="59.9743516" lon="17.7305751">
        <ele>26.0929</ele>
        <time>2012-09-30T08:15:00Z</time>
      </trkpt>
      <trkpt lat="59.9743558" lon="17.7305212">
        <ele>26.0929</ele>
        <time>2012-09-30T08:15:01Z</time>
      </trkpt>
      <trkpt lat="59.9743584" lon="17.7304679">
        <ele>26.5736</ele>
        <time>2012-09-30T08:15:02Z</time>
      </trkpt>
      <trkpt lat="59.9743631" lon="17.7304127">
        <ele>27.0543</ele>
        <time>2012-09-30T08:15:03Z</time>
      </trkpt>
      <trkpt lat="59.9743704" lon="17.73036">
        <ele>27.0543</ele>
        <time>2012-09-30T08:15:04Z</time>
      </trkpt>
      <trkpt lat="59.9743764" lon="17.7303057">
        <ele>27.0543</ele>
        <time>2012-09-30T08:15:05Z</time>
      </trkpt>
      <trkpt lat="59.9743812" lon="17.7302524">
        <ele>27.5349</ele>
        <time>2012-09-30T08:15:06Z</time>
      </trkpt>
      <trkpt lat="59.9743848" lon="17.7302025">
        <ele>27.5349</ele>
        <time>2012-09-30T08:15:07Z</time>
      </trkpt>
      <trkpt lat="59.9743895" lon="17.7301477">
        <ele>27.5349</ele>
        <time>2012-09-30T08:15:08Z</time>
      </trkpt>
      <trkpt lat="59.9743998" lon="17.7300879">
        <ele>27.5349</ele>
        <time>2012-09-30T08:15:09Z</time>
      </trkpt>
      <trkpt lat="59.9744088" lon="17.7300328">
        <ele>27.0543</ele>
        <time>2012-09-30T08:15:10Z</time>
      </trkpt>
      <trkpt lat="59.9744129" lon="17.7299804">
        <ele>27.0543</ele>
        <time>2012-09-30T08:15:11Z</time>
      </trkpt>
      <trkpt lat="59.9744167" lon="17.7299326">
        <ele>27.0543</ele>
        <time>2012-09-30T08:15:12Z</time>
      </trkpt>
      <trkpt lat="59.9744214" lon="17.7298825">
        <ele>27.0543</ele>
        <time>2012-09-30T08:15:13Z</time>
      </trkpt>
      <trkpt lat="59.9744259" lon="17.7298367">
        <ele>26.5736</ele>
        <time>2012-09-30T08:15:14Z</time>
      </trkpt>
      <trkpt lat="59.9744372" lon="17.7297899">
        <ele>26.5736</ele>
        <time>2012-09-30T08:15:15Z</time>
      </trkpt>
      <trkpt lat="59.974446" lon="17.7297353">
        <ele>26.5736</ele>
        <time>2012-09-30T08:15:16Z</time>
      </trkpt>
      <trkpt lat="59.9744512" lon="17.7296846">
        <ele>26.5736</ele>
        <time>2012-09-30T08:15:17Z</time>
      </trkpt>
      <trkpt lat="59.9744535" lon="17.7296345">
        <ele>26.5736</ele>
        <time>2012-09-30T08:15:18Z</time>
      </trkpt>
      <trkpt lat="59.9744564" lon="17.7295841">
        <ele>26.5736</ele>
        <time>2012-09-30T08:15:19Z</time>
      </trkpt>
      <trkpt lat="59.9744654" lon="17.7295365">
        <ele>26.0929</ele>
        <time>2012-09-30T08:15:20Z</time>
      </trkpt>
      <trkpt lat="59.9744688" lon="17.7294858">
        <ele>26.0929</ele>
        <time>2012-09-30T08:15:21Z</time>
      </trkpt>
      <trkpt lat="59.9744691" lon="17.729433">
        <ele>26.0929</ele>
        <time>2012-09-30T08:15:22Z</time>
      </trkpt>
      <trkpt lat="59.9744713" lon="17.7293855">
        <ele>26.0929</ele>
        <time>2012-09-30T08:15:23Z</time>
      </trkpt>
      <trkpt lat="59.9744715" lon="17.729339">
        <ele>26.0929</ele>
        <time>2012-09-30T08:15:24Z</time>
      </trkpt>
      <trkpt lat="59.9744696" lon="17.7292861">
        <ele>25.6123</ele>
        <time>2012-09-30T08:15:25Z</time>
      </trkpt>
      <trkpt lat="59.9744666" lon="17.7292293">
        <ele>26.0929</ele>
        <time>2012-09-30T08:15:26Z</time>
      </trkpt>
      <trkpt lat="59.9744652" lon="17.7291759">
        <ele>26.0929</ele>
        <time>2012-09-30T08:15:27Z</time>
      </trkpt>
      <trkpt lat="59.9744646" lon="17.7291274">
        <ele>25.6123</ele>
        <time>2012-09-30T08:15:28Z</time>
      </trkpt>
      <trkpt lat="59.974462" lon="17.7290752">
        <ele>25.6123</ele>
        <time>2012-09-30T08:15:29Z</time>
      </trkpt>
      <trkpt lat="59.974461" lon="17.7290183">
        <ele>25.6123</ele>
        <time>2012-09-30T08:15:30Z</time>
      </trkpt>
      <trkpt lat="59.9744588" lon="17.7289659">
        <ele>25.6123</ele>
        <time>2012-09-30T08:15:31Z</time>
      </trkpt>
      <trkpt lat="59.9744572" lon="17.7289204">
        <ele>25.6123</ele>
        <time>2012-09-30T08:15:32Z</time>
      </trkpt>
      <trkpt lat="59.9744557" lon="17.728873">
        <ele>25.6123</ele>
        <time>2012-09-30T08:15:33Z</time>
      </trkpt>
      <trkpt lat="59.9744538" lon="17.7288227">
        <ele>25.6123</ele>
        <time>2012-09-30T08:15:34Z</time>
      </trkpt>
      <trkpt lat="59.9744515" lon="17.7287682">
        <ele>26.0929</ele>
        <time>2012-09-30T08:15:35Z</time>
      </trkpt>
      <trkpt lat="59.9744499" lon="17.7287154">
        <ele>26.0929</ele>
        <time>2012-09-30T08:15:36Z</time>
      </trkpt>
      <trkpt lat="59.9744475" lon="17.7286569">
        <ele>26.0929</ele>
        <time>2012-09-30T08:15:37Z</time>
      </trkpt>
      <trkpt lat="59.9744438" lon="17.7285987">
        <ele>26.0929</ele>
        <time>2012-09-30T08:15:38Z</time>
      </trkpt>
      <trkpt lat="59.9744385" lon="17.7285428">
        <ele>26.0929</ele>
        <time>2012-09-30T08:15:39Z</time>
      </trkpt>
      <trkpt lat="59.9744352" lon="17.7284854">
        <ele>26.0929</ele>
        <time>2012-09-30T08:15:40Z</time>
      </trkpt>
      <trkpt lat="59.9744318" lon="17.7284341">
        <ele>26.5736</ele>
        <time>2012-09-30T08:15:41Z</time>
      </trkpt>
      <trkpt lat="59.9744283" lon="17.7283827">
        <ele>26.5736</ele>
        <time>2012-09-30T08:15:42Z</time>
      </trkpt>
      <trkpt lat="59.9744273" lon="17.72833">
        <ele>27.0543</ele>
        <time>2012-09-30T08:15:43Z</time>
      </trkpt>
      <trkpt lat="59.974423" lon="17.7282782">
        <ele>27.0543</ele>
        <time>2012-09-30T08:15:44Z</time>
      </trkpt>
      <trkpt lat="59.9744207" lon="17.7282265">
        <ele>27.0543</ele>
        <time>2012-09-30T08:15:45Z</time>
      </trkpt>
      <trkpt lat="59.9744186" lon="17.7281719">
        <ele>27.0543</ele>
        <time>2012-09-30T08:15:46Z</time>
      </trkpt>
      <trkpt lat="59.974416" lon="17.7281177">
        <ele>27.5349</ele>
        <time>2012-09-30T08:15:47Z</time>
      </trkpt>
      <trkpt lat="59.9744136" lon="17.7280626">
        <ele>27.5349</ele>
        <time>2012-09-30T08:15:48Z</time>
      </trkpt>
      <trkpt lat="59.9744081" lon="17.7280104">
        <ele>27.5349</ele>
        <time>2012-09-30T08:15:49Z</time>
      </trkpt>
      <trkpt lat="59.9744004" lon="17.7279559">
        <ele>28.0155</ele>
        <time>2012-09-30T08:15:50Z</time>
      </trkpt>
      <trkpt lat="59.9743981" lon="17.7279035">
        <ele>28.0155</ele>
        <time>2012-09-30T08:15:51Z</time>
      </trkpt>
      <trkpt lat="59.9743948" lon="17.7278546">
        <ele>28.4962</ele>
        <time>2012-09-30T08:15:52Z</time>
      </trkpt>
      <trkpt lat="59.9743941" lon="17.7278059">
        <ele>28.4962</ele>
        <time>2012-09-30T08:15:53Z</time>
      </trkpt>
      <trkpt lat="59.9743927" lon="17.7277581">
        <ele>28.4962</ele>
        <time>2012-09-30T08:15:54Z</time>
      </trkpt>
      <trkpt lat="59.9743908" lon="17.7277137">
        <ele>28.4962</ele>
        <time>2012-09-30T08:15:55Z</time>
      </trkpt>
      <trkpt lat="59.9743909" lon="17.7276614">
        <ele>28.9769</ele>
        <time>2012-09-30T08:15:56Z</time>
      </trkpt>
      <trkpt lat="59.9743978" lon="17.7276134">
        <ele>28.4962</ele>
        <time>2012-09-30T08:15:57Z</time>
      </trkpt>
      <trkpt lat="59.9743995" lon="17.7275656">
        <ele>28.4962</ele>
        <time>2012-09-30T08:15:58Z</time>
      </trkpt>
      <trkpt lat="59.9743971" lon="17.7275146">
        <ele>28.4962</ele>
        <time>2012-09-30T08:15:59Z</time>
      </trkpt>
      <trkpt lat="59.9743934" lon="17.7274654">
        <ele>28.9769</ele>
        <time>2012-09-30T08:16:00Z</time>
      </trkpt>
      <trkpt lat="59.9743896" lon="17.7274124">
        <ele>28.9769</ele>
        <time>2012-09-30T08:16:01Z</time>
      </trkpt>
      <trkpt lat="59.9743838" lon="17.7273587">
        <ele>29.4575</ele>
        <time>2012-09-30T08:16:02Z</time>
      </trkpt>
      <trkpt lat="59.9743785" lon="17.7273044">
        <ele>29.4575</ele>
        <time>2012-09-30T08:16:03Z</time>
      </trkpt>
      <trkpt lat="59.9743771" lon="17.7272503">
        <ele>29.9381</ele>
        <time>2012-09-30T08:16:04Z</time>
      </trkpt>
      <trkpt lat="59.9743776" lon="17.7272028">
        <ele>29.9381</ele>
        <time>2012-09-30T08:16:05Z</time>
      </trkpt>
      <trkpt lat="59.974379" lon="17.7271547">
        <ele>29.9381</ele>
        <time>2012-09-30T08:16:06Z</time>
      </trkpt>
      <trkpt lat="59.9743816" lon="17.7271049">
        <ele>29.9381</ele>
        <time>2012-09-30T08:16:07Z</time>
      </trkpt>
      <trkpt lat="59.974382" lon="17.7270532">
        <ele>29.9381</ele>
        <time>2012-09-30T08:16:08Z</time>
      </trkpt>
      <trkpt lat="59.9743802" lon="17.727006">
        <ele>30.4188</ele>
        <time>2012-09-30T08:16:09Z</time>
      </trkpt>
      <trkpt lat="59.9743803" lon="17.7269586">
        <ele>30.8995</ele>
        <time>2012-09-30T08:16:10Z</time>
      </trkpt>
      <trkpt lat="59.9743806" lon="17.7269169">
        <ele>30.8995</ele>
        <time>2012-09-30T08:16:11Z</time>
      </trkpt>
      <trkpt lat="59.9743807" lon="17.726869">
        <ele>30.8995</ele>
        <time>2012-09-30T08:16:12Z</time>
      </trkpt>
      <trkpt lat="59.9743802" lon="17.7268159">
        <ele>31.3801</ele>
        <time>2012-09-30T08:16:13Z</time>
      </trkpt>
      <trkpt lat="59.9743812" lon="17.7267702">
        <ele>30.8995</ele>
        <time>2012-09-30T08:16:14Z</time>
      </trkpt>
      <trkpt lat="59.9743769" lon="17.7267158">
        <ele>31.3801</ele>
        <time>2012-09-30T08:16:15Z</time>
      </trkpt>
      <trkpt lat="59.974376" lon="17.7266642">
        <ele>31.3801</ele>
        <time>2012-09-30T08:16:16Z</time>
      </trkpt>
      <trkpt lat="59.9743753" lon="17.7266178">
        <ele>31.3801</ele>
        <time>2012-09-30T08:16:17Z</time>
      </trkpt>
      <trkpt lat="59.9743749" lon="17.726566">
        <ele>31.3801</ele>
        <time>2012-09-30T08:16:18Z</time>
      </trkpt>
      <trkpt lat="59.9743769" lon="17.726514">
        <ele>31.3801</ele>
        <time>2012-09-30T08:16:19Z</time>
      </trkpt>
      <trkpt lat="59.9743822" lon="17.7264688">
        <ele>30.8995</ele>
        <time>2012-09-30T08:16:20Z</time>
      </trkpt>
      <trkpt lat="59.9743848" lon="17.7264199">
        <ele>30.8995</ele>
        <time>2012-09-30T08:16:21Z</time>
      </trkpt>
      <trkpt lat="59.9743886" lon="17.7263788">
        <ele>30.8995</ele>
        <time>2012-09-30T08:16:22Z</time>
      </trkpt>
      <trkpt lat="59.9743934" lon="17.7263398">
        <ele>30.4188</ele>
        <time>2012-09-30T08:16:23Z</time>
      </trkpt>
      <trkpt lat="59.9743943" lon="17.7262925">
        <ele>30.4188</ele>
        <time>2012-09-30T08:16:24Z</time>
      </trkpt>
      <trkpt lat="59.974393" lon="17.726243">
        <ele>29.9381</ele>
        <time>2012-09-30T08:16:25Z</time>
      </trkpt>
      <trkpt lat="59.9743924" lon="17.7261942">
        <ele>29.9381</ele>
        <time>2012-09-30T08:16:26Z</time>
      </trkpt>
      <trkpt lat="59.9743937" lon="17.7261413">
        <ele>29.9381</ele>
        <time>2012-09-30T08:16:27Z</time>
      </trkpt>
      <trkpt lat="59.9743942" lon="17.7260915">
        <ele>28.9769</ele>
        <time>2012-09-30T08:16:28Z</time>
      </trkpt>
      <trkpt lat="59.9743929" lon="17.7260413">
        <ele>28.4962</ele>
        <time>2012-09-30T08:16:29Z</time>
      </trkpt>
      <trkpt lat="59.974394" lon="17.7259865">
        <ele>28.4962</ele>
        <time>2012-09-30T08:16:30Z</time>
      </trkpt>
      <trkpt lat="59.9743942" lon="17.7259363">
        <ele>27.5349</ele>
        <time>2012-09-30T08:16:31Z</time>
      </trkpt>
      <trkpt lat="59.9743915" lon="17.7258831">
        <ele>27.0543</ele>
        <time>2012-09-30T08:16:32Z</time>
      </trkpt>
      <trkpt lat="59.9743893" lon="17.7258281">
        <ele>26.5736</ele>
        <time>2012-09-30T08:16:33Z</time>
      </trkpt>
      <trkpt lat="59.9743847" lon="17.7257758">
        <ele>26.5736</ele>
        <time>2012-09-30T08:16:34Z</time>
      </trkpt>
      <trkpt lat="59.9743831" lon="17.7257316">
        <ele>26.0929</ele>
        <time>2012-09-30T08:16:35Z</time>
      </trkpt>
      <trkpt lat="59.9743803" lon="17.7256869">
        <ele>25.6123</ele>
        <time>2012-09-30T08:16:36Z</time>
      </trkpt>
      <trkpt lat="59.9743786" lon="17.7256453">
        <ele>25.1317</ele>
        <time>2012-09-30T08:16:37Z</time>
      </trkpt>
      <trkpt lat="59.9743733" lon="17.725596">
        <ele>24.651</ele>
        <time>2012-09-30T08:16:38Z</time>
      </trkpt>
      <trkpt lat="59.9743615" lon="17.725542">
        <ele>24.651</ele>
        <time>2012-09-30T08:16:39Z</time>
      </trkpt>
      <trkpt lat="59.9743425" lon="17.7254891">
        <ele>23.6896</ele>
        <time>2012-09-30T08:16:40Z</time>
      </trkpt>
      <trkpt lat="59.9743323" lon="17.72543">
        <ele>24.1703</ele>
        <time>2012-09-30T08:16:41Z</time>
      </trkpt>
      <trkpt lat="59.9743263" lon="17.7253717">
        <ele>24.651</ele>
        <time>2012-09-30T08:16:42Z</time>
      </trkpt>
      <trkpt lat="59.9743175" lon="17.7253214">
        <ele>24.1703</ele>
        <time>2012-09-30T08:16:43Z</time>
      </trkpt>
      <trkpt lat="59.974308" lon="17.7252701">
        <ele>24.1703</ele>
        <time>2012-09-30T08:16:44Z</time>
      </trkpt>
      <trkpt lat="59.9742956" lon="17.725214">
        <ele>24.1703</ele>
        <time>2012-09-30T08:16:45Z</time>
      </trkpt>
      <trkpt lat="59.9742842" lon="17.7251653">
        <ele>24.1703</ele>
        <time>2012-09-30T08:16:46Z</time>
      </trkpt>
      <trkpt lat="59.9742769" lon="17.7251164">
        <ele>24.1703</ele>
        <time>2012-09-30T08:16:47Z</time>
      </trkpt>
      <trkpt lat="59.9742725" lon="17.7250633">
        <ele>24.1703</ele>
        <time>2012-09-30T08:16:48Z</time>
      </trkpt>
      <trkpt lat="59.9742676" lon="17.725011">
        <ele>24.651</ele>
        <time>2012-09-30T08:16:49Z</time>
      </trkpt>
      <trkpt lat="59.9742614" lon="17.724955">
        <ele>25.1317</ele>
        <time>2012-09-30T08:16:50Z</time>
      </trkpt>
      <trkpt lat="59.9742553" lon="17.7249017">
        <ele>25.1317</ele>
        <time>2012-09-30T08:16:51Z</time>
      </trkpt>
      <trkpt lat="59.9742465" lon="17.7248509">
        <ele>25.1317</ele>
        <time>2012-09-30T08:16:52Z</time>
      </trkpt>
      <trkpt lat="59.9742391" lon="17.7247993">
        <ele>25.6123</ele>
        <time>2012-09-30T08:16:53Z</time>
      </trkpt>
      <trkpt lat="59.9742288" lon="17.7247535">
        <ele>25.1317</ele>
        <time>2012-09-30T08:16:54Z</time>
      </trkpt>
      <trkpt lat="59.974218" lon="17.7247055">
        <ele>25.6123</ele>
        <time>2012-09-30T08:16:55Z</time>
      </trkpt>
      <trkpt lat="59.9742127" lon="17.724654">
        <ele>25.6123</ele>
        <time>2012-09-30T08:16:56Z</time>
      </trkpt>
      <trkpt lat="59.9742041" lon="17.7246084">
        <ele>25.6123</ele>
        <time>2012-09-30T08:16:57Z</time>
      </trkpt>
      <trkpt lat="59.9741952" lon="17.7245639">
        <ele>25.1317</ele>
        <time>2012-09-30T08:16:58Z</time>
      </trkpt>
      <trkpt lat="59.9741875" lon="17.7245124">
        <ele>25.6123</ele>
        <time>2012-09-30T08:16:59Z</time>
      </trkpt>
      <trkpt lat="59.9741777" lon="17.7244652">
        <ele>25.6123</ele>
        <time>2012-09-30T08:17:00Z</time>
      </trkpt>
      <trkpt lat="59.9741718" lon="17.7244143">
        <ele>26.0929</ele>
        <time>2012-09-30T08:17:01Z</time>
      </trkpt>
      <trkpt lat="59.9741684" lon="17.724357">
        <ele>26.5736</ele>
        <time>2012-09-30T08:17:02Z</time>
      </trkpt>
      <trkpt lat="59.9741636" lon="17.724303">
        <ele>26.5736</ele>
        <time>2012-09-30T08:17:03Z</time>
      </trkpt>
      <trkpt lat="59.9741569" lon="17.7242543">
        <ele>26.5736</ele>
        <time>2012-09-30T08:17:04Z</time>
      </trkpt>
      <trkpt lat="59.9741513" lon="17.724206">
        <ele>27.0543</ele>
        <time>2012-09-30T08:17:05Z</time>
      </trkpt>
      <trkpt lat="59.9741455" lon="17.7241611">
        <ele>27.0543</ele>
        <time>2012-09-30T08:17:06Z</time>
      </trkpt>
      <trkpt lat="59.9741399" lon="17.7241163">
        <ele>27.0543</ele>
        <time>2012-09-30T08:17:07Z</time>
      </trkpt>
      <trkpt lat="59.9741341" lon="17.7240688">
        <ele>27.5349</ele>
        <time>2012-09-30T08:17:08Z</time>
      </trkpt>
      <trkpt lat="59.9741232" lon="17.7240207">
        <ele>27.5349</ele>
        <time>2012-09-30T08:17:09Z</time>
      </trkpt>
      <trkpt lat="59.9741116" lon="17.7239735">
        <ele>28.0155</ele>
        <time>2012-09-30T08:17:10Z</time>
      </trkpt>
      <trkpt lat="59.9741061" lon="17.7239202">
        <ele>28.4962</ele>
        <time>2012-09-30T08:17:11Z</time>
      </trkpt>
      <trkpt lat="59.9740977" lon="17.7238682">
        <ele>28.9769</ele>
        <time>2012-09-30T08:17:12Z</time>
      </trkpt>
      <trkpt lat="59.9740859" lon="17.7238185">
        <ele>28.9769</ele>
        <time>2012-09-30T08:17:13Z</time>
      </trkpt>
      <trkpt lat="59.9740777" lon="17.7237665">
        <ele>29.4575</ele>
        <time>2012-09-30T08:17:14Z</time>
      </trkpt>
      <trkpt lat="59.9740698" lon="17.7237157">
        <ele>29.9381</ele>
        <time>2012-09-30T08:17:15Z</time>
      </trkpt>
      <trkpt lat="59.9740636" lon="17.7236651">
        <ele>30.4188</ele>
        <time>2012-09-30T08:17:16Z</time>
      </trkpt>
      <trkpt lat="59.9740528" lon="17.7236175">
        <ele>29.9381</ele>
        <time>2012-09-30T08:17:17Z</time>
      </trkpt>
      <trkpt lat="59.9740409" lon="17.723568">
        <ele>30.4188</ele>
        <time>2012-09-30T08:17:18Z</time>
      </trkpt>
      <trkpt lat="59.97403" lon="17.7235219">
        <ele>30.4188</ele>
        <time>2012-09-30T08:17:19Z</time>
      </trkpt>
      <trkpt lat="59.9740225" lon="17.7234778">
        <ele>30.8995</ele>
        <time>2012-09-30T08:17:20Z</time>
      </trkpt>
      <trkpt lat="59.9740181" lon="17.7234307">
        <ele>30.8995</ele>
        <time>2012-09-30T08:17:21Z</time>
      </trkpt>
      <trkpt lat="59.9740093" lon="17.7233789">
        <ele>30.8995</ele>
        <time>2012-09-30T08:17:22Z</time>
      </trkpt>
      <trkpt lat="59.9740001" lon="17.7233305">
        <ele>30.8995</ele>
        <time>2012-09-30T08:17:23Z</time>
      </trkpt>
      <trkpt lat="59.9739891" lon="17.7232806">
        <ele>30.8995</ele>
        <time>2012-09-30T08:17:24Z</time>
      </trkpt>
      <trkpt lat="59.9739817" lon="17.7232324">
        <ele>30.8995</ele>
        <time>2012-09-30T08:17:25Z</time>
      </trkpt>
      <trkpt lat="59.9739724" lon="17.7231845">
        <ele>30.8995</ele>
        <time>2012-09-30T08:17:26Z</time>
      </trkpt>
      <trkpt lat="59.9739632" lon="17.723141">
        <ele>30.8995</ele>
        <time>2012-09-30T08:17:27Z</time>
      </trkpt>
      <trkpt lat="59.9739569" lon="17.7230997">
        <ele>30.4188</ele>
        <time>2012-09-30T08:17:28Z</time>
      </trkpt>
      <trkpt lat="59.9739457" lon="17.7230484">
        <ele>30.8995</ele>
        <time>2012-09-30T08:17:29Z</time>
      </trkpt>
      <trkpt lat="59.9739383" lon="17.7230048">
        <ele>30.8995</ele>
        <time>2012-09-30T08:17:30Z</time>
      </trkpt>
      <trkpt lat="59.9739273" lon="17.7229598">
        <ele>30.8995</ele>
        <time>2012-09-30T08:17:31Z</time>
      </trkpt>
      <trkpt lat="59.973915" lon="17.7229148">
        <ele>30.8995</ele>
        <time>2012-09-30T08:17:32Z</time>
      </trkpt>
      <trkpt lat="59.9739001" lon="17.7228615">
        <ele>31.3801</ele>
        <time>2012-09-30T08:17:33Z</time>
      </trkpt>
      <trkpt lat="59.9738911" lon="17.7228164">
        <ele>31.3801</ele>
        <time>2012-09-30T08:17:34Z</time>
      </trkpt>
      <trkpt lat="59.9738783" lon="17.7227737">
        <ele>31.3801</ele>
        <time>2012-09-30T08:17:35Z</time>
      </trkpt>
      <trkpt lat="59.9738648" lon="17.7227275">
        <ele>30.8995</ele>
        <time>2012-09-30T08:17:36Z</time>
      </trkpt>
      <trkpt lat="59.9738492" lon="17.722683">
        <ele>30.8995</ele>
        <time>2012-09-30T08:17:37Z</time>
      </trkpt>
      <trkpt lat="59.9738404" lon="17.7226395">
        <ele>31.3801</ele>
        <time>2012-09-30T08:17:38Z</time>
      </trkpt>
      <trkpt lat="59.9738358" lon="17.7225927">
        <ele>31.8607</ele>
        <time>2012-09-30T08:17:39Z</time>
      </trkpt>
      <trkpt lat="59.9738259" lon="17.7225559">
        <ele>32.3416</ele>
        <time>2012-09-30T08:17:40Z</time>
      </trkpt>
      <trkpt lat="59.9738086" lon="17.7225123">
        <ele>32.3416</ele>
        <time>2012-09-30T08:17:41Z</time>
      </trkpt>
      <trkpt lat="59.9737917" lon="17.722463">
        <ele>32.3416</ele>
        <time>2012-09-30T08:17:42Z</time>
      </trkpt>
      <trkpt lat="59.9737796" lon="17.7224241">
        <ele>31.8607</ele>
        <time>2012-09-30T08:17:43Z</time>
      </trkpt>
      <trkpt lat="59.9737636" lon="17.7223817">
        <ele>32.3416</ele>
        <time>2012-09-30T08:17:44Z</time>
      </trkpt>
      <trkpt lat="59.9737529" lon="17.7223439">
        <ele>31.8607</ele>
        <time>2012-09-30T08:17:45Z</time>
      </trkpt>
      <trkpt lat="59.9737425" lon="17.7223103">
        <ele>31.3801</ele>
        <time>2012-09-30T08:17:46Z</time>
      </trkpt>
      <trkpt lat="59.9737322" lon="17.7222722">
        <ele>30.8995</ele>
        <time>2012-09-30T08:17:47Z</time>
      </trkpt>
      <trkpt lat="59.9737216" lon="17.7222289">
        <ele>30.4188</ele>
        <time>2012-09-30T08:17:48Z</time>
      </trkpt>
      <trkpt lat="59.9737119" lon="17.7221916">
        <ele>30.4188</ele>
        <time>2012-09-30T08:17:49Z</time>
      </trkpt>
      <trkpt lat="59.9736974" lon="17.7221526">
        <ele>29.9381</ele>
        <time>2012-09-30T08:17:50Z</time>
      </trkpt>
      <trkpt lat="59.9736869" lon="17.7221056">
        <ele>29.9381</ele>
        <time>2012-09-30T08:17:51Z</time>
      </trkpt>
      <trkpt lat="59.9736768" lon="17.7220624">
        <ele>29.4575</ele>
        <time>2012-09-30T08:17:52Z</time>
      </trkpt>
      <trkpt lat="59.9736648" lon="17.7220253">
        <ele>29.4575</ele>
        <time>2012-09-30T08:17:53Z</time>
      </trkpt>
      <trkpt lat="59.9736586" lon="17.7219904">
        <ele>28.9769</ele>
        <time>2012-09-30T08:17:54Z</time>
      </trkpt>
      <trkpt lat="59.9736489" lon="17.7219581">
        <ele>28.4962</ele>
        <time>2012-09-30T08:17:55Z</time>
      </trkpt>
      <trkpt lat="59.9736352" lon="17.7219228">
        <ele>28.4962</ele>
        <time>2012-09-30T08:17:56Z</time>
      </trkpt>
      <trkpt lat="59.9736213" lon="17.721884">
        <ele>28.4962</ele>
        <time>2012-09-30T08:17:57Z</time>
      </trkpt>
      <trkpt lat="59.9736092" lon="17.7218455">
        <ele>28.4962</ele>
        <time>2012-09-30T08:17:58Z</time>
      </trkpt>
      <trkpt lat="59.9735945" lon="17.7218089">
        <ele>28.4962</ele>
        <time>2012-09-30T08:17:59Z</time>
      </trkpt>
      <trkpt lat="59.9735781" lon="17.7217762">
        <ele>28.4962</ele>
        <time>2012-09-30T08:18:00Z</time>
      </trkpt>
      <trkpt lat="59.9735607" lon="17.7217412">
        <ele>28.4962</ele>
        <time>2012-09-30T08:18:01Z</time>
      </trkpt>
      <trkpt lat="59.9735394" lon="17.7217072">
        <ele>28.4962</ele>
        <time>2012-09-30T08:18:02Z</time>
      </trkpt>
      <trkpt lat="59.9735181" lon="17.7216704">
        <ele>28.4962</ele>
        <time>2012-09-30T08:18:03Z</time>
      </trkpt>
      <trkpt lat="59.9735021" lon="17.7216347">
        <ele>28.4962</ele>
        <time>2012-09-30T08:18:04Z</time>
      </trkpt>
      <trkpt lat="59.9734821" lon="17.7216">
        <ele>28.4962</ele>
        <time>2012-09-30T08:18:05Z</time>
      </trkpt>
      <trkpt lat="59.9734611" lon="17.7215628">
        <ele>28.4962</ele>
        <time>2012-09-30T08:18:06Z</time>
      </trkpt>
      <trkpt lat="59.9734421" lon="17.7215276">
        <ele>28.9769</ele>
        <time>2012-09-30T08:18:07Z</time>
      </trkpt>
      <trkpt lat="59.9734239" lon="17.7214934">
        <ele>28.9769</ele>
        <time>2012-09-30T08:18:08Z</time>
      </trkpt>
      <trkpt lat="59.9734053" lon="17.7214539">
        <ele>28.9769</ele>
        <time>2012-09-30T08:18:09Z</time>
      </trkpt>
      <trkpt lat="59.973385" lon="17.7214133">
        <ele>29.4575</ele>
        <time>2012-09-30T08:18:10Z</time>
      </trkpt>
      <trkpt lat="59.9733633" lon="17.7213726">
        <ele>29.4575</ele>
        <time>2012-09-30T08:18:11Z</time>
      </trkpt>
      <trkpt lat="59.9733426" lon="17.7213365">
        <ele>29.4575</ele>
        <time>2012-09-30T08:18:12Z</time>
      </trkpt>
      <trkpt lat="59.9733198" lon="17.7213073">
        <ele>29.9381</ele>
        <time>2012-09-30T08:18:13Z</time>
      </trkpt>
      <trkpt lat="59.9732994" lon="17.721268">
        <ele>29.9381</ele>
        <time>2012-09-30T08:18:14Z</time>
      </trkpt>
      <trkpt lat="59.9732772" lon="17.7212234">
        <ele>29.9381</ele>
        <time>2012-09-30T08:18:15Z</time>
      </trkpt>
      <trkpt lat="59.9732555" lon="17.7211908">
        <ele>29.9381</ele>
        <time>2012-09-30T08:18:16Z</time>
      </trkpt>
      <trkpt lat="59.9732373" lon="17.7211556">
        <ele>29.9381</ele>
        <time>2012-09-30T08:18:17Z</time>
      </trkpt>
      <trkpt lat="59.9732203" lon="17.7211162">
        <ele>29.9381</ele>
        <time>2012-09-30T08:18:18Z</time>
      </trkpt>
      <trkpt lat="59.9732022" lon="17.7210847">
        <ele>29.9381</ele>
        <time>2012-09-30T08:18:19Z</time>
      </trkpt>
      <trkpt lat="59.973185" lon="17.7210523">
        <ele>29.9381</ele>
        <time>2012-09-30T08:18:20Z</time>
      </trkpt>
      <trkpt lat="59.9731649" lon="17.7210131">
        <ele>29.4575</ele>
        <time>2012-09-30T08:18:21Z</time>
      </trkpt>
      <trkpt lat="59.9731442" lon="17.7209826">
        <ele>29.4575</ele>
        <time>2012-09-30T08:18:22Z</time>
      </trkpt>
      <trkpt lat="59.9731243" lon="17.7209519">
        <ele>29.4575</ele>
        <time>2012-09-30T08:18:23Z</time>
      </trkpt>
      <trkpt lat="59.9731064" lon="17.7209126">
        <ele>29.4575</ele>
        <time>2012-09-30T08:18:24Z</time>
      </trkpt>
      <trkpt lat="59.973084" lon="17.7208774">
        <ele>29.4575</ele>
        <time>2012-09-30T08:18:25Z</time>
      </trkpt>
      <trkpt lat="59.9730591" lon="17.7208469">
        <ele>29.4575</ele>
        <time>2012-09-30T08:18:26Z</time>
      </trkpt>
      <trkpt lat="59.9730371" lon="17.7208111">
        <ele>29.4575</ele>
        <time>2012-09-30T08:18:27Z</time>
      </trkpt>
      <trkpt lat="59.9730167" lon="17.7207795">
        <ele>29.4575</ele>
        <time>2012-09-30T08:18:28Z</time>
      </trkpt>
      <trkpt lat="59.972994" lon="17.7207501">
        <ele>29.4575</ele>
        <time>2012-09-30T08:18:29Z</time>
      </trkpt>
      <trkpt lat="59.972972" lon="17.7207152">
        <ele>29.4575</ele>
        <time>2012-09-30T08:18:30Z</time>
      </trkpt>
      <trkpt lat="59.9729498" lon="17.7206857">
        <ele>29.4575</ele>
        <time>2012-09-30T08:18:31Z</time>
      </trkpt>
      <trkpt lat="59.9729298" lon="17.7206561">
        <ele>29.4575</ele>
        <time>2012-09-30T08:18:32Z</time>
      </trkpt>
      <trkpt lat="59.9729079" lon="17.7206284">
        <ele>29.4575</ele>
        <time>2012-09-30T08:18:33Z</time>
      </trkpt>
      <trkpt lat="59.9728871" lon="17.7206063">
        <ele>29.9381</ele>
        <time>2012-09-30T08:18:34Z</time>
      </trkpt>
      <trkpt lat="59.9728686" lon="17.7205815">
        <ele>29.9381</ele>
        <time>2012-09-30T08:18:35Z</time>
      </trkpt>
      <trkpt lat="59.9728489" lon="17.7205552">
        <ele>29.9381</ele>
        <time>2012-09-30T08:18:36Z</time>
      </trkpt>
      <trkpt lat="59.972828" lon="17.7205304">
        <ele>29.9381</ele>
        <time>2012-09-30T08:18:37Z</time>
      </trkpt>
      <trkpt lat="59.9728038" lon="17.7205039">
        <ele>29.9381</ele>
        <time>2012-09-30T08:18:38Z</time>
      </trkpt>
      <trkpt lat="59.9727805" lon="17.7204738">
        <ele>29.9381</ele>
        <time>2012-09-30T08:18:39Z</time>
      </trkpt>
      <trkpt lat="59.9727561" lon="17.7204441">
        <ele>29.9381</ele>
        <time>2012-09-30T08:18:40Z</time>
      </trkpt>
      <trkpt lat="59.9727298" lon="17.720411">
        <ele>30.4188</ele>
        <time>2012-09-30T08:18:41Z</time>
      </trkpt>
      <trkpt lat="59.972707" lon="17.7203835">
        <ele>30.4188</ele>
        <time>2012-09-30T08:18:42Z</time>
      </trkpt>
      <trkpt lat="59.9726878" lon="17.7203621">
        <ele>30.4188</ele>
        <time>2012-09-30T08:18:43Z</time>
      </trkpt>
      <trkpt lat="59.9726671" lon="17.7203374">
        <ele>30.4188</ele>
        <time>2012-09-30T08:18:44Z</time>
      </trkpt>
      <trkpt lat="59.9726454" lon="17.72031">
        <ele>29.9381</ele>
        <time>2012-09-30T08:18:45Z</time>
      </trkpt>
      <trkpt lat="59.9726196" lon="17.7202864">
        <ele>29.9381</ele>
        <time>2012-09-30T08:18:46Z</time>
      </trkpt>
      <trkpt lat="59.9725959" lon="17.7202657">
        <ele>29.9381</ele>
        <time>2012-09-30T08:18:47Z</time>
      </trkpt>
      <trkpt lat="59.9725753" lon="17.7202377">
        <ele>30.4188</ele>
        <time>2012-09-30T08:18:48Z</time>
      </trkpt>
      <trkpt lat="59.9725507" lon="17.7202175">
        <ele>29.9381</ele>
        <time>2012-09-30T08:18:49Z</time>
      </trkpt>
      <trkpt lat="59.9725203" lon="17.7202113">
        <ele>30.4188</ele>
        <time>2012-09-30T08:18:50Z</time>
      </trkpt>
      <trkpt lat="59.9724925" lon="17.7201983">
        <ele>30.4188</ele>
        <time>2012-09-30T08:18:51Z</time>
      </trkpt>
      <trkpt lat="59.9724686" lon="17.720174">
        <ele>30.4188</ele>
        <time>2012-09-30T08:18:52Z</time>
      </trkpt>
      <trkpt lat="59.9724433" lon="17.7201523">
        <ele>30.8995</ele>
        <time>2012-09-30T08:18:53Z</time>
      </trkpt>
      <trkpt lat="59.9724178" lon="17.720131">
        <ele>30.8995</ele>
        <time>2012-09-30T08:18:54Z</time>
      </trkpt>
      <trkpt lat="59.9723957" lon="17.7201038">
        <ele>31.3801</ele>
        <time>2012-09-30T08:18:55Z</time>
      </trkpt>
      <trkpt lat="59.9723739" lon="17.7200801">
        <ele>31.3801</ele>
        <time>2012-09-30T08:18:56Z</time>
      </trkpt>
      <trkpt lat="59.9723496" lon="17.72006">
        <ele>31.8607</ele>
        <time>2012-09-30T08:18:57Z</time>
      </trkpt>
      <trkpt lat="59.9723247" lon="17.7200318">
        <ele>31.8607</ele>
        <time>2012-09-30T08:18:58Z</time>
      </trkpt>
      <trkpt lat="59.9723051" lon="17.7200023">
        <ele>31.8607</ele>
        <time>2012-09-30T08:18:59Z</time>
      </trkpt>
      <trkpt lat="59.9722842" lon="17.7199783">
        <ele>31.8607</ele>
        <time>2012-09-30T08:19:00Z</time>
      </trkpt>
      <trkpt lat="59.9722624" lon="17.7199555">
        <ele>31.8607</ele>
        <time>2012-09-30T08:19:01Z</time>
      </trkpt>
      <trkpt lat="59.9722414" lon="17.719931">
        <ele>31.8607</ele>
        <time>2012-09-30T08:19:02Z</time>
      </trkpt>
      <trkpt lat="59.9722193" lon="17.7199068">
        <ele>31.8607</ele>
        <time>2012-09-30T08:19:03Z</time>
      </trkpt>
      <trkpt lat="59.9721972" lon="17.7198843">
        <ele>31.8607</ele>
        <time>2012-09-30T08:19:04Z</time>
      </trkpt>
      <trkpt lat="59.9721777" lon="17.7198615">
        <ele>31.8607</ele>
        <time>2012-09-30T08:19:05Z</time>
      </trkpt>
      <trkpt lat="59.9721541" lon="17.719837">
        <ele>31.8607</ele>
        <time>2012-09-30T08:19:06Z</time>
      </trkpt>
      <trkpt lat="59.9721323" lon="17.719814">
        <ele>31.8607</ele>
        <time>2012-09-30T08:19:07Z</time>
      </trkpt>
      <trkpt lat="59.97211" lon="17.7197985">
        <ele>31.8607</ele>
        <time>2012-09-30T08:19:08Z</time>
      </trkpt>
      <trkpt lat="59.9720844" lon="17.7197843">
        <ele>31.8607</ele>
        <time>2012-09-30T08:19:09Z</time>
      </trkpt>
      <trkpt lat="59.9720609" lon="17.7197685">
        <ele>32.3416</ele>
        <time>2012-09-30T08:19:10Z</time>
      </trkpt>
      <trkpt lat="59.9720393" lon="17.7197533">
        <ele>32.3416</ele>
        <time>2012-09-30T08:19:11Z</time>
      </trkpt>
      <trkpt lat="59.9720158" lon="17.7197338">
        <ele>32.3416</ele>
        <time>2012-09-30T08:19:12Z</time>
      </trkpt>
      <trkpt lat="59.9719906" lon="17.7197118">
        <ele>32.3416</ele>
        <time>2012-09-30T08:19:13Z</time>
      </trkpt>
      <trkpt lat="59.9719635" lon="17.7196902">
        <ele>32.3416</ele>
        <time>2012-09-30T08:19:14Z</time>
      </trkpt>
      <trkpt lat="59.9719373" lon="17.7196687">
        <ele>32.8223</ele>
        <time>2012-09-30T08:19:15Z</time>
      </trkpt>
      <trkpt lat="59.9719129" lon="17.7196472">
        <ele>32.3416</ele>
        <time>2012-09-30T08:19:16Z</time>
      </trkpt>
      <trkpt lat="59.9718907" lon="17.7196263">
        <ele>32.8223</ele>
        <time>2012-09-30T08:19:17Z</time>
      </trkpt>
      <trkpt lat="59.9718657" lon="17.7196036">
        <ele>32.8223</ele>
        <time>2012-09-30T08:19:18Z</time>
      </trkpt>
      <trkpt lat="59.9718378" lon="17.7195799">
        <ele>32.3416</ele>
        <time>2012-09-30T08:19:19Z</time>
      </trkpt>
      <trkpt lat="59.9718114" lon="17.7195591">
        <ele>32.8223</ele>
        <time>2012-09-30T08:19:20Z</time>
      </trkpt>
      <trkpt lat="59.9717874" lon="17.7195409">
        <ele>32.8223</ele>
        <time>2012-09-30T08:19:21Z</time>
      </trkpt>
      <trkpt lat="59.9717637" lon="17.7195207">
        <ele>32.3416</ele>
        <time>2012-09-30T08:19:22Z</time>
      </trkpt>
      <trkpt lat="59.9717383" lon="17.7195046">
        <ele>32.3416</ele>
        <time>2012-09-30T08:19:23Z</time>
      </trkpt>
      <trkpt lat="59.971714" lon="17.7194886">
        <ele>32.3416</ele>
        <time>2012-09-30T08:19:24Z</time>
      </trkpt>
      <trkpt lat="59.9716864" lon="17.7194744">
        <ele>32.3416</ele>
        <time>2012-09-30T08:19:25Z</time>
      </trkpt>
      <trkpt lat="59.9716613" lon="17.7194586">
        <ele>31.8607</ele>
        <time>2012-09-30T08:19:26Z</time>
      </trkpt>
      <trkpt lat="59.9716425" lon="17.7194307">
        <ele>31.8607</ele>
        <time>2012-09-30T08:19:27Z</time>
      </trkpt>
      <trkpt lat="59.9716187" lon="17.719409">
        <ele>31.8607</ele>
        <time>2012-09-30T08:19:28Z</time>
      </trkpt>
      <trkpt lat="59.9715906" lon="17.7193958">
        <ele>31.8607</ele>
        <time>2012-09-30T08:19:29Z</time>
      </trkpt>
      <trkpt lat="59.971562" lon="17.7193768">
        <ele>31.8607</ele>
        <time>2012-09-30T08:19:30Z</time>
      </trkpt>
      <trkpt lat="59.9715348" lon="17.7193566">
        <ele>31.8607</ele>
        <time>2012-09-30T08:19:31Z</time>
      </trkpt>
      <trkpt lat="59.9715107" lon="17.7193343">
        <ele>32.3416</ele>
        <time>2012-09-30T08:19:32Z</time>
      </trkpt>
      <trkpt lat="59.971486" lon="17.7193089">
        <ele>32.3416</ele>
        <time>2012-09-30T08:19:33Z</time>
      </trkpt>
      <trkpt lat="59.971456" lon="17.7192896">
        <ele>32.3416</ele>
        <time>2012-09-30T08:19:34Z</time>
      </trkpt>
      <trkpt lat="59.9714273" lon="17.7192711">
        <ele>32.3416</ele>
        <time>2012-09-30T08:19:35Z</time>
      </trkpt>
      <trkpt lat="59.9714043" lon="17.7192491">
        <ele>32.8223</ele>
        <time>2012-09-30T08:19:36Z</time>
      </trkpt>
      <trkpt lat="59.9713851" lon="17.7192286">
        <ele>32.8223</ele>
        <time>2012-09-30T08:19:37Z</time>
      </trkpt>
      <trkpt lat="59.9713677" lon="17.7192047">
        <ele>32.8223</ele>
        <time>2012-09-30T08:19:38Z</time>
      </trkpt>
      <trkpt lat="59.9713447" lon="17.7191831">
        <ele>32.8223</ele>
        <time>2012-09-30T08:19:39Z</time>
      </trkpt>
      <trkpt lat="59.9713203" lon="17.7191643">
        <ele>32.8223</ele>
        <time>2012-09-30T08:19:40Z</time>
      </trkpt>
      <trkpt lat="59.9712955" lon="17.7191416">
        <ele>32.3416</ele>
        <time>2012-09-30T08:19:41Z</time>
      </trkpt>
      <trkpt lat="59.9712755" lon="17.7191189">
        <ele>31.8607</ele>
        <time>2012-09-30T08:19:42Z</time>
      </trkpt>
      <trkpt lat="59.9712574" lon="17.7190906">
        <ele>31.3801</ele>
        <time>2012-09-30T08:19:43Z</time>
      </trkpt>
      <trkpt lat="59.9712378" lon="17.7190607">
        <ele>30.8995</ele>
        <time>2012-09-30T08:19:44Z</time>
      </trkpt>
      <trkpt lat="59.9712193" lon="17.719035">
        <ele>30.4188</ele>
        <time>2012-09-30T08:19:45Z</time>
      </trkpt>
      <trkpt lat="59.9711996" lon="17.719011">
        <ele>30.4188</ele>
        <time>2012-09-30T08:19:46Z</time>
      </trkpt>
      <trkpt lat="59.9711814" lon="17.7189854">
        <ele>29.9381</ele>
        <time>2012-09-30T08:19:47Z</time>
      </trkpt>
      <trkpt lat="59.9711602" lon="17.7189629">
        <ele>29.4575</ele>
        <time>2012-09-30T08:19:48Z</time>
      </trkpt>
      <trkpt lat="59.9711377" lon="17.7189448">
        <ele>29.4575</ele>
        <time>2012-09-30T08:19:49Z</time>
      </trkpt>
      <trkpt lat="59.9711172" lon="17.718925">
        <ele>29.4575</ele>
        <time>2012-09-30T08:19:50Z</time>
      </trkpt>
      <trkpt lat="59.9710924" lon="17.7189059">
        <ele>29.4575</ele>
        <time>2012-09-30T08:19:51Z</time>
      </trkpt>
      <trkpt lat="59.9710691" lon="17.7188867">
        <ele>29.9381</ele>
        <time>2012-09-30T08:19:52Z</time>
      </trkpt>
      <trkpt lat="59.9710494" lon="17.7188644">
        <ele>29.4575</ele>
        <time>2012-09-30T08:19:53Z</time>
      </trkpt>
      <trkpt lat="59.9710281" lon="17.7188446">
        <ele>29.4575</ele>
        <time>2012-09-30T08:19:54Z</time>
      </trkpt>
      <trkpt lat="59.9710077" lon="17.7188225">
        <ele>29.4575</ele>
        <time>2012-09-30T08:19:55Z</time>
      </trkpt>
      <trkpt lat="59.9709856" lon="17.7188013">
        <ele>28.9769</ele>
        <time>2012-09-30T08:19:56Z</time>
      </trkpt>
      <trkpt lat="59.9709592" lon="17.7187907">
        <ele>28.9769</ele>
        <time>2012-09-30T08:19:57Z</time>
      </trkpt>
      <trkpt lat="59.9709337" lon="17.7187827">
        <ele>28.9769</ele>
        <time>2012-09-30T08:19:58Z</time>
      </trkpt>
      <trkpt lat="59.9709112" lon="17.7187726">
        <ele>28.9769</ele>
        <time>2012-09-30T08:19:59Z</time>
      </trkpt>
      <trkpt lat="59.970887" lon="17.7187599">
        <ele>29.4575</ele>
        <time>2012-09-30T08:20:00Z</time>
      </trkpt>
      <trkpt lat="59.9708697" lon="17.7187396">
        <ele>28.9769</ele>
        <time>2012-09-30T08:20:01Z</time>
      </trkpt>
      <trkpt lat="59.9708541" lon="17.7187178">
        <ele>28.9769</ele>
        <time>2012-09-30T08:20:02Z</time>
      </trkpt>
      <trkpt lat="59.9708318" lon="17.7186986">
        <ele>28.9769</ele>
        <time>2012-09-30T08:20:03Z</time>
      </trkpt>
      <trkpt lat="59.9708075" lon="17.7186798">
        <ele>28.9769</ele>
        <time>2012-09-30T08:20:04Z</time>
      </trkpt>
      <trkpt lat="59.970781" lon="17.718665">
        <ele>28.4962</ele>
        <time>2012-09-30T08:20:05Z</time>
      </trkpt>
      <trkpt lat="59.9707516" lon="17.7186493">
        <ele>28.4962</ele>
        <time>2012-09-30T08:20:06Z</time>
      </trkpt>
      <trkpt lat="59.9707244" lon="17.7186302">
        <ele>28.4962</ele>
        <time>2012-09-30T08:20:07Z</time>
      </trkpt>
      <trkpt lat="59.970698" lon="17.7186188">
        <ele>28.4962</ele>
        <time>2012-09-30T08:20:08Z</time>
      </trkpt>
      <trkpt lat="59.970675" lon="17.7186031">
        <ele>28.4962</ele>
        <time>2012-09-30T08:20:09Z</time>
      </trkpt>
      <trkpt lat="59.9706521" lon="17.7185816">
        <ele>28.4962</ele>
        <time>2012-09-30T08:20:10Z</time>
      </trkpt>
      <trkpt lat="59.9706259" lon="17.7185677">
        <ele>28.4962</ele>
        <time>2012-09-30T08:20:11Z</time>
      </trkpt>
      <trkpt lat="59.9705992" lon="17.7185467">
        <ele>28.4962</ele>
        <time>2012-09-30T08:20:12Z</time>
      </trkpt>
      <trkpt lat="59.9705724" lon="17.7185214">
        <ele>28.4962</ele>
        <time>2012-09-30T08:20:13Z</time>
      </trkpt>
      <trkpt lat="59.9705521" lon="17.7184936">
        <ele>28.9769</ele>
        <time>2012-09-30T08:20:14Z</time>
      </trkpt>
      <trkpt lat="59.9705298" lon="17.7184721">
        <ele>28.9769</ele>
        <time>2012-09-30T08:20:15Z</time>
      </trkpt>
      <trkpt lat="59.9705049" lon="17.7184593">
        <ele>29.4575</ele>
        <time>2012-09-30T08:20:16Z</time>
      </trkpt>
      <trkpt lat="59.9704827" lon="17.7184363">
        <ele>29.4575</ele>
        <time>2012-09-30T08:20:17Z</time>
      </trkpt>
      <trkpt lat="59.9704593" lon="17.7184095">
        <ele>29.4575</ele>
        <time>2012-09-30T08:20:18Z</time>
      </trkpt>
      <trkpt lat="59.9704333" lon="17.7183872">
        <ele>29.9381</ele>
        <time>2012-09-30T08:20:19Z</time>
      </trkpt>
      <trkpt lat="59.970404" lon="17.7183661">
        <ele>29.9381</ele>
        <time>2012-09-30T08:20:20Z</time>
      </trkpt>
      <trkpt lat="59.9703749" lon="17.718348">
        <ele>30.4188</ele>
        <time>2012-09-30T08:20:21Z</time>
      </trkpt>
      <trkpt lat="59.970349" lon="17.7183239">
        <ele>30.4188</ele>
        <time>2012-09-30T08:20:22Z</time>
      </trkpt>
      <trkpt lat="59.9703247" lon="17.718298">
        <ele>30.4188</ele>
        <time>2012-09-30T08:20:23Z</time>
      </trkpt>
      <trkpt lat="59.9702994" lon="17.7182755">
        <ele>30.8995</ele>
        <time>2012-09-30T08:20:24Z</time>
      </trkpt>
      <trkpt lat="59.970277" lon="17.7182532">
        <ele>30.8995</ele>
        <time>2012-09-30T08:20:25Z</time>
      </trkpt>
      <trkpt lat="59.9702558" lon="17.718235">
        <ele>31.3801</ele>
        <time>2012-09-30T08:20:26Z</time>
      </trkpt>
      <trkpt lat="59.9702319" lon="17.7182138">
        <ele>31.3801</ele>
        <time>2012-09-30T08:20:27Z</time>
      </trkpt>
      <trkpt lat="59.9702076" lon="17.71819">
        <ele>31.3801</ele>
        <time>2012-09-30T08:20:28Z</time>
      </trkpt>
      <trkpt lat="59.9701806" lon="17.7181727">
        <ele>31.3801</ele>
        <time>2012-09-30T08:20:29Z</time>
      </trkpt>
      <trkpt lat="59.9701568" lon="17.718151">
        <ele>31.3801</ele>
        <time>2012-09-30T08:20:30Z</time>
      </trkpt>
      <trkpt lat="59.9701351" lon="17.7181257">
        <ele>31.3801</ele>
        <time>2012-09-30T08:20:31Z</time>
      </trkpt>
      <trkpt lat="59.9701128" lon="17.7181055">
        <ele>31.3801</ele>
        <time>2012-09-30T08:20:32Z</time>
      </trkpt>
      <trkpt lat="59.9700875" lon="17.7180848">
        <ele>31.3801</ele>
        <time>2012-09-30T08:20:33Z</time>
      </trkpt>
      <trkpt lat="59.9700593" lon="17.718066">
        <ele>31.3801</ele>
        <time>2012-09-30T08:20:34Z</time>
      </trkpt>
      <trkpt lat="59.9700346" lon="17.7180444">
        <ele>31.8607</ele>
        <time>2012-09-30T08:20:35Z</time>
      </trkpt>
      <trkpt lat="59.9700103" lon="17.7180268">
        <ele>31.8607</ele>
        <time>2012-09-30T08:20:36Z</time>
      </trkpt>
      <trkpt lat="59.969986" lon="17.7180106">
        <ele>31.8607</ele>
        <time>2012-09-30T08:20:37Z</time>
      </trkpt>
      <trkpt lat="59.9699569" lon="17.7179931">
        <ele>31.8607</ele>
        <time>2012-09-30T08:20:38Z</time>
      </trkpt>
      <trkpt lat="59.9699272" lon="17.717979">
        <ele>31.8607</ele>
        <time>2012-09-30T08:20:39Z</time>
      </trkpt>
      <trkpt lat="59.969901" lon="17.7179599">
        <ele>32.3416</ele>
        <time>2012-09-30T08:20:40Z</time>
      </trkpt>
      <trkpt lat="59.9698802" lon="17.7179387">
        <ele>31.8607</ele>
        <time>2012-09-30T08:20:41Z</time>
      </trkpt>
      <trkpt lat="59.96986" lon="17.7179163">
        <ele>31.8607</ele>
        <time>2012-09-30T08:20:42Z</time>
      </trkpt>
      <trkpt lat="59.9698392" lon="17.7178988">
        <ele>32.3416</ele>
        <time>2012-09-30T08:20:43Z</time>
      </trkpt>
      <trkpt lat="59.9698195" lon="17.7178823">
        <ele>31.8607</ele>
        <time>2012-09-30T08:20:44Z</time>
      </trkpt>
      <trkpt lat="59.9697989" lon="17.7178572">
        <ele>31.8607</ele>
        <time>2012-09-30T08:20:45Z</time>
      </trkpt>
      <trkpt lat="59.9697782" lon="17.7178321">
        <ele>31.8607</ele>
        <time>2012-09-30T08:20:46Z</time>
      </trkpt>
      <trkpt lat="59.9697559" lon="17.7178132">
        <ele>31.8607</ele>
        <time>2012-09-30T08:20:47Z</time>
      </trkpt>
      <trkpt lat="59.9697341" lon="17.7177855">
        <ele>31.8607</ele>
        <time>2012-09-30T08:20:48Z</time>
      </trkpt>
      <trkpt lat="59.9697103" lon="17.7177616">
        <ele>31.3801</ele>
        <time>2012-09-30T08:20:49Z</time>
      </trkpt>
      <trkpt lat="59.9696881" lon="17.7177449">
        <ele>31.8607</ele>
        <time>2012-09-30T08:20:50Z</time>
      </trkpt>
      <trkpt lat="59.9696704" lon="17.7177244">
        <ele>31.8607</ele>
        <time>2012-09-30T08:20:51Z</time>
      </trkpt>
      <trkpt lat="59.9696534" lon="17.7177019">
        <ele>31.8607</ele>
        <time>2012-09-30T08:20:52Z</time>
      </trkpt>
      <trkpt lat="59.9696281" lon="17.7176849">
        <ele>31.8607</ele>
        <time>2012-09-30T08:20:53Z</time>
      </trkpt>
      <trkpt lat="59.9696058" lon="17.7176637">
        <ele>32.3416</ele>
        <time>2012-09-30T08:20:54Z</time>
      </trkpt>
      <trkpt lat="59.9695863" lon="17.7176445">
        <ele>32.3416</ele>
        <time>2012-09-30T08:20:55Z</time>
      </trkpt>
      <trkpt lat="59.9695625" lon="17.7176291">
        <ele>32.8223</ele>
        <time>2012-09-30T08:20:56Z</time>
      </trkpt>
      <trkpt lat="59.9695399" lon="17.7176149">
        <ele>32.8223</ele>
        <time>2012-09-30T08:20:57Z</time>
      </trkpt>
      <trkpt lat="59.9695202" lon="17.7175948">
        <ele>33.3029</ele>
        <time>2012-09-30T08:20:58Z</time>
      </trkpt>
      <trkpt lat="59.9694994" lon="17.717575">
        <ele>33.3029</ele>
        <time>2012-09-30T08:20:59Z</time>
      </trkpt>
      <trkpt lat="59.9694814" lon="17.7175563">
        <ele>33.3029</ele>
        <time>2012-09-30T08:21:00Z</time>
      </trkpt>
      <trkpt lat="59.9694586" lon="17.7175417">
        <ele>33.7834</ele>
        <time>2012-09-30T08:21:01Z</time>
      </trkpt>
      <trkpt lat="59.9694343" lon="17.7175179">
        <ele>33.7834</ele>
        <time>2012-09-30T08:21:02Z</time>
      </trkpt>
      <trkpt lat="59.9694073" lon="17.717499">
        <ele>34.2642</ele>
        <time>2012-09-30T08:21:03Z</time>
      </trkpt>
      <trkpt lat="59.969383" lon="17.7174823">
        <ele>34.2642</ele>
        <time>2012-09-30T08:21:04Z</time>
      </trkpt>
      <trkpt lat="59.9693594" lon="17.7174651">
        <ele>34.2642</ele>
        <time>2012-09-30T08:21:05Z</time>
      </trkpt>
      <trkpt lat="59.9693301" lon="17.7174576">
        <ele>34.7449</ele>
        <time>2012-09-30T08:21:06Z</time>
      </trkpt>
      <trkpt lat="59.9693078" lon="17.7174449">
        <ele>34.7449</ele>
        <time>2012-09-30T08:21:07Z</time>
      </trkpt>
      <trkpt lat="59.9692875" lon="17.7174311">
        <ele>35.2255</ele>
        <time>2012-09-30T08:21:08Z</time>
      </trkpt>
      <trkpt lat="59.9692712" lon="17.7174114">
        <ele>34.7449</ele>
        <time>2012-09-30T08:21:09Z</time>
      </trkpt>
      <trkpt lat="59.9692492" lon="17.7173974">
        <ele>34.7449</ele>
        <time>2012-09-30T08:21:10Z</time>
      </trkpt>
      <trkpt lat="59.969225" lon="17.717385">
        <ele>34.7449</ele>
        <time>2012-09-30T08:21:11Z</time>
      </trkpt>
      <trkpt lat="59.9691994" lon="17.7173747">
        <ele>34.7449</ele>
        <time>2012-09-30T08:21:12Z</time>
      </trkpt>
      <trkpt lat="59.9691683" lon="17.7173679">
        <ele>35.2255</ele>
        <time>2012-09-30T08:21:13Z</time>
      </trkpt>
      <trkpt lat="59.9691424" lon="17.7173548">
        <ele>35.2255</ele>
        <time>2012-09-30T08:21:14Z</time>
      </trkpt>
      <trkpt lat="59.969112" lon="17.7173424">
        <ele>35.2255</ele>
        <time>2012-09-30T08:21:15Z</time>
      </trkpt>
      <trkpt lat="59.9690774" lon="17.7173383">
        <ele>35.2255</ele>
        <time>2012-09-30T08:21:16Z</time>
      </trkpt>
      <trkpt lat="59.9690497" lon="17.717331">
        <ele>35.2255</ele>
        <time>2012-09-30T08:21:17Z</time>
      </trkpt>
      <trkpt lat="59.9690244" lon="17.717326">
        <ele>35.7061</ele>
        <time>2012-09-30T08:21:18Z</time>
      </trkpt>
      <trkpt lat="59.9689986" lon="17.7173213">
        <ele>35.7061</ele>
        <time>2012-09-30T08:21:19Z</time>
      </trkpt>
      <trkpt lat="59.9689766" lon="17.7173041">
        <ele>35.7061</ele>
        <time>2012-09-30T08:21:20Z</time>
      </trkpt>
      <trkpt lat="59.9689483" lon="17.7173016">
        <ele>36.1868</ele>
        <time>2012-09-30T08:21:21Z</time>
      </trkpt>
      <trkpt lat="59.9689218" lon="17.7173005">
        <ele>36.1868</ele>
        <time>2012-09-30T08:21:22Z</time>
      </trkpt>
      <trkpt lat="59.9688991" lon="17.7172996">
        <ele>36.1868</ele>
        <time>2012-09-30T08:21:23Z</time>
      </trkpt>
      <trkpt lat="59.9688772" lon="17.7173053">
        <ele>36.1868</ele>
        <time>2012-09-30T08:21:24Z</time>
      </trkpt>
      <trkpt lat="59.9688551" lon="17.717312">
        <ele>36.1868</ele>
        <time>2012-09-30T08:21:25Z</time>
      </trkpt>
      <trkpt lat="59.9688328" lon="17.7173223">
        <ele>36.6675</ele>
        <time>2012-09-30T08:21:26Z</time>
      </trkpt>
      <trkpt lat="59.9688069" lon="17.7173349">
        <ele>36.6675</ele>
        <time>2012-09-30T08:21:27Z</time>
      </trkpt>
      <trkpt lat="59.9687793" lon="17.7173429">
        <ele>36.6675</ele>
        <time>2012-09-30T08:21:28Z</time>
      </trkpt>
      <trkpt lat="59.9687476" lon="17.7173488">
        <ele>36.6675</ele>
        <time>2012-09-30T08:21:29Z</time>
      </trkpt>
      <trkpt lat="59.9687166" lon="17.7173508">
        <ele>36.6675</ele>
        <time>2012-09-30T08:21:30Z</time>
      </trkpt>
      <trkpt lat="59.9686845" lon="17.7173466">
        <ele>36.6675</ele>
        <time>2012-09-30T08:21:31Z</time>
      </trkpt>
      <trkpt lat="59.9686577" lon="17.7173462">
        <ele>36.6675</ele>
        <time>2012-09-30T08:21:32Z</time>
      </trkpt>
      <trkpt lat="59.9686308" lon="17.7173451">
        <ele>36.6675</ele>
        <time>2012-09-30T08:21:33Z</time>
      </trkpt>
      <trkpt lat="59.9686096" lon="17.7173358">
        <ele>36.1868</ele>
        <time>2012-09-30T08:21:34Z</time>
      </trkpt>
      <trkpt lat="59.9685853" lon="17.7173296">
        <ele>36.1868</ele>
        <time>2012-09-30T08:21:35Z</time>
      </trkpt>
      <trkpt lat="59.9685583" lon="17.7173234">
        <ele>35.7061</ele>
        <time>2012-09-30T08:21:36Z</time>
      </trkpt>
      <trkpt lat="59.9685334" lon="17.7173187">
        <ele>35.2255</ele>
        <time>2012-09-30T08:21:37Z</time>
      </trkpt>
      <trkpt lat="59.9685094" lon="17.7173097">
        <ele>35.2255</ele>
        <time>2012-09-30T08:21:38Z</time>
      </trkpt>
      <trkpt lat="59.9684921" lon="17.7172999">
        <ele>34.7449</ele>
        <time>2012-09-30T08:21:39Z</time>
      </trkpt>
      <trkpt lat="59.9684708" lon="17.7172915">
        <ele>34.2642</ele>
        <time>2012-09-30T08:21:40Z</time>
      </trkpt>
      <trkpt lat="59.9684451" lon="17.7172869">
        <ele>34.2642</ele>
        <time>2012-09-30T08:21:41Z</time>
      </trkpt>
      <trkpt lat="59.9684311" lon="17.7172866">
        <ele>33.7834</ele>
        <time>2012-09-30T08:21:42Z</time>
      </trkpt>
      <trkpt lat="59.9684142" lon="17.7172831">
        <ele>33.3029</ele>
        <time>2012-09-30T08:21:43Z</time>
      </trkpt>
      <trkpt lat="59.9683934" lon="17.7172745">
        <ele>32.8223</ele>
        <time>2012-09-30T08:21:44Z</time>
      </trkpt>
      <trkpt lat="59.9683656" lon="17.71726">
        <ele>32.8223</ele>
        <time>2012-09-30T08:21:45Z</time>
      </trkpt>
      <trkpt lat="59.9683417" lon="17.7172467">
        <ele>32.8223</ele>
        <time>2012-09-30T08:21:46Z</time>
      </trkpt>
      <trkpt lat="59.9683303" lon="17.7172301">
        <ele>32.8223</ele>
        <time>2012-09-30T08:21:47Z</time>
      </trkpt>
      <trkpt lat="59.9683158" lon="17.7172121">
        <ele>32.3416</ele>
        <time>2012-09-30T08:21:48Z</time>
      </trkpt>
      <trkpt lat="59.9682973" lon="17.7172022">
        <ele>32.3416</ele>
        <time>2012-09-30T08:21:49Z</time>
      </trkpt>
      <trkpt lat="59.9682875" lon="17.7171954">
        <ele>31.8607</ele>
        <time>2012-09-30T08:21:50Z</time>
      </trkpt>
      <trkpt lat="59.9682743" lon="17.717184">
        <ele>30.8995</ele>
        <time>2012-09-30T08:21:51Z</time>
      </trkpt>
      <trkpt lat="59.9682527" lon="17.7171669">
        <ele>30.8995</ele>
        <time>2012-09-30T08:21:52Z</time>
      </trkpt>
      <trkpt lat="59.9682317" lon="17.7171484">
        <ele>30.4188</ele>
        <time>2012-09-30T08:21:53Z</time>
      </trkpt>
      <trkpt lat="59.9682086" lon="17.7171294">
        <ele>30.4188</ele>
        <time>2012-09-30T08:21:54Z</time>
      </trkpt>
      <trkpt lat="59.9681832" lon="17.7171084">
        <ele>29.9381</ele>
        <time>2012-09-30T08:21:55Z</time>
      </trkpt>
      <trkpt lat="59.9681589" lon="17.7170838">
        <ele>29.9381</ele>
        <time>2012-09-30T08:21:56Z</time>
      </trkpt>
      <trkpt lat="59.968135" lon="17.7170602">
        <ele>29.9381</ele>
        <time>2012-09-30T08:21:57Z</time>
      </trkpt>
      <trkpt lat="59.9681153" lon="17.7170352">
        <ele>29.9381</ele>
        <time>2012-09-30T08:21:58Z</time>
      </trkpt>
      <trkpt lat="59.9680934" lon="17.717009">
        <ele>29.4575</ele>
        <time>2012-09-30T08:21:59Z</time>
      </trkpt>
      <trkpt lat="59.9680742" lon="17.716983">
        <ele>28.9769</ele>
        <time>2012-09-30T08:22:00Z</time>
      </trkpt>
      <trkpt lat="59.9680537" lon="17.7169525">
        <ele>28.9769</ele>
        <time>2012-09-30T08:22:01Z</time>
      </trkpt>
      <trkpt lat="59.9680343" lon="17.7169241">
        <ele>28.4962</ele>
        <time>2012-09-30T08:22:02Z</time>
      </trkpt>
      <trkpt lat="59.9680117" lon="17.7168961">
        <ele>28.0155</ele>
        <time>2012-09-30T08:22:03Z</time>
      </trkpt>
      <trkpt lat="59.9679906" lon="17.716867">
        <ele>27.5349</ele>
        <time>2012-09-30T08:22:04Z</time>
      </trkpt>
      <trkpt lat="59.9679765" lon="17.7168364">
        <ele>27.5349</ele>
        <time>2012-09-30T08:22:05Z</time>
      </trkpt>
      <trkpt lat="59.9679604" lon="17.7168083">
        <ele>27.0543</ele>
        <time>2012-09-30T08:22:06Z</time>
      </trkpt>
      <trkpt lat="59.9679206" lon="17.7167423">
        <ele>26.5736</ele>
        <time>2012-09-30T08:22:08Z</time>
      </trkpt>
      <trkpt lat="59.967903" lon="17.7167029">
        <ele>26.0929</ele>
        <time>2012-09-30T08:22:09Z</time>
      </trkpt>
      <trkpt lat="59.9678824" lon="17.7166686">
        <ele>25.6123</ele>
        <time>2012-09-30T08:22:10Z</time>
      </trkpt>
      <trkpt lat="59.9678641" lon="17.7166313">
        <ele>25.1317</ele>
        <time>2012-09-30T08:22:11Z</time>
      </trkpt>
      <trkpt lat="59.9678461" lon="17.7165908">
        <ele>24.651</ele>
        <time>2012-09-30T08:22:12Z</time>
      </trkpt>
      <trkpt lat="59.9678285" lon="17.7165556">
        <ele>25.1317</ele>
        <time>2012-09-30T08:22:13Z</time>
      </trkpt>
      <trkpt lat="59.9678134" lon="17.7165204">
        <ele>24.651</ele>
        <time>2012-09-30T08:22:14Z</time>
      </trkpt>
      <trkpt lat="59.9677973" lon="17.7164805">
        <ele>24.1703</ele>
        <time>2012-09-30T08:22:15Z</time>
      </trkpt>
      <trkpt lat="59.9677793" lon="17.7164381">
        <ele>24.1703</ele>
        <time>2012-09-30T08:22:16Z</time>
      </trkpt>
      <trkpt lat="59.9677653" lon="17.7163982">
        <ele>24.651</ele>
        <time>2012-09-30T08:22:17Z</time>
      </trkpt>
      <trkpt lat="59.9677511" lon="17.7163599">
        <ele>24.651</ele>
        <time>2012-09-30T08:22:18Z</time>
      </trkpt>
      <trkpt lat="59.9677321" lon="17.7163162">
        <ele>24.1703</ele>
        <time>2012-09-30T08:22:19Z</time>
      </trkpt>
      <trkpt lat="59.9677129" lon="17.7162713">
        <ele>23.6896</ele>
        <time>2012-09-30T08:22:20Z</time>
      </trkpt>
      <trkpt lat="59.9676982" lon="17.7162271">
        <ele>23.6896</ele>
        <time>2012-09-30T08:22:21Z</time>
      </trkpt>
      <trkpt lat="59.9676837" lon="17.7161801">
        <ele>23.6896</ele>
        <time>2012-09-30T08:22:22Z</time>
      </trkpt>
      <trkpt lat="59.9676683" lon="17.716138">
        <ele>23.209</ele>
        <time>2012-09-30T08:22:23Z</time>
      </trkpt>
      <trkpt lat="59.9676565" lon="17.716096">
        <ele>23.209</ele>
        <time>2012-09-30T08:22:24Z</time>
      </trkpt>
      <trkpt lat="59.9676501" lon="17.7160558">
        <ele>23.6896</ele>
        <time>2012-09-30T08:22:25Z</time>
      </trkpt>
      <trkpt lat="59.9676382" lon="17.7160154">
        <ele>23.6896</ele>
        <time>2012-09-30T08:22:26Z</time>
      </trkpt>
      <trkpt lat="59.9676226" lon="17.7159734">
        <ele>23.6896</ele>
        <time>2012-09-30T08:22:27Z</time>
      </trkpt>
      <trkpt lat="59.9676078" lon="17.7159313">
        <ele>23.6896</ele>
        <time>2012-09-30T08:22:28Z</time>
      </trkpt>
      <trkpt lat="59.9675994" lon="17.7158865">
        <ele>24.1703</ele>
        <time>2012-09-30T08:22:29Z</time>
      </trkpt>
      <trkpt lat="59.9675953" lon="17.7158455">
        <ele>24.651</ele>
        <time>2012-09-30T08:22:30Z</time>
      </trkpt>
      <trkpt lat="59.9675694" lon="17.7158025">
        <ele>24.1703</ele>
        <time>2012-09-30T08:22:31Z</time>
      </trkpt>
      <trkpt lat="59.9675601" lon="17.7157584">
        <ele>24.1703</ele>
        <time>2012-09-30T08:22:32Z</time>
      </trkpt>
      <trkpt lat="59.9675544" lon="17.7157153">
        <ele>24.1703</ele>
        <time>2012-09-30T08:22:33Z</time>
      </trkpt>
      <trkpt lat="59.9675459" lon="17.7156714">
        <ele>24.1703</ele>
        <time>2012-09-30T08:22:34Z</time>
      </trkpt>
      <trkpt lat="59.9675366" lon="17.7156251">
        <ele>24.651</ele>
        <time>2012-09-30T08:22:35Z</time>
      </trkpt>
      <trkpt lat="59.9675255" lon="17.7155853">
        <ele>24.1703</ele>
        <time>2012-09-30T08:22:36Z</time>
      </trkpt>
      <trkpt lat="59.9675134" lon="17.7155436">
        <ele>24.1703</ele>
        <time>2012-09-30T08:22:37Z</time>
      </trkpt>
      <trkpt lat="59.967499" lon="17.7154947">
        <ele>23.6896</ele>
        <time>2012-09-30T08:22:38Z</time>
      </trkpt>
      <trkpt lat="59.9674849" lon="17.7154449">
        <ele>23.6896</ele>
        <time>2012-09-30T08:22:39Z</time>
      </trkpt>
      <trkpt lat="59.9674742" lon="17.7153882">
        <ele>23.6896</ele>
        <time>2012-09-30T08:22:40Z</time>
      </trkpt>
      <trkpt lat="59.9674658" lon="17.7153356">
        <ele>24.1703</ele>
        <time>2012-09-30T08:22:41Z</time>
      </trkpt>
      <trkpt lat="59.967459" lon="17.7153009">
        <ele>24.1703</ele>
        <time>2012-09-30T08:22:42Z</time>
      </trkpt>
      <trkpt lat="59.9674531" lon="17.7152575">
        <ele>24.1703</ele>
        <time>2012-09-30T08:22:43Z</time>
      </trkpt>
      <trkpt lat="59.9674495" lon="17.7152064">
        <ele>24.1703</ele>
        <time>2012-09-30T08:22:44Z</time>
      </trkpt>
      <trkpt lat="59.9674507" lon="17.7151487">
        <ele>25.1317</ele>
        <time>2012-09-30T08:22:45Z</time>
      </trkpt>
      <trkpt lat="59.9674487" lon="17.7150995">
        <ele>24.651</ele>
        <time>2012-09-30T08:22:46Z</time>
      </trkpt>
      <trkpt lat="59.9674539" lon="17.7150523">
        <ele>24.1703</ele>
        <time>2012-09-30T08:22:47Z</time>
      </trkpt>
      <trkpt lat="59.9674502" lon="17.714989">
        <ele>24.1703</ele>
        <time>2012-09-30T08:22:48Z</time>
      </trkpt>
      <trkpt lat="59.9674474" lon="17.7149208">
        <ele>25.1317</ele>
        <time>2012-09-30T08:22:49Z</time>
      </trkpt>
      <trkpt lat="59.9674594" lon="17.714872">
        <ele>26.5736</ele>
        <time>2012-09-30T08:22:50Z</time>
      </trkpt>
      <trkpt lat="59.9674455" lon="17.7148162">
        <ele>27.5349</ele>
        <time>2012-09-30T08:22:51Z</time>
      </trkpt>
      <trkpt lat="59.9674382" lon="17.7147692">
        <ele>27.0543</ele>
        <time>2012-09-30T08:22:52Z</time>
      </trkpt>
      <trkpt lat="59.9674231" lon="17.7147192">
        <ele>27.0543</ele>
        <time>2012-09-30T08:22:53Z</time>
      </trkpt>
      <trkpt lat="59.9674072" lon="17.7146752">
        <ele>27.0543</ele>
        <time>2012-09-30T08:22:54Z</time>
      </trkpt>
      <trkpt lat="59.9673965" lon="17.7146355">
        <ele>26.5736</ele>
        <time>2012-09-30T08:22:55Z</time>
      </trkpt>
      <trkpt lat="59.9673834" lon="17.7145908">
        <ele>27.0543</ele>
        <time>2012-09-30T08:22:56Z</time>
      </trkpt>
      <trkpt lat="59.9673725" lon="17.71455">
        <ele>27.0543</ele>
        <time>2012-09-30T08:22:57Z</time>
      </trkpt>
      <trkpt lat="59.967362" lon="17.7145032">
        <ele>27.5349</ele>
        <time>2012-09-30T08:22:58Z</time>
      </trkpt>
      <trkpt lat="59.9673507" lon="17.7144598">
        <ele>28.0155</ele>
        <time>2012-09-30T08:22:59Z</time>
      </trkpt>
      <trkpt lat="59.967341" lon="17.7144164">
        <ele>28.4962</ele>
        <time>2012-09-30T08:23:00Z</time>
      </trkpt>
      <trkpt lat="59.967334" lon="17.7143645">
        <ele>28.9769</ele>
        <time>2012-09-30T08:23:01Z</time>
      </trkpt>
      <trkpt lat="59.967324" lon="17.7143188">
        <ele>28.9769</ele>
        <time>2012-09-30T08:23:02Z</time>
      </trkpt>
      <trkpt lat="59.9673156" lon="17.7142693">
        <ele>29.4575</ele>
        <time>2012-09-30T08:23:03Z</time>
      </trkpt>
      <trkpt lat="59.9673048" lon="17.7142183">
        <ele>29.9381</ele>
        <time>2012-09-30T08:23:04Z</time>
      </trkpt>
      <trkpt lat="59.9672995" lon="17.7141747">
        <ele>30.4188</ele>
        <time>2012-09-30T08:23:05Z</time>
      </trkpt>
      <trkpt lat="59.9672917" lon="17.714134">
        <ele>30.4188</ele>
        <time>2012-09-30T08:23:06Z</time>
      </trkpt>
      <trkpt lat="59.967287" lon="17.7140919">
        <ele>30.8995</ele>
        <time>2012-09-30T08:23:07Z</time>
      </trkpt>
      <trkpt lat="59.9672837" lon="17.7140475">
        <ele>31.3801</ele>
        <time>2012-09-30T08:23:08Z</time>
      </trkpt>
      <trkpt lat="59.9672777" lon="17.7140014">
        <ele>31.8607</ele>
        <time>2012-09-30T08:23:09Z</time>
      </trkpt>
      <trkpt lat="59.9672732" lon="17.7139578">
        <ele>32.3416</ele>
        <time>2012-09-30T08:23:10Z</time>
      </trkpt>
      <trkpt lat="59.9672699" lon="17.7139163">
        <ele>32.3416</ele>
        <time>2012-09-30T08:23:11Z</time>
      </trkpt>
      <trkpt lat="59.9672617" lon="17.7138761">
        <ele>32.8223</ele>
        <time>2012-09-30T08:23:12Z</time>
      </trkpt>
      <trkpt lat="59.9672587" lon="17.713832">
        <ele>33.3029</ele>
        <time>2012-09-30T08:23:13Z</time>
      </trkpt>
      <trkpt lat="59.9672558" lon="17.7137853">
        <ele>33.7834</ele>
        <time>2012-09-30T08:23:14Z</time>
      </trkpt>
      <trkpt lat="59.9672493" lon="17.7137397">
        <ele>34.2642</ele>
        <time>2012-09-30T08:23:15Z</time>
      </trkpt>
      <trkpt lat="59.9672408" lon="17.7136874">
        <ele>34.2642</ele>
        <time>2012-09-30T08:23:16Z</time>
      </trkpt>
      <trkpt lat="59.9672342" lon="17.7136399">
        <ele>34.7449</ele>
        <time>2012-09-30T08:23:17Z</time>
      </trkpt>
      <trkpt lat="59.9672274" lon="17.7135911">
        <ele>35.2255</ele>
        <time>2012-09-30T08:23:18Z</time>
      </trkpt>
      <trkpt lat="59.9672216" lon="17.7135424">
        <ele>35.7061</ele>
        <time>2012-09-30T08:23:19Z</time>
      </trkpt>
      <trkpt lat="59.9672171" lon="17.7135016">
        <ele>36.1868</ele>
        <time>2012-09-30T08:23:20Z</time>
      </trkpt>
      <trkpt lat="59.9672093" lon="17.7134585">
        <ele>36.6675</ele>
        <time>2012-09-30T08:23:21Z</time>
      </trkpt>
      <trkpt lat="59.9672011" lon="17.7134113">
        <ele>37.1481</ele>
        <time>2012-09-30T08:23:22Z</time>
      </trkpt>
      <trkpt lat="59.9671912" lon="17.7133658">
        <ele>37.1481</ele>
        <time>2012-09-30T08:23:23Z</time>
      </trkpt>
      <trkpt lat="59.9671819" lon="17.7133172">
        <ele>37.6287</ele>
        <time>2012-09-30T08:23:24Z</time>
      </trkpt>
      <trkpt lat="59.9671695" lon="17.7132687">
        <ele>37.6287</ele>
        <time>2012-09-30T08:23:25Z</time>
      </trkpt>
      <trkpt lat="59.9671587" lon="17.7132239">
        <ele>37.6287</ele>
        <time>2012-09-30T08:23:26Z</time>
      </trkpt>
      <trkpt lat="59.9671456" lon="17.7131747">
        <ele>38.1094</ele>
        <time>2012-09-30T08:23:27Z</time>
      </trkpt>
      <trkpt lat="59.9671315" lon="17.7131278">
        <ele>38.1094</ele>
        <time>2012-09-30T08:23:28Z</time>
      </trkpt>
      <trkpt lat="59.9671193" lon="17.7130803">
        <ele>37.6287</ele>
        <time>2012-09-30T08:23:29Z</time>
      </trkpt>
      <trkpt lat="59.9671073" lon="17.7130294">
        <ele>37.1481</ele>
        <time>2012-09-30T08:23:30Z</time>
      </trkpt>
      <trkpt lat="59.9670985" lon="17.7129818">
        <ele>36.6675</ele>
        <time>2012-09-30T08:23:31Z</time>
      </trkpt>
      <trkpt lat="59.96709" lon="17.7129356">
        <ele>36.1868</ele>
        <time>2012-09-30T08:23:32Z</time>
      </trkpt>
      <trkpt lat="59.9670874" lon="17.7128903">
        <ele>36.1868</ele>
        <time>2012-09-30T08:23:33Z</time>
      </trkpt>
      <trkpt lat="59.9670824" lon="17.7128508">
        <ele>35.7061</ele>
        <time>2012-09-30T08:23:34Z</time>
      </trkpt>
      <trkpt lat="59.9670716" lon="17.7128084">
        <ele>35.2255</ele>
        <time>2012-09-30T08:23:35Z</time>
      </trkpt>
      <trkpt lat="59.9670624" lon="17.7127579">
        <ele>35.7061</ele>
        <time>2012-09-30T08:23:36Z</time>
      </trkpt>
      <trkpt lat="59.9670506" lon="17.7127105">
        <ele>35.2255</ele>
        <time>2012-09-30T08:23:37Z</time>
      </trkpt>
      <trkpt lat="59.9670367" lon="17.7126622">
        <ele>35.2255</ele>
        <time>2012-09-30T08:23:38Z</time>
      </trkpt>
      <trkpt lat="59.9670256" lon="17.7126078">
        <ele>35.2255</ele>
        <time>2012-09-30T08:23:39Z</time>
      </trkpt>
      <trkpt lat="59.9670161" lon="17.7125585">
        <ele>35.2255</ele>
        <time>2012-09-30T08:23:40Z</time>
      </trkpt>
      <trkpt lat="59.9670038" lon="17.7125098">
        <ele>35.2255</ele>
        <time>2012-09-30T08:23:41Z</time>
      </trkpt>
      <trkpt lat="59.9669906" lon="17.712465">
        <ele>34.7449</ele>
        <time>2012-09-30T08:23:42Z</time>
      </trkpt>
      <trkpt lat="59.9669788" lon="17.7124209">
        <ele>34.7449</ele>
        <time>2012-09-30T08:23:43Z</time>
      </trkpt>
      <trkpt lat="59.9669649" lon="17.7123759">
        <ele>34.2642</ele>
        <time>2012-09-30T08:23:44Z</time>
      </trkpt>
      <trkpt lat="59.9669473" lon="17.7123313">
        <ele>33.7834</ele>
        <time>2012-09-30T08:23:45Z</time>
      </trkpt>
      <trkpt lat="59.9669301" lon="17.7122872">
        <ele>32.8223</ele>
        <time>2012-09-30T08:23:46Z</time>
      </trkpt>
      <trkpt lat="59.9669177" lon="17.7122422">
        <ele>32.8223</ele>
        <time>2012-09-30T08:23:47Z</time>
      </trkpt>
      <trkpt lat="59.9669058" lon="17.7122059">
        <ele>32.3416</ele>
        <time>2012-09-30T08:23:48Z</time>
      </trkpt>
      <trkpt lat="59.9668985" lon="17.7121768">
        <ele>31.8607</ele>
        <time>2012-09-30T08:23:49Z</time>
      </trkpt>
      <trkpt lat="59.9668885" lon="17.7121405">
        <ele>31.3801</ele>
        <time>2012-09-30T08:23:50Z</time>
      </trkpt>
      <trkpt lat="59.9668759" lon="17.7121016">
        <ele>31.3801</ele>
        <time>2012-09-30T08:23:51Z</time>
      </trkpt>
      <trkpt lat="59.9668618" lon="17.7120629">
        <ele>30.8995</ele>
        <time>2012-09-30T08:23:52Z</time>
      </trkpt>
      <trkpt lat="59.966846" lon="17.7120205">
        <ele>30.8995</ele>
        <time>2012-09-30T08:23:53Z</time>
      </trkpt>
      <trkpt lat="59.9668281" lon="17.7119801">
        <ele>30.4188</ele>
        <time>2012-09-30T08:23:54Z</time>
      </trkpt>
      <trkpt lat="59.9668162" lon="17.7119418">
        <ele>29.9381</ele>
        <time>2012-09-30T08:23:55Z</time>
      </trkpt>
      <trkpt lat="59.9668037" lon="17.7119019">
        <ele>29.4575</ele>
        <time>2012-09-30T08:23:56Z</time>
      </trkpt>
      <trkpt lat="59.9667872" lon="17.7118615">
        <ele>28.4962</ele>
        <time>2012-09-30T08:23:57Z</time>
      </trkpt>
      <trkpt lat="59.966774" lon="17.711824">
        <ele>27.5349</ele>
        <time>2012-09-30T08:23:58Z</time>
      </trkpt>
      <trkpt lat="59.9667595" lon="17.7117872">
        <ele>26.5736</ele>
        <time>2012-09-30T08:23:59Z</time>
      </trkpt>
      <trkpt lat="59.9667473" lon="17.711748">
        <ele>26.5736</ele>
        <time>2012-09-30T08:24:00Z</time>
      </trkpt>
      <trkpt lat="59.9667357" lon="17.711707">
        <ele>26.0929</ele>
        <time>2012-09-30T08:24:01Z</time>
      </trkpt>
      <trkpt lat="59.9667182" lon="17.711665">
        <ele>25.1317</ele>
        <time>2012-09-30T08:24:02Z</time>
      </trkpt>
      <trkpt lat="59.9667" lon="17.7116219">
        <ele>24.651</ele>
        <time>2012-09-30T08:24:03Z</time>
      </trkpt>
      <trkpt lat="59.9666858" lon="17.7115751">
        <ele>24.1703</ele>
        <time>2012-09-30T08:24:04Z</time>
      </trkpt>
      <trkpt lat="59.9666715" lon="17.7115289">
        <ele>23.209</ele>
        <time>2012-09-30T08:24:05Z</time>
      </trkpt>
      <trkpt lat="59.9666562" lon="17.7114822">
        <ele>23.209</ele>
        <time>2012-09-30T08:24:06Z</time>
      </trkpt>
      <trkpt lat="59.9666519" lon="17.7114363">
        <ele>23.6896</ele>
        <time>2012-09-30T08:24:07Z</time>
      </trkpt>
      <trkpt lat="59.9666425" lon="17.7113874">
        <ele>23.209</ele>
        <time>2012-09-30T08:24:08Z</time>
      </trkpt>
      <trkpt lat="59.9666326" lon="17.7113351">
        <ele>23.209</ele>
        <time>2012-09-30T08:24:09Z</time>
      </trkpt>
      <trkpt lat="59.9666181" lon="17.711279">
        <ele>23.209</ele>
        <time>2012-09-30T08:24:10Z</time>
      </trkpt>
      <trkpt lat="59.9666043" lon="17.7112286">
        <ele>22.7283</ele>
        <time>2012-09-30T08:24:11Z</time>
      </trkpt>
      <trkpt lat="59.9665891" lon="17.7111839">
        <ele>22.7283</ele>
        <time>2012-09-30T08:24:12Z</time>
      </trkpt>
      <trkpt lat="59.9665758" lon="17.7111418">
        <ele>22.2476</ele>
        <time>2012-09-30T08:24:13Z</time>
      </trkpt>
      <trkpt lat="59.9665592" lon="17.7111018">
        <ele>22.2476</ele>
        <time>2012-09-30T08:24:14Z</time>
      </trkpt>
      <trkpt lat="59.9665473" lon="17.7110575">
        <ele>22.2476</ele>
        <time>2012-09-30T08:24:15Z</time>
      </trkpt>
      <trkpt lat="59.9665334" lon="17.7110119">
        <ele>22.2476</ele>
        <time>2012-09-30T08:24:16Z</time>
      </trkpt>
      <trkpt lat="59.9665205" lon="17.7109745">
        <ele>23.209</ele>
        <time>2012-09-30T08:24:17Z</time>
      </trkpt>
      <trkpt lat="59.9665088" lon="17.7109325">
        <ele>23.209</ele>
        <time>2012-09-30T08:24:18Z</time>
      </trkpt>
      <trkpt lat="59.9664964" lon="17.7108856">
        <ele>23.209</ele>
        <time>2012-09-30T08:24:19Z</time>
      </trkpt>
      <trkpt lat="59.9664928" lon="17.7108434">
        <ele>23.6896</ele>
        <time>2012-09-30T08:24:20Z</time>
      </trkpt>
      <trkpt lat="59.9664931" lon="17.7108019">
        <ele>24.1703</ele>
        <time>2012-09-30T08:24:21Z</time>
      </trkpt>
      <trkpt lat="59.9664842" lon="17.7107591">
        <ele>24.1703</ele>
        <time>2012-09-30T08:24:22Z</time>
      </trkpt>
      <trkpt lat="59.9664603" lon="17.7107104">
        <ele>24.1703</ele>
        <time>2012-09-30T08:24:23Z</time>
      </trkpt>
      <trkpt lat="59.9664433" lon="17.7106576">
        <ele>24.651</ele>
        <time>2012-09-30T08:24:24Z</time>
      </trkpt>
      <trkpt lat="59.9664288" lon="17.710612">
        <ele>25.1317</ele>
        <time>2012-09-30T08:24:25Z</time>
      </trkpt>
      <trkpt lat="59.966412" lon="17.7105644">
        <ele>25.6123</ele>
        <time>2012-09-30T08:24:26Z</time>
      </trkpt>
      <trkpt lat="59.9663967" lon="17.7105178">
        <ele>25.6123</ele>
        <time>2012-09-30T08:24:27Z</time>
      </trkpt>
      <trkpt lat="59.9663857" lon="17.710474">
        <ele>26.0929</ele>
        <time>2012-09-30T08:24:28Z</time>
      </trkpt>
      <trkpt lat="59.966378" lon="17.7104338">
        <ele>25.6123</ele>
        <time>2012-09-30T08:24:29Z</time>
      </trkpt>
      <trkpt lat="59.9663655" lon="17.7103933">
        <ele>25.6123</ele>
        <time>2012-09-30T08:24:30Z</time>
      </trkpt>
      <trkpt lat="59.966351" lon="17.710349">
        <ele>26.0929</ele>
        <time>2012-09-30T08:24:31Z</time>
      </trkpt>
      <trkpt lat="59.9663417" lon="17.7102992">
        <ele>26.0929</ele>
        <time>2012-09-30T08:24:32Z</time>
      </trkpt>
      <trkpt lat="59.9663303" lon="17.7102529">
        <ele>26.0929</ele>
        <time>2012-09-30T08:24:33Z</time>
      </trkpt>
      <trkpt lat="59.9663144" lon="17.7102094">
        <ele>25.6123</ele>
        <time>2012-09-30T08:24:34Z</time>
      </trkpt>
      <trkpt lat="59.9663009" lon="17.7101664">
        <ele>25.6123</ele>
        <time>2012-09-30T08:24:35Z</time>
      </trkpt>
      <trkpt lat="59.9662873" lon="17.7101291">
        <ele>25.1317</ele>
        <time>2012-09-30T08:24:36Z</time>
      </trkpt>
      <trkpt lat="59.9662711" lon="17.7100834">
        <ele>25.1317</ele>
        <time>2012-09-30T08:24:37Z</time>
      </trkpt>
      <trkpt lat="59.9662598" lon="17.7100427">
        <ele>25.1317</ele>
        <time>2012-09-30T08:24:38Z</time>
      </trkpt>
      <trkpt lat="59.9662501" lon="17.7100023">
        <ele>25.1317</ele>
        <time>2012-09-30T08:24:39Z</time>
      </trkpt>
      <trkpt lat="59.9662395" lon="17.7099608">
        <ele>25.6123</ele>
        <time>2012-09-30T08:24:40Z</time>
      </trkpt>
      <trkpt lat="59.9662302" lon="17.7099272">
        <ele>25.6123</ele>
        <time>2012-09-30T08:24:41Z</time>
      </trkpt>
      <trkpt lat="59.9662236" lon="17.7098911">
        <ele>25.6123</ele>
        <time>2012-09-30T08:24:42Z</time>
      </trkpt>
      <trkpt lat="59.9662184" lon="17.709853">
        <ele>26.0929</ele>
        <time>2012-09-30T08:24:43Z</time>
      </trkpt>
      <trkpt lat="59.9662135" lon="17.7098121">
        <ele>26.0929</ele>
        <time>2012-09-30T08:24:44Z</time>
      </trkpt>
      <trkpt lat="59.9662071" lon="17.7097662">
        <ele>26.0929</ele>
        <time>2012-09-30T08:24:45Z</time>
      </trkpt>
      <trkpt lat="59.9661951" lon="17.7097258">
        <ele>26.5736</ele>
        <time>2012-09-30T08:24:46Z</time>
      </trkpt>
      <trkpt lat="59.9661784" lon="17.7096837">
        <ele>27.5349</ele>
        <time>2012-09-30T08:24:47Z</time>
      </trkpt>
      <trkpt lat="59.9661597" lon="17.7096361">
        <ele>28.0155</ele>
        <time>2012-09-30T08:24:48Z</time>
      </trkpt>
      <trkpt lat="59.9661481" lon="17.709587">
        <ele>28.4962</ele>
        <time>2012-09-30T08:24:49Z</time>
      </trkpt>
      <trkpt lat="59.9661356" lon="17.7095367">
        <ele>28.9769</ele>
        <time>2012-09-30T08:24:50Z</time>
      </trkpt>
      <trkpt lat="59.96612" lon="17.7094891">
        <ele>28.9769</ele>
        <time>2012-09-30T08:24:51Z</time>
      </trkpt>
      <trkpt lat="59.9661025" lon="17.7094453">
        <ele>28.9769</ele>
        <time>2012-09-30T08:24:52Z</time>
      </trkpt>
      <trkpt lat="59.9660852" lon="17.7094019">
        <ele>28.9769</ele>
        <time>2012-09-30T08:24:53Z</time>
      </trkpt>
      <trkpt lat="59.9660806" lon="17.7093551">
        <ele>29.4575</ele>
        <time>2012-09-30T08:24:54Z</time>
      </trkpt>
      <trkpt lat="59.9660743" lon="17.7093097">
        <ele>29.9381</ele>
        <time>2012-09-30T08:24:55Z</time>
      </trkpt>
      <trkpt lat="59.9660616" lon="17.7092647">
        <ele>29.9381</ele>
        <time>2012-09-30T08:24:56Z</time>
      </trkpt>
      <trkpt lat="59.9660504" lon="17.7092182">
        <ele>30.4188</ele>
        <time>2012-09-30T08:24:57Z</time>
      </trkpt>
      <trkpt lat="59.9660375" lon="17.709176">
        <ele>30.4188</ele>
        <time>2012-09-30T08:24:58Z</time>
      </trkpt>
      <trkpt lat="59.9660153" lon="17.709131">
        <ele>30.4188</ele>
        <time>2012-09-30T08:24:59Z</time>
      </trkpt>
      <trkpt lat="59.9659972" lon="17.7090845">
        <ele>31.3801</ele>
        <time>2012-09-30T08:25:00Z</time>
      </trkpt>
      <trkpt lat="59.9659849" lon="17.7090402">
        <ele>31.3801</ele>
        <time>2012-09-30T08:25:01Z</time>
      </trkpt>
      <trkpt lat="59.9659707" lon="17.7089936">
        <ele>31.8607</ele>
        <time>2012-09-30T08:25:02Z</time>
      </trkpt>
      <trkpt lat="59.9659553" lon="17.7089493">
        <ele>32.3416</ele>
        <time>2012-09-30T08:25:03Z</time>
      </trkpt>
      <trkpt lat="59.9659486" lon="17.7089062">
        <ele>33.3029</ele>
        <time>2012-09-30T08:25:04Z</time>
      </trkpt>
      <trkpt lat="59.9659345" lon="17.7088637">
        <ele>33.3029</ele>
        <time>2012-09-30T08:25:05Z</time>
      </trkpt>
      <trkpt lat="59.9659185" lon="17.7088223">
        <ele>33.3029</ele>
        <time>2012-09-30T08:25:06Z</time>
      </trkpt>
      <trkpt lat="59.9659066" lon="17.7087797">
        <ele>33.7834</ele>
        <time>2012-09-30T08:25:07Z</time>
      </trkpt>
      <trkpt lat="59.965897" lon="17.708739">
        <ele>33.7834</ele>
        <time>2012-09-30T08:25:08Z</time>
      </trkpt>
      <trkpt lat="59.9658916" lon="17.7087021">
        <ele>34.2642</ele>
        <time>2012-09-30T08:25:09Z</time>
      </trkpt>
      <trkpt lat="59.9658755" lon="17.7086615">
        <ele>34.2642</ele>
        <time>2012-09-30T08:25:10Z</time>
      </trkpt>
      <trkpt lat="59.9658595" lon="17.7086154">
        <ele>34.7449</ele>
        <time>2012-09-30T08:25:11Z</time>
      </trkpt>
      <trkpt lat="59.9658419" lon="17.7085778">
        <ele>34.2642</ele>
        <time>2012-09-30T08:25:12Z</time>
      </trkpt>
      <trkpt lat="59.9658232" lon="17.7085432">
        <ele>34.2642</ele>
        <time>2012-09-30T08:25:13Z</time>
      </trkpt>
      <trkpt lat="59.965804" lon="17.7085073">
        <ele>33.7834</ele>
        <time>2012-09-30T08:25:14Z</time>
      </trkpt>
      <trkpt lat="59.9657837" lon="17.7084756">
        <ele>33.3029</ele>
        <time>2012-09-30T08:25:15Z</time>
      </trkpt>
      <trkpt lat="59.9657646" lon="17.7084432">
        <ele>33.3029</ele>
        <time>2012-09-30T08:25:16Z</time>
      </trkpt>
      <trkpt lat="59.9657479" lon="17.7084125">
        <ele>32.8223</ele>
        <time>2012-09-30T08:25:17Z</time>
      </trkpt>
      <trkpt lat="59.9657294" lon="17.7083861">
        <ele>32.3416</ele>
        <time>2012-09-30T08:25:18Z</time>
      </trkpt>
      <trkpt lat="59.9657083" lon="17.7083549">
        <ele>32.3416</ele>
        <time>2012-09-30T08:25:19Z</time>
      </trkpt>
      <trkpt lat="59.9656841" lon="17.7083269">
        <ele>31.8607</ele>
        <time>2012-09-30T08:25:20Z</time>
      </trkpt>
      <trkpt lat="59.965662" lon="17.7083038">
        <ele>31.8607</ele>
        <time>2012-09-30T08:25:21Z</time>
      </trkpt>
      <trkpt lat="59.9656382" lon="17.7082785">
        <ele>31.8607</ele>
        <time>2012-09-30T08:25:22Z</time>
      </trkpt>
      <trkpt lat="59.9656171" lon="17.7082544">
        <ele>31.3801</ele>
        <time>2012-09-30T08:25:23Z</time>
      </trkpt>
      <trkpt lat="59.9655947" lon="17.7082318">
        <ele>31.3801</ele>
        <time>2012-09-30T08:25:24Z</time>
      </trkpt>
      <trkpt lat="59.9655699" lon="17.7082079">
        <ele>30.8995</ele>
        <time>2012-09-30T08:25:25Z</time>
      </trkpt>
      <trkpt lat="59.965547" lon="17.7081857">
        <ele>30.8995</ele>
        <time>2012-09-30T08:25:26Z</time>
      </trkpt>
      <trkpt lat="59.9655249" lon="17.7081617">
        <ele>30.8995</ele>
        <time>2012-09-30T08:25:27Z</time>
      </trkpt>
      <trkpt lat="59.9655028" lon="17.7081404">
        <ele>30.8995</ele>
        <time>2012-09-30T08:25:28Z</time>
      </trkpt>
      <trkpt lat="59.9654797" lon="17.7081277">
        <ele>30.8995</ele>
        <time>2012-09-30T08:25:29Z</time>
      </trkpt>
      <trkpt lat="59.9654537" lon="17.7081074">
        <ele>30.4188</ele>
        <time>2012-09-30T08:25:30Z</time>
      </trkpt>
      <trkpt lat="59.9654263" lon="17.7080811">
        <ele>29.9381</ele>
        <time>2012-09-30T08:25:31Z</time>
      </trkpt>
      <trkpt lat="59.9654" lon="17.7080561">
        <ele>29.9381</ele>
        <time>2012-09-30T08:25:32Z</time>
      </trkpt>
      <trkpt lat="59.9653751" lon="17.7080334">
        <ele>29.9381</ele>
        <time>2012-09-30T08:25:33Z</time>
      </trkpt>
      <trkpt lat="59.9653511" lon="17.7080176">
        <ele>29.4575</ele>
        <time>2012-09-30T08:25:34Z</time>
      </trkpt>
      <trkpt lat="59.9653264" lon="17.7080017">
        <ele>29.4575</ele>
        <time>2012-09-30T08:25:35Z</time>
      </trkpt>
      <trkpt lat="59.9652993" lon="17.7079814">
        <ele>28.9769</ele>
        <time>2012-09-30T08:25:36Z</time>
      </trkpt>
      <trkpt lat="59.9652742" lon="17.7079646">
        <ele>28.4962</ele>
        <time>2012-09-30T08:25:37Z</time>
      </trkpt>
      <trkpt lat="59.9652487" lon="17.7079457">
        <ele>28.4962</ele>
        <time>2012-09-30T08:25:38Z</time>
      </trkpt>
      <trkpt lat="59.9652224" lon="17.7079242">
        <ele>28.0155</ele>
        <time>2012-09-30T08:25:39Z</time>
      </trkpt>
      <trkpt lat="59.9651972" lon="17.7079079">
        <ele>28.0155</ele>
        <time>2012-09-30T08:25:40Z</time>
      </trkpt>
      <trkpt lat="59.9651713" lon="17.7078981">
        <ele>27.5349</ele>
        <time>2012-09-30T08:25:41Z</time>
      </trkpt>
      <trkpt lat="59.9651449" lon="17.7078887">
        <ele>27.5349</ele>
        <time>2012-09-30T08:25:42Z</time>
      </trkpt>
      <trkpt lat="59.9651231" lon="17.7078733">
        <ele>27.0543</ele>
        <time>2012-09-30T08:25:43Z</time>
      </trkpt>
      <trkpt lat="59.9651" lon="17.7078561">
        <ele>27.0543</ele>
        <time>2012-09-30T08:25:44Z</time>
      </trkpt>
      <trkpt lat="59.9650772" lon="17.7078432">
        <ele>26.5736</ele>
        <time>2012-09-30T08:25:45Z</time>
      </trkpt>
      <trkpt lat="59.965061" lon="17.7078303">
        <ele>27.0543</ele>
        <time>2012-09-30T08:25:46Z</time>
      </trkpt>
      <trkpt lat="59.9650436" lon="17.70782">
        <ele>26.5736</ele>
        <time>2012-09-30T08:25:47Z</time>
      </trkpt>
      <trkpt lat="59.9650276" lon="17.7078182">
        <ele>26.5736</ele>
        <time>2012-09-30T08:25:48Z</time>
      </trkpt>
      <trkpt lat="59.9650046" lon="17.7078106">
        <ele>26.5736</ele>
        <time>2012-09-30T08:25:49Z</time>
      </trkpt>
      <trkpt lat="59.9649835" lon="17.707794">
        <ele>26.5736</ele>
        <time>2012-09-30T08:25:50Z</time>
      </trkpt>
      <trkpt lat="59.9649615" lon="17.7077785">
        <ele>27.0543</ele>
        <time>2012-09-30T08:25:51Z</time>
      </trkpt>
      <trkpt lat="59.9649383" lon="17.7077624">
        <ele>27.5349</ele>
        <time>2012-09-30T08:25:52Z</time>
      </trkpt>
      <trkpt lat="59.9649165" lon="17.7077485">
        <ele>27.5349</ele>
        <time>2012-09-30T08:25:53Z</time>
      </trkpt>
      <trkpt lat="59.9648923" lon="17.7077369">
        <ele>27.5349</ele>
        <time>2012-09-30T08:25:54Z</time>
      </trkpt>
      <trkpt lat="59.9648678" lon="17.7077161">
        <ele>28.0155</ele>
        <time>2012-09-30T08:25:55Z</time>
      </trkpt>
      <trkpt lat="59.964839" lon="17.707689">
        <ele>27.0543</ele>
        <time>2012-09-30T08:25:56Z</time>
      </trkpt>
      <trkpt lat="59.9648113" lon="17.7076678">
        <ele>27.5349</ele>
        <time>2012-09-30T08:25:57Z</time>
      </trkpt>
      <trkpt lat="59.9647839" lon="17.7076475">
        <ele>27.0543</ele>
        <time>2012-09-30T08:25:58Z</time>
      </trkpt>
      <trkpt lat="59.9647592" lon="17.7076313">
        <ele>27.5349</ele>
        <time>2012-09-30T08:25:59Z</time>
      </trkpt>
      <trkpt lat="59.9647317" lon="17.7076111">
        <ele>27.5349</ele>
        <time>2012-09-30T08:26:00Z</time>
      </trkpt>
      <trkpt lat="59.9647017" lon="17.7075871">
        <ele>26.5736</ele>
        <time>2012-09-30T08:26:01Z</time>
      </trkpt>
      <trkpt lat="59.9646733" lon="17.7075675">
        <ele>26.5736</ele>
        <time>2012-09-30T08:26:02Z</time>
      </trkpt>
      <trkpt lat="59.9646469" lon="17.7075519">
        <ele>26.5736</ele>
        <time>2012-09-30T08:26:03Z</time>
      </trkpt>
      <trkpt lat="59.9646201" lon="17.7075314">
        <ele>26.5736</ele>
        <time>2012-09-30T08:26:04Z</time>
      </trkpt>
      <trkpt lat="59.9645937" lon="17.7075148">
        <ele>26.0929</ele>
        <time>2012-09-30T08:26:05Z</time>
      </trkpt>
      <trkpt lat="59.9645707" lon="17.7074991">
        <ele>26.5736</ele>
        <time>2012-09-30T08:26:06Z</time>
      </trkpt>
      <trkpt lat="59.9645466" lon="17.7074806">
        <ele>26.0929</ele>
        <time>2012-09-30T08:26:07Z</time>
      </trkpt>
      <trkpt lat="59.9645202" lon="17.7074607">
        <ele>26.5736</ele>
        <time>2012-09-30T08:26:08Z</time>
      </trkpt>
      <trkpt lat="59.9644986" lon="17.7074376">
        <ele>27.0543</ele>
        <time>2012-09-30T08:26:09Z</time>
      </trkpt>
      <trkpt lat="59.9644743" lon="17.7074189">
        <ele>27.0543</ele>
        <time>2012-09-30T08:26:10Z</time>
      </trkpt>
      <trkpt lat="59.9644436" lon="17.7074126">
        <ele>26.5736</ele>
        <time>2012-09-30T08:26:11Z</time>
      </trkpt>
      <trkpt lat="59.9644104" lon="17.7074184">
        <ele>26.5736</ele>
        <time>2012-09-30T08:26:12Z</time>
      </trkpt>
      <trkpt lat="59.9643758" lon="17.707423">
        <ele>26.0929</ele>
        <time>2012-09-30T08:26:13Z</time>
      </trkpt>
      <trkpt lat="59.9643468" lon="17.7074155">
        <ele>26.0929</ele>
        <time>2012-09-30T08:26:14Z</time>
      </trkpt>
      <trkpt lat="59.9643208" lon="17.70741">
        <ele>26.0929</ele>
        <time>2012-09-30T08:26:15Z</time>
      </trkpt>
      <trkpt lat="59.9643002" lon="17.7073961">
        <ele>27.0543</ele>
        <time>2012-09-30T08:26:16Z</time>
      </trkpt>
      <trkpt lat="59.9642769" lon="17.7073719">
        <ele>27.5349</ele>
        <time>2012-09-30T08:26:17Z</time>
      </trkpt>
      <trkpt lat="59.9642535" lon="17.7073619">
        <ele>27.0543</ele>
        <time>2012-09-30T08:26:18Z</time>
      </trkpt>
      <trkpt lat="59.9642371" lon="17.7073527">
        <ele>26.5736</ele>
        <time>2012-09-30T08:26:19Z</time>
      </trkpt>
      <trkpt lat="59.9642214" lon="17.7073409">
        <ele>26.5736</ele>
        <time>2012-09-30T08:26:20Z</time>
      </trkpt>
      <trkpt lat="59.9642002" lon="17.7073336">
        <ele>26.5736</ele>
        <time>2012-09-30T08:26:21Z</time>
      </trkpt>
      <trkpt lat="59.9641827" lon="17.7073316">
        <ele>26.0929</ele>
        <time>2012-09-30T08:26:22Z</time>
      </trkpt>
      <trkpt lat="59.9641671" lon="17.7073347">
        <ele>26.5736</ele>
        <time>2012-09-30T08:26:23Z</time>
      </trkpt>
      <trkpt lat="59.9641467" lon="17.7073376">
        <ele>26.0929</ele>
        <time>2012-09-30T08:26:24Z</time>
      </trkpt>
      <trkpt lat="59.9641225" lon="17.7073346">
        <ele>26.0929</ele>
        <time>2012-09-30T08:26:25Z</time>
      </trkpt>
      <trkpt lat="59.9640935" lon="17.7073308">
        <ele>26.0929</ele>
        <time>2012-09-30T08:26:26Z</time>
      </trkpt>
      <trkpt lat="59.9640644" lon="17.7073257">
        <ele>26.0929</ele>
        <time>2012-09-30T08:26:27Z</time>
      </trkpt>
      <trkpt lat="59.9640361" lon="17.7073206">
        <ele>26.5736</ele>
        <time>2012-09-30T08:26:28Z</time>
      </trkpt>
      <trkpt lat="59.9640081" lon="17.707318">
        <ele>27.0543</ele>
        <time>2012-09-30T08:26:29Z</time>
      </trkpt>
      <trkpt lat="59.9639826" lon="17.7073111">
        <ele>27.5349</ele>
        <time>2012-09-30T08:26:30Z</time>
      </trkpt>
      <trkpt lat="59.9639587" lon="17.7073067">
        <ele>28.0155</ele>
        <time>2012-09-30T08:26:31Z</time>
      </trkpt>
      <trkpt lat="59.9639302" lon="17.7073061">
        <ele>28.4962</ele>
        <time>2012-09-30T08:26:32Z</time>
      </trkpt>
      <trkpt lat="59.9639025" lon="17.707305">
        <ele>28.0155</ele>
        <time>2012-09-30T08:26:33Z</time>
      </trkpt>
      <trkpt lat="59.9638743" lon="17.707305">
        <ele>27.5349</ele>
        <time>2012-09-30T08:26:34Z</time>
      </trkpt>
      <trkpt lat="59.9638449" lon="17.7073018">
        <ele>27.5349</ele>
        <time>2012-09-30T08:26:35Z</time>
      </trkpt>
      <trkpt lat="59.9638174" lon="17.7073009">
        <ele>27.5349</ele>
        <time>2012-09-30T08:26:36Z</time>
      </trkpt>
      <trkpt lat="59.9637879" lon="17.7073044">
        <ele>27.5349</ele>
        <time>2012-09-30T08:26:37Z</time>
      </trkpt>
      <trkpt lat="59.9637646" lon="17.707304">
        <ele>27.0543</ele>
        <time>2012-09-30T08:26:38Z</time>
      </trkpt>
      <trkpt lat="59.9637453" lon="17.707308">
        <ele>27.0543</ele>
        <time>2012-09-30T08:26:39Z</time>
      </trkpt>
      <trkpt lat="59.9637238" lon="17.7073124">
        <ele>27.0543</ele>
        <time>2012-09-30T08:26:40Z</time>
      </trkpt>
      <trkpt lat="59.9636989" lon="17.7073114">
        <ele>27.0543</ele>
        <time>2012-09-30T08:26:41Z</time>
      </trkpt>
      <trkpt lat="59.9636723" lon="17.7073108">
        <ele>26.5736</ele>
        <time>2012-09-30T08:26:42Z</time>
      </trkpt>
      <trkpt lat="59.9636482" lon="17.7073097">
        <ele>26.5736</ele>
        <time>2012-09-30T08:26:43Z</time>
      </trkpt>
      <trkpt lat="59.9636276" lon="17.7073019">
        <ele>27.0543</ele>
        <time>2012-09-30T08:26:44Z</time>
      </trkpt>
      <trkpt lat="59.9636028" lon="17.7072891">
        <ele>27.0543</ele>
        <time>2012-09-30T08:26:45Z</time>
      </trkpt>
      <trkpt lat="59.9635772" lon="17.7072862">
        <ele>26.5736</ele>
        <time>2012-09-30T08:26:46Z</time>
      </trkpt>
      <trkpt lat="59.9635484" lon="17.7072953">
        <ele>26.0929</ele>
        <time>2012-09-30T08:26:47Z</time>
      </trkpt>
      <trkpt lat="59.9635263" lon="17.707305">
        <ele>26.0929</ele>
        <time>2012-09-30T08:26:48Z</time>
      </trkpt>
      <trkpt lat="59.963502" lon="17.7073064">
        <ele>25.1317</ele>
        <time>2012-09-30T08:26:49Z</time>
      </trkpt>
      <trkpt lat="59.9634837" lon="17.707307">
        <ele>25.6123</ele>
        <time>2012-09-30T08:26:50Z</time>
      </trkpt>
      <trkpt lat="59.963458" lon="17.7073066">
        <ele>25.6123</ele>
        <time>2012-09-30T08:26:51Z</time>
      </trkpt>
      <trkpt lat="59.9634373" lon="17.7073036">
        <ele>25.6123</ele>
        <time>2012-09-30T08:26:52Z</time>
      </trkpt>
      <trkpt lat="59.9634086" lon="17.7073045">
        <ele>25.1317</ele>
        <time>2012-09-30T08:26:53Z</time>
      </trkpt>
      <trkpt lat="59.9633808" lon="17.707305">
        <ele>25.1317</ele>
        <time>2012-09-30T08:26:54Z</time>
      </trkpt>
      <trkpt lat="59.9633546" lon="17.7073028">
        <ele>24.651</ele>
        <time>2012-09-30T08:26:55Z</time>
      </trkpt>
      <trkpt lat="59.9633313" lon="17.7072998">
        <ele>24.651</ele>
        <time>2012-09-30T08:26:56Z</time>
      </trkpt>
      <trkpt lat="59.9633059" lon="17.7072921">
        <ele>24.651</ele>
        <time>2012-09-30T08:26:57Z</time>
      </trkpt>
      <trkpt lat="59.96328" lon="17.7072862">
        <ele>24.1703</ele>
        <time>2012-09-30T08:26:58Z</time>
      </trkpt>
      <trkpt lat="59.9632542" lon="17.7072872">
        <ele>24.1703</ele>
        <time>2012-09-30T08:26:59Z</time>
      </trkpt>
      <trkpt lat="59.9632293" lon="17.7072891">
        <ele>25.1317</ele>
        <time>2012-09-30T08:27:00Z</time>
      </trkpt>
      <trkpt lat="59.9631957" lon="17.707291">
        <ele>25.1317</ele>
        <time>2012-09-30T08:27:01Z</time>
      </trkpt>
      <trkpt lat="59.9631641" lon="17.7072889">
        <ele>25.1317</ele>
        <time>2012-09-30T08:27:02Z</time>
      </trkpt>
      <trkpt lat="59.9631357" lon="17.7072838">
        <ele>25.1317</ele>
        <time>2012-09-30T08:27:03Z</time>
      </trkpt>
      <trkpt lat="59.9631124" lon="17.7072803">
        <ele>26.0929</ele>
        <time>2012-09-30T08:27:04Z</time>
      </trkpt>
      <trkpt lat="59.9630736" lon="17.7072756">
        <ele>25.6123</ele>
        <time>2012-09-30T08:27:05Z</time>
      </trkpt>
      <trkpt lat="59.9630482" lon="17.7072714">
        <ele>26.0929</ele>
        <time>2012-09-30T08:27:06Z</time>
      </trkpt>
      <trkpt lat="59.963021" lon="17.707272">
        <ele>25.6123</ele>
        <time>2012-09-30T08:27:07Z</time>
      </trkpt>
      <trkpt lat="59.9630021" lon="17.7072696">
        <ele>25.6123</ele>
        <time>2012-09-30T08:27:08Z</time>
      </trkpt>
      <trkpt lat="59.9629824" lon="17.7072646">
        <ele>25.1317</ele>
        <time>2012-09-30T08:27:09Z</time>
      </trkpt>
      <trkpt lat="59.9629576" lon="17.707259">
        <ele>25.6123</ele>
        <time>2012-09-30T08:27:10Z</time>
      </trkpt>
      <trkpt lat="59.9629247" lon="17.7072558">
        <ele>25.1317</ele>
        <time>2012-09-30T08:27:11Z</time>
      </trkpt>
      <trkpt lat="59.962901" lon="17.7072569">
        <ele>25.6123</ele>
        <time>2012-09-30T08:27:12Z</time>
      </trkpt>
      <trkpt lat="59.9628715" lon="17.7072639">
        <ele>26.0929</ele>
        <time>2012-09-30T08:27:13Z</time>
      </trkpt>
      <trkpt lat="59.9628461" lon="17.7072765">
        <ele>26.0929</ele>
        <time>2012-09-30T08:27:14Z</time>
      </trkpt>
      <trkpt lat="59.9628221" lon="17.7072806">
        <ele>26.0929</ele>
        <time>2012-09-30T08:27:15Z</time>
      </trkpt>
      <trkpt lat="59.962797" lon="17.7072798">
        <ele>25.6123</ele>
        <time>2012-09-30T08:27:16Z</time>
      </trkpt>
      <trkpt lat="59.9627761" lon="17.7072822">
        <ele>25.1317</ele>
        <time>2012-09-30T08:27:17Z</time>
      </trkpt>
      <trkpt lat="59.9627538" lon="17.7072749">
        <ele>25.1317</ele>
        <time>2012-09-30T08:27:18Z</time>
      </trkpt>
      <trkpt lat="59.9627338" lon="17.7072641">
        <ele>25.6123</ele>
        <time>2012-09-30T08:27:19Z</time>
      </trkpt>
      <trkpt lat="59.9627074" lon="17.7072589">
        <ele>26.5736</ele>
        <time>2012-09-30T08:27:20Z</time>
      </trkpt>
      <trkpt lat="59.9626798" lon="17.7072518">
        <ele>27.5349</ele>
        <time>2012-09-30T08:27:21Z</time>
      </trkpt>
      <trkpt lat="59.962651" lon="17.707236">
        <ele>28.0155</ele>
        <time>2012-09-30T08:27:22Z</time>
      </trkpt>
      <trkpt lat="59.9626261" lon="17.7072305">
        <ele>28.4962</ele>
        <time>2012-09-30T08:27:23Z</time>
      </trkpt>
      <trkpt lat="59.9626049" lon="17.7072302">
        <ele>28.4962</ele>
        <time>2012-09-30T08:27:24Z</time>
      </trkpt>
      <trkpt lat="59.9625777" lon="17.7072271">
        <ele>28.4962</ele>
        <time>2012-09-30T08:27:25Z</time>
      </trkpt>
      <trkpt lat="59.9625541" lon="17.7072214">
        <ele>28.9769</ele>
        <time>2012-09-30T08:27:26Z</time>
      </trkpt>
      <trkpt lat="59.9625282" lon="17.7072119">
        <ele>28.9769</ele>
        <time>2012-09-30T08:27:27Z</time>
      </trkpt>
      <trkpt lat="59.9625015" lon="17.7072066">
        <ele>29.4575</ele>
        <time>2012-09-30T08:27:28Z</time>
      </trkpt>
      <trkpt lat="59.9624761" lon="17.7072025">
        <ele>29.4575</ele>
        <time>2012-09-30T08:27:29Z</time>
      </trkpt>
      <trkpt lat="59.9624515" lon="17.7071981">
        <ele>29.9381</ele>
        <time>2012-09-30T08:27:30Z</time>
      </trkpt>
      <trkpt lat="59.9624259" lon="17.7071933">
        <ele>30.4188</ele>
        <time>2012-09-30T08:27:31Z</time>
      </trkpt>
      <trkpt lat="59.9624059" lon="17.7071731">
        <ele>30.8995</ele>
        <time>2012-09-30T08:27:32Z</time>
      </trkpt>
      <trkpt lat="59.9623832" lon="17.7071428">
        <ele>31.3801</ele>
        <time>2012-09-30T08:27:33Z</time>
      </trkpt>
      <trkpt lat="59.9623593" lon="17.7071267">
        <ele>31.8607</ele>
        <time>2012-09-30T08:27:34Z</time>
      </trkpt>
      <trkpt lat="59.9623381" lon="17.7071165">
        <ele>32.3416</ele>
        <time>2012-09-30T08:27:35Z</time>
      </trkpt>
      <trkpt lat="59.962316" lon="17.707104">
        <ele>33.3029</ele>
        <time>2012-09-30T08:27:36Z</time>
      </trkpt>
      <trkpt lat="59.9622908" lon="17.707091">
        <ele>33.3029</ele>
        <time>2012-09-30T08:27:37Z</time>
      </trkpt>
      <trkpt lat="59.962268" lon="17.7070744">
        <ele>33.7834</ele>
        <time>2012-09-30T08:27:38Z</time>
      </trkpt>
      <trkpt lat="59.9622453" lon="17.7070612">
        <ele>34.2642</ele>
        <time>2012-09-30T08:27:39Z</time>
      </trkpt>
      <trkpt lat="59.9622219" lon="17.7070467">
        <ele>34.2642</ele>
        <time>2012-09-30T08:27:40Z</time>
      </trkpt>
      <trkpt lat="59.9622019" lon="17.7070349">
        <ele>34.7449</ele>
        <time>2012-09-30T08:27:41Z</time>
      </trkpt>
      <trkpt lat="59.9621769" lon="17.7070233">
        <ele>34.7449</ele>
        <time>2012-09-30T08:27:42Z</time>
      </trkpt>
      <trkpt lat="59.96215" lon="17.7070066">
        <ele>34.7449</ele>
        <time>2012-09-30T08:27:43Z</time>
      </trkpt>
      <trkpt lat="59.9621267" lon="17.7069911">
        <ele>35.2255</ele>
        <time>2012-09-30T08:27:44Z</time>
      </trkpt>
      <trkpt lat="59.9621045" lon="17.7069793">
        <ele>35.2255</ele>
        <time>2012-09-30T08:27:45Z</time>
      </trkpt>
      <trkpt lat="59.962075" lon="17.7069743">
        <ele>34.7449</ele>
        <time>2012-09-30T08:27:46Z</time>
      </trkpt>
      <trkpt lat="59.9620447" lon="17.7069735">
        <ele>34.2642</ele>
        <time>2012-09-30T08:27:47Z</time>
      </trkpt>
      <trkpt lat="59.9620189" lon="17.7069538">
        <ele>33.7834</ele>
        <time>2012-09-30T08:27:48Z</time>
      </trkpt>
      <trkpt lat="59.9619975" lon="17.706927">
        <ele>33.7834</ele>
        <time>2012-09-30T08:27:49Z</time>
      </trkpt>
      <trkpt lat="59.9619695" lon="17.706901">
        <ele>34.2642</ele>
        <time>2012-09-30T08:27:50Z</time>
      </trkpt>
      <trkpt lat="59.9619422" lon="17.7068813">
        <ele>34.2642</ele>
        <time>2012-09-30T08:27:51Z</time>
      </trkpt>
      <trkpt lat="59.9619163" lon="17.7068616">
        <ele>33.7834</ele>
        <time>2012-09-30T08:27:52Z</time>
      </trkpt>
      <trkpt lat="59.9618925" lon="17.7068436">
        <ele>33.7834</ele>
        <time>2012-09-30T08:27:53Z</time>
      </trkpt>
      <trkpt lat="59.9618702" lon="17.7068264">
        <ele>33.7834</ele>
        <time>2012-09-30T08:27:54Z</time>
      </trkpt>
      <trkpt lat="59.9618459" lon="17.7068055">
        <ele>33.7834</ele>
        <time>2012-09-30T08:27:55Z</time>
      </trkpt>
      <trkpt lat="59.961819" lon="17.7067839">
        <ele>32.8223</ele>
        <time>2012-09-30T08:27:56Z</time>
      </trkpt>
      <trkpt lat="59.9617926" lon="17.7067628">
        <ele>32.3416</ele>
        <time>2012-09-30T08:27:57Z</time>
      </trkpt>
      <trkpt lat="59.9617724" lon="17.7067417">
        <ele>32.3416</ele>
        <time>2012-09-30T08:27:58Z</time>
      </trkpt>
      <trkpt lat="59.9617537" lon="17.7067212">
        <ele>32.3416</ele>
        <time>2012-09-30T08:27:59Z</time>
      </trkpt>
      <trkpt lat="59.9617302" lon="17.7067021">
        <ele>31.3801</ele>
        <time>2012-09-30T08:28:00Z</time>
      </trkpt>
      <trkpt lat="59.9617081" lon="17.7066843">
        <ele>30.8995</ele>
        <time>2012-09-30T08:28:01Z</time>
      </trkpt>
      <trkpt lat="59.9616905" lon="17.7066647">
        <ele>30.8995</ele>
        <time>2012-09-30T08:28:02Z</time>
      </trkpt>
      <trkpt lat="59.9616666" lon="17.70664">
        <ele>29.9381</ele>
        <time>2012-09-30T08:28:03Z</time>
      </trkpt>
      <trkpt lat="59.961651" lon="17.7066156">
        <ele>29.9381</ele>
        <time>2012-09-30T08:28:04Z</time>
      </trkpt>
      <trkpt lat="59.9616305" lon="17.7065902">
        <ele>29.9381</ele>
        <time>2012-09-30T08:28:05Z</time>
      </trkpt>
      <trkpt lat="59.9616059" lon="17.7065627">
        <ele>29.9381</ele>
        <time>2012-09-30T08:28:06Z</time>
      </trkpt>
      <trkpt lat="59.961582" lon="17.7065292">
        <ele>29.9381</ele>
        <time>2012-09-30T08:28:07Z</time>
      </trkpt>
      <trkpt lat="59.9615605" lon="17.7065027">
        <ele>30.4188</ele>
        <time>2012-09-30T08:28:08Z</time>
      </trkpt>
      <trkpt lat="59.9615377" lon="17.7064781">
        <ele>30.4188</ele>
        <time>2012-09-30T08:28:09Z</time>
      </trkpt>
      <trkpt lat="59.9615181" lon="17.7064509">
        <ele>30.4188</ele>
        <time>2012-09-30T08:28:10Z</time>
      </trkpt>
      <trkpt lat="59.9614978" lon="17.7064213">
        <ele>29.9381</ele>
        <time>2012-09-30T08:28:11Z</time>
      </trkpt>
      <trkpt lat="59.9614786" lon="17.7063937">
        <ele>30.4188</ele>
        <time>2012-09-30T08:28:12Z</time>
      </trkpt>
      <trkpt lat="59.9614605" lon="17.7063603">
        <ele>30.4188</ele>
        <time>2012-09-30T08:28:13Z</time>
      </trkpt>
      <trkpt lat="59.9614382" lon="17.7063229">
        <ele>30.4188</ele>
        <time>2012-09-30T08:28:14Z</time>
      </trkpt>
      <trkpt lat="59.9614102" lon="17.706284">
        <ele>30.4188</ele>
        <time>2012-09-30T08:28:15Z</time>
      </trkpt>
      <trkpt lat="59.9613864" lon="17.7062441">
        <ele>30.4188</ele>
        <time>2012-09-30T08:28:16Z</time>
      </trkpt>
      <trkpt lat="59.9613687" lon="17.7062126">
        <ele>30.4188</ele>
        <time>2012-09-30T08:28:17Z</time>
      </trkpt>
      <trkpt lat="59.9613476" lon="17.7061804">
        <ele>29.9381</ele>
        <time>2012-09-30T08:28:18Z</time>
      </trkpt>
      <trkpt lat="59.9613263" lon="17.7061455">
        <ele>29.4575</ele>
        <time>2012-09-30T08:28:19Z</time>
      </trkpt>
      <trkpt lat="59.9613077" lon="17.7061095">
        <ele>28.9769</ele>
        <time>2012-09-30T08:28:20Z</time>
      </trkpt>
      <trkpt lat="59.9612895" lon="17.70607">
        <ele>29.4575</ele>
        <time>2012-09-30T08:28:21Z</time>
      </trkpt>
      <trkpt lat="59.961275" lon="17.7060292">
        <ele>29.4575</ele>
        <time>2012-09-30T08:28:22Z</time>
      </trkpt>
      <trkpt lat="59.9612584" lon="17.7059803">
        <ele>29.4575</ele>
        <time>2012-09-30T08:28:23Z</time>
      </trkpt>
      <trkpt lat="59.9612383" lon="17.7059285">
        <ele>28.9769</ele>
        <time>2012-09-30T08:28:24Z</time>
      </trkpt>
      <trkpt lat="59.9612242" lon="17.7058841">
        <ele>29.4575</ele>
        <time>2012-09-30T08:28:25Z</time>
      </trkpt>
      <trkpt lat="59.9612098" lon="17.7058499">
        <ele>29.9381</ele>
        <time>2012-09-30T08:28:26Z</time>
      </trkpt>
      <trkpt lat="59.9611942" lon="17.7058189">
        <ele>30.4188</ele>
        <time>2012-09-30T08:28:27Z</time>
      </trkpt>
      <trkpt lat="59.9611751" lon="17.705785">
        <ele>29.9381</ele>
        <time>2012-09-30T08:28:28Z</time>
      </trkpt>
      <trkpt lat="59.9611583" lon="17.7057562">
        <ele>29.4575</ele>
        <time>2012-09-30T08:28:29Z</time>
      </trkpt>
      <trkpt lat="59.9611404" lon="17.7057209">
        <ele>29.4575</ele>
        <time>2012-09-30T08:28:30Z</time>
      </trkpt>
      <trkpt lat="59.9611234" lon="17.705686">
        <ele>29.4575</ele>
        <time>2012-09-30T08:28:31Z</time>
      </trkpt>
      <trkpt lat="59.9611029" lon="17.7056552">
        <ele>28.4962</ele>
        <time>2012-09-30T08:28:32Z</time>
      </trkpt>
      <trkpt lat="59.9610861" lon="17.7056215">
        <ele>28.0155</ele>
        <time>2012-09-30T08:28:33Z</time>
      </trkpt>
      <trkpt lat="59.9610719" lon="17.7055873">
        <ele>28.0155</ele>
        <time>2012-09-30T08:28:34Z</time>
      </trkpt>
      <trkpt lat="59.9610555" lon="17.7055526">
        <ele>28.0155</ele>
        <time>2012-09-30T08:28:35Z</time>
      </trkpt>
      <trkpt lat="59.9610369" lon="17.7055163">
        <ele>27.0543</ele>
        <time>2012-09-30T08:28:36Z</time>
      </trkpt>
      <trkpt lat="59.9610203" lon="17.7054879">
        <ele>27.0543</ele>
        <time>2012-09-30T08:28:37Z</time>
      </trkpt>
      <trkpt lat="59.9610003" lon="17.7054614">
        <ele>27.5349</ele>
        <time>2012-09-30T08:28:38Z</time>
      </trkpt>
      <trkpt lat="59.9609824" lon="17.7054356">
        <ele>27.5349</ele>
        <time>2012-09-30T08:28:39Z</time>
      </trkpt>
      <trkpt lat="59.9609617" lon="17.7054066">
        <ele>27.5349</ele>
        <time>2012-09-30T08:28:40Z</time>
      </trkpt>
      <trkpt lat="59.9609424" lon="17.7053749">
        <ele>27.5349</ele>
        <time>2012-09-30T08:28:41Z</time>
      </trkpt>
      <trkpt lat="59.9609284" lon="17.7053514">
        <ele>28.0155</ele>
        <time>2012-09-30T08:28:42Z</time>
      </trkpt>
      <trkpt lat="59.9609032" lon="17.7053208">
        <ele>28.0155</ele>
        <time>2012-09-30T08:28:43Z</time>
      </trkpt>
      <trkpt lat="59.9608834" lon="17.7052879">
        <ele>28.0155</ele>
        <time>2012-09-30T08:28:44Z</time>
      </trkpt>
      <trkpt lat="59.9608637" lon="17.7052583">
        <ele>28.0155</ele>
        <time>2012-09-30T08:28:45Z</time>
      </trkpt>
      <trkpt lat="59.9608435" lon="17.7052312">
        <ele>28.4962</ele>
        <time>2012-09-30T08:28:46Z</time>
      </trkpt>
      <trkpt lat="59.960826" lon="17.7051962">
        <ele>28.0155</ele>
        <time>2012-09-30T08:28:47Z</time>
      </trkpt>
      <trkpt lat="59.9608083" lon="17.7051605">
        <ele>28.0155</ele>
        <time>2012-09-30T08:28:48Z</time>
      </trkpt>
      <trkpt lat="59.960784" lon="17.7051315">
        <ele>28.0155</ele>
        <time>2012-09-30T08:28:49Z</time>
      </trkpt>
      <trkpt lat="59.9607648" lon="17.7051017">
        <ele>28.4962</ele>
        <time>2012-09-30T08:28:50Z</time>
      </trkpt>
      <trkpt lat="59.9607499" lon="17.7050787">
        <ele>28.4962</ele>
        <time>2012-09-30T08:28:51Z</time>
      </trkpt>
      <trkpt lat="59.9607332" lon="17.7050534">
        <ele>28.9769</ele>
        <time>2012-09-30T08:28:52Z</time>
      </trkpt>
      <trkpt lat="59.960715" lon="17.7050319">
        <ele>28.9769</ele>
        <time>2012-09-30T08:28:53Z</time>
      </trkpt>
      <trkpt lat="59.9606942" lon="17.7050072">
        <ele>29.4575</ele>
        <time>2012-09-30T08:28:54Z</time>
      </trkpt>
      <trkpt lat="59.9606731" lon="17.7049857">
        <ele>29.9381</ele>
        <time>2012-09-30T08:28:55Z</time>
      </trkpt>
      <trkpt lat="59.9606528" lon="17.7049674">
        <ele>29.9381</ele>
        <time>2012-09-30T08:28:56Z</time>
      </trkpt>
      <trkpt lat="59.9606315" lon="17.7049434">
        <ele>30.4188</ele>
        <time>2012-09-30T08:28:57Z</time>
      </trkpt>
      <trkpt lat="59.9606109" lon="17.70492">
        <ele>30.4188</ele>
        <time>2012-09-30T08:28:58Z</time>
      </trkpt>
      <trkpt lat="59.9605881" lon="17.7048968">
        <ele>29.9381</ele>
        <time>2012-09-30T08:28:59Z</time>
      </trkpt>
      <trkpt lat="59.9605659" lon="17.7048713">
        <ele>30.4188</ele>
        <time>2012-09-30T08:29:00Z</time>
      </trkpt>
      <trkpt lat="59.9605431" lon="17.7048441">
        <ele>30.8995</ele>
        <time>2012-09-30T08:29:01Z</time>
      </trkpt>
      <trkpt lat="59.9605167" lon="17.7048222">
        <ele>31.3801</ele>
        <time>2012-09-30T08:29:02Z</time>
      </trkpt>
      <trkpt lat="59.9604887" lon="17.7047944">
        <ele>30.8995</ele>
        <time>2012-09-30T08:29:03Z</time>
      </trkpt>
      <trkpt lat="59.9604695" lon="17.7047657">
        <ele>31.3801</ele>
        <time>2012-09-30T08:29:04Z</time>
      </trkpt>
      <trkpt lat="59.9604513" lon="17.7047369">
        <ele>31.3801</ele>
        <time>2012-09-30T08:29:05Z</time>
      </trkpt>
      <trkpt lat="59.9604287" lon="17.7047118">
        <ele>31.3801</ele>
        <time>2012-09-30T08:29:06Z</time>
      </trkpt>
      <trkpt lat="59.9604016" lon="17.7046864">
        <ele>31.3801</ele>
        <time>2012-09-30T08:29:07Z</time>
      </trkpt>
      <trkpt lat="59.9603763" lon="17.7046616">
        <ele>32.3416</ele>
        <time>2012-09-30T08:29:08Z</time>
      </trkpt>
      <trkpt lat="59.9603508" lon="17.7046383">
        <ele>32.8223</ele>
        <time>2012-09-30T08:29:09Z</time>
      </trkpt>
      <trkpt lat="59.9603285" lon="17.7046103">
        <ele>32.8223</ele>
        <time>2012-09-30T08:29:10Z</time>
      </trkpt>
      <trkpt lat="59.9603048" lon="17.7045828">
        <ele>32.8223</ele>
        <time>2012-09-30T08:29:11Z</time>
      </trkpt>
      <trkpt lat="59.9602784" lon="17.704557">
        <ele>32.8223</ele>
        <time>2012-09-30T08:29:12Z</time>
      </trkpt>
      <trkpt lat="59.9602497" lon="17.7045295">
        <ele>33.3029</ele>
        <time>2012-09-30T08:29:13Z</time>
      </trkpt>
      <trkpt lat="59.9602256" lon="17.7045045">
        <ele>33.7834</ele>
        <time>2012-09-30T08:29:14Z</time>
      </trkpt>
      <trkpt lat="59.9602043" lon="17.7044729">
        <ele>34.2642</ele>
        <time>2012-09-30T08:29:15Z</time>
      </trkpt>
      <trkpt lat="59.9601872" lon="17.7044404">
        <ele>34.2642</ele>
        <time>2012-09-30T08:29:16Z</time>
      </trkpt>
      <trkpt lat="59.9601659" lon="17.7044094">
        <ele>34.2642</ele>
        <time>2012-09-30T08:29:17Z</time>
      </trkpt>
      <trkpt lat="59.9601472" lon="17.7043777">
        <ele>34.7449</ele>
        <time>2012-09-30T08:29:18Z</time>
      </trkpt>
      <trkpt lat="59.9601285" lon="17.7043458">
        <ele>34.7449</ele>
        <time>2012-09-30T08:29:19Z</time>
      </trkpt>
      <trkpt lat="59.9601084" lon="17.7043125">
        <ele>34.7449</ele>
        <time>2012-09-30T08:29:20Z</time>
      </trkpt>
      <trkpt lat="59.9600893" lon="17.7042774">
        <ele>35.2255</ele>
        <time>2012-09-30T08:29:21Z</time>
      </trkpt>
      <trkpt lat="59.9600702" lon="17.7042431">
        <ele>35.2255</ele>
        <time>2012-09-30T08:29:22Z</time>
      </trkpt>
      <trkpt lat="59.9600487" lon="17.7042092">
        <ele>35.2255</ele>
        <time>2012-09-30T08:29:23Z</time>
      </trkpt>
      <trkpt lat="59.9600256" lon="17.7041731">
        <ele>35.2255</ele>
        <time>2012-09-30T08:29:24Z</time>
      </trkpt>
      <trkpt lat="59.9600021" lon="17.7041362">
        <ele>34.7449</ele>
        <time>2012-09-30T08:29:25Z</time>
      </trkpt>
      <trkpt lat="59.9599794" lon="17.704097">
        <ele>34.7449</ele>
        <time>2012-09-30T08:29:26Z</time>
      </trkpt>
      <trkpt lat="59.9599566" lon="17.7040585">
        <ele>34.7449</ele>
        <time>2012-09-30T08:29:27Z</time>
      </trkpt>
      <trkpt lat="59.9599365" lon="17.7040194">
        <ele>34.2642</ele>
        <time>2012-09-30T08:29:28Z</time>
      </trkpt>
      <trkpt lat="59.9599237" lon="17.7039761">
        <ele>34.2642</ele>
        <time>2012-09-30T08:29:29Z</time>
      </trkpt>
      <trkpt lat="59.9599116" lon="17.7039307">
        <ele>34.2642</ele>
        <time>2012-09-30T08:29:30Z</time>
      </trkpt>
      <trkpt lat="59.9599004" lon="17.7038882">
        <ele>33.7834</ele>
        <time>2012-09-30T08:29:31Z</time>
      </trkpt>
      <trkpt lat="59.9598873" lon="17.7038435">
        <ele>33.7834</ele>
        <time>2012-09-30T08:29:32Z</time>
      </trkpt>
      <trkpt lat="59.9598697" lon="17.7038017">
        <ele>33.7834</ele>
        <time>2012-09-30T08:29:33Z</time>
      </trkpt>
      <trkpt lat="59.9598556" lon="17.7037614">
        <ele>33.3029</ele>
        <time>2012-09-30T08:29:34Z</time>
      </trkpt>
      <trkpt lat="59.959847" lon="17.7037235">
        <ele>32.8223</ele>
        <time>2012-09-30T08:29:35Z</time>
      </trkpt>
      <trkpt lat="59.959837" lon="17.7036876">
        <ele>32.8223</ele>
        <time>2012-09-30T08:29:36Z</time>
      </trkpt>
      <trkpt lat="59.9598281" lon="17.7036391">
        <ele>33.3029</ele>
        <time>2012-09-30T08:29:37Z</time>
      </trkpt>
      <trkpt lat="59.9598205" lon="17.7035915">
        <ele>33.3029</ele>
        <time>2012-09-30T08:29:38Z</time>
      </trkpt>
      <trkpt lat="59.9598097" lon="17.7035495">
        <ele>32.8223</ele>
        <time>2012-09-30T08:29:39Z</time>
      </trkpt>
      <trkpt lat="59.9597992" lon="17.7035073">
        <ele>32.3416</ele>
        <time>2012-09-30T08:29:40Z</time>
      </trkpt>
      <trkpt lat="59.9597858" lon="17.7034527">
        <ele>32.8223</ele>
        <time>2012-09-30T08:29:41Z</time>
      </trkpt>
      <trkpt lat="59.959771" lon="17.7034085">
        <ele>33.3029</ele>
        <time>2012-09-30T08:29:42Z</time>
      </trkpt>
      <trkpt lat="59.9597569" lon="17.7033744">
        <ele>32.8223</ele>
        <time>2012-09-30T08:29:43Z</time>
      </trkpt>
      <trkpt lat="59.9597397" lon="17.7033257">
        <ele>32.8223</ele>
        <time>2012-09-30T08:29:44Z</time>
      </trkpt>
      <trkpt lat="59.9597257" lon="17.7032807">
        <ele>32.8223</ele>
        <time>2012-09-30T08:29:45Z</time>
      </trkpt>
      <trkpt lat="59.9597169" lon="17.7032299">
        <ele>33.7834</ele>
        <time>2012-09-30T08:29:46Z</time>
      </trkpt>
      <trkpt lat="59.9597099" lon="17.7031822">
        <ele>33.3029</ele>
        <time>2012-09-30T08:29:47Z</time>
      </trkpt>
      <trkpt lat="59.9597033" lon="17.7031357">
        <ele>33.7834</ele>
        <time>2012-09-30T08:29:48Z</time>
      </trkpt>
      <trkpt lat="59.9597043" lon="17.7030948">
        <ele>34.2642</ele>
        <time>2012-09-30T08:29:49Z</time>
      </trkpt>
      <trkpt lat="59.959704" lon="17.7030461">
        <ele>34.2642</ele>
        <time>2012-09-30T08:29:50Z</time>
      </trkpt>
      <trkpt lat="59.9596921" lon="17.7030024">
        <ele>34.2642</ele>
        <time>2012-09-30T08:29:51Z</time>
      </trkpt>
      <trkpt lat="59.959678" lon="17.7029691">
        <ele>34.2642</ele>
        <time>2012-09-30T08:29:52Z</time>
      </trkpt>
      <trkpt lat="59.9596647" lon="17.7029397">
        <ele>34.7449</ele>
        <time>2012-09-30T08:29:53Z</time>
      </trkpt>
      <trkpt lat="59.9596501" lon="17.7029059">
        <ele>35.2255</ele>
        <time>2012-09-30T08:29:54Z</time>
      </trkpt>
      <trkpt lat="59.9596314" lon="17.7028584">
        <ele>35.7061</ele>
        <time>2012-09-30T08:29:55Z</time>
      </trkpt>
      <trkpt lat="59.9596048" lon="17.7028025">
        <ele>35.7061</ele>
        <time>2012-09-30T08:29:56Z</time>
      </trkpt>
      <trkpt lat="59.9595874" lon="17.702763">
        <ele>36.1868</ele>
        <time>2012-09-30T08:29:57Z</time>
      </trkpt>
      <trkpt lat="59.9595691" lon="17.7027191">
        <ele>37.1481</ele>
        <time>2012-09-30T08:29:58Z</time>
      </trkpt>
      <trkpt lat="59.9595532" lon="17.7026743">
        <ele>38.1094</ele>
        <time>2012-09-30T08:29:59Z</time>
      </trkpt>
      <trkpt lat="59.9595396" lon="17.7026277">
        <ele>39.0707</ele>
        <time>2012-09-30T08:30:00Z</time>
      </trkpt>
      <trkpt lat="59.9595258" lon="17.7025782">
        <ele>39.5513</ele>
        <time>2012-09-30T08:30:01Z</time>
      </trkpt>
      <trkpt lat="59.9595163" lon="17.7025308">
        <ele>40.5128</ele>
        <time>2012-09-30T08:30:02Z</time>
      </trkpt>
      <trkpt lat="59.959503" lon="17.7024829">
        <ele>40.9934</ele>
        <time>2012-09-30T08:30:03Z</time>
      </trkpt>
      <trkpt lat="59.9594905" lon="17.7024347">
        <ele>41.474</ele>
        <time>2012-09-30T08:30:04Z</time>
      </trkpt>
      <trkpt lat="59.9594779" lon="17.702387">
        <ele>41.474</ele>
        <time>2012-09-30T08:30:05Z</time>
      </trkpt>
      <trkpt lat="59.9594628" lon="17.7023368">
        <ele>41.9547</ele>
        <time>2012-09-30T08:30:06Z</time>
      </trkpt>
      <trkpt lat="59.9594458" lon="17.7022926">
        <ele>41.474</ele>
        <time>2012-09-30T08:30:07Z</time>
      </trkpt>
      <trkpt lat="59.9594247" lon="17.7022465">
        <ele>41.474</ele>
        <time>2012-09-30T08:30:08Z</time>
      </trkpt>
      <trkpt lat="59.9594071" lon="17.7022056">
        <ele>41.474</ele>
        <time>2012-09-30T08:30:09Z</time>
      </trkpt>
      <trkpt lat="59.9593858" lon="17.7021627">
        <ele>40.9934</ele>
        <time>2012-09-30T08:30:10Z</time>
      </trkpt>
      <trkpt lat="59.9593734" lon="17.7021211">
        <ele>40.9934</ele>
        <time>2012-09-30T08:30:11Z</time>
      </trkpt>
      <trkpt lat="59.9593652" lon="17.7020856">
        <ele>41.474</ele>
        <time>2012-09-30T08:30:12Z</time>
      </trkpt>
      <trkpt lat="59.9593566" lon="17.702043">
        <ele>40.9934</ele>
        <time>2012-09-30T08:30:13Z</time>
      </trkpt>
      <trkpt lat="59.9593479" lon="17.7020001">
        <ele>40.9934</ele>
        <time>2012-09-30T08:30:14Z</time>
      </trkpt>
      <trkpt lat="59.9593419" lon="17.7019702">
        <ele>40.5128</ele>
        <time>2012-09-30T08:30:15Z</time>
      </trkpt>
      <trkpt lat="59.9593318" lon="17.7019328">
        <ele>40.5128</ele>
        <time>2012-09-30T08:30:16Z</time>
      </trkpt>
      <trkpt lat="59.9593216" lon="17.7018898">
        <ele>40.5128</ele>
        <time>2012-09-30T08:30:17Z</time>
      </trkpt>
      <trkpt lat="59.9593166" lon="17.7018493">
        <ele>40.5128</ele>
        <time>2012-09-30T08:30:18Z</time>
      </trkpt>
      <trkpt lat="59.9593049" lon="17.7018087">
        <ele>40.5128</ele>
        <time>2012-09-30T08:30:19Z</time>
      </trkpt>
      <trkpt lat="59.9592879" lon="17.7017799">
        <ele>40.5128</ele>
        <time>2012-09-30T08:30:20Z</time>
      </trkpt>
      <trkpt lat="59.9592709" lon="17.7017416">
        <ele>40.5128</ele>
        <time>2012-09-30T08:30:21Z</time>
      </trkpt>
      <trkpt lat="59.9592605" lon="17.701694">
        <ele>40.5128</ele>
        <time>2012-09-30T08:30:22Z</time>
      </trkpt>
      <trkpt lat="59.9592491" lon="17.7016473">
        <ele>40.9934</ele>
        <time>2012-09-30T08:30:23Z</time>
      </trkpt>
      <trkpt lat="59.9592438" lon="17.7016008">
        <ele>40.9934</ele>
        <time>2012-09-30T08:30:24Z</time>
      </trkpt>
      <trkpt lat="59.9592336" lon="17.7015633">
        <ele>41.474</ele>
        <time>2012-09-30T08:30:25Z</time>
      </trkpt>
      <trkpt lat="59.9592242" lon="17.7015251">
        <ele>42.4354</ele>
        <time>2012-09-30T08:30:26Z</time>
      </trkpt>
      <trkpt lat="59.9592185" lon="17.7014754">
        <ele>42.916</ele>
        <time>2012-09-30T08:30:27Z</time>
      </trkpt>
      <trkpt lat="59.959216" lon="17.701427">
        <ele>43.8773</ele>
        <time>2012-09-30T08:30:28Z</time>
      </trkpt>
      <trkpt lat="59.9592196" lon="17.7013773">
        <ele>44.358</ele>
        <time>2012-09-30T08:30:29Z</time>
      </trkpt>
      <trkpt lat="59.9592233" lon="17.7013244">
        <ele>44.8386</ele>
        <time>2012-09-30T08:30:30Z</time>
      </trkpt>
      <trkpt lat="59.9592238" lon="17.7012809">
        <ele>44.8386</ele>
        <time>2012-09-30T08:30:31Z</time>
      </trkpt>
      <trkpt lat="59.9592204" lon="17.7012292">
        <ele>44.8386</ele>
        <time>2012-09-30T08:30:32Z</time>
      </trkpt>
      <trkpt lat="59.9592103" lon="17.7011735">
        <ele>44.358</ele>
        <time>2012-09-30T08:30:33Z</time>
      </trkpt>
      <trkpt lat="59.9592026" lon="17.7011213">
        <ele>43.3966</ele>
        <time>2012-09-30T08:30:34Z</time>
      </trkpt>
      <trkpt lat="59.9591925" lon="17.7010649">
        <ele>43.3966</ele>
        <time>2012-09-30T08:30:35Z</time>
      </trkpt>
      <trkpt lat="59.9591766" lon="17.7010066">
        <ele>42.916</ele>
        <time>2012-09-30T08:30:36Z</time>
      </trkpt>
      <trkpt lat="59.9591651" lon="17.7009609">
        <ele>41.9547</ele>
        <time>2012-09-30T08:30:37Z</time>
      </trkpt>
      <trkpt lat="59.9591568" lon="17.7009207">
        <ele>41.9547</ele>
        <time>2012-09-30T08:30:38Z</time>
      </trkpt>
      <trkpt lat="59.9591465" lon="17.7008768">
        <ele>40.9934</ele>
        <time>2012-09-30T08:30:39Z</time>
      </trkpt>
      <trkpt lat="59.9591368" lon="17.7008254">
        <ele>40.5128</ele>
        <time>2012-09-30T08:30:40Z</time>
      </trkpt>
      <trkpt lat="59.9591292" lon="17.7007751">
        <ele>40.5128</ele>
        <time>2012-09-30T08:30:41Z</time>
      </trkpt>
      <trkpt lat="59.9591258" lon="17.7007227">
        <ele>40.0321</ele>
        <time>2012-09-30T08:30:42Z</time>
      </trkpt>
      <trkpt lat="59.9591251" lon="17.7006683">
        <ele>39.5513</ele>
        <time>2012-09-30T08:30:43Z</time>
      </trkpt>
      <trkpt lat="59.9591256" lon="17.7006181">
        <ele>39.0707</ele>
        <time>2012-09-30T08:30:44Z</time>
      </trkpt>
      <trkpt lat="59.9591247" lon="17.7005671">
        <ele>39.0707</ele>
        <time>2012-09-30T08:30:45Z</time>
      </trkpt>
      <trkpt lat="59.9591202" lon="17.7005175">
        <ele>38.1094</ele>
        <time>2012-09-30T08:30:46Z</time>
      </trkpt>
      <trkpt lat="59.9591138" lon="17.7004694">
        <ele>37.6287</ele>
        <time>2012-09-30T08:30:47Z</time>
      </trkpt>
      <trkpt lat="59.9591101" lon="17.7004203">
        <ele>37.6287</ele>
        <time>2012-09-30T08:30:48Z</time>
      </trkpt>
      <trkpt lat="59.9591046" lon="17.7003725">
        <ele>37.1481</ele>
        <time>2012-09-30T08:30:49Z</time>
      </trkpt>
      <trkpt lat="59.9590978" lon="17.7003246">
        <ele>37.1481</ele>
        <time>2012-09-30T08:30:50Z</time>
      </trkpt>
      <trkpt lat="59.9590953" lon="17.7002765">
        <ele>37.1481</ele>
        <time>2012-09-30T08:30:51Z</time>
      </trkpt>
      <trkpt lat="59.9590915" lon="17.7002274">
        <ele>36.1868</ele>
        <time>2012-09-30T08:30:52Z</time>
      </trkpt>
      <trkpt lat="59.9590831" lon="17.7001749">
        <ele>36.1868</ele>
        <time>2012-09-30T08:30:53Z</time>
      </trkpt>
      <trkpt lat="59.9590776" lon="17.7001201">
        <ele>35.7061</ele>
        <time>2012-09-30T08:30:54Z</time>
      </trkpt>
      <trkpt lat="59.9590766" lon="17.7000603">
        <ele>35.2255</ele>
        <time>2012-09-30T08:30:55Z</time>
      </trkpt>
      <trkpt lat="59.9590735" lon="17.700004">
        <ele>34.7449</ele>
        <time>2012-09-30T08:30:56Z</time>
      </trkpt>
      <trkpt lat="59.9590688" lon="17.699948">
        <ele>34.7449</ele>
        <time>2012-09-30T08:30:57Z</time>
      </trkpt>
      <trkpt lat="59.9590679" lon="17.6998948">
        <ele>33.3029</ele>
        <time>2012-09-30T08:30:58Z</time>
      </trkpt>
      <trkpt lat="59.9590687" lon="17.6998369">
        <ele>33.3029</ele>
        <time>2012-09-30T08:30:59Z</time>
      </trkpt>
      <trkpt lat="59.9590651" lon="17.6997814">
        <ele>32.8223</ele>
        <time>2012-09-30T08:31:00Z</time>
      </trkpt>
      <trkpt lat="59.9590611" lon="17.6997208">
        <ele>32.3416</ele>
        <time>2012-09-30T08:31:01Z</time>
      </trkpt>
      <trkpt lat="59.9590552" lon="17.6996614">
        <ele>32.3416</ele>
        <time>2012-09-30T08:31:02Z</time>
      </trkpt>
      <trkpt lat="59.9590523" lon="17.6996117">
        <ele>31.8607</ele>
        <time>2012-09-30T08:31:03Z</time>
      </trkpt>
      <trkpt lat="59.9590508" lon="17.6995608">
        <ele>31.8607</ele>
        <time>2012-09-30T08:31:04Z</time>
      </trkpt>
      <trkpt lat="59.9590486" lon="17.6995115">
        <ele>31.8607</ele>
        <time>2012-09-30T08:31:05Z</time>
      </trkpt>
      <trkpt lat="59.959049" lon="17.699462">
        <ele>32.3416</ele>
        <time>2012-09-30T08:31:06Z</time>
      </trkpt>
      <trkpt lat="59.9590491" lon="17.6994126">
        <ele>31.3801</ele>
        <time>2012-09-30T08:31:07Z</time>
      </trkpt>
      <trkpt lat="59.9590464" lon="17.6993649">
        <ele>31.3801</ele>
        <time>2012-09-30T08:31:08Z</time>
      </trkpt>
      <trkpt lat="59.9590432" lon="17.6993178">
        <ele>31.3801</ele>
        <time>2012-09-30T08:31:09Z</time>
      </trkpt>
      <trkpt lat="59.9590398" lon="17.699271">
        <ele>31.3801</ele>
        <time>2012-09-30T08:31:10Z</time>
      </trkpt>
      <trkpt lat="59.9590332" lon="17.6992234">
        <ele>30.8995</ele>
        <time>2012-09-30T08:31:11Z</time>
      </trkpt>
      <trkpt lat="59.9590264" lon="17.69917">
        <ele>30.8995</ele>
        <time>2012-09-30T08:31:12Z</time>
      </trkpt>
      <trkpt lat="59.9590211" lon="17.6991214">
        <ele>30.4188</ele>
        <time>2012-09-30T08:31:13Z</time>
      </trkpt>
      <trkpt lat="59.9590169" lon="17.6990714">
        <ele>29.9381</ele>
        <time>2012-09-30T08:31:14Z</time>
      </trkpt>
      <trkpt lat="59.9590143" lon="17.6990208">
        <ele>29.9381</ele>
        <time>2012-09-30T08:31:15Z</time>
      </trkpt>
      <trkpt lat="59.9590116" lon="17.6989728">
        <ele>29.9381</ele>
        <time>2012-09-30T08:31:16Z</time>
      </trkpt>
      <trkpt lat="59.9590098" lon="17.6989273">
        <ele>29.9381</ele>
        <time>2012-09-30T08:31:17Z</time>
      </trkpt>
      <trkpt lat="59.9590093" lon="17.698883">
        <ele>29.4575</ele>
        <time>2012-09-30T08:31:18Z</time>
      </trkpt>
      <trkpt lat="59.9590085" lon="17.69884">
        <ele>29.4575</ele>
        <time>2012-09-30T08:31:19Z</time>
      </trkpt>
      <trkpt lat="59.9590068" lon="17.6987913">
        <ele>29.4575</ele>
        <time>2012-09-30T08:31:20Z</time>
      </trkpt>
      <trkpt lat="59.9590041" lon="17.6987413">
        <ele>29.4575</ele>
        <time>2012-09-30T08:31:21Z</time>
      </trkpt>
      <trkpt lat="59.9590049" lon="17.6986967">
        <ele>28.9769</ele>
        <time>2012-09-30T08:31:22Z</time>
      </trkpt>
      <trkpt lat="59.9590041" lon="17.698645">
        <ele>28.9769</ele>
        <time>2012-09-30T08:31:23Z</time>
      </trkpt>
      <trkpt lat="59.9590021" lon="17.6985951">
        <ele>29.4575</ele>
        <time>2012-09-30T08:31:24Z</time>
      </trkpt>
      <trkpt lat="59.9589983" lon="17.6985458">
        <ele>28.9769</ele>
        <time>2012-09-30T08:31:25Z</time>
      </trkpt>
      <trkpt lat="59.9589947" lon="17.6984894">
        <ele>29.4575</ele>
        <time>2012-09-30T08:31:26Z</time>
      </trkpt>
      <trkpt lat="59.9589904" lon="17.6984294">
        <ele>29.4575</ele>
        <time>2012-09-30T08:31:27Z</time>
      </trkpt>
      <trkpt lat="59.9589835" lon="17.6983606">
        <ele>29.9381</ele>
        <time>2012-09-30T08:31:28Z</time>
      </trkpt>
      <trkpt lat="59.9589824" lon="17.6983018">
        <ele>29.9381</ele>
        <time>2012-09-30T08:31:29Z</time>
      </trkpt>
      <trkpt lat="59.958979" lon="17.6982544">
        <ele>29.9381</ele>
        <time>2012-09-30T08:31:30Z</time>
      </trkpt>
      <trkpt lat="59.958971" lon="17.6982036">
        <ele>29.4575</ele>
        <time>2012-09-30T08:31:31Z</time>
      </trkpt>
      <trkpt lat="59.9589662" lon="17.6981482">
        <ele>28.4962</ele>
        <time>2012-09-30T08:31:32Z</time>
      </trkpt>
      <trkpt lat="59.9589636" lon="17.6980995">
        <ele>28.9769</ele>
        <time>2012-09-30T08:31:33Z</time>
      </trkpt>
      <trkpt lat="59.9589595" lon="17.6980509">
        <ele>28.9769</ele>
        <time>2012-09-30T08:31:34Z</time>
      </trkpt>
      <trkpt lat="59.9589574" lon="17.6980036">
        <ele>28.4962</ele>
        <time>2012-09-30T08:31:35Z</time>
      </trkpt>
      <trkpt lat="59.9589545" lon="17.697957">
        <ele>28.9769</ele>
        <time>2012-09-30T08:31:36Z</time>
      </trkpt>
      <trkpt lat="59.9589528" lon="17.6979147">
        <ele>29.4575</ele>
        <time>2012-09-30T08:31:37Z</time>
      </trkpt>
      <trkpt lat="59.9589488" lon="17.697866">
        <ele>29.4575</ele>
        <time>2012-09-30T08:31:38Z</time>
      </trkpt>
      <trkpt lat="59.9589443" lon="17.6978183">
        <ele>28.9769</ele>
        <time>2012-09-30T08:31:39Z</time>
      </trkpt>
      <trkpt lat="59.9589348" lon="17.6977658">
        <ele>28.4962</ele>
        <time>2012-09-30T08:31:40Z</time>
      </trkpt>
      <trkpt lat="59.9589253" lon="17.6977123">
        <ele>27.0543</ele>
        <time>2012-09-30T08:31:41Z</time>
      </trkpt>
      <trkpt lat="59.9589124" lon="17.6976679">
        <ele>26.5736</ele>
        <time>2012-09-30T08:31:42Z</time>
      </trkpt>
      <trkpt lat="59.9588995" lon="17.6976336">
        <ele>26.0929</ele>
        <time>2012-09-30T08:31:43Z</time>
      </trkpt>
      <trkpt lat="59.9588878" lon="17.6975819">
        <ele>25.1317</ele>
        <time>2012-09-30T08:31:44Z</time>
      </trkpt>
      <trkpt lat="59.9588803" lon="17.6975339">
        <ele>25.1317</ele>
        <time>2012-09-30T08:31:45Z</time>
      </trkpt>
      <trkpt lat="59.9588737" lon="17.6974929">
        <ele>24.651</ele>
        <time>2012-09-30T08:31:46Z</time>
      </trkpt>
      <trkpt lat="59.958862" lon="17.6974437">
        <ele>24.1703</ele>
        <time>2012-09-30T08:31:47Z</time>
      </trkpt>
      <trkpt lat="59.9588495" lon="17.6973913">
        <ele>23.6896</ele>
        <time>2012-09-30T08:31:48Z</time>
      </trkpt>
      <trkpt lat="59.9588394" lon="17.6973431">
        <ele>23.209</ele>
        <time>2012-09-30T08:31:49Z</time>
      </trkpt>
      <trkpt lat="59.9588306" lon="17.6972943">
        <ele>23.209</ele>
        <time>2012-09-30T08:31:50Z</time>
      </trkpt>
      <trkpt lat="59.9588221" lon="17.6972495">
        <ele>23.209</ele>
        <time>2012-09-30T08:31:51Z</time>
      </trkpt>
      <trkpt lat="59.9588124" lon="17.6972127">
        <ele>22.7283</ele>
        <time>2012-09-30T08:31:52Z</time>
      </trkpt>
      <trkpt lat="59.9588025" lon="17.697165">
        <ele>22.7283</ele>
        <time>2012-09-30T08:31:53Z</time>
      </trkpt>
      <trkpt lat="59.9587979" lon="17.6971169">
        <ele>22.7283</ele>
        <time>2012-09-30T08:31:54Z</time>
      </trkpt>
      <trkpt lat="59.9587922" lon="17.6970721">
        <ele>22.2476</ele>
        <time>2012-09-30T08:31:55Z</time>
      </trkpt>
      <trkpt lat="59.9587822" lon="17.6970348">
        <ele>22.7283</ele>
        <time>2012-09-30T08:31:56Z</time>
      </trkpt>
      <trkpt lat="59.9587658" lon="17.6970127">
        <ele>22.2476</ele>
        <time>2012-09-30T08:31:57Z</time>
      </trkpt>
      <trkpt lat="59.9587399" lon="17.697003">
        <ele>22.2476</ele>
        <time>2012-09-30T08:31:58Z</time>
      </trkpt>
      <trkpt lat="59.9587172" lon="17.6969821">
        <ele>22.2476</ele>
        <time>2012-09-30T08:31:59Z</time>
      </trkpt>
      <trkpt lat="59.958697" lon="17.6969521">
        <ele>22.7283</ele>
        <time>2012-09-30T08:32:00Z</time>
      </trkpt>
      <trkpt lat="59.9586823" lon="17.6969125">
        <ele>22.7283</ele>
        <time>2012-09-30T08:32:01Z</time>
      </trkpt>
      <trkpt lat="59.958671" lon="17.6968731">
        <ele>23.209</ele>
        <time>2012-09-30T08:32:02Z</time>
      </trkpt>
      <trkpt lat="59.9586574" lon="17.6968354">
        <ele>23.209</ele>
        <time>2012-09-30T08:32:03Z</time>
      </trkpt>
      <trkpt lat="59.9586423" lon="17.6967936">
        <ele>23.6896</ele>
        <time>2012-09-30T08:32:04Z</time>
      </trkpt>
      <trkpt lat="59.9586275" lon="17.6967484">
        <ele>24.1703</ele>
        <time>2012-09-30T08:32:05Z</time>
      </trkpt>
      <trkpt lat="59.9586099" lon="17.6967095">
        <ele>24.651</ele>
        <time>2012-09-30T08:32:06Z</time>
      </trkpt>
      <trkpt lat="59.9585917" lon="17.6966667">
        <ele>25.1317</ele>
        <time>2012-09-30T08:32:07Z</time>
      </trkpt>
      <trkpt lat="59.958577" lon="17.6966235">
        <ele>25.6123</ele>
        <time>2012-09-30T08:32:08Z</time>
      </trkpt>
      <trkpt lat="59.9585633" lon="17.6965776">
        <ele>26.0929</ele>
        <time>2012-09-30T08:32:09Z</time>
      </trkpt>
      <trkpt lat="59.9585496" lon="17.6965328">
        <ele>27.0543</ele>
        <time>2012-09-30T08:32:10Z</time>
      </trkpt>
      <trkpt lat="59.9585384" lon="17.6964901">
        <ele>27.5349</ele>
        <time>2012-09-30T08:32:11Z</time>
      </trkpt>
      <trkpt lat="59.958526" lon="17.6964521">
        <ele>27.5349</ele>
        <time>2012-09-30T08:32:12Z</time>
      </trkpt>
      <trkpt lat="59.9585088" lon="17.6964096">
        <ele>28.0155</ele>
        <time>2012-09-30T08:32:13Z</time>
      </trkpt>
      <trkpt lat="59.9584905" lon="17.6963585">
        <ele>28.4962</ele>
        <time>2012-09-30T08:32:14Z</time>
      </trkpt>
      <trkpt lat="59.9584745" lon="17.6963093">
        <ele>28.9769</ele>
        <time>2012-09-30T08:32:15Z</time>
      </trkpt>
      <trkpt lat="59.9584597" lon="17.6962595">
        <ele>29.4575</ele>
        <time>2012-09-30T08:32:16Z</time>
      </trkpt>
      <trkpt lat="59.9584425" lon="17.696206">
        <ele>29.9381</ele>
        <time>2012-09-30T08:32:17Z</time>
      </trkpt>
      <trkpt lat="59.9584253" lon="17.696155">
        <ele>30.4188</ele>
        <time>2012-09-30T08:32:18Z</time>
      </trkpt>
      <trkpt lat="59.9584115" lon="17.6961094">
        <ele>30.4188</ele>
        <time>2012-09-30T08:32:19Z</time>
      </trkpt>
      <trkpt lat="59.9583994" lon="17.6960687">
        <ele>30.8995</ele>
        <time>2012-09-30T08:32:20Z</time>
      </trkpt>
      <trkpt lat="59.9583846" lon="17.6960336">
        <ele>30.8995</ele>
        <time>2012-09-30T08:32:21Z</time>
      </trkpt>
      <trkpt lat="59.958368" lon="17.6959984">
        <ele>31.3801</ele>
        <time>2012-09-30T08:32:22Z</time>
      </trkpt>
      <trkpt lat="59.9583623" lon="17.6959651">
        <ele>31.8607</ele>
        <time>2012-09-30T08:32:23Z</time>
      </trkpt>
      <trkpt lat="59.9583502" lon="17.6959257">
        <ele>31.8607</ele>
        <time>2012-09-30T08:32:24Z</time>
      </trkpt>
      <trkpt lat="59.9583359" lon="17.6958875">
        <ele>31.8607</ele>
        <time>2012-09-30T08:32:25Z</time>
      </trkpt>
      <trkpt lat="59.9583212" lon="17.6958529">
        <ele>31.8607</ele>
        <time>2012-09-30T08:32:26Z</time>
      </trkpt>
      <trkpt lat="59.9583035" lon="17.6958109">
        <ele>32.3416</ele>
        <time>2012-09-30T08:32:27Z</time>
      </trkpt>
      <trkpt lat="59.958289" lon="17.6957729">
        <ele>31.8607</ele>
        <time>2012-09-30T08:32:28Z</time>
      </trkpt>
      <trkpt lat="59.9582725" lon="17.6957368">
        <ele>32.8223</ele>
        <time>2012-09-30T08:32:29Z</time>
      </trkpt>
      <trkpt lat="59.9582593" lon="17.6956995">
        <ele>32.8223</ele>
        <time>2012-09-30T08:32:30Z</time>
      </trkpt>
      <trkpt lat="59.9582436" lon="17.6956524">
        <ele>32.8223</ele>
        <time>2012-09-30T08:32:31Z</time>
      </trkpt>
      <trkpt lat="59.958226" lon="17.6956118">
        <ele>32.8223</ele>
        <time>2012-09-30T08:32:32Z</time>
      </trkpt>
      <trkpt lat="59.9582126" lon="17.6955777">
        <ele>32.8223</ele>
        <time>2012-09-30T08:32:33Z</time>
      </trkpt>
      <trkpt lat="59.9581965" lon="17.6955334">
        <ele>33.3029</ele>
        <time>2012-09-30T08:32:34Z</time>
      </trkpt>
      <trkpt lat="59.9581815" lon="17.6954923">
        <ele>33.3029</ele>
        <time>2012-09-30T08:32:35Z</time>
      </trkpt>
      <trkpt lat="59.9581645" lon="17.6954539">
        <ele>33.3029</ele>
        <time>2012-09-30T08:32:36Z</time>
      </trkpt>
      <trkpt lat="59.9581514" lon="17.6954157">
        <ele>33.3029</ele>
        <time>2012-09-30T08:32:37Z</time>
      </trkpt>
      <trkpt lat="59.9581312" lon="17.6953726">
        <ele>32.8223</ele>
        <time>2012-09-30T08:32:38Z</time>
      </trkpt>
      <trkpt lat="59.9581072" lon="17.6953281">
        <ele>32.8223</ele>
        <time>2012-09-30T08:32:39Z</time>
      </trkpt>
      <trkpt lat="59.958088" lon="17.6952955">
        <ele>32.8223</ele>
        <time>2012-09-30T08:32:40Z</time>
      </trkpt>
      <trkpt lat="59.9580712" lon="17.6952699">
        <ele>32.3416</ele>
        <time>2012-09-30T08:32:41Z</time>
      </trkpt>
      <trkpt lat="59.9580611" lon="17.6952409">
        <ele>32.8223</ele>
        <time>2012-09-30T08:32:42Z</time>
      </trkpt>
      <trkpt lat="59.958054" lon="17.6952106">
        <ele>32.8223</ele>
        <time>2012-09-30T08:32:43Z</time>
      </trkpt>
      <trkpt lat="59.9580412" lon="17.6951758">
        <ele>32.8223</ele>
        <time>2012-09-30T08:32:44Z</time>
      </trkpt>
      <trkpt lat="59.9580292" lon="17.695137">
        <ele>32.8223</ele>
        <time>2012-09-30T08:32:45Z</time>
      </trkpt>
      <trkpt lat="59.9580183" lon="17.6950998">
        <ele>32.3416</ele>
        <time>2012-09-30T08:32:46Z</time>
      </trkpt>
      <trkpt lat="59.9580093" lon="17.6950721">
        <ele>32.8223</ele>
        <time>2012-09-30T08:32:47Z</time>
      </trkpt>
      <trkpt lat="59.9580007" lon="17.6950422">
        <ele>33.3029</ele>
        <time>2012-09-30T08:32:48Z</time>
      </trkpt>
      <trkpt lat="59.9579915" lon="17.6950076">
        <ele>32.8223</ele>
        <time>2012-09-30T08:32:49Z</time>
      </trkpt>
      <trkpt lat="59.9579821" lon="17.6949697">
        <ele>32.8223</ele>
        <time>2012-09-30T08:32:50Z</time>
      </trkpt>
      <trkpt lat="59.9579727" lon="17.6949333">
        <ele>32.8223</ele>
        <time>2012-09-30T08:32:51Z</time>
      </trkpt>
      <trkpt lat="59.9579708" lon="17.6949008">
        <ele>33.7834</ele>
        <time>2012-09-30T08:32:52Z</time>
      </trkpt>
      <trkpt lat="59.957966" lon="17.6948685">
        <ele>33.7834</ele>
        <time>2012-09-30T08:32:53Z</time>
      </trkpt>
      <trkpt lat="59.957951" lon="17.6948296">
        <ele>34.7449</ele>
        <time>2012-09-30T08:32:54Z</time>
      </trkpt>
      <trkpt lat="59.9579363" lon="17.6947898">
        <ele>34.7449</ele>
        <time>2012-09-30T08:32:55Z</time>
      </trkpt>
      <trkpt lat="59.9579218" lon="17.6947505">
        <ele>35.2255</ele>
        <time>2012-09-30T08:32:56Z</time>
      </trkpt>
      <trkpt lat="59.9579041" lon="17.6947076">
        <ele>35.2255</ele>
        <time>2012-09-30T08:32:57Z</time>
      </trkpt>
      <trkpt lat="59.9578904" lon="17.6946655">
        <ele>35.2255</ele>
        <time>2012-09-30T08:32:58Z</time>
      </trkpt>
      <trkpt lat="59.9578805" lon="17.6946273">
        <ele>35.7061</ele>
        <time>2012-09-30T08:32:59Z</time>
      </trkpt>
      <trkpt lat="59.9578681" lon="17.69459">
        <ele>35.7061</ele>
        <time>2012-09-30T08:33:00Z</time>
      </trkpt>
      <trkpt lat="59.957852" lon="17.6945506">
        <ele>35.7061</ele>
        <time>2012-09-30T08:33:01Z</time>
      </trkpt>
      <trkpt lat="59.9578366" lon="17.6945148">
        <ele>35.7061</ele>
        <time>2012-09-30T08:33:02Z</time>
      </trkpt>
      <trkpt lat="59.9578229" lon="17.6944801">
        <ele>35.2255</ele>
        <time>2012-09-30T08:33:03Z</time>
      </trkpt>
      <trkpt lat="59.9578094" lon="17.6944393">
        <ele>35.7061</ele>
        <time>2012-09-30T08:33:04Z</time>
      </trkpt>
      <trkpt lat="59.9577966" lon="17.6943993">
        <ele>35.7061</ele>
        <time>2012-09-30T08:33:05Z</time>
      </trkpt>
      <trkpt lat="59.9577857" lon="17.6943605">
        <ele>36.1868</ele>
        <time>2012-09-30T08:33:06Z</time>
      </trkpt>
      <trkpt lat="59.9577814" lon="17.6943184">
        <ele>36.1868</ele>
        <time>2012-09-30T08:33:07Z</time>
      </trkpt>
      <trkpt lat="59.9577806" lon="17.6942819">
        <ele>36.1868</ele>
        <time>2012-09-30T08:33:08Z</time>
      </trkpt>
      <trkpt lat="59.9577708" lon="17.6942449">
        <ele>36.1868</ele>
        <time>2012-09-30T08:33:09Z</time>
      </trkpt>
      <trkpt lat="59.9577548" lon="17.6942005">
        <ele>36.1868</ele>
        <time>2012-09-30T08:33:10Z</time>
      </trkpt>
      <trkpt lat="59.9577387" lon="17.69416">
        <ele>36.6675</ele>
        <time>2012-09-30T08:33:11Z</time>
      </trkpt>
      <trkpt lat="59.9577257" lon="17.6941235">
        <ele>36.6675</ele>
        <time>2012-09-30T08:33:12Z</time>
      </trkpt>
      <trkpt lat="59.9577109" lon="17.6940819">
        <ele>36.6675</ele>
        <time>2012-09-30T08:33:13Z</time>
      </trkpt>
      <trkpt lat="59.9576956" lon="17.6940409">
        <ele>36.6675</ele>
        <time>2012-09-30T08:33:14Z</time>
      </trkpt>
      <trkpt lat="59.9576796" lon="17.6940016">
        <ele>36.6675</ele>
        <time>2012-09-30T08:33:15Z</time>
      </trkpt>
      <trkpt lat="59.9576653" lon="17.6939568">
        <ele>36.1868</ele>
        <time>2012-09-30T08:33:16Z</time>
      </trkpt>
      <trkpt lat="59.9576506" lon="17.6939107">
        <ele>35.7061</ele>
        <time>2012-09-30T08:33:17Z</time>
      </trkpt>
      <trkpt lat="59.9576372" lon="17.6938689">
        <ele>36.1868</ele>
        <time>2012-09-30T08:33:18Z</time>
      </trkpt>
      <trkpt lat="59.9576262" lon="17.6938215">
        <ele>35.7061</ele>
        <time>2012-09-30T08:33:19Z</time>
      </trkpt>
      <trkpt lat="59.9576154" lon="17.6937757">
        <ele>35.7061</ele>
        <time>2012-09-30T08:33:20Z</time>
      </trkpt>
      <trkpt lat="59.9576043" lon="17.6937337">
        <ele>35.7061</ele>
        <time>2012-09-30T08:33:21Z</time>
      </trkpt>
      <trkpt lat="59.9575908" lon="17.6936829">
        <ele>35.2255</ele>
        <time>2012-09-30T08:33:22Z</time>
      </trkpt>
      <trkpt lat="59.957581" lon="17.6936347">
        <ele>35.2255</ele>
        <time>2012-09-30T08:33:23Z</time>
      </trkpt>
      <trkpt lat="59.9575685" lon="17.6935924">
        <ele>34.7449</ele>
        <time>2012-09-30T08:33:24Z</time>
      </trkpt>
      <trkpt lat="59.957555" lon="17.6935488">
        <ele>34.7449</ele>
        <time>2012-09-30T08:33:25Z</time>
      </trkpt>
      <trkpt lat="59.9575308" lon="17.6934944">
        <ele>35.2255</ele>
        <time>2012-09-30T08:33:26Z</time>
      </trkpt>
      <trkpt lat="59.9575127" lon="17.6934439">
        <ele>35.2255</ele>
        <time>2012-09-30T08:33:27Z</time>
      </trkpt>
      <trkpt lat="59.9575011" lon="17.6934017">
        <ele>35.7061</ele>
        <time>2012-09-30T08:33:28Z</time>
      </trkpt>
      <trkpt lat="59.9574955" lon="17.6933643">
        <ele>35.2255</ele>
        <time>2012-09-30T08:33:29Z</time>
      </trkpt>
      <trkpt lat="59.9574847" lon="17.6933291">
        <ele>35.2255</ele>
        <time>2012-09-30T08:33:30Z</time>
      </trkpt>
      <trkpt lat="59.9574665" lon="17.6932856">
        <ele>35.7061</ele>
        <time>2012-09-30T08:33:31Z</time>
      </trkpt>
      <trkpt lat="59.9574478" lon="17.6932464">
        <ele>35.7061</ele>
        <time>2012-09-30T08:33:32Z</time>
      </trkpt>
      <trkpt lat="59.9574287" lon="17.6932093">
        <ele>35.2255</ele>
        <time>2012-09-30T08:33:33Z</time>
      </trkpt>
      <trkpt lat="59.9574128" lon="17.6931721">
        <ele>35.2255</ele>
        <time>2012-09-30T08:33:34Z</time>
      </trkpt>
      <trkpt lat="59.9573929" lon="17.693136">
        <ele>35.2255</ele>
        <time>2012-09-30T08:33:35Z</time>
      </trkpt>
      <trkpt lat="59.9573701" lon="17.6931001">
        <ele>35.2255</ele>
        <time>2012-09-30T08:33:36Z</time>
      </trkpt>
      <trkpt lat="59.9573502" lon="17.6930622">
        <ele>35.2255</ele>
        <time>2012-09-30T08:33:37Z</time>
      </trkpt>
      <trkpt lat="59.9573281" lon="17.6930266">
        <ele>35.2255</ele>
        <time>2012-09-30T08:33:38Z</time>
      </trkpt>
      <trkpt lat="59.9573077" lon="17.6929905">
        <ele>35.2255</ele>
        <time>2012-09-30T08:33:39Z</time>
      </trkpt>
      <trkpt lat="59.9572891" lon="17.6929606">
        <ele>35.2255</ele>
        <time>2012-09-30T08:33:40Z</time>
      </trkpt>
      <trkpt lat="59.9572708" lon="17.6929319">
        <ele>35.2255</ele>
        <time>2012-09-30T08:33:41Z</time>
      </trkpt>
      <trkpt lat="59.9572568" lon="17.6928981">
        <ele>35.2255</ele>
        <time>2012-09-30T08:33:42Z</time>
      </trkpt>
      <trkpt lat="59.9572409" lon="17.6928698">
        <ele>35.2255</ele>
        <time>2012-09-30T08:33:43Z</time>
      </trkpt>
      <trkpt lat="59.9572232" lon="17.6928453">
        <ele>34.7449</ele>
        <time>2012-09-30T08:33:44Z</time>
      </trkpt>
      <trkpt lat="59.9572043" lon="17.6928099">
        <ele>34.7449</ele>
        <time>2012-09-30T08:33:45Z</time>
      </trkpt>
      <trkpt lat="59.9571947" lon="17.6927842">
        <ele>34.7449</ele>
        <time>2012-09-30T08:33:46Z</time>
      </trkpt>
      <trkpt lat="59.957178" lon="17.6927589">
        <ele>34.2642</ele>
        <time>2012-09-30T08:33:47Z</time>
      </trkpt>
      <trkpt lat="59.9571636" lon="17.6927192">
        <ele>33.7834</ele>
        <time>2012-09-30T08:33:48Z</time>
      </trkpt>
      <trkpt lat="59.9571504" lon="17.6926776">
        <ele>33.3029</ele>
        <time>2012-09-30T08:33:49Z</time>
      </trkpt>
      <trkpt lat="59.9571342" lon="17.6926361">
        <ele>33.3029</ele>
        <time>2012-09-30T08:33:50Z</time>
      </trkpt>
      <trkpt lat="59.9571119" lon="17.6925866">
        <ele>33.3029</ele>
        <time>2012-09-30T08:33:51Z</time>
      </trkpt>
      <trkpt lat="59.9570935" lon="17.6925418">
        <ele>32.8223</ele>
        <time>2012-09-30T08:33:52Z</time>
      </trkpt>
      <trkpt lat="59.9570781" lon="17.6925004">
        <ele>32.8223</ele>
        <time>2012-09-30T08:33:53Z</time>
      </trkpt>
      <trkpt lat="59.957061" lon="17.6924578">
        <ele>31.8607</ele>
        <time>2012-09-30T08:33:54Z</time>
      </trkpt>
      <trkpt lat="59.9570448" lon="17.6924148">
        <ele>31.3801</ele>
        <time>2012-09-30T08:33:55Z</time>
      </trkpt>
      <trkpt lat="59.9570313" lon="17.692373">
        <ele>31.3801</ele>
        <time>2012-09-30T08:33:56Z</time>
      </trkpt>
      <trkpt lat="59.9570191" lon="17.6923329">
        <ele>31.3801</ele>
        <time>2012-09-30T08:33:57Z</time>
      </trkpt>
      <trkpt lat="59.9570055" lon="17.6922957">
        <ele>30.8995</ele>
        <time>2012-09-30T08:33:58Z</time>
      </trkpt>
      <trkpt lat="59.9569896" lon="17.6922543">
        <ele>31.3801</ele>
        <time>2012-09-30T08:33:59Z</time>
      </trkpt>
      <trkpt lat="59.9569735" lon="17.6922134">
        <ele>30.8995</ele>
        <time>2012-09-30T08:34:00Z</time>
      </trkpt>
      <trkpt lat="59.9569601" lon="17.6921771">
        <ele>30.8995</ele>
        <time>2012-09-30T08:34:01Z</time>
      </trkpt>
      <trkpt lat="59.9569474" lon="17.6921365">
        <ele>30.8995</ele>
        <time>2012-09-30T08:34:02Z</time>
      </trkpt>
      <trkpt lat="59.9569319" lon="17.6920929">
        <ele>30.8995</ele>
        <time>2012-09-30T08:34:03Z</time>
      </trkpt>
      <trkpt lat="59.9569226" lon="17.6920569">
        <ele>30.4188</ele>
        <time>2012-09-30T08:34:04Z</time>
      </trkpt>
      <trkpt lat="59.9569125" lon="17.692016">
        <ele>30.4188</ele>
        <time>2012-09-30T08:34:05Z</time>
      </trkpt>
      <trkpt lat="59.9568989" lon="17.6919729">
        <ele>30.4188</ele>
        <time>2012-09-30T08:34:06Z</time>
      </trkpt>
      <trkpt lat="59.9568832" lon="17.6919309">
        <ele>30.4188</ele>
        <time>2012-09-30T08:34:07Z</time>
      </trkpt>
      <trkpt lat="59.9568699" lon="17.6918849">
        <ele>29.9381</ele>
        <time>2012-09-30T08:34:08Z</time>
      </trkpt>
      <trkpt lat="59.9568601" lon="17.6918398">
        <ele>29.9381</ele>
        <time>2012-09-30T08:34:09Z</time>
      </trkpt>
      <trkpt lat="59.9568492" lon="17.6917901">
        <ele>29.9381</ele>
        <time>2012-09-30T08:34:10Z</time>
      </trkpt>
      <trkpt lat="59.9568372" lon="17.6917362">
        <ele>29.9381</ele>
        <time>2012-09-30T08:34:11Z</time>
      </trkpt>
      <trkpt lat="59.9568263" lon="17.6916886">
        <ele>29.9381</ele>
        <time>2012-09-30T08:34:12Z</time>
      </trkpt>
      <trkpt lat="59.9568165" lon="17.6916446">
        <ele>29.9381</ele>
        <time>2012-09-30T08:34:13Z</time>
      </trkpt>
      <trkpt lat="59.9568102" lon="17.6916036">
        <ele>29.9381</ele>
        <time>2012-09-30T08:34:14Z</time>
      </trkpt>
      <trkpt lat="59.956808" lon="17.6915663">
        <ele>29.9381</ele>
        <time>2012-09-30T08:34:15Z</time>
      </trkpt>
      <trkpt lat="59.9568006" lon="17.6915161">
        <ele>29.4575</ele>
        <time>2012-09-30T08:34:16Z</time>
      </trkpt>
      <trkpt lat="59.9567936" lon="17.6914587">
        <ele>29.4575</ele>
        <time>2012-09-30T08:34:17Z</time>
      </trkpt>
      <trkpt lat="59.9567927" lon="17.6914032">
        <ele>28.9769</ele>
        <time>2012-09-30T08:34:18Z</time>
      </trkpt>
      <trkpt lat="59.9567875" lon="17.6913563">
        <ele>29.4575</ele>
        <time>2012-09-30T08:34:19Z</time>
      </trkpt>
      <trkpt lat="59.9567664" lon="17.6912932">
        <ele>29.4575</ele>
        <time>2012-09-30T08:34:20Z</time>
      </trkpt>
      <trkpt lat="59.956745" lon="17.691236">
        <ele>29.9381</ele>
        <time>2012-09-30T08:34:21Z</time>
      </trkpt>
      <trkpt lat="59.9567391" lon="17.6911991">
        <ele>29.4575</ele>
        <time>2012-09-30T08:34:22Z</time>
      </trkpt>
      <trkpt lat="59.9567303" lon="17.6911675">
        <ele>28.4962</ele>
        <time>2012-09-30T08:34:23Z</time>
      </trkpt>
      <trkpt lat="59.9567129" lon="17.6911354">
        <ele>28.4962</ele>
        <time>2012-09-30T08:34:24Z</time>
      </trkpt>
      <trkpt lat="59.9566943" lon="17.6910955">
        <ele>28.4962</ele>
        <time>2012-09-30T08:34:25Z</time>
      </trkpt>
      <trkpt lat="59.9566752" lon="17.6910543">
        <ele>28.0155</ele>
        <time>2012-09-30T08:34:26Z</time>
      </trkpt>
      <trkpt lat="59.9566487" lon="17.6910006">
        <ele>27.5349</ele>
        <time>2012-09-30T08:34:27Z</time>
      </trkpt>
      <trkpt lat="59.9566254" lon="17.6909519">
        <ele>27.0543</ele>
        <time>2012-09-30T08:34:28Z</time>
      </trkpt>
      <trkpt lat="59.9566052" lon="17.6909055">
        <ele>27.0543</ele>
        <time>2012-09-30T08:34:29Z</time>
      </trkpt>
      <trkpt lat="59.9565911" lon="17.6908738">
        <ele>27.0543</ele>
        <time>2012-09-30T08:34:30Z</time>
      </trkpt>
      <trkpt lat="59.9565754" lon="17.6908368">
        <ele>27.0543</ele>
        <time>2012-09-30T08:34:31Z</time>
      </trkpt>
      <trkpt lat="59.9565636" lon="17.690801">
        <ele>26.5736</ele>
        <time>2012-09-30T08:34:32Z</time>
      </trkpt>
      <trkpt lat="59.9565544" lon="17.6907728">
        <ele>26.5736</ele>
        <time>2012-09-30T08:34:33Z</time>
      </trkpt>
      <trkpt lat="59.9565425" lon="17.690743">
        <ele>27.0543</ele>
        <time>2012-09-30T08:34:34Z</time>
      </trkpt>
      <trkpt lat="59.9565299" lon="17.6907044">
        <ele>26.5736</ele>
        <time>2012-09-30T08:34:35Z</time>
      </trkpt>
      <trkpt lat="59.9565171" lon="17.6906711">
        <ele>26.5736</ele>
        <time>2012-09-30T08:34:36Z</time>
      </trkpt>
      <trkpt lat="59.9565062" lon="17.6906438">
        <ele>27.0543</ele>
        <time>2012-09-30T08:34:37Z</time>
      </trkpt>
      <trkpt lat="59.956498" lon="17.6906118">
        <ele>27.5349</ele>
        <time>2012-09-30T08:34:38Z</time>
      </trkpt>
      <trkpt lat="59.9564886" lon="17.6905786">
        <ele>28.0155</ele>
        <time>2012-09-30T08:34:39Z</time>
      </trkpt>
      <trkpt lat="59.9564783" lon="17.6905454">
        <ele>28.0155</ele>
        <time>2012-09-30T08:34:40Z</time>
      </trkpt>
      <trkpt lat="59.9564667" lon="17.6905146">
        <ele>28.0155</ele>
        <time>2012-09-30T08:34:41Z</time>
      </trkpt>
      <trkpt lat="59.9564508" lon="17.6904814">
        <ele>28.4962</ele>
        <time>2012-09-30T08:34:42Z</time>
      </trkpt>
      <trkpt lat="59.9564361" lon="17.6904438">
        <ele>28.4962</ele>
        <time>2012-09-30T08:34:43Z</time>
      </trkpt>
      <trkpt lat="59.956419" lon="17.6904058">
        <ele>28.4962</ele>
        <time>2012-09-30T08:34:44Z</time>
      </trkpt>
      <trkpt lat="59.9563995" lon="17.6903671">
        <ele>28.9769</ele>
        <time>2012-09-30T08:34:45Z</time>
      </trkpt>
      <trkpt lat="59.9563829" lon="17.6903272">
        <ele>29.4575</ele>
        <time>2012-09-30T08:34:46Z</time>
      </trkpt>
      <trkpt lat="59.9563711" lon="17.6902905">
        <ele>29.4575</ele>
        <time>2012-09-30T08:34:47Z</time>
      </trkpt>
      <trkpt lat="59.9563602" lon="17.6902587">
        <ele>29.9381</ele>
        <time>2012-09-30T08:34:48Z</time>
      </trkpt>
      <trkpt lat="59.9563477" lon="17.6902232">
        <ele>29.9381</ele>
        <time>2012-09-30T08:34:49Z</time>
      </trkpt>
      <trkpt lat="59.9563384" lon="17.6901854">
        <ele>29.9381</ele>
        <time>2012-09-30T08:34:50Z</time>
      </trkpt>
      <trkpt lat="59.9563263" lon="17.6901485">
        <ele>29.9381</ele>
        <time>2012-09-30T08:34:51Z</time>
      </trkpt>
      <trkpt lat="59.9563103" lon="17.6901117">
        <ele>29.4575</ele>
        <time>2012-09-30T08:34:52Z</time>
      </trkpt>
      <trkpt lat="59.9563058" lon="17.6900744">
        <ele>29.9381</ele>
        <time>2012-09-30T08:34:53Z</time>
      </trkpt>
      <trkpt lat="59.9563041" lon="17.6900373">
        <ele>29.9381</ele>
        <time>2012-09-30T08:34:54Z</time>
      </trkpt>
      <trkpt lat="59.9562949" lon="17.6899952">
        <ele>29.9381</ele>
        <time>2012-09-30T08:34:55Z</time>
      </trkpt>
      <trkpt lat="59.9562864" lon="17.6899518">
        <ele>30.4188</ele>
        <time>2012-09-30T08:34:56Z</time>
      </trkpt>
      <trkpt lat="59.9562815" lon="17.6899096">
        <ele>30.8995</ele>
        <time>2012-09-30T08:34:57Z</time>
      </trkpt>
      <trkpt lat="59.9562724" lon="17.6898656">
        <ele>31.3801</ele>
        <time>2012-09-30T08:34:58Z</time>
      </trkpt>
      <trkpt lat="59.9562628" lon="17.6898186">
        <ele>31.3801</ele>
        <time>2012-09-30T08:34:59Z</time>
      </trkpt>
      <trkpt lat="59.9562558" lon="17.6897703">
        <ele>31.8607</ele>
        <time>2012-09-30T08:35:00Z</time>
      </trkpt>
      <trkpt lat="59.9562473" lon="17.6897269">
        <ele>31.8607</ele>
        <time>2012-09-30T08:35:01Z</time>
      </trkpt>
      <trkpt lat="59.9562405" lon="17.6896832">
        <ele>31.8607</ele>
        <time>2012-09-30T08:35:02Z</time>
      </trkpt>
      <trkpt lat="59.9562317" lon="17.6896342">
        <ele>31.8607</ele>
        <time>2012-09-30T08:35:03Z</time>
      </trkpt>
      <trkpt lat="59.9562261" lon="17.6895899">
        <ele>32.3416</ele>
        <time>2012-09-30T08:35:04Z</time>
      </trkpt>
      <trkpt lat="59.9562224" lon="17.6895423">
        <ele>32.8223</ele>
        <time>2012-09-30T08:35:05Z</time>
      </trkpt>
      <trkpt lat="59.9562172" lon="17.6894916">
        <ele>33.3029</ele>
        <time>2012-09-30T08:35:06Z</time>
      </trkpt>
      <trkpt lat="59.9562111" lon="17.6894481">
        <ele>32.8223</ele>
        <time>2012-09-30T08:35:07Z</time>
      </trkpt>
      <trkpt lat="59.956201" lon="17.6894004">
        <ele>32.8223</ele>
        <time>2012-09-30T08:35:08Z</time>
      </trkpt>
      <trkpt lat="59.9561939" lon="17.6893524">
        <ele>33.3029</ele>
        <time>2012-09-30T08:35:09Z</time>
      </trkpt>
      <trkpt lat="59.9561887" lon="17.6893074">
        <ele>34.2642</ele>
        <time>2012-09-30T08:35:10Z</time>
      </trkpt>
      <trkpt lat="59.9561795" lon="17.6892539">
        <ele>33.7834</ele>
        <time>2012-09-30T08:35:11Z</time>
      </trkpt>
      <trkpt lat="59.9561706" lon="17.6891912">
        <ele>34.2642</ele>
        <time>2012-09-30T08:35:12Z</time>
      </trkpt>
      <trkpt lat="59.9561597" lon="17.6891339">
        <ele>34.2642</ele>
        <time>2012-09-30T08:35:13Z</time>
      </trkpt>
      <trkpt lat="59.9561499" lon="17.6890795">
        <ele>34.7449</ele>
        <time>2012-09-30T08:35:14Z</time>
      </trkpt>
      <trkpt lat="59.9561436" lon="17.6890261">
        <ele>34.7449</ele>
        <time>2012-09-30T08:35:15Z</time>
      </trkpt>
      <trkpt lat="59.9561354" lon="17.6889763">
        <ele>35.2255</ele>
        <time>2012-09-30T08:35:16Z</time>
      </trkpt>
      <trkpt lat="59.9561281" lon="17.6889276">
        <ele>36.1868</ele>
        <time>2012-09-30T08:35:17Z</time>
      </trkpt>
      <trkpt lat="59.956124" lon="17.6888743">
        <ele>36.1868</ele>
        <time>2012-09-30T08:35:18Z</time>
      </trkpt>
      <trkpt lat="59.9561184" lon="17.6888225">
        <ele>36.1868</ele>
        <time>2012-09-30T08:35:19Z</time>
      </trkpt>
      <trkpt lat="59.9561049" lon="17.688769">
        <ele>36.1868</ele>
        <time>2012-09-30T08:35:20Z</time>
      </trkpt>
      <trkpt lat="59.9560913" lon="17.6887111">
        <ele>36.1868</ele>
        <time>2012-09-30T08:35:21Z</time>
      </trkpt>
      <trkpt lat="59.9560847" lon="17.6886552">
        <ele>36.1868</ele>
        <time>2012-09-30T08:35:22Z</time>
      </trkpt>
      <trkpt lat="59.9560742" lon="17.6886032">
        <ele>35.7061</ele>
        <time>2012-09-30T08:35:23Z</time>
      </trkpt>
      <trkpt lat="59.9560592" lon="17.6885509">
        <ele>35.7061</ele>
        <time>2012-09-30T08:35:24Z</time>
      </trkpt>
      <trkpt lat="59.9560421" lon="17.6884944">
        <ele>35.2255</ele>
        <time>2012-09-30T08:35:25Z</time>
      </trkpt>
      <trkpt lat="59.9560291" lon="17.6884436">
        <ele>35.2255</ele>
        <time>2012-09-30T08:35:26Z</time>
      </trkpt>
      <trkpt lat="59.9560183" lon="17.6883935">
        <ele>35.2255</ele>
        <time>2012-09-30T08:35:27Z</time>
      </trkpt>
      <trkpt lat="59.9560072" lon="17.6883413">
        <ele>35.2255</ele>
        <time>2012-09-30T08:35:28Z</time>
      </trkpt>
      <trkpt lat="59.9559955" lon="17.6882935">
        <ele>34.7449</ele>
        <time>2012-09-30T08:35:29Z</time>
      </trkpt>
      <trkpt lat="59.9559836" lon="17.688238">
        <ele>34.2642</ele>
        <time>2012-09-30T08:35:30Z</time>
      </trkpt>
      <trkpt lat="59.9559733" lon="17.6881861">
        <ele>33.7834</ele>
        <time>2012-09-30T08:35:31Z</time>
      </trkpt>
      <trkpt lat="59.9559626" lon="17.6881449">
        <ele>33.3029</ele>
        <time>2012-09-30T08:35:32Z</time>
      </trkpt>
      <trkpt lat="59.9559603" lon="17.6881012">
        <ele>32.8223</ele>
        <time>2012-09-30T08:35:33Z</time>
      </trkpt>
      <trkpt lat="59.955956" lon="17.6880533">
        <ele>31.8607</ele>
        <time>2012-09-30T08:35:34Z</time>
      </trkpt>
      <trkpt lat="59.9559479" lon="17.6880107">
        <ele>31.8607</ele>
        <time>2012-09-30T08:35:35Z</time>
      </trkpt>
      <trkpt lat="59.9559478" lon="17.6879713">
        <ele>31.8607</ele>
        <time>2012-09-30T08:35:36Z</time>
      </trkpt>
      <trkpt lat="59.9559447" lon="17.6879276">
        <ele>31.8607</ele>
        <time>2012-09-30T08:35:37Z</time>
      </trkpt>
      <trkpt lat="59.9559369" lon="17.6878853">
        <ele>31.3801</ele>
        <time>2012-09-30T08:35:38Z</time>
      </trkpt>
      <trkpt lat="59.9559296" lon="17.6878423">
        <ele>30.8995</ele>
        <time>2012-09-30T08:35:39Z</time>
      </trkpt>
      <trkpt lat="59.9559204" lon="17.6877952">
        <ele>30.8995</ele>
        <time>2012-09-30T08:35:40Z</time>
      </trkpt>
      <trkpt lat="59.9559121" lon="17.6877497">
        <ele>30.8995</ele>
        <time>2012-09-30T08:35:41Z</time>
      </trkpt>
      <trkpt lat="59.9559072" lon="17.687703">
        <ele>30.4188</ele>
        <time>2012-09-30T08:35:42Z</time>
      </trkpt>
      <trkpt lat="59.9559013" lon="17.6876569">
        <ele>31.3801</ele>
        <time>2012-09-30T08:35:43Z</time>
      </trkpt>
      <trkpt lat="59.9558933" lon="17.6876116">
        <ele>30.8995</ele>
        <time>2012-09-30T08:35:44Z</time>
      </trkpt>
      <trkpt lat="59.9558856" lon="17.6875632">
        <ele>30.8995</ele>
        <time>2012-09-30T08:35:45Z</time>
      </trkpt>
      <trkpt lat="59.9558779" lon="17.687517">
        <ele>31.3801</ele>
        <time>2012-09-30T08:35:46Z</time>
      </trkpt>
      <trkpt lat="59.9558699" lon="17.6874726">
        <ele>31.3801</ele>
        <time>2012-09-30T08:35:47Z</time>
      </trkpt>
      <trkpt lat="59.9558602" lon="17.6874212">
        <ele>30.8995</ele>
        <time>2012-09-30T08:35:48Z</time>
      </trkpt>
      <trkpt lat="59.955848" lon="17.6873646">
        <ele>31.8607</ele>
        <time>2012-09-30T08:35:49Z</time>
      </trkpt>
      <trkpt lat="59.955836" lon="17.6873093">
        <ele>31.8607</ele>
        <time>2012-09-30T08:35:50Z</time>
      </trkpt>
      <trkpt lat="59.9558256" lon="17.6872547">
        <ele>31.8607</ele>
        <time>2012-09-30T08:35:51Z</time>
      </trkpt>
      <trkpt lat="59.9558158" lon="17.6872072">
        <ele>31.3801</ele>
        <time>2012-09-30T08:35:52Z</time>
      </trkpt>
      <trkpt lat="59.9558072" lon="17.6871608">
        <ele>31.3801</ele>
        <time>2012-09-30T08:35:53Z</time>
      </trkpt>
      <trkpt lat="59.9557946" lon="17.6871063">
        <ele>31.8607</ele>
        <time>2012-09-30T08:35:54Z</time>
      </trkpt>
      <trkpt lat="59.9557871" lon="17.6870598">
        <ele>31.8607</ele>
        <time>2012-09-30T08:35:55Z</time>
      </trkpt>
      <trkpt lat="59.9557815" lon="17.6870123">
        <ele>32.3416</ele>
        <time>2012-09-30T08:35:56Z</time>
      </trkpt>
      <trkpt lat="59.9557725" lon="17.6869576">
        <ele>32.8223</ele>
        <time>2012-09-30T08:35:57Z</time>
      </trkpt>
      <trkpt lat="59.9557654" lon="17.68691">
        <ele>33.3029</ele>
        <time>2012-09-30T08:35:58Z</time>
      </trkpt>
      <trkpt lat="59.9557608" lon="17.6868648">
        <ele>33.7834</ele>
        <time>2012-09-30T08:35:59Z</time>
      </trkpt>
      <trkpt lat="59.955753" lon="17.6868114">
        <ele>33.7834</ele>
        <time>2012-09-30T08:36:00Z</time>
      </trkpt>
      <trkpt lat="59.9557389" lon="17.6867551">
        <ele>33.7834</ele>
        <time>2012-09-30T08:36:01Z</time>
      </trkpt>
      <trkpt lat="59.955728" lon="17.6867017">
        <ele>33.7834</ele>
        <time>2012-09-30T08:36:02Z</time>
      </trkpt>
      <trkpt lat="59.9557192" lon="17.6866468">
        <ele>33.7834</ele>
        <time>2012-09-30T08:36:03Z</time>
      </trkpt>
      <trkpt lat="59.9557085" lon="17.6865932">
        <ele>33.3029</ele>
        <time>2012-09-30T08:36:04Z</time>
      </trkpt>
      <trkpt lat="59.9557002" lon="17.6865431">
        <ele>32.8223</ele>
        <time>2012-09-30T08:36:05Z</time>
      </trkpt>
      <trkpt lat="59.9556912" lon="17.6864893">
        <ele>32.3416</ele>
        <time>2012-09-30T08:36:06Z</time>
      </trkpt>
      <trkpt lat="59.9556842" lon="17.6864395">
        <ele>32.3416</ele>
        <time>2012-09-30T08:36:07Z</time>
      </trkpt>
      <trkpt lat="59.9556772" lon="17.6863922">
        <ele>31.8607</ele>
        <time>2012-09-30T08:36:08Z</time>
      </trkpt>
      <trkpt lat="59.9556726" lon="17.6863464">
        <ele>30.8995</ele>
        <time>2012-09-30T08:36:09Z</time>
      </trkpt>
      <trkpt lat="59.9556723" lon="17.6863007">
        <ele>30.8995</ele>
        <time>2012-09-30T08:36:10Z</time>
      </trkpt>
      <trkpt lat="59.955668" lon="17.6862581">
        <ele>30.8995</ele>
        <time>2012-09-30T08:36:11Z</time>
      </trkpt>
      <trkpt lat="59.955661" lon="17.6862122">
        <ele>30.4188</ele>
        <time>2012-09-30T08:36:12Z</time>
      </trkpt>
      <trkpt lat="59.9556542" lon="17.6861646">
        <ele>29.9381</ele>
        <time>2012-09-30T08:36:13Z</time>
      </trkpt>
      <trkpt lat="59.955648" lon="17.6861183">
        <ele>29.4575</ele>
        <time>2012-09-30T08:36:14Z</time>
      </trkpt>
      <trkpt lat="59.9556427" lon="17.6860673">
        <ele>29.4575</ele>
        <time>2012-09-30T08:36:15Z</time>
      </trkpt>
      <trkpt lat="59.9556376" lon="17.6860262">
        <ele>28.9769</ele>
        <time>2012-09-30T08:36:16Z</time>
      </trkpt>
      <trkpt lat="59.9556327" lon="17.6859854">
        <ele>28.9769</ele>
        <time>2012-09-30T08:36:17Z</time>
      </trkpt>
      <trkpt lat="59.9556308" lon="17.6859387">
        <ele>29.4575</ele>
        <time>2012-09-30T08:36:18Z</time>
      </trkpt>
      <trkpt lat="59.9556293" lon="17.6858957">
        <ele>28.9769</ele>
        <time>2012-09-30T08:36:19Z</time>
      </trkpt>
      <trkpt lat="59.955623" lon="17.6858509">
        <ele>28.9769</ele>
        <time>2012-09-30T08:36:20Z</time>
      </trkpt>
      <trkpt lat="59.9556187" lon="17.6858046">
        <ele>28.9769</ele>
        <time>2012-09-30T08:36:21Z</time>
      </trkpt>
      <trkpt lat="59.9556153" lon="17.6857604">
        <ele>29.4575</ele>
        <time>2012-09-30T08:36:22Z</time>
      </trkpt>
      <trkpt lat="59.9556094" lon="17.6857105">
        <ele>29.9381</ele>
        <time>2012-09-30T08:36:23Z</time>
      </trkpt>
      <trkpt lat="59.955605" lon="17.6856604">
        <ele>29.4575</ele>
        <time>2012-09-30T08:36:24Z</time>
      </trkpt>
      <trkpt lat="59.9555976" lon="17.6856147">
        <ele>29.4575</ele>
        <time>2012-09-30T08:36:25Z</time>
      </trkpt>
      <trkpt lat="59.955592" lon="17.6855652">
        <ele>29.4575</ele>
        <time>2012-09-30T08:36:26Z</time>
      </trkpt>
      <trkpt lat="59.9555879" lon="17.6855145">
        <ele>29.9381</ele>
        <time>2012-09-30T08:36:27Z</time>
      </trkpt>
      <trkpt lat="59.9555758" lon="17.6854631">
        <ele>29.4575</ele>
        <time>2012-09-30T08:36:28Z</time>
      </trkpt>
      <trkpt lat="59.955565" lon="17.6854078">
        <ele>28.9769</ele>
        <time>2012-09-30T08:36:29Z</time>
      </trkpt>
      <trkpt lat="59.9555578" lon="17.6853518">
        <ele>28.4962</ele>
        <time>2012-09-30T08:36:30Z</time>
      </trkpt>
      <trkpt lat="59.9555493" lon="17.6853014">
        <ele>28.4962</ele>
        <time>2012-09-30T08:36:31Z</time>
      </trkpt>
      <trkpt lat="59.9555423" lon="17.6852544">
        <ele>28.4962</ele>
        <time>2012-09-30T08:36:32Z</time>
      </trkpt>
      <trkpt lat="59.9555349" lon="17.6852016">
        <ele>28.0155</ele>
        <time>2012-09-30T08:36:33Z</time>
      </trkpt>
      <trkpt lat="59.9555256" lon="17.6851461">
        <ele>28.0155</ele>
        <time>2012-09-30T08:36:34Z</time>
      </trkpt>
      <trkpt lat="59.9555177" lon="17.6850908">
        <ele>28.4962</ele>
        <time>2012-09-30T08:36:35Z</time>
      </trkpt>
      <trkpt lat="59.9555131" lon="17.6850413">
        <ele>28.9769</ele>
        <time>2012-09-30T08:36:36Z</time>
      </trkpt>
      <trkpt lat="59.9555084" lon="17.6849963">
        <ele>28.0155</ele>
        <time>2012-09-30T08:36:37Z</time>
      </trkpt>
      <trkpt lat="59.9554977" lon="17.6849462">
        <ele>28.4962</ele>
        <time>2012-09-30T08:36:38Z</time>
      </trkpt>
      <trkpt lat="59.9554905" lon="17.684897">
        <ele>29.4575</ele>
        <time>2012-09-30T08:36:39Z</time>
      </trkpt>
      <trkpt lat="59.9554874" lon="17.6848543">
        <ele>28.9769</ele>
        <time>2012-09-30T08:36:40Z</time>
      </trkpt>
      <trkpt lat="59.9554759" lon="17.6848095">
        <ele>28.4962</ele>
        <time>2012-09-30T08:36:41Z</time>
      </trkpt>
      <trkpt lat="59.9554643" lon="17.6847598">
        <ele>28.4962</ele>
        <time>2012-09-30T08:36:42Z</time>
      </trkpt>
      <trkpt lat="59.9554614" lon="17.6847178">
        <ele>28.0155</ele>
        <time>2012-09-30T08:36:43Z</time>
      </trkpt>
      <trkpt lat="59.9554598" lon="17.6846788">
        <ele>27.5349</ele>
        <time>2012-09-30T08:36:44Z</time>
      </trkpt>
      <trkpt lat="59.9554541" lon="17.6846334">
        <ele>27.0543</ele>
        <time>2012-09-30T08:36:45Z</time>
      </trkpt>
      <trkpt lat="59.9554481" lon="17.6845829">
        <ele>27.0543</ele>
        <time>2012-09-30T08:36:46Z</time>
      </trkpt>
      <trkpt lat="59.9554426" lon="17.6845338">
        <ele>27.5349</ele>
        <time>2012-09-30T08:36:47Z</time>
      </trkpt>
      <trkpt lat="59.955435" lon="17.6844861">
        <ele>27.5349</ele>
        <time>2012-09-30T08:36:48Z</time>
      </trkpt>
      <trkpt lat="59.9554227" lon="17.6844329">
        <ele>27.5349</ele>
        <time>2012-09-30T08:36:49Z</time>
      </trkpt>
      <trkpt lat="59.9554097" lon="17.6843829">
        <ele>27.5349</ele>
        <time>2012-09-30T08:36:50Z</time>
      </trkpt>
      <trkpt lat="59.9554012" lon="17.6843374">
        <ele>27.5349</ele>
        <time>2012-09-30T08:36:51Z</time>
      </trkpt>
      <trkpt lat="59.9553947" lon="17.6842868">
        <ele>27.0543</ele>
        <time>2012-09-30T08:36:52Z</time>
      </trkpt>
      <trkpt lat="59.9553841" lon="17.6842337">
        <ele>27.0543</ele>
        <time>2012-09-30T08:36:53Z</time>
      </trkpt>
      <trkpt lat="59.9553723" lon="17.6841811">
        <ele>26.5736</ele>
        <time>2012-09-30T08:36:54Z</time>
      </trkpt>
      <trkpt lat="59.9553631" lon="17.6841285">
        <ele>26.5736</ele>
        <time>2012-09-30T08:36:55Z</time>
      </trkpt>
      <trkpt lat="59.9553538" lon="17.6840811">
        <ele>26.0929</ele>
        <time>2012-09-30T08:36:56Z</time>
      </trkpt>
      <trkpt lat="59.9553424" lon="17.6840324">
        <ele>26.0929</ele>
        <time>2012-09-30T08:36:57Z</time>
      </trkpt>
      <trkpt lat="59.9553335" lon="17.6839786">
        <ele>25.6123</ele>
        <time>2012-09-30T08:36:58Z</time>
      </trkpt>
      <trkpt lat="59.9553283" lon="17.6839277">
        <ele>25.6123</ele>
        <time>2012-09-30T08:36:59Z</time>
      </trkpt>
      <trkpt lat="59.9553226" lon="17.6838786">
        <ele>26.0929</ele>
        <time>2012-09-30T08:37:00Z</time>
      </trkpt>
      <trkpt lat="59.9553242" lon="17.6838348">
        <ele>26.0929</ele>
        <time>2012-09-30T08:37:01Z</time>
      </trkpt>
      <trkpt lat="59.9553191" lon="17.6837934">
        <ele>26.0929</ele>
        <time>2012-09-30T08:37:02Z</time>
      </trkpt>
      <trkpt lat="59.9553084" lon="17.683747">
        <ele>26.0929</ele>
        <time>2012-09-30T08:37:03Z</time>
      </trkpt>
      <trkpt lat="59.9552915" lon="17.6836883">
        <ele>26.0929</ele>
        <time>2012-09-30T08:37:04Z</time>
      </trkpt>
      <trkpt lat="59.9552723" lon="17.6836297">
        <ele>26.0929</ele>
        <time>2012-09-30T08:37:05Z</time>
      </trkpt>
      <trkpt lat="59.9552507" lon="17.6835786">
        <ele>26.0929</ele>
        <time>2012-09-30T08:37:06Z</time>
      </trkpt>
      <trkpt lat="59.9552361" lon="17.6835342">
        <ele>26.0929</ele>
        <time>2012-09-30T08:37:07Z</time>
      </trkpt>
      <trkpt lat="59.9552237" lon="17.6834859">
        <ele>26.0929</ele>
        <time>2012-09-30T08:37:08Z</time>
      </trkpt>
      <trkpt lat="59.9552106" lon="17.683434">
        <ele>26.0929</ele>
        <time>2012-09-30T08:37:09Z</time>
      </trkpt>
      <trkpt lat="59.9551976" lon="17.6833874">
        <ele>25.6123</ele>
        <time>2012-09-30T08:37:10Z</time>
      </trkpt>
      <trkpt lat="59.9551865" lon="17.6833429">
        <ele>25.6123</ele>
        <time>2012-09-30T08:37:11Z</time>
      </trkpt>
      <trkpt lat="59.9551817" lon="17.6832958">
        <ele>26.0929</ele>
        <time>2012-09-30T08:37:12Z</time>
      </trkpt>
      <trkpt lat="59.9551775" lon="17.6832549">
        <ele>25.6123</ele>
        <time>2012-09-30T08:37:13Z</time>
      </trkpt>
      <trkpt lat="59.9551708" lon="17.6832125">
        <ele>25.6123</ele>
        <time>2012-09-30T08:37:14Z</time>
      </trkpt>
      <trkpt lat="59.955174" lon="17.68317">
        <ele>26.0929</ele>
        <time>2012-09-30T08:37:15Z</time>
      </trkpt>
      <trkpt lat="59.9551652" lon="17.6831265">
        <ele>25.6123</ele>
        <time>2012-09-30T08:37:16Z</time>
      </trkpt>
      <trkpt lat="59.9551481" lon="17.6830788">
        <ele>25.6123</ele>
        <time>2012-09-30T08:37:17Z</time>
      </trkpt>
      <trkpt lat="59.9551377" lon="17.6830321">
        <ele>25.6123</ele>
        <time>2012-09-30T08:37:18Z</time>
      </trkpt>
      <trkpt lat="59.9551261" lon="17.6829882">
        <ele>25.1317</ele>
        <time>2012-09-30T08:37:19Z</time>
      </trkpt>
      <trkpt lat="59.9551178" lon="17.6829446">
        <ele>26.0929</ele>
        <time>2012-09-30T08:37:20Z</time>
      </trkpt>
      <trkpt lat="59.9551056" lon="17.6828998">
        <ele>25.6123</ele>
        <time>2012-09-30T08:37:21Z</time>
      </trkpt>
      <trkpt lat="59.9550884" lon="17.6828507">
        <ele>25.6123</ele>
        <time>2012-09-30T08:37:22Z</time>
      </trkpt>
      <trkpt lat="59.9550741" lon="17.6828146">
        <ele>25.6123</ele>
        <time>2012-09-30T08:37:23Z</time>
      </trkpt>
      <trkpt lat="59.9550615" lon="17.6827789">
        <ele>25.6123</ele>
        <time>2012-09-30T08:37:24Z</time>
      </trkpt>
      <trkpt lat="59.9550486" lon="17.6827358">
        <ele>25.1317</ele>
        <time>2012-09-30T08:37:25Z</time>
      </trkpt>
      <trkpt lat="59.9550392" lon="17.6826964">
        <ele>25.1317</ele>
        <time>2012-09-30T08:37:26Z</time>
      </trkpt>
      <trkpt lat="59.9550267" lon="17.6826668">
        <ele>25.6123</ele>
        <time>2012-09-30T08:37:27Z</time>
      </trkpt>
      <trkpt lat="59.9550092" lon="17.6826358">
        <ele>25.1317</ele>
        <time>2012-09-30T08:37:28Z</time>
      </trkpt>
      <trkpt lat="59.9549921" lon="17.6825954">
        <ele>25.1317</ele>
        <time>2012-09-30T08:37:29Z</time>
      </trkpt>
      <trkpt lat="59.9549792" lon="17.682555">
        <ele>24.651</ele>
        <time>2012-09-30T08:37:30Z</time>
      </trkpt>
      <trkpt lat="59.9549663" lon="17.682529">
        <ele>24.651</ele>
        <time>2012-09-30T08:37:31Z</time>
      </trkpt>
      <trkpt lat="59.9549499" lon="17.682503">
        <ele>24.1703</ele>
        <time>2012-09-30T08:37:32Z</time>
      </trkpt>
      <trkpt lat="59.9549356" lon="17.6824652">
        <ele>24.1703</ele>
        <time>2012-09-30T08:37:33Z</time>
      </trkpt>
      <trkpt lat="59.9549241" lon="17.6824209">
        <ele>23.209</ele>
        <time>2012-09-30T08:37:34Z</time>
      </trkpt>
      <trkpt lat="59.9549122" lon="17.6823722">
        <ele>23.209</ele>
        <time>2012-09-30T08:37:35Z</time>
      </trkpt>
      <trkpt lat="59.9549076" lon="17.6823307">
        <ele>22.7283</ele>
        <time>2012-09-30T08:37:36Z</time>
      </trkpt>
      <trkpt lat="59.9548983" lon="17.6822891">
        <ele>22.7283</ele>
        <time>2012-09-30T08:37:37Z</time>
      </trkpt>
      <trkpt lat="59.9548831" lon="17.6822448">
        <ele>22.2476</ele>
        <time>2012-09-30T08:37:38Z</time>
      </trkpt>
      <trkpt lat="59.9548704" lon="17.6821991">
        <ele>22.2476</ele>
        <time>2012-09-30T08:37:39Z</time>
      </trkpt>
      <trkpt lat="59.9548583" lon="17.6821608">
        <ele>21.767</ele>
        <time>2012-09-30T08:37:40Z</time>
      </trkpt>
      <trkpt lat="59.9548471" lon="17.6821157">
        <ele>22.2476</ele>
        <time>2012-09-30T08:37:41Z</time>
      </trkpt>
      <trkpt lat="59.9548435" lon="17.6820769">
        <ele>22.7283</ele>
        <time>2012-09-30T08:37:42Z</time>
      </trkpt>
      <trkpt lat="59.9548439" lon="17.6820416">
        <ele>23.209</ele>
        <time>2012-09-30T08:37:43Z</time>
      </trkpt>
      <trkpt lat="59.9548404" lon="17.6820045">
        <ele>23.209</ele>
        <time>2012-09-30T08:37:44Z</time>
      </trkpt>
      <trkpt lat="59.9548231" lon="17.6819598">
        <ele>23.6896</ele>
        <time>2012-09-30T08:37:45Z</time>
      </trkpt>
      <trkpt lat="59.9547984" lon="17.6819206">
        <ele>24.1703</ele>
        <time>2012-09-30T08:37:46Z</time>
      </trkpt>
      <trkpt lat="59.9547826" lon="17.6818987">
        <ele>25.1317</ele>
        <time>2012-09-30T08:37:47Z</time>
      </trkpt>
      <trkpt lat="59.9547629" lon="17.6818821">
        <ele>25.6123</ele>
        <time>2012-09-30T08:37:48Z</time>
      </trkpt>
      <trkpt lat="59.9547449" lon="17.6818614">
        <ele>26.0929</ele>
        <time>2012-09-30T08:37:49Z</time>
      </trkpt>
      <trkpt lat="59.9547282" lon="17.681831">
        <ele>26.5736</ele>
        <time>2012-09-30T08:37:50Z</time>
      </trkpt>
      <trkpt lat="59.9547099" lon="17.6817967">
        <ele>26.5736</ele>
        <time>2012-09-30T08:37:51Z</time>
      </trkpt>
      <trkpt lat="59.954694" lon="17.6817595">
        <ele>27.0543</ele>
        <time>2012-09-30T08:37:52Z</time>
      </trkpt>
      <trkpt lat="59.9546747" lon="17.6817208">
        <ele>27.5349</ele>
        <time>2012-09-30T08:37:53Z</time>
      </trkpt>
      <trkpt lat="59.9546596" lon="17.6816797">
        <ele>28.0155</ele>
        <time>2012-09-30T08:37:54Z</time>
      </trkpt>
      <trkpt lat="59.9546464" lon="17.6816411">
        <ele>28.4962</ele>
        <time>2012-09-30T08:37:55Z</time>
      </trkpt>
      <trkpt lat="59.9546301" lon="17.6816019">
        <ele>28.9769</ele>
        <time>2012-09-30T08:37:56Z</time>
      </trkpt>
      <trkpt lat="59.9546143" lon="17.6815585">
        <ele>29.4575</ele>
        <time>2012-09-30T08:37:57Z</time>
      </trkpt>
      <trkpt lat="59.9545979" lon="17.6815155">
        <ele>29.4575</ele>
        <time>2012-09-30T08:37:58Z</time>
      </trkpt>
      <trkpt lat="59.9545777" lon="17.6814724">
        <ele>29.9381</ele>
        <time>2012-09-30T08:37:59Z</time>
      </trkpt>
      <trkpt lat="59.9545545" lon="17.6814254">
        <ele>30.4188</ele>
        <time>2012-09-30T08:38:00Z</time>
      </trkpt>
      <trkpt lat="59.9545314" lon="17.6813776">
        <ele>30.8995</ele>
        <time>2012-09-30T08:38:01Z</time>
      </trkpt>
      <trkpt lat="59.9545148" lon="17.6813309">
        <ele>31.3801</ele>
        <time>2012-09-30T08:38:02Z</time>
      </trkpt>
      <trkpt lat="59.9545021" lon="17.6812843">
        <ele>31.8607</ele>
        <time>2012-09-30T08:38:03Z</time>
      </trkpt>
      <trkpt lat="59.9544951" lon="17.6812424">
        <ele>31.8607</ele>
        <time>2012-09-30T08:38:04Z</time>
      </trkpt>
      <trkpt lat="59.954487" lon="17.6812015">
        <ele>32.3416</ele>
        <time>2012-09-30T08:38:05Z</time>
      </trkpt>
      <trkpt lat="59.9544739" lon="17.6811569">
        <ele>32.3416</ele>
        <time>2012-09-30T08:38:06Z</time>
      </trkpt>
      <trkpt lat="59.9544647" lon="17.6811177">
        <ele>33.3029</ele>
        <time>2012-09-30T08:38:07Z</time>
      </trkpt>
      <trkpt lat="59.9544471" lon="17.6810793">
        <ele>33.3029</ele>
        <time>2012-09-30T08:38:08Z</time>
      </trkpt>
      <trkpt lat="59.9544185" lon="17.681045">
        <ele>32.8223</ele>
        <time>2012-09-30T08:38:09Z</time>
      </trkpt>
      <trkpt lat="59.9543979" lon="17.6810262">
        <ele>32.8223</ele>
        <time>2012-09-30T08:38:10Z</time>
      </trkpt>
      <trkpt lat="59.9543825" lon="17.681028">
        <ele>32.3416</ele>
        <time>2012-09-30T08:38:11Z</time>
      </trkpt>
      <trkpt lat="59.9543643" lon="17.6810402">
        <ele>32.3416</ele>
        <time>2012-09-30T08:38:12Z</time>
      </trkpt>
      <trkpt lat="59.9543413" lon="17.6810559">
        <ele>32.3416</ele>
        <time>2012-09-30T08:38:13Z</time>
      </trkpt>
      <trkpt lat="59.9543177" lon="17.6810816">
        <ele>31.8607</ele>
        <time>2012-09-30T08:38:14Z</time>
      </trkpt>
      <trkpt lat="59.9542927" lon="17.681108">
        <ele>31.3801</ele>
        <time>2012-09-30T08:38:15Z</time>
      </trkpt>
      <trkpt lat="59.9542713" lon="17.6811322">
        <ele>32.3416</ele>
        <time>2012-09-30T08:38:16Z</time>
      </trkpt>
      <trkpt lat="59.9542488" lon="17.6811517">
        <ele>32.3416</ele>
        <time>2012-09-30T08:38:17Z</time>
      </trkpt>
      <trkpt lat="59.9542274" lon="17.6811756">
        <ele>32.8223</ele>
        <time>2012-09-30T08:38:18Z</time>
      </trkpt>
      <trkpt lat="59.9542057" lon="17.6812008">
        <ele>33.7834</ele>
        <time>2012-09-30T08:38:19Z</time>
      </trkpt>
      <trkpt lat="59.9541817" lon="17.6812296">
        <ele>33.3029</ele>
        <time>2012-09-30T08:38:20Z</time>
      </trkpt>
      <trkpt lat="59.9541586" lon="17.6812608">
        <ele>34.2642</ele>
        <time>2012-09-30T08:38:21Z</time>
      </trkpt>
      <trkpt lat="59.9541312" lon="17.6812812">
        <ele>34.2642</ele>
        <time>2012-09-30T08:38:22Z</time>
      </trkpt>
      <trkpt lat="59.9541056" lon="17.6813004">
        <ele>34.2642</ele>
        <time>2012-09-30T08:38:23Z</time>
      </trkpt>
      <trkpt lat="59.9540833" lon="17.6813237">
        <ele>34.7449</ele>
        <time>2012-09-30T08:38:24Z</time>
      </trkpt>
      <trkpt lat="59.954059" lon="17.6813433">
        <ele>34.7449</ele>
        <time>2012-09-30T08:38:25Z</time>
      </trkpt>
      <trkpt lat="59.9540377" lon="17.6813626">
        <ele>34.7449</ele>
        <time>2012-09-30T08:38:26Z</time>
      </trkpt>
      <trkpt lat="59.9540178" lon="17.6813833">
        <ele>34.7449</ele>
        <time>2012-09-30T08:38:27Z</time>
      </trkpt>
      <trkpt lat="59.9539984" lon="17.6813977">
        <ele>35.2255</ele>
        <time>2012-09-30T08:38:28Z</time>
      </trkpt>
      <trkpt lat="59.9539773" lon="17.6814164">
        <ele>35.7061</ele>
        <time>2012-09-30T08:38:29Z</time>
      </trkpt>
      <trkpt lat="59.9539545" lon="17.6814351">
        <ele>35.2255</ele>
        <time>2012-09-30T08:38:30Z</time>
      </trkpt>
      <trkpt lat="59.9539301" lon="17.6814515">
        <ele>34.2642</ele>
        <time>2012-09-30T08:38:31Z</time>
      </trkpt>
      <trkpt lat="59.9539062" lon="17.6814688">
        <ele>33.3029</ele>
        <time>2012-09-30T08:38:32Z</time>
      </trkpt>
      <trkpt lat="59.953884" lon="17.6814899">
        <ele>33.3029</ele>
        <time>2012-09-30T08:38:33Z</time>
      </trkpt>
      <trkpt lat="59.9538598" lon="17.6815105">
        <ele>33.7834</ele>
        <time>2012-09-30T08:38:34Z</time>
      </trkpt>
      <trkpt lat="59.9538364" lon="17.6815231">
        <ele>34.2642</ele>
        <time>2012-09-30T08:38:35Z</time>
      </trkpt>
      <trkpt lat="59.9538151" lon="17.6815432">
        <ele>34.2642</ele>
        <time>2012-09-30T08:38:36Z</time>
      </trkpt>
      <trkpt lat="59.9537917" lon="17.6815666">
        <ele>34.2642</ele>
        <time>2012-09-30T08:38:37Z</time>
      </trkpt>
      <trkpt lat="59.9537666" lon="17.6815918">
        <ele>34.2642</ele>
        <time>2012-09-30T08:38:38Z</time>
      </trkpt>
      <trkpt lat="59.953737" lon="17.6816172">
        <ele>34.2642</ele>
        <time>2012-09-30T08:38:39Z</time>
      </trkpt>
      <trkpt lat="59.9537075" lon="17.6816418">
        <ele>33.7834</ele>
        <time>2012-09-30T08:38:40Z</time>
      </trkpt>
      <trkpt lat="59.9536863" lon="17.6816661">
        <ele>35.2255</ele>
        <time>2012-09-30T08:38:41Z</time>
      </trkpt>
      <trkpt lat="59.9536658" lon="17.6816832">
        <ele>34.7449</ele>
        <time>2012-09-30T08:38:42Z</time>
      </trkpt>
      <trkpt lat="59.9536423" lon="17.6816996">
        <ele>34.2642</ele>
        <time>2012-09-30T08:38:43Z</time>
      </trkpt>
      <trkpt lat="59.9536163" lon="17.6817164">
        <ele>34.2642</ele>
        <time>2012-09-30T08:38:44Z</time>
      </trkpt>
      <trkpt lat="59.9535949" lon="17.681738">
        <ele>34.2642</ele>
        <time>2012-09-30T08:38:45Z</time>
      </trkpt>
      <trkpt lat="59.9535702" lon="17.6817562">
        <ele>33.3029</ele>
        <time>2012-09-30T08:38:46Z</time>
      </trkpt>
      <trkpt lat="59.9535458" lon="17.6817695">
        <ele>32.3416</ele>
        <time>2012-09-30T08:38:47Z</time>
      </trkpt>
      <trkpt lat="59.9535256" lon="17.6817894">
        <ele>31.8607</ele>
        <time>2012-09-30T08:38:48Z</time>
      </trkpt>
      <trkpt lat="59.9535059" lon="17.6818058">
        <ele>31.8607</ele>
        <time>2012-09-30T08:38:49Z</time>
      </trkpt>
      <trkpt lat="59.9534836" lon="17.6818195">
        <ele>31.3801</ele>
        <time>2012-09-30T08:38:50Z</time>
      </trkpt>
      <trkpt lat="59.9534635" lon="17.6818416">
        <ele>30.8995</ele>
        <time>2012-09-30T08:38:51Z</time>
      </trkpt>
      <trkpt lat="59.9534448" lon="17.681861">
        <ele>30.8995</ele>
        <time>2012-09-30T08:38:52Z</time>
      </trkpt>
      <trkpt lat="59.953423" lon="17.6818774">
        <ele>30.8995</ele>
        <time>2012-09-30T08:38:53Z</time>
      </trkpt>
      <trkpt lat="59.9534012" lon="17.6818908">
        <ele>30.4188</ele>
        <time>2012-09-30T08:38:54Z</time>
      </trkpt>
      <trkpt lat="59.9533824" lon="17.681907">
        <ele>30.8995</ele>
        <time>2012-09-30T08:38:55Z</time>
      </trkpt>
      <trkpt lat="59.9533623" lon="17.6819278">
        <ele>31.3801</ele>
        <time>2012-09-30T08:38:56Z</time>
      </trkpt>
      <trkpt lat="59.9533412" lon="17.6819429">
        <ele>30.8995</ele>
        <time>2012-09-30T08:38:57Z</time>
      </trkpt>
      <trkpt lat="59.9533204" lon="17.6819619">
        <ele>30.8995</ele>
        <time>2012-09-30T08:38:58Z</time>
      </trkpt>
      <trkpt lat="59.9532973" lon="17.6819811">
        <ele>31.3801</ele>
        <time>2012-09-30T08:38:59Z</time>
      </trkpt>
      <trkpt lat="59.9532686" lon="17.6819949">
        <ele>30.8995</ele>
        <time>2012-09-30T08:39:00Z</time>
      </trkpt>
      <trkpt lat="59.953246" lon="17.6820184">
        <ele>31.3801</ele>
        <time>2012-09-30T08:39:01Z</time>
      </trkpt>
      <trkpt lat="59.9532266" lon="17.6820392">
        <ele>31.3801</ele>
        <time>2012-09-30T08:39:02Z</time>
      </trkpt>
      <trkpt lat="59.953207" lon="17.6820566">
        <ele>31.8607</ele>
        <time>2012-09-30T08:39:03Z</time>
      </trkpt>
      <trkpt lat="59.9531897" lon="17.682075">
        <ele>32.3416</ele>
        <time>2012-09-30T08:39:04Z</time>
      </trkpt>
      <trkpt lat="59.9531721" lon="17.6821009">
        <ele>32.3416</ele>
        <time>2012-09-30T08:39:05Z</time>
      </trkpt>
      <trkpt lat="59.9531517" lon="17.6821251">
        <ele>32.3416</ele>
        <time>2012-09-30T08:39:06Z</time>
      </trkpt>
      <trkpt lat="59.9531334" lon="17.68215">
        <ele>32.3416</ele>
        <time>2012-09-30T08:39:07Z</time>
      </trkpt>
      <trkpt lat="59.9531148" lon="17.6821774">
        <ele>32.3416</ele>
        <time>2012-09-30T08:39:08Z</time>
      </trkpt>
      <trkpt lat="59.9530944" lon="17.6822039">
        <ele>32.3416</ele>
        <time>2012-09-30T08:39:09Z</time>
      </trkpt>
      <trkpt lat="59.9530765" lon="17.6822321">
        <ele>32.3416</ele>
        <time>2012-09-30T08:39:10Z</time>
      </trkpt>
      <trkpt lat="59.9530594" lon="17.6822585">
        <ele>32.8223</ele>
        <time>2012-09-30T08:39:11Z</time>
      </trkpt>
      <trkpt lat="59.9530405" lon="17.6822825">
        <ele>32.8223</ele>
        <time>2012-09-30T08:39:12Z</time>
      </trkpt>
      <trkpt lat="59.9530217" lon="17.6823068">
        <ele>32.3416</ele>
        <time>2012-09-30T08:39:13Z</time>
      </trkpt>
      <trkpt lat="59.953004" lon="17.6823297">
        <ele>32.3416</ele>
        <time>2012-09-30T08:39:14Z</time>
      </trkpt>
      <trkpt lat="59.9529853" lon="17.6823586">
        <ele>33.3029</ele>
        <time>2012-09-30T08:39:15Z</time>
      </trkpt>
      <trkpt lat="59.9529655" lon="17.6823872">
        <ele>33.7834</ele>
        <time>2012-09-30T08:39:16Z</time>
      </trkpt>
      <trkpt lat="59.9529478" lon="17.682412">
        <ele>33.7834</ele>
        <time>2012-09-30T08:39:17Z</time>
      </trkpt>
      <trkpt lat="59.952932" lon="17.6824431">
        <ele>34.2642</ele>
        <time>2012-09-30T08:39:18Z</time>
      </trkpt>
      <trkpt lat="59.9529134" lon="17.6824742">
        <ele>34.2642</ele>
        <time>2012-09-30T08:39:19Z</time>
      </trkpt>
      <trkpt lat="59.952896" lon="17.6825061">
        <ele>34.7449</ele>
        <time>2012-09-30T08:39:20Z</time>
      </trkpt>
      <trkpt lat="59.9528817" lon="17.6825369">
        <ele>34.7449</ele>
        <time>2012-09-30T08:39:21Z</time>
      </trkpt>
      <trkpt lat="59.9528653" lon="17.6825649">
        <ele>34.2642</ele>
        <time>2012-09-30T08:39:22Z</time>
      </trkpt>
      <trkpt lat="59.9528471" lon="17.6826053">
        <ele>35.2255</ele>
        <time>2012-09-30T08:39:23Z</time>
      </trkpt>
      <trkpt lat="59.9528309" lon="17.682646">
        <ele>35.7061</ele>
        <time>2012-09-30T08:39:24Z</time>
      </trkpt>
      <trkpt lat="59.9528173" lon="17.6826878">
        <ele>37.1481</ele>
        <time>2012-09-30T08:39:25Z</time>
      </trkpt>
      <trkpt lat="59.9528014" lon="17.6827305">
        <ele>38.5901</ele>
        <time>2012-09-30T08:39:26Z</time>
      </trkpt>
      <trkpt lat="59.9527818" lon="17.6827665">
        <ele>39.5513</ele>
        <time>2012-09-30T08:39:27Z</time>
      </trkpt>
      <trkpt lat="59.9527639" lon="17.6827926">
        <ele>39.5513</ele>
        <time>2012-09-30T08:39:28Z</time>
      </trkpt>
      <trkpt lat="59.9527479" lon="17.6828266">
        <ele>40.0321</ele>
        <time>2012-09-30T08:39:29Z</time>
      </trkpt>
      <trkpt lat="59.9527297" lon="17.6828542">
        <ele>39.5513</ele>
        <time>2012-09-30T08:39:30Z</time>
      </trkpt>
      <trkpt lat="59.9527119" lon="17.682886">
        <ele>39.5513</ele>
        <time>2012-09-30T08:39:31Z</time>
      </trkpt>
      <trkpt lat="59.9526966" lon="17.6829169">
        <ele>39.0707</ele>
        <time>2012-09-30T08:39:32Z</time>
      </trkpt>
      <trkpt lat="59.9526805" lon="17.6829539">
        <ele>39.0707</ele>
        <time>2012-09-30T08:39:33Z</time>
      </trkpt>
      <trkpt lat="59.9526632" lon="17.6829922">
        <ele>39.5513</ele>
        <time>2012-09-30T08:39:34Z</time>
      </trkpt>
      <trkpt lat="59.9526456" lon="17.6830347">
        <ele>40.5128</ele>
        <time>2012-09-30T08:39:35Z</time>
      </trkpt>
      <trkpt lat="59.95263" lon="17.6830801">
        <ele>41.474</ele>
        <time>2012-09-30T08:39:36Z</time>
      </trkpt>
      <trkpt lat="59.9526129" lon="17.6831229">
        <ele>41.474</ele>
        <time>2012-09-30T08:39:37Z</time>
      </trkpt>
      <trkpt lat="59.952593" lon="17.6831614">
        <ele>40.5128</ele>
        <time>2012-09-30T08:39:38Z</time>
      </trkpt>
      <trkpt lat="59.9525756" lon="17.6831879">
        <ele>40.0321</ele>
        <time>2012-09-30T08:39:39Z</time>
      </trkpt>
      <trkpt lat="59.9525549" lon="17.6832175">
        <ele>39.5513</ele>
        <time>2012-09-30T08:39:40Z</time>
      </trkpt>
      <trkpt lat="59.9525362" lon="17.6832503">
        <ele>39.0707</ele>
        <time>2012-09-30T08:39:41Z</time>
      </trkpt>
      <trkpt lat="59.9525212" lon="17.6832881">
        <ele>40.0321</ele>
        <time>2012-09-30T08:39:42Z</time>
      </trkpt>
      <trkpt lat="59.952505" lon="17.6833134">
        <ele>40.0321</ele>
        <time>2012-09-30T08:39:43Z</time>
      </trkpt>
      <trkpt lat="59.9524865" lon="17.6833398">
        <ele>39.5513</ele>
        <time>2012-09-30T08:39:44Z</time>
      </trkpt>
      <trkpt lat="59.952469" lon="17.6833663">
        <ele>39.5513</ele>
        <time>2012-09-30T08:39:45Z</time>
      </trkpt>
      <trkpt lat="59.9524518" lon="17.6833987">
        <ele>40.0321</ele>
        <time>2012-09-30T08:39:46Z</time>
      </trkpt>
      <trkpt lat="59.9524382" lon="17.6834315">
        <ele>40.9934</ele>
        <time>2012-09-30T08:39:47Z</time>
      </trkpt>
      <trkpt lat="59.9524185" lon="17.6834516">
        <ele>39.5513</ele>
        <time>2012-09-30T08:39:48Z</time>
      </trkpt>
      <trkpt lat="59.9523988" lon="17.6834927">
        <ele>40.0321</ele>
        <time>2012-09-30T08:39:49Z</time>
      </trkpt>
      <trkpt lat="59.9523813" lon="17.6835279">
        <ele>40.5128</ele>
        <time>2012-09-30T08:39:50Z</time>
      </trkpt>
      <trkpt lat="59.9523664" lon="17.6835665">
        <ele>40.5128</ele>
        <time>2012-09-30T08:39:51Z</time>
      </trkpt>
      <trkpt lat="59.9523513" lon="17.6836025">
        <ele>40.5128</ele>
        <time>2012-09-30T08:39:52Z</time>
      </trkpt>
      <trkpt lat="59.9523369" lon="17.6836412">
        <ele>40.0321</ele>
        <time>2012-09-30T08:39:53Z</time>
      </trkpt>
      <trkpt lat="59.9523228" lon="17.6836749">
        <ele>40.0321</ele>
        <time>2012-09-30T08:39:54Z</time>
      </trkpt>
      <trkpt lat="59.9523077" lon="17.6837126">
        <ele>39.5513</ele>
        <time>2012-09-30T08:39:55Z</time>
      </trkpt>
      <trkpt lat="59.9522938" lon="17.6837577">
        <ele>38.5901</ele>
        <time>2012-09-30T08:39:56Z</time>
      </trkpt>
      <trkpt lat="59.9522834" lon="17.6838089">
        <ele>39.0707</ele>
        <time>2012-09-30T08:39:57Z</time>
      </trkpt>
      <trkpt lat="59.9522714" lon="17.6838438">
        <ele>39.0707</ele>
        <time>2012-09-30T08:39:58Z</time>
      </trkpt>
      <trkpt lat="59.9522625" lon="17.6838729">
        <ele>39.5513</ele>
        <time>2012-09-30T08:39:59Z</time>
      </trkpt>
      <trkpt lat="59.9522517" lon="17.683909">
        <ele>39.0707</ele>
        <time>2012-09-30T08:40:00Z</time>
      </trkpt>
      <trkpt lat="59.9522389" lon="17.6839413">
        <ele>38.5901</ele>
        <time>2012-09-30T08:40:01Z</time>
      </trkpt>
      <trkpt lat="59.9522306" lon="17.6839723">
        <ele>38.1094</ele>
        <time>2012-09-30T08:40:02Z</time>
      </trkpt>
      <trkpt lat="59.9522289" lon="17.6840213">
        <ele>38.5901</ele>
        <time>2012-09-30T08:40:03Z</time>
      </trkpt>
      <trkpt lat="59.9522281" lon="17.6840676">
        <ele>39.0707</ele>
        <time>2012-09-30T08:40:04Z</time>
      </trkpt>
      <trkpt lat="59.9522297" lon="17.6841059">
        <ele>39.5513</ele>
        <time>2012-09-30T08:40:05Z</time>
      </trkpt>
      <trkpt lat="59.9522242" lon="17.6841468">
        <ele>39.5513</ele>
        <time>2012-09-30T08:40:06Z</time>
      </trkpt>
      <trkpt lat="59.9522161" lon="17.6841956">
        <ele>39.0707</ele>
        <time>2012-09-30T08:40:07Z</time>
      </trkpt>
      <trkpt lat="59.9522077" lon="17.6842344">
        <ele>37.6287</ele>
        <time>2012-09-30T08:40:08Z</time>
      </trkpt>
      <trkpt lat="59.9521978" lon="17.6842717">
        <ele>36.6675</ele>
        <time>2012-09-30T08:40:09Z</time>
      </trkpt>
      <trkpt lat="59.9521926" lon="17.6843184">
        <ele>36.1868</ele>
        <time>2012-09-30T08:40:10Z</time>
      </trkpt>
      <trkpt lat="59.9521861" lon="17.6843557">
        <ele>35.7061</ele>
        <time>2012-09-30T08:40:11Z</time>
      </trkpt>
      <trkpt lat="59.9521758" lon="17.6843867">
        <ele>35.2255</ele>
        <time>2012-09-30T08:40:12Z</time>
      </trkpt>
      <trkpt lat="59.9521633" lon="17.6844171">
        <ele>34.7449</ele>
        <time>2012-09-30T08:40:13Z</time>
      </trkpt>
      <trkpt lat="59.9521538" lon="17.6844427">
        <ele>35.2255</ele>
        <time>2012-09-30T08:40:14Z</time>
      </trkpt>
      <trkpt lat="59.9521447" lon="17.6844621">
        <ele>36.1868</ele>
        <time>2012-09-30T08:40:15Z</time>
      </trkpt>
      <trkpt lat="59.952127" lon="17.6844938">
        <ele>36.6675</ele>
        <time>2012-09-30T08:40:16Z</time>
      </trkpt>
      <trkpt lat="59.9521094" lon="17.6845426">
        <ele>38.1094</ele>
        <time>2012-09-30T08:40:17Z</time>
      </trkpt>
      <trkpt lat="59.9520949" lon="17.6845746">
        <ele>37.1481</ele>
        <time>2012-09-30T08:40:18Z</time>
      </trkpt>
      <trkpt lat="59.9520825" lon="17.6846118">
        <ele>37.6287</ele>
        <time>2012-09-30T08:40:19Z</time>
      </trkpt>
      <trkpt lat="59.9520659" lon="17.6846432">
        <ele>36.6675</ele>
        <time>2012-09-30T08:40:20Z</time>
      </trkpt>
      <trkpt lat="59.952045" lon="17.6846753">
        <ele>36.1868</ele>
        <time>2012-09-30T08:40:21Z</time>
      </trkpt>
      <trkpt lat="59.9520245" lon="17.6847028">
        <ele>35.2255</ele>
        <time>2012-09-30T08:40:22Z</time>
      </trkpt>
      <trkpt lat="59.9520104" lon="17.6847348">
        <ele>35.2255</ele>
        <time>2012-09-30T08:40:23Z</time>
      </trkpt>
      <trkpt lat="59.9519922" lon="17.6847691">
        <ele>34.2642</ele>
        <time>2012-09-30T08:40:24Z</time>
      </trkpt>
      <trkpt lat="59.9519729" lon="17.6848172">
        <ele>33.7834</ele>
        <time>2012-09-30T08:40:25Z</time>
      </trkpt>
      <trkpt lat="59.9519564" lon="17.6848574">
        <ele>34.2642</ele>
        <time>2012-09-30T08:40:26Z</time>
      </trkpt>
      <trkpt lat="59.951939" lon="17.6848874">
        <ele>33.7834</ele>
        <time>2012-09-30T08:40:27Z</time>
      </trkpt>
      <trkpt lat="59.9519255" lon="17.684913">
        <ele>34.2642</ele>
        <time>2012-09-30T08:40:28Z</time>
      </trkpt>
      <trkpt lat="59.9519168" lon="17.6849364">
        <ele>34.7449</ele>
        <time>2012-09-30T08:40:29Z</time>
      </trkpt>
      <trkpt lat="59.9519068" lon="17.6849618">
        <ele>35.2255</ele>
        <time>2012-09-30T08:40:30Z</time>
      </trkpt>
      <trkpt lat="59.9518896" lon="17.6849991">
        <ele>33.7834</ele>
        <time>2012-09-30T08:40:31Z</time>
      </trkpt>
      <trkpt lat="59.9518725" lon="17.6850385">
        <ele>33.7834</ele>
        <time>2012-09-30T08:40:32Z</time>
      </trkpt>
      <trkpt lat="59.9518581" lon="17.6850674">
        <ele>33.7834</ele>
        <time>2012-09-30T08:40:33Z</time>
      </trkpt>
      <trkpt lat="59.9518408" lon="17.6851078">
        <ele>33.7834</ele>
        <time>2012-09-30T08:40:34Z</time>
      </trkpt>
      <trkpt lat="59.9518246" lon="17.6851584">
        <ele>34.2642</ele>
        <time>2012-09-30T08:40:35Z</time>
      </trkpt>
      <trkpt lat="59.9518115" lon="17.6852181">
        <ele>35.2255</ele>
        <time>2012-09-30T08:40:36Z</time>
      </trkpt>
      <trkpt lat="59.9517949" lon="17.6852674">
        <ele>35.2255</ele>
        <time>2012-09-30T08:40:37Z</time>
      </trkpt>
      <trkpt lat="59.9517767" lon="17.6853075">
        <ele>34.7449</ele>
        <time>2012-09-30T08:40:38Z</time>
      </trkpt>
      <trkpt lat="59.951767" lon="17.6853495">
        <ele>35.2255</ele>
        <time>2012-09-30T08:40:39Z</time>
      </trkpt>
      <trkpt lat="59.9517571" lon="17.6853724">
        <ele>35.7061</ele>
        <time>2012-09-30T08:40:40Z</time>
      </trkpt>
      <trkpt lat="59.9517469" lon="17.685405">
        <ele>35.7061</ele>
        <time>2012-09-30T08:40:41Z</time>
      </trkpt>
      <trkpt lat="59.9517384" lon="17.6854418">
        <ele>36.1868</ele>
        <time>2012-09-30T08:40:42Z</time>
      </trkpt>
      <trkpt lat="59.9517264" lon="17.6854793">
        <ele>37.1481</ele>
        <time>2012-09-30T08:40:43Z</time>
      </trkpt>
      <trkpt lat="59.9517122" lon="17.6855185">
        <ele>37.6287</ele>
        <time>2012-09-30T08:40:44Z</time>
      </trkpt>
      <trkpt lat="59.9516987" lon="17.6855586">
        <ele>38.5901</ele>
        <time>2012-09-30T08:40:45Z</time>
      </trkpt>
      <trkpt lat="59.9516861" lon="17.6855955">
        <ele>39.0707</ele>
        <time>2012-09-30T08:40:46Z</time>
      </trkpt>
      <trkpt lat="59.951674" lon="17.6856371">
        <ele>39.5513</ele>
        <time>2012-09-30T08:40:47Z</time>
      </trkpt>
      <trkpt lat="59.9516611" lon="17.6856769">
        <ele>39.5513</ele>
        <time>2012-09-30T08:40:48Z</time>
      </trkpt>
      <trkpt lat="59.9516504" lon="17.6857127">
        <ele>40.0321</ele>
        <time>2012-09-30T08:40:49Z</time>
      </trkpt>
      <trkpt lat="59.9516352" lon="17.685762">
        <ele>40.5128</ele>
        <time>2012-09-30T08:40:50Z</time>
      </trkpt>
      <trkpt lat="59.9516173" lon="17.6857992">
        <ele>40.5128</ele>
        <time>2012-09-30T08:40:51Z</time>
      </trkpt>
      <trkpt lat="59.9516043" lon="17.6858299">
        <ele>40.9934</ele>
        <time>2012-09-30T08:40:52Z</time>
      </trkpt>
      <trkpt lat="59.9515918" lon="17.6858624">
        <ele>40.5128</ele>
        <time>2012-09-30T08:40:53Z</time>
      </trkpt>
      <trkpt lat="59.9515697" lon="17.6859001">
        <ele>40.5128</ele>
        <time>2012-09-30T08:40:54Z</time>
      </trkpt>
      <trkpt lat="59.9515435" lon="17.6859375">
        <ele>40.5128</ele>
        <time>2012-09-30T08:40:55Z</time>
      </trkpt>
      <trkpt lat="59.9515156" lon="17.6859913">
        <ele>40.0321</ele>
        <time>2012-09-30T08:40:56Z</time>
      </trkpt>
      <trkpt lat="59.9514955" lon="17.6860136">
        <ele>40.0321</ele>
        <time>2012-09-30T08:40:57Z</time>
      </trkpt>
      <trkpt lat="59.9514713" lon="17.6860372">
        <ele>40.0321</ele>
        <time>2012-09-30T08:40:58Z</time>
      </trkpt>
      <trkpt lat="59.9514435" lon="17.68605">
        <ele>40.0321</ele>
        <time>2012-09-30T08:40:59Z</time>
      </trkpt>
      <trkpt lat="59.9514178" lon="17.6860619">
        <ele>40.0321</ele>
        <time>2012-09-30T08:41:00Z</time>
      </trkpt>
      <trkpt lat="59.9513926" lon="17.6860685">
        <ele>40.0321</ele>
        <time>2012-09-30T08:41:01Z</time>
      </trkpt>
      <trkpt lat="59.9513646" lon="17.6860641">
        <ele>39.5513</ele>
        <time>2012-09-30T08:41:02Z</time>
      </trkpt>
      <trkpt lat="59.951337" lon="17.686063">
        <ele>39.5513</ele>
        <time>2012-09-30T08:41:03Z</time>
      </trkpt>
      <trkpt lat="59.9513189" lon="17.6860616">
        <ele>39.5513</ele>
        <time>2012-09-30T08:41:04Z</time>
      </trkpt>
      <trkpt lat="59.9513084" lon="17.6860609">
        <ele>39.5513</ele>
        <time>2012-09-30T08:41:05Z</time>
      </trkpt>
      <trkpt lat="59.9512955" lon="17.6860619">
        <ele>39.5513</ele>
        <time>2012-09-30T08:41:06Z</time>
      </trkpt>
      <trkpt lat="59.9512759" lon="17.6860533">
        <ele>40.0321</ele>
        <time>2012-09-30T08:41:07Z</time>
      </trkpt>
      <trkpt lat="59.95125" lon="17.6860484">
        <ele>39.5513</ele>
        <time>2012-09-30T08:41:08Z</time>
      </trkpt>
      <trkpt lat="59.9512283" lon="17.6860551">
        <ele>40.0321</ele>
        <time>2012-09-30T08:41:09Z</time>
      </trkpt>
      <trkpt lat="59.9512087" lon="17.6860532">
        <ele>40.0321</ele>
        <time>2012-09-30T08:41:10Z</time>
      </trkpt>
      <trkpt lat="59.9511872" lon="17.6860579">
        <ele>40.0321</ele>
        <time>2012-09-30T08:41:11Z</time>
      </trkpt>
      <trkpt lat="59.9511633" lon="17.6860739">
        <ele>40.5128</ele>
        <time>2012-09-30T08:41:12Z</time>
      </trkpt>
      <trkpt lat="59.951138" lon="17.6860857">
        <ele>40.5128</ele>
        <time>2012-09-30T08:41:13Z</time>
      </trkpt>
      <trkpt lat="59.9511086" lon="17.686093">
        <ele>40.0321</ele>
        <time>2012-09-30T08:41:14Z</time>
      </trkpt>
      <trkpt lat="59.951083" lon="17.6861013">
        <ele>40.0321</ele>
        <time>2012-09-30T08:41:15Z</time>
      </trkpt>
      <trkpt lat="59.9510639" lon="17.6861122">
        <ele>40.0321</ele>
        <time>2012-09-30T08:41:16Z</time>
      </trkpt>
      <trkpt lat="59.9510381" lon="17.6861184">
        <ele>40.0321</ele>
        <time>2012-09-30T08:41:17Z</time>
      </trkpt>
      <trkpt lat="59.951007" lon="17.6861346">
        <ele>40.0321</ele>
        <time>2012-09-30T08:41:18Z</time>
      </trkpt>
      <trkpt lat="59.9509775" lon="17.6861511">
        <ele>40.0321</ele>
        <time>2012-09-30T08:41:19Z</time>
      </trkpt>
      <trkpt lat="59.9509505" lon="17.6861589">
        <ele>40.0321</ele>
        <time>2012-09-30T08:41:20Z</time>
      </trkpt>
      <trkpt lat="59.9509272" lon="17.6861619">
        <ele>40.5128</ele>
        <time>2012-09-30T08:41:21Z</time>
      </trkpt>
      <trkpt lat="59.9509035" lon="17.6861587">
        <ele>40.5128</ele>
        <time>2012-09-30T08:41:22Z</time>
      </trkpt>
      <trkpt lat="59.9508796" lon="17.6861543">
        <ele>40.5128</ele>
        <time>2012-09-30T08:41:23Z</time>
      </trkpt>
      <trkpt lat="59.9508523" lon="17.686148">
        <ele>40.9934</ele>
        <time>2012-09-30T08:41:24Z</time>
      </trkpt>
      <trkpt lat="59.9508255" lon="17.6861438">
        <ele>40.5128</ele>
        <time>2012-09-30T08:41:25Z</time>
      </trkpt>
      <trkpt lat="59.9508071" lon="17.6861496">
        <ele>41.474</ele>
        <time>2012-09-30T08:41:26Z</time>
      </trkpt>
      <trkpt lat="59.9507844" lon="17.686156">
        <ele>40.9934</ele>
        <time>2012-09-30T08:41:27Z</time>
      </trkpt>
      <trkpt lat="59.9507662" lon="17.6861682">
        <ele>40.9934</ele>
        <time>2012-09-30T08:41:28Z</time>
      </trkpt>
      <trkpt lat="59.9507501" lon="17.6861836">
        <ele>40.9934</ele>
        <time>2012-09-30T08:41:29Z</time>
      </trkpt>
      <trkpt lat="59.9507287" lon="17.6862052">
        <ele>41.474</ele>
        <time>2012-09-30T08:41:30Z</time>
      </trkpt>
      <trkpt lat="59.9507023" lon="17.6862283">
        <ele>40.9934</ele>
        <time>2012-09-30T08:41:31Z</time>
      </trkpt>
      <trkpt lat="59.9506795" lon="17.686254">
        <ele>40.9934</ele>
        <time>2012-09-30T08:41:32Z</time>
      </trkpt>
      <trkpt lat="59.9506569" lon="17.6862785">
        <ele>40.9934</ele>
        <time>2012-09-30T08:41:33Z</time>
      </trkpt>
      <trkpt lat="59.9506326" lon="17.6862993">
        <ele>40.9934</ele>
        <time>2012-09-30T08:41:34Z</time>
      </trkpt>
      <trkpt lat="59.9506109" lon="17.6863199">
        <ele>40.5128</ele>
        <time>2012-09-30T08:41:35Z</time>
      </trkpt>
      <trkpt lat="59.9505936" lon="17.6863385">
        <ele>40.5128</ele>
        <time>2012-09-30T08:41:36Z</time>
      </trkpt>
      <trkpt lat="59.9505766" lon="17.6863609">
        <ele>40.0321</ele>
        <time>2012-09-30T08:41:37Z</time>
      </trkpt>
      <trkpt lat="59.9505565" lon="17.6864016">
        <ele>40.0321</ele>
        <time>2012-09-30T08:41:38Z</time>
      </trkpt>
      <trkpt lat="59.950538" lon="17.6864373">
        <ele>40.0321</ele>
        <time>2012-09-30T08:41:39Z</time>
      </trkpt>
      <trkpt lat="59.950522" lon="17.6864727">
        <ele>40.5128</ele>
        <time>2012-09-30T08:41:40Z</time>
      </trkpt>
      <trkpt lat="59.9505055" lon="17.6865116">
        <ele>41.9547</ele>
        <time>2012-09-30T08:41:41Z</time>
      </trkpt>
      <trkpt lat="59.9504871" lon="17.6865422">
        <ele>41.474</ele>
        <time>2012-09-30T08:41:42Z</time>
      </trkpt>
      <trkpt lat="59.9504691" lon="17.6865687">
        <ele>40.9934</ele>
        <time>2012-09-30T08:41:43Z</time>
      </trkpt>
      <trkpt lat="59.9504503" lon="17.6865971">
        <ele>40.9934</ele>
        <time>2012-09-30T08:41:44Z</time>
      </trkpt>
      <trkpt lat="59.9504304" lon="17.6866286">
        <ele>40.5128</ele>
        <time>2012-09-30T08:41:45Z</time>
      </trkpt>
      <trkpt lat="59.9504139" lon="17.686657">
        <ele>40.0321</ele>
        <time>2012-09-30T08:41:46Z</time>
      </trkpt>
      <trkpt lat="59.9503994" lon="17.6866987">
        <ele>40.0321</ele>
        <time>2012-09-30T08:41:47Z</time>
      </trkpt>
      <trkpt lat="59.9503835" lon="17.686735">
        <ele>39.5513</ele>
        <time>2012-09-30T08:41:48Z</time>
      </trkpt>
      <trkpt lat="59.9503663" lon="17.6867649">
        <ele>38.5901</ele>
        <time>2012-09-30T08:41:49Z</time>
      </trkpt>
      <trkpt lat="59.9503517" lon="17.6867902">
        <ele>38.5901</ele>
        <time>2012-09-30T08:41:50Z</time>
      </trkpt>
      <trkpt lat="59.9503378" lon="17.686821">
        <ele>38.5901</ele>
        <time>2012-09-30T08:41:51Z</time>
      </trkpt>
      <trkpt lat="59.9503223" lon="17.686854">
        <ele>38.5901</ele>
        <time>2012-09-30T08:41:52Z</time>
      </trkpt>
      <trkpt lat="59.9503058" lon="17.6868938">
        <ele>38.5901</ele>
        <time>2012-09-30T08:41:53Z</time>
      </trkpt>
      <trkpt lat="59.950289" lon="17.6869356">
        <ele>38.5901</ele>
        <time>2012-09-30T08:41:54Z</time>
      </trkpt>
      <trkpt lat="59.9502707" lon="17.6869814">
        <ele>38.5901</ele>
        <time>2012-09-30T08:41:55Z</time>
      </trkpt>
      <trkpt lat="59.9502574" lon="17.6870332">
        <ele>38.5901</ele>
        <time>2012-09-30T08:41:56Z</time>
      </trkpt>
      <trkpt lat="59.9502496" lon="17.6870768">
        <ele>38.5901</ele>
        <time>2012-09-30T08:41:57Z</time>
      </trkpt>
      <trkpt lat="59.9502409" lon="17.6871177">
        <ele>38.5901</ele>
        <time>2012-09-30T08:41:58Z</time>
      </trkpt>
      <trkpt lat="59.9502304" lon="17.6871555">
        <ele>38.5901</ele>
        <time>2012-09-30T08:41:59Z</time>
      </trkpt>
      <trkpt lat="59.9502192" lon="17.6872">
        <ele>39.0707</ele>
        <time>2012-09-30T08:42:00Z</time>
      </trkpt>
      <trkpt lat="59.9502065" lon="17.6872534">
        <ele>39.5513</ele>
        <time>2012-09-30T08:42:01Z</time>
      </trkpt>
      <trkpt lat="59.9501916" lon="17.6873073">
        <ele>39.5513</ele>
        <time>2012-09-30T08:42:02Z</time>
      </trkpt>
      <trkpt lat="59.9501825" lon="17.6873568">
        <ele>40.0321</ele>
        <time>2012-09-30T08:42:03Z</time>
      </trkpt>
      <trkpt lat="59.9501762" lon="17.6873952">
        <ele>40.0321</ele>
        <time>2012-09-30T08:42:04Z</time>
      </trkpt>
      <trkpt lat="59.9501725" lon="17.6874352">
        <ele>40.0321</ele>
        <time>2012-09-30T08:42:05Z</time>
      </trkpt>
      <trkpt lat="59.9501698" lon="17.6874822">
        <ele>40.0321</ele>
        <time>2012-09-30T08:42:06Z</time>
      </trkpt>
      <trkpt lat="59.9501623" lon="17.687537">
        <ele>40.0321</ele>
        <time>2012-09-30T08:42:07Z</time>
      </trkpt>
      <trkpt lat="59.9501532" lon="17.6875915">
        <ele>40.0321</ele>
        <time>2012-09-30T08:42:08Z</time>
      </trkpt>
      <trkpt lat="59.9501451" lon="17.6876295">
        <ele>40.0321</ele>
        <time>2012-09-30T08:42:09Z</time>
      </trkpt>
      <trkpt lat="59.9501418" lon="17.6876766">
        <ele>40.5128</ele>
        <time>2012-09-30T08:42:10Z</time>
      </trkpt>
      <trkpt lat="59.9501378" lon="17.6877184">
        <ele>40.9934</ele>
        <time>2012-09-30T08:42:11Z</time>
      </trkpt>
      <trkpt lat="59.9501356" lon="17.6877388">
        <ele>40.9934</ele>
        <time>2012-09-30T08:42:12Z</time>
      </trkpt>
      <trkpt lat="59.9501356" lon="17.6877544">
        <ele>40.9934</ele>
        <time>2012-09-30T08:42:13Z</time>
      </trkpt>
      <trkpt lat="59.950135" lon="17.6877878">
        <ele>40.9934</ele>
        <time>2012-09-30T08:42:14Z</time>
      </trkpt>
      <trkpt lat="59.9501357" lon="17.6878254">
        <ele>41.474</ele>
        <time>2012-09-30T08:42:15Z</time>
      </trkpt>
      <trkpt lat="59.9501348" lon="17.6878728">
        <ele>41.9547</ele>
        <time>2012-09-30T08:42:16Z</time>
      </trkpt>
      <trkpt lat="59.9501383" lon="17.6879251">
        <ele>41.474</ele>
        <time>2012-09-30T08:42:17Z</time>
      </trkpt>
      <trkpt lat="59.9501482" lon="17.6879765">
        <ele>41.9547</ele>
        <time>2012-09-30T08:42:18Z</time>
      </trkpt>
      <trkpt lat="59.9501644" lon="17.6880219">
        <ele>41.9547</ele>
        <time>2012-09-30T08:42:19Z</time>
      </trkpt>
      <trkpt lat="59.9501874" lon="17.688052">
        <ele>41.474</ele>
        <time>2012-09-30T08:42:20Z</time>
      </trkpt>
      <trkpt lat="59.9502093" lon="17.6880838">
        <ele>40.9934</ele>
        <time>2012-09-30T08:42:21Z</time>
      </trkpt>
      <trkpt lat="59.9502322" lon="17.6881107">
        <ele>40.5128</ele>
        <time>2012-09-30T08:42:22Z</time>
      </trkpt>
      <trkpt lat="59.9502544" lon="17.6881328">
        <ele>39.5513</ele>
        <time>2012-09-30T08:42:23Z</time>
      </trkpt>
      <trkpt lat="59.9502741" lon="17.6881499">
        <ele>39.0707</ele>
        <time>2012-09-30T08:42:24Z</time>
      </trkpt>
      <trkpt lat="59.9502939" lon="17.6881737">
        <ele>39.0707</ele>
        <time>2012-09-30T08:42:25Z</time>
      </trkpt>
      <trkpt lat="59.950318" lon="17.6881956">
        <ele>38.5901</ele>
        <time>2012-09-30T08:42:26Z</time>
      </trkpt>
      <trkpt lat="59.9503429" lon="17.6882148">
        <ele>38.5901</ele>
        <time>2012-09-30T08:42:27Z</time>
      </trkpt>
      <trkpt lat="59.9503677" lon="17.6882325">
        <ele>38.5901</ele>
        <time>2012-09-30T08:42:28Z</time>
      </trkpt>
      <trkpt lat="59.9503878" lon="17.6882578">
        <ele>38.5901</ele>
        <time>2012-09-30T08:42:29Z</time>
      </trkpt>
      <trkpt lat="59.9504103" lon="17.6882801">
        <ele>38.5901</ele>
        <time>2012-09-30T08:42:30Z</time>
      </trkpt>
      <trkpt lat="59.9504362" lon="17.6883003">
        <ele>38.1094</ele>
        <time>2012-09-30T08:42:31Z</time>
      </trkpt>
      <trkpt lat="59.950465" lon="17.6883252">
        <ele>38.1094</ele>
        <time>2012-09-30T08:42:32Z</time>
      </trkpt>
      <trkpt lat="59.9504973" lon="17.6883462">
        <ele>37.6287</ele>
        <time>2012-09-30T08:42:33Z</time>
      </trkpt>
      <trkpt lat="59.9505186" lon="17.6883737">
        <ele>37.6287</ele>
        <time>2012-09-30T08:42:34Z</time>
      </trkpt>
      <trkpt lat="59.9505367" lon="17.6884012">
        <ele>37.1481</ele>
        <time>2012-09-30T08:42:35Z</time>
      </trkpt>
      <trkpt lat="59.9505569" lon="17.6884273">
        <ele>37.1481</ele>
        <time>2012-09-30T08:42:36Z</time>
      </trkpt>
      <trkpt lat="59.9505797" lon="17.6884563">
        <ele>37.1481</ele>
        <time>2012-09-30T08:42:37Z</time>
      </trkpt>
      <trkpt lat="59.9505982" lon="17.6884878">
        <ele>36.6675</ele>
        <time>2012-09-30T08:42:38Z</time>
      </trkpt>
      <trkpt lat="59.9506175" lon="17.6885156">
        <ele>36.1868</ele>
        <time>2012-09-30T08:42:39Z</time>
      </trkpt>
      <trkpt lat="59.9506404" lon="17.6885423">
        <ele>36.6675</ele>
        <time>2012-09-30T08:42:40Z</time>
      </trkpt>
      <trkpt lat="59.9506598" lon="17.6885752">
        <ele>36.6675</ele>
        <time>2012-09-30T08:42:41Z</time>
      </trkpt>
      <trkpt lat="59.9506753" lon="17.6886116">
        <ele>36.1868</ele>
        <time>2012-09-30T08:42:42Z</time>
      </trkpt>
      <trkpt lat="59.9506942" lon="17.6886477">
        <ele>35.7061</ele>
        <time>2012-09-30T08:42:43Z</time>
      </trkpt>
      <trkpt lat="59.9507118" lon="17.6886814">
        <ele>35.2255</ele>
        <time>2012-09-30T08:42:44Z</time>
      </trkpt>
      <trkpt lat="59.9507231" lon="17.6887204">
        <ele>34.7449</ele>
        <time>2012-09-30T08:42:45Z</time>
      </trkpt>
      <trkpt lat="59.9507347" lon="17.6887627">
        <ele>34.7449</ele>
        <time>2012-09-30T08:42:46Z</time>
      </trkpt>
      <trkpt lat="59.9507439" lon="17.6888074">
        <ele>34.2642</ele>
        <time>2012-09-30T08:42:47Z</time>
      </trkpt>
      <trkpt lat="59.9507554" lon="17.6888561">
        <ele>34.2642</ele>
        <time>2012-09-30T08:42:48Z</time>
      </trkpt>
      <trkpt lat="59.950759" lon="17.6889079">
        <ele>34.2642</ele>
        <time>2012-09-30T08:42:49Z</time>
      </trkpt>
      <trkpt lat="59.9507553" lon="17.688955">
        <ele>33.7834</ele>
        <time>2012-09-30T08:42:50Z</time>
      </trkpt>
      <trkpt lat="59.9507476" lon="17.689001">
        <ele>33.7834</ele>
        <time>2012-09-30T08:42:51Z</time>
      </trkpt>
      <trkpt lat="59.9507412" lon="17.6890441">
        <ele>34.2642</ele>
        <time>2012-09-30T08:42:52Z</time>
      </trkpt>
      <trkpt lat="59.9507351" lon="17.6890841">
        <ele>34.7449</ele>
        <time>2012-09-30T08:42:53Z</time>
      </trkpt>
      <trkpt lat="59.9507309" lon="17.6891256">
        <ele>34.2642</ele>
        <time>2012-09-30T08:42:54Z</time>
      </trkpt>
      <trkpt lat="59.9507315" lon="17.6891752">
        <ele>34.2642</ele>
        <time>2012-09-30T08:42:55Z</time>
      </trkpt>
      <trkpt lat="59.9507361" lon="17.689228">
        <ele>33.7834</ele>
        <time>2012-09-30T08:42:56Z</time>
      </trkpt>
      <trkpt lat="59.9507398" lon="17.6892715">
        <ele>33.7834</ele>
        <time>2012-09-30T08:42:57Z</time>
      </trkpt>
      <trkpt lat="59.9507428" lon="17.6893123">
        <ele>33.7834</ele>
        <time>2012-09-30T08:42:58Z</time>
      </trkpt>
      <trkpt lat="59.9507455" lon="17.6893569">
        <ele>33.3029</ele>
        <time>2012-09-30T08:42:59Z</time>
      </trkpt>
      <trkpt lat="59.9507484" lon="17.689405">
        <ele>33.3029</ele>
        <time>2012-09-30T08:43:00Z</time>
      </trkpt>
      <trkpt lat="59.950753" lon="17.6894472">
        <ele>32.3416</ele>
        <time>2012-09-30T08:43:01Z</time>
      </trkpt>
      <trkpt lat="59.9507584" lon="17.6894916">
        <ele>31.8607</ele>
        <time>2012-09-30T08:43:02Z</time>
      </trkpt>
      <trkpt lat="59.950759" lon="17.689543">
        <ele>32.3416</ele>
        <time>2012-09-30T08:43:03Z</time>
      </trkpt>
      <trkpt lat="59.9507543" lon="17.6895906">
        <ele>31.8607</ele>
        <time>2012-09-30T08:43:04Z</time>
      </trkpt>
      <trkpt lat="59.9507491" lon="17.6896376">
        <ele>31.8607</ele>
        <time>2012-09-30T08:43:05Z</time>
      </trkpt>
      <trkpt lat="59.9507422" lon="17.6896814">
        <ele>31.8607</ele>
        <time>2012-09-30T08:43:06Z</time>
      </trkpt>
      <trkpt lat="59.950733" lon="17.6897262">
        <ele>30.8995</ele>
        <time>2012-09-30T08:43:07Z</time>
      </trkpt>
      <trkpt lat="59.9507247" lon="17.6897725">
        <ele>31.3801</ele>
        <time>2012-09-30T08:43:08Z</time>
      </trkpt>
      <trkpt lat="59.9507157" lon="17.689815">
        <ele>31.3801</ele>
        <time>2012-09-30T08:43:09Z</time>
      </trkpt>
      <trkpt lat="59.9507062" lon="17.6898598">
        <ele>31.3801</ele>
        <time>2012-09-30T08:43:10Z</time>
      </trkpt>
      <trkpt lat="59.9506984" lon="17.6898914">
        <ele>31.3801</ele>
        <time>2012-09-30T08:43:11Z</time>
      </trkpt>
      <trkpt lat="59.9506926" lon="17.6899253">
        <ele>31.3801</ele>
        <time>2012-09-30T08:43:12Z</time>
      </trkpt>
      <trkpt lat="59.9506878" lon="17.6899676">
        <ele>32.3416</ele>
        <time>2012-09-30T08:43:13Z</time>
      </trkpt>
      <trkpt lat="59.9506791" lon="17.6900074">
        <ele>32.8223</ele>
        <time>2012-09-30T08:43:14Z</time>
      </trkpt>
      <trkpt lat="59.9506706" lon="17.6900517">
        <ele>32.8223</ele>
        <time>2012-09-30T08:43:15Z</time>
      </trkpt>
      <trkpt lat="59.9506635" lon="17.6901129">
        <ele>33.3029</ele>
        <time>2012-09-30T08:43:16Z</time>
      </trkpt>
      <trkpt lat="59.9506574" lon="17.6901712">
        <ele>34.2642</ele>
        <time>2012-09-30T08:43:17Z</time>
      </trkpt>
      <trkpt lat="59.9506537" lon="17.6902185">
        <ele>34.7449</ele>
        <time>2012-09-30T08:43:18Z</time>
      </trkpt>
      <trkpt lat="59.9506511" lon="17.6902635">
        <ele>34.7449</ele>
        <time>2012-09-30T08:43:19Z</time>
      </trkpt>
      <trkpt lat="59.9506486" lon="17.6903091">
        <ele>35.7061</ele>
        <time>2012-09-30T08:43:20Z</time>
      </trkpt>
      <trkpt lat="59.9506473" lon="17.6903635">
        <ele>36.6675</ele>
        <time>2012-09-30T08:43:21Z</time>
      </trkpt>
      <trkpt lat="59.9506455" lon="17.690421">
        <ele>37.6287</ele>
        <time>2012-09-30T08:43:22Z</time>
      </trkpt>
      <trkpt lat="59.9506408" lon="17.6904706">
        <ele>37.6287</ele>
        <time>2012-09-30T08:43:23Z</time>
      </trkpt>
      <trkpt lat="59.9506362" lon="17.6905122">
        <ele>37.6287</ele>
        <time>2012-09-30T08:43:24Z</time>
      </trkpt>
      <trkpt lat="59.9506305" lon="17.6905532">
        <ele>36.6675</ele>
        <time>2012-09-30T08:43:25Z</time>
      </trkpt>
      <trkpt lat="59.9506263" lon="17.6905956">
        <ele>36.6675</ele>
        <time>2012-09-30T08:43:26Z</time>
      </trkpt>
      <trkpt lat="59.9506212" lon="17.6906373">
        <ele>36.6675</ele>
        <time>2012-09-30T08:43:27Z</time>
      </trkpt>
      <trkpt lat="59.9506175" lon="17.6906842">
        <ele>37.6287</ele>
        <time>2012-09-30T08:43:28Z</time>
      </trkpt>
      <trkpt lat="59.9506096" lon="17.6907298">
        <ele>38.1094</ele>
        <time>2012-09-30T08:43:29Z</time>
      </trkpt>
      <trkpt lat="59.9506036" lon="17.6907722">
        <ele>37.6287</ele>
        <time>2012-09-30T08:43:30Z</time>
      </trkpt>
      <trkpt lat="59.9506014" lon="17.6908173">
        <ele>37.1481</ele>
        <time>2012-09-30T08:43:31Z</time>
      </trkpt>
      <trkpt lat="59.9505982" lon="17.6908627">
        <ele>37.1481</ele>
        <time>2012-09-30T08:43:32Z</time>
      </trkpt>
      <trkpt lat="59.9505937" lon="17.6909072">
        <ele>37.1481</ele>
        <time>2012-09-30T08:43:33Z</time>
      </trkpt>
      <trkpt lat="59.950593" lon="17.6909482">
        <ele>37.1481</ele>
        <time>2012-09-30T08:43:34Z</time>
      </trkpt>
      <trkpt lat="59.9505915" lon="17.6909888">
        <ele>36.6675</ele>
        <time>2012-09-30T08:43:35Z</time>
      </trkpt>
      <trkpt lat="59.9505863" lon="17.6910336">
        <ele>36.6675</ele>
        <time>2012-09-30T08:43:36Z</time>
      </trkpt>
      <trkpt lat="59.9505849" lon="17.6910764">
        <ele>36.1868</ele>
        <time>2012-09-30T08:43:37Z</time>
      </trkpt>
      <trkpt lat="59.9505873" lon="17.6911248">
        <ele>36.1868</ele>
        <time>2012-09-30T08:43:38Z</time>
      </trkpt>
      <trkpt lat="59.9505879" lon="17.6911681">
        <ele>35.7061</ele>
        <time>2012-09-30T08:43:39Z</time>
      </trkpt>
      <trkpt lat="59.9505857" lon="17.6912106">
        <ele>35.7061</ele>
        <time>2012-09-30T08:43:40Z</time>
      </trkpt>
      <trkpt lat="59.9505821" lon="17.6912519">
        <ele>34.7449</ele>
        <time>2012-09-30T08:43:41Z</time>
      </trkpt>
      <trkpt lat="59.9505796" lon="17.6912985">
        <ele>34.2642</ele>
        <time>2012-09-30T08:43:42Z</time>
      </trkpt>
      <trkpt lat="59.9505786" lon="17.6913463">
        <ele>34.2642</ele>
        <time>2012-09-30T08:43:43Z</time>
      </trkpt>
      <trkpt lat="59.950575" lon="17.6913887">
        <ele>33.7834</ele>
        <time>2012-09-30T08:43:44Z</time>
      </trkpt>
      <trkpt lat="59.9505687" lon="17.6914323">
        <ele>33.3029</ele>
        <time>2012-09-30T08:43:45Z</time>
      </trkpt>
      <trkpt lat="59.9505666" lon="17.6914757">
        <ele>32.8223</ele>
        <time>2012-09-30T08:43:46Z</time>
      </trkpt>
      <trkpt lat="59.9505693" lon="17.6915219">
        <ele>32.3416</ele>
        <time>2012-09-30T08:43:47Z</time>
      </trkpt>
      <trkpt lat="59.9505703" lon="17.6915653">
        <ele>31.8607</ele>
        <time>2012-09-30T08:43:48Z</time>
      </trkpt>
      <trkpt lat="59.9505665" lon="17.6916104">
        <ele>31.8607</ele>
        <time>2012-09-30T08:43:49Z</time>
      </trkpt>
      <trkpt lat="59.9505601" lon="17.6916569">
        <ele>31.3801</ele>
        <time>2012-09-30T08:43:50Z</time>
      </trkpt>
      <trkpt lat="59.9505572" lon="17.6917046">
        <ele>31.3801</ele>
        <time>2012-09-30T08:43:51Z</time>
      </trkpt>
      <trkpt lat="59.9505557" lon="17.6917506">
        <ele>31.3801</ele>
        <time>2012-09-30T08:43:52Z</time>
      </trkpt>
      <trkpt lat="59.9505557" lon="17.6917943">
        <ele>31.8607</ele>
        <time>2012-09-30T08:43:53Z</time>
      </trkpt>
      <trkpt lat="59.9505541" lon="17.6918337">
        <ele>31.8607</ele>
        <time>2012-09-30T08:43:54Z</time>
      </trkpt>
      <trkpt lat="59.950552" lon="17.6918735">
        <ele>31.8607</ele>
        <time>2012-09-30T08:43:55Z</time>
      </trkpt>
      <trkpt lat="59.9505512" lon="17.6919186">
        <ele>32.3416</ele>
        <time>2012-09-30T08:43:56Z</time>
      </trkpt>
      <trkpt lat="59.9505491" lon="17.6919664">
        <ele>32.8223</ele>
        <time>2012-09-30T08:43:57Z</time>
      </trkpt>
      <trkpt lat="59.950544" lon="17.6920052">
        <ele>33.3029</ele>
        <time>2012-09-30T08:43:58Z</time>
      </trkpt>
      <trkpt lat="59.9505366" lon="17.692042">
        <ele>33.3029</ele>
        <time>2012-09-30T08:43:59Z</time>
      </trkpt>
      <trkpt lat="59.9505273" lon="17.6920859">
        <ele>33.7834</ele>
        <time>2012-09-30T08:44:00Z</time>
      </trkpt>
      <trkpt lat="59.9505109" lon="17.6921299">
        <ele>33.7834</ele>
        <time>2012-09-30T08:44:01Z</time>
      </trkpt>
      <trkpt lat="59.950488" lon="17.6921474">
        <ele>34.7449</ele>
        <time>2012-09-30T08:44:02Z</time>
      </trkpt>
      <trkpt lat="59.9504636" lon="17.6921491">
        <ele>34.7449</ele>
        <time>2012-09-30T08:44:03Z</time>
      </trkpt>
      <trkpt lat="59.950437" lon="17.6921699">
        <ele>35.7061</ele>
        <time>2012-09-30T08:44:04Z</time>
      </trkpt>
      <trkpt lat="59.950412" lon="17.6921818">
        <ele>36.1868</ele>
        <time>2012-09-30T08:44:05Z</time>
      </trkpt>
      <trkpt lat="59.9503915" lon="17.6921973">
        <ele>36.1868</ele>
        <time>2012-09-30T08:44:06Z</time>
      </trkpt>
      <trkpt lat="59.9503751" lon="17.6922199">
        <ele>36.1868</ele>
        <time>2012-09-30T08:44:07Z</time>
      </trkpt>
      <trkpt lat="59.9503625" lon="17.6922527">
        <ele>36.1868</ele>
        <time>2012-09-30T08:44:08Z</time>
      </trkpt>
      <trkpt lat="59.9503497" lon="17.6922905">
        <ele>36.6675</ele>
        <time>2012-09-30T08:44:09Z</time>
      </trkpt>
      <trkpt lat="59.9503388" lon="17.6923286">
        <ele>36.6675</ele>
        <time>2012-09-30T08:44:10Z</time>
      </trkpt>
      <trkpt lat="59.9503312" lon="17.6923722">
        <ele>37.1481</ele>
        <time>2012-09-30T08:44:11Z</time>
      </trkpt>
      <trkpt lat="59.9503222" lon="17.6924219">
        <ele>37.1481</ele>
        <time>2012-09-30T08:44:12Z</time>
      </trkpt>
      <trkpt lat="59.9503132" lon="17.6924718">
        <ele>37.6287</ele>
        <time>2012-09-30T08:44:13Z</time>
      </trkpt>
      <trkpt lat="59.9503057" lon="17.69252">
        <ele>37.6287</ele>
        <time>2012-09-30T08:44:14Z</time>
      </trkpt>
      <trkpt lat="59.9502967" lon="17.6925698">
        <ele>38.1094</ele>
        <time>2012-09-30T08:44:15Z</time>
      </trkpt>
      <trkpt lat="59.9502868" lon="17.6926147">
        <ele>38.1094</ele>
        <time>2012-09-30T08:44:16Z</time>
      </trkpt>
      <trkpt lat="59.9502781" lon="17.692662">
        <ele>38.5901</ele>
        <time>2012-09-30T08:44:17Z</time>
      </trkpt>
      <trkpt lat="59.9502704" lon="17.6927064">
        <ele>38.5901</ele>
        <time>2012-09-30T08:44:18Z</time>
      </trkpt>
      <trkpt lat="59.9502632" lon="17.6927515">
        <ele>38.5901</ele>
        <time>2012-09-30T08:44:19Z</time>
      </trkpt>
      <trkpt lat="59.9502543" lon="17.6927982">
        <ele>39.5513</ele>
        <time>2012-09-30T08:44:20Z</time>
      </trkpt>
      <trkpt lat="59.9502459" lon="17.6928428">
        <ele>39.0707</ele>
        <time>2012-09-30T08:44:21Z</time>
      </trkpt>
      <trkpt lat="59.9502378" lon="17.6928862">
        <ele>39.0707</ele>
        <time>2012-09-30T08:44:22Z</time>
      </trkpt>
      <trkpt lat="59.9502295" lon="17.6929371">
        <ele>39.0707</ele>
        <time>2012-09-30T08:44:23Z</time>
      </trkpt>
      <trkpt lat="59.9502221" lon="17.6929842">
        <ele>39.5513</ele>
        <time>2012-09-30T08:44:24Z</time>
      </trkpt>
      <trkpt lat="59.9502154" lon="17.693029">
        <ele>39.5513</ele>
        <time>2012-09-30T08:44:25Z</time>
      </trkpt>
      <trkpt lat="59.9502075" lon="17.6930831">
        <ele>39.5513</ele>
        <time>2012-09-30T08:44:26Z</time>
      </trkpt>
      <trkpt lat="59.9502013" lon="17.6931357">
        <ele>39.5513</ele>
        <time>2012-09-30T08:44:27Z</time>
      </trkpt>
      <trkpt lat="59.9501962" lon="17.6931808">
        <ele>40.0321</ele>
        <time>2012-09-30T08:44:28Z</time>
      </trkpt>
      <trkpt lat="59.9501894" lon="17.6932251">
        <ele>40.0321</ele>
        <time>2012-09-30T08:44:29Z</time>
      </trkpt>
      <trkpt lat="59.9501834" lon="17.6932704">
        <ele>40.5128</ele>
        <time>2012-09-30T08:44:30Z</time>
      </trkpt>
      <trkpt lat="59.9501794" lon="17.6933115">
        <ele>40.9934</ele>
        <time>2012-09-30T08:44:31Z</time>
      </trkpt>
      <trkpt lat="59.9501763" lon="17.6933565">
        <ele>41.474</ele>
        <time>2012-09-30T08:44:32Z</time>
      </trkpt>
      <trkpt lat="59.9501703" lon="17.6934057">
        <ele>41.474</ele>
        <time>2012-09-30T08:44:33Z</time>
      </trkpt>
      <trkpt lat="59.9501647" lon="17.6934618">
        <ele>41.9547</ele>
        <time>2012-09-30T08:44:34Z</time>
      </trkpt>
      <trkpt lat="59.9501578" lon="17.6935121">
        <ele>40.5128</ele>
        <time>2012-09-30T08:44:35Z</time>
      </trkpt>
      <trkpt lat="59.9501521" lon="17.6935632">
        <ele>40.9934</ele>
        <time>2012-09-30T08:44:36Z</time>
      </trkpt>
      <trkpt lat="59.9501466" lon="17.6936059">
        <ele>40.9934</ele>
        <time>2012-09-30T08:44:37Z</time>
      </trkpt>
      <trkpt lat="59.9501415" lon="17.6936459">
        <ele>41.474</ele>
        <time>2012-09-30T08:44:38Z</time>
      </trkpt>
      <trkpt lat="59.9501371" lon="17.6936898">
        <ele>41.474</ele>
        <time>2012-09-30T08:44:39Z</time>
      </trkpt>
      <trkpt lat="59.9501333" lon="17.6937374">
        <ele>41.474</ele>
        <time>2012-09-30T08:44:40Z</time>
      </trkpt>
      <trkpt lat="59.9501314" lon="17.6937838">
        <ele>41.474</ele>
        <time>2012-09-30T08:44:41Z</time>
      </trkpt>
      <trkpt lat="59.9501311" lon="17.6938358">
        <ele>40.9934</ele>
        <time>2012-09-30T08:44:42Z</time>
      </trkpt>
      <trkpt lat="59.95013" lon="17.6938865">
        <ele>40.9934</ele>
        <time>2012-09-30T08:44:43Z</time>
      </trkpt>
      <trkpt lat="59.9501259" lon="17.6939363">
        <ele>40.9934</ele>
        <time>2012-09-30T08:44:44Z</time>
      </trkpt>
      <trkpt lat="59.9501223" lon="17.6939842">
        <ele>40.9934</ele>
        <time>2012-09-30T08:44:45Z</time>
      </trkpt>
      <trkpt lat="59.9501191" lon="17.6940314">
        <ele>41.474</ele>
        <time>2012-09-30T08:44:46Z</time>
      </trkpt>
      <trkpt lat="59.9501149" lon="17.694078">
        <ele>40.5128</ele>
        <time>2012-09-30T08:44:47Z</time>
      </trkpt>
      <trkpt lat="59.9501094" lon="17.6941341">
        <ele>40.5128</ele>
        <time>2012-09-30T08:44:48Z</time>
      </trkpt>
      <trkpt lat="59.9501043" lon="17.6941888">
        <ele>40.5128</ele>
        <time>2012-09-30T08:44:49Z</time>
      </trkpt>
      <trkpt lat="59.9501005" lon="17.6942342">
        <ele>40.0321</ele>
        <time>2012-09-30T08:44:50Z</time>
      </trkpt>
      <trkpt lat="59.9500979" lon="17.6942818">
        <ele>40.0321</ele>
        <time>2012-09-30T08:44:51Z</time>
      </trkpt>
      <trkpt lat="59.9500947" lon="17.6943258">
        <ele>39.0707</ele>
        <time>2012-09-30T08:44:52Z</time>
      </trkpt>
      <trkpt lat="59.9500921" lon="17.6943657">
        <ele>38.1094</ele>
        <time>2012-09-30T08:44:53Z</time>
      </trkpt>
      <trkpt lat="59.9500891" lon="17.6944082">
        <ele>37.1481</ele>
        <time>2012-09-30T08:44:54Z</time>
      </trkpt>
      <trkpt lat="59.95009" lon="17.694452">
        <ele>37.6287</ele>
        <time>2012-09-30T08:44:55Z</time>
      </trkpt>
      <trkpt lat="59.9500892" lon="17.6944884">
        <ele>37.1481</ele>
        <time>2012-09-30T08:44:56Z</time>
      </trkpt>
      <trkpt lat="59.9500886" lon="17.6945345">
        <ele>36.6675</ele>
        <time>2012-09-30T08:44:57Z</time>
      </trkpt>
      <trkpt lat="59.9500898" lon="17.6945857">
        <ele>36.6675</ele>
        <time>2012-09-30T08:44:58Z</time>
      </trkpt>
      <trkpt lat="59.9500906" lon="17.6946357">
        <ele>36.6675</ele>
        <time>2012-09-30T08:44:59Z</time>
      </trkpt>
      <trkpt lat="59.9500917" lon="17.6946799">
        <ele>36.1868</ele>
        <time>2012-09-30T08:45:00Z</time>
      </trkpt>
      <trkpt lat="59.9500928" lon="17.6947205">
        <ele>35.7061</ele>
        <time>2012-09-30T08:45:01Z</time>
      </trkpt>
      <trkpt lat="59.9500933" lon="17.6947634">
        <ele>35.7061</ele>
        <time>2012-09-30T08:45:02Z</time>
      </trkpt>
      <trkpt lat="59.9500948" lon="17.6948079">
        <ele>36.1868</ele>
        <time>2012-09-30T08:45:03Z</time>
      </trkpt>
      <trkpt lat="59.9500957" lon="17.6948571">
        <ele>36.1868</ele>
        <time>2012-09-30T08:45:04Z</time>
      </trkpt>
      <trkpt lat="59.9500929" lon="17.6949071">
        <ele>35.7061</ele>
        <time>2012-09-30T08:45:05Z</time>
      </trkpt>
      <trkpt lat="59.9500943" lon="17.6949515">
        <ele>36.1868</ele>
        <time>2012-09-30T08:45:06Z</time>
      </trkpt>
      <trkpt lat="59.9500969" lon="17.6949959">
        <ele>35.7061</ele>
        <time>2012-09-30T08:45:07Z</time>
      </trkpt>
      <trkpt lat="59.9500985" lon="17.6950448">
        <ele>35.7061</ele>
        <time>2012-09-30T08:45:08Z</time>
      </trkpt>
      <trkpt lat="59.9501011" lon="17.695087">
        <ele>35.7061</ele>
        <time>2012-09-30T08:45:09Z</time>
      </trkpt>
      <trkpt lat="59.9501017" lon="17.6951292">
        <ele>35.2255</ele>
        <time>2012-09-30T08:45:10Z</time>
      </trkpt>
      <trkpt lat="59.9501006" lon="17.69518">
        <ele>34.7449</ele>
        <time>2012-09-30T08:45:11Z</time>
      </trkpt>
      <trkpt lat="59.9501021" lon="17.6952279">
        <ele>34.2642</ele>
        <time>2012-09-30T08:45:12Z</time>
      </trkpt>
      <trkpt lat="59.9501047" lon="17.6952726">
        <ele>33.7834</ele>
        <time>2012-09-30T08:45:13Z</time>
      </trkpt>
      <trkpt lat="59.9501081" lon="17.6953198">
        <ele>33.3029</ele>
        <time>2012-09-30T08:45:14Z</time>
      </trkpt>
      <trkpt lat="59.9501124" lon="17.6953598">
        <ele>33.3029</ele>
        <time>2012-09-30T08:45:15Z</time>
      </trkpt>
      <trkpt lat="59.9501188" lon="17.6953965">
        <ele>33.3029</ele>
        <time>2012-09-30T08:45:16Z</time>
      </trkpt>
      <trkpt lat="59.9501244" lon="17.6954417">
        <ele>33.7834</ele>
        <time>2012-09-30T08:45:17Z</time>
      </trkpt>
      <trkpt lat="59.9501232" lon="17.6954973">
        <ele>33.7834</ele>
        <time>2012-09-30T08:45:18Z</time>
      </trkpt>
      <trkpt lat="59.9501237" lon="17.6955424">
        <ele>33.3029</ele>
        <time>2012-09-30T08:45:19Z</time>
      </trkpt>
      <trkpt lat="59.9501304" lon="17.6955856">
        <ele>33.3029</ele>
        <time>2012-09-30T08:45:20Z</time>
      </trkpt>
      <trkpt lat="59.9501335" lon="17.6956292">
        <ele>33.3029</ele>
        <time>2012-09-30T08:45:21Z</time>
      </trkpt>
      <trkpt lat="59.9501357" lon="17.6956756">
        <ele>32.8223</ele>
        <time>2012-09-30T08:45:22Z</time>
      </trkpt>
      <trkpt lat="59.9501378" lon="17.6957222">
        <ele>32.8223</ele>
        <time>2012-09-30T08:45:23Z</time>
      </trkpt>
      <trkpt lat="59.9501423" lon="17.6957638">
        <ele>32.8223</ele>
        <time>2012-09-30T08:45:24Z</time>
      </trkpt>
      <trkpt lat="59.9501491" lon="17.6958042">
        <ele>33.3029</ele>
        <time>2012-09-30T08:45:25Z</time>
      </trkpt>
      <trkpt lat="59.9501518" lon="17.6958471">
        <ele>33.7834</ele>
        <time>2012-09-30T08:45:26Z</time>
      </trkpt>
      <trkpt lat="59.9501537" lon="17.6958894">
        <ele>33.7834</ele>
        <time>2012-09-30T08:45:27Z</time>
      </trkpt>
      <trkpt lat="59.9501576" lon="17.695935">
        <ele>33.3029</ele>
        <time>2012-09-30T08:45:28Z</time>
      </trkpt>
      <trkpt lat="59.9501633" lon="17.6959839">
        <ele>33.7834</ele>
        <time>2012-09-30T08:45:29Z</time>
      </trkpt>
      <trkpt lat="59.9501654" lon="17.6960306">
        <ele>33.7834</ele>
        <time>2012-09-30T08:45:30Z</time>
      </trkpt>
      <trkpt lat="59.9501673" lon="17.6960756">
        <ele>33.7834</ele>
        <time>2012-09-30T08:45:31Z</time>
      </trkpt>
      <trkpt lat="59.950164" lon="17.6961267">
        <ele>33.7834</ele>
        <time>2012-09-30T08:45:32Z</time>
      </trkpt>
      <trkpt lat="59.9501622" lon="17.6961719">
        <ele>33.3029</ele>
        <time>2012-09-30T08:45:33Z</time>
      </trkpt>
      <trkpt lat="59.9501648" lon="17.6962191">
        <ele>32.8223</ele>
        <time>2012-09-30T08:45:34Z</time>
      </trkpt>
      <trkpt lat="59.9501684" lon="17.6962709">
        <ele>33.3029</ele>
        <time>2012-09-30T08:45:35Z</time>
      </trkpt>
      <trkpt lat="59.9501711" lon="17.6963176">
        <ele>33.3029</ele>
        <time>2012-09-30T08:45:36Z</time>
      </trkpt>
      <trkpt lat="59.9501715" lon="17.6963703">
        <ele>33.7834</ele>
        <time>2012-09-30T08:45:37Z</time>
      </trkpt>
      <trkpt lat="59.9501735" lon="17.6964176">
        <ele>33.7834</ele>
        <time>2012-09-30T08:45:38Z</time>
      </trkpt>
      <trkpt lat="59.9501801" lon="17.696461">
        <ele>34.2642</ele>
        <time>2012-09-30T08:45:39Z</time>
      </trkpt>
      <trkpt lat="59.950184" lon="17.6965067">
        <ele>34.2642</ele>
        <time>2012-09-30T08:45:40Z</time>
      </trkpt>
      <trkpt lat="59.9501876" lon="17.6965512">
        <ele>34.7449</ele>
        <time>2012-09-30T08:45:41Z</time>
      </trkpt>
      <trkpt lat="59.9501946" lon="17.6965941">
        <ele>34.7449</ele>
        <time>2012-09-30T08:45:42Z</time>
      </trkpt>
      <trkpt lat="59.9502015" lon="17.6966422">
        <ele>35.2255</ele>
        <time>2012-09-30T08:45:43Z</time>
      </trkpt>
      <trkpt lat="59.9502041" lon="17.6966915">
        <ele>35.2255</ele>
        <time>2012-09-30T08:45:44Z</time>
      </trkpt>
      <trkpt lat="59.9502083" lon="17.696734">
        <ele>34.7449</ele>
        <time>2012-09-30T08:45:45Z</time>
      </trkpt>
      <trkpt lat="59.950213" lon="17.6967801">
        <ele>34.7449</ele>
        <time>2012-09-30T08:45:46Z</time>
      </trkpt>
      <trkpt lat="59.950212" lon="17.6968289">
        <ele>34.2642</ele>
        <time>2012-09-30T08:45:47Z</time>
      </trkpt>
      <trkpt lat="59.9502051" lon="17.6968792">
        <ele>34.2642</ele>
        <time>2012-09-30T08:45:48Z</time>
      </trkpt>
      <trkpt lat="59.9502016" lon="17.6969276">
        <ele>33.7834</ele>
        <time>2012-09-30T08:45:49Z</time>
      </trkpt>
      <trkpt lat="59.9502083" lon="17.6969702">
        <ele>34.2642</ele>
        <time>2012-09-30T08:45:50Z</time>
      </trkpt>
      <trkpt lat="59.9502169" lon="17.6970109">
        <ele>34.7449</ele>
        <time>2012-09-30T08:45:51Z</time>
      </trkpt>
      <trkpt lat="59.95023" lon="17.6970541">
        <ele>34.7449</ele>
        <time>2012-09-30T08:45:52Z</time>
      </trkpt>
      <trkpt lat="59.9502455" lon="17.6970959">
        <ele>33.7834</ele>
        <time>2012-09-30T08:45:53Z</time>
      </trkpt>
      <trkpt lat="59.9502653" lon="17.6971435">
        <ele>33.7834</ele>
        <time>2012-09-30T08:45:54Z</time>
      </trkpt>
      <trkpt lat="59.9502811" lon="17.6971855">
        <ele>33.3029</ele>
        <time>2012-09-30T08:45:55Z</time>
      </trkpt>
      <trkpt lat="59.9502928" lon="17.6972255">
        <ele>34.2642</ele>
        <time>2012-09-30T08:45:56Z</time>
      </trkpt>
      <trkpt lat="59.9503056" lon="17.6972686">
        <ele>34.7449</ele>
        <time>2012-09-30T08:45:57Z</time>
      </trkpt>
      <trkpt lat="59.9503145" lon="17.6973155">
        <ele>35.2255</ele>
        <time>2012-09-30T08:45:58Z</time>
      </trkpt>
      <trkpt lat="59.9503196" lon="17.6973575">
        <ele>35.2255</ele>
        <time>2012-09-30T08:45:59Z</time>
      </trkpt>
      <trkpt lat="59.9503278" lon="17.6973977">
        <ele>35.2255</ele>
        <time>2012-09-30T08:46:00Z</time>
      </trkpt>
      <trkpt lat="59.9503376" lon="17.6974463">
        <ele>35.7061</ele>
        <time>2012-09-30T08:46:01Z</time>
      </trkpt>
      <trkpt lat="59.9503459" lon="17.6974928">
        <ele>35.7061</ele>
        <time>2012-09-30T08:46:02Z</time>
      </trkpt>
      <trkpt lat="59.9503575" lon="17.6975307">
        <ele>35.7061</ele>
        <time>2012-09-30T08:46:03Z</time>
      </trkpt>
      <trkpt lat="59.950374" lon="17.6975638">
        <ele>36.1868</ele>
        <time>2012-09-30T08:46:04Z</time>
      </trkpt>
      <trkpt lat="59.9503927" lon="17.697595">
        <ele>37.1481</ele>
        <time>2012-09-30T08:46:05Z</time>
      </trkpt>
      <trkpt lat="59.950408" lon="17.6976206">
        <ele>37.1481</ele>
        <time>2012-09-30T08:46:06Z</time>
      </trkpt>
      <trkpt lat="59.9504227" lon="17.6976373">
        <ele>36.6675</ele>
        <time>2012-09-30T08:46:07Z</time>
      </trkpt>
      <trkpt lat="59.9504424" lon="17.6976519">
        <ele>36.6675</ele>
        <time>2012-09-30T08:46:08Z</time>
      </trkpt>
      <trkpt lat="59.9504635" lon="17.6976711">
        <ele>36.1868</ele>
        <time>2012-09-30T08:46:09Z</time>
      </trkpt>
      <trkpt lat="59.9504839" lon="17.6976861">
        <ele>36.1868</ele>
        <time>2012-09-30T08:46:10Z</time>
      </trkpt>
      <trkpt lat="59.9505034" lon="17.6977023">
        <ele>36.1868</ele>
        <time>2012-09-30T08:46:11Z</time>
      </trkpt>
      <trkpt lat="59.9505242" lon="17.6977238">
        <ele>36.1868</ele>
        <time>2012-09-30T08:46:12Z</time>
      </trkpt>
      <trkpt lat="59.9505476" lon="17.6977451">
        <ele>36.6675</ele>
        <time>2012-09-30T08:46:13Z</time>
      </trkpt>
      <trkpt lat="59.95057" lon="17.6977639">
        <ele>37.1481</ele>
        <time>2012-09-30T08:46:14Z</time>
      </trkpt>
      <trkpt lat="59.9505926" lon="17.6977825">
        <ele>37.1481</ele>
        <time>2012-09-30T08:46:15Z</time>
      </trkpt>
      <trkpt lat="59.9506189" lon="17.6978021">
        <ele>37.1481</ele>
        <time>2012-09-30T08:46:16Z</time>
      </trkpt>
      <trkpt lat="59.9506422" lon="17.6978161">
        <ele>36.6675</ele>
        <time>2012-09-30T08:46:17Z</time>
      </trkpt>
      <trkpt lat="59.9506637" lon="17.6978305">
        <ele>37.1481</ele>
        <time>2012-09-30T08:46:18Z</time>
      </trkpt>
      <trkpt lat="59.9506895" lon="17.6978457">
        <ele>37.1481</ele>
        <time>2012-09-30T08:46:19Z</time>
      </trkpt>
      <trkpt lat="59.9507152" lon="17.6978658">
        <ele>36.6675</ele>
        <time>2012-09-30T08:46:20Z</time>
      </trkpt>
      <trkpt lat="59.9507376" lon="17.6978831">
        <ele>36.6675</ele>
        <time>2012-09-30T08:46:21Z</time>
      </trkpt>
      <trkpt lat="59.9507558" lon="17.6979029">
        <ele>37.6287</ele>
        <time>2012-09-30T08:46:22Z</time>
      </trkpt>
      <trkpt lat="59.9507682" lon="17.6979223">
        <ele>36.6675</ele>
        <time>2012-09-30T08:46:23Z</time>
      </trkpt>
      <trkpt lat="59.9507877" lon="17.6979389">
        <ele>35.7061</ele>
        <time>2012-09-30T08:46:24Z</time>
      </trkpt>
      <trkpt lat="59.9508105" lon="17.6979611">
        <ele>35.7061</ele>
        <time>2012-09-30T08:46:25Z</time>
      </trkpt>
      <trkpt lat="59.9508361" lon="17.6979853">
        <ele>36.1868</ele>
        <time>2012-09-30T08:46:26Z</time>
      </trkpt>
      <trkpt lat="59.9508597" lon="17.6980074">
        <ele>36.1868</ele>
        <time>2012-09-30T08:46:27Z</time>
      </trkpt>
      <trkpt lat="59.9508846" lon="17.698027">
        <ele>36.6675</ele>
        <time>2012-09-30T08:46:28Z</time>
      </trkpt>
      <trkpt lat="59.9509075" lon="17.6980539">
        <ele>37.1481</ele>
        <time>2012-09-30T08:46:29Z</time>
      </trkpt>
      <trkpt lat="59.9509284" lon="17.6980792">
        <ele>37.1481</ele>
        <time>2012-09-30T08:46:30Z</time>
      </trkpt>
      <trkpt lat="59.950952" lon="17.6980974">
        <ele>37.1481</ele>
        <time>2012-09-30T08:46:31Z</time>
      </trkpt>
      <trkpt lat="59.9509753" lon="17.6981227">
        <ele>37.1481</ele>
        <time>2012-09-30T08:46:32Z</time>
      </trkpt>
      <trkpt lat="59.9509956" lon="17.6981436">
        <ele>36.6675</ele>
        <time>2012-09-30T08:46:33Z</time>
      </trkpt>
      <trkpt lat="59.9510148" lon="17.6981664">
        <ele>37.1481</ele>
        <time>2012-09-30T08:46:34Z</time>
      </trkpt>
      <trkpt lat="59.9510384" lon="17.6981927">
        <ele>37.6287</ele>
        <time>2012-09-30T08:46:35Z</time>
      </trkpt>
      <trkpt lat="59.9510639" lon="17.698215">
        <ele>37.6287</ele>
        <time>2012-09-30T08:46:36Z</time>
      </trkpt>
      <trkpt lat="59.9510822" lon="17.6982388">
        <ele>37.6287</ele>
        <time>2012-09-30T08:46:37Z</time>
      </trkpt>
      <trkpt lat="59.9510956" lon="17.6982568">
        <ele>36.1868</ele>
        <time>2012-09-30T08:46:38Z</time>
      </trkpt>
      <trkpt lat="59.9511095" lon="17.6982813">
        <ele>35.2255</ele>
        <time>2012-09-30T08:46:39Z</time>
      </trkpt>
      <trkpt lat="59.9511246" lon="17.6983056">
        <ele>34.2642</ele>
        <time>2012-09-30T08:46:40Z</time>
      </trkpt>
      <trkpt lat="59.9511442" lon="17.6983313">
        <ele>33.7834</ele>
        <time>2012-09-30T08:46:41Z</time>
      </trkpt>
      <trkpt lat="59.9511648" lon="17.6983612">
        <ele>33.3029</ele>
        <time>2012-09-30T08:46:42Z</time>
      </trkpt>
      <trkpt lat="59.9511837" lon="17.6983889">
        <ele>32.8223</ele>
        <time>2012-09-30T08:46:43Z</time>
      </trkpt>
      <trkpt lat="59.9512029" lon="17.6984181">
        <ele>32.8223</ele>
        <time>2012-09-30T08:46:44Z</time>
      </trkpt>
      <trkpt lat="59.9512163" lon="17.6984441">
        <ele>32.3416</ele>
        <time>2012-09-30T08:46:45Z</time>
      </trkpt>
      <trkpt lat="59.9512319" lon="17.6984683">
        <ele>31.8607</ele>
        <time>2012-09-30T08:46:46Z</time>
      </trkpt>
      <trkpt lat="59.9512483" lon="17.6984933">
        <ele>31.8607</ele>
        <time>2012-09-30T08:46:47Z</time>
      </trkpt>
      <trkpt lat="59.9512665" lon="17.6985174">
        <ele>31.3801</ele>
        <time>2012-09-30T08:46:48Z</time>
      </trkpt>
      <trkpt lat="59.9512861" lon="17.6985413">
        <ele>31.3801</ele>
        <time>2012-09-30T08:46:49Z</time>
      </trkpt>
      <trkpt lat="59.9513023" lon="17.6985748">
        <ele>31.3801</ele>
        <time>2012-09-30T08:46:50Z</time>
      </trkpt>
      <trkpt lat="59.9513188" lon="17.6986021">
        <ele>30.8995</ele>
        <time>2012-09-30T08:46:51Z</time>
      </trkpt>
      <trkpt lat="59.9513355" lon="17.6986297">
        <ele>30.4188</ele>
        <time>2012-09-30T08:46:52Z</time>
      </trkpt>
      <trkpt lat="59.9513545" lon="17.6986566">
        <ele>30.4188</ele>
        <time>2012-09-30T08:46:53Z</time>
      </trkpt>
      <trkpt lat="59.9513753" lon="17.6986771">
        <ele>29.9381</ele>
        <time>2012-09-30T08:46:54Z</time>
      </trkpt>
      <trkpt lat="59.951395" lon="17.6986971">
        <ele>29.4575</ele>
        <time>2012-09-30T08:46:55Z</time>
      </trkpt>
      <trkpt lat="59.9514138" lon="17.6987268">
        <ele>29.4575</ele>
        <time>2012-09-30T08:46:56Z</time>
      </trkpt>
      <trkpt lat="59.9514295" lon="17.6987578">
        <ele>29.4575</ele>
        <time>2012-09-30T08:46:57Z</time>
      </trkpt>
      <trkpt lat="59.9514448" lon="17.698789">
        <ele>28.9769</ele>
        <time>2012-09-30T08:46:58Z</time>
      </trkpt>
      <trkpt lat="59.9514633" lon="17.6988186">
        <ele>29.4575</ele>
        <time>2012-09-30T08:46:59Z</time>
      </trkpt>
      <trkpt lat="59.9514809" lon="17.6988433">
        <ele>28.9769</ele>
        <time>2012-09-30T08:47:00Z</time>
      </trkpt>
      <trkpt lat="59.9514972" lon="17.698868">
        <ele>28.0155</ele>
        <time>2012-09-30T08:47:01Z</time>
      </trkpt>
      <trkpt lat="59.9515152" lon="17.6988953">
        <ele>28.4962</ele>
        <time>2012-09-30T08:47:02Z</time>
      </trkpt>
      <trkpt lat="59.9515319" lon="17.6989216">
        <ele>28.4962</ele>
        <time>2012-09-30T08:47:03Z</time>
      </trkpt>
      <trkpt lat="59.9515489" lon="17.6989494">
        <ele>28.4962</ele>
        <time>2012-09-30T08:47:04Z</time>
      </trkpt>
      <trkpt lat="59.9515627" lon="17.6989765">
        <ele>28.0155</ele>
        <time>2012-09-30T08:47:05Z</time>
      </trkpt>
      <trkpt lat="59.9515779" lon="17.6990017">
        <ele>28.0155</ele>
        <time>2012-09-30T08:47:06Z</time>
      </trkpt>
      <trkpt lat="59.9515938" lon="17.699032">
        <ele>28.0155</ele>
        <time>2012-09-30T08:47:07Z</time>
      </trkpt>
      <trkpt lat="59.951609" lon="17.6990615">
        <ele>28.0155</ele>
        <time>2012-09-30T08:47:08Z</time>
      </trkpt>
      <trkpt lat="59.9516267" lon="17.6990825">
        <ele>28.0155</ele>
        <time>2012-09-30T08:47:09Z</time>
      </trkpt>
      <trkpt lat="59.9516494" lon="17.6991034">
        <ele>28.0155</ele>
        <time>2012-09-30T08:47:10Z</time>
      </trkpt>
      <trkpt lat="59.9516681" lon="17.6991306">
        <ele>28.4962</ele>
        <time>2012-09-30T08:47:11Z</time>
      </trkpt>
      <trkpt lat="59.9516835" lon="17.6991567">
        <ele>28.0155</ele>
        <time>2012-09-30T08:47:12Z</time>
      </trkpt>
      <trkpt lat="59.9517007" lon="17.6991883">
        <ele>28.9769</ele>
        <time>2012-09-30T08:47:13Z</time>
      </trkpt>
      <trkpt lat="59.951715" lon="17.6992236">
        <ele>29.4575</ele>
        <time>2012-09-30T08:47:14Z</time>
      </trkpt>
      <trkpt lat="59.9517279" lon="17.6992562">
        <ele>28.9769</ele>
        <time>2012-09-30T08:47:15Z</time>
      </trkpt>
      <trkpt lat="59.9517463" lon="17.6992863">
        <ele>29.4575</ele>
        <time>2012-09-30T08:47:16Z</time>
      </trkpt>
      <trkpt lat="59.9517666" lon="17.699315">
        <ele>29.4575</ele>
        <time>2012-09-30T08:47:17Z</time>
      </trkpt>
      <trkpt lat="59.951782" lon="17.6993447">
        <ele>28.9769</ele>
        <time>2012-09-30T08:47:18Z</time>
      </trkpt>
      <trkpt lat="59.9518001" lon="17.6993779">
        <ele>29.4575</ele>
        <time>2012-09-30T08:47:19Z</time>
      </trkpt>
      <trkpt lat="59.9518177" lon="17.6994086">
        <ele>29.4575</ele>
        <time>2012-09-30T08:47:20Z</time>
      </trkpt>
      <trkpt lat="59.9518336" lon="17.6994391">
        <ele>28.9769</ele>
        <time>2012-09-30T08:47:21Z</time>
      </trkpt>
      <trkpt lat="59.9518541" lon="17.6994673">
        <ele>29.4575</ele>
        <time>2012-09-30T08:47:22Z</time>
      </trkpt>
      <trkpt lat="59.9518737" lon="17.699495">
        <ele>29.4575</ele>
        <time>2012-09-30T08:47:23Z</time>
      </trkpt>
      <trkpt lat="59.9518911" lon="17.699525">
        <ele>28.9769</ele>
        <time>2012-09-30T08:47:24Z</time>
      </trkpt>
      <trkpt lat="59.9519097" lon="17.6995547">
        <ele>28.9769</ele>
        <time>2012-09-30T08:47:25Z</time>
      </trkpt>
      <trkpt lat="59.9519276" lon="17.6995882">
        <ele>28.9769</ele>
        <time>2012-09-30T08:47:26Z</time>
      </trkpt>
      <trkpt lat="59.9519451" lon="17.6996147">
        <ele>28.9769</ele>
        <time>2012-09-30T08:47:27Z</time>
      </trkpt>
      <trkpt lat="59.9519644" lon="17.6996417">
        <ele>29.4575</ele>
        <time>2012-09-30T08:47:28Z</time>
      </trkpt>
      <trkpt lat="59.9519862" lon="17.6996754">
        <ele>29.4575</ele>
        <time>2012-09-30T08:47:29Z</time>
      </trkpt>
      <trkpt lat="59.9520095" lon="17.699703">
        <ele>29.4575</ele>
        <time>2012-09-30T08:47:30Z</time>
      </trkpt>
      <trkpt lat="59.9520332" lon="17.6997239">
        <ele>28.9769</ele>
        <time>2012-09-30T08:47:31Z</time>
      </trkpt>
      <trkpt lat="59.9520559" lon="17.6997517">
        <ele>28.9769</ele>
        <time>2012-09-30T08:47:32Z</time>
      </trkpt>
      <trkpt lat="59.9520792" lon="17.6997846">
        <ele>29.4575</ele>
        <time>2012-09-30T08:47:33Z</time>
      </trkpt>
      <trkpt lat="59.9521009" lon="17.6998162">
        <ele>29.4575</ele>
        <time>2012-09-30T08:47:34Z</time>
      </trkpt>
      <trkpt lat="59.9521193" lon="17.6998476">
        <ele>29.4575</ele>
        <time>2012-09-30T08:47:35Z</time>
      </trkpt>
      <trkpt lat="59.9521368" lon="17.6998773">
        <ele>29.4575</ele>
        <time>2012-09-30T08:47:36Z</time>
      </trkpt>
      <trkpt lat="59.9521529" lon="17.6999019">
        <ele>28.9769</ele>
        <time>2012-09-30T08:47:37Z</time>
      </trkpt>
      <trkpt lat="59.9521719" lon="17.699931">
        <ele>29.4575</ele>
        <time>2012-09-30T08:47:38Z</time>
      </trkpt>
      <trkpt lat="59.9521917" lon="17.6999647">
        <ele>28.9769</ele>
        <time>2012-09-30T08:47:39Z</time>
      </trkpt>
      <trkpt lat="59.9522102" lon="17.6999922">
        <ele>28.9769</ele>
        <time>2012-09-30T08:47:40Z</time>
      </trkpt>
      <trkpt lat="59.9522283" lon="17.7000203">
        <ele>28.9769</ele>
        <time>2012-09-30T08:47:41Z</time>
      </trkpt>
      <trkpt lat="59.9522465" lon="17.7000524">
        <ele>28.9769</ele>
        <time>2012-09-30T08:47:42Z</time>
      </trkpt>
      <trkpt lat="59.9522637" lon="17.7000772">
        <ele>28.9769</ele>
        <time>2012-09-30T08:47:43Z</time>
      </trkpt>
      <trkpt lat="59.9522808" lon="17.7001022">
        <ele>28.4962</ele>
        <time>2012-09-30T08:47:44Z</time>
      </trkpt>
      <trkpt lat="59.9522962" lon="17.7001304">
        <ele>28.4962</ele>
        <time>2012-09-30T08:47:45Z</time>
      </trkpt>
      <trkpt lat="59.952315" lon="17.7001565">
        <ele>28.4962</ele>
        <time>2012-09-30T08:47:46Z</time>
      </trkpt>
      <trkpt lat="59.9523352" lon="17.7001812">
        <ele>28.0155</ele>
        <time>2012-09-30T08:47:47Z</time>
      </trkpt>
      <trkpt lat="59.9523557" lon="17.70021">
        <ele>28.0155</ele>
        <time>2012-09-30T08:47:48Z</time>
      </trkpt>
      <trkpt lat="59.9523761" lon="17.7002377">
        <ele>27.5349</ele>
        <time>2012-09-30T08:47:49Z</time>
      </trkpt>
      <trkpt lat="59.9523959" lon="17.7002647">
        <ele>27.5349</ele>
        <time>2012-09-30T08:47:50Z</time>
      </trkpt>
      <trkpt lat="59.9524129" lon="17.7002918">
        <ele>27.5349</ele>
        <time>2012-09-30T08:47:51Z</time>
      </trkpt>
      <trkpt lat="59.9524294" lon="17.700315">
        <ele>27.0543</ele>
        <time>2012-09-30T08:47:52Z</time>
      </trkpt>
      <trkpt lat="59.9524422" lon="17.7003305">
        <ele>27.0543</ele>
        <time>2012-09-30T08:47:53Z</time>
      </trkpt>
      <trkpt lat="59.9524552" lon="17.7003472">
        <ele>26.5736</ele>
        <time>2012-09-30T08:47:54Z</time>
      </trkpt>
      <trkpt lat="59.9524697" lon="17.7003602">
        <ele>26.0929</ele>
        <time>2012-09-30T08:47:55Z</time>
      </trkpt>
      <trkpt lat="59.952488" lon="17.7003616">
        <ele>26.5736</ele>
        <time>2012-09-30T08:47:56Z</time>
      </trkpt>
      <trkpt lat="59.9525047" lon="17.7003663">
        <ele>26.0929</ele>
        <time>2012-09-30T08:47:57Z</time>
      </trkpt>
      <trkpt lat="59.9525264" lon="17.7003692">
        <ele>26.0929</ele>
        <time>2012-09-30T08:47:58Z</time>
      </trkpt>
      <trkpt lat="59.9525471" lon="17.7003689">
        <ele>26.5736</ele>
        <time>2012-09-30T08:47:59Z</time>
      </trkpt>
      <trkpt lat="59.9525688" lon="17.7003698">
        <ele>26.0929</ele>
        <time>2012-09-30T08:48:00Z</time>
      </trkpt>
      <trkpt lat="59.9525904" lon="17.7003761">
        <ele>27.0543</ele>
        <time>2012-09-30T08:48:01Z</time>
      </trkpt>
      <trkpt lat="59.952616" lon="17.7003806">
        <ele>27.5349</ele>
        <time>2012-09-30T08:48:02Z</time>
      </trkpt>
      <trkpt lat="59.9526398" lon="17.7003912">
        <ele>27.5349</ele>
        <time>2012-09-30T08:48:03Z</time>
      </trkpt>
      <trkpt lat="59.9526622" lon="17.7004025">
        <ele>28.4962</ele>
        <time>2012-09-30T08:48:04Z</time>
      </trkpt>
      <trkpt lat="59.952681" lon="17.7004181">
        <ele>28.4962</ele>
        <time>2012-09-30T08:48:05Z</time>
      </trkpt>
      <trkpt lat="59.9527003" lon="17.700444">
        <ele>28.9769</ele>
        <time>2012-09-30T08:48:06Z</time>
      </trkpt>
      <trkpt lat="59.9527201" lon="17.7004689">
        <ele>28.4962</ele>
        <time>2012-09-30T08:48:07Z</time>
      </trkpt>
      <trkpt lat="59.9527413" lon="17.7004994">
        <ele>28.9769</ele>
        <time>2012-09-30T08:48:08Z</time>
      </trkpt>
      <trkpt lat="59.9527591" lon="17.7005435">
        <ele>29.4575</ele>
        <time>2012-09-30T08:48:09Z</time>
      </trkpt>
      <trkpt lat="59.9527655" lon="17.7005948">
        <ele>29.4575</ele>
        <time>2012-09-30T08:48:10Z</time>
      </trkpt>
      <trkpt lat="59.9527632" lon="17.7006325">
        <ele>29.9381</ele>
        <time>2012-09-30T08:48:11Z</time>
      </trkpt>
      <trkpt lat="59.9527563" lon="17.700663">
        <ele>30.4188</ele>
        <time>2012-09-30T08:48:12Z</time>
      </trkpt>
      <trkpt lat="59.9527433" lon="17.7006937">
        <ele>30.4188</ele>
        <time>2012-09-30T08:48:13Z</time>
      </trkpt>
      <trkpt lat="59.9527295" lon="17.7007258">
        <ele>30.8995</ele>
        <time>2012-09-30T08:48:14Z</time>
      </trkpt>
      <trkpt lat="59.9527191" lon="17.7007475">
        <ele>31.8607</ele>
        <time>2012-09-30T08:48:15Z</time>
      </trkpt>
      <trkpt lat="59.952704" lon="17.7007852">
        <ele>33.3029</ele>
        <time>2012-09-30T08:48:16Z</time>
      </trkpt>
      <trkpt lat="59.9526879" lon="17.7008368">
        <ele>34.2642</ele>
        <time>2012-09-30T08:48:17Z</time>
      </trkpt>
      <trkpt lat="59.9526748" lon="17.700882">
        <ele>34.7449</ele>
        <time>2012-09-30T08:48:18Z</time>
      </trkpt>
      <trkpt lat="59.9526608" lon="17.7009305">
        <ele>34.7449</ele>
        <time>2012-09-30T08:48:19Z</time>
      </trkpt>
      <trkpt lat="59.9526497" lon="17.7009707">
        <ele>35.7061</ele>
        <time>2012-09-30T08:48:20Z</time>
      </trkpt>
      <trkpt lat="59.9526357" lon="17.701011">
        <ele>36.1868</ele>
        <time>2012-09-30T08:48:21Z</time>
      </trkpt>
      <trkpt lat="59.9526174" lon="17.7010464">
        <ele>36.1868</ele>
        <time>2012-09-30T08:48:22Z</time>
      </trkpt>
      <trkpt lat="59.9525983" lon="17.7010713">
        <ele>36.6675</ele>
        <time>2012-09-30T08:48:23Z</time>
      </trkpt>
      <trkpt lat="59.9525812" lon="17.701102">
        <ele>37.6287</ele>
        <time>2012-09-30T08:48:24Z</time>
      </trkpt>
      <trkpt lat="59.952564" lon="17.7011403">
        <ele>38.5901</ele>
        <time>2012-09-30T08:48:25Z</time>
      </trkpt>
      <trkpt lat="59.9525486" lon="17.7011707">
        <ele>39.0707</ele>
        <time>2012-09-30T08:48:26Z</time>
      </trkpt>
      <trkpt lat="59.9525367" lon="17.7011936">
        <ele>40.0321</ele>
        <time>2012-09-30T08:48:27Z</time>
      </trkpt>
      <trkpt lat="59.9525237" lon="17.7012303">
        <ele>40.9934</ele>
        <time>2012-09-30T08:48:28Z</time>
      </trkpt>
      <trkpt lat="59.9525082" lon="17.7012755">
        <ele>41.474</ele>
        <time>2012-09-30T08:48:29Z</time>
      </trkpt>
      <trkpt lat="59.9524901" lon="17.7013142">
        <ele>41.9547</ele>
        <time>2012-09-30T08:48:30Z</time>
      </trkpt>
      <trkpt lat="59.9524739" lon="17.7013526">
        <ele>42.4354</ele>
        <time>2012-09-30T08:48:31Z</time>
      </trkpt>
      <trkpt lat="59.9524615" lon="17.7013899">
        <ele>42.916</ele>
        <time>2012-09-30T08:48:32Z</time>
      </trkpt>
      <trkpt lat="59.9524485" lon="17.7014364">
        <ele>42.916</ele>
        <time>2012-09-30T08:48:33Z</time>
      </trkpt>
      <trkpt lat="59.9524336" lon="17.7014876">
        <ele>42.916</ele>
        <time>2012-09-30T08:48:34Z</time>
      </trkpt>
      <trkpt lat="59.9524185" lon="17.701527">
        <ele>43.8773</ele>
        <time>2012-09-30T08:48:35Z</time>
      </trkpt>
      <trkpt lat="59.9524077" lon="17.7015706">
        <ele>44.8386</ele>
        <time>2012-09-30T08:48:36Z</time>
      </trkpt>
      <trkpt lat="59.9523996" lon="17.7016136">
        <ele>45.3192</ele>
        <time>2012-09-30T08:48:37Z</time>
      </trkpt>
      <trkpt lat="59.9523875" lon="17.7016583">
        <ele>45.7999</ele>
        <time>2012-09-30T08:48:38Z</time>
      </trkpt>
      <trkpt lat="59.9523761" lon="17.7016984">
        <ele>46.2806</ele>
        <time>2012-09-30T08:48:39Z</time>
      </trkpt>
      <trkpt lat="59.9523657" lon="17.7017379">
        <ele>46.7612</ele>
        <time>2012-09-30T08:48:40Z</time>
      </trkpt>
      <trkpt lat="59.9523528" lon="17.7017868">
        <ele>47.2418</ele>
        <time>2012-09-30T08:48:41Z</time>
      </trkpt>
      <trkpt lat="59.9523368" lon="17.7018385">
        <ele>48.2034</ele>
        <time>2012-09-30T08:48:42Z</time>
      </trkpt>
      <trkpt lat="59.95232" lon="17.7018753">
        <ele>48.684</ele>
        <time>2012-09-30T08:48:43Z</time>
      </trkpt>
      <trkpt lat="59.9523039" lon="17.7019103">
        <ele>48.684</ele>
        <time>2012-09-30T08:48:44Z</time>
      </trkpt>
      <trkpt lat="59.9522869" lon="17.7019482">
        <ele>49.1646</ele>
        <time>2012-09-30T08:48:45Z</time>
      </trkpt>
      <trkpt lat="59.9522688" lon="17.7019861">
        <ele>49.1646</ele>
        <time>2012-09-30T08:48:46Z</time>
      </trkpt>
      <trkpt lat="59.9522556" lon="17.7020301">
        <ele>49.6453</ele>
        <time>2012-09-30T08:48:47Z</time>
      </trkpt>
      <trkpt lat="59.952243" lon="17.7020655">
        <ele>49.1646</ele>
        <time>2012-09-30T08:48:48Z</time>
      </trkpt>
      <trkpt lat="59.9522276" lon="17.7021002">
        <ele>48.684</ele>
        <time>2012-09-30T08:48:49Z</time>
      </trkpt>
      <trkpt lat="59.9522126" lon="17.7021318">
        <ele>48.684</ele>
        <time>2012-09-30T08:48:50Z</time>
      </trkpt>
      <trkpt lat="59.952198" lon="17.7021675">
        <ele>48.684</ele>
        <time>2012-09-30T08:48:51Z</time>
      </trkpt>
      <trkpt lat="59.9521814" lon="17.7022129">
        <ele>48.684</ele>
        <time>2012-09-30T08:48:52Z</time>
      </trkpt>
      <trkpt lat="59.952161" lon="17.7022486">
        <ele>48.2034</ele>
        <time>2012-09-30T08:48:53Z</time>
      </trkpt>
      <trkpt lat="59.9521358" lon="17.7022855">
        <ele>48.2034</ele>
        <time>2012-09-30T08:48:54Z</time>
      </trkpt>
      <trkpt lat="59.9521181" lon="17.7023176">
        <ele>48.684</ele>
        <time>2012-09-30T08:48:55Z</time>
      </trkpt>
      <trkpt lat="59.9521011" lon="17.702363">
        <ele>48.2034</ele>
        <time>2012-09-30T08:48:56Z</time>
      </trkpt>
      <trkpt lat="59.9520892" lon="17.702398">
        <ele>47.7225</ele>
        <time>2012-09-30T08:48:57Z</time>
      </trkpt>
      <trkpt lat="59.9520817" lon="17.7024226">
        <ele>46.7612</ele>
        <time>2012-09-30T08:48:58Z</time>
      </trkpt>
      <trkpt lat="59.9520695" lon="17.7024507">
        <ele>45.3192</ele>
        <time>2012-09-30T08:48:59Z</time>
      </trkpt>
      <trkpt lat="59.9520549" lon="17.7024752">
        <ele>43.8773</ele>
        <time>2012-09-30T08:49:00Z</time>
      </trkpt>
      <trkpt lat="59.9520368" lon="17.7025016">
        <ele>43.3966</ele>
        <time>2012-09-30T08:49:01Z</time>
      </trkpt>
      <trkpt lat="59.9520195" lon="17.7025305">
        <ele>42.916</ele>
        <time>2012-09-30T08:49:02Z</time>
      </trkpt>
      <trkpt lat="59.9520032" lon="17.7025635">
        <ele>41.9547</ele>
        <time>2012-09-30T08:49:03Z</time>
      </trkpt>
      <trkpt lat="59.9519851" lon="17.7025968">
        <ele>41.474</ele>
        <time>2012-09-30T08:49:04Z</time>
      </trkpt>
      <trkpt lat="59.951974" lon="17.7026222">
        <ele>40.9934</ele>
        <time>2012-09-30T08:49:05Z</time>
      </trkpt>
      <trkpt lat="59.9519641" lon="17.7026598">
        <ele>40.5128</ele>
        <time>2012-09-30T08:49:06Z</time>
      </trkpt>
      <trkpt lat="59.9519498" lon="17.7026963">
        <ele>40.0321</ele>
        <time>2012-09-30T08:49:07Z</time>
      </trkpt>
      <trkpt lat="59.9519299" lon="17.7027197">
        <ele>39.5513</ele>
        <time>2012-09-30T08:49:08Z</time>
      </trkpt>
      <trkpt lat="59.9519048" lon="17.7027296">
        <ele>38.5901</ele>
        <time>2012-09-30T08:49:09Z</time>
      </trkpt>
      <trkpt lat="59.9518908" lon="17.7027444">
        <ele>37.1481</ele>
        <time>2012-09-30T08:49:10Z</time>
      </trkpt>
      <trkpt lat="59.9518779" lon="17.7027471">
        <ele>34.2642</ele>
        <time>2012-09-30T08:49:11Z</time>
      </trkpt>
      <trkpt lat="59.9518719" lon="17.7027766">
        <ele>33.3029</ele>
        <time>2012-09-30T08:49:12Z</time>
      </trkpt>
      <trkpt lat="59.9518504" lon="17.702804">
        <ele>32.8223</ele>
        <time>2012-09-30T08:49:13Z</time>
      </trkpt>
      <trkpt lat="59.9518261" lon="17.7028412">
        <ele>32.8223</ele>
        <time>2012-09-30T08:49:14Z</time>
      </trkpt>
      <trkpt lat="59.9518007" lon="17.7028553">
        <ele>32.3416</ele>
        <time>2012-09-30T08:49:15Z</time>
      </trkpt>
      <trkpt lat="59.9517738" lon="17.7028983">
        <ele>30.8995</ele>
        <time>2012-09-30T08:49:16Z</time>
      </trkpt>
      <trkpt lat="59.9517673" lon="17.7029453">
        <ele>29.9381</ele>
        <time>2012-09-30T08:49:17Z</time>
      </trkpt>
      <trkpt lat="59.9517608" lon="17.7029767">
        <ele>29.9381</ele>
        <time>2012-09-30T08:49:18Z</time>
      </trkpt>
      <trkpt lat="59.9517556" lon="17.7030427">
        <ele>32.3416</ele>
        <time>2012-09-30T08:49:19Z</time>
      </trkpt>
      <trkpt lat="59.9517415" lon="17.703077">
        <ele>32.3416</ele>
        <time>2012-09-30T08:49:20Z</time>
      </trkpt>
      <trkpt lat="59.9517302" lon="17.7031092">
        <ele>33.3029</ele>
        <time>2012-09-30T08:49:21Z</time>
      </trkpt>
      <trkpt lat="59.9517225" lon="17.7031478">
        <ele>33.7834</ele>
        <time>2012-09-30T08:49:22Z</time>
      </trkpt>
      <trkpt lat="59.9517175" lon="17.7032028">
        <ele>35.2255</ele>
        <time>2012-09-30T08:49:23Z</time>
      </trkpt>
      <trkpt lat="59.9517083" lon="17.7032589">
        <ele>37.1481</ele>
        <time>2012-09-30T08:49:24Z</time>
      </trkpt>
      <trkpt lat="59.9516955" lon="17.7032867">
        <ele>38.1094</ele>
        <time>2012-09-30T08:49:25Z</time>
      </trkpt>
      <trkpt lat="59.9516873" lon="17.703306">
        <ele>39.0707</ele>
        <time>2012-09-30T08:49:26Z</time>
      </trkpt>
      <trkpt lat="59.9516737" lon="17.7033257">
        <ele>38.5901</ele>
        <time>2012-09-30T08:49:27Z</time>
      </trkpt>
      <trkpt lat="59.95166" lon="17.7033499">
        <ele>39.5513</ele>
        <time>2012-09-30T08:49:28Z</time>
      </trkpt>
      <trkpt lat="59.9516437" lon="17.703378">
        <ele>40.0321</ele>
        <time>2012-09-30T08:49:29Z</time>
      </trkpt>
      <trkpt lat="59.9516256" lon="17.703407">
        <ele>40.0321</ele>
        <time>2012-09-30T08:49:30Z</time>
      </trkpt>
      <trkpt lat="59.951609" lon="17.7034323">
        <ele>39.5513</ele>
        <time>2012-09-30T08:49:31Z</time>
      </trkpt>
      <trkpt lat="59.951586" lon="17.7034543">
        <ele>38.1094</ele>
        <time>2012-09-30T08:49:32Z</time>
      </trkpt>
      <trkpt lat="59.9515611" lon="17.7034872">
        <ele>38.1094</ele>
        <time>2012-09-30T08:49:33Z</time>
      </trkpt>
      <trkpt lat="59.9515447" lon="17.703525">
        <ele>38.5901</ele>
        <time>2012-09-30T08:49:34Z</time>
      </trkpt>
      <trkpt lat="59.9515314" lon="17.7035598">
        <ele>39.0707</ele>
        <time>2012-09-30T08:49:35Z</time>
      </trkpt>
      <trkpt lat="59.9515135" lon="17.7035925">
        <ele>39.0707</ele>
        <time>2012-09-30T08:49:36Z</time>
      </trkpt>
      <trkpt lat="59.9514934" lon="17.7036359">
        <ele>39.5513</ele>
        <time>2012-09-30T08:49:37Z</time>
      </trkpt>
      <trkpt lat="59.9514718" lon="17.7036692">
        <ele>39.5513</ele>
        <time>2012-09-30T08:49:38Z</time>
      </trkpt>
      <trkpt lat="59.9514518" lon="17.7037017">
        <ele>39.0707</ele>
        <time>2012-09-30T08:49:39Z</time>
      </trkpt>
      <trkpt lat="59.9514373" lon="17.7037505">
        <ele>40.5128</ele>
        <time>2012-09-30T08:49:40Z</time>
      </trkpt>
      <trkpt lat="59.9514225" lon="17.7037849">
        <ele>41.474</ele>
        <time>2012-09-30T08:49:41Z</time>
      </trkpt>
      <trkpt lat="59.9514064" lon="17.7038105">
        <ele>41.9547</ele>
        <time>2012-09-30T08:49:42Z</time>
      </trkpt>
      <trkpt lat="59.9513896" lon="17.7038443">
        <ele>42.916</ele>
        <time>2012-09-30T08:49:43Z</time>
      </trkpt>
      <trkpt lat="59.9513686" lon="17.7038749">
        <ele>42.4354</ele>
        <time>2012-09-30T08:49:44Z</time>
      </trkpt>
      <trkpt lat="59.9513503" lon="17.7039023">
        <ele>42.916</ele>
        <time>2012-09-30T08:49:45Z</time>
      </trkpt>
      <trkpt lat="59.9513267" lon="17.7039333">
        <ele>42.4354</ele>
        <time>2012-09-30T08:49:46Z</time>
      </trkpt>
      <trkpt lat="59.9512997" lon="17.703958">
        <ele>41.9547</ele>
        <time>2012-09-30T08:49:47Z</time>
      </trkpt>
      <trkpt lat="59.951276" lon="17.7039758">
        <ele>41.474</ele>
        <time>2012-09-30T08:49:48Z</time>
      </trkpt>
      <trkpt lat="59.9512544" lon="17.7039961">
        <ele>40.9934</ele>
        <time>2012-09-30T08:49:49Z</time>
      </trkpt>
      <trkpt lat="59.9512392" lon="17.7040234">
        <ele>40.5128</ele>
        <time>2012-09-30T08:49:50Z</time>
      </trkpt>
      <trkpt lat="59.9512288" lon="17.7040499">
        <ele>40.9934</ele>
        <time>2012-09-30T08:49:51Z</time>
      </trkpt>
      <trkpt lat="59.9512163" lon="17.7040782">
        <ele>40.5128</ele>
        <time>2012-09-30T08:49:52Z</time>
      </trkpt>
      <trkpt lat="59.9512001" lon="17.7041111">
        <ele>40.5128</ele>
        <time>2012-09-30T08:49:53Z</time>
      </trkpt>
      <trkpt lat="59.9511815" lon="17.704145">
        <ele>40.0321</ele>
        <time>2012-09-30T08:49:54Z</time>
      </trkpt>
      <trkpt lat="59.9511661" lon="17.7041722">
        <ele>39.0707</ele>
        <time>2012-09-30T08:49:55Z</time>
      </trkpt>
      <trkpt lat="59.9511534" lon="17.7042047">
        <ele>39.5513</ele>
        <time>2012-09-30T08:49:56Z</time>
      </trkpt>
      <trkpt lat="59.9511312" lon="17.7042356">
        <ele>38.5901</ele>
        <time>2012-09-30T08:49:57Z</time>
      </trkpt>
      <trkpt lat="59.9511066" lon="17.7042747">
        <ele>37.1481</ele>
        <time>2012-09-30T08:49:58Z</time>
      </trkpt>
      <trkpt lat="59.9510827" lon="17.7043268">
        <ele>37.1481</ele>
        <time>2012-09-30T08:49:59Z</time>
      </trkpt>
      <trkpt lat="59.9510618" lon="17.7043395">
        <ele>36.1868</ele>
        <time>2012-09-30T08:50:00Z</time>
      </trkpt>
      <trkpt lat="59.9510354" lon="17.7043576">
        <ele>34.2642</ele>
        <time>2012-09-30T08:50:01Z</time>
      </trkpt>
      <trkpt lat="59.9510086" lon="17.7043995">
        <ele>33.3029</ele>
        <time>2012-09-30T08:50:02Z</time>
      </trkpt>
      <trkpt lat="59.9509785" lon="17.7044384">
        <ele>32.3416</ele>
        <time>2012-09-30T08:50:03Z</time>
      </trkpt>
      <trkpt lat="59.9509661" lon="17.7044283">
        <ele>30.8995</ele>
        <time>2012-09-30T08:50:04Z</time>
      </trkpt>
      <trkpt lat="59.9509452" lon="17.7044513">
        <ele>30.4188</ele>
        <time>2012-09-30T08:50:05Z</time>
      </trkpt>
      <trkpt lat="59.9509304" lon="17.7044525">
        <ele>29.9381</ele>
        <time>2012-09-30T08:50:06Z</time>
      </trkpt>
      <trkpt lat="59.9509174" lon="17.7044652">
        <ele>29.9381</ele>
        <time>2012-09-30T08:50:07Z</time>
      </trkpt>
      <trkpt lat="59.9508997" lon="17.7044701">
        <ele>28.0155</ele>
        <time>2012-09-30T08:50:08Z</time>
      </trkpt>
      <trkpt lat="59.9508843" lon="17.7044933">
        <ele>27.0543</ele>
        <time>2012-09-30T08:50:09Z</time>
      </trkpt>
      <trkpt lat="59.9508787" lon="17.7045379">
        <ele>27.5349</ele>
        <time>2012-09-30T08:50:10Z</time>
      </trkpt>
      <trkpt lat="59.9508739" lon="17.7045643">
        <ele>27.0543</ele>
        <time>2012-09-30T08:50:11Z</time>
      </trkpt>
      <trkpt lat="59.9508702" lon="17.7045809">
        <ele>26.5736</ele>
        <time>2012-09-30T08:50:12Z</time>
      </trkpt>
      <trkpt lat="59.9508656" lon="17.704597">
        <ele>26.0929</ele>
        <time>2012-09-30T08:50:13Z</time>
      </trkpt>
      <trkpt lat="59.9508558" lon="17.7046151">
        <ele>25.6123</ele>
        <time>2012-09-30T08:50:14Z</time>
      </trkpt>
      <trkpt lat="59.9508473" lon="17.7046352">
        <ele>24.651</ele>
        <time>2012-09-30T08:50:15Z</time>
      </trkpt>
      <trkpt lat="59.9508378" lon="17.7046554">
        <ele>24.651</ele>
        <time>2012-09-30T08:50:16Z</time>
      </trkpt>
      <trkpt lat="59.9508279" lon="17.7046735">
        <ele>24.1703</ele>
        <time>2012-09-30T08:50:17Z</time>
      </trkpt>
      <trkpt lat="59.9508206" lon="17.7046943">
        <ele>23.6896</ele>
        <time>2012-09-30T08:50:18Z</time>
      </trkpt>
      <trkpt lat="59.9508128" lon="17.7047306">
        <ele>24.1703</ele>
        <time>2012-09-30T08:50:19Z</time>
      </trkpt>
      <trkpt lat="59.9508" lon="17.7047896">
        <ele>24.651</ele>
        <time>2012-09-30T08:50:20Z</time>
      </trkpt>
      <trkpt lat="59.9507901" lon="17.7048199">
        <ele>25.6123</ele>
        <time>2012-09-30T08:50:21Z</time>
      </trkpt>
      <trkpt lat="59.9507812" lon="17.7048392">
        <ele>25.1317</ele>
        <time>2012-09-30T08:50:22Z</time>
      </trkpt>
      <trkpt lat="59.9507661" lon="17.7048718">
        <ele>23.6896</ele>
        <time>2012-09-30T08:50:23Z</time>
      </trkpt>
      <trkpt lat="59.9507563" lon="17.7049073">
        <ele>23.6896</ele>
        <time>2012-09-30T08:50:24Z</time>
      </trkpt>
      <trkpt lat="59.9507523" lon="17.7049335">
        <ele>23.6896</ele>
        <time>2012-09-30T08:50:25Z</time>
      </trkpt>
      <trkpt lat="59.9507465" lon="17.7049551">
        <ele>23.209</ele>
        <time>2012-09-30T08:50:26Z</time>
      </trkpt>
      <trkpt lat="59.950738" lon="17.7049738">
        <ele>22.7283</ele>
        <time>2012-09-30T08:50:27Z</time>
      </trkpt>
      <trkpt lat="59.9507297" lon="17.7049958">
        <ele>23.209</ele>
        <time>2012-09-30T08:50:28Z</time>
      </trkpt>
      <trkpt lat="59.9507251" lon="17.705021">
        <ele>24.1703</ele>
        <time>2012-09-30T08:50:29Z</time>
      </trkpt>
      <trkpt lat="59.950719" lon="17.7050372">
        <ele>24.651</ele>
        <time>2012-09-30T08:50:30Z</time>
      </trkpt>
      <trkpt lat="59.9507113" lon="17.7050556">
        <ele>24.1703</ele>
        <time>2012-09-30T08:50:31Z</time>
      </trkpt>
      <trkpt lat="59.9507045" lon="17.7050704">
        <ele>24.1703</ele>
        <time>2012-09-30T08:50:32Z</time>
      </trkpt>
      <trkpt lat="59.9506932" lon="17.7050883">
        <ele>23.209</ele>
        <time>2012-09-30T08:50:33Z</time>
      </trkpt>
      <trkpt lat="59.9506807" lon="17.7051111">
        <ele>22.2476</ele>
        <time>2012-09-30T08:50:34Z</time>
      </trkpt>
      <trkpt lat="59.9506701" lon="17.7051432">
        <ele>21.2864</ele>
        <time>2012-09-30T08:50:35Z</time>
      </trkpt>
      <trkpt lat="59.9506583" lon="17.7052222">
        <ele>24.1703</ele>
        <time>2012-09-30T08:50:36Z</time>
      </trkpt>
      <trkpt lat="59.950646" lon="17.7052774">
        <ele>25.6123</ele>
        <time>2012-09-30T08:50:37Z</time>
      </trkpt>
      <trkpt lat="59.9506309" lon="17.7053204">
        <ele>24.651</ele>
        <time>2012-09-30T08:50:38Z</time>
      </trkpt>
      <trkpt lat="59.9506103" lon="17.7053851">
        <ele>24.1703</ele>
        <time>2012-09-30T08:50:39Z</time>
      </trkpt>
      <trkpt lat="59.9505886" lon="17.7054675">
        <ele>23.209</ele>
        <time>2012-09-30T08:50:40Z</time>
      </trkpt>
      <trkpt lat="59.9505745" lon="17.705522">
        <ele>23.6896</ele>
        <time>2012-09-30T08:50:41Z</time>
      </trkpt>
      <trkpt lat="59.9505605" lon="17.7055619">
        <ele>23.209</ele>
        <time>2012-09-30T08:50:42Z</time>
      </trkpt>
      <trkpt lat="59.9505508" lon="17.7055656">
        <ele>23.6896</ele>
        <time>2012-09-30T08:50:43Z</time>
      </trkpt>
      <trkpt lat="59.9505383" lon="17.7055681">
        <ele>24.1703</ele>
        <time>2012-09-30T08:50:44Z</time>
      </trkpt>
      <trkpt lat="59.950529" lon="17.705589">
        <ele>24.1703</ele>
        <time>2012-09-30T08:50:45Z</time>
      </trkpt>
      <trkpt lat="59.9505206" lon="17.7056325">
        <ele>25.1317</ele>
        <time>2012-09-30T08:50:46Z</time>
      </trkpt>
      <trkpt lat="59.9505127" lon="17.7056646">
        <ele>25.6123</ele>
        <time>2012-09-30T08:50:47Z</time>
      </trkpt>
      <trkpt lat="59.9505025" lon="17.7056956">
        <ele>26.0929</ele>
        <time>2012-09-30T08:50:48Z</time>
      </trkpt>
      <trkpt lat="59.9504889" lon="17.705726">
        <ele>26.5736</ele>
        <time>2012-09-30T08:50:49Z</time>
      </trkpt>
      <trkpt lat="59.9504805" lon="17.7057651">
        <ele>26.5736</ele>
        <time>2012-09-30T08:50:50Z</time>
      </trkpt>
      <trkpt lat="59.9504757" lon="17.7057972">
        <ele>26.5736</ele>
        <time>2012-09-30T08:50:51Z</time>
      </trkpt>
      <trkpt lat="59.9504687" lon="17.7058184">
        <ele>26.5736</ele>
        <time>2012-09-30T08:50:52Z</time>
      </trkpt>
      <trkpt lat="59.9504646" lon="17.7058427">
        <ele>26.0929</ele>
        <time>2012-09-30T08:50:53Z</time>
      </trkpt>
      <trkpt lat="59.9504676" lon="17.7058796">
        <ele>26.0929</ele>
        <time>2012-09-30T08:50:54Z</time>
      </trkpt>
      <trkpt lat="59.9504749" lon="17.7059203">
        <ele>26.5736</ele>
        <time>2012-09-30T08:50:55Z</time>
      </trkpt>
      <trkpt lat="59.9504848" lon="17.7059849">
        <ele>28.9769</ele>
        <time>2012-09-30T08:50:56Z</time>
      </trkpt>
      <trkpt lat="59.9504992" lon="17.7060375">
        <ele>30.4188</ele>
        <time>2012-09-30T08:50:57Z</time>
      </trkpt>
      <trkpt lat="59.9505145" lon="17.7060652">
        <ele>30.8995</ele>
        <time>2012-09-30T08:50:58Z</time>
      </trkpt>
      <trkpt lat="59.9505341" lon="17.7061079">
        <ele>32.8223</ele>
        <time>2012-09-30T08:50:59Z</time>
      </trkpt>
      <trkpt lat="59.9505586" lon="17.7061438">
        <ele>33.7834</ele>
        <time>2012-09-30T08:51:00Z</time>
      </trkpt>
      <trkpt lat="59.9505772" lon="17.7061733">
        <ele>34.7449</ele>
        <time>2012-09-30T08:51:01Z</time>
      </trkpt>
      <trkpt lat="59.9505983" lon="17.7062017">
        <ele>35.7061</ele>
        <time>2012-09-30T08:51:02Z</time>
      </trkpt>
      <trkpt lat="59.950618" lon="17.7062214">
        <ele>35.7061</ele>
        <time>2012-09-30T08:51:03Z</time>
      </trkpt>
      <trkpt lat="59.9506366" lon="17.7062503">
        <ele>36.6675</ele>
        <time>2012-09-30T08:51:04Z</time>
      </trkpt>
      <trkpt lat="59.9506582" lon="17.7062833">
        <ele>37.6287</ele>
        <time>2012-09-30T08:51:05Z</time>
      </trkpt>
      <trkpt lat="59.9506774" lon="17.7063109">
        <ele>38.5901</ele>
        <time>2012-09-30T08:51:06Z</time>
      </trkpt>
      <trkpt lat="59.9506961" lon="17.706331">
        <ele>39.0707</ele>
        <time>2012-09-30T08:51:07Z</time>
      </trkpt>
      <trkpt lat="59.9507178" lon="17.7063509">
        <ele>39.0707</ele>
        <time>2012-09-30T08:51:08Z</time>
      </trkpt>
      <trkpt lat="59.9507397" lon="17.7063679">
        <ele>39.0707</ele>
        <time>2012-09-30T08:51:09Z</time>
      </trkpt>
      <trkpt lat="59.95076" lon="17.7063897">
        <ele>39.5513</ele>
        <time>2012-09-30T08:51:10Z</time>
      </trkpt>
      <trkpt lat="59.9507785" lon="17.7064129">
        <ele>39.5513</ele>
        <time>2012-09-30T08:51:11Z</time>
      </trkpt>
      <trkpt lat="59.9507989" lon="17.7064342">
        <ele>39.0707</ele>
        <time>2012-09-30T08:51:12Z</time>
      </trkpt>
      <trkpt lat="59.9508214" lon="17.7064563">
        <ele>39.0707</ele>
        <time>2012-09-30T08:51:13Z</time>
      </trkpt>
      <trkpt lat="59.9508445" lon="17.7064794">
        <ele>38.5901</ele>
        <time>2012-09-30T08:51:14Z</time>
      </trkpt>
      <trkpt lat="59.950867" lon="17.7065025">
        <ele>38.5901</ele>
        <time>2012-09-30T08:51:15Z</time>
      </trkpt>
      <trkpt lat="59.9508874" lon="17.7065258">
        <ele>38.5901</ele>
        <time>2012-09-30T08:51:16Z</time>
      </trkpt>
      <trkpt lat="59.9509076" lon="17.7065508">
        <ele>39.0707</ele>
        <time>2012-09-30T08:51:17Z</time>
      </trkpt>
      <trkpt lat="59.9509289" lon="17.7065741">
        <ele>39.5513</ele>
        <time>2012-09-30T08:51:18Z</time>
      </trkpt>
      <trkpt lat="59.9509478" lon="17.7066003">
        <ele>40.0321</ele>
        <time>2012-09-30T08:51:19Z</time>
      </trkpt>
      <trkpt lat="59.9509706" lon="17.7066228">
        <ele>40.5128</ele>
        <time>2012-09-30T08:51:20Z</time>
      </trkpt>
      <trkpt lat="59.950989" lon="17.706646">
        <ele>40.5128</ele>
        <time>2012-09-30T08:51:21Z</time>
      </trkpt>
      <trkpt lat="59.9510045" lon="17.7066636">
        <ele>40.9934</ele>
        <time>2012-09-30T08:51:22Z</time>
      </trkpt>
      <trkpt lat="59.9510247" lon="17.7066806">
        <ele>40.9934</ele>
        <time>2012-09-30T08:51:23Z</time>
      </trkpt>
      <trkpt lat="59.9510494" lon="17.706704">
        <ele>41.474</ele>
        <time>2012-09-30T08:51:24Z</time>
      </trkpt>
      <trkpt lat="59.9510734" lon="17.7067197">
        <ele>41.474</ele>
        <time>2012-09-30T08:51:25Z</time>
      </trkpt>
      <trkpt lat="59.951097" lon="17.7067332">
        <ele>41.474</ele>
        <time>2012-09-30T08:51:26Z</time>
      </trkpt>
      <trkpt lat="59.9511169" lon="17.7067543">
        <ele>40.9934</ele>
        <time>2012-09-30T08:51:27Z</time>
      </trkpt>
      <trkpt lat="59.951136" lon="17.706774">
        <ele>40.5128</ele>
        <time>2012-09-30T08:51:28Z</time>
      </trkpt>
      <trkpt lat="59.9511566" lon="17.7067938">
        <ele>40.5128</ele>
        <time>2012-09-30T08:51:29Z</time>
      </trkpt>
      <trkpt lat="59.9511785" lon="17.7068171">
        <ele>40.5128</ele>
        <time>2012-09-30T08:51:30Z</time>
      </trkpt>
      <trkpt lat="59.9511992" lon="17.7068377">
        <ele>40.5128</ele>
        <time>2012-09-30T08:51:31Z</time>
      </trkpt>
      <trkpt lat="59.9512199" lon="17.7068563">
        <ele>40.5128</ele>
        <time>2012-09-30T08:51:32Z</time>
      </trkpt>
      <trkpt lat="59.9512406" lon="17.7068757">
        <ele>40.5128</ele>
        <time>2012-09-30T08:51:33Z</time>
      </trkpt>
      <trkpt lat="59.9512598" lon="17.7068948">
        <ele>40.0321</ele>
        <time>2012-09-30T08:51:34Z</time>
      </trkpt>
      <trkpt lat="59.951284" lon="17.7069118">
        <ele>40.0321</ele>
        <time>2012-09-30T08:51:35Z</time>
      </trkpt>
      <trkpt lat="59.9513107" lon="17.7069237">
        <ele>40.0321</ele>
        <time>2012-09-30T08:51:36Z</time>
      </trkpt>
      <trkpt lat="59.9513358" lon="17.7069357">
        <ele>39.5513</ele>
        <time>2012-09-30T08:51:37Z</time>
      </trkpt>
      <trkpt lat="59.9513568" lon="17.7069449">
        <ele>39.5513</ele>
        <time>2012-09-30T08:51:38Z</time>
      </trkpt>
      <trkpt lat="59.951379" lon="17.7069552">
        <ele>39.5513</ele>
        <time>2012-09-30T08:51:39Z</time>
      </trkpt>
      <trkpt lat="59.9514008" lon="17.7069708">
        <ele>40.0321</ele>
        <time>2012-09-30T08:51:40Z</time>
      </trkpt>
      <trkpt lat="59.9514231" lon="17.7069804">
        <ele>40.0321</ele>
        <time>2012-09-30T08:51:41Z</time>
      </trkpt>
      <trkpt lat="59.9514459" lon="17.7069884">
        <ele>40.0321</ele>
        <time>2012-09-30T08:51:42Z</time>
      </trkpt>
      <trkpt lat="59.951469" lon="17.7070018">
        <ele>40.5128</ele>
        <time>2012-09-30T08:51:43Z</time>
      </trkpt>
      <trkpt lat="59.951492" lon="17.7070164">
        <ele>40.5128</ele>
        <time>2012-09-30T08:51:44Z</time>
      </trkpt>
      <trkpt lat="59.9515155" lon="17.7070321">
        <ele>40.9934</ele>
        <time>2012-09-30T08:51:45Z</time>
      </trkpt>
      <trkpt lat="59.9515359" lon="17.7070474">
        <ele>40.9934</ele>
        <time>2012-09-30T08:51:46Z</time>
      </trkpt>
      <trkpt lat="59.9515541" lon="17.707064">
        <ele>40.9934</ele>
        <time>2012-09-30T08:51:47Z</time>
      </trkpt>
      <trkpt lat="59.951571" lon="17.7070826">
        <ele>41.474</ele>
        <time>2012-09-30T08:51:48Z</time>
      </trkpt>
      <trkpt lat="59.9515906" lon="17.7071008">
        <ele>41.9547</ele>
        <time>2012-09-30T08:51:49Z</time>
      </trkpt>
      <trkpt lat="59.95161" lon="17.7071137">
        <ele>42.4354</ele>
        <time>2012-09-30T08:51:50Z</time>
      </trkpt>
      <trkpt lat="59.9516317" lon="17.7071202">
        <ele>42.4354</ele>
        <time>2012-09-30T08:51:51Z</time>
      </trkpt>
      <trkpt lat="59.9516626" lon="17.7071217">
        <ele>42.916</ele>
        <time>2012-09-30T08:51:52Z</time>
      </trkpt>
      <trkpt lat="59.9516923" lon="17.7071201">
        <ele>42.916</ele>
        <time>2012-09-30T08:51:53Z</time>
      </trkpt>
      <trkpt lat="59.9517157" lon="17.7071202">
        <ele>42.916</ele>
        <time>2012-09-30T08:51:54Z</time>
      </trkpt>
      <trkpt lat="59.9517389" lon="17.7071298">
        <ele>42.916</ele>
        <time>2012-09-30T08:51:55Z</time>
      </trkpt>
      <trkpt lat="59.9517606" lon="17.7071486">
        <ele>42.916</ele>
        <time>2012-09-30T08:51:56Z</time>
      </trkpt>
      <trkpt lat="59.95178" lon="17.7071676">
        <ele>42.4354</ele>
        <time>2012-09-30T08:51:57Z</time>
      </trkpt>
      <trkpt lat="59.9517995" lon="17.7071839">
        <ele>41.9547</ele>
        <time>2012-09-30T08:51:58Z</time>
      </trkpt>
      <trkpt lat="59.9518224" lon="17.7071998">
        <ele>41.9547</ele>
        <time>2012-09-30T08:51:59Z</time>
      </trkpt>
      <trkpt lat="59.9518445" lon="17.7072222">
        <ele>41.474</ele>
        <time>2012-09-30T08:52:00Z</time>
      </trkpt>
      <trkpt lat="59.9518608" lon="17.7072406">
        <ele>40.9934</ele>
        <time>2012-09-30T08:52:01Z</time>
      </trkpt>
      <trkpt lat="59.9518786" lon="17.7072575">
        <ele>40.9934</ele>
        <time>2012-09-30T08:52:02Z</time>
      </trkpt>
      <trkpt lat="59.9519009" lon="17.7072777">
        <ele>40.9934</ele>
        <time>2012-09-30T08:52:03Z</time>
      </trkpt>
      <trkpt lat="59.9519218" lon="17.7072972">
        <ele>40.5128</ele>
        <time>2012-09-30T08:52:04Z</time>
      </trkpt>
      <trkpt lat="59.9519404" lon="17.7073136">
        <ele>40.0321</ele>
        <time>2012-09-30T08:52:05Z</time>
      </trkpt>
      <trkpt lat="59.9519602" lon="17.7073304">
        <ele>40.0321</ele>
        <time>2012-09-30T08:52:06Z</time>
      </trkpt>
      <trkpt lat="59.9519783" lon="17.7073541">
        <ele>40.0321</ele>
        <time>2012-09-30T08:52:07Z</time>
      </trkpt>
      <trkpt lat="59.9519952" lon="17.7073786">
        <ele>39.5513</ele>
        <time>2012-09-30T08:52:08Z</time>
      </trkpt>
      <trkpt lat="59.9520119" lon="17.7074003">
        <ele>39.0707</ele>
        <time>2012-09-30T08:52:09Z</time>
      </trkpt>
      <trkpt lat="59.952027" lon="17.7074216">
        <ele>39.0707</ele>
        <time>2012-09-30T08:52:10Z</time>
      </trkpt>
      <trkpt lat="59.952046" lon="17.7074475">
        <ele>38.5901</ele>
        <time>2012-09-30T08:52:11Z</time>
      </trkpt>
      <trkpt lat="59.9520664" lon="17.7074742">
        <ele>38.5901</ele>
        <time>2012-09-30T08:52:12Z</time>
      </trkpt>
      <trkpt lat="59.9520865" lon="17.7074935">
        <ele>38.1094</ele>
        <time>2012-09-30T08:52:13Z</time>
      </trkpt>
      <trkpt lat="59.9521064" lon="17.7075136">
        <ele>37.1481</ele>
        <time>2012-09-30T08:52:14Z</time>
      </trkpt>
      <trkpt lat="59.9521252" lon="17.7075381">
        <ele>37.1481</ele>
        <time>2012-09-30T08:52:15Z</time>
      </trkpt>
      <trkpt lat="59.9521418" lon="17.7075563">
        <ele>36.6675</ele>
        <time>2012-09-30T08:52:16Z</time>
      </trkpt>
      <trkpt lat="59.9521612" lon="17.707575">
        <ele>37.1481</ele>
        <time>2012-09-30T08:52:17Z</time>
      </trkpt>
      <trkpt lat="59.9521812" lon="17.7075977">
        <ele>37.1481</ele>
        <time>2012-09-30T08:52:18Z</time>
      </trkpt>
      <trkpt lat="59.9521989" lon="17.70762">
        <ele>37.1481</ele>
        <time>2012-09-30T08:52:19Z</time>
      </trkpt>
      <trkpt lat="59.9522182" lon="17.7076372">
        <ele>37.6287</ele>
        <time>2012-09-30T08:52:20Z</time>
      </trkpt>
      <trkpt lat="59.9522392" lon="17.7076579">
        <ele>37.6287</ele>
        <time>2012-09-30T08:52:21Z</time>
      </trkpt>
      <trkpt lat="59.9522592" lon="17.7076807">
        <ele>37.6287</ele>
        <time>2012-09-30T08:52:22Z</time>
      </trkpt>
      <trkpt lat="59.9522788" lon="17.7077008">
        <ele>37.6287</ele>
        <time>2012-09-30T08:52:23Z</time>
      </trkpt>
      <trkpt lat="59.9522984" lon="17.7077183">
        <ele>37.6287</ele>
        <time>2012-09-30T08:52:24Z</time>
      </trkpt>
      <trkpt lat="59.9523172" lon="17.7077341">
        <ele>37.1481</ele>
        <time>2012-09-30T08:52:25Z</time>
      </trkpt>
      <trkpt lat="59.9523379" lon="17.7077488">
        <ele>37.6287</ele>
        <time>2012-09-30T08:52:26Z</time>
      </trkpt>
      <trkpt lat="59.9523614" lon="17.7077635">
        <ele>37.6287</ele>
        <time>2012-09-30T08:52:27Z</time>
      </trkpt>
      <trkpt lat="59.952386" lon="17.7077858">
        <ele>37.1481</ele>
        <time>2012-09-30T08:52:28Z</time>
      </trkpt>
      <trkpt lat="59.9524096" lon="17.7078061">
        <ele>37.1481</ele>
        <time>2012-09-30T08:52:29Z</time>
      </trkpt>
      <trkpt lat="59.9524343" lon="17.7078273">
        <ele>37.1481</ele>
        <time>2012-09-30T08:52:30Z</time>
      </trkpt>
      <trkpt lat="59.9524562" lon="17.7078526">
        <ele>36.6675</ele>
        <time>2012-09-30T08:52:31Z</time>
      </trkpt>
      <trkpt lat="59.9524756" lon="17.7078741">
        <ele>36.1868</ele>
        <time>2012-09-30T08:52:32Z</time>
      </trkpt>
      <trkpt lat="59.9524918" lon="17.7078969">
        <ele>36.1868</ele>
        <time>2012-09-30T08:52:33Z</time>
      </trkpt>
      <trkpt lat="59.9525119" lon="17.7079198">
        <ele>36.1868</ele>
        <time>2012-09-30T08:52:34Z</time>
      </trkpt>
      <trkpt lat="59.9525313" lon="17.7079386">
        <ele>35.7061</ele>
        <time>2012-09-30T08:52:35Z</time>
      </trkpt>
      <trkpt lat="59.952547" lon="17.7079588">
        <ele>36.1868</ele>
        <time>2012-09-30T08:52:36Z</time>
      </trkpt>
      <trkpt lat="59.9525607" lon="17.707986">
        <ele>35.7061</ele>
        <time>2012-09-30T08:52:37Z</time>
      </trkpt>
      <trkpt lat="59.9525808" lon="17.7080059">
        <ele>35.7061</ele>
        <time>2012-09-30T08:52:38Z</time>
      </trkpt>
      <trkpt lat="59.9525978" lon="17.7080239">
        <ele>35.2255</ele>
        <time>2012-09-30T08:52:39Z</time>
      </trkpt>
      <trkpt lat="59.9526212" lon="17.7080397">
        <ele>35.2255</ele>
        <time>2012-09-30T08:52:40Z</time>
      </trkpt>
      <trkpt lat="59.9526495" lon="17.7080555">
        <ele>35.7061</ele>
        <time>2012-09-30T08:52:41Z</time>
      </trkpt>
      <trkpt lat="59.9526719" lon="17.7080747">
        <ele>35.7061</ele>
        <time>2012-09-30T08:52:42Z</time>
      </trkpt>
      <trkpt lat="59.9526926" lon="17.7080979">
        <ele>35.2255</ele>
        <time>2012-09-30T08:52:43Z</time>
      </trkpt>
      <trkpt lat="59.9527113" lon="17.7081266">
        <ele>35.7061</ele>
        <time>2012-09-30T08:52:44Z</time>
      </trkpt>
      <trkpt lat="59.9527293" lon="17.7081577">
        <ele>36.1868</ele>
        <time>2012-09-30T08:52:45Z</time>
      </trkpt>
      <trkpt lat="59.9527511" lon="17.7081884">
        <ele>36.6675</ele>
        <time>2012-09-30T08:52:46Z</time>
      </trkpt>
      <trkpt lat="59.952776" lon="17.7082111">
        <ele>36.6675</ele>
        <time>2012-09-30T08:52:47Z</time>
      </trkpt>
      <trkpt lat="59.9527966" lon="17.7082286">
        <ele>36.6675</ele>
        <time>2012-09-30T08:52:48Z</time>
      </trkpt>
      <trkpt lat="59.9528133" lon="17.7082433">
        <ele>37.1481</ele>
        <time>2012-09-30T08:52:49Z</time>
      </trkpt>
      <trkpt lat="59.9528289" lon="17.7082659">
        <ele>37.6287</ele>
        <time>2012-09-30T08:52:50Z</time>
      </trkpt>
      <trkpt lat="59.952849" lon="17.7083039">
        <ele>38.5901</ele>
        <time>2012-09-30T08:52:51Z</time>
      </trkpt>
      <trkpt lat="59.952866" lon="17.7083336">
        <ele>39.0707</ele>
        <time>2012-09-30T08:52:52Z</time>
      </trkpt>
      <trkpt lat="59.9528817" lon="17.7083316">
        <ele>39.5513</ele>
        <time>2012-09-30T08:52:53Z</time>
      </trkpt>
      <trkpt lat="59.9528965" lon="17.7082992">
        <ele>40.0321</ele>
        <time>2012-09-30T08:52:54Z</time>
      </trkpt>
      <trkpt lat="59.9529048" lon="17.708245">
        <ele>39.5513</ele>
        <time>2012-09-30T08:52:55Z</time>
      </trkpt>
      <trkpt lat="59.9529189" lon="17.7081915">
        <ele>40.0321</ele>
        <time>2012-09-30T08:52:56Z</time>
      </trkpt>
      <trkpt lat="59.9529412" lon="17.7081624">
        <ele>40.0321</ele>
        <time>2012-09-30T08:52:57Z</time>
      </trkpt>
      <trkpt lat="59.9529693" lon="17.7081485">
        <ele>40.9934</ele>
        <time>2012-09-30T08:52:58Z</time>
      </trkpt>
      <trkpt lat="59.9529965" lon="17.7081458">
        <ele>40.9934</ele>
        <time>2012-09-30T08:52:59Z</time>
      </trkpt>
      <trkpt lat="59.9530287" lon="17.7081516">
        <ele>41.9547</ele>
        <time>2012-09-30T08:53:00Z</time>
      </trkpt>
      <trkpt lat="59.953061" lon="17.7081535">
        <ele>42.4354</ele>
        <time>2012-09-30T08:53:01Z</time>
      </trkpt>
      <trkpt lat="59.9531006" lon="17.7081625">
        <ele>43.3966</ele>
        <time>2012-09-30T08:53:02Z</time>
      </trkpt>
      <trkpt lat="59.9531257" lon="17.7081866">
        <ele>42.916</ele>
        <time>2012-09-30T08:53:03Z</time>
      </trkpt>
      <trkpt lat="59.953146" lon="17.7082105">
        <ele>42.916</ele>
        <time>2012-09-30T08:53:04Z</time>
      </trkpt>
      <trkpt lat="59.9531646" lon="17.7082266">
        <ele>43.8773</ele>
        <time>2012-09-30T08:53:05Z</time>
      </trkpt>
      <trkpt lat="59.9531837" lon="17.7082544">
        <ele>43.3966</ele>
        <time>2012-09-30T08:53:06Z</time>
      </trkpt>
      <trkpt lat="59.9532017" lon="17.7082855">
        <ele>42.916</ele>
        <time>2012-09-30T08:53:07Z</time>
      </trkpt>
      <trkpt lat="59.9532164" lon="17.7083137">
        <ele>42.4354</ele>
        <time>2012-09-30T08:53:08Z</time>
      </trkpt>
      <trkpt lat="59.9532327" lon="17.7083405">
        <ele>42.4354</ele>
        <time>2012-09-30T08:53:09Z</time>
      </trkpt>
      <trkpt lat="59.953248" lon="17.7083706">
        <ele>42.4354</ele>
        <time>2012-09-30T08:53:10Z</time>
      </trkpt>
      <trkpt lat="59.9532615" lon="17.7084098">
        <ele>42.4354</ele>
        <time>2012-09-30T08:53:11Z</time>
      </trkpt>
      <trkpt lat="59.9532737" lon="17.7084437">
        <ele>41.9547</ele>
        <time>2012-09-30T08:53:12Z</time>
      </trkpt>
      <trkpt lat="59.9532846" lon="17.7084789">
        <ele>41.9547</ele>
        <time>2012-09-30T08:53:13Z</time>
      </trkpt>
      <trkpt lat="59.953304" lon="17.7085136">
        <ele>42.4354</ele>
        <time>2012-09-30T08:53:14Z</time>
      </trkpt>
      <trkpt lat="59.9533219" lon="17.7085373">
        <ele>42.4354</ele>
        <time>2012-09-30T08:53:15Z</time>
      </trkpt>
      <trkpt lat="59.953336" lon="17.7085639">
        <ele>42.4354</ele>
        <time>2012-09-30T08:53:16Z</time>
      </trkpt>
      <trkpt lat="59.953353" lon="17.7085867">
        <ele>42.4354</ele>
        <time>2012-09-30T08:53:17Z</time>
      </trkpt>
      <trkpt lat="59.9533714" lon="17.7085991">
        <ele>41.9547</ele>
        <time>2012-09-30T08:53:18Z</time>
      </trkpt>
      <trkpt lat="59.9533892" lon="17.7086234">
        <ele>41.9547</ele>
        <time>2012-09-30T08:53:19Z</time>
      </trkpt>
      <trkpt lat="59.9534127" lon="17.7086508">
        <ele>41.474</ele>
        <time>2012-09-30T08:53:20Z</time>
      </trkpt>
      <trkpt lat="59.9534293" lon="17.7086745">
        <ele>40.9934</ele>
        <time>2012-09-30T08:53:21Z</time>
      </trkpt>
      <trkpt lat="59.9534514" lon="17.7087052">
        <ele>41.474</ele>
        <time>2012-09-30T08:53:22Z</time>
      </trkpt>
      <trkpt lat="59.9534696" lon="17.7087343">
        <ele>40.9934</ele>
        <time>2012-09-30T08:53:23Z</time>
      </trkpt>
      <trkpt lat="59.9534871" lon="17.7087569">
        <ele>40.5128</ele>
        <time>2012-09-30T08:53:24Z</time>
      </trkpt>
      <trkpt lat="59.9535021" lon="17.7087817">
        <ele>40.5128</ele>
        <time>2012-09-30T08:53:25Z</time>
      </trkpt>
      <trkpt lat="59.9535143" lon="17.7088029">
        <ele>40.0321</ele>
        <time>2012-09-30T08:53:26Z</time>
      </trkpt>
      <trkpt lat="59.9535299" lon="17.7088207">
        <ele>40.0321</ele>
        <time>2012-09-30T08:53:27Z</time>
      </trkpt>
      <trkpt lat="59.9535422" lon="17.7088394">
        <ele>39.5513</ele>
        <time>2012-09-30T08:53:28Z</time>
      </trkpt>
      <trkpt lat="59.953555" lon="17.7088554">
        <ele>39.5513</ele>
        <time>2012-09-30T08:53:29Z</time>
      </trkpt>
      <trkpt lat="59.9535703" lon="17.7088736">
        <ele>39.5513</ele>
        <time>2012-09-30T08:53:30Z</time>
      </trkpt>
      <trkpt lat="59.9535861" lon="17.7088954">
        <ele>39.5513</ele>
        <time>2012-09-30T08:53:31Z</time>
      </trkpt>
      <trkpt lat="59.9536026" lon="17.7089145">
        <ele>39.5513</ele>
        <time>2012-09-30T08:53:32Z</time>
      </trkpt>
      <trkpt lat="59.9536198" lon="17.7089326">
        <ele>39.5513</ele>
        <time>2012-09-30T08:53:33Z</time>
      </trkpt>
      <trkpt lat="59.9536349" lon="17.7089508">
        <ele>39.0707</ele>
        <time>2012-09-30T08:53:34Z</time>
      </trkpt>
      <trkpt lat="59.9536593" lon="17.708964">
        <ele>39.5513</ele>
        <time>2012-09-30T08:53:35Z</time>
      </trkpt>
      <trkpt lat="59.9536825" lon="17.7089766">
        <ele>38.5901</ele>
        <time>2012-09-30T08:53:36Z</time>
      </trkpt>
      <trkpt lat="59.9537217" lon="17.708987">
        <ele>39.0707</ele>
        <time>2012-09-30T08:53:37Z</time>
      </trkpt>
      <trkpt lat="59.953759" lon="17.7089927">
        <ele>39.0707</ele>
        <time>2012-09-30T08:53:38Z</time>
      </trkpt>
      <trkpt lat="59.9537923" lon="17.7090021">
        <ele>40.0321</ele>
        <time>2012-09-30T08:53:39Z</time>
      </trkpt>
      <trkpt lat="59.9538178" lon="17.7090234">
        <ele>40.0321</ele>
        <time>2012-09-30T08:53:40Z</time>
      </trkpt>
      <trkpt lat="59.953838" lon="17.7090405">
        <ele>39.5513</ele>
        <time>2012-09-30T08:53:41Z</time>
      </trkpt>
      <trkpt lat="59.9538701" lon="17.7090567">
        <ele>40.5128</ele>
        <time>2012-09-30T08:53:42Z</time>
      </trkpt>
      <trkpt lat="59.9539012" lon="17.7090776">
        <ele>40.9934</ele>
        <time>2012-09-30T08:53:43Z</time>
      </trkpt>
      <trkpt lat="59.9539348" lon="17.709094">
        <ele>40.9934</ele>
        <time>2012-09-30T08:53:44Z</time>
      </trkpt>
      <trkpt lat="59.9539623" lon="17.7091087">
        <ele>41.474</ele>
        <time>2012-09-30T08:53:45Z</time>
      </trkpt>
      <trkpt lat="59.9539828" lon="17.7091305">
        <ele>41.9547</ele>
        <time>2012-09-30T08:53:46Z</time>
      </trkpt>
      <trkpt lat="59.9539974" lon="17.7091636">
        <ele>41.9547</ele>
        <time>2012-09-30T08:53:47Z</time>
      </trkpt>
      <trkpt lat="59.9540121" lon="17.7092021">
        <ele>41.9547</ele>
        <time>2012-09-30T08:53:48Z</time>
      </trkpt>
      <trkpt lat="59.954029" lon="17.7092377">
        <ele>42.916</ele>
        <time>2012-09-30T08:53:49Z</time>
      </trkpt>
      <trkpt lat="59.9540441" lon="17.7092713">
        <ele>42.4354</ele>
        <time>2012-09-30T08:53:50Z</time>
      </trkpt>
      <trkpt lat="59.9540597" lon="17.7093018">
        <ele>42.4354</ele>
        <time>2012-09-30T08:53:51Z</time>
      </trkpt>
      <trkpt lat="59.9540752" lon="17.7093299">
        <ele>42.4354</ele>
        <time>2012-09-30T08:53:52Z</time>
      </trkpt>
      <trkpt lat="59.9540887" lon="17.7093671">
        <ele>41.9547</ele>
        <time>2012-09-30T08:53:53Z</time>
      </trkpt>
      <trkpt lat="59.9541077" lon="17.7093995">
        <ele>41.9547</ele>
        <time>2012-09-30T08:53:54Z</time>
      </trkpt>
      <trkpt lat="59.9541265" lon="17.7094299">
        <ele>41.474</ele>
        <time>2012-09-30T08:53:55Z</time>
      </trkpt>
      <trkpt lat="59.9541446" lon="17.7094563">
        <ele>40.5128</ele>
        <time>2012-09-30T08:53:56Z</time>
      </trkpt>
      <trkpt lat="59.9541677" lon="17.7094831">
        <ele>40.5128</ele>
        <time>2012-09-30T08:53:57Z</time>
      </trkpt>
      <trkpt lat="59.9541952" lon="17.7095067">
        <ele>40.5128</ele>
        <time>2012-09-30T08:53:58Z</time>
      </trkpt>
      <trkpt lat="59.9542254" lon="17.7095344">
        <ele>40.5128</ele>
        <time>2012-09-30T08:53:59Z</time>
      </trkpt>
      <trkpt lat="59.9542477" lon="17.7095651">
        <ele>40.5128</ele>
        <time>2012-09-30T08:54:00Z</time>
      </trkpt>
      <trkpt lat="59.9542638" lon="17.7095961">
        <ele>40.9934</ele>
        <time>2012-09-30T08:54:01Z</time>
      </trkpt>
      <trkpt lat="59.9542835" lon="17.7096247">
        <ele>40.9934</ele>
        <time>2012-09-30T08:54:02Z</time>
      </trkpt>
      <trkpt lat="59.9543032" lon="17.7096489">
        <ele>41.474</ele>
        <time>2012-09-30T08:54:03Z</time>
      </trkpt>
      <trkpt lat="59.9543185" lon="17.7096701">
        <ele>41.9547</ele>
        <time>2012-09-30T08:54:04Z</time>
      </trkpt>
      <trkpt lat="59.9543323" lon="17.7096913">
        <ele>41.9547</ele>
        <time>2012-09-30T08:54:05Z</time>
      </trkpt>
      <trkpt lat="59.9543504" lon="17.7097141">
        <ele>41.9547</ele>
        <time>2012-09-30T08:54:06Z</time>
      </trkpt>
      <trkpt lat="59.9543661" lon="17.7097449">
        <ele>41.9547</ele>
        <time>2012-09-30T08:54:07Z</time>
      </trkpt>
      <trkpt lat="59.9543804" lon="17.7097768">
        <ele>41.474</ele>
        <time>2012-09-30T08:54:08Z</time>
      </trkpt>
      <trkpt lat="59.9543982" lon="17.709805">
        <ele>41.474</ele>
        <time>2012-09-30T08:54:09Z</time>
      </trkpt>
      <trkpt lat="59.9544119" lon="17.7098394">
        <ele>40.5128</ele>
        <time>2012-09-30T08:54:10Z</time>
      </trkpt>
      <trkpt lat="59.9544269" lon="17.709874">
        <ele>40.0321</ele>
        <time>2012-09-30T08:54:11Z</time>
      </trkpt>
      <trkpt lat="59.9544415" lon="17.7099023">
        <ele>39.5513</ele>
        <time>2012-09-30T08:54:12Z</time>
      </trkpt>
      <trkpt lat="59.9544585" lon="17.7099355">
        <ele>39.5513</ele>
        <time>2012-09-30T08:54:13Z</time>
      </trkpt>
      <trkpt lat="59.9544749" lon="17.7099653">
        <ele>39.0707</ele>
        <time>2012-09-30T08:54:14Z</time>
      </trkpt>
      <trkpt lat="59.9544925" lon="17.7099933">
        <ele>39.0707</ele>
        <time>2012-09-30T08:54:15Z</time>
      </trkpt>
      <trkpt lat="59.9545098" lon="17.7100239">
        <ele>38.5901</ele>
        <time>2012-09-30T08:54:16Z</time>
      </trkpt>
      <trkpt lat="59.9545276" lon="17.7100531">
        <ele>38.5901</ele>
        <time>2012-09-30T08:54:17Z</time>
      </trkpt>
      <trkpt lat="59.9545426" lon="17.7100803">
        <ele>38.1094</ele>
        <time>2012-09-30T08:54:18Z</time>
      </trkpt>
      <trkpt lat="59.9545552" lon="17.7101119">
        <ele>38.1094</ele>
        <time>2012-09-30T08:54:19Z</time>
      </trkpt>
      <trkpt lat="59.9545707" lon="17.7101458">
        <ele>37.6287</ele>
        <time>2012-09-30T08:54:20Z</time>
      </trkpt>
      <trkpt lat="59.9545874" lon="17.7101784">
        <ele>37.6287</ele>
        <time>2012-09-30T08:54:21Z</time>
      </trkpt>
      <trkpt lat="59.9546005" lon="17.7102125">
        <ele>37.6287</ele>
        <time>2012-09-30T08:54:22Z</time>
      </trkpt>
      <trkpt lat="59.9546151" lon="17.7102508">
        <ele>38.1094</ele>
        <time>2012-09-30T08:54:23Z</time>
      </trkpt>
      <trkpt lat="59.9546288" lon="17.7102896">
        <ele>38.1094</ele>
        <time>2012-09-30T08:54:24Z</time>
      </trkpt>
      <trkpt lat="59.9546461" lon="17.7103259">
        <ele>38.1094</ele>
        <time>2012-09-30T08:54:25Z</time>
      </trkpt>
      <trkpt lat="59.9546601" lon="17.7103575">
        <ele>37.6287</ele>
        <time>2012-09-30T08:54:26Z</time>
      </trkpt>
      <trkpt lat="59.9546718" lon="17.7103882">
        <ele>37.1481</ele>
        <time>2012-09-30T08:54:27Z</time>
      </trkpt>
      <trkpt lat="59.9546912" lon="17.7104157">
        <ele>37.6287</ele>
        <time>2012-09-30T08:54:28Z</time>
      </trkpt>
      <trkpt lat="59.954701" lon="17.7104374">
        <ele>37.1481</ele>
        <time>2012-09-30T08:54:29Z</time>
      </trkpt>
      <trkpt lat="59.9547137" lon="17.7104603">
        <ele>37.1481</ele>
        <time>2012-09-30T08:54:30Z</time>
      </trkpt>
      <trkpt lat="59.9547243" lon="17.7104877">
        <ele>37.6287</ele>
        <time>2012-09-30T08:54:31Z</time>
      </trkpt>
      <trkpt lat="59.9547388" lon="17.7105087">
        <ele>38.5901</ele>
        <time>2012-09-30T08:54:32Z</time>
      </trkpt>
      <trkpt lat="59.9547492" lon="17.7105346">
        <ele>39.0707</ele>
        <time>2012-09-30T08:54:33Z</time>
      </trkpt>
      <trkpt lat="59.954762" lon="17.7105545">
        <ele>39.5513</ele>
        <time>2012-09-30T08:54:34Z</time>
      </trkpt>
      <trkpt lat="59.9547777" lon="17.7105803">
        <ele>40.5128</ele>
        <time>2012-09-30T08:54:35Z</time>
      </trkpt>
      <trkpt lat="59.9547983" lon="17.7106051">
        <ele>40.9934</ele>
        <time>2012-09-30T08:54:36Z</time>
      </trkpt>
      <trkpt lat="59.9548117" lon="17.7106302">
        <ele>40.5128</ele>
        <time>2012-09-30T08:54:37Z</time>
      </trkpt>
      <trkpt lat="59.9548217" lon="17.7106513">
        <ele>40.0321</ele>
        <time>2012-09-30T08:54:38Z</time>
      </trkpt>
      <trkpt lat="59.9548341" lon="17.710683">
        <ele>39.5513</ele>
        <time>2012-09-30T08:54:39Z</time>
      </trkpt>
      <trkpt lat="59.954848" lon="17.7107207">
        <ele>40.5128</ele>
        <time>2012-09-30T08:54:40Z</time>
      </trkpt>
      <trkpt lat="59.9548598" lon="17.7107442">
        <ele>40.0321</ele>
        <time>2012-09-30T08:54:41Z</time>
      </trkpt>
      <trkpt lat="59.9548727" lon="17.7107638">
        <ele>39.5513</ele>
        <time>2012-09-30T08:54:42Z</time>
      </trkpt>
      <trkpt lat="59.9548865" lon="17.7107948">
        <ele>39.5513</ele>
        <time>2012-09-30T08:54:43Z</time>
      </trkpt>
      <trkpt lat="59.9549" lon="17.7108249">
        <ele>39.5513</ele>
        <time>2012-09-30T08:54:44Z</time>
      </trkpt>
      <trkpt lat="59.9549102" lon="17.710852">
        <ele>39.5513</ele>
        <time>2012-09-30T08:54:45Z</time>
      </trkpt>
      <trkpt lat="59.9549215" lon="17.7108923">
        <ele>41.9547</ele>
        <time>2012-09-30T08:54:46Z</time>
      </trkpt>
      <trkpt lat="59.9549264" lon="17.7109276">
        <ele>41.9547</ele>
        <time>2012-09-30T08:54:47Z</time>
      </trkpt>
      <trkpt lat="59.9549393" lon="17.7109651">
        <ele>41.474</ele>
        <time>2012-09-30T08:54:48Z</time>
      </trkpt>
      <trkpt lat="59.9549588" lon="17.7110109">
        <ele>41.9547</ele>
        <time>2012-09-30T08:54:49Z</time>
      </trkpt>
      <trkpt lat="59.954975" lon="17.7110609">
        <ele>42.4354</ele>
        <time>2012-09-30T08:54:50Z</time>
      </trkpt>
      <trkpt lat="59.954989" lon="17.7111122">
        <ele>42.4354</ele>
        <time>2012-09-30T08:54:51Z</time>
      </trkpt>
      <trkpt lat="59.955002" lon="17.7111571">
        <ele>42.916</ele>
        <time>2012-09-30T08:54:52Z</time>
      </trkpt>
      <trkpt lat="59.9550117" lon="17.7111984">
        <ele>43.3966</ele>
        <time>2012-09-30T08:54:53Z</time>
      </trkpt>
      <trkpt lat="59.9550225" lon="17.7112418">
        <ele>43.8773</ele>
        <time>2012-09-30T08:54:54Z</time>
      </trkpt>
      <trkpt lat="59.9550357" lon="17.7112859">
        <ele>44.358</ele>
        <time>2012-09-30T08:54:55Z</time>
      </trkpt>
      <trkpt lat="59.9550513" lon="17.7113288">
        <ele>44.8386</ele>
        <time>2012-09-30T08:54:56Z</time>
      </trkpt>
      <trkpt lat="59.9550666" lon="17.7113632">
        <ele>45.3192</ele>
        <time>2012-09-30T08:54:57Z</time>
      </trkpt>
      <trkpt lat="59.9550833" lon="17.7113994">
        <ele>45.3192</ele>
        <time>2012-09-30T08:54:58Z</time>
      </trkpt>
      <trkpt lat="59.955101" lon="17.7114375">
        <ele>45.3192</ele>
        <time>2012-09-30T08:54:59Z</time>
      </trkpt>
      <trkpt lat="59.9551175" lon="17.7114735">
        <ele>45.3192</ele>
        <time>2012-09-30T08:55:00Z</time>
      </trkpt>
      <trkpt lat="59.9551289" lon="17.7115118">
        <ele>44.8386</ele>
        <time>2012-09-30T08:55:01Z</time>
      </trkpt>
      <trkpt lat="59.9551372" lon="17.711547">
        <ele>43.8773</ele>
        <time>2012-09-30T08:55:02Z</time>
      </trkpt>
      <trkpt lat="59.9551496" lon="17.711592">
        <ele>44.8386</ele>
        <time>2012-09-30T08:55:03Z</time>
      </trkpt>
      <trkpt lat="59.9551656" lon="17.7116421">
        <ele>45.3192</ele>
        <time>2012-09-30T08:55:04Z</time>
      </trkpt>
      <trkpt lat="59.9551816" lon="17.7116817">
        <ele>45.7999</ele>
        <time>2012-09-30T08:55:05Z</time>
      </trkpt>
      <trkpt lat="59.9551993" lon="17.7117179">
        <ele>46.2806</ele>
        <time>2012-09-30T08:55:06Z</time>
      </trkpt>
      <trkpt lat="59.955216" lon="17.7117656">
        <ele>46.2806</ele>
        <time>2012-09-30T08:55:07Z</time>
      </trkpt>
      <trkpt lat="59.9552257" lon="17.7118209">
        <ele>46.2806</ele>
        <time>2012-09-30T08:55:08Z</time>
      </trkpt>
      <trkpt lat="59.9552271" lon="17.7118692">
        <ele>45.3192</ele>
        <time>2012-09-30T08:55:09Z</time>
      </trkpt>
      <trkpt lat="59.9552154" lon="17.7119157">
        <ele>44.8386</ele>
        <time>2012-09-30T08:55:10Z</time>
      </trkpt>
      <trkpt lat="59.9552019" lon="17.7119599">
        <ele>44.358</ele>
        <time>2012-09-30T08:55:11Z</time>
      </trkpt>
      <trkpt lat="59.9551975" lon="17.7120034">
        <ele>44.358</ele>
        <time>2012-09-30T08:55:12Z</time>
      </trkpt>
      <trkpt lat="59.955194" lon="17.712049">
        <ele>44.358</ele>
        <time>2012-09-30T08:55:13Z</time>
      </trkpt>
      <trkpt lat="59.9551896" lon="17.7120949">
        <ele>44.358</ele>
        <time>2012-09-30T08:55:14Z</time>
      </trkpt>
      <trkpt lat="59.9551869" lon="17.7121451">
        <ele>44.358</ele>
        <time>2012-09-30T08:55:15Z</time>
      </trkpt>
      <trkpt lat="59.9551868" lon="17.7122037">
        <ele>45.3192</ele>
        <time>2012-09-30T08:55:16Z</time>
      </trkpt>
      <trkpt lat="59.9551888" lon="17.7122629">
        <ele>45.3192</ele>
        <time>2012-09-30T08:55:17Z</time>
      </trkpt>
      <trkpt lat="59.9551941" lon="17.7123132">
        <ele>45.3192</ele>
        <time>2012-09-30T08:55:18Z</time>
      </trkpt>
      <trkpt lat="59.9552029" lon="17.7123671">
        <ele>45.7999</ele>
        <time>2012-09-30T08:55:19Z</time>
      </trkpt>
      <trkpt lat="59.9552142" lon="17.7124188">
        <ele>46.2806</ele>
        <time>2012-09-30T08:55:20Z</time>
      </trkpt>
      <trkpt lat="59.95523" lon="17.7124643">
        <ele>46.2806</ele>
        <time>2012-09-30T08:55:21Z</time>
      </trkpt>
      <trkpt lat="59.955249" lon="17.7125065">
        <ele>47.2418</ele>
        <time>2012-09-30T08:55:22Z</time>
      </trkpt>
      <trkpt lat="59.9552641" lon="17.7125525">
        <ele>47.7225</ele>
        <time>2012-09-30T08:55:23Z</time>
      </trkpt>
      <trkpt lat="59.955276" lon="17.7125973">
        <ele>47.7225</ele>
        <time>2012-09-30T08:55:24Z</time>
      </trkpt>
      <trkpt lat="59.9552837" lon="17.7126374">
        <ele>48.2034</ele>
        <time>2012-09-30T08:55:25Z</time>
      </trkpt>
      <trkpt lat="59.955293" lon="17.7126795">
        <ele>48.684</ele>
        <time>2012-09-30T08:55:26Z</time>
      </trkpt>
      <trkpt lat="59.9553081" lon="17.7127265">
        <ele>49.6453</ele>
        <time>2012-09-30T08:55:27Z</time>
      </trkpt>
      <trkpt lat="59.9553226" lon="17.7127693">
        <ele>49.6453</ele>
        <time>2012-09-30T08:55:28Z</time>
      </trkpt>
      <trkpt lat="59.9553385" lon="17.7128106">
        <ele>49.6453</ele>
        <time>2012-09-30T08:55:29Z</time>
      </trkpt>
      <trkpt lat="59.9553538" lon="17.7128581">
        <ele>50.6066</ele>
        <time>2012-09-30T08:55:30Z</time>
      </trkpt>
      <trkpt lat="59.9553605" lon="17.7129001">
        <ele>51.0872</ele>
        <time>2012-09-30T08:55:31Z</time>
      </trkpt>
      <trkpt lat="59.9553718" lon="17.7129399">
        <ele>51.5679</ele>
        <time>2012-09-30T08:55:32Z</time>
      </trkpt>
      <trkpt lat="59.9553884" lon="17.7129788">
        <ele>52.0486</ele>
        <time>2012-09-30T08:55:33Z</time>
      </trkpt>
      <trkpt lat="59.955403" lon="17.7130187">
        <ele>52.5292</ele>
        <time>2012-09-30T08:55:34Z</time>
      </trkpt>
      <trkpt lat="59.9554141" lon="17.7130586">
        <ele>53.0098</ele>
        <time>2012-09-30T08:55:35Z</time>
      </trkpt>
      <trkpt lat="59.9554283" lon="17.7130994">
        <ele>54.4518</ele>
        <time>2012-09-30T08:55:36Z</time>
      </trkpt>
      <trkpt lat="59.9554424" lon="17.713139">
        <ele>55.4131</ele>
        <time>2012-09-30T08:55:37Z</time>
      </trkpt>
      <trkpt lat="59.9554562" lon="17.7131783">
        <ele>55.8938</ele>
        <time>2012-09-30T08:55:38Z</time>
      </trkpt>
      <trkpt lat="59.9554676" lon="17.7132148">
        <ele>55.4131</ele>
        <time>2012-09-30T08:55:39Z</time>
      </trkpt>
      <trkpt lat="59.9554796" lon="17.7132516">
        <ele>55.4131</ele>
        <time>2012-09-30T08:55:40Z</time>
      </trkpt>
      <trkpt lat="59.9554909" lon="17.7132869">
        <ele>55.4131</ele>
        <time>2012-09-30T08:55:41Z</time>
      </trkpt>
      <trkpt lat="59.9554987" lon="17.7133279">
        <ele>54.9324</ele>
        <time>2012-09-30T08:55:42Z</time>
      </trkpt>
      <trkpt lat="59.9555029" lon="17.7133746">
        <ele>54.4518</ele>
        <time>2012-09-30T08:55:43Z</time>
      </trkpt>
      <trkpt lat="59.9555053" lon="17.713417">
        <ele>53.9712</ele>
        <time>2012-09-30T08:55:44Z</time>
      </trkpt>
      <trkpt lat="59.9555102" lon="17.713459">
        <ele>53.9712</ele>
        <time>2012-09-30T08:55:45Z</time>
      </trkpt>
      <trkpt lat="59.9555163" lon="17.7135025">
        <ele>53.4905</ele>
        <time>2012-09-30T08:55:46Z</time>
      </trkpt>
      <trkpt lat="59.9555225" lon="17.7135451">
        <ele>53.0098</ele>
        <time>2012-09-30T08:55:47Z</time>
      </trkpt>
      <trkpt lat="59.9555209" lon="17.7135904">
        <ele>53.0098</ele>
        <time>2012-09-30T08:55:48Z</time>
      </trkpt>
      <trkpt lat="59.9555169" lon="17.7136401">
        <ele>53.4905</ele>
        <time>2012-09-30T08:55:49Z</time>
      </trkpt>
      <trkpt lat="59.9555166" lon="17.7136867">
        <ele>53.4905</ele>
        <time>2012-09-30T08:55:50Z</time>
      </trkpt>
      <trkpt lat="59.9555178" lon="17.7137328">
        <ele>53.4905</ele>
        <time>2012-09-30T08:55:51Z</time>
      </trkpt>
      <trkpt lat="59.955524" lon="17.7137774">
        <ele>53.4905</ele>
        <time>2012-09-30T08:55:52Z</time>
      </trkpt>
      <trkpt lat="59.955535" lon="17.7138178">
        <ele>53.9712</ele>
        <time>2012-09-30T08:55:53Z</time>
      </trkpt>
      <trkpt lat="59.9555443" lon="17.7138629">
        <ele>55.4131</ele>
        <time>2012-09-30T08:55:54Z</time>
      </trkpt>
      <trkpt lat="59.9555536" lon="17.7139034">
        <ele>55.8938</ele>
        <time>2012-09-30T08:55:55Z</time>
      </trkpt>
      <trkpt lat="59.9555653" lon="17.7139449">
        <ele>56.3745</ele>
        <time>2012-09-30T08:55:56Z</time>
      </trkpt>
      <trkpt lat="59.9555764" lon="17.7139863">
        <ele>56.3745</ele>
        <time>2012-09-30T08:55:57Z</time>
      </trkpt>
      <trkpt lat="59.9555838" lon="17.7140303">
        <ele>56.3745</ele>
        <time>2012-09-30T08:55:58Z</time>
      </trkpt>
      <trkpt lat="59.9555873" lon="17.7140755">
        <ele>56.8551</ele>
        <time>2012-09-30T08:55:59Z</time>
      </trkpt>
      <trkpt lat="59.9555882" lon="17.7141152">
        <ele>55.8938</ele>
        <time>2012-09-30T08:56:00Z</time>
      </trkpt>
      <trkpt lat="59.9555925" lon="17.7141552">
        <ele>55.4131</ele>
        <time>2012-09-30T08:56:01Z</time>
      </trkpt>
      <trkpt lat="59.9555982" lon="17.7141935">
        <ele>54.9324</ele>
        <time>2012-09-30T08:56:02Z</time>
      </trkpt>
      <trkpt lat="59.9556053" lon="17.714237">
        <ele>55.4131</ele>
        <time>2012-09-30T08:56:03Z</time>
      </trkpt>
      <trkpt lat="59.9556112" lon="17.7142791">
        <ele>55.4131</ele>
        <time>2012-09-30T08:56:04Z</time>
      </trkpt>
      <trkpt lat="59.95562" lon="17.71432">
        <ele>55.4131</ele>
        <time>2012-09-30T08:56:05Z</time>
      </trkpt>
      <trkpt lat="59.9556313" lon="17.7143593">
        <ele>55.4131</ele>
        <time>2012-09-30T08:56:06Z</time>
      </trkpt>
      <trkpt lat="59.9556426" lon="17.7143976">
        <ele>54.9324</ele>
        <time>2012-09-30T08:56:07Z</time>
      </trkpt>
      <trkpt lat="59.9556521" lon="17.7144366">
        <ele>54.4518</ele>
        <time>2012-09-30T08:56:08Z</time>
      </trkpt>
      <trkpt lat="59.9556577" lon="17.7144737">
        <ele>53.9712</ele>
        <time>2012-09-30T08:56:09Z</time>
      </trkpt>
      <trkpt lat="59.9556651" lon="17.7145137">
        <ele>53.4905</ele>
        <time>2012-09-30T08:56:10Z</time>
      </trkpt>
      <trkpt lat="59.9556764" lon="17.7145466">
        <ele>53.0098</ele>
        <time>2012-09-30T08:56:11Z</time>
      </trkpt>
      <trkpt lat="59.9556877" lon="17.7145823">
        <ele>53.0098</ele>
        <time>2012-09-30T08:56:12Z</time>
      </trkpt>
      <trkpt lat="59.9556967" lon="17.714623">
        <ele>52.0486</ele>
        <time>2012-09-30T08:56:13Z</time>
      </trkpt>
      <trkpt lat="59.9557036" lon="17.7146606">
        <ele>52.0486</ele>
        <time>2012-09-30T08:56:14Z</time>
      </trkpt>
      <trkpt lat="59.9557117" lon="17.7146873">
        <ele>51.5679</ele>
        <time>2012-09-30T08:56:15Z</time>
      </trkpt>
      <trkpt lat="59.9557224" lon="17.7147198">
        <ele>51.5679</ele>
        <time>2012-09-30T08:56:16Z</time>
      </trkpt>
      <trkpt lat="59.9557283" lon="17.7147521">
        <ele>51.0872</ele>
        <time>2012-09-30T08:56:17Z</time>
      </trkpt>
      <trkpt lat="59.955737" lon="17.7147864">
        <ele>51.0872</ele>
        <time>2012-09-30T08:56:18Z</time>
      </trkpt>
      <trkpt lat="59.955744" lon="17.7148162">
        <ele>50.6066</ele>
        <time>2012-09-30T08:56:19Z</time>
      </trkpt>
      <trkpt lat="59.955754" lon="17.7148519">
        <ele>51.0872</ele>
        <time>2012-09-30T08:56:20Z</time>
      </trkpt>
      <trkpt lat="59.9557686" lon="17.7148885">
        <ele>51.5679</ele>
        <time>2012-09-30T08:56:21Z</time>
      </trkpt>
      <trkpt lat="59.955779" lon="17.7149219">
        <ele>51.5679</ele>
        <time>2012-09-30T08:56:22Z</time>
      </trkpt>
      <trkpt lat="59.9557924" lon="17.7149587">
        <ele>51.5679</ele>
        <time>2012-09-30T08:56:23Z</time>
      </trkpt>
      <trkpt lat="59.9558018" lon="17.7149989">
        <ele>50.6066</ele>
        <time>2012-09-30T08:56:24Z</time>
      </trkpt>
      <trkpt lat="59.9558214" lon="17.7150358">
        <ele>51.0872</ele>
        <time>2012-09-30T08:56:25Z</time>
      </trkpt>
      <trkpt lat="59.9558375" lon="17.7150734">
        <ele>52.0486</ele>
        <time>2012-09-30T08:56:26Z</time>
      </trkpt>
      <trkpt lat="59.9558503" lon="17.7151022">
        <ele>52.0486</ele>
        <time>2012-09-30T08:56:27Z</time>
      </trkpt>
      <trkpt lat="59.9558689" lon="17.7151368">
        <ele>52.5292</ele>
        <time>2012-09-30T08:56:28Z</time>
      </trkpt>
      <trkpt lat="59.9558836" lon="17.7151719">
        <ele>52.0486</ele>
        <time>2012-09-30T08:56:29Z</time>
      </trkpt>
      <trkpt lat="59.9558977" lon="17.7152056">
        <ele>52.0486</ele>
        <time>2012-09-30T08:56:30Z</time>
      </trkpt>
      <trkpt lat="59.9559103" lon="17.7152306">
        <ele>50.6066</ele>
        <time>2012-09-30T08:56:31Z</time>
      </trkpt>
      <trkpt lat="59.955923" lon="17.7152539">
        <ele>50.126</ele>
        <time>2012-09-30T08:56:32Z</time>
      </trkpt>
      <trkpt lat="59.9559354" lon="17.7152861">
        <ele>49.6453</ele>
        <time>2012-09-30T08:56:33Z</time>
      </trkpt>
      <trkpt lat="59.9559492" lon="17.7153192">
        <ele>49.6453</ele>
        <time>2012-09-30T08:56:34Z</time>
      </trkpt>
      <trkpt lat="59.9559669" lon="17.7153544">
        <ele>49.1646</ele>
        <time>2012-09-30T08:56:35Z</time>
      </trkpt>
      <trkpt lat="59.9559841" lon="17.7153943">
        <ele>49.1646</ele>
        <time>2012-09-30T08:56:36Z</time>
      </trkpt>
      <trkpt lat="59.9560002" lon="17.7154289">
        <ele>48.684</ele>
        <time>2012-09-30T08:56:37Z</time>
      </trkpt>
      <trkpt lat="59.9560156" lon="17.715465">
        <ele>48.684</ele>
        <time>2012-09-30T08:56:38Z</time>
      </trkpt>
      <trkpt lat="59.9560317" lon="17.7154998">
        <ele>48.684</ele>
        <time>2012-09-30T08:56:39Z</time>
      </trkpt>
      <trkpt lat="59.9560435" lon="17.7155336">
        <ele>47.7225</ele>
        <time>2012-09-30T08:56:40Z</time>
      </trkpt>
      <trkpt lat="59.9560562" lon="17.7155633">
        <ele>46.2806</ele>
        <time>2012-09-30T08:56:41Z</time>
      </trkpt>
      <trkpt lat="59.9560689" lon="17.7156042">
        <ele>46.7612</ele>
        <time>2012-09-30T08:56:42Z</time>
      </trkpt>
      <trkpt lat="59.9560846" lon="17.7156522">
        <ele>47.7225</ele>
        <time>2012-09-30T08:56:43Z</time>
      </trkpt>
      <trkpt lat="59.9561063" lon="17.715695">
        <ele>49.1646</ele>
        <time>2012-09-30T08:56:44Z</time>
      </trkpt>
      <trkpt lat="59.9561259" lon="17.715734">
        <ele>50.6066</ele>
        <time>2012-09-30T08:56:45Z</time>
      </trkpt>
      <trkpt lat="59.9561364" lon="17.7157697">
        <ele>50.126</ele>
        <time>2012-09-30T08:56:46Z</time>
      </trkpt>
      <trkpt lat="59.9561465" lon="17.7158041">
        <ele>50.126</ele>
        <time>2012-09-30T08:56:47Z</time>
      </trkpt>
      <trkpt lat="59.9561603" lon="17.7158439">
        <ele>50.6066</ele>
        <time>2012-09-30T08:56:48Z</time>
      </trkpt>
      <trkpt lat="59.9561695" lon="17.7158776">
        <ele>49.6453</ele>
        <time>2012-09-30T08:56:49Z</time>
      </trkpt>
      <trkpt lat="59.9561768" lon="17.7159069">
        <ele>49.1646</ele>
        <time>2012-09-30T08:56:50Z</time>
      </trkpt>
      <trkpt lat="59.9561856" lon="17.7159413">
        <ele>48.684</ele>
        <time>2012-09-30T08:56:51Z</time>
      </trkpt>
      <trkpt lat="59.9561973" lon="17.7159794">
        <ele>49.1646</ele>
        <time>2012-09-30T08:56:52Z</time>
      </trkpt>
      <trkpt lat="59.9562052" lon="17.7160165">
        <ele>49.1646</ele>
        <time>2012-09-30T08:56:53Z</time>
      </trkpt>
      <trkpt lat="59.9562087" lon="17.716048">
        <ele>48.684</ele>
        <time>2012-09-30T08:56:54Z</time>
      </trkpt>
      <trkpt lat="59.9562166" lon="17.7160739">
        <ele>48.2034</ele>
        <time>2012-09-30T08:56:55Z</time>
      </trkpt>
      <trkpt lat="59.9562307" lon="17.7161015">
        <ele>48.2034</ele>
        <time>2012-09-30T08:56:56Z</time>
      </trkpt>
      <trkpt lat="59.9562427" lon="17.7161303">
        <ele>48.684</ele>
        <time>2012-09-30T08:56:57Z</time>
      </trkpt>
      <trkpt lat="59.956256" lon="17.7161592">
        <ele>49.1646</ele>
        <time>2012-09-30T08:56:58Z</time>
      </trkpt>
      <trkpt lat="59.9562712" lon="17.7161909">
        <ele>49.1646</ele>
        <time>2012-09-30T08:56:59Z</time>
      </trkpt>
      <trkpt lat="59.9562901" lon="17.7162219">
        <ele>49.1646</ele>
        <time>2012-09-30T08:57:00Z</time>
      </trkpt>
      <trkpt lat="59.9563105" lon="17.7162605">
        <ele>50.126</ele>
        <time>2012-09-30T08:57:01Z</time>
      </trkpt>
      <trkpt lat="59.9563289" lon="17.716306">
        <ele>50.6066</ele>
        <time>2012-09-30T08:57:02Z</time>
      </trkpt>
      <trkpt lat="59.9563463" lon="17.7163541">
        <ele>51.5679</ele>
        <time>2012-09-30T08:57:03Z</time>
      </trkpt>
      <trkpt lat="59.9563602" lon="17.7163971">
        <ele>51.0872</ele>
        <time>2012-09-30T08:57:04Z</time>
      </trkpt>
      <trkpt lat="59.9563825" lon="17.7164256">
        <ele>51.0872</ele>
        <time>2012-09-30T08:57:05Z</time>
      </trkpt>
      <trkpt lat="59.9564006" lon="17.7164603">
        <ele>51.0872</ele>
        <time>2012-09-30T08:57:06Z</time>
      </trkpt>
      <trkpt lat="59.9564265" lon="17.7164834">
        <ele>50.6066</ele>
        <time>2012-09-30T08:57:07Z</time>
      </trkpt>
      <trkpt lat="59.956442" lon="17.7165101">
        <ele>50.126</ele>
        <time>2012-09-30T08:57:08Z</time>
      </trkpt>
      <trkpt lat="59.9564612" lon="17.7165385">
        <ele>49.6453</ele>
        <time>2012-09-30T08:57:09Z</time>
      </trkpt>
      <trkpt lat="59.9564841" lon="17.7165672">
        <ele>49.6453</ele>
        <time>2012-09-30T08:57:10Z</time>
      </trkpt>
      <trkpt lat="59.9565086" lon="17.7165935">
        <ele>49.6453</ele>
        <time>2012-09-30T08:57:11Z</time>
      </trkpt>
      <trkpt lat="59.9565288" lon="17.7166064">
        <ele>48.684</ele>
        <time>2012-09-30T08:57:12Z</time>
      </trkpt>
      <trkpt lat="59.9565466" lon="17.7166157">
        <ele>48.684</ele>
        <time>2012-09-30T08:57:13Z</time>
      </trkpt>
      <trkpt lat="59.9565648" lon="17.7166152">
        <ele>48.684</ele>
        <time>2012-09-30T08:57:14Z</time>
      </trkpt>
      <trkpt lat="59.9565871" lon="17.7166091">
        <ele>49.6453</ele>
        <time>2012-09-30T08:57:15Z</time>
      </trkpt>
      <trkpt lat="59.9566036" lon="17.7166021">
        <ele>50.126</ele>
        <time>2012-09-30T08:57:16Z</time>
      </trkpt>
      <trkpt lat="59.9566222" lon="17.7166045">
        <ele>50.6066</ele>
        <time>2012-09-30T08:57:17Z</time>
      </trkpt>
      <trkpt lat="59.956659" lon="17.7166018">
        <ele>52.0486</ele>
        <time>2012-09-30T08:57:18Z</time>
      </trkpt>
      <trkpt lat="59.9566892" lon="17.7165949">
        <ele>52.5292</ele>
        <time>2012-09-30T08:57:19Z</time>
      </trkpt>
      <trkpt lat="59.9567118" lon="17.7165882">
        <ele>52.0486</ele>
        <time>2012-09-30T08:57:20Z</time>
      </trkpt>
      <trkpt lat="59.9567305" lon="17.7165852">
        <ele>51.5679</ele>
        <time>2012-09-30T08:57:21Z</time>
      </trkpt>
      <trkpt lat="59.9567481" lon="17.7165877">
        <ele>50.6066</ele>
        <time>2012-09-30T08:57:22Z</time>
      </trkpt>
      <trkpt lat="59.9567677" lon="17.7165836">
        <ele>50.6066</ele>
        <time>2012-09-30T08:57:23Z</time>
      </trkpt>
      <trkpt lat="59.9567856" lon="17.7165774">
        <ele>51.0872</ele>
        <time>2012-09-30T08:57:24Z</time>
      </trkpt>
      <trkpt lat="59.9568011" lon="17.7165608">
        <ele>50.126</ele>
        <time>2012-09-30T08:57:25Z</time>
      </trkpt>
      <trkpt lat="59.9568191" lon="17.7165432">
        <ele>50.126</ele>
        <time>2012-09-30T08:57:26Z</time>
      </trkpt>
      <trkpt lat="59.9568352" lon="17.7165259">
        <ele>49.6453</ele>
        <time>2012-09-30T08:57:27Z</time>
      </trkpt>
      <trkpt lat="59.9568537" lon="17.7165005">
        <ele>50.126</ele>
        <time>2012-09-30T08:57:28Z</time>
      </trkpt>
      <trkpt lat="59.9568677" lon="17.7164684">
        <ele>49.6453</ele>
        <time>2012-09-30T08:57:29Z</time>
      </trkpt>
      <trkpt lat="59.9568852" lon="17.7164332">
        <ele>49.1646</ele>
        <time>2012-09-30T08:57:30Z</time>
      </trkpt>
      <trkpt lat="59.9569029" lon="17.7163993">
        <ele>48.684</ele>
        <time>2012-09-30T08:57:31Z</time>
      </trkpt>
      <trkpt lat="59.9569155" lon="17.7163676">
        <ele>48.2034</ele>
        <time>2012-09-30T08:57:32Z</time>
      </trkpt>
      <trkpt lat="59.9569283" lon="17.7163302">
        <ele>47.7225</ele>
        <time>2012-09-30T08:57:33Z</time>
      </trkpt>
      <trkpt lat="59.9569455" lon="17.7162942">
        <ele>47.2418</ele>
        <time>2012-09-30T08:57:34Z</time>
      </trkpt>
      <trkpt lat="59.9569652" lon="17.716268">
        <ele>47.2418</ele>
        <time>2012-09-30T08:57:35Z</time>
      </trkpt>
      <trkpt lat="59.9569808" lon="17.7162392">
        <ele>46.7612</ele>
        <time>2012-09-30T08:57:36Z</time>
      </trkpt>
      <trkpt lat="59.9569988" lon="17.7162025">
        <ele>46.7612</ele>
        <time>2012-09-30T08:57:37Z</time>
      </trkpt>
      <trkpt lat="59.9570171" lon="17.716168">
        <ele>46.2806</ele>
        <time>2012-09-30T08:57:38Z</time>
      </trkpt>
      <trkpt lat="59.9570387" lon="17.716134">
        <ele>45.7999</ele>
        <time>2012-09-30T08:57:39Z</time>
      </trkpt>
      <trkpt lat="59.9570667" lon="17.7160939">
        <ele>45.3192</ele>
        <time>2012-09-30T08:57:40Z</time>
      </trkpt>
      <trkpt lat="59.9570889" lon="17.7160646">
        <ele>44.358</ele>
        <time>2012-09-30T08:57:41Z</time>
      </trkpt>
      <trkpt lat="59.9571054" lon="17.7160367">
        <ele>43.8773</ele>
        <time>2012-09-30T08:57:42Z</time>
      </trkpt>
      <trkpt lat="59.9571171" lon="17.7159992">
        <ele>43.3966</ele>
        <time>2012-09-30T08:57:43Z</time>
      </trkpt>
      <trkpt lat="59.9571294" lon="17.7159603">
        <ele>43.3966</ele>
        <time>2012-09-30T08:57:44Z</time>
      </trkpt>
      <trkpt lat="59.9571486" lon="17.7159263">
        <ele>42.916</ele>
        <time>2012-09-30T08:57:45Z</time>
      </trkpt>
      <trkpt lat="59.9571724" lon="17.7158936">
        <ele>42.4354</ele>
        <time>2012-09-30T08:57:46Z</time>
      </trkpt>
      <trkpt lat="59.9571903" lon="17.7158527">
        <ele>42.4354</ele>
        <time>2012-09-30T08:57:47Z</time>
      </trkpt>
      <trkpt lat="59.9572045" lon="17.7158178">
        <ele>42.4354</ele>
        <time>2012-09-30T08:57:48Z</time>
      </trkpt>
      <trkpt lat="59.9572209" lon="17.7157864">
        <ele>42.4354</ele>
        <time>2012-09-30T08:57:49Z</time>
      </trkpt>
      <trkpt lat="59.9572396" lon="17.7157489">
        <ele>41.9547</ele>
        <time>2012-09-30T08:57:50Z</time>
      </trkpt>
      <trkpt lat="59.9572621" lon="17.7157223">
        <ele>41.474</ele>
        <time>2012-09-30T08:57:51Z</time>
      </trkpt>
      <trkpt lat="59.9572869" lon="17.7157051">
        <ele>40.9934</ele>
        <time>2012-09-30T08:57:52Z</time>
      </trkpt>
      <trkpt lat="59.9573076" lon="17.7156755">
        <ele>40.5128</ele>
        <time>2012-09-30T08:57:53Z</time>
      </trkpt>
      <trkpt lat="59.9573257" lon="17.7156471">
        <ele>40.5128</ele>
        <time>2012-09-30T08:57:54Z</time>
      </trkpt>
      <trkpt lat="59.9573421" lon="17.7156202">
        <ele>40.0321</ele>
        <time>2012-09-30T08:57:55Z</time>
      </trkpt>
      <trkpt lat="59.9573598" lon="17.7155873">
        <ele>40.0321</ele>
        <time>2012-09-30T08:57:56Z</time>
      </trkpt>
      <trkpt lat="59.9573776" lon="17.7155543">
        <ele>40.0321</ele>
        <time>2012-09-30T08:57:57Z</time>
      </trkpt>
      <trkpt lat="59.9573962" lon="17.7155273">
        <ele>39.5513</ele>
        <time>2012-09-30T08:57:58Z</time>
      </trkpt>
      <trkpt lat="59.9574178" lon="17.7154953">
        <ele>39.5513</ele>
        <time>2012-09-30T08:57:59Z</time>
      </trkpt>
      <trkpt lat="59.9574386" lon="17.7154617">
        <ele>39.0707</ele>
        <time>2012-09-30T08:58:00Z</time>
      </trkpt>
      <trkpt lat="59.9574589" lon="17.7154337">
        <ele>39.0707</ele>
        <time>2012-09-30T08:58:01Z</time>
      </trkpt>
      <trkpt lat="59.957476" lon="17.7153984">
        <ele>39.0707</ele>
        <time>2012-09-30T08:58:02Z</time>
      </trkpt>
      <trkpt lat="59.9574928" lon="17.7153578">
        <ele>39.0707</ele>
        <time>2012-09-30T08:58:03Z</time>
      </trkpt>
      <trkpt lat="59.9575113" lon="17.7153232">
        <ele>38.5901</ele>
        <time>2012-09-30T08:58:04Z</time>
      </trkpt>
      <trkpt lat="59.9575364" lon="17.715291">
        <ele>38.1094</ele>
        <time>2012-09-30T08:58:05Z</time>
      </trkpt>
      <trkpt lat="59.957563" lon="17.7152592">
        <ele>37.6287</ele>
        <time>2012-09-30T08:58:06Z</time>
      </trkpt>
      <trkpt lat="59.9575879" lon="17.7152351">
        <ele>37.1481</ele>
        <time>2012-09-30T08:58:07Z</time>
      </trkpt>
      <trkpt lat="59.9576169" lon="17.7152067">
        <ele>36.6675</ele>
        <time>2012-09-30T08:58:08Z</time>
      </trkpt>
      <trkpt lat="59.9576438" lon="17.7151653">
        <ele>36.6675</ele>
        <time>2012-09-30T08:58:09Z</time>
      </trkpt>
      <trkpt lat="59.957666" lon="17.7151265">
        <ele>36.6675</ele>
        <time>2012-09-30T08:58:10Z</time>
      </trkpt>
      <trkpt lat="59.9576895" lon="17.7150906">
        <ele>36.6675</ele>
        <time>2012-09-30T08:58:11Z</time>
      </trkpt>
      <trkpt lat="59.9577075" lon="17.7150519">
        <ele>36.6675</ele>
        <time>2012-09-30T08:58:12Z</time>
      </trkpt>
      <trkpt lat="59.9577342" lon="17.7150255">
        <ele>36.6675</ele>
        <time>2012-09-30T08:58:13Z</time>
      </trkpt>
      <trkpt lat="59.957762" lon="17.7150015">
        <ele>36.1868</ele>
        <time>2012-09-30T08:58:14Z</time>
      </trkpt>
      <trkpt lat="59.9577827" lon="17.714976">
        <ele>36.1868</ele>
        <time>2012-09-30T08:58:15Z</time>
      </trkpt>
      <trkpt lat="59.9577986" lon="17.7149384">
        <ele>36.1868</ele>
        <time>2012-09-30T08:58:16Z</time>
      </trkpt>
      <trkpt lat="59.9578127" lon="17.7148944">
        <ele>36.1868</ele>
        <time>2012-09-30T08:58:17Z</time>
      </trkpt>
      <trkpt lat="59.9578265" lon="17.7148539">
        <ele>36.1868</ele>
        <time>2012-09-30T08:58:18Z</time>
      </trkpt>
      <trkpt lat="59.9578437" lon="17.7148167">
        <ele>36.1868</ele>
        <time>2012-09-30T08:58:19Z</time>
      </trkpt>
      <trkpt lat="59.9578691" lon="17.7147871">
        <ele>36.1868</ele>
        <time>2012-09-30T08:58:20Z</time>
      </trkpt>
      <trkpt lat="59.9578891" lon="17.7147613">
        <ele>36.1868</ele>
        <time>2012-09-30T08:58:21Z</time>
      </trkpt>
      <trkpt lat="59.9579089" lon="17.71473">
        <ele>36.1868</ele>
        <time>2012-09-30T08:58:22Z</time>
      </trkpt>
      <trkpt lat="59.957928" lon="17.7147007">
        <ele>36.1868</ele>
        <time>2012-09-30T08:58:23Z</time>
      </trkpt>
      <trkpt lat="59.9579404" lon="17.7146695">
        <ele>36.1868</ele>
        <time>2012-09-30T08:58:24Z</time>
      </trkpt>
      <trkpt lat="59.9579531" lon="17.7146369">
        <ele>36.1868</ele>
        <time>2012-09-30T08:58:25Z</time>
      </trkpt>
      <trkpt lat="59.9579659" lon="17.7146047">
        <ele>35.7061</ele>
        <time>2012-09-30T08:58:26Z</time>
      </trkpt>
      <trkpt lat="59.9579756" lon="17.7145769">
        <ele>36.1868</ele>
        <time>2012-09-30T08:58:27Z</time>
      </trkpt>
      <trkpt lat="59.9579897" lon="17.7145453">
        <ele>36.1868</ele>
        <time>2012-09-30T08:58:28Z</time>
      </trkpt>
      <trkpt lat="59.9580069" lon="17.7145059">
        <ele>36.6675</ele>
        <time>2012-09-30T08:58:29Z</time>
      </trkpt>
      <trkpt lat="59.9580267" lon="17.7144733">
        <ele>36.6675</ele>
        <time>2012-09-30T08:58:30Z</time>
      </trkpt>
      <trkpt lat="59.9580438" lon="17.7144437">
        <ele>36.1868</ele>
        <time>2012-09-30T08:58:31Z</time>
      </trkpt>
      <trkpt lat="59.9580528" lon="17.714399">
        <ele>36.6675</ele>
        <time>2012-09-30T08:58:32Z</time>
      </trkpt>
      <trkpt lat="59.9580632" lon="17.7143613">
        <ele>37.1481</ele>
        <time>2012-09-30T08:58:33Z</time>
      </trkpt>
      <trkpt lat="59.9580779" lon="17.7143176">
        <ele>37.6287</ele>
        <time>2012-09-30T08:58:34Z</time>
      </trkpt>
      <trkpt lat="59.9580995" lon="17.7142858">
        <ele>37.6287</ele>
        <time>2012-09-30T08:58:35Z</time>
      </trkpt>
      <trkpt lat="59.9581186" lon="17.7142577">
        <ele>37.6287</ele>
        <time>2012-09-30T08:58:36Z</time>
      </trkpt>
      <trkpt lat="59.9581399" lon="17.7142177">
        <ele>37.6287</ele>
        <time>2012-09-30T08:58:37Z</time>
      </trkpt>
      <trkpt lat="59.9581567" lon="17.7141789">
        <ele>38.1094</ele>
        <time>2012-09-30T08:58:38Z</time>
      </trkpt>
      <trkpt lat="59.95817" lon="17.7141467">
        <ele>38.1094</ele>
        <time>2012-09-30T08:58:39Z</time>
      </trkpt>
      <trkpt lat="59.9581815" lon="17.7141085">
        <ele>38.5901</ele>
        <time>2012-09-30T08:58:40Z</time>
      </trkpt>
      <trkpt lat="59.9581965" lon="17.7140704">
        <ele>38.1094</ele>
        <time>2012-09-30T08:58:41Z</time>
      </trkpt>
      <trkpt lat="59.9582131" lon="17.7140392">
        <ele>37.6287</ele>
        <time>2012-09-30T08:58:42Z</time>
      </trkpt>
      <trkpt lat="59.9582343" lon="17.7140102">
        <ele>37.6287</ele>
        <time>2012-09-30T08:58:43Z</time>
      </trkpt>
      <trkpt lat="59.9582544" lon="17.713968">
        <ele>37.6287</ele>
        <time>2012-09-30T08:58:44Z</time>
      </trkpt>
      <trkpt lat="59.958273" lon="17.7139158">
        <ele>37.6287</ele>
        <time>2012-09-30T08:58:45Z</time>
      </trkpt>
      <trkpt lat="59.9582895" lon="17.7138682">
        <ele>37.1481</ele>
        <time>2012-09-30T08:58:46Z</time>
      </trkpt>
      <trkpt lat="59.9583022" lon="17.7138238">
        <ele>36.6675</ele>
        <time>2012-09-30T08:58:47Z</time>
      </trkpt>
      <trkpt lat="59.9583134" lon="17.7137782">
        <ele>36.1868</ele>
        <time>2012-09-30T08:58:48Z</time>
      </trkpt>
      <trkpt lat="59.9583239" lon="17.7137313">
        <ele>35.7061</ele>
        <time>2012-09-30T08:58:49Z</time>
      </trkpt>
      <trkpt lat="59.9583303" lon="17.7136864">
        <ele>35.7061</ele>
        <time>2012-09-30T08:58:50Z</time>
      </trkpt>
      <trkpt lat="59.9583384" lon="17.7136481">
        <ele>36.1868</ele>
        <time>2012-09-30T08:58:51Z</time>
      </trkpt>
      <trkpt lat="59.9583514" lon="17.7136083">
        <ele>36.1868</ele>
        <time>2012-09-30T08:58:52Z</time>
      </trkpt>
      <trkpt lat="59.958369" lon="17.7135673">
        <ele>36.1868</ele>
        <time>2012-09-30T08:58:53Z</time>
      </trkpt>
      <trkpt lat="59.9583823" lon="17.7135217">
        <ele>36.1868</ele>
        <time>2012-09-30T08:58:54Z</time>
      </trkpt>
      <trkpt lat="59.9583898" lon="17.7134652">
        <ele>36.6675</ele>
        <time>2012-09-30T08:58:55Z</time>
      </trkpt>
      <trkpt lat="59.9583948" lon="17.7134075">
        <ele>36.1868</ele>
        <time>2012-09-30T08:58:56Z</time>
      </trkpt>
      <trkpt lat="59.9583877" lon="17.7133466">
        <ele>36.6675</ele>
        <time>2012-09-30T08:58:57Z</time>
      </trkpt>
      <trkpt lat="59.9583774" lon="17.7132863">
        <ele>36.6675</ele>
        <time>2012-09-30T08:58:58Z</time>
      </trkpt>
      <trkpt lat="59.9583735" lon="17.7132263">
        <ele>36.6675</ele>
        <time>2012-09-30T08:58:59Z</time>
      </trkpt>
      <trkpt lat="59.9583764" lon="17.7131714">
        <ele>36.6675</ele>
        <time>2012-09-30T08:59:00Z</time>
      </trkpt>
      <trkpt lat="59.9583813" lon="17.7131248">
        <ele>36.6675</ele>
        <time>2012-09-30T08:59:01Z</time>
      </trkpt>
      <trkpt lat="59.9583823" lon="17.7130695">
        <ele>36.6675</ele>
        <time>2012-09-30T08:59:02Z</time>
      </trkpt>
      <trkpt lat="59.9583852" lon="17.7130248">
        <ele>36.6675</ele>
        <time>2012-09-30T08:59:03Z</time>
      </trkpt>
      <trkpt lat="59.9583874" lon="17.7129813">
        <ele>36.1868</ele>
        <time>2012-09-30T08:59:04Z</time>
      </trkpt>
      <trkpt lat="59.9583953" lon="17.7129287">
        <ele>35.7061</ele>
        <time>2012-09-30T08:59:05Z</time>
      </trkpt>
      <trkpt lat="59.958411" lon="17.7128861">
        <ele>35.7061</ele>
        <time>2012-09-30T08:59:06Z</time>
      </trkpt>
      <trkpt lat="59.9584275" lon="17.7128486">
        <ele>35.2255</ele>
        <time>2012-09-30T08:59:07Z</time>
      </trkpt>
      <trkpt lat="59.9584368" lon="17.7128005">
        <ele>34.7449</ele>
        <time>2012-09-30T08:59:08Z</time>
      </trkpt>
      <trkpt lat="59.958432" lon="17.7127348">
        <ele>33.7834</ele>
        <time>2012-09-30T08:59:09Z</time>
      </trkpt>
      <trkpt lat="59.9584341" lon="17.7126804">
        <ele>33.7834</ele>
        <time>2012-09-30T08:59:10Z</time>
      </trkpt>
      <trkpt lat="59.9584408" lon="17.7126337">
        <ele>33.3029</ele>
        <time>2012-09-30T08:59:11Z</time>
      </trkpt>
      <trkpt lat="59.9584498" lon="17.7125909">
        <ele>32.8223</ele>
        <time>2012-09-30T08:59:12Z</time>
      </trkpt>
      <trkpt lat="59.9584594" lon="17.7125514">
        <ele>32.3416</ele>
        <time>2012-09-30T08:59:13Z</time>
      </trkpt>
      <trkpt lat="59.9584638" lon="17.7125038">
        <ele>31.3801</ele>
        <time>2012-09-30T08:59:14Z</time>
      </trkpt>
      <trkpt lat="59.958472" lon="17.7124542">
        <ele>30.8995</ele>
        <time>2012-09-30T08:59:15Z</time>
      </trkpt>
      <trkpt lat="59.9584888" lon="17.7124104">
        <ele>29.9381</ele>
        <time>2012-09-30T08:59:16Z</time>
      </trkpt>
      <trkpt lat="59.9585071" lon="17.7123726">
        <ele>29.4575</ele>
        <time>2012-09-30T08:59:17Z</time>
      </trkpt>
      <trkpt lat="59.958518" lon="17.7123397">
        <ele>28.9769</ele>
        <time>2012-09-30T08:59:18Z</time>
      </trkpt>
      <trkpt lat="59.9585248" lon="17.7123052">
        <ele>28.9769</ele>
        <time>2012-09-30T08:59:19Z</time>
      </trkpt>
      <trkpt lat="59.9585357" lon="17.7122663">
        <ele>28.4962</ele>
        <time>2012-09-30T08:59:20Z</time>
      </trkpt>
      <trkpt lat="59.9585482" lon="17.7122337">
        <ele>28.4962</ele>
        <time>2012-09-30T08:59:21Z</time>
      </trkpt>
      <trkpt lat="59.958554" lon="17.7121966">
        <ele>28.4962</ele>
        <time>2012-09-30T08:59:22Z</time>
      </trkpt>
      <trkpt lat="59.9585586" lon="17.7121518">
        <ele>28.4962</ele>
        <time>2012-09-30T08:59:23Z</time>
      </trkpt>
      <trkpt lat="59.958571" lon="17.7121114">
        <ele>28.4962</ele>
        <time>2012-09-30T08:59:24Z</time>
      </trkpt>
      <trkpt lat="59.9585846" lon="17.7120738">
        <ele>28.0155</ele>
        <time>2012-09-30T08:59:25Z</time>
      </trkpt>
      <trkpt lat="59.9585938" lon="17.7120273">
        <ele>28.0155</ele>
        <time>2012-09-30T08:59:26Z</time>
      </trkpt>
      <trkpt lat="59.9586009" lon="17.7119794">
        <ele>28.0155</ele>
        <time>2012-09-30T08:59:27Z</time>
      </trkpt>
      <trkpt lat="59.9586084" lon="17.7119365">
        <ele>27.5349</ele>
        <time>2012-09-30T08:59:28Z</time>
      </trkpt>
      <trkpt lat="59.9586145" lon="17.7118946">
        <ele>27.5349</ele>
        <time>2012-09-30T08:59:29Z</time>
      </trkpt>
      <trkpt lat="59.9586115" lon="17.7118371">
        <ele>28.0155</ele>
        <time>2012-09-30T08:59:30Z</time>
      </trkpt>
      <trkpt lat="59.9586185" lon="17.7117867">
        <ele>28.4962</ele>
        <time>2012-09-30T08:59:31Z</time>
      </trkpt>
      <trkpt lat="59.9586175" lon="17.711734">
        <ele>28.9769</ele>
        <time>2012-09-30T08:59:32Z</time>
      </trkpt>
      <trkpt lat="59.9586164" lon="17.7116821">
        <ele>29.4575</ele>
        <time>2012-09-30T08:59:33Z</time>
      </trkpt>
      <trkpt lat="59.9586281" lon="17.7116382">
        <ele>28.9769</ele>
        <time>2012-09-30T08:59:34Z</time>
      </trkpt>
      <trkpt lat="59.9586423" lon="17.7115909">
        <ele>28.9769</ele>
        <time>2012-09-30T08:59:35Z</time>
      </trkpt>
      <trkpt lat="59.9586544" lon="17.7115434">
        <ele>28.4962</ele>
        <time>2012-09-30T08:59:36Z</time>
      </trkpt>
      <trkpt lat="59.9586625" lon="17.711494">
        <ele>28.0155</ele>
        <time>2012-09-30T08:59:37Z</time>
      </trkpt>
      <trkpt lat="59.9586658" lon="17.7114468">
        <ele>28.0155</ele>
        <time>2012-09-30T08:59:38Z</time>
      </trkpt>
      <trkpt lat="59.9586708" lon="17.7114083">
        <ele>27.5349</ele>
        <time>2012-09-30T08:59:39Z</time>
      </trkpt>
      <trkpt lat="59.958685" lon="17.7113709">
        <ele>26.5736</ele>
        <time>2012-09-30T08:59:40Z</time>
      </trkpt>
      <trkpt lat="59.9586993" lon="17.7113299">
        <ele>26.0929</ele>
        <time>2012-09-30T08:59:41Z</time>
      </trkpt>
      <trkpt lat="59.9587078" lon="17.7112923">
        <ele>25.6123</ele>
        <time>2012-09-30T08:59:42Z</time>
      </trkpt>
      <trkpt lat="59.958714" lon="17.7112547">
        <ele>25.1317</ele>
        <time>2012-09-30T08:59:43Z</time>
      </trkpt>
      <trkpt lat="59.9587201" lon="17.7112151">
        <ele>25.1317</ele>
        <time>2012-09-30T08:59:44Z</time>
      </trkpt>
      <trkpt lat="59.9587298" lon="17.7111777">
        <ele>24.651</ele>
        <time>2012-09-30T08:59:45Z</time>
      </trkpt>
      <trkpt lat="59.9587455" lon="17.7111445">
        <ele>24.651</ele>
        <time>2012-09-30T08:59:46Z</time>
      </trkpt>
      <trkpt lat="59.9587537" lon="17.7111078">
        <ele>24.651</ele>
        <time>2012-09-30T08:59:47Z</time>
      </trkpt>
      <trkpt lat="59.9587621" lon="17.7110692">
        <ele>24.651</ele>
        <time>2012-09-30T08:59:48Z</time>
      </trkpt>
      <trkpt lat="59.9587677" lon="17.7110243">
        <ele>25.1317</ele>
        <time>2012-09-30T08:59:49Z</time>
      </trkpt>
      <trkpt lat="59.9587736" lon="17.7109797">
        <ele>24.651</ele>
        <time>2012-09-30T08:59:50Z</time>
      </trkpt>
      <trkpt lat="59.9587882" lon="17.7109392">
        <ele>24.651</ele>
        <time>2012-09-30T08:59:51Z</time>
      </trkpt>
      <trkpt lat="59.9587984" lon="17.7108937">
        <ele>24.651</ele>
        <time>2012-09-30T08:59:52Z</time>
      </trkpt>
      <trkpt lat="59.9588055" lon="17.7108463">
        <ele>24.1703</ele>
        <time>2012-09-30T08:59:53Z</time>
      </trkpt>
      <trkpt lat="59.9588133" lon="17.7108071">
        <ele>24.1703</ele>
        <time>2012-09-30T08:59:54Z</time>
      </trkpt>
      <trkpt lat="59.9588156" lon="17.7107647">
        <ele>23.6896</ele>
        <time>2012-09-30T08:59:55Z</time>
      </trkpt>
      <trkpt lat="59.9588215" lon="17.7107156">
        <ele>23.209</ele>
        <time>2012-09-30T08:59:56Z</time>
      </trkpt>
      <trkpt lat="59.9588274" lon="17.7106701">
        <ele>23.6896</ele>
        <time>2012-09-30T08:59:57Z</time>
      </trkpt>
      <trkpt lat="59.958832" lon="17.7106292">
        <ele>23.209</ele>
        <time>2012-09-30T08:59:58Z</time>
      </trkpt>
      <trkpt lat="59.9588383" lon="17.7105861">
        <ele>23.209</ele>
        <time>2012-09-30T08:59:59Z</time>
      </trkpt>
      <trkpt lat="59.9588534" lon="17.710545">
        <ele>23.209</ele>
        <time>2012-09-30T09:00:00Z</time>
      </trkpt>
      <trkpt lat="59.9588672" lon="17.710501">
        <ele>22.7283</ele>
        <time>2012-09-30T09:00:01Z</time>
      </trkpt>
      <trkpt lat="59.9588741" lon="17.7104562">
        <ele>22.2476</ele>
        <time>2012-09-30T09:00:02Z</time>
      </trkpt>
      <trkpt lat="59.9588819" lon="17.7104131">
        <ele>22.2476</ele>
        <time>2012-09-30T09:00:03Z</time>
      </trkpt>
      <trkpt lat="59.9588943" lon="17.7103727">
        <ele>22.2476</ele>
        <time>2012-09-30T09:00:04Z</time>
      </trkpt>
      <trkpt lat="59.9589025" lon="17.7103345">
        <ele>21.767</ele>
        <time>2012-09-30T09:00:05Z</time>
      </trkpt>
      <trkpt lat="59.9589088" lon="17.7102964">
        <ele>21.767</ele>
        <time>2012-09-30T09:00:06Z</time>
      </trkpt>
      <trkpt lat="59.9589241" lon="17.710255">
        <ele>20.8057</ele>
        <time>2012-09-30T09:00:07Z</time>
      </trkpt>
      <trkpt lat="59.9589405" lon="17.7102129">
        <ele>20.325</ele>
        <time>2012-09-30T09:00:08Z</time>
      </trkpt>
      <trkpt lat="59.958945" lon="17.7101754">
        <ele>19.8444</ele>
        <time>2012-09-30T09:00:09Z</time>
      </trkpt>
      <trkpt lat="59.9589471" lon="17.7101395">
        <ele>19.8444</ele>
        <time>2012-09-30T09:00:10Z</time>
      </trkpt>
      <trkpt lat="59.9589532" lon="17.7101063">
        <ele>19.3638</ele>
        <time>2012-09-30T09:00:11Z</time>
      </trkpt>
      <trkpt lat="59.9589554" lon="17.7100604">
        <ele>18.8831</ele>
        <time>2012-09-30T09:00:12Z</time>
      </trkpt>
      <trkpt lat="59.9589604" lon="17.7100076">
        <ele>18.4023</ele>
        <time>2012-09-30T09:00:13Z</time>
      </trkpt>
      <trkpt lat="59.9589694" lon="17.7099571">
        <ele>17.9218</ele>
        <time>2012-09-30T09:00:14Z</time>
      </trkpt>
      <trkpt lat="59.9589751" lon="17.7099048">
        <ele>17.9218</ele>
        <time>2012-09-30T09:00:15Z</time>
      </trkpt>
      <trkpt lat="59.9589726" lon="17.7098589">
        <ele>17.9218</ele>
        <time>2012-09-30T09:00:16Z</time>
      </trkpt>
      <trkpt lat="59.9589765" lon="17.7098174">
        <ele>18.4023</ele>
        <time>2012-09-30T09:00:17Z</time>
      </trkpt>
      <trkpt lat="59.9589818" lon="17.7097662">
        <ele>18.4023</ele>
        <time>2012-09-30T09:00:18Z</time>
      </trkpt>
      <trkpt lat="59.9589813" lon="17.7097071">
        <ele>18.4023</ele>
        <time>2012-09-30T09:00:19Z</time>
      </trkpt>
      <trkpt lat="59.9589823" lon="17.7096486">
        <ele>18.8831</ele>
        <time>2012-09-30T09:00:20Z</time>
      </trkpt>
      <trkpt lat="59.9589849" lon="17.7095996">
        <ele>18.8831</ele>
        <time>2012-09-30T09:00:21Z</time>
      </trkpt>
      <trkpt lat="59.9589884" lon="17.7095485">
        <ele>18.8831</ele>
        <time>2012-09-30T09:00:22Z</time>
      </trkpt>
      <trkpt lat="59.9589912" lon="17.7094947">
        <ele>19.3638</ele>
        <time>2012-09-30T09:00:23Z</time>
      </trkpt>
      <trkpt lat="59.9589956" lon="17.7094417">
        <ele>19.3638</ele>
        <time>2012-09-30T09:00:24Z</time>
      </trkpt>
      <trkpt lat="59.9590025" lon="17.7094014">
        <ele>19.3638</ele>
        <time>2012-09-30T09:00:25Z</time>
      </trkpt>
      <trkpt lat="59.9590052" lon="17.7093558">
        <ele>19.3638</ele>
        <time>2012-09-30T09:00:26Z</time>
      </trkpt>
      <trkpt lat="59.9590096" lon="17.7093035">
        <ele>19.8444</ele>
        <time>2012-09-30T09:00:27Z</time>
      </trkpt>
      <trkpt lat="59.9590186" lon="17.7092551">
        <ele>19.8444</ele>
        <time>2012-09-30T09:00:28Z</time>
      </trkpt>
      <trkpt lat="59.9590284" lon="17.7092082">
        <ele>19.8444</ele>
        <time>2012-09-30T09:00:29Z</time>
      </trkpt>
      <trkpt lat="59.9590365" lon="17.7091606">
        <ele>19.8444</ele>
        <time>2012-09-30T09:00:30Z</time>
      </trkpt>
      <trkpt lat="59.9590462" lon="17.7091134">
        <ele>19.8444</ele>
        <time>2012-09-30T09:00:31Z</time>
      </trkpt>
      <trkpt lat="59.9590568" lon="17.7090715">
        <ele>19.8444</ele>
        <time>2012-09-30T09:00:32Z</time>
      </trkpt>
      <trkpt lat="59.9590627" lon="17.7090306">
        <ele>19.8444</ele>
        <time>2012-09-30T09:00:33Z</time>
      </trkpt>
      <trkpt lat="59.9590611" lon="17.7089772">
        <ele>19.8444</ele>
        <time>2012-09-30T09:00:34Z</time>
      </trkpt>
      <trkpt lat="59.9590611" lon="17.7089223">
        <ele>19.8444</ele>
        <time>2012-09-30T09:00:35Z</time>
      </trkpt>
      <trkpt lat="59.9590653" lon="17.708871">
        <ele>20.325</ele>
        <time>2012-09-30T09:00:36Z</time>
      </trkpt>
      <trkpt lat="59.9590694" lon="17.7088188">
        <ele>19.8444</ele>
        <time>2012-09-30T09:00:37Z</time>
      </trkpt>
      <trkpt lat="59.9590764" lon="17.7087694">
        <ele>19.8444</ele>
        <time>2012-09-30T09:00:38Z</time>
      </trkpt>
      <trkpt lat="59.9590862" lon="17.7087218">
        <ele>19.8444</ele>
        <time>2012-09-30T09:00:39Z</time>
      </trkpt>
      <trkpt lat="59.959094" lon="17.7086746">
        <ele>19.8444</ele>
        <time>2012-09-30T09:00:40Z</time>
      </trkpt>
      <trkpt lat="59.9590978" lon="17.7086291">
        <ele>19.8444</ele>
        <time>2012-09-30T09:00:41Z</time>
      </trkpt>
      <trkpt lat="59.9591024" lon="17.708587">
        <ele>19.8444</ele>
        <time>2012-09-30T09:00:42Z</time>
      </trkpt>
      <trkpt lat="59.9591121" lon="17.7085487">
        <ele>19.8444</ele>
        <time>2012-09-30T09:00:43Z</time>
      </trkpt>
      <trkpt lat="59.9591196" lon="17.7085088">
        <ele>19.8444</ele>
        <time>2012-09-30T09:00:44Z</time>
      </trkpt>
      <trkpt lat="59.9591196" lon="17.7084638">
        <ele>20.325</ele>
        <time>2012-09-30T09:00:45Z</time>
      </trkpt>
      <trkpt lat="59.9591211" lon="17.708409">
        <ele>20.8057</ele>
        <time>2012-09-30T09:00:46Z</time>
      </trkpt>
      <trkpt lat="59.9591305" lon="17.7083685">
        <ele>20.8057</ele>
        <time>2012-09-30T09:00:47Z</time>
      </trkpt>
      <trkpt lat="59.9591315" lon="17.7083199">
        <ele>20.8057</ele>
        <time>2012-09-30T09:00:48Z</time>
      </trkpt>
      <trkpt lat="59.9591435" lon="17.7082691">
        <ele>21.2864</ele>
        <time>2012-09-30T09:00:49Z</time>
      </trkpt>
      <trkpt lat="59.9591506" lon="17.70822">
        <ele>21.2864</ele>
        <time>2012-09-30T09:00:50Z</time>
      </trkpt>
      <trkpt lat="59.9591589" lon="17.7081709">
        <ele>21.767</ele>
        <time>2012-09-30T09:00:51Z</time>
      </trkpt>
      <trkpt lat="59.9591595" lon="17.7081157">
        <ele>22.2476</ele>
        <time>2012-09-30T09:00:52Z</time>
      </trkpt>
      <trkpt lat="59.9591595" lon="17.7080665">
        <ele>22.2476</ele>
        <time>2012-09-30T09:00:53Z</time>
      </trkpt>
      <trkpt lat="59.9591528" lon="17.7080119">
        <ele>22.7283</ele>
        <time>2012-09-30T09:00:54Z</time>
      </trkpt>
      <trkpt lat="59.9591568" lon="17.7079654">
        <ele>23.209</ele>
        <time>2012-09-30T09:00:55Z</time>
      </trkpt>
      <trkpt lat="59.9591579" lon="17.7079081">
        <ele>24.1703</ele>
        <time>2012-09-30T09:00:56Z</time>
      </trkpt>
      <trkpt lat="59.9591707" lon="17.707865">
        <ele>24.651</ele>
        <time>2012-09-30T09:00:57Z</time>
      </trkpt>
      <trkpt lat="59.9591743" lon="17.7078106">
        <ele>24.1703</ele>
        <time>2012-09-30T09:00:58Z</time>
      </trkpt>
      <trkpt lat="59.9591709" lon="17.7077633">
        <ele>24.1703</ele>
        <time>2012-09-30T09:00:59Z</time>
      </trkpt>
      <trkpt lat="59.959175" lon="17.7077209">
        <ele>24.1703</ele>
        <time>2012-09-30T09:01:00Z</time>
      </trkpt>
      <trkpt lat="59.9591621" lon="17.7076526">
        <ele>26.0929</ele>
        <time>2012-09-30T09:01:01Z</time>
      </trkpt>
      <trkpt lat="59.9591553" lon="17.7075951">
        <ele>27.5349</ele>
        <time>2012-09-30T09:01:02Z</time>
      </trkpt>
      <trkpt lat="59.9591719" lon="17.707555">
        <ele>28.0155</ele>
        <time>2012-09-30T09:01:03Z</time>
      </trkpt>
      <trkpt lat="59.9591957" lon="17.7075198">
        <ele>28.4962</ele>
        <time>2012-09-30T09:01:04Z</time>
      </trkpt>
      <trkpt lat="59.9592165" lon="17.7074924">
        <ele>28.9769</ele>
        <time>2012-09-30T09:01:05Z</time>
      </trkpt>
      <trkpt lat="59.9592319" lon="17.7074563">
        <ele>28.9769</ele>
        <time>2012-09-30T09:01:06Z</time>
      </trkpt>
      <trkpt lat="59.9592432" lon="17.7074195">
        <ele>29.4575</ele>
        <time>2012-09-30T09:01:07Z</time>
      </trkpt>
      <trkpt lat="59.9592578" lon="17.7073847">
        <ele>29.9381</ele>
        <time>2012-09-30T09:01:08Z</time>
      </trkpt>
      <trkpt lat="59.9592699" lon="17.7073408">
        <ele>30.4188</ele>
        <time>2012-09-30T09:01:09Z</time>
      </trkpt>
      <trkpt lat="59.9592755" lon="17.7072974">
        <ele>30.4188</ele>
        <time>2012-09-30T09:01:10Z</time>
      </trkpt>
      <trkpt lat="59.9592813" lon="17.7072605">
        <ele>31.3801</ele>
        <time>2012-09-30T09:01:11Z</time>
      </trkpt>
      <trkpt lat="59.959296" lon="17.7072245">
        <ele>31.8607</ele>
        <time>2012-09-30T09:01:12Z</time>
      </trkpt>
      <trkpt lat="59.9593045" lon="17.707176">
        <ele>33.3029</ele>
        <time>2012-09-30T09:01:13Z</time>
      </trkpt>
      <trkpt lat="59.9593113" lon="17.7071284">
        <ele>34.2642</ele>
        <time>2012-09-30T09:01:14Z</time>
      </trkpt>
      <trkpt lat="59.9593164" lon="17.707081">
        <ele>34.7449</ele>
        <time>2012-09-30T09:01:15Z</time>
      </trkpt>
      <trkpt lat="59.959322" lon="17.7070371">
        <ele>35.7061</ele>
        <time>2012-09-30T09:01:16Z</time>
      </trkpt>
      <trkpt lat="59.9593334" lon="17.706985">
        <ele>36.1868</ele>
        <time>2012-09-30T09:01:17Z</time>
      </trkpt>
      <trkpt lat="59.9593433" lon="17.7069336">
        <ele>36.6675</ele>
        <time>2012-09-30T09:01:18Z</time>
      </trkpt>
      <trkpt lat="59.9593535" lon="17.706891">
        <ele>37.1481</ele>
        <time>2012-09-30T09:01:19Z</time>
      </trkpt>
      <trkpt lat="59.959361" lon="17.7068482">
        <ele>37.6287</ele>
        <time>2012-09-30T09:01:20Z</time>
      </trkpt>
      <trkpt lat="59.9593694" lon="17.7068057">
        <ele>38.1094</ele>
        <time>2012-09-30T09:01:21Z</time>
      </trkpt>
      <trkpt lat="59.9593867" lon="17.7067626">
        <ele>37.6287</ele>
        <time>2012-09-30T09:01:22Z</time>
      </trkpt>
      <trkpt lat="59.9594034" lon="17.7067243">
        <ele>38.1094</ele>
        <time>2012-09-30T09:01:23Z</time>
      </trkpt>
      <trkpt lat="59.9594207" lon="17.7066877">
        <ele>37.6287</ele>
        <time>2012-09-30T09:01:24Z</time>
      </trkpt>
      <trkpt lat="59.9594411" lon="17.706655">
        <ele>37.6287</ele>
        <time>2012-09-30T09:01:25Z</time>
      </trkpt>
      <trkpt lat="59.9594564" lon="17.7066259">
        <ele>37.6287</ele>
        <time>2012-09-30T09:01:26Z</time>
      </trkpt>
      <trkpt lat="59.9594682" lon="17.7065917">
        <ele>37.6287</ele>
        <time>2012-09-30T09:01:27Z</time>
      </trkpt>
      <trkpt lat="59.959477" lon="17.7065548">
        <ele>37.6287</ele>
        <time>2012-09-30T09:01:28Z</time>
      </trkpt>
      <trkpt lat="59.9594976" lon="17.706527">
        <ele>36.6675</ele>
        <time>2012-09-30T09:01:29Z</time>
      </trkpt>
      <trkpt lat="59.9595146" lon="17.706498">
        <ele>36.6675</ele>
        <time>2012-09-30T09:01:30Z</time>
      </trkpt>
      <trkpt lat="59.959524" lon="17.7064653">
        <ele>36.1868</ele>
        <time>2012-09-30T09:01:31Z</time>
      </trkpt>
      <trkpt lat="59.9595459" lon="17.7064418">
        <ele>35.7061</ele>
        <time>2012-09-30T09:01:32Z</time>
      </trkpt>
      <trkpt lat="59.9595742" lon="17.7064177">
        <ele>34.7449</ele>
        <time>2012-09-30T09:01:33Z</time>
      </trkpt>
      <trkpt lat="59.9595941" lon="17.7063892">
        <ele>34.2642</ele>
        <time>2012-09-30T09:01:34Z</time>
      </trkpt>
      <trkpt lat="59.9596055" lon="17.7063586">
        <ele>33.7834</ele>
        <time>2012-09-30T09:01:35Z</time>
      </trkpt>
      <trkpt lat="59.9596134" lon="17.7063264">
        <ele>33.7834</ele>
        <time>2012-09-30T09:01:36Z</time>
      </trkpt>
      <trkpt lat="59.9596229" lon="17.7062871">
        <ele>33.7834</ele>
        <time>2012-09-30T09:01:37Z</time>
      </trkpt>
      <trkpt lat="59.9596377" lon="17.7062522">
        <ele>34.2642</ele>
        <time>2012-09-30T09:01:38Z</time>
      </trkpt>
      <trkpt lat="59.959652" lon="17.7062224">
        <ele>33.7834</ele>
        <time>2012-09-30T09:01:39Z</time>
      </trkpt>
      <trkpt lat="59.9596731" lon="17.7061877">
        <ele>33.7834</ele>
        <time>2012-09-30T09:01:40Z</time>
      </trkpt>
      <trkpt lat="59.9597004" lon="17.706151">
        <ele>33.3029</ele>
        <time>2012-09-30T09:01:41Z</time>
      </trkpt>
      <trkpt lat="59.9597218" lon="17.7061193">
        <ele>32.8223</ele>
        <time>2012-09-30T09:01:42Z</time>
      </trkpt>
      <trkpt lat="59.9597381" lon="17.7060968">
        <ele>32.3416</ele>
        <time>2012-09-30T09:01:43Z</time>
      </trkpt>
      <trkpt lat="59.9597512" lon="17.7060711">
        <ele>32.3416</ele>
        <time>2012-09-30T09:01:44Z</time>
      </trkpt>
      <trkpt lat="59.9597625" lon="17.7060401">
        <ele>31.8607</ele>
        <time>2012-09-30T09:01:45Z</time>
      </trkpt>
      <trkpt lat="59.959774" lon="17.7060068">
        <ele>31.8607</ele>
        <time>2012-09-30T09:01:46Z</time>
      </trkpt>
      <trkpt lat="59.9597935" lon="17.7059737">
        <ele>31.3801</ele>
        <time>2012-09-30T09:01:47Z</time>
      </trkpt>
      <trkpt lat="59.9597992" lon="17.7059316">
        <ele>31.8607</ele>
        <time>2012-09-30T09:01:48Z</time>
      </trkpt>
      <trkpt lat="59.9598199" lon="17.7059038">
        <ele>31.3801</ele>
        <time>2012-09-30T09:01:49Z</time>
      </trkpt>
      <trkpt lat="59.9598396" lon="17.7058671">
        <ele>31.3801</ele>
        <time>2012-09-30T09:01:50Z</time>
      </trkpt>
      <trkpt lat="59.9598579" lon="17.7058321">
        <ele>31.3801</ele>
        <time>2012-09-30T09:01:51Z</time>
      </trkpt>
      <trkpt lat="59.9598718" lon="17.7058027">
        <ele>31.3801</ele>
        <time>2012-09-30T09:01:52Z</time>
      </trkpt>
      <trkpt lat="59.9598825" lon="17.7057816">
        <ele>31.3801</ele>
        <time>2012-09-30T09:01:53Z</time>
      </trkpt>
      <trkpt lat="59.9598914" lon="17.7057634">
        <ele>32.3416</ele>
        <time>2012-09-30T09:01:54Z</time>
      </trkpt>
      <trkpt lat="59.9598962" lon="17.7057422">
        <ele>34.2642</ele>
        <time>2012-09-30T09:01:55Z</time>
      </trkpt>
      <trkpt lat="59.9599008" lon="17.7057496">
        <ele>35.2255</ele>
        <time>2012-09-30T09:01:56Z</time>
      </trkpt>
      <trkpt lat="59.9599026" lon="17.7057604">
        <ele>36.1868</ele>
        <time>2012-09-30T09:01:57Z</time>
      </trkpt>
      <trkpt lat="59.9599085" lon="17.7057695">
        <ele>37.1481</ele>
        <time>2012-09-30T09:01:58Z</time>
      </trkpt>
      <trkpt lat="59.959919" lon="17.7057882">
        <ele>37.6287</ele>
        <time>2012-09-30T09:01:59Z</time>
      </trkpt>
      <trkpt lat="59.9599312" lon="17.705804">
        <ele>38.1094</ele>
        <time>2012-09-30T09:02:00Z</time>
      </trkpt>
      <trkpt lat="59.9599427" lon="17.7058266">
        <ele>38.1094</ele>
        <time>2012-09-30T09:02:01Z</time>
      </trkpt>
      <trkpt lat="59.9599552" lon="17.7058511">
        <ele>38.5901</ele>
        <time>2012-09-30T09:02:02Z</time>
      </trkpt>
      <trkpt lat="59.959971" lon="17.7058711">
        <ele>39.0707</ele>
        <time>2012-09-30T09:02:03Z</time>
      </trkpt>
      <trkpt lat="59.9599852" lon="17.705895">
        <ele>39.0707</ele>
        <time>2012-09-30T09:02:04Z</time>
      </trkpt>
      <trkpt lat="59.9600001" lon="17.70592">
        <ele>39.0707</ele>
        <time>2012-09-30T09:02:05Z</time>
      </trkpt>
      <trkpt lat="59.9600176" lon="17.7059386">
        <ele>39.0707</ele>
        <time>2012-09-30T09:02:06Z</time>
      </trkpt>
      <trkpt lat="59.9600328" lon="17.7059572">
        <ele>38.1094</ele>
        <time>2012-09-30T09:02:07Z</time>
      </trkpt>
      <trkpt lat="59.9600442" lon="17.7059871">
        <ele>38.1094</ele>
        <time>2012-09-30T09:02:08Z</time>
      </trkpt>
      <trkpt lat="59.9600542" lon="17.7060183">
        <ele>37.1481</ele>
        <time>2012-09-30T09:02:09Z</time>
      </trkpt>
      <trkpt lat="59.9600659" lon="17.7060385">
        <ele>36.6675</ele>
        <time>2012-09-30T09:02:10Z</time>
      </trkpt>
      <trkpt lat="59.960084" lon="17.7060556">
        <ele>36.6675</ele>
        <time>2012-09-30T09:02:11Z</time>
      </trkpt>
      <trkpt lat="59.9600989" lon="17.7060778">
        <ele>36.1868</ele>
        <time>2012-09-30T09:02:12Z</time>
      </trkpt>
      <trkpt lat="59.9601091" lon="17.7060981">
        <ele>35.7061</ele>
        <time>2012-09-30T09:02:13Z</time>
      </trkpt>
      <trkpt lat="59.9601219" lon="17.7061186">
        <ele>35.7061</ele>
        <time>2012-09-30T09:02:14Z</time>
      </trkpt>
      <trkpt lat="59.9601411" lon="17.7061488">
        <ele>36.1868</ele>
        <time>2012-09-30T09:02:15Z</time>
      </trkpt>
      <trkpt lat="59.960159" lon="17.7061823">
        <ele>35.7061</ele>
        <time>2012-09-30T09:02:16Z</time>
      </trkpt>
      <trkpt lat="59.9601775" lon="17.7062147">
        <ele>35.7061</ele>
        <time>2012-09-30T09:02:17Z</time>
      </trkpt>
      <trkpt lat="59.960194" lon="17.7062416">
        <ele>35.7061</ele>
        <time>2012-09-30T09:02:18Z</time>
      </trkpt>
      <trkpt lat="59.9602105" lon="17.7062694">
        <ele>35.7061</ele>
        <time>2012-09-30T09:02:19Z</time>
      </trkpt>
      <trkpt lat="59.9602272" lon="17.7063011">
        <ele>35.2255</ele>
        <time>2012-09-30T09:02:20Z</time>
      </trkpt>
      <trkpt lat="59.9602432" lon="17.7063343">
        <ele>35.2255</ele>
        <time>2012-09-30T09:02:21Z</time>
      </trkpt>
      <trkpt lat="59.9602592" lon="17.7063699">
        <ele>34.7449</ele>
        <time>2012-09-30T09:02:22Z</time>
      </trkpt>
      <trkpt lat="59.9602743" lon="17.7063989">
        <ele>33.7834</ele>
        <time>2012-09-30T09:02:23Z</time>
      </trkpt>
      <trkpt lat="59.9602899" lon="17.7064259">
        <ele>33.3029</ele>
        <time>2012-09-30T09:02:24Z</time>
      </trkpt>
      <trkpt lat="59.9603037" lon="17.7064502">
        <ele>32.8223</ele>
        <time>2012-09-30T09:02:25Z</time>
      </trkpt>
      <trkpt lat="59.9603171" lon="17.7064751">
        <ele>32.8223</ele>
        <time>2012-09-30T09:02:26Z</time>
      </trkpt>
      <trkpt lat="59.9603291" lon="17.7064984">
        <ele>32.3416</ele>
        <time>2012-09-30T09:02:27Z</time>
      </trkpt>
      <trkpt lat="59.9603442" lon="17.7065203">
        <ele>32.3416</ele>
        <time>2012-09-30T09:02:28Z</time>
      </trkpt>
      <trkpt lat="59.9603654" lon="17.7065416">
        <ele>32.8223</ele>
        <time>2012-09-30T09:02:29Z</time>
      </trkpt>
      <trkpt lat="59.9603829" lon="17.7065643">
        <ele>33.3029</ele>
        <time>2012-09-30T09:02:30Z</time>
      </trkpt>
      <trkpt lat="59.9604013" lon="17.7065885">
        <ele>33.3029</ele>
        <time>2012-09-30T09:02:31Z</time>
      </trkpt>
      <trkpt lat="59.9604235" lon="17.7066112">
        <ele>33.3029</ele>
        <time>2012-09-30T09:02:32Z</time>
      </trkpt>
      <trkpt lat="59.9604483" lon="17.7066387">
        <ele>34.2642</ele>
        <time>2012-09-30T09:02:33Z</time>
      </trkpt>
      <trkpt lat="59.9604624" lon="17.706672">
        <ele>34.2642</ele>
        <time>2012-09-30T09:02:34Z</time>
      </trkpt>
      <trkpt lat="59.9604789" lon="17.7067005">
        <ele>34.2642</ele>
        <time>2012-09-30T09:02:35Z</time>
      </trkpt>
      <trkpt lat="59.9604986" lon="17.7067265">
        <ele>34.2642</ele>
        <time>2012-09-30T09:02:36Z</time>
      </trkpt>
      <trkpt lat="59.9605178" lon="17.7067552">
        <ele>33.7834</ele>
        <time>2012-09-30T09:02:37Z</time>
      </trkpt>
      <trkpt lat="59.9605353" lon="17.7067856">
        <ele>33.3029</ele>
        <time>2012-09-30T09:02:38Z</time>
      </trkpt>
      <trkpt lat="59.9605549" lon="17.706814">
        <ele>33.3029</ele>
        <time>2012-09-30T09:02:39Z</time>
      </trkpt>
      <trkpt lat="59.9605773" lon="17.706843">
        <ele>33.7834</ele>
        <time>2012-09-30T09:02:40Z</time>
      </trkpt>
      <trkpt lat="59.9605921" lon="17.7068709">
        <ele>33.7834</ele>
        <time>2012-09-30T09:02:41Z</time>
      </trkpt>
      <trkpt lat="59.960608" lon="17.7069005">
        <ele>33.3029</ele>
        <time>2012-09-30T09:02:42Z</time>
      </trkpt>
      <trkpt lat="59.9606234" lon="17.7069296">
        <ele>33.3029</ele>
        <time>2012-09-30T09:02:43Z</time>
      </trkpt>
      <trkpt lat="59.9606342" lon="17.7069549">
        <ele>32.8223</ele>
        <time>2012-09-30T09:02:44Z</time>
      </trkpt>
      <trkpt lat="59.9606571" lon="17.7069873">
        <ele>32.8223</ele>
        <time>2012-09-30T09:02:45Z</time>
      </trkpt>
      <trkpt lat="59.9606788" lon="17.7070236">
        <ele>32.8223</ele>
        <time>2012-09-30T09:02:46Z</time>
      </trkpt>
      <trkpt lat="59.9606975" lon="17.7070502">
        <ele>32.8223</ele>
        <time>2012-09-30T09:02:47Z</time>
      </trkpt>
      <trkpt lat="59.9607134" lon="17.7070745">
        <ele>32.3416</ele>
        <time>2012-09-30T09:02:48Z</time>
      </trkpt>
      <trkpt lat="59.960727" lon="17.7071041">
        <ele>31.3801</ele>
        <time>2012-09-30T09:02:49Z</time>
      </trkpt>
      <trkpt lat="59.9607402" lon="17.7071325">
        <ele>30.8995</ele>
        <time>2012-09-30T09:02:50Z</time>
      </trkpt>
      <trkpt lat="59.9607511" lon="17.7071595">
        <ele>29.9381</ele>
        <time>2012-09-30T09:02:51Z</time>
      </trkpt>
      <trkpt lat="59.9607704" lon="17.707189">
        <ele>30.4188</ele>
        <time>2012-09-30T09:02:52Z</time>
      </trkpt>
      <trkpt lat="59.9607835" lon="17.7072155">
        <ele>29.4575</ele>
        <time>2012-09-30T09:02:53Z</time>
      </trkpt>
      <trkpt lat="59.9607978" lon="17.707243">
        <ele>29.4575</ele>
        <time>2012-09-30T09:02:54Z</time>
      </trkpt>
      <trkpt lat="59.9608126" lon="17.7072684">
        <ele>28.9769</ele>
        <time>2012-09-30T09:02:55Z</time>
      </trkpt>
      <trkpt lat="59.9608319" lon="17.7072979">
        <ele>28.9769</ele>
        <time>2012-09-30T09:02:56Z</time>
      </trkpt>
      <trkpt lat="59.9608516" lon="17.7073276">
        <ele>29.4575</ele>
        <time>2012-09-30T09:02:57Z</time>
      </trkpt>
      <trkpt lat="59.9608692" lon="17.7073546">
        <ele>29.4575</ele>
        <time>2012-09-30T09:02:58Z</time>
      </trkpt>
      <trkpt lat="59.9608856" lon="17.7073821">
        <ele>29.4575</ele>
        <time>2012-09-30T09:02:59Z</time>
      </trkpt>
      <trkpt lat="59.9608993" lon="17.7074112">
        <ele>29.4575</ele>
        <time>2012-09-30T09:03:00Z</time>
      </trkpt>
      <trkpt lat="59.9609149" lon="17.7074428">
        <ele>29.4575</ele>
        <time>2012-09-30T09:03:01Z</time>
      </trkpt>
      <trkpt lat="59.96093" lon="17.707477">
        <ele>29.4575</ele>
        <time>2012-09-30T09:03:02Z</time>
      </trkpt>
      <trkpt lat="59.9609478" lon="17.7075034">
        <ele>29.9381</ele>
        <time>2012-09-30T09:03:03Z</time>
      </trkpt>
      <trkpt lat="59.9609653" lon="17.7075293">
        <ele>30.4188</ele>
        <time>2012-09-30T09:03:04Z</time>
      </trkpt>
      <trkpt lat="59.9609808" lon="17.7075567">
        <ele>30.4188</ele>
        <time>2012-09-30T09:03:05Z</time>
      </trkpt>
      <trkpt lat="59.9609959" lon="17.7075846">
        <ele>30.8995</ele>
        <time>2012-09-30T09:03:06Z</time>
      </trkpt>
      <trkpt lat="59.9610096" lon="17.707605">
        <ele>30.8995</ele>
        <time>2012-09-30T09:03:07Z</time>
      </trkpt>
      <trkpt lat="59.9610236" lon="17.7076268">
        <ele>31.3801</ele>
        <time>2012-09-30T09:03:08Z</time>
      </trkpt>
      <trkpt lat="59.9610435" lon="17.7076524">
        <ele>31.8607</ele>
        <time>2012-09-30T09:03:09Z</time>
      </trkpt>
      <trkpt lat="59.9610671" lon="17.7076821">
        <ele>32.3416</ele>
        <time>2012-09-30T09:03:10Z</time>
      </trkpt>
      <trkpt lat="59.961088" lon="17.7077049">
        <ele>32.3416</ele>
        <time>2012-09-30T09:03:11Z</time>
      </trkpt>
      <trkpt lat="59.9611081" lon="17.7077246">
        <ele>32.3416</ele>
        <time>2012-09-30T09:03:12Z</time>
      </trkpt>
      <trkpt lat="59.9611253" lon="17.7077473">
        <ele>32.8223</ele>
        <time>2012-09-30T09:03:13Z</time>
      </trkpt>
      <trkpt lat="59.9611397" lon="17.7077742">
        <ele>32.8223</ele>
        <time>2012-09-30T09:03:14Z</time>
      </trkpt>
      <trkpt lat="59.9611552" lon="17.707805">
        <ele>32.8223</ele>
        <time>2012-09-30T09:03:15Z</time>
      </trkpt>
      <trkpt lat="59.9611717" lon="17.7078386">
        <ele>32.8223</ele>
        <time>2012-09-30T09:03:16Z</time>
      </trkpt>
      <trkpt lat="59.9611963" lon="17.7078682">
        <ele>33.3029</ele>
        <time>2012-09-30T09:03:17Z</time>
      </trkpt>
      <trkpt lat="59.9612258" lon="17.7078895">
        <ele>33.7834</ele>
        <time>2012-09-30T09:03:18Z</time>
      </trkpt>
      <trkpt lat="59.9612537" lon="17.7079112">
        <ele>33.7834</ele>
        <time>2012-09-30T09:03:19Z</time>
      </trkpt>
      <trkpt lat="59.9612822" lon="17.7079355">
        <ele>34.2642</ele>
        <time>2012-09-30T09:03:20Z</time>
      </trkpt>
      <trkpt lat="59.9613101" lon="17.7079591">
        <ele>34.2642</ele>
        <time>2012-09-30T09:03:21Z</time>
      </trkpt>
      <trkpt lat="59.96133" lon="17.7079814">
        <ele>34.2642</ele>
        <time>2012-09-30T09:03:22Z</time>
      </trkpt>
      <trkpt lat="59.9613526" lon="17.7080076">
        <ele>34.2642</ele>
        <time>2012-09-30T09:03:23Z</time>
      </trkpt>
      <trkpt lat="59.9613842" lon="17.7080359">
        <ele>35.2255</ele>
        <time>2012-09-30T09:03:24Z</time>
      </trkpt>
      <trkpt lat="59.9614104" lon="17.7080603">
        <ele>35.2255</ele>
        <time>2012-09-30T09:03:25Z</time>
      </trkpt>
      <trkpt lat="59.9614289" lon="17.7080835">
        <ele>35.2255</ele>
        <time>2012-09-30T09:03:26Z</time>
      </trkpt>
      <trkpt lat="59.9614486" lon="17.7081098">
        <ele>35.7061</ele>
        <time>2012-09-30T09:03:27Z</time>
      </trkpt>
      <trkpt lat="59.9614703" lon="17.7081385">
        <ele>36.1868</ele>
        <time>2012-09-30T09:03:28Z</time>
      </trkpt>
      <trkpt lat="59.9614879" lon="17.7081705">
        <ele>36.6675</ele>
        <time>2012-09-30T09:03:29Z</time>
      </trkpt>
      <trkpt lat="59.9615061" lon="17.7081965">
        <ele>36.6675</ele>
        <time>2012-09-30T09:03:30Z</time>
      </trkpt>
      <trkpt lat="59.9615258" lon="17.708225">
        <ele>36.6675</ele>
        <time>2012-09-30T09:03:31Z</time>
      </trkpt>
      <trkpt lat="59.9615465" lon="17.708254">
        <ele>36.1868</ele>
        <time>2012-09-30T09:03:32Z</time>
      </trkpt>
      <trkpt lat="59.9615682" lon="17.708278">
        <ele>36.1868</ele>
        <time>2012-09-30T09:03:33Z</time>
      </trkpt>
      <trkpt lat="59.9615874" lon="17.7083033">
        <ele>36.1868</ele>
        <time>2012-09-30T09:03:34Z</time>
      </trkpt>
      <trkpt lat="59.9616031" lon="17.7083306">
        <ele>35.7061</ele>
        <time>2012-09-30T09:03:35Z</time>
      </trkpt>
      <trkpt lat="59.96162" lon="17.708352">
        <ele>35.7061</ele>
        <time>2012-09-30T09:03:36Z</time>
      </trkpt>
      <trkpt lat="59.9616401" lon="17.7083752">
        <ele>35.7061</ele>
        <time>2012-09-30T09:03:37Z</time>
      </trkpt>
      <trkpt lat="59.9616645" lon="17.7083979">
        <ele>35.7061</ele>
        <time>2012-09-30T09:03:38Z</time>
      </trkpt>
      <trkpt lat="59.9616851" lon="17.7084156">
        <ele>35.7061</ele>
        <time>2012-09-30T09:03:39Z</time>
      </trkpt>
      <trkpt lat="59.9616988" lon="17.7084328">
        <ele>35.7061</ele>
        <time>2012-09-30T09:03:40Z</time>
      </trkpt>
      <trkpt lat="59.9617124" lon="17.7084529">
        <ele>35.2255</ele>
        <time>2012-09-30T09:03:41Z</time>
      </trkpt>
      <trkpt lat="59.9617308" lon="17.70847">
        <ele>35.2255</ele>
        <time>2012-09-30T09:03:42Z</time>
      </trkpt>
      <trkpt lat="59.9617516" lon="17.7084874">
        <ele>34.7449</ele>
        <time>2012-09-30T09:03:43Z</time>
      </trkpt>
      <trkpt lat="59.9617723" lon="17.7085089">
        <ele>34.7449</ele>
        <time>2012-09-30T09:03:44Z</time>
      </trkpt>
      <trkpt lat="59.9617918" lon="17.7085211">
        <ele>34.7449</ele>
        <time>2012-09-30T09:03:45Z</time>
      </trkpt>
      <trkpt lat="59.9618125" lon="17.708531">
        <ele>34.7449</ele>
        <time>2012-09-30T09:03:46Z</time>
      </trkpt>
      <trkpt lat="59.961835" lon="17.708542">
        <ele>35.2255</ele>
        <time>2012-09-30T09:03:47Z</time>
      </trkpt>
      <trkpt lat="59.9618573" lon="17.7085494">
        <ele>35.2255</ele>
        <time>2012-09-30T09:03:48Z</time>
      </trkpt>
      <trkpt lat="59.9618754" lon="17.7085515">
        <ele>34.7449</ele>
        <time>2012-09-30T09:03:49Z</time>
      </trkpt>
      <trkpt lat="59.961898" lon="17.7085524">
        <ele>34.7449</ele>
        <time>2012-09-30T09:03:50Z</time>
      </trkpt>
      <trkpt lat="59.9619177" lon="17.708554">
        <ele>34.7449</ele>
        <time>2012-09-30T09:03:51Z</time>
      </trkpt>
      <trkpt lat="59.9619402" lon="17.7085543">
        <ele>34.2642</ele>
        <time>2012-09-30T09:03:52Z</time>
      </trkpt>
      <trkpt lat="59.9619645" lon="17.7085543">
        <ele>34.7449</ele>
        <time>2012-09-30T09:03:53Z</time>
      </trkpt>
      <trkpt lat="59.9619878" lon="17.7085506">
        <ele>34.7449</ele>
        <time>2012-09-30T09:03:54Z</time>
      </trkpt>
      <trkpt lat="59.9620169" lon="17.708552">
        <ele>34.7449</ele>
        <time>2012-09-30T09:03:55Z</time>
      </trkpt>
      <trkpt lat="59.9620448" lon="17.7085534">
        <ele>34.7449</ele>
        <time>2012-09-30T09:03:56Z</time>
      </trkpt>
      <trkpt lat="59.9620681" lon="17.7085489">
        <ele>34.7449</ele>
        <time>2012-09-30T09:03:57Z</time>
      </trkpt>
      <trkpt lat="59.962092" lon="17.7085472">
        <ele>35.2255</ele>
        <time>2012-09-30T09:03:58Z</time>
      </trkpt>
      <trkpt lat="59.9621143" lon="17.7085441">
        <ele>34.7449</ele>
        <time>2012-09-30T09:03:59Z</time>
      </trkpt>
      <trkpt lat="59.9621405" lon="17.7085441">
        <ele>35.2255</ele>
        <time>2012-09-30T09:04:00Z</time>
      </trkpt>
      <trkpt lat="59.9621689" lon="17.7085487">
        <ele>35.2255</ele>
        <time>2012-09-30T09:04:01Z</time>
      </trkpt>
      <trkpt lat="59.9621955" lon="17.7085538">
        <ele>35.2255</ele>
        <time>2012-09-30T09:04:02Z</time>
      </trkpt>
      <trkpt lat="59.9622214" lon="17.7085556">
        <ele>35.2255</ele>
        <time>2012-09-30T09:04:03Z</time>
      </trkpt>
      <trkpt lat="59.9622484" lon="17.708554">
        <ele>35.7061</ele>
        <time>2012-09-30T09:04:04Z</time>
      </trkpt>
      <trkpt lat="59.9622731" lon="17.7085532">
        <ele>35.2255</ele>
        <time>2012-09-30T09:04:05Z</time>
      </trkpt>
      <trkpt lat="59.9622981" lon="17.7085554">
        <ele>35.7061</ele>
        <time>2012-09-30T09:04:06Z</time>
      </trkpt>
      <trkpt lat="59.9623245" lon="17.7085597">
        <ele>36.1868</ele>
        <time>2012-09-30T09:04:07Z</time>
      </trkpt>
      <trkpt lat="59.9623492" lon="17.7085626">
        <ele>36.1868</ele>
        <time>2012-09-30T09:04:08Z</time>
      </trkpt>
      <trkpt lat="59.96237" lon="17.7085587">
        <ele>36.6675</ele>
        <time>2012-09-30T09:04:09Z</time>
      </trkpt>
      <trkpt lat="59.9623927" lon="17.7085571">
        <ele>36.6675</ele>
        <time>2012-09-30T09:04:10Z</time>
      </trkpt>
      <trkpt lat="59.962421" lon="17.7085567">
        <ele>37.1481</ele>
        <time>2012-09-30T09:04:11Z</time>
      </trkpt>
      <trkpt lat="59.9624432" lon="17.7085528">
        <ele>36.6675</ele>
        <time>2012-09-30T09:04:12Z</time>
      </trkpt>
      <trkpt lat="59.9624649" lon="17.7085529">
        <ele>37.1481</ele>
        <time>2012-09-30T09:04:13Z</time>
      </trkpt>
      <trkpt lat="59.9624861" lon="17.7085611">
        <ele>37.1481</ele>
        <time>2012-09-30T09:04:14Z</time>
      </trkpt>
      <trkpt lat="59.9625061" lon="17.7085674">
        <ele>37.1481</ele>
        <time>2012-09-30T09:04:15Z</time>
      </trkpt>
      <trkpt lat="59.962526" lon="17.7085701">
        <ele>37.1481</ele>
        <time>2012-09-30T09:04:16Z</time>
      </trkpt>
      <trkpt lat="59.9625478" lon="17.708576">
        <ele>36.6675</ele>
        <time>2012-09-30T09:04:17Z</time>
      </trkpt>
      <trkpt lat="59.9625707" lon="17.7085862">
        <ele>36.6675</ele>
        <time>2012-09-30T09:04:18Z</time>
      </trkpt>
      <trkpt lat="59.9625921" lon="17.7086011">
        <ele>36.1868</ele>
        <time>2012-09-30T09:04:19Z</time>
      </trkpt>
      <trkpt lat="59.9626151" lon="17.7086218">
        <ele>36.1868</ele>
        <time>2012-09-30T09:04:20Z</time>
      </trkpt>
      <trkpt lat="59.9626447" lon="17.7086371">
        <ele>36.1868</ele>
        <time>2012-09-30T09:04:21Z</time>
      </trkpt>
      <trkpt lat="59.9626669" lon="17.7086544">
        <ele>36.1868</ele>
        <time>2012-09-30T09:04:22Z</time>
      </trkpt>
      <trkpt lat="59.962684" lon="17.7086751">
        <ele>35.7061</ele>
        <time>2012-09-30T09:04:23Z</time>
      </trkpt>
      <trkpt lat="59.9627041" lon="17.7086931">
        <ele>35.2255</ele>
        <time>2012-09-30T09:04:24Z</time>
      </trkpt>
      <trkpt lat="59.9627212" lon="17.7087094">
        <ele>34.7449</ele>
        <time>2012-09-30T09:04:25Z</time>
      </trkpt>
      <trkpt lat="59.9627369" lon="17.7087295">
        <ele>33.7834</ele>
        <time>2012-09-30T09:04:26Z</time>
      </trkpt>
      <trkpt lat="59.9627534" lon="17.7087516">
        <ele>33.3029</ele>
        <time>2012-09-30T09:04:27Z</time>
      </trkpt>
      <trkpt lat="59.9627743" lon="17.7087718">
        <ele>33.3029</ele>
        <time>2012-09-30T09:04:28Z</time>
      </trkpt>
      <trkpt lat="59.9627959" lon="17.7087934">
        <ele>33.3029</ele>
        <time>2012-09-30T09:04:29Z</time>
      </trkpt>
      <trkpt lat="59.9628223" lon="17.7088164">
        <ele>33.7834</ele>
        <time>2012-09-30T09:04:30Z</time>
      </trkpt>
      <trkpt lat="59.9628428" lon="17.7088384">
        <ele>33.7834</ele>
        <time>2012-09-30T09:04:31Z</time>
      </trkpt>
      <trkpt lat="59.9628627" lon="17.7088587">
        <ele>33.3029</ele>
        <time>2012-09-30T09:04:32Z</time>
      </trkpt>
      <trkpt lat="59.9628858" lon="17.7088839">
        <ele>33.3029</ele>
        <time>2012-09-30T09:04:33Z</time>
      </trkpt>
      <trkpt lat="59.9629042" lon="17.7089031">
        <ele>33.7834</ele>
        <time>2012-09-30T09:04:34Z</time>
      </trkpt>
      <trkpt lat="59.9629239" lon="17.7089212">
        <ele>33.7834</ele>
        <time>2012-09-30T09:04:35Z</time>
      </trkpt>
      <trkpt lat="59.9629475" lon="17.7089421">
        <ele>33.7834</ele>
        <time>2012-09-30T09:04:36Z</time>
      </trkpt>
      <trkpt lat="59.9629627" lon="17.7089637">
        <ele>33.3029</ele>
        <time>2012-09-30T09:04:37Z</time>
      </trkpt>
      <trkpt lat="59.9629817" lon="17.7089844">
        <ele>33.3029</ele>
        <time>2012-09-30T09:04:38Z</time>
      </trkpt>
      <trkpt lat="59.9629999" lon="17.7090057">
        <ele>32.8223</ele>
        <time>2012-09-30T09:04:39Z</time>
      </trkpt>
      <trkpt lat="59.9630213" lon="17.7090241">
        <ele>32.3416</ele>
        <time>2012-09-30T09:04:40Z</time>
      </trkpt>
      <trkpt lat="59.9630385" lon="17.7090485">
        <ele>31.8607</ele>
        <time>2012-09-30T09:04:41Z</time>
      </trkpt>
      <trkpt lat="59.9630573" lon="17.7090726">
        <ele>31.3801</ele>
        <time>2012-09-30T09:04:42Z</time>
      </trkpt>
      <trkpt lat="59.9630875" lon="17.7090905">
        <ele>31.8607</ele>
        <time>2012-09-30T09:04:43Z</time>
      </trkpt>
      <trkpt lat="59.963104" lon="17.7091086">
        <ele>31.8607</ele>
        <time>2012-09-30T09:04:44Z</time>
      </trkpt>
      <trkpt lat="59.9631175" lon="17.7091239">
        <ele>31.8607</ele>
        <time>2012-09-30T09:04:45Z</time>
      </trkpt>
      <trkpt lat="59.9631405" lon="17.7091379">
        <ele>32.3416</ele>
        <time>2012-09-30T09:04:46Z</time>
      </trkpt>
      <trkpt lat="59.9631646" lon="17.709157">
        <ele>32.3416</ele>
        <time>2012-09-30T09:04:47Z</time>
      </trkpt>
      <trkpt lat="59.9631881" lon="17.7091734">
        <ele>32.8223</ele>
        <time>2012-09-30T09:04:48Z</time>
      </trkpt>
      <trkpt lat="59.9632127" lon="17.7091902">
        <ele>32.8223</ele>
        <time>2012-09-30T09:04:49Z</time>
      </trkpt>
      <trkpt lat="59.963229" lon="17.7092134">
        <ele>32.8223</ele>
        <time>2012-09-30T09:04:50Z</time>
      </trkpt>
      <trkpt lat="59.9632455" lon="17.7092406">
        <ele>32.8223</ele>
        <time>2012-09-30T09:04:51Z</time>
      </trkpt>
      <trkpt lat="59.9632635" lon="17.7092641">
        <ele>32.3416</ele>
        <time>2012-09-30T09:04:52Z</time>
      </trkpt>
      <trkpt lat="59.9632816" lon="17.7092932">
        <ele>32.3416</ele>
        <time>2012-09-30T09:04:53Z</time>
      </trkpt>
      <trkpt lat="59.9633082" lon="17.709317">
        <ele>32.8223</ele>
        <time>2012-09-30T09:04:54Z</time>
      </trkpt>
      <trkpt lat="59.9633269" lon="17.7093394">
        <ele>32.3416</ele>
        <time>2012-09-30T09:04:55Z</time>
      </trkpt>
      <trkpt lat="59.9633444" lon="17.7093717">
        <ele>32.3416</ele>
        <time>2012-09-30T09:04:56Z</time>
      </trkpt>
      <trkpt lat="59.9633653" lon="17.709396">
        <ele>32.3416</ele>
        <time>2012-09-30T09:04:57Z</time>
      </trkpt>
      <trkpt lat="59.9633819" lon="17.709419">
        <ele>32.3416</ele>
        <time>2012-09-30T09:04:58Z</time>
      </trkpt>
      <trkpt lat="59.9633972" lon="17.7094485">
        <ele>32.3416</ele>
        <time>2012-09-30T09:04:59Z</time>
      </trkpt>
      <trkpt lat="59.9634127" lon="17.7094766">
        <ele>31.8607</ele>
        <time>2012-09-30T09:05:00Z</time>
      </trkpt>
      <trkpt lat="59.9634304" lon="17.7095039">
        <ele>31.3801</ele>
        <time>2012-09-30T09:05:01Z</time>
      </trkpt>
      <trkpt lat="59.9634484" lon="17.7095366">
        <ele>30.4188</ele>
        <time>2012-09-30T09:05:02Z</time>
      </trkpt>
      <trkpt lat="59.9634657" lon="17.7095701">
        <ele>29.9381</ele>
        <time>2012-09-30T09:05:03Z</time>
      </trkpt>
      <trkpt lat="59.9634818" lon="17.7096034">
        <ele>29.4575</ele>
        <time>2012-09-30T09:05:04Z</time>
      </trkpt>
      <trkpt lat="59.9634979" lon="17.7096412">
        <ele>29.4575</ele>
        <time>2012-09-30T09:05:05Z</time>
      </trkpt>
      <trkpt lat="59.9635161" lon="17.709677">
        <ele>28.9769</ele>
        <time>2012-09-30T09:05:06Z</time>
      </trkpt>
      <trkpt lat="59.9635402" lon="17.7097082">
        <ele>28.4962</ele>
        <time>2012-09-30T09:05:07Z</time>
      </trkpt>
      <trkpt lat="59.9635668" lon="17.7097426">
        <ele>29.4575</ele>
        <time>2012-09-30T09:05:08Z</time>
      </trkpt>
      <trkpt lat="59.9635827" lon="17.7097858">
        <ele>29.4575</ele>
        <time>2012-09-30T09:05:09Z</time>
      </trkpt>
      <trkpt lat="59.963596" lon="17.7098314">
        <ele>29.9381</ele>
        <time>2012-09-30T09:05:10Z</time>
      </trkpt>
      <trkpt lat="59.9636093" lon="17.7098742">
        <ele>29.4575</ele>
        <time>2012-09-30T09:05:11Z</time>
      </trkpt>
      <trkpt lat="59.9636279" lon="17.7099142">
        <ele>29.4575</ele>
        <time>2012-09-30T09:05:12Z</time>
      </trkpt>
      <trkpt lat="59.9636473" lon="17.7099504">
        <ele>29.4575</ele>
        <time>2012-09-30T09:05:13Z</time>
      </trkpt>
      <trkpt lat="59.9636619" lon="17.7099882">
        <ele>28.9769</ele>
        <time>2012-09-30T09:05:14Z</time>
      </trkpt>
      <trkpt lat="59.9636748" lon="17.710029">
        <ele>29.4575</ele>
        <time>2012-09-30T09:05:15Z</time>
      </trkpt>
      <trkpt lat="59.9636849" lon="17.7100722">
        <ele>29.4575</ele>
        <time>2012-09-30T09:05:16Z</time>
      </trkpt>
      <trkpt lat="59.9636997" lon="17.7101102">
        <ele>29.9381</ele>
        <time>2012-09-30T09:05:17Z</time>
      </trkpt>
      <trkpt lat="59.9637165" lon="17.7101448">
        <ele>29.9381</ele>
        <time>2012-09-30T09:05:18Z</time>
      </trkpt>
      <trkpt lat="59.963733" lon="17.7101877">
        <ele>29.9381</ele>
        <time>2012-09-30T09:05:19Z</time>
      </trkpt>
      <trkpt lat="59.96375" lon="17.7102228">
        <ele>29.9381</ele>
        <time>2012-09-30T09:05:20Z</time>
      </trkpt>
      <trkpt lat="59.9637668" lon="17.7102546">
        <ele>30.4188</ele>
        <time>2012-09-30T09:05:21Z</time>
      </trkpt>
      <trkpt lat="59.9637865" lon="17.7102896">
        <ele>30.4188</ele>
        <time>2012-09-30T09:05:22Z</time>
      </trkpt>
      <trkpt lat="59.9638097" lon="17.710325">
        <ele>30.8995</ele>
        <time>2012-09-30T09:05:23Z</time>
      </trkpt>
      <trkpt lat="59.9638319" lon="17.7103613">
        <ele>31.3801</ele>
        <time>2012-09-30T09:05:24Z</time>
      </trkpt>
      <trkpt lat="59.9638517" lon="17.7103948">
        <ele>31.3801</ele>
        <time>2012-09-30T09:05:25Z</time>
      </trkpt>
      <trkpt lat="59.9638682" lon="17.7104282">
        <ele>30.8995</ele>
        <time>2012-09-30T09:05:26Z</time>
      </trkpt>
      <trkpt lat="59.9638868" lon="17.7104635">
        <ele>31.3801</ele>
        <time>2012-09-30T09:05:27Z</time>
      </trkpt>
      <trkpt lat="59.9639003" lon="17.7105012">
        <ele>31.3801</ele>
        <time>2012-09-30T09:05:28Z</time>
      </trkpt>
      <trkpt lat="59.9639121" lon="17.7105385">
        <ele>30.8995</ele>
        <time>2012-09-30T09:05:29Z</time>
      </trkpt>
      <trkpt lat="59.9639298" lon="17.7105722">
        <ele>31.3801</ele>
        <time>2012-09-30T09:05:30Z</time>
      </trkpt>
      <trkpt lat="59.9639496" lon="17.7106088">
        <ele>31.3801</ele>
        <time>2012-09-30T09:05:31Z</time>
      </trkpt>
      <trkpt lat="59.9639697" lon="17.7106442">
        <ele>31.8607</ele>
        <time>2012-09-30T09:05:32Z</time>
      </trkpt>
      <trkpt lat="59.9639898" lon="17.7106776">
        <ele>31.8607</ele>
        <time>2012-09-30T09:05:33Z</time>
      </trkpt>
      <trkpt lat="59.964008" lon="17.7107181">
        <ele>32.3416</ele>
        <time>2012-09-30T09:05:34Z</time>
      </trkpt>
      <trkpt lat="59.9640294" lon="17.7107585">
        <ele>32.8223</ele>
        <time>2012-09-30T09:05:35Z</time>
      </trkpt>
      <trkpt lat="59.9640511" lon="17.7107902">
        <ele>32.8223</ele>
        <time>2012-09-30T09:05:36Z</time>
      </trkpt>
      <trkpt lat="59.9640638" lon="17.7108252">
        <ele>32.8223</ele>
        <time>2012-09-30T09:05:37Z</time>
      </trkpt>
      <trkpt lat="59.9640747" lon="17.7108601">
        <ele>32.8223</ele>
        <time>2012-09-30T09:05:38Z</time>
      </trkpt>
      <trkpt lat="59.9640889" lon="17.7108969">
        <ele>32.8223</ele>
        <time>2012-09-30T09:05:39Z</time>
      </trkpt>
      <trkpt lat="59.9641045" lon="17.7109322">
        <ele>32.8223</ele>
        <time>2012-09-30T09:05:40Z</time>
      </trkpt>
      <trkpt lat="59.9641218" lon="17.710962">
        <ele>32.8223</ele>
        <time>2012-09-30T09:05:41Z</time>
      </trkpt>
      <trkpt lat="59.9641368" lon="17.7109897">
        <ele>32.8223</ele>
        <time>2012-09-30T09:05:42Z</time>
      </trkpt>
      <trkpt lat="59.9641536" lon="17.711015">
        <ele>32.3416</ele>
        <time>2012-09-30T09:05:43Z</time>
      </trkpt>
      <trkpt lat="59.9641721" lon="17.7110373">
        <ele>32.8223</ele>
        <time>2012-09-30T09:05:44Z</time>
      </trkpt>
      <trkpt lat="59.9641933" lon="17.711057">
        <ele>32.8223</ele>
        <time>2012-09-30T09:05:45Z</time>
      </trkpt>
      <trkpt lat="59.9642125" lon="17.7110781">
        <ele>32.8223</ele>
        <time>2012-09-30T09:05:46Z</time>
      </trkpt>
      <trkpt lat="59.9642311" lon="17.7110948">
        <ele>32.3416</ele>
        <time>2012-09-30T09:05:47Z</time>
      </trkpt>
      <trkpt lat="59.9642524" lon="17.7111145">
        <ele>32.3416</ele>
        <time>2012-09-30T09:05:48Z</time>
      </trkpt>
      <trkpt lat="59.9642747" lon="17.7111368">
        <ele>32.3416</ele>
        <time>2012-09-30T09:05:49Z</time>
      </trkpt>
      <trkpt lat="59.9642979" lon="17.7111531">
        <ele>32.8223</ele>
        <time>2012-09-30T09:05:50Z</time>
      </trkpt>
      <trkpt lat="59.9643178" lon="17.7111704">
        <ele>32.8223</ele>
        <time>2012-09-30T09:05:51Z</time>
      </trkpt>
      <trkpt lat="59.9643397" lon="17.7111937">
        <ele>32.3416</ele>
        <time>2012-09-30T09:05:52Z</time>
      </trkpt>
      <trkpt lat="59.9643644" lon="17.7112108">
        <ele>31.8607</ele>
        <time>2012-09-30T09:05:53Z</time>
      </trkpt>
      <trkpt lat="59.9643862" lon="17.7112282">
        <ele>31.8607</ele>
        <time>2012-09-30T09:05:54Z</time>
      </trkpt>
      <trkpt lat="59.9644047" lon="17.7112516">
        <ele>31.8607</ele>
        <time>2012-09-30T09:05:55Z</time>
      </trkpt>
      <trkpt lat="59.964424" lon="17.7112709">
        <ele>31.8607</ele>
        <time>2012-09-30T09:05:56Z</time>
      </trkpt>
      <trkpt lat="59.9644443" lon="17.7112922">
        <ele>31.3801</ele>
        <time>2012-09-30T09:05:57Z</time>
      </trkpt>
      <trkpt lat="59.9644653" lon="17.7113191">
        <ele>31.3801</ele>
        <time>2012-09-30T09:05:58Z</time>
      </trkpt>
      <trkpt lat="59.964486" lon="17.7113397">
        <ele>30.8995</ele>
        <time>2012-09-30T09:05:59Z</time>
      </trkpt>
      <trkpt lat="59.9645064" lon="17.7113595">
        <ele>30.8995</ele>
        <time>2012-09-30T09:06:00Z</time>
      </trkpt>
      <trkpt lat="59.964528" lon="17.7113854">
        <ele>30.8995</ele>
        <time>2012-09-30T09:06:01Z</time>
      </trkpt>
      <trkpt lat="59.964549" lon="17.7114077">
        <ele>30.8995</ele>
        <time>2012-09-30T09:06:02Z</time>
      </trkpt>
      <trkpt lat="59.9645696" lon="17.7114294">
        <ele>30.8995</ele>
        <time>2012-09-30T09:06:03Z</time>
      </trkpt>
      <trkpt lat="59.9645898" lon="17.7114518">
        <ele>30.8995</ele>
        <time>2012-09-30T09:06:04Z</time>
      </trkpt>
      <trkpt lat="59.9646078" lon="17.7114692">
        <ele>30.8995</ele>
        <time>2012-09-30T09:06:05Z</time>
      </trkpt>
      <trkpt lat="59.9646282" lon="17.711487">
        <ele>30.4188</ele>
        <time>2012-09-30T09:06:06Z</time>
      </trkpt>
      <trkpt lat="59.9646519" lon="17.711508">
        <ele>30.4188</ele>
        <time>2012-09-30T09:06:07Z</time>
      </trkpt>
      <trkpt lat="59.9646689" lon="17.7115227">
        <ele>30.4188</ele>
        <time>2012-09-30T09:06:08Z</time>
      </trkpt>
      <trkpt lat="59.9646867" lon="17.7115413">
        <ele>30.4188</ele>
        <time>2012-09-30T09:06:09Z</time>
      </trkpt>
      <trkpt lat="59.9647048" lon="17.7115658">
        <ele>29.9381</ele>
        <time>2012-09-30T09:06:10Z</time>
      </trkpt>
      <trkpt lat="59.964722" lon="17.7115823">
        <ele>29.4575</ele>
        <time>2012-09-30T09:06:11Z</time>
      </trkpt>
      <trkpt lat="59.9647419" lon="17.7115943">
        <ele>28.9769</ele>
        <time>2012-09-30T09:06:12Z</time>
      </trkpt>
      <trkpt lat="59.9647639" lon="17.7116107">
        <ele>28.4962</ele>
        <time>2012-09-30T09:06:13Z</time>
      </trkpt>
      <trkpt lat="59.9647877" lon="17.7116285">
        <ele>28.0155</ele>
        <time>2012-09-30T09:06:14Z</time>
      </trkpt>
      <trkpt lat="59.9648101" lon="17.7116453">
        <ele>27.5349</ele>
        <time>2012-09-30T09:06:15Z</time>
      </trkpt>
      <trkpt lat="59.9648364" lon="17.7116605">
        <ele>27.0543</ele>
        <time>2012-09-30T09:06:16Z</time>
      </trkpt>
      <trkpt lat="59.9648622" lon="17.7116777">
        <ele>27.0543</ele>
        <time>2012-09-30T09:06:17Z</time>
      </trkpt>
      <trkpt lat="59.9648872" lon="17.7116906">
        <ele>26.5736</ele>
        <time>2012-09-30T09:06:18Z</time>
      </trkpt>
      <trkpt lat="59.9649116" lon="17.711705">
        <ele>26.0929</ele>
        <time>2012-09-30T09:06:19Z</time>
      </trkpt>
      <trkpt lat="59.9649346" lon="17.7117201">
        <ele>25.6123</ele>
        <time>2012-09-30T09:06:20Z</time>
      </trkpt>
      <trkpt lat="59.964959" lon="17.711733">
        <ele>25.6123</ele>
        <time>2012-09-30T09:06:21Z</time>
      </trkpt>
      <trkpt lat="59.9649798" lon="17.7117512">
        <ele>25.1317</ele>
        <time>2012-09-30T09:06:22Z</time>
      </trkpt>
      <trkpt lat="59.9649976" lon="17.7117721">
        <ele>24.651</ele>
        <time>2012-09-30T09:06:23Z</time>
      </trkpt>
      <trkpt lat="59.9650151" lon="17.7117882">
        <ele>24.651</ele>
        <time>2012-09-30T09:06:24Z</time>
      </trkpt>
      <trkpt lat="59.9650342" lon="17.7118081">
        <ele>24.651</ele>
        <time>2012-09-30T09:06:25Z</time>
      </trkpt>
      <trkpt lat="59.9650574" lon="17.7118296">
        <ele>25.1317</ele>
        <time>2012-09-30T09:06:26Z</time>
      </trkpt>
      <trkpt lat="59.9650796" lon="17.7118441">
        <ele>24.651</ele>
        <time>2012-09-30T09:06:27Z</time>
      </trkpt>
      <trkpt lat="59.9651036" lon="17.7118614">
        <ele>24.651</ele>
        <time>2012-09-30T09:06:28Z</time>
      </trkpt>
      <trkpt lat="59.965126" lon="17.7118804">
        <ele>24.651</ele>
        <time>2012-09-30T09:06:29Z</time>
      </trkpt>
      <trkpt lat="59.9651456" lon="17.7118945">
        <ele>24.1703</ele>
        <time>2012-09-30T09:06:30Z</time>
      </trkpt>
      <trkpt lat="59.9651704" lon="17.7119116">
        <ele>24.1703</ele>
        <time>2012-09-30T09:06:31Z</time>
      </trkpt>
      <trkpt lat="59.9651986" lon="17.7119309">
        <ele>23.6896</ele>
        <time>2012-09-30T09:06:32Z</time>
      </trkpt>
      <trkpt lat="59.9652234" lon="17.7119503">
        <ele>23.6896</ele>
        <time>2012-09-30T09:06:33Z</time>
      </trkpt>
      <trkpt lat="59.9652486" lon="17.7119698">
        <ele>24.1703</ele>
        <time>2012-09-30T09:06:34Z</time>
      </trkpt>
      <trkpt lat="59.9652741" lon="17.7119863">
        <ele>24.1703</ele>
        <time>2012-09-30T09:06:35Z</time>
      </trkpt>
      <trkpt lat="59.965298" lon="17.7119988">
        <ele>23.6896</ele>
        <time>2012-09-30T09:06:36Z</time>
      </trkpt>
      <trkpt lat="59.9653217" lon="17.7120133">
        <ele>23.6896</ele>
        <time>2012-09-30T09:06:37Z</time>
      </trkpt>
      <trkpt lat="59.9653454" lon="17.712028">
        <ele>23.6896</ele>
        <time>2012-09-30T09:06:38Z</time>
      </trkpt>
      <trkpt lat="59.9653681" lon="17.7120436">
        <ele>23.6896</ele>
        <time>2012-09-30T09:06:39Z</time>
      </trkpt>
      <trkpt lat="59.965392" lon="17.7120645">
        <ele>23.209</ele>
        <time>2012-09-30T09:06:40Z</time>
      </trkpt>
      <trkpt lat="59.9654185" lon="17.7120888">
        <ele>23.209</ele>
        <time>2012-09-30T09:06:41Z</time>
      </trkpt>
      <trkpt lat="59.9654446" lon="17.7121063">
        <ele>23.209</ele>
        <time>2012-09-30T09:06:42Z</time>
      </trkpt>
      <trkpt lat="59.9654669" lon="17.7121231">
        <ele>23.209</ele>
        <time>2012-09-30T09:06:43Z</time>
      </trkpt>
      <trkpt lat="59.9654901" lon="17.7121443">
        <ele>23.6896</ele>
        <time>2012-09-30T09:06:44Z</time>
      </trkpt>
      <trkpt lat="59.9655128" lon="17.7121649">
        <ele>24.1703</ele>
        <time>2012-09-30T09:06:45Z</time>
      </trkpt>
      <trkpt lat="59.9655331" lon="17.7121873">
        <ele>24.1703</ele>
        <time>2012-09-30T09:06:46Z</time>
      </trkpt>
      <trkpt lat="59.9655547" lon="17.712209">
        <ele>24.1703</ele>
        <time>2012-09-30T09:06:47Z</time>
      </trkpt>
      <trkpt lat="59.9655738" lon="17.7122267">
        <ele>23.6896</ele>
        <time>2012-09-30T09:06:48Z</time>
      </trkpt>
      <trkpt lat="59.965594" lon="17.7122478">
        <ele>23.6896</ele>
        <time>2012-09-30T09:06:49Z</time>
      </trkpt>
      <trkpt lat="59.9656145" lon="17.7122671">
        <ele>23.6896</ele>
        <time>2012-09-30T09:06:50Z</time>
      </trkpt>
      <trkpt lat="59.9656332" lon="17.7122852">
        <ele>23.209</ele>
        <time>2012-09-30T09:06:51Z</time>
      </trkpt>
      <trkpt lat="59.9656528" lon="17.7123069">
        <ele>24.1703</ele>
        <time>2012-09-30T09:06:52Z</time>
      </trkpt>
      <trkpt lat="59.9656724" lon="17.7123235">
        <ele>23.6896</ele>
        <time>2012-09-30T09:06:53Z</time>
      </trkpt>
      <trkpt lat="59.9656958" lon="17.7123432">
        <ele>23.6896</ele>
        <time>2012-09-30T09:06:54Z</time>
      </trkpt>
      <trkpt lat="59.9657176" lon="17.7123677">
        <ele>23.6896</ele>
        <time>2012-09-30T09:06:55Z</time>
      </trkpt>
      <trkpt lat="59.9657368" lon="17.7123898">
        <ele>23.6896</ele>
        <time>2012-09-30T09:06:56Z</time>
      </trkpt>
      <trkpt lat="59.9657603" lon="17.7124124">
        <ele>24.1703</ele>
        <time>2012-09-30T09:06:57Z</time>
      </trkpt>
      <trkpt lat="59.9657813" lon="17.7124365">
        <ele>24.1703</ele>
        <time>2012-09-30T09:06:58Z</time>
      </trkpt>
      <trkpt lat="59.9658038" lon="17.7124581">
        <ele>24.1703</ele>
        <time>2012-09-30T09:06:59Z</time>
      </trkpt>
      <trkpt lat="59.9658278" lon="17.7124766">
        <ele>24.1703</ele>
        <time>2012-09-30T09:07:00Z</time>
      </trkpt>
      <trkpt lat="59.96585" lon="17.7124995">
        <ele>24.1703</ele>
        <time>2012-09-30T09:07:01Z</time>
      </trkpt>
      <trkpt lat="59.9658739" lon="17.7125219">
        <ele>24.651</ele>
        <time>2012-09-30T09:07:02Z</time>
      </trkpt>
      <trkpt lat="59.9658939" lon="17.712541">
        <ele>24.1703</ele>
        <time>2012-09-30T09:07:03Z</time>
      </trkpt>
      <trkpt lat="59.9659133" lon="17.7125616">
        <ele>24.1703</ele>
        <time>2012-09-30T09:07:04Z</time>
      </trkpt>
      <trkpt lat="59.965934" lon="17.7125758">
        <ele>24.1703</ele>
        <time>2012-09-30T09:07:05Z</time>
      </trkpt>
      <trkpt lat="59.9659557" lon="17.7125893">
        <ele>24.1703</ele>
        <time>2012-09-30T09:07:06Z</time>
      </trkpt>
      <trkpt lat="59.9659755" lon="17.7126001">
        <ele>24.1703</ele>
        <time>2012-09-30T09:07:07Z</time>
      </trkpt>
      <trkpt lat="59.9659937" lon="17.7126032">
        <ele>23.6896</ele>
        <time>2012-09-30T09:07:08Z</time>
      </trkpt>
      <trkpt lat="59.9660127" lon="17.7126048">
        <ele>23.6896</ele>
        <time>2012-09-30T09:07:09Z</time>
      </trkpt>
      <trkpt lat="59.966033" lon="17.7126017">
        <ele>23.6896</ele>
        <time>2012-09-30T09:07:10Z</time>
      </trkpt>
      <trkpt lat="59.966053" lon="17.7125918">
        <ele>23.6896</ele>
        <time>2012-09-30T09:07:11Z</time>
      </trkpt>
      <trkpt lat="59.9660749" lon="17.7125749">
        <ele>23.6896</ele>
        <time>2012-09-30T09:07:12Z</time>
      </trkpt>
      <trkpt lat="59.9660972" lon="17.7125538">
        <ele>24.1703</ele>
        <time>2012-09-30T09:07:13Z</time>
      </trkpt>
      <trkpt lat="59.966117" lon="17.7125312">
        <ele>24.1703</ele>
        <time>2012-09-30T09:07:14Z</time>
      </trkpt>
      <trkpt lat="59.9661366" lon="17.7125059">
        <ele>24.651</ele>
        <time>2012-09-30T09:07:15Z</time>
      </trkpt>
      <trkpt lat="59.9661545" lon="17.7124748">
        <ele>24.651</ele>
        <time>2012-09-30T09:07:16Z</time>
      </trkpt>
      <trkpt lat="59.9661735" lon="17.7124405">
        <ele>24.651</ele>
        <time>2012-09-30T09:07:17Z</time>
      </trkpt>
      <trkpt lat="59.966192" lon="17.7124063">
        <ele>25.1317</ele>
        <time>2012-09-30T09:07:18Z</time>
      </trkpt>
      <trkpt lat="59.9662101" lon="17.7123689">
        <ele>25.1317</ele>
        <time>2012-09-30T09:07:19Z</time>
      </trkpt>
      <trkpt lat="59.9662284" lon="17.7123331">
        <ele>24.651</ele>
        <time>2012-09-30T09:07:20Z</time>
      </trkpt>
      <trkpt lat="59.9662493" lon="17.7123054">
        <ele>24.651</ele>
        <time>2012-09-30T09:07:21Z</time>
      </trkpt>
      <trkpt lat="59.966269" lon="17.7122793">
        <ele>25.1317</ele>
        <time>2012-09-30T09:07:22Z</time>
      </trkpt>
      <trkpt lat="59.9662879" lon="17.712249">
        <ele>25.1317</ele>
        <time>2012-09-30T09:07:23Z</time>
      </trkpt>
      <trkpt lat="59.9663071" lon="17.7122172">
        <ele>25.1317</ele>
        <time>2012-09-30T09:07:24Z</time>
      </trkpt>
      <trkpt lat="59.9663241" lon="17.712183">
        <ele>25.1317</ele>
        <time>2012-09-30T09:07:25Z</time>
      </trkpt>
      <trkpt lat="59.9663422" lon="17.7121477">
        <ele>25.1317</ele>
        <time>2012-09-30T09:07:26Z</time>
      </trkpt>
      <trkpt lat="59.9663624" lon="17.7121197">
        <ele>25.1317</ele>
        <time>2012-09-30T09:07:27Z</time>
      </trkpt>
      <trkpt lat="59.9663846" lon="17.7120938">
        <ele>25.6123</ele>
        <time>2012-09-30T09:07:28Z</time>
      </trkpt>
      <trkpt lat="59.9664044" lon="17.712065">
        <ele>25.6123</ele>
        <time>2012-09-30T09:07:29Z</time>
      </trkpt>
      <trkpt lat="59.9664239" lon="17.7120361">
        <ele>25.6123</ele>
        <time>2012-09-30T09:07:30Z</time>
      </trkpt>
      <trkpt lat="59.966443" lon="17.7119978">
        <ele>25.6123</ele>
        <time>2012-09-30T09:07:31Z</time>
      </trkpt>
      <trkpt lat="59.9664634" lon="17.7119644">
        <ele>26.0929</ele>
        <time>2012-09-30T09:07:32Z</time>
      </trkpt>
      <trkpt lat="59.9664822" lon="17.7119402">
        <ele>25.6123</ele>
        <time>2012-09-30T09:07:33Z</time>
      </trkpt>
      <trkpt lat="59.9665047" lon="17.7119126">
        <ele>26.0929</ele>
        <time>2012-09-30T09:07:34Z</time>
      </trkpt>
      <trkpt lat="59.9665293" lon="17.7118882">
        <ele>26.5736</ele>
        <time>2012-09-30T09:07:35Z</time>
      </trkpt>
      <trkpt lat="59.9665545" lon="17.711865">
        <ele>26.5736</ele>
        <time>2012-09-30T09:07:36Z</time>
      </trkpt>
      <trkpt lat="59.9665741" lon="17.711836">
        <ele>27.0543</ele>
        <time>2012-09-30T09:07:37Z</time>
      </trkpt>
      <trkpt lat="59.9665898" lon="17.7117998">
        <ele>26.5736</ele>
        <time>2012-09-30T09:07:38Z</time>
      </trkpt>
      <trkpt lat="59.9666073" lon="17.7117677">
        <ele>27.0543</ele>
        <time>2012-09-30T09:07:39Z</time>
      </trkpt>
      <trkpt lat="59.9666254" lon="17.7117427">
        <ele>26.5736</ele>
        <time>2012-09-30T09:07:40Z</time>
      </trkpt>
      <trkpt lat="59.9666467" lon="17.7117201">
        <ele>26.5736</ele>
        <time>2012-09-30T09:07:41Z</time>
      </trkpt>
      <trkpt lat="59.9666732" lon="17.7117066">
        <ele>26.5736</ele>
        <time>2012-09-30T09:07:42Z</time>
      </trkpt>
      <trkpt lat="59.9667005" lon="17.7117112">
        <ele>26.5736</ele>
        <time>2012-09-30T09:07:43Z</time>
      </trkpt>
      <trkpt lat="59.9667229" lon="17.711732">
        <ele>26.5736</ele>
        <time>2012-09-30T09:07:44Z</time>
      </trkpt>
      <trkpt lat="59.9667436" lon="17.7117536">
        <ele>27.0543</ele>
        <time>2012-09-30T09:07:45Z</time>
      </trkpt>
      <trkpt lat="59.9667611" lon="17.7117835">
        <ele>27.5349</ele>
        <time>2012-09-30T09:07:46Z</time>
      </trkpt>
      <trkpt lat="59.9667768" lon="17.7118262">
        <ele>27.5349</ele>
        <time>2012-09-30T09:07:47Z</time>
      </trkpt>
      <trkpt lat="59.9667917" lon="17.7118664">
        <ele>27.5349</ele>
        <time>2012-09-30T09:07:48Z</time>
      </trkpt>
      <trkpt lat="59.9668052" lon="17.7118996">
        <ele>26.5736</ele>
        <time>2012-09-30T09:07:49Z</time>
      </trkpt>
      <trkpt lat="59.9668136" lon="17.7119344">
        <ele>27.0543</ele>
        <time>2012-09-30T09:07:50Z</time>
      </trkpt>
      <trkpt lat="59.9668235" lon="17.7119692">
        <ele>27.5349</ele>
        <time>2012-09-30T09:07:51Z</time>
      </trkpt>
      <trkpt lat="59.9668383" lon="17.7120081">
        <ele>27.5349</ele>
        <time>2012-09-30T09:07:52Z</time>
      </trkpt>
      <trkpt lat="59.9668489" lon="17.7120557">
        <ele>27.5349</ele>
        <time>2012-09-30T09:07:53Z</time>
      </trkpt>
      <trkpt lat="59.9668574" lon="17.7121034">
        <ele>27.5349</ele>
        <time>2012-09-30T09:07:54Z</time>
      </trkpt>
      <trkpt lat="59.9668695" lon="17.7121524">
        <ele>28.0155</ele>
        <time>2012-09-30T09:07:55Z</time>
      </trkpt>
      <trkpt lat="59.9668815" lon="17.7121987">
        <ele>28.0155</ele>
        <time>2012-09-30T09:07:56Z</time>
      </trkpt>
      <trkpt lat="59.9668963" lon="17.71224">
        <ele>28.0155</ele>
        <time>2012-09-30T09:07:57Z</time>
      </trkpt>
      <trkpt lat="59.9669099" lon="17.7122832">
        <ele>28.4962</ele>
        <time>2012-09-30T09:07:58Z</time>
      </trkpt>
      <trkpt lat="59.9669235" lon="17.712329">
        <ele>28.9769</ele>
        <time>2012-09-30T09:07:59Z</time>
      </trkpt>
      <trkpt lat="59.9669353" lon="17.7123784">
        <ele>28.9769</ele>
        <time>2012-09-30T09:08:00Z</time>
      </trkpt>
      <trkpt lat="59.9669476" lon="17.7124306">
        <ele>28.9769</ele>
        <time>2012-09-30T09:08:01Z</time>
      </trkpt>
      <trkpt lat="59.9669613" lon="17.7124803">
        <ele>29.4575</ele>
        <time>2012-09-30T09:08:02Z</time>
      </trkpt>
      <trkpt lat="59.9669763" lon="17.7125224">
        <ele>29.4575</ele>
        <time>2012-09-30T09:08:03Z</time>
      </trkpt>
      <trkpt lat="59.9669893" lon="17.7125612">
        <ele>29.4575</ele>
        <time>2012-09-30T09:08:04Z</time>
      </trkpt>
      <trkpt lat="59.9670025" lon="17.7126018">
        <ele>29.9381</ele>
        <time>2012-09-30T09:08:05Z</time>
      </trkpt>
      <trkpt lat="59.9670191" lon="17.7126476">
        <ele>30.4188</ele>
        <time>2012-09-30T09:08:06Z</time>
      </trkpt>
      <trkpt lat="59.9670305" lon="17.7126939">
        <ele>30.4188</ele>
        <time>2012-09-30T09:08:07Z</time>
      </trkpt>
      <trkpt lat="59.9670404" lon="17.7127333">
        <ele>30.4188</ele>
        <time>2012-09-30T09:08:08Z</time>
      </trkpt>
      <trkpt lat="59.9670512" lon="17.7127736">
        <ele>30.4188</ele>
        <time>2012-09-30T09:08:09Z</time>
      </trkpt>
      <trkpt lat="59.9670617" lon="17.7128186">
        <ele>30.8995</ele>
        <time>2012-09-30T09:08:10Z</time>
      </trkpt>
      <trkpt lat="59.9670721" lon="17.7128571">
        <ele>30.8995</ele>
        <time>2012-09-30T09:08:11Z</time>
      </trkpt>
      <trkpt lat="59.9670835" lon="17.7128969">
        <ele>31.3801</ele>
        <time>2012-09-30T09:08:12Z</time>
      </trkpt>
      <trkpt lat="59.9670903" lon="17.7129467">
        <ele>31.3801</ele>
        <time>2012-09-30T09:08:13Z</time>
      </trkpt>
      <trkpt lat="59.9670943" lon="17.7129948">
        <ele>31.3801</ele>
        <time>2012-09-30T09:08:14Z</time>
      </trkpt>
      <trkpt lat="59.9671014" lon="17.7130367">
        <ele>31.3801</ele>
        <time>2012-09-30T09:08:15Z</time>
      </trkpt>
      <trkpt lat="59.9671129" lon="17.7130753">
        <ele>31.3801</ele>
        <time>2012-09-30T09:08:16Z</time>
      </trkpt>
      <trkpt lat="59.9671255" lon="17.7131093">
        <ele>30.8995</ele>
        <time>2012-09-30T09:08:17Z</time>
      </trkpt>
      <trkpt lat="59.9671379" lon="17.7131548">
        <ele>31.3801</ele>
        <time>2012-09-30T09:08:18Z</time>
      </trkpt>
      <trkpt lat="59.9671535" lon="17.7131947">
        <ele>31.3801</ele>
        <time>2012-09-30T09:08:19Z</time>
      </trkpt>
      <trkpt lat="59.967171" lon="17.7132306">
        <ele>31.3801</ele>
        <time>2012-09-30T09:08:20Z</time>
      </trkpt>
      <trkpt lat="59.9671804" lon="17.7132695">
        <ele>31.3801</ele>
        <time>2012-09-30T09:08:21Z</time>
      </trkpt>
      <trkpt lat="59.9671877" lon="17.7133114">
        <ele>30.8995</ele>
        <time>2012-09-30T09:08:22Z</time>
      </trkpt>
      <trkpt lat="59.9671974" lon="17.7133559">
        <ele>30.8995</ele>
        <time>2012-09-30T09:08:23Z</time>
      </trkpt>
      <trkpt lat="59.9672095" lon="17.7133968">
        <ele>30.8995</ele>
        <time>2012-09-30T09:08:24Z</time>
      </trkpt>
      <trkpt lat="59.9672195" lon="17.7134386">
        <ele>30.4188</ele>
        <time>2012-09-30T09:08:25Z</time>
      </trkpt>
      <trkpt lat="59.9672245" lon="17.713487">
        <ele>29.9381</ele>
        <time>2012-09-30T09:08:26Z</time>
      </trkpt>
      <trkpt lat="59.9672271" lon="17.7135306">
        <ele>29.4575</ele>
        <time>2012-09-30T09:08:27Z</time>
      </trkpt>
      <trkpt lat="59.9672367" lon="17.713565">
        <ele>29.4575</ele>
        <time>2012-09-30T09:08:28Z</time>
      </trkpt>
      <trkpt lat="59.9672445" lon="17.7135995">
        <ele>28.9769</ele>
        <time>2012-09-30T09:08:29Z</time>
      </trkpt>
      <trkpt lat="59.9672511" lon="17.7136362">
        <ele>28.4962</ele>
        <time>2012-09-30T09:08:30Z</time>
      </trkpt>
      <trkpt lat="59.9672571" lon="17.7136764">
        <ele>28.0155</ele>
        <time>2012-09-30T09:08:31Z</time>
      </trkpt>
      <trkpt lat="59.9672596" lon="17.7137233">
        <ele>27.5349</ele>
        <time>2012-09-30T09:08:32Z</time>
      </trkpt>
      <trkpt lat="59.96726" lon="17.7137693">
        <ele>27.0543</ele>
        <time>2012-09-30T09:08:33Z</time>
      </trkpt>
      <trkpt lat="59.9672638" lon="17.7138139">
        <ele>27.5349</ele>
        <time>2012-09-30T09:08:34Z</time>
      </trkpt>
      <trkpt lat="59.9672704" lon="17.7138562">
        <ele>27.5349</ele>
        <time>2012-09-30T09:08:35Z</time>
      </trkpt>
      <trkpt lat="59.9672763" lon="17.7138971">
        <ele>27.5349</ele>
        <time>2012-09-30T09:08:36Z</time>
      </trkpt>
      <trkpt lat="59.9672793" lon="17.7139398">
        <ele>27.0543</ele>
        <time>2012-09-30T09:08:37Z</time>
      </trkpt>
      <trkpt lat="59.9672849" lon="17.7139895">
        <ele>26.5736</ele>
        <time>2012-09-30T09:08:38Z</time>
      </trkpt>
      <trkpt lat="59.9672918" lon="17.7140349">
        <ele>26.5736</ele>
        <time>2012-09-30T09:08:39Z</time>
      </trkpt>
      <trkpt lat="59.9673016" lon="17.7140758">
        <ele>26.5736</ele>
        <time>2012-09-30T09:08:40Z</time>
      </trkpt>
      <trkpt lat="59.9673073" lon="17.7141226">
        <ele>26.0929</ele>
        <time>2012-09-30T09:08:41Z</time>
      </trkpt>
      <trkpt lat="59.9673112" lon="17.7141702">
        <ele>26.0929</ele>
        <time>2012-09-30T09:08:42Z</time>
      </trkpt>
      <trkpt lat="59.9673164" lon="17.714217">
        <ele>26.0929</ele>
        <time>2012-09-30T09:08:43Z</time>
      </trkpt>
      <trkpt lat="59.9673242" lon="17.714256">
        <ele>26.0929</ele>
        <time>2012-09-30T09:08:44Z</time>
      </trkpt>
      <trkpt lat="59.9673317" lon="17.714297">
        <ele>26.0929</ele>
        <time>2012-09-30T09:08:45Z</time>
      </trkpt>
      <trkpt lat="59.9673379" lon="17.7143436">
        <ele>25.6123</ele>
        <time>2012-09-30T09:08:46Z</time>
      </trkpt>
      <trkpt lat="59.9673461" lon="17.7143888">
        <ele>25.6123</ele>
        <time>2012-09-30T09:08:47Z</time>
      </trkpt>
      <trkpt lat="59.9673508" lon="17.7144448">
        <ele>26.0929</ele>
        <time>2012-09-30T09:08:48Z</time>
      </trkpt>
      <trkpt lat="59.9673527" lon="17.7145038">
        <ele>26.0929</ele>
        <time>2012-09-30T09:08:49Z</time>
      </trkpt>
      <trkpt lat="59.9673565" lon="17.714555">
        <ele>26.0929</ele>
        <time>2012-09-30T09:08:50Z</time>
      </trkpt>
      <trkpt lat="59.9673668" lon="17.7145985">
        <ele>26.5736</ele>
        <time>2012-09-30T09:08:51Z</time>
      </trkpt>
      <trkpt lat="59.9673767" lon="17.7146407">
        <ele>26.0929</ele>
        <time>2012-09-30T09:08:52Z</time>
      </trkpt>
      <trkpt lat="59.9673833" lon="17.7146888">
        <ele>26.5736</ele>
        <time>2012-09-30T09:08:53Z</time>
      </trkpt>
      <trkpt lat="59.967388" lon="17.7147404">
        <ele>26.5736</ele>
        <time>2012-09-30T09:08:54Z</time>
      </trkpt>
      <trkpt lat="59.9673903" lon="17.7147929">
        <ele>27.0543</ele>
        <time>2012-09-30T09:08:55Z</time>
      </trkpt>
      <trkpt lat="59.9673912" lon="17.7148445">
        <ele>27.0543</ele>
        <time>2012-09-30T09:08:56Z</time>
      </trkpt>
      <trkpt lat="59.9673943" lon="17.7148948">
        <ele>27.0543</ele>
        <time>2012-09-30T09:08:57Z</time>
      </trkpt>
      <trkpt lat="59.9674019" lon="17.7149441">
        <ele>27.0543</ele>
        <time>2012-09-30T09:08:58Z</time>
      </trkpt>
      <trkpt lat="59.9674092" lon="17.7149871">
        <ele>27.0543</ele>
        <time>2012-09-30T09:08:59Z</time>
      </trkpt>
      <trkpt lat="59.9674155" lon="17.7150294">
        <ele>27.5349</ele>
        <time>2012-09-30T09:09:00Z</time>
      </trkpt>
      <trkpt lat="59.9674227" lon="17.7150726">
        <ele>27.0543</ele>
        <time>2012-09-30T09:09:01Z</time>
      </trkpt>
      <trkpt lat="59.9674265" lon="17.7151081">
        <ele>26.0929</ele>
        <time>2012-09-30T09:09:02Z</time>
      </trkpt>
      <trkpt lat="59.9674263" lon="17.7151425">
        <ele>24.1703</ele>
        <time>2012-09-30T09:09:03Z</time>
      </trkpt>
      <trkpt lat="59.9674268" lon="17.7151789">
        <ele>23.209</ele>
        <time>2012-09-30T09:09:04Z</time>
      </trkpt>
      <trkpt lat="59.967418" lon="17.7152226">
        <ele>20.325</ele>
        <time>2012-09-30T09:09:05Z</time>
      </trkpt>
      <trkpt lat="59.967414" lon="17.7152715">
        <ele>18.8831</ele>
        <time>2012-09-30T09:09:06Z</time>
      </trkpt>
      <trkpt lat="59.9674337" lon="17.7153083">
        <ele>21.767</ele>
        <time>2012-09-30T09:09:07Z</time>
      </trkpt>
      <trkpt lat="59.9674506" lon="17.7153306">
        <ele>23.209</ele>
        <time>2012-09-30T09:09:08Z</time>
      </trkpt>
      <trkpt lat="59.967463" lon="17.7153796">
        <ele>24.651</ele>
        <time>2012-09-30T09:09:09Z</time>
      </trkpt>
      <trkpt lat="59.9674715" lon="17.7154247">
        <ele>25.1317</ele>
        <time>2012-09-30T09:09:10Z</time>
      </trkpt>
      <trkpt lat="59.9674756" lon="17.7154764">
        <ele>25.1317</ele>
        <time>2012-09-30T09:09:11Z</time>
      </trkpt>
      <trkpt lat="59.9674829" lon="17.7155286">
        <ele>26.0929</ele>
        <time>2012-09-30T09:09:12Z</time>
      </trkpt>
      <trkpt lat="59.967498" lon="17.7155751">
        <ele>27.0543</ele>
        <time>2012-09-30T09:09:13Z</time>
      </trkpt>
      <trkpt lat="59.9675098" lon="17.7156284">
        <ele>27.0543</ele>
        <time>2012-09-30T09:09:14Z</time>
      </trkpt>
      <trkpt lat="59.9675191" lon="17.7156806">
        <ele>27.5349</ele>
        <time>2012-09-30T09:09:15Z</time>
      </trkpt>
      <trkpt lat="59.9675248" lon="17.7157295">
        <ele>27.5349</ele>
        <time>2012-09-30T09:09:16Z</time>
      </trkpt>
      <trkpt lat="59.9675309" lon="17.715775">
        <ele>27.0543</ele>
        <time>2012-09-30T09:09:17Z</time>
      </trkpt>
      <trkpt lat="59.9675404" lon="17.7158247">
        <ele>27.0543</ele>
        <time>2012-09-30T09:09:18Z</time>
      </trkpt>
      <trkpt lat="59.9675514" lon="17.7158787">
        <ele>27.5349</ele>
        <time>2012-09-30T09:09:19Z</time>
      </trkpt>
      <trkpt lat="59.9675663" lon="17.7159307">
        <ele>28.0155</ele>
        <time>2012-09-30T09:09:20Z</time>
      </trkpt>
      <trkpt lat="59.9675798" lon="17.7159759">
        <ele>28.0155</ele>
        <time>2012-09-30T09:09:21Z</time>
      </trkpt>
      <trkpt lat="59.9675907" lon="17.7160142">
        <ele>28.0155</ele>
        <time>2012-09-30T09:09:22Z</time>
      </trkpt>
      <trkpt lat="59.9676023" lon="17.7160542">
        <ele>28.0155</ele>
        <time>2012-09-30T09:09:23Z</time>
      </trkpt>
      <trkpt lat="59.9676133" lon="17.7160956">
        <ele>27.5349</ele>
        <time>2012-09-30T09:09:24Z</time>
      </trkpt>
      <trkpt lat="59.9676249" lon="17.7161334">
        <ele>28.0155</ele>
        <time>2012-09-30T09:09:25Z</time>
      </trkpt>
      <trkpt lat="59.9676321" lon="17.716169">
        <ele>27.0543</ele>
        <time>2012-09-30T09:09:26Z</time>
      </trkpt>
      <trkpt lat="59.9676409" lon="17.7162063">
        <ele>27.0543</ele>
        <time>2012-09-30T09:09:27Z</time>
      </trkpt>
      <trkpt lat="59.9676497" lon="17.7162427">
        <ele>26.5736</ele>
        <time>2012-09-30T09:09:28Z</time>
      </trkpt>
      <trkpt lat="59.9676646" lon="17.7162816">
        <ele>27.0543</ele>
        <time>2012-09-30T09:09:29Z</time>
      </trkpt>
      <trkpt lat="59.9676785" lon="17.7163192">
        <ele>27.0543</ele>
        <time>2012-09-30T09:09:30Z</time>
      </trkpt>
      <trkpt lat="59.9676999" lon="17.7163568">
        <ele>28.4962</ele>
        <time>2012-09-30T09:09:31Z</time>
      </trkpt>
      <trkpt lat="59.967714" lon="17.7163961">
        <ele>28.9769</ele>
        <time>2012-09-30T09:09:32Z</time>
      </trkpt>
      <trkpt lat="59.9677314" lon="17.7164355">
        <ele>29.4575</ele>
        <time>2012-09-30T09:09:33Z</time>
      </trkpt>
      <trkpt lat="59.9677476" lon="17.7164695">
        <ele>29.4575</ele>
        <time>2012-09-30T09:09:34Z</time>
      </trkpt>
      <trkpt lat="59.9677661" lon="17.7165023">
        <ele>30.4188</ele>
        <time>2012-09-30T09:09:35Z</time>
      </trkpt>
      <trkpt lat="59.9677868" lon="17.7165342">
        <ele>30.8995</ele>
        <time>2012-09-30T09:09:36Z</time>
      </trkpt>
      <trkpt lat="59.9678051" lon="17.7165689">
        <ele>31.3801</ele>
        <time>2012-09-30T09:09:37Z</time>
      </trkpt>
      <trkpt lat="59.9678202" lon="17.7165993">
        <ele>31.3801</ele>
        <time>2012-09-30T09:09:38Z</time>
      </trkpt>
      <trkpt lat="59.9678393" lon="17.7166293">
        <ele>31.8607</ele>
        <time>2012-09-30T09:09:39Z</time>
      </trkpt>
      <trkpt lat="59.9678533" lon="17.7166606">
        <ele>31.3801</ele>
        <time>2012-09-30T09:09:40Z</time>
      </trkpt>
      <trkpt lat="59.9678676" lon="17.7166889">
        <ele>31.3801</ele>
        <time>2012-09-30T09:09:41Z</time>
      </trkpt>
      <trkpt lat="59.9678843" lon="17.7167181">
        <ele>31.8607</ele>
        <time>2012-09-30T09:09:42Z</time>
      </trkpt>
      <trkpt lat="59.9679017" lon="17.7167435">
        <ele>31.8607</ele>
        <time>2012-09-30T09:09:43Z</time>
      </trkpt>
      <trkpt lat="59.967918" lon="17.7167678">
        <ele>31.8607</ele>
        <time>2012-09-30T09:09:44Z</time>
      </trkpt>
      <trkpt lat="59.9679361" lon="17.7167961">
        <ele>31.8607</ele>
        <time>2012-09-30T09:09:45Z</time>
      </trkpt>
      <trkpt lat="59.9679554" lon="17.7168229">
        <ele>32.3416</ele>
        <time>2012-09-30T09:09:46Z</time>
      </trkpt>
      <trkpt lat="59.9679707" lon="17.7168447">
        <ele>32.3416</ele>
        <time>2012-09-30T09:09:47Z</time>
      </trkpt>
      <trkpt lat="59.9679843" lon="17.716868">
        <ele>31.8607</ele>
        <time>2012-09-30T09:09:48Z</time>
      </trkpt>
      <trkpt lat="59.9679993" lon="17.7168922">
        <ele>31.3801</ele>
        <time>2012-09-30T09:09:49Z</time>
      </trkpt>
      <trkpt lat="59.9680157" lon="17.7169156">
        <ele>30.8995</ele>
        <time>2012-09-30T09:09:50Z</time>
      </trkpt>
      <trkpt lat="59.9680328" lon="17.7169369">
        <ele>30.4188</ele>
        <time>2012-09-30T09:09:51Z</time>
      </trkpt>
      <trkpt lat="59.9680506" lon="17.7169607">
        <ele>30.4188</ele>
        <time>2012-09-30T09:09:52Z</time>
      </trkpt>
      <trkpt lat="59.9680671" lon="17.7169802">
        <ele>29.9381</ele>
        <time>2012-09-30T09:09:53Z</time>
      </trkpt>
      <trkpt lat="59.9680868" lon="17.7169994">
        <ele>30.4188</ele>
        <time>2012-09-30T09:09:54Z</time>
      </trkpt>
      <trkpt lat="59.9681049" lon="17.7170203">
        <ele>29.9381</ele>
        <time>2012-09-30T09:09:55Z</time>
      </trkpt>
      <trkpt lat="59.9681216" lon="17.7170395">
        <ele>29.9381</ele>
        <time>2012-09-30T09:09:56Z</time>
      </trkpt>
      <trkpt lat="59.968139" lon="17.7170548">
        <ele>29.4575</ele>
        <time>2012-09-30T09:09:57Z</time>
      </trkpt>
      <trkpt lat="59.9681559" lon="17.7170733">
        <ele>29.4575</ele>
        <time>2012-09-30T09:09:58Z</time>
      </trkpt>
      <trkpt lat="59.9681718" lon="17.7170927">
        <ele>29.4575</ele>
        <time>2012-09-30T09:09:59Z</time>
      </trkpt>
      <trkpt lat="59.9681898" lon="17.7171063">
        <ele>28.9769</ele>
        <time>2012-09-30T09:10:00Z</time>
      </trkpt>
      <trkpt lat="59.968208" lon="17.7171228">
        <ele>28.4962</ele>
        <time>2012-09-30T09:10:01Z</time>
      </trkpt>
      <trkpt lat="59.9682255" lon="17.717142">
        <ele>28.4962</ele>
        <time>2012-09-30T09:10:02Z</time>
      </trkpt>
      <trkpt lat="59.9682419" lon="17.7171576">
        <ele>28.4962</ele>
        <time>2012-09-30T09:10:03Z</time>
      </trkpt>
      <trkpt lat="59.9682625" lon="17.7171734">
        <ele>28.0155</ele>
        <time>2012-09-30T09:10:04Z</time>
      </trkpt>
      <trkpt lat="59.9682846" lon="17.7171856">
        <ele>27.5349</ele>
        <time>2012-09-30T09:10:05Z</time>
      </trkpt>
      <trkpt lat="59.9683042" lon="17.7171933">
        <ele>27.5349</ele>
        <time>2012-09-30T09:10:06Z</time>
      </trkpt>
      <trkpt lat="59.9683245" lon="17.7172027">
        <ele>27.0543</ele>
        <time>2012-09-30T09:10:07Z</time>
      </trkpt>
      <trkpt lat="59.9683432" lon="17.7172162">
        <ele>26.5736</ele>
        <time>2012-09-30T09:10:08Z</time>
      </trkpt>
      <trkpt lat="59.9683613" lon="17.7172276">
        <ele>25.6123</ele>
        <time>2012-09-30T09:10:09Z</time>
      </trkpt>
      <trkpt lat="59.9683819" lon="17.7172354">
        <ele>25.6123</ele>
        <time>2012-09-30T09:10:10Z</time>
      </trkpt>
      <trkpt lat="59.9684023" lon="17.7172524">
        <ele>25.6123</ele>
        <time>2012-09-30T09:10:11Z</time>
      </trkpt>
      <trkpt lat="59.9684184" lon="17.7172701">
        <ele>24.651</ele>
        <time>2012-09-30T09:10:12Z</time>
      </trkpt>
      <trkpt lat="59.9684385" lon="17.717282">
        <ele>24.1703</ele>
        <time>2012-09-30T09:10:13Z</time>
      </trkpt>
      <trkpt lat="59.9684593" lon="17.7172915">
        <ele>24.1703</ele>
        <time>2012-09-30T09:10:14Z</time>
      </trkpt>
      <trkpt lat="59.9684788" lon="17.7173057">
        <ele>23.6896</ele>
        <time>2012-09-30T09:10:15Z</time>
      </trkpt>
      <trkpt lat="59.9684982" lon="17.7173166">
        <ele>23.209</ele>
        <time>2012-09-30T09:10:16Z</time>
      </trkpt>
      <trkpt lat="59.9685199" lon="17.717329">
        <ele>23.209</ele>
        <time>2012-09-30T09:10:17Z</time>
      </trkpt>
      <trkpt lat="59.9685371" lon="17.7173403">
        <ele>22.7283</ele>
        <time>2012-09-30T09:10:18Z</time>
      </trkpt>
      <trkpt lat="59.968556" lon="17.7173497">
        <ele>22.7283</ele>
        <time>2012-09-30T09:10:19Z</time>
      </trkpt>
      <trkpt lat="59.9685775" lon="17.717361">
        <ele>22.7283</ele>
        <time>2012-09-30T09:10:20Z</time>
      </trkpt>
      <trkpt lat="59.9685951" lon="17.7173751">
        <ele>21.767</ele>
        <time>2012-09-30T09:10:21Z</time>
      </trkpt>
      <trkpt lat="59.9686121" lon="17.7173855">
        <ele>20.8057</ele>
        <time>2012-09-30T09:10:22Z</time>
      </trkpt>
      <trkpt lat="59.9686327" lon="17.7173959">
        <ele>20.325</ele>
        <time>2012-09-30T09:10:23Z</time>
      </trkpt>
      <trkpt lat="59.968653" lon="17.7174088">
        <ele>20.8057</ele>
        <time>2012-09-30T09:10:24Z</time>
      </trkpt>
      <trkpt lat="59.9686707" lon="17.7174185">
        <ele>20.325</ele>
        <time>2012-09-30T09:10:25Z</time>
      </trkpt>
      <trkpt lat="59.9686897" lon="17.7174294">
        <ele>19.3638</ele>
        <time>2012-09-30T09:10:26Z</time>
      </trkpt>
      <trkpt lat="59.968708" lon="17.7174419">
        <ele>18.8831</ele>
        <time>2012-09-30T09:10:27Z</time>
      </trkpt>
      <trkpt lat="59.9687231" lon="17.7174483">
        <ele>18.4023</ele>
        <time>2012-09-30T09:10:28Z</time>
      </trkpt>
      <trkpt lat="59.9687463" lon="17.7174481">
        <ele>18.4023</ele>
        <time>2012-09-30T09:10:29Z</time>
      </trkpt>
      <trkpt lat="59.9687694" lon="17.7174498">
        <ele>18.4023</ele>
        <time>2012-09-30T09:10:30Z</time>
      </trkpt>
      <trkpt lat="59.9687902" lon="17.7174459">
        <ele>18.4023</ele>
        <time>2012-09-30T09:10:31Z</time>
      </trkpt>
      <trkpt lat="59.9688093" lon="17.7174347">
        <ele>18.8831</ele>
        <time>2012-09-30T09:10:32Z</time>
      </trkpt>
      <trkpt lat="59.9688297" lon="17.7174185">
        <ele>19.3638</ele>
        <time>2012-09-30T09:10:33Z</time>
      </trkpt>
      <trkpt lat="59.9688494" lon="17.7174005">
        <ele>19.8444</ele>
        <time>2012-09-30T09:10:34Z</time>
      </trkpt>
      <trkpt lat="59.9688714" lon="17.717384">
        <ele>20.8057</ele>
        <time>2012-09-30T09:10:35Z</time>
      </trkpt>
      <trkpt lat="59.9688961" lon="17.7173762">
        <ele>21.2864</ele>
        <time>2012-09-30T09:10:36Z</time>
      </trkpt>
      <trkpt lat="59.9689205" lon="17.7173715">
        <ele>21.767</ele>
        <time>2012-09-30T09:10:37Z</time>
      </trkpt>
      <trkpt lat="59.9689451" lon="17.7173657">
        <ele>23.209</ele>
        <time>2012-09-30T09:10:38Z</time>
      </trkpt>
      <trkpt lat="59.9689657" lon="17.717363">
        <ele>23.209</ele>
        <time>2012-09-30T09:10:39Z</time>
      </trkpt>
      <trkpt lat="59.9689888" lon="17.7173548">
        <ele>23.6896</ele>
        <time>2012-09-30T09:10:40Z</time>
      </trkpt>
      <trkpt lat="59.9690115" lon="17.7173452">
        <ele>24.1703</ele>
        <time>2012-09-30T09:10:41Z</time>
      </trkpt>
      <trkpt lat="59.9690416" lon="17.7173332">
        <ele>24.651</ele>
        <time>2012-09-30T09:10:42Z</time>
      </trkpt>
      <trkpt lat="59.9690743" lon="17.7173202">
        <ele>25.6123</ele>
        <time>2012-09-30T09:10:43Z</time>
      </trkpt>
      <trkpt lat="59.9691054" lon="17.717309">
        <ele>26.5736</ele>
        <time>2012-09-30T09:10:44Z</time>
      </trkpt>
      <trkpt lat="59.9691374" lon="17.7173">
        <ele>27.5349</ele>
        <time>2012-09-30T09:10:45Z</time>
      </trkpt>
      <trkpt lat="59.9691679" lon="17.7173051">
        <ele>28.4962</ele>
        <time>2012-09-30T09:10:46Z</time>
      </trkpt>
      <trkpt lat="59.969201" lon="17.7173175">
        <ele>29.4575</ele>
        <time>2012-09-30T09:10:47Z</time>
      </trkpt>
      <trkpt lat="59.9692306" lon="17.7173226">
        <ele>30.8995</ele>
        <time>2012-09-30T09:10:48Z</time>
      </trkpt>
      <trkpt lat="59.9692587" lon="17.7173233">
        <ele>31.3801</ele>
        <time>2012-09-30T09:10:49Z</time>
      </trkpt>
      <trkpt lat="59.9692897" lon="17.7173358">
        <ele>31.8607</ele>
        <time>2012-09-30T09:10:50Z</time>
      </trkpt>
      <trkpt lat="59.9693146" lon="17.7173529">
        <ele>32.8223</ele>
        <time>2012-09-30T09:10:51Z</time>
      </trkpt>
      <trkpt lat="59.9693364" lon="17.7173698">
        <ele>32.8223</ele>
        <time>2012-09-30T09:10:52Z</time>
      </trkpt>
      <trkpt lat="59.9693637" lon="17.7173741">
        <ele>33.3029</ele>
        <time>2012-09-30T09:10:53Z</time>
      </trkpt>
      <trkpt lat="59.969398" lon="17.7173753">
        <ele>33.7834</ele>
        <time>2012-09-30T09:10:54Z</time>
      </trkpt>
      <trkpt lat="59.969431" lon="17.7173891">
        <ele>34.7449</ele>
        <time>2012-09-30T09:10:55Z</time>
      </trkpt>
      <trkpt lat="59.9694559" lon="17.7174067">
        <ele>35.2255</ele>
        <time>2012-09-30T09:10:56Z</time>
      </trkpt>
      <trkpt lat="59.9694841" lon="17.7174216">
        <ele>35.7061</ele>
        <time>2012-09-30T09:10:57Z</time>
      </trkpt>
      <trkpt lat="59.9695118" lon="17.7174326">
        <ele>35.7061</ele>
        <time>2012-09-30T09:10:58Z</time>
      </trkpt>
      <trkpt lat="59.9695388" lon="17.7174471">
        <ele>36.1868</ele>
        <time>2012-09-30T09:10:59Z</time>
      </trkpt>
      <trkpt lat="59.9695636" lon="17.7174678">
        <ele>36.1868</ele>
        <time>2012-09-30T09:11:00Z</time>
      </trkpt>
      <trkpt lat="59.9695897" lon="17.7174866">
        <ele>36.6675</ele>
        <time>2012-09-30T09:11:01Z</time>
      </trkpt>
      <trkpt lat="59.9696155" lon="17.7174979">
        <ele>36.6675</ele>
        <time>2012-09-30T09:11:02Z</time>
      </trkpt>
      <trkpt lat="59.9696403" lon="17.7175135">
        <ele>36.6675</ele>
        <time>2012-09-30T09:11:03Z</time>
      </trkpt>
      <trkpt lat="59.9696654" lon="17.7175332">
        <ele>36.6675</ele>
        <time>2012-09-30T09:11:04Z</time>
      </trkpt>
      <trkpt lat="59.9696911" lon="17.7175497">
        <ele>37.1481</ele>
        <time>2012-09-30T09:11:05Z</time>
      </trkpt>
      <trkpt lat="59.9697128" lon="17.7175673">
        <ele>37.1481</ele>
        <time>2012-09-30T09:11:06Z</time>
      </trkpt>
      <trkpt lat="59.9697352" lon="17.7175892">
        <ele>36.6675</ele>
        <time>2012-09-30T09:11:07Z</time>
      </trkpt>
      <trkpt lat="59.9697573" lon="17.7176078">
        <ele>36.6675</ele>
        <time>2012-09-30T09:11:08Z</time>
      </trkpt>
      <trkpt lat="59.9697797" lon="17.7176274">
        <ele>36.6675</ele>
        <time>2012-09-30T09:11:09Z</time>
      </trkpt>
      <trkpt lat="59.9698028" lon="17.7176485">
        <ele>36.1868</ele>
        <time>2012-09-30T09:11:10Z</time>
      </trkpt>
      <trkpt lat="59.969827" lon="17.7176641">
        <ele>36.1868</ele>
        <time>2012-09-30T09:11:11Z</time>
      </trkpt>
      <trkpt lat="59.9698497" lon="17.7176751">
        <ele>35.7061</ele>
        <time>2012-09-30T09:11:12Z</time>
      </trkpt>
      <trkpt lat="59.9698756" lon="17.7176899">
        <ele>36.1868</ele>
        <time>2012-09-30T09:11:13Z</time>
      </trkpt>
      <trkpt lat="59.969899" lon="17.7177045">
        <ele>36.1868</ele>
        <time>2012-09-30T09:11:14Z</time>
      </trkpt>
      <trkpt lat="59.9699217" lon="17.7177166">
        <ele>36.1868</ele>
        <time>2012-09-30T09:11:15Z</time>
      </trkpt>
      <trkpt lat="59.9699465" lon="17.7177291">
        <ele>36.1868</ele>
        <time>2012-09-30T09:11:16Z</time>
      </trkpt>
      <trkpt lat="59.9699677" lon="17.7177469">
        <ele>36.1868</ele>
        <time>2012-09-30T09:11:17Z</time>
      </trkpt>
      <trkpt lat="59.9699921" lon="17.7177632">
        <ele>36.1868</ele>
        <time>2012-09-30T09:11:18Z</time>
      </trkpt>
      <trkpt lat="59.9700152" lon="17.7177814">
        <ele>36.1868</ele>
        <time>2012-09-30T09:11:19Z</time>
      </trkpt>
      <trkpt lat="59.9700388" lon="17.717801">
        <ele>36.6675</ele>
        <time>2012-09-30T09:11:20Z</time>
      </trkpt>
      <trkpt lat="59.9700573" lon="17.7178227">
        <ele>36.1868</ele>
        <time>2012-09-30T09:11:21Z</time>
      </trkpt>
      <trkpt lat="59.9700798" lon="17.7178474">
        <ele>36.6675</ele>
        <time>2012-09-30T09:11:22Z</time>
      </trkpt>
      <trkpt lat="59.9700999" lon="17.7178678">
        <ele>36.1868</ele>
        <time>2012-09-30T09:11:23Z</time>
      </trkpt>
      <trkpt lat="59.9701227" lon="17.7178849">
        <ele>36.1868</ele>
        <time>2012-09-30T09:11:24Z</time>
      </trkpt>
      <trkpt lat="59.9701463" lon="17.7179046">
        <ele>36.1868</ele>
        <time>2012-09-30T09:11:25Z</time>
      </trkpt>
      <trkpt lat="59.9701703" lon="17.7179204">
        <ele>36.6675</ele>
        <time>2012-09-30T09:11:26Z</time>
      </trkpt>
      <trkpt lat="59.970191" lon="17.7179336">
        <ele>36.6675</ele>
        <time>2012-09-30T09:11:27Z</time>
      </trkpt>
      <trkpt lat="59.9702142" lon="17.7179543">
        <ele>37.1481</ele>
        <time>2012-09-30T09:11:28Z</time>
      </trkpt>
      <trkpt lat="59.9702383" lon="17.7179736">
        <ele>37.6287</ele>
        <time>2012-09-30T09:11:29Z</time>
      </trkpt>
      <trkpt lat="59.9702566" lon="17.7179931">
        <ele>37.6287</ele>
        <time>2012-09-30T09:11:30Z</time>
      </trkpt>
      <trkpt lat="59.9702755" lon="17.718017">
        <ele>37.1481</ele>
        <time>2012-09-30T09:11:31Z</time>
      </trkpt>
      <trkpt lat="59.970298" lon="17.7180401">
        <ele>37.1481</ele>
        <time>2012-09-30T09:11:32Z</time>
      </trkpt>
      <trkpt lat="59.970317" lon="17.7180553">
        <ele>37.1481</ele>
        <time>2012-09-30T09:11:33Z</time>
      </trkpt>
      <trkpt lat="59.9703366" lon="17.7180687">
        <ele>37.1481</ele>
        <time>2012-09-30T09:11:34Z</time>
      </trkpt>
      <trkpt lat="59.9703558" lon="17.7180858">
        <ele>37.1481</ele>
        <time>2012-09-30T09:11:35Z</time>
      </trkpt>
      <trkpt lat="59.9703727" lon="17.7181003">
        <ele>37.1481</ele>
        <time>2012-09-30T09:11:36Z</time>
      </trkpt>
      <trkpt lat="59.9703911" lon="17.7181199">
        <ele>37.1481</ele>
        <time>2012-09-30T09:11:37Z</time>
      </trkpt>
      <trkpt lat="59.9704086" lon="17.7181452">
        <ele>37.1481</ele>
        <time>2012-09-30T09:11:38Z</time>
      </trkpt>
      <trkpt lat="59.970425" lon="17.7181681">
        <ele>36.6675</ele>
        <time>2012-09-30T09:11:39Z</time>
      </trkpt>
      <trkpt lat="59.9704402" lon="17.7181919">
        <ele>36.6675</ele>
        <time>2012-09-30T09:11:40Z</time>
      </trkpt>
      <trkpt lat="59.9704576" lon="17.7182204">
        <ele>36.6675</ele>
        <time>2012-09-30T09:11:41Z</time>
      </trkpt>
      <trkpt lat="59.9704752" lon="17.7182428">
        <ele>36.1868</ele>
        <time>2012-09-30T09:11:42Z</time>
      </trkpt>
      <trkpt lat="59.9704929" lon="17.7182638">
        <ele>35.7061</ele>
        <time>2012-09-30T09:11:43Z</time>
      </trkpt>
      <trkpt lat="59.9705078" lon="17.7182942">
        <ele>35.2255</ele>
        <time>2012-09-30T09:11:44Z</time>
      </trkpt>
      <trkpt lat="59.9705225" lon="17.7183195">
        <ele>34.7449</ele>
        <time>2012-09-30T09:11:45Z</time>
      </trkpt>
      <trkpt lat="59.9705448" lon="17.7183408">
        <ele>34.7449</ele>
        <time>2012-09-30T09:11:46Z</time>
      </trkpt>
      <trkpt lat="59.9705687" lon="17.7183574">
        <ele>33.7834</ele>
        <time>2012-09-30T09:11:47Z</time>
      </trkpt>
      <trkpt lat="59.970595" lon="17.7183744">
        <ele>33.7834</ele>
        <time>2012-09-30T09:11:48Z</time>
      </trkpt>
      <trkpt lat="59.9706206" lon="17.7183906">
        <ele>33.3029</ele>
        <time>2012-09-30T09:11:49Z</time>
      </trkpt>
      <trkpt lat="59.9706454" lon="17.7184029">
        <ele>32.8223</ele>
        <time>2012-09-30T09:11:50Z</time>
      </trkpt>
      <trkpt lat="59.9706697" lon="17.7184199">
        <ele>32.3416</ele>
        <time>2012-09-30T09:11:51Z</time>
      </trkpt>
      <trkpt lat="59.9706957" lon="17.7184385">
        <ele>31.8607</ele>
        <time>2012-09-30T09:11:52Z</time>
      </trkpt>
      <trkpt lat="59.9707205" lon="17.7184529">
        <ele>31.3801</ele>
        <time>2012-09-30T09:11:53Z</time>
      </trkpt>
      <trkpt lat="59.9707412" lon="17.7184672">
        <ele>30.8995</ele>
        <time>2012-09-30T09:11:54Z</time>
      </trkpt>
      <trkpt lat="59.9707608" lon="17.7184789">
        <ele>29.9381</ele>
        <time>2012-09-30T09:11:55Z</time>
      </trkpt>
      <trkpt lat="59.9707826" lon="17.7184869">
        <ele>29.9381</ele>
        <time>2012-09-30T09:11:56Z</time>
      </trkpt>
      <trkpt lat="59.9708026" lon="17.7185024">
        <ele>29.4575</ele>
        <time>2012-09-30T09:11:57Z</time>
      </trkpt>
      <trkpt lat="59.9708189" lon="17.7185272">
        <ele>28.9769</ele>
        <time>2012-09-30T09:11:58Z</time>
      </trkpt>
      <trkpt lat="59.970838" lon="17.7185468">
        <ele>28.4962</ele>
        <time>2012-09-30T09:11:59Z</time>
      </trkpt>
      <trkpt lat="59.9708577" lon="17.7185557">
        <ele>28.4962</ele>
        <time>2012-09-30T09:12:00Z</time>
      </trkpt>
      <trkpt lat="59.9708774" lon="17.7185724">
        <ele>28.0155</ele>
        <time>2012-09-30T09:12:01Z</time>
      </trkpt>
      <trkpt lat="59.9708963" lon="17.7185925">
        <ele>27.5349</ele>
        <time>2012-09-30T09:12:02Z</time>
      </trkpt>
      <trkpt lat="59.9709168" lon="17.7186038">
        <ele>27.5349</ele>
        <time>2012-09-30T09:12:03Z</time>
      </trkpt>
      <trkpt lat="59.9709385" lon="17.7186142">
        <ele>27.0543</ele>
        <time>2012-09-30T09:12:04Z</time>
      </trkpt>
      <trkpt lat="59.9709583" lon="17.7186282">
        <ele>27.0543</ele>
        <time>2012-09-30T09:12:05Z</time>
      </trkpt>
      <trkpt lat="59.9709887" lon="17.7186384">
        <ele>27.0543</ele>
        <time>2012-09-30T09:12:06Z</time>
      </trkpt>
      <trkpt lat="59.9710194" lon="17.7186536">
        <ele>27.0543</ele>
        <time>2012-09-30T09:12:07Z</time>
      </trkpt>
      <trkpt lat="59.9710394" lon="17.7186816">
        <ele>27.0543</ele>
        <time>2012-09-30T09:12:08Z</time>
      </trkpt>
      <trkpt lat="59.9710582" lon="17.7187058">
        <ele>27.0543</ele>
        <time>2012-09-30T09:12:09Z</time>
      </trkpt>
      <trkpt lat="59.9710799" lon="17.7187225">
        <ele>26.5736</ele>
        <time>2012-09-30T09:12:10Z</time>
      </trkpt>
      <trkpt lat="59.9711039" lon="17.7187387">
        <ele>26.5736</ele>
        <time>2012-09-30T09:12:11Z</time>
      </trkpt>
      <trkpt lat="59.9711271" lon="17.7187577">
        <ele>26.5736</ele>
        <time>2012-09-30T09:12:12Z</time>
      </trkpt>
      <trkpt lat="59.971151" lon="17.7187827">
        <ele>27.0543</ele>
        <time>2012-09-30T09:12:13Z</time>
      </trkpt>
      <trkpt lat="59.9711746" lon="17.7188029">
        <ele>26.5736</ele>
        <time>2012-09-30T09:12:14Z</time>
      </trkpt>
      <trkpt lat="59.9711996" lon="17.7188223">
        <ele>27.0543</ele>
        <time>2012-09-30T09:12:15Z</time>
      </trkpt>
      <trkpt lat="59.9712219" lon="17.718848">
        <ele>27.0543</ele>
        <time>2012-09-30T09:12:16Z</time>
      </trkpt>
      <trkpt lat="59.9712431" lon="17.7188717">
        <ele>26.5736</ele>
        <time>2012-09-30T09:12:17Z</time>
      </trkpt>
      <trkpt lat="59.9712663" lon="17.7188946">
        <ele>26.5736</ele>
        <time>2012-09-30T09:12:18Z</time>
      </trkpt>
      <trkpt lat="59.9712893" lon="17.7189157">
        <ele>27.0543</ele>
        <time>2012-09-30T09:12:19Z</time>
      </trkpt>
      <trkpt lat="59.9713123" lon="17.7189328">
        <ele>27.0543</ele>
        <time>2012-09-30T09:12:20Z</time>
      </trkpt>
      <trkpt lat="59.971332" lon="17.7189483">
        <ele>27.0543</ele>
        <time>2012-09-30T09:12:21Z</time>
      </trkpt>
      <trkpt lat="59.9713518" lon="17.7189701">
        <ele>27.5349</ele>
        <time>2012-09-30T09:12:22Z</time>
      </trkpt>
      <trkpt lat="59.9713738" lon="17.7189886">
        <ele>27.5349</ele>
        <time>2012-09-30T09:12:23Z</time>
      </trkpt>
      <trkpt lat="59.9713954" lon="17.7190015">
        <ele>27.5349</ele>
        <time>2012-09-30T09:12:24Z</time>
      </trkpt>
      <trkpt lat="59.9714166" lon="17.7190194">
        <ele>28.0155</ele>
        <time>2012-09-30T09:12:25Z</time>
      </trkpt>
      <trkpt lat="59.9714377" lon="17.7190452">
        <ele>28.0155</ele>
        <time>2012-09-30T09:12:26Z</time>
      </trkpt>
      <trkpt lat="59.9714601" lon="17.7190711">
        <ele>28.0155</ele>
        <time>2012-09-30T09:12:27Z</time>
      </trkpt>
      <trkpt lat="59.9714831" lon="17.7190909">
        <ele>28.4962</ele>
        <time>2012-09-30T09:12:28Z</time>
      </trkpt>
      <trkpt lat="59.9715037" lon="17.7191126">
        <ele>28.0155</ele>
        <time>2012-09-30T09:12:29Z</time>
      </trkpt>
      <trkpt lat="59.9715284" lon="17.7191352">
        <ele>28.4962</ele>
        <time>2012-09-30T09:12:30Z</time>
      </trkpt>
      <trkpt lat="59.9715554" lon="17.7191546">
        <ele>28.4962</ele>
        <time>2012-09-30T09:12:31Z</time>
      </trkpt>
      <trkpt lat="59.9715838" lon="17.7191737">
        <ele>29.4575</ele>
        <time>2012-09-30T09:12:32Z</time>
      </trkpt>
      <trkpt lat="59.9716073" lon="17.7191963">
        <ele>29.9381</ele>
        <time>2012-09-30T09:12:33Z</time>
      </trkpt>
      <trkpt lat="59.9716301" lon="17.7192182">
        <ele>30.4188</ele>
        <time>2012-09-30T09:12:34Z</time>
      </trkpt>
      <trkpt lat="59.9716513" lon="17.7192358">
        <ele>30.4188</ele>
        <time>2012-09-30T09:12:35Z</time>
      </trkpt>
      <trkpt lat="59.9716747" lon="17.7192567">
        <ele>30.8995</ele>
        <time>2012-09-30T09:12:36Z</time>
      </trkpt>
      <trkpt lat="59.9716991" lon="17.7192792">
        <ele>31.3801</ele>
        <time>2012-09-30T09:12:37Z</time>
      </trkpt>
      <trkpt lat="59.9717221" lon="17.719299">
        <ele>31.8607</ele>
        <time>2012-09-30T09:12:38Z</time>
      </trkpt>
      <trkpt lat="59.9717434" lon="17.7193157">
        <ele>31.8607</ele>
        <time>2012-09-30T09:12:39Z</time>
      </trkpt>
      <trkpt lat="59.9717679" lon="17.7193358">
        <ele>31.8607</ele>
        <time>2012-09-30T09:12:40Z</time>
      </trkpt>
      <trkpt lat="59.9717912" lon="17.7193574">
        <ele>31.3801</ele>
        <time>2012-09-30T09:12:41Z</time>
      </trkpt>
      <trkpt lat="59.9718114" lon="17.7193755">
        <ele>31.3801</ele>
        <time>2012-09-30T09:12:42Z</time>
      </trkpt>
      <trkpt lat="59.97183" lon="17.7193959">
        <ele>31.8607</ele>
        <time>2012-09-30T09:12:43Z</time>
      </trkpt>
      <trkpt lat="59.9718481" lon="17.7194131">
        <ele>31.3801</ele>
        <time>2012-09-30T09:12:44Z</time>
      </trkpt>
      <trkpt lat="59.9718648" lon="17.7194273">
        <ele>31.3801</ele>
        <time>2012-09-30T09:12:45Z</time>
      </trkpt>
      <trkpt lat="59.9718818" lon="17.7194426">
        <ele>30.8995</ele>
        <time>2012-09-30T09:12:46Z</time>
      </trkpt>
      <trkpt lat="59.9719005" lon="17.71946">
        <ele>30.8995</ele>
        <time>2012-09-30T09:12:47Z</time>
      </trkpt>
      <trkpt lat="59.9719169" lon="17.719481">
        <ele>30.4188</ele>
        <time>2012-09-30T09:12:48Z</time>
      </trkpt>
      <trkpt lat="59.9719337" lon="17.7195032">
        <ele>30.4188</ele>
        <time>2012-09-30T09:12:49Z</time>
      </trkpt>
      <trkpt lat="59.9719521" lon="17.7195278">
        <ele>30.8995</ele>
        <time>2012-09-30T09:12:50Z</time>
      </trkpt>
      <trkpt lat="59.9719713" lon="17.7195522">
        <ele>30.4188</ele>
        <time>2012-09-30T09:12:51Z</time>
      </trkpt>
      <trkpt lat="59.9719906" lon="17.7195699">
        <ele>30.4188</ele>
        <time>2012-09-30T09:12:52Z</time>
      </trkpt>
      <trkpt lat="59.9720108" lon="17.7195948">
        <ele>30.8995</ele>
        <time>2012-09-30T09:12:53Z</time>
      </trkpt>
      <trkpt lat="59.9720323" lon="17.7196265">
        <ele>30.8995</ele>
        <time>2012-09-30T09:12:54Z</time>
      </trkpt>
      <trkpt lat="59.9720528" lon="17.7196511">
        <ele>31.3801</ele>
        <time>2012-09-30T09:12:55Z</time>
      </trkpt>
      <trkpt lat="59.9720739" lon="17.7196751">
        <ele>31.8607</ele>
        <time>2012-09-30T09:12:56Z</time>
      </trkpt>
      <trkpt lat="59.9720924" lon="17.7197005">
        <ele>31.8607</ele>
        <time>2012-09-30T09:12:57Z</time>
      </trkpt>
      <trkpt lat="59.9721097" lon="17.7197223">
        <ele>32.3416</ele>
        <time>2012-09-30T09:12:58Z</time>
      </trkpt>
      <trkpt lat="59.9721309" lon="17.719744">
        <ele>32.8223</ele>
        <time>2012-09-30T09:12:59Z</time>
      </trkpt>
      <trkpt lat="59.9721533" lon="17.7197667">
        <ele>32.8223</ele>
        <time>2012-09-30T09:13:00Z</time>
      </trkpt>
      <trkpt lat="59.972176" lon="17.719787">
        <ele>33.3029</ele>
        <time>2012-09-30T09:13:01Z</time>
      </trkpt>
      <trkpt lat="59.9721994" lon="17.7198106">
        <ele>33.7834</ele>
        <time>2012-09-30T09:13:02Z</time>
      </trkpt>
      <trkpt lat="59.9722202" lon="17.7198362">
        <ele>34.2642</ele>
        <time>2012-09-30T09:13:03Z</time>
      </trkpt>
      <trkpt lat="59.9722396" lon="17.7198624">
        <ele>34.2642</ele>
        <time>2012-09-30T09:13:04Z</time>
      </trkpt>
      <trkpt lat="59.9722616" lon="17.719889">
        <ele>34.7449</ele>
        <time>2012-09-30T09:13:05Z</time>
      </trkpt>
      <trkpt lat="59.9722786" lon="17.719918">
        <ele>35.2255</ele>
        <time>2012-09-30T09:13:06Z</time>
      </trkpt>
      <trkpt lat="59.9722991" lon="17.7199413">
        <ele>35.2255</ele>
        <time>2012-09-30T09:13:07Z</time>
      </trkpt>
      <trkpt lat="59.9723238" lon="17.7199635">
        <ele>35.2255</ele>
        <time>2012-09-30T09:13:08Z</time>
      </trkpt>
      <trkpt lat="59.9723442" lon="17.7199849">
        <ele>34.7449</ele>
        <time>2012-09-30T09:13:09Z</time>
      </trkpt>
      <trkpt lat="59.9723659" lon="17.7200097">
        <ele>35.2255</ele>
        <time>2012-09-30T09:13:10Z</time>
      </trkpt>
      <trkpt lat="59.9723858" lon="17.7200341">
        <ele>35.2255</ele>
        <time>2012-09-30T09:13:11Z</time>
      </trkpt>
      <trkpt lat="59.9724079" lon="17.7200528">
        <ele>34.7449</ele>
        <time>2012-09-30T09:13:12Z</time>
      </trkpt>
      <trkpt lat="59.9724313" lon="17.7200693">
        <ele>35.2255</ele>
        <time>2012-09-30T09:13:13Z</time>
      </trkpt>
      <trkpt lat="59.9724517" lon="17.7200926">
        <ele>35.2255</ele>
        <time>2012-09-30T09:13:14Z</time>
      </trkpt>
      <trkpt lat="59.9724703" lon="17.7201159">
        <ele>35.7061</ele>
        <time>2012-09-30T09:13:15Z</time>
      </trkpt>
      <trkpt lat="59.972491" lon="17.7201341">
        <ele>35.2255</ele>
        <time>2012-09-30T09:13:16Z</time>
      </trkpt>
      <trkpt lat="59.9725108" lon="17.7201541">
        <ele>34.7449</ele>
        <time>2012-09-30T09:13:17Z</time>
      </trkpt>
      <trkpt lat="59.9725284" lon="17.7201715">
        <ele>34.7449</ele>
        <time>2012-09-30T09:13:18Z</time>
      </trkpt>
      <trkpt lat="59.9725485" lon="17.7201877">
        <ele>34.2642</ele>
        <time>2012-09-30T09:13:19Z</time>
      </trkpt>
      <trkpt lat="59.9725687" lon="17.7202076">
        <ele>33.7834</ele>
        <time>2012-09-30T09:13:20Z</time>
      </trkpt>
      <trkpt lat="59.9725878" lon="17.7202231">
        <ele>33.7834</ele>
        <time>2012-09-30T09:13:21Z</time>
      </trkpt>
      <trkpt lat="59.9726076" lon="17.7202385">
        <ele>33.3029</ele>
        <time>2012-09-30T09:13:22Z</time>
      </trkpt>
      <trkpt lat="59.9726294" lon="17.7202558">
        <ele>32.8223</ele>
        <time>2012-09-30T09:13:23Z</time>
      </trkpt>
      <trkpt lat="59.9726484" lon="17.7202691">
        <ele>32.8223</ele>
        <time>2012-09-30T09:13:24Z</time>
      </trkpt>
      <trkpt lat="59.9726671" lon="17.7202843">
        <ele>32.8223</ele>
        <time>2012-09-30T09:13:25Z</time>
      </trkpt>
      <trkpt lat="59.9726858" lon="17.7203077">
        <ele>32.8223</ele>
        <time>2012-09-30T09:13:26Z</time>
      </trkpt>
      <trkpt lat="59.972706" lon="17.7203282">
        <ele>32.8223</ele>
        <time>2012-09-30T09:13:27Z</time>
      </trkpt>
      <trkpt lat="59.9727267" lon="17.7203474">
        <ele>32.8223</ele>
        <time>2012-09-30T09:13:28Z</time>
      </trkpt>
      <trkpt lat="59.9727473" lon="17.7203718">
        <ele>32.8223</ele>
        <time>2012-09-30T09:13:29Z</time>
      </trkpt>
      <trkpt lat="59.9727671" lon="17.7203996">
        <ele>32.8223</ele>
        <time>2012-09-30T09:13:30Z</time>
      </trkpt>
      <trkpt lat="59.9727862" lon="17.7204245">
        <ele>32.8223</ele>
        <time>2012-09-30T09:13:31Z</time>
      </trkpt>
      <trkpt lat="59.97281" lon="17.720449">
        <ele>32.8223</ele>
        <time>2012-09-30T09:13:32Z</time>
      </trkpt>
      <trkpt lat="59.9728329" lon="17.720475">
        <ele>32.8223</ele>
        <time>2012-09-30T09:13:33Z</time>
      </trkpt>
      <trkpt lat="59.972854" lon="17.7204973">
        <ele>32.8223</ele>
        <time>2012-09-30T09:13:34Z</time>
      </trkpt>
      <trkpt lat="59.9728757" lon="17.7205177">
        <ele>33.3029</ele>
        <time>2012-09-30T09:13:35Z</time>
      </trkpt>
      <trkpt lat="59.9728961" lon="17.7205412">
        <ele>33.3029</ele>
        <time>2012-09-30T09:13:36Z</time>
      </trkpt>
      <trkpt lat="59.9729151" lon="17.7205623">
        <ele>32.8223</ele>
        <time>2012-09-30T09:13:37Z</time>
      </trkpt>
      <trkpt lat="59.9729361" lon="17.7205837">
        <ele>32.8223</ele>
        <time>2012-09-30T09:13:38Z</time>
      </trkpt>
      <trkpt lat="59.9729582" lon="17.7206121">
        <ele>33.3029</ele>
        <time>2012-09-30T09:13:39Z</time>
      </trkpt>
      <trkpt lat="59.9729762" lon="17.720642">
        <ele>32.8223</ele>
        <time>2012-09-30T09:13:40Z</time>
      </trkpt>
      <trkpt lat="59.9729966" lon="17.7206666">
        <ele>33.3029</ele>
        <time>2012-09-30T09:13:41Z</time>
      </trkpt>
      <trkpt lat="59.9730174" lon="17.720691">
        <ele>32.8223</ele>
        <time>2012-09-30T09:13:42Z</time>
      </trkpt>
      <trkpt lat="59.9730394" lon="17.7207188">
        <ele>32.8223</ele>
        <time>2012-09-30T09:13:43Z</time>
      </trkpt>
      <trkpt lat="59.9730599" lon="17.7207431">
        <ele>33.3029</ele>
        <time>2012-09-30T09:13:44Z</time>
      </trkpt>
      <trkpt lat="59.9730815" lon="17.7207674">
        <ele>32.8223</ele>
        <time>2012-09-30T09:13:45Z</time>
      </trkpt>
      <trkpt lat="59.9731034" lon="17.7207976">
        <ele>32.8223</ele>
        <time>2012-09-30T09:13:46Z</time>
      </trkpt>
      <trkpt lat="59.9731224" lon="17.7208266">
        <ele>32.8223</ele>
        <time>2012-09-30T09:13:47Z</time>
      </trkpt>
      <trkpt lat="59.973141" lon="17.7208525">
        <ele>32.3416</ele>
        <time>2012-09-30T09:13:48Z</time>
      </trkpt>
      <trkpt lat="59.9731607" lon="17.7208831">
        <ele>32.3416</ele>
        <time>2012-09-30T09:13:49Z</time>
      </trkpt>
      <trkpt lat="59.9731794" lon="17.7209177">
        <ele>32.3416</ele>
        <time>2012-09-30T09:13:50Z</time>
      </trkpt>
      <trkpt lat="59.9731974" lon="17.7209468">
        <ele>32.3416</ele>
        <time>2012-09-30T09:13:51Z</time>
      </trkpt>
      <trkpt lat="59.9732168" lon="17.7209756">
        <ele>32.8223</ele>
        <time>2012-09-30T09:13:52Z</time>
      </trkpt>
      <trkpt lat="59.9732364" lon="17.7210095">
        <ele>32.8223</ele>
        <time>2012-09-30T09:13:53Z</time>
      </trkpt>
      <trkpt lat="59.9732541" lon="17.7210385">
        <ele>32.3416</ele>
        <time>2012-09-30T09:13:54Z</time>
      </trkpt>
      <trkpt lat="59.9732745" lon="17.7210665">
        <ele>32.3416</ele>
        <time>2012-09-30T09:13:55Z</time>
      </trkpt>
      <trkpt lat="59.9732909" lon="17.721096">
        <ele>32.3416</ele>
        <time>2012-09-30T09:13:56Z</time>
      </trkpt>
      <trkpt lat="59.9733067" lon="17.7211219">
        <ele>32.3416</ele>
        <time>2012-09-30T09:13:57Z</time>
      </trkpt>
      <trkpt lat="59.9733251" lon="17.7211463">
        <ele>32.3416</ele>
        <time>2012-09-30T09:13:58Z</time>
      </trkpt>
      <trkpt lat="59.9733437" lon="17.7211715">
        <ele>32.8223</ele>
        <time>2012-09-30T09:13:59Z</time>
      </trkpt>
      <trkpt lat="59.9733576" lon="17.7211955">
        <ele>32.8223</ele>
        <time>2012-09-30T09:14:00Z</time>
      </trkpt>
      <trkpt lat="59.9733699" lon="17.7212215">
        <ele>32.8223</ele>
        <time>2012-09-30T09:14:01Z</time>
      </trkpt>
      <trkpt lat="59.973387" lon="17.7212544">
        <ele>33.3029</ele>
        <time>2012-09-30T09:14:02Z</time>
      </trkpt>
      <trkpt lat="59.9734051" lon="17.7212861">
        <ele>33.7834</ele>
        <time>2012-09-30T09:14:03Z</time>
      </trkpt>
      <trkpt lat="59.9734192" lon="17.7213157">
        <ele>33.7834</ele>
        <time>2012-09-30T09:14:04Z</time>
      </trkpt>
      <trkpt lat="59.9734323" lon="17.7213556">
        <ele>33.7834</ele>
        <time>2012-09-30T09:14:05Z</time>
      </trkpt>
      <trkpt lat="59.9734451" lon="17.7213923">
        <ele>33.7834</ele>
        <time>2012-09-30T09:14:06Z</time>
      </trkpt>
      <trkpt lat="59.9734597" lon="17.7214218">
        <ele>33.7834</ele>
        <time>2012-09-30T09:14:07Z</time>
      </trkpt>
      <trkpt lat="59.9734735" lon="17.7214519">
        <ele>33.7834</ele>
        <time>2012-09-30T09:14:08Z</time>
      </trkpt>
      <trkpt lat="59.9734844" lon="17.7214857">
        <ele>33.3029</ele>
        <time>2012-09-30T09:14:09Z</time>
      </trkpt>
      <trkpt lat="59.9734973" lon="17.7215175">
        <ele>33.3029</ele>
        <time>2012-09-30T09:14:10Z</time>
      </trkpt>
      <trkpt lat="59.9735154" lon="17.7215512">
        <ele>33.7834</ele>
        <time>2012-09-30T09:14:11Z</time>
      </trkpt>
      <trkpt lat="59.973532" lon="17.7215884">
        <ele>33.7834</ele>
        <time>2012-09-30T09:14:12Z</time>
      </trkpt>
      <trkpt lat="59.973547" lon="17.7216226">
        <ele>34.2642</ele>
        <time>2012-09-30T09:14:13Z</time>
      </trkpt>
      <trkpt lat="59.9735659" lon="17.7216565">
        <ele>34.7449</ele>
        <time>2012-09-30T09:14:14Z</time>
      </trkpt>
      <trkpt lat="59.9735796" lon="17.7216975">
        <ele>34.2642</ele>
        <time>2012-09-30T09:14:15Z</time>
      </trkpt>
      <trkpt lat="59.9735927" lon="17.7217392">
        <ele>34.2642</ele>
        <time>2012-09-30T09:14:16Z</time>
      </trkpt>
      <trkpt lat="59.9736063" lon="17.7217749">
        <ele>34.2642</ele>
        <time>2012-09-30T09:14:17Z</time>
      </trkpt>
      <trkpt lat="59.9736201" lon="17.7218122">
        <ele>34.2642</ele>
        <time>2012-09-30T09:14:18Z</time>
      </trkpt>
      <trkpt lat="59.9736354" lon="17.7218476">
        <ele>34.2642</ele>
        <time>2012-09-30T09:14:19Z</time>
      </trkpt>
      <trkpt lat="59.9736493" lon="17.7218777">
        <ele>34.2642</ele>
        <time>2012-09-30T09:14:20Z</time>
      </trkpt>
      <trkpt lat="59.9736651" lon="17.7219144">
        <ele>34.2642</ele>
        <time>2012-09-30T09:14:21Z</time>
      </trkpt>
      <trkpt lat="59.9736789" lon="17.7219615">
        <ele>34.2642</ele>
        <time>2012-09-30T09:14:22Z</time>
      </trkpt>
      <trkpt lat="59.9736876" lon="17.7220076">
        <ele>33.7834</ele>
        <time>2012-09-30T09:14:23Z</time>
      </trkpt>
      <trkpt lat="59.9737041" lon="17.722045">
        <ele>33.7834</ele>
        <time>2012-09-30T09:14:24Z</time>
      </trkpt>
      <trkpt lat="59.9737181" lon="17.7220844">
        <ele>33.3029</ele>
        <time>2012-09-30T09:14:25Z</time>
      </trkpt>
      <trkpt lat="59.9737327" lon="17.722127">
        <ele>32.8223</ele>
        <time>2012-09-30T09:14:26Z</time>
      </trkpt>
      <trkpt lat="59.9737482" lon="17.7221652">
        <ele>32.8223</ele>
        <time>2012-09-30T09:14:27Z</time>
      </trkpt>
      <trkpt lat="59.9737633" lon="17.7222066">
        <ele>33.3029</ele>
        <time>2012-09-30T09:14:28Z</time>
      </trkpt>
      <trkpt lat="59.973777" lon="17.7222468">
        <ele>33.3029</ele>
        <time>2012-09-30T09:14:29Z</time>
      </trkpt>
      <trkpt lat="59.97379" lon="17.7222867">
        <ele>33.7834</ele>
        <time>2012-09-30T09:14:30Z</time>
      </trkpt>
      <trkpt lat="59.9738017" lon="17.7223294">
        <ele>33.7834</ele>
        <time>2012-09-30T09:14:31Z</time>
      </trkpt>
      <trkpt lat="59.9738124" lon="17.7223686">
        <ele>33.3029</ele>
        <time>2012-09-30T09:14:32Z</time>
      </trkpt>
      <trkpt lat="59.9738228" lon="17.7224053">
        <ele>33.3029</ele>
        <time>2012-09-30T09:14:33Z</time>
      </trkpt>
      <trkpt lat="59.9738372" lon="17.7224435">
        <ele>33.3029</ele>
        <time>2012-09-30T09:14:34Z</time>
      </trkpt>
      <trkpt lat="59.9738517" lon="17.7224915">
        <ele>33.7834</ele>
        <time>2012-09-30T09:14:35Z</time>
      </trkpt>
      <trkpt lat="59.9738653" lon="17.7225444">
        <ele>33.3029</ele>
        <time>2012-09-30T09:14:36Z</time>
      </trkpt>
      <trkpt lat="59.9738799" lon="17.7225903">
        <ele>33.3029</ele>
        <time>2012-09-30T09:14:37Z</time>
      </trkpt>
      <trkpt lat="59.9738921" lon="17.722633">
        <ele>33.3029</ele>
        <time>2012-09-30T09:14:38Z</time>
      </trkpt>
      <trkpt lat="59.9739032" lon="17.7226721">
        <ele>33.7834</ele>
        <time>2012-09-30T09:14:39Z</time>
      </trkpt>
      <trkpt lat="59.9739154" lon="17.7227122">
        <ele>33.7834</ele>
        <time>2012-09-30T09:14:40Z</time>
      </trkpt>
      <trkpt lat="59.9739259" lon="17.7227571">
        <ele>33.7834</ele>
        <time>2012-09-30T09:14:41Z</time>
      </trkpt>
      <trkpt lat="59.9739395" lon="17.7228002">
        <ele>33.7834</ele>
        <time>2012-09-30T09:14:42Z</time>
      </trkpt>
      <trkpt lat="59.9739539" lon="17.7228433">
        <ele>34.2642</ele>
        <time>2012-09-30T09:14:43Z</time>
      </trkpt>
      <trkpt lat="59.9739658" lon="17.7228876">
        <ele>34.2642</ele>
        <time>2012-09-30T09:14:44Z</time>
      </trkpt>
      <trkpt lat="59.9739777" lon="17.7229314">
        <ele>34.2642</ele>
        <time>2012-09-30T09:14:45Z</time>
      </trkpt>
      <trkpt lat="59.9739886" lon="17.7229722">
        <ele>34.7449</ele>
        <time>2012-09-30T09:14:46Z</time>
      </trkpt>
      <trkpt lat="59.9739989" lon="17.723015">
        <ele>34.7449</ele>
        <time>2012-09-30T09:14:47Z</time>
      </trkpt>
      <trkpt lat="59.9740073" lon="17.7230588">
        <ele>35.2255</ele>
        <time>2012-09-30T09:14:48Z</time>
      </trkpt>
      <trkpt lat="59.9740174" lon="17.7231043">
        <ele>35.2255</ele>
        <time>2012-09-30T09:14:49Z</time>
      </trkpt>
      <trkpt lat="59.9740278" lon="17.7231472">
        <ele>35.2255</ele>
        <time>2012-09-30T09:14:50Z</time>
      </trkpt>
      <trkpt lat="59.9740384" lon="17.723187">
        <ele>35.7061</ele>
        <time>2012-09-30T09:14:51Z</time>
      </trkpt>
      <trkpt lat="59.9740486" lon="17.7232318">
        <ele>35.7061</ele>
        <time>2012-09-30T09:14:52Z</time>
      </trkpt>
      <trkpt lat="59.9740574" lon="17.7232725">
        <ele>36.1868</ele>
        <time>2012-09-30T09:14:53Z</time>
      </trkpt>
      <trkpt lat="59.9740657" lon="17.7233166">
        <ele>36.1868</ele>
        <time>2012-09-30T09:14:54Z</time>
      </trkpt>
      <trkpt lat="59.9740744" lon="17.7233662">
        <ele>36.6675</ele>
        <time>2012-09-30T09:14:55Z</time>
      </trkpt>
      <trkpt lat="59.9740842" lon="17.7234099">
        <ele>36.6675</ele>
        <time>2012-09-30T09:14:56Z</time>
      </trkpt>
      <trkpt lat="59.9740918" lon="17.7234549">
        <ele>36.6675</ele>
        <time>2012-09-30T09:14:57Z</time>
      </trkpt>
      <trkpt lat="59.9740998" lon="17.7235009">
        <ele>37.1481</ele>
        <time>2012-09-30T09:14:58Z</time>
      </trkpt>
      <trkpt lat="59.9741039" lon="17.7235408">
        <ele>36.6675</ele>
        <time>2012-09-30T09:14:59Z</time>
      </trkpt>
      <trkpt lat="59.9741103" lon="17.723586">
        <ele>36.6675</ele>
        <time>2012-09-30T09:15:00Z</time>
      </trkpt>
      <trkpt lat="59.9741179" lon="17.723632">
        <ele>36.6675</ele>
        <time>2012-09-30T09:15:01Z</time>
      </trkpt>
      <trkpt lat="59.9741258" lon="17.7236769">
        <ele>37.1481</ele>
        <time>2012-09-30T09:15:02Z</time>
      </trkpt>
      <trkpt lat="59.9741313" lon="17.7237242">
        <ele>37.1481</ele>
        <time>2012-09-30T09:15:03Z</time>
      </trkpt>
      <trkpt lat="59.9741377" lon="17.7237662">
        <ele>37.1481</ele>
        <time>2012-09-30T09:15:04Z</time>
      </trkpt>
      <trkpt lat="59.9741446" lon="17.7238073">
        <ele>37.1481</ele>
        <time>2012-09-30T09:15:05Z</time>
      </trkpt>
      <trkpt lat="59.9741486" lon="17.7238527">
        <ele>37.6287</ele>
        <time>2012-09-30T09:15:06Z</time>
      </trkpt>
      <trkpt lat="59.9741523" lon="17.7238933">
        <ele>37.6287</ele>
        <time>2012-09-30T09:15:07Z</time>
      </trkpt>
      <trkpt lat="59.9741583" lon="17.7239378">
        <ele>37.6287</ele>
        <time>2012-09-30T09:15:08Z</time>
      </trkpt>
      <trkpt lat="59.9741621" lon="17.7239849">
        <ele>37.6287</ele>
        <time>2012-09-30T09:15:09Z</time>
      </trkpt>
      <trkpt lat="59.9741671" lon="17.7240254">
        <ele>37.6287</ele>
        <time>2012-09-30T09:15:10Z</time>
      </trkpt>
      <trkpt lat="59.9741744" lon="17.7240687">
        <ele>37.6287</ele>
        <time>2012-09-30T09:15:11Z</time>
      </trkpt>
      <trkpt lat="59.9741828" lon="17.7241192">
        <ele>37.6287</ele>
        <time>2012-09-30T09:15:12Z</time>
      </trkpt>
      <trkpt lat="59.9741862" lon="17.7241738">
        <ele>37.1481</ele>
        <time>2012-09-30T09:15:13Z</time>
      </trkpt>
      <trkpt lat="59.97419" lon="17.7242275">
        <ele>37.6287</ele>
        <time>2012-09-30T09:15:14Z</time>
      </trkpt>
      <trkpt lat="59.9741942" lon="17.7242777">
        <ele>37.1481</ele>
        <time>2012-09-30T09:15:15Z</time>
      </trkpt>
      <trkpt lat="59.9742016" lon="17.7243269">
        <ele>37.1481</ele>
        <time>2012-09-30T09:15:16Z</time>
      </trkpt>
      <trkpt lat="59.9742127" lon="17.7243758">
        <ele>36.6675</ele>
        <time>2012-09-30T09:15:17Z</time>
      </trkpt>
      <trkpt lat="59.9742199" lon="17.7244215">
        <ele>36.6675</ele>
        <time>2012-09-30T09:15:18Z</time>
      </trkpt>
      <trkpt lat="59.9742268" lon="17.7244658">
        <ele>36.1868</ele>
        <time>2012-09-30T09:15:19Z</time>
      </trkpt>
      <trkpt lat="59.9742341" lon="17.7245144">
        <ele>36.6675</ele>
        <time>2012-09-30T09:15:20Z</time>
      </trkpt>
      <trkpt lat="59.9742412" lon="17.7245611">
        <ele>36.1868</ele>
        <time>2012-09-30T09:15:21Z</time>
      </trkpt>
      <trkpt lat="59.9742472" lon="17.7246072">
        <ele>35.7061</ele>
        <time>2012-09-30T09:15:22Z</time>
      </trkpt>
      <trkpt lat="59.9742543" lon="17.7246558">
        <ele>35.7061</ele>
        <time>2012-09-30T09:15:23Z</time>
      </trkpt>
      <trkpt lat="59.9742621" lon="17.7247044">
        <ele>35.7061</ele>
        <time>2012-09-30T09:15:24Z</time>
      </trkpt>
      <trkpt lat="59.9742682" lon="17.7247524">
        <ele>35.7061</ele>
        <time>2012-09-30T09:15:25Z</time>
      </trkpt>
      <trkpt lat="59.974275" lon="17.7248004">
        <ele>35.7061</ele>
        <time>2012-09-30T09:15:26Z</time>
      </trkpt>
      <trkpt lat="59.9742793" lon="17.7248488">
        <ele>35.2255</ele>
        <time>2012-09-30T09:15:27Z</time>
      </trkpt>
      <trkpt lat="59.9742832" lon="17.7248956">
        <ele>35.2255</ele>
        <time>2012-09-30T09:15:28Z</time>
      </trkpt>
      <trkpt lat="59.9742881" lon="17.7249351">
        <ele>34.7449</ele>
        <time>2012-09-30T09:15:29Z</time>
      </trkpt>
      <trkpt lat="59.9742942" lon="17.7249729">
        <ele>34.7449</ele>
        <time>2012-09-30T09:15:30Z</time>
      </trkpt>
      <trkpt lat="59.9743039" lon="17.7250189">
        <ele>34.7449</ele>
        <time>2012-09-30T09:15:31Z</time>
      </trkpt>
      <trkpt lat="59.9743117" lon="17.7250692">
        <ele>34.7449</ele>
        <time>2012-09-30T09:15:32Z</time>
      </trkpt>
      <trkpt lat="59.9743201" lon="17.7251189">
        <ele>35.2255</ele>
        <time>2012-09-30T09:15:33Z</time>
      </trkpt>
      <trkpt lat="59.9743284" lon="17.7251663">
        <ele>35.2255</ele>
        <time>2012-09-30T09:15:34Z</time>
      </trkpt>
      <trkpt lat="59.9743346" lon="17.725215">
        <ele>35.2255</ele>
        <time>2012-09-30T09:15:35Z</time>
      </trkpt>
      <trkpt lat="59.974336" lon="17.725263">
        <ele>35.2255</ele>
        <time>2012-09-30T09:15:36Z</time>
      </trkpt>
      <trkpt lat="59.9743377" lon="17.7253125">
        <ele>35.2255</ele>
        <time>2012-09-30T09:15:37Z</time>
      </trkpt>
      <trkpt lat="59.9743411" lon="17.7253575">
        <ele>35.2255</ele>
        <time>2012-09-30T09:15:38Z</time>
      </trkpt>
      <trkpt lat="59.9743451" lon="17.725397">
        <ele>35.2255</ele>
        <time>2012-09-30T09:15:39Z</time>
      </trkpt>
      <trkpt lat="59.9743522" lon="17.725439">
        <ele>35.2255</ele>
        <time>2012-09-30T09:15:40Z</time>
      </trkpt>
      <trkpt lat="59.9743601" lon="17.7254881">
        <ele>35.7061</ele>
        <time>2012-09-30T09:15:41Z</time>
      </trkpt>
      <trkpt lat="59.9743657" lon="17.7255332">
        <ele>35.2255</ele>
        <time>2012-09-30T09:15:42Z</time>
      </trkpt>
      <trkpt lat="59.9743713" lon="17.7255768">
        <ele>35.2255</ele>
        <time>2012-09-30T09:15:43Z</time>
      </trkpt>
      <trkpt lat="59.9743739" lon="17.7256208">
        <ele>34.7449</ele>
        <time>2012-09-30T09:15:44Z</time>
      </trkpt>
      <trkpt lat="59.9743787" lon="17.725668">
        <ele>34.7449</ele>
        <time>2012-09-30T09:15:45Z</time>
      </trkpt>
      <trkpt lat="59.9743859" lon="17.7257193">
        <ele>35.2255</ele>
        <time>2012-09-30T09:15:46Z</time>
      </trkpt>
      <trkpt lat="59.9743911" lon="17.7257725">
        <ele>34.7449</ele>
        <time>2012-09-30T09:15:47Z</time>
      </trkpt>
      <trkpt lat="59.9743994" lon="17.7258203">
        <ele>34.7449</ele>
        <time>2012-09-30T09:15:48Z</time>
      </trkpt>
      <trkpt lat="59.9744085" lon="17.7258667">
        <ele>34.7449</ele>
        <time>2012-09-30T09:15:49Z</time>
      </trkpt>
      <trkpt lat="59.9744164" lon="17.7259166">
        <ele>34.2642</ele>
        <time>2012-09-30T09:15:50Z</time>
      </trkpt>
      <trkpt lat="59.9744227" lon="17.7259661">
        <ele>34.2642</ele>
        <time>2012-09-30T09:15:51Z</time>
      </trkpt>
      <trkpt lat="59.9744294" lon="17.7260136">
        <ele>34.7449</ele>
        <time>2012-09-30T09:15:52Z</time>
      </trkpt>
      <trkpt lat="59.974434" lon="17.726063">
        <ele>34.7449</ele>
        <time>2012-09-30T09:15:53Z</time>
      </trkpt>
      <trkpt lat="59.9744366" lon="17.726112">
        <ele>34.2642</ele>
        <time>2012-09-30T09:15:54Z</time>
      </trkpt>
      <trkpt lat="59.9744396" lon="17.726158">
        <ele>34.2642</ele>
        <time>2012-09-30T09:15:55Z</time>
      </trkpt>
      <trkpt lat="59.9744386" lon="17.7262013">
        <ele>33.7834</ele>
        <time>2012-09-30T09:15:56Z</time>
      </trkpt>
      <trkpt lat="59.9744387" lon="17.7262492">
        <ele>33.7834</ele>
        <time>2012-09-30T09:15:57Z</time>
      </trkpt>
      <trkpt lat="59.9744408" lon="17.7262921">
        <ele>33.3029</ele>
        <time>2012-09-30T09:15:58Z</time>
      </trkpt>
      <trkpt lat="59.9744427" lon="17.726332">
        <ele>33.3029</ele>
        <time>2012-09-30T09:15:59Z</time>
      </trkpt>
      <trkpt lat="59.974444" lon="17.7263757">
        <ele>32.8223</ele>
        <time>2012-09-30T09:16:00Z</time>
      </trkpt>
      <trkpt lat="59.9744491" lon="17.7264149">
        <ele>32.8223</ele>
        <time>2012-09-30T09:16:01Z</time>
      </trkpt>
      <trkpt lat="59.9744536" lon="17.7264516">
        <ele>32.8223</ele>
        <time>2012-09-30T09:16:02Z</time>
      </trkpt>
      <trkpt lat="59.9744527" lon="17.72649">
        <ele>31.8607</ele>
        <time>2012-09-30T09:16:03Z</time>
      </trkpt>
      <trkpt lat="59.9744532" lon="17.7265315">
        <ele>31.8607</ele>
        <time>2012-09-30T09:16:04Z</time>
      </trkpt>
      <trkpt lat="59.9744587" lon="17.7265743">
        <ele>31.3801</ele>
        <time>2012-09-30T09:16:05Z</time>
      </trkpt>
      <trkpt lat="59.9744631" lon="17.7266196">
        <ele>30.8995</ele>
        <time>2012-09-30T09:16:06Z</time>
      </trkpt>
      <trkpt lat="59.9744628" lon="17.7266629">
        <ele>30.4188</ele>
        <time>2012-09-30T09:16:07Z</time>
      </trkpt>
      <trkpt lat="59.9744662" lon="17.7267123">
        <ele>30.4188</ele>
        <time>2012-09-30T09:16:08Z</time>
      </trkpt>
      <trkpt lat="59.9744714" lon="17.7267703">
        <ele>30.4188</ele>
        <time>2012-09-30T09:16:09Z</time>
      </trkpt>
      <trkpt lat="59.9744743" lon="17.7268219">
        <ele>29.9381</ele>
        <time>2012-09-30T09:16:10Z</time>
      </trkpt>
      <trkpt lat="59.9744763" lon="17.7268682">
        <ele>29.4575</ele>
        <time>2012-09-30T09:16:11Z</time>
      </trkpt>
      <trkpt lat="59.9744751" lon="17.7269127">
        <ele>28.4962</ele>
        <time>2012-09-30T09:16:12Z</time>
      </trkpt>
      <trkpt lat="59.9744715" lon="17.7269475">
        <ele>28.0155</ele>
        <time>2012-09-30T09:16:13Z</time>
      </trkpt>
      <trkpt lat="59.9744685" lon="17.7269847">
        <ele>27.0543</ele>
        <time>2012-09-30T09:16:14Z</time>
      </trkpt>
      <trkpt lat="59.9744646" lon="17.7270277">
        <ele>27.0543</ele>
        <time>2012-09-30T09:16:15Z</time>
      </trkpt>
      <trkpt lat="59.9744604" lon="17.7270671">
        <ele>26.5736</ele>
        <time>2012-09-30T09:16:16Z</time>
      </trkpt>
      <trkpt lat="59.974462" lon="17.7271083">
        <ele>26.0929</ele>
        <time>2012-09-30T09:16:17Z</time>
      </trkpt>
      <trkpt lat="59.9744652" lon="17.727153">
        <ele>26.0929</ele>
        <time>2012-09-30T09:16:18Z</time>
      </trkpt>
      <trkpt lat="59.9744667" lon="17.7271981">
        <ele>26.0929</ele>
        <time>2012-09-30T09:16:19Z</time>
      </trkpt>
      <trkpt lat="59.9744665" lon="17.7272417">
        <ele>26.0929</ele>
        <time>2012-09-30T09:16:20Z</time>
      </trkpt>
      <trkpt lat="59.9744641" lon="17.7272826">
        <ele>26.0929</ele>
        <time>2012-09-30T09:16:21Z</time>
      </trkpt>
      <trkpt lat="59.9744625" lon="17.7273292">
        <ele>26.0929</ele>
        <time>2012-09-30T09:16:22Z</time>
      </trkpt>
      <trkpt lat="59.9744632" lon="17.7273817">
        <ele>26.0929</ele>
        <time>2012-09-30T09:16:23Z</time>
      </trkpt>
      <trkpt lat="59.9744675" lon="17.7274359">
        <ele>25.6123</ele>
        <time>2012-09-30T09:16:24Z</time>
      </trkpt>
      <trkpt lat="59.9744677" lon="17.7274909">
        <ele>25.6123</ele>
        <time>2012-09-30T09:16:25Z</time>
      </trkpt>
      <trkpt lat="59.9744646" lon="17.7275384">
        <ele>25.1317</ele>
        <time>2012-09-30T09:16:26Z</time>
      </trkpt>
      <trkpt lat="59.9744649" lon="17.7275819">
        <ele>25.1317</ele>
        <time>2012-09-30T09:16:27Z</time>
      </trkpt>
      <trkpt lat="59.9744656" lon="17.7276214">
        <ele>24.651</ele>
        <time>2012-09-30T09:16:28Z</time>
      </trkpt>
      <trkpt lat="59.9744634" lon="17.7276618">
        <ele>24.1703</ele>
        <time>2012-09-30T09:16:29Z</time>
      </trkpt>
      <trkpt lat="59.9744614" lon="17.727702">
        <ele>23.6896</ele>
        <time>2012-09-30T09:16:30Z</time>
      </trkpt>
      <trkpt lat="59.9744636" lon="17.7277401">
        <ele>22.7283</ele>
        <time>2012-09-30T09:16:31Z</time>
      </trkpt>
      <trkpt lat="59.9744646" lon="17.7277887">
        <ele>22.2476</ele>
        <time>2012-09-30T09:16:32Z</time>
      </trkpt>
      <trkpt lat="59.9744658" lon="17.7278409">
        <ele>22.2476</ele>
        <time>2012-09-30T09:16:33Z</time>
      </trkpt>
      <trkpt lat="59.9744707" lon="17.7278887">
        <ele>21.767</ele>
        <time>2012-09-30T09:16:34Z</time>
      </trkpt>
      <trkpt lat="59.9744737" lon="17.7279304">
        <ele>22.2476</ele>
        <time>2012-09-30T09:16:35Z</time>
      </trkpt>
      <trkpt lat="59.9744715" lon="17.72797">
        <ele>22.2476</ele>
        <time>2012-09-30T09:16:36Z</time>
      </trkpt>
      <trkpt lat="59.9744698" lon="17.7280149">
        <ele>22.2476</ele>
        <time>2012-09-30T09:16:37Z</time>
      </trkpt>
      <trkpt lat="59.9744694" lon="17.7280584">
        <ele>22.2476</ele>
        <time>2012-09-30T09:16:38Z</time>
      </trkpt>
      <trkpt lat="59.9744703" lon="17.728105">
        <ele>22.2476</ele>
        <time>2012-09-30T09:16:39Z</time>
      </trkpt>
      <trkpt lat="59.9744714" lon="17.728147">
        <ele>21.767</ele>
        <time>2012-09-30T09:16:40Z</time>
      </trkpt>
      <trkpt lat="59.9744735" lon="17.7281931">
        <ele>21.767</ele>
        <time>2012-09-30T09:16:41Z</time>
      </trkpt>
      <trkpt lat="59.9744766" lon="17.7282455">
        <ele>21.767</ele>
        <time>2012-09-30T09:16:42Z</time>
      </trkpt>
      <trkpt lat="59.9744803" lon="17.7282912">
        <ele>21.767</ele>
        <time>2012-09-30T09:16:43Z</time>
      </trkpt>
      <trkpt lat="59.9744836" lon="17.7283376">
        <ele>21.767</ele>
        <time>2012-09-30T09:16:44Z</time>
      </trkpt>
      <trkpt lat="59.9744852" lon="17.728388">
        <ele>21.767</ele>
        <time>2012-09-30T09:16:45Z</time>
      </trkpt>
      <trkpt lat="59.9744873" lon="17.7284363">
        <ele>22.2476</ele>
        <time>2012-09-30T09:16:46Z</time>
      </trkpt>
      <trkpt lat="59.974491" lon="17.7284811">
        <ele>22.7283</ele>
        <time>2012-09-30T09:16:47Z</time>
      </trkpt>
      <trkpt lat="59.9744939" lon="17.7285201">
        <ele>21.767</ele>
        <time>2012-09-30T09:16:48Z</time>
      </trkpt>
      <trkpt lat="59.9744953" lon="17.7285665">
        <ele>21.767</ele>
        <time>2012-09-30T09:16:49Z</time>
      </trkpt>
      <trkpt lat="59.9744988" lon="17.7286097">
        <ele>21.2864</ele>
        <time>2012-09-30T09:16:50Z</time>
      </trkpt>
      <trkpt lat="59.9744993" lon="17.7286559">
        <ele>21.2864</ele>
        <time>2012-09-30T09:16:51Z</time>
      </trkpt>
      <trkpt lat="59.9745014" lon="17.7287072">
        <ele>21.767</ele>
        <time>2012-09-30T09:16:52Z</time>
      </trkpt>
      <trkpt lat="59.9745054" lon="17.7287564">
        <ele>21.767</ele>
        <time>2012-09-30T09:16:53Z</time>
      </trkpt>
      <trkpt lat="59.9745039" lon="17.728809">
        <ele>22.2476</ele>
        <time>2012-09-30T09:16:54Z</time>
      </trkpt>
      <trkpt lat="59.9744997" lon="17.7288598">
        <ele>22.2476</ele>
        <time>2012-09-30T09:16:55Z</time>
      </trkpt>
      <trkpt lat="59.9744997" lon="17.7289086">
        <ele>23.209</ele>
        <time>2012-09-30T09:16:56Z</time>
      </trkpt>
      <trkpt lat="59.9744993" lon="17.7289597">
        <ele>23.209</ele>
        <time>2012-09-30T09:16:57Z</time>
      </trkpt>
      <trkpt lat="59.9744979" lon="17.7290089">
        <ele>23.6896</ele>
        <time>2012-09-30T09:16:58Z</time>
      </trkpt>
      <trkpt lat="59.9744991" lon="17.7290552">
        <ele>24.1703</ele>
        <time>2012-09-30T09:16:59Z</time>
      </trkpt>
      <trkpt lat="59.9745009" lon="17.7290994">
        <ele>24.651</ele>
        <time>2012-09-30T09:17:00Z</time>
      </trkpt>
      <trkpt lat="59.9744993" lon="17.7291411">
        <ele>24.651</ele>
        <time>2012-09-30T09:17:01Z</time>
      </trkpt>
      <trkpt lat="59.9744931" lon="17.7291827">
        <ele>24.651</ele>
        <time>2012-09-30T09:17:02Z</time>
      </trkpt>
      <trkpt lat="59.9744899" lon="17.7292314">
        <ele>24.651</ele>
        <time>2012-09-30T09:17:03Z</time>
      </trkpt>
      <trkpt lat="59.9744895" lon="17.7292788">
        <ele>25.1317</ele>
        <time>2012-09-30T09:17:04Z</time>
      </trkpt>
      <trkpt lat="59.9744864" lon="17.7293231">
        <ele>24.651</ele>
        <time>2012-09-30T09:17:05Z</time>
      </trkpt>
      <trkpt lat="59.9744849" lon="17.7293763">
        <ele>25.1317</ele>
        <time>2012-09-30T09:17:06Z</time>
      </trkpt>
      <trkpt lat="59.9744853" lon="17.7294277">
        <ele>25.1317</ele>
        <time>2012-09-30T09:17:07Z</time>
      </trkpt>
      <trkpt lat="59.9744858" lon="17.7294744">
        <ele>26.0929</ele>
        <time>2012-09-30T09:17:08Z</time>
      </trkpt>
      <trkpt lat="59.9744873" lon="17.7295241">
        <ele>27.0543</ele>
        <time>2012-09-30T09:17:09Z</time>
      </trkpt>
      <trkpt lat="59.9744874" lon="17.7295725">
        <ele>27.5349</ele>
        <time>2012-09-30T09:17:10Z</time>
      </trkpt>
      <trkpt lat="59.9744853" lon="17.7296212">
        <ele>28.0155</ele>
        <time>2012-09-30T09:17:11Z</time>
      </trkpt>
      <trkpt lat="59.9744795" lon="17.7296735">
        <ele>28.0155</ele>
        <time>2012-09-30T09:17:12Z</time>
      </trkpt>
      <trkpt lat="59.9744748" lon="17.7297246">
        <ele>28.0155</ele>
        <time>2012-09-30T09:17:13Z</time>
      </trkpt>
      <trkpt lat="59.974474" lon="17.7297754">
        <ele>28.9769</ele>
        <time>2012-09-30T09:17:14Z</time>
      </trkpt>
      <trkpt lat="59.9744703" lon="17.7298281">
        <ele>28.4962</ele>
        <time>2012-09-30T09:17:15Z</time>
      </trkpt>
      <trkpt lat="59.9744656" lon="17.7298815">
        <ele>28.9769</ele>
        <time>2012-09-30T09:17:16Z</time>
      </trkpt>
      <trkpt lat="59.9744625" lon="17.7299339">
        <ele>29.4575</ele>
        <time>2012-09-30T09:17:17Z</time>
      </trkpt>
      <trkpt lat="59.9744573" lon="17.7299835">
        <ele>29.9381</ele>
        <time>2012-09-30T09:17:18Z</time>
      </trkpt>
      <trkpt lat="59.974453" lon="17.7300332">
        <ele>29.9381</ele>
        <time>2012-09-30T09:17:19Z</time>
      </trkpt>
      <trkpt lat="59.9744479" lon="17.7300861">
        <ele>29.9381</ele>
        <time>2012-09-30T09:17:20Z</time>
      </trkpt>
      <trkpt lat="59.9744421" lon="17.7301368">
        <ele>30.4188</ele>
        <time>2012-09-30T09:17:21Z</time>
      </trkpt>
      <trkpt lat="59.9744375" lon="17.7301869">
        <ele>30.4188</ele>
        <time>2012-09-30T09:17:22Z</time>
      </trkpt>
      <trkpt lat="59.9744318" lon="17.7302351">
        <ele>29.9381</ele>
        <time>2012-09-30T09:17:23Z</time>
      </trkpt>
      <trkpt lat="59.9744268" lon="17.7302856">
        <ele>29.9381</ele>
        <time>2012-09-30T09:17:24Z</time>
      </trkpt>
      <trkpt lat="59.9744225" lon="17.7303351">
        <ele>29.9381</ele>
        <time>2012-09-30T09:17:25Z</time>
      </trkpt>
      <trkpt lat="59.974416" lon="17.7303829">
        <ele>29.9381</ele>
        <time>2012-09-30T09:17:26Z</time>
      </trkpt>
      <trkpt lat="59.9744093" lon="17.7304291">
        <ele>29.9381</ele>
        <time>2012-09-30T09:17:27Z</time>
      </trkpt>
      <trkpt lat="59.9744061" lon="17.7304734">
        <ele>29.9381</ele>
        <time>2012-09-30T09:17:28Z</time>
      </trkpt>
      <trkpt lat="59.9744036" lon="17.7305224">
        <ele>29.9381</ele>
        <time>2012-09-30T09:17:29Z</time>
      </trkpt>
      <trkpt lat="59.9743993" lon="17.7305708">
        <ele>29.9381</ele>
        <time>2012-09-30T09:17:30Z</time>
      </trkpt>
      <trkpt lat="59.9743953" lon="17.7306139">
        <ele>29.9381</ele>
        <time>2012-09-30T09:17:31Z</time>
      </trkpt>
      <trkpt lat="59.9743916" lon="17.7306638">
        <ele>29.9381</ele>
        <time>2012-09-30T09:17:32Z</time>
      </trkpt>
      <trkpt lat="59.9743874" lon="17.7307144">
        <ele>29.9381</ele>
        <time>2012-09-30T09:17:33Z</time>
      </trkpt>
      <trkpt lat="59.9743854" lon="17.7307648">
        <ele>29.9381</ele>
        <time>2012-09-30T09:17:34Z</time>
      </trkpt>
      <trkpt lat="59.9743816" lon="17.7308192">
        <ele>29.4575</ele>
        <time>2012-09-30T09:17:35Z</time>
      </trkpt>
      <trkpt lat="59.9743755" lon="17.7308829">
        <ele>28.4962</ele>
        <time>2012-09-30T09:17:36Z</time>
      </trkpt>
      <trkpt lat="59.9743736" lon="17.7309482">
        <ele>28.9769</ele>
        <time>2012-09-30T09:17:37Z</time>
      </trkpt>
      <trkpt lat="59.9743702" lon="17.731003">
        <ele>28.9769</ele>
        <time>2012-09-30T09:17:38Z</time>
      </trkpt>
      <trkpt lat="59.9743651" lon="17.7310509">
        <ele>28.4962</ele>
        <time>2012-09-30T09:17:39Z</time>
      </trkpt>
      <trkpt lat="59.9743616" lon="17.7311086">
        <ele>27.5349</ele>
        <time>2012-09-30T09:17:40Z</time>
      </trkpt>
      <trkpt lat="59.9743579" lon="17.7311631">
        <ele>27.5349</ele>
        <time>2012-09-30T09:17:41Z</time>
      </trkpt>
      <trkpt lat="59.9743549" lon="17.73121">
        <ele>27.0543</ele>
        <time>2012-09-30T09:17:42Z</time>
      </trkpt>
      <trkpt lat="59.9743538" lon="17.7312618">
        <ele>27.5349</ele>
        <time>2012-09-30T09:17:43Z</time>
      </trkpt>
      <trkpt lat="59.9743513" lon="17.7313071">
        <ele>27.0543</ele>
        <time>2012-09-30T09:17:44Z</time>
      </trkpt>
      <trkpt lat="59.9743492" lon="17.731352">
        <ele>27.0543</ele>
        <time>2012-09-30T09:17:45Z</time>
      </trkpt>
      <trkpt lat="59.9743479" lon="17.7314022">
        <ele>27.0543</ele>
        <time>2012-09-30T09:17:46Z</time>
      </trkpt>
      <trkpt lat="59.9743459" lon="17.7314477">
        <ele>27.0543</ele>
        <time>2012-09-30T09:17:47Z</time>
      </trkpt>
      <trkpt lat="59.9743439" lon="17.731491">
        <ele>27.0543</ele>
        <time>2012-09-30T09:17:48Z</time>
      </trkpt>
      <trkpt lat="59.9743411" lon="17.7315379">
        <ele>27.0543</ele>
        <time>2012-09-30T09:17:49Z</time>
      </trkpt>
      <trkpt lat="59.9743401" lon="17.7315819">
        <ele>27.5349</ele>
        <time>2012-09-30T09:17:50Z</time>
      </trkpt>
      <trkpt lat="59.9743397" lon="17.7316272">
        <ele>27.5349</ele>
        <time>2012-09-30T09:17:51Z</time>
      </trkpt>
      <trkpt lat="59.9743367" lon="17.7316707">
        <ele>27.0543</ele>
        <time>2012-09-30T09:17:52Z</time>
      </trkpt>
      <trkpt lat="59.9743349" lon="17.7317114">
        <ele>27.0543</ele>
        <time>2012-09-30T09:17:53Z</time>
      </trkpt>
      <trkpt lat="59.9743337" lon="17.731756">
        <ele>27.0543</ele>
        <time>2012-09-30T09:17:54Z</time>
      </trkpt>
      <trkpt lat="59.974332" lon="17.7317991">
        <ele>27.0543</ele>
        <time>2012-09-30T09:17:55Z</time>
      </trkpt>
      <trkpt lat="59.9743321" lon="17.7318412">
        <ele>27.0543</ele>
        <time>2012-09-30T09:17:56Z</time>
      </trkpt>
      <trkpt lat="59.9743304" lon="17.7318882">
        <ele>27.0543</ele>
        <time>2012-09-30T09:17:57Z</time>
      </trkpt>
      <trkpt lat="59.9743284" lon="17.7319337">
        <ele>27.0543</ele>
        <time>2012-09-30T09:17:58Z</time>
      </trkpt>
      <trkpt lat="59.9743299" lon="17.7319768">
        <ele>27.0543</ele>
        <time>2012-09-30T09:17:59Z</time>
      </trkpt>
      <trkpt lat="59.9743308" lon="17.7320215">
        <ele>27.0543</ele>
        <time>2012-09-30T09:18:00Z</time>
      </trkpt>
      <trkpt lat="59.9743304" lon="17.7320622">
        <ele>26.5736</ele>
        <time>2012-09-30T09:18:01Z</time>
      </trkpt>
      <trkpt lat="59.9743323" lon="17.7321082">
        <ele>26.5736</ele>
        <time>2012-09-30T09:18:02Z</time>
      </trkpt>
      <trkpt lat="59.974332" lon="17.7321586">
        <ele>26.5736</ele>
        <time>2012-09-30T09:18:03Z</time>
      </trkpt>
      <trkpt lat="59.9743315" lon="17.7322033">
        <ele>26.5736</ele>
        <time>2012-09-30T09:18:04Z</time>
      </trkpt>
      <trkpt lat="59.974333" lon="17.7322507">
        <ele>26.5736</ele>
        <time>2012-09-30T09:18:05Z</time>
      </trkpt>
      <trkpt lat="59.9743325" lon="17.7323059">
        <ele>26.5736</ele>
        <time>2012-09-30T09:18:06Z</time>
      </trkpt>
      <trkpt lat="59.9743342" lon="17.7323594">
        <ele>26.5736</ele>
        <time>2012-09-30T09:18:07Z</time>
      </trkpt>
      <trkpt lat="59.9743376" lon="17.7324133">
        <ele>26.5736</ele>
        <time>2012-09-30T09:18:08Z</time>
      </trkpt>
      <trkpt lat="59.9743387" lon="17.732457">
        <ele>27.0543</ele>
        <time>2012-09-30T09:18:09Z</time>
      </trkpt>
      <trkpt lat="59.9743419" lon="17.7324973">
        <ele>27.5349</ele>
        <time>2012-09-30T09:18:10Z</time>
      </trkpt>
      <trkpt lat="59.9743448" lon="17.7325414">
        <ele>27.5349</ele>
        <time>2012-09-30T09:18:11Z</time>
      </trkpt>
      <trkpt lat="59.9743435" lon="17.7325817">
        <ele>27.0543</ele>
        <time>2012-09-30T09:18:12Z</time>
      </trkpt>
      <trkpt lat="59.974343" lon="17.7326217">
        <ele>27.0543</ele>
        <time>2012-09-30T09:18:13Z</time>
      </trkpt>
      <trkpt lat="59.9743423" lon="17.7326694">
        <ele>27.0543</ele>
        <time>2012-09-30T09:18:14Z</time>
      </trkpt>
      <trkpt lat="59.9743407" lon="17.7327098">
        <ele>26.5736</ele>
        <time>2012-09-30T09:18:15Z</time>
      </trkpt>
      <trkpt lat="59.9743424" lon="17.7327471">
        <ele>26.5736</ele>
        <time>2012-09-30T09:18:16Z</time>
      </trkpt>
      <trkpt lat="59.9743435" lon="17.7327922">
        <ele>26.5736</ele>
        <time>2012-09-30T09:18:17Z</time>
      </trkpt>
      <trkpt lat="59.9743425" lon="17.7328345">
        <ele>26.5736</ele>
        <time>2012-09-30T09:18:18Z</time>
      </trkpt>
      <trkpt lat="59.9743429" lon="17.7328731">
        <ele>27.0543</ele>
        <time>2012-09-30T09:18:19Z</time>
      </trkpt>
      <trkpt lat="59.9743444" lon="17.7329191">
        <ele>27.0543</ele>
        <time>2012-09-30T09:18:20Z</time>
      </trkpt>
      <trkpt lat="59.9743448" lon="17.7329667">
        <ele>27.5349</ele>
        <time>2012-09-30T09:18:21Z</time>
      </trkpt>
      <trkpt lat="59.974346" lon="17.7330091">
        <ele>27.5349</ele>
        <time>2012-09-30T09:18:22Z</time>
      </trkpt>
      <trkpt lat="59.9743479" lon="17.7330548">
        <ele>27.5349</ele>
        <time>2012-09-30T09:18:23Z</time>
      </trkpt>
      <trkpt lat="59.9743486" lon="17.7331017">
        <ele>28.0155</ele>
        <time>2012-09-30T09:18:24Z</time>
      </trkpt>
      <trkpt lat="59.9743481" lon="17.7331408">
        <ele>28.4962</ele>
        <time>2012-09-30T09:18:25Z</time>
      </trkpt>
      <trkpt lat="59.974347" lon="17.7331795">
        <ele>28.4962</ele>
        <time>2012-09-30T09:18:26Z</time>
      </trkpt>
      <trkpt lat="59.9743442" lon="17.7332221">
        <ele>28.4962</ele>
        <time>2012-09-30T09:18:27Z</time>
      </trkpt>
      <trkpt lat="59.9743403" lon="17.7332613">
        <ele>28.4962</ele>
        <time>2012-09-30T09:18:28Z</time>
      </trkpt>
      <trkpt lat="59.9743377" lon="17.7333041">
        <ele>28.4962</ele>
        <time>2012-09-30T09:18:29Z</time>
      </trkpt>
      <trkpt lat="59.9743335" lon="17.733349">
        <ele>28.4962</ele>
        <time>2012-09-30T09:18:30Z</time>
      </trkpt>
      <trkpt lat="59.9743325" lon="17.7333921">
        <ele>28.4962</ele>
        <time>2012-09-30T09:18:31Z</time>
      </trkpt>
      <trkpt lat="59.9743316" lon="17.7334371">
        <ele>28.4962</ele>
        <time>2012-09-30T09:18:32Z</time>
      </trkpt>
      <trkpt lat="59.9743273" lon="17.7334837">
        <ele>28.4962</ele>
        <time>2012-09-30T09:18:33Z</time>
      </trkpt>
      <trkpt lat="59.9743237" lon="17.733528">
        <ele>28.4962</ele>
        <time>2012-09-30T09:18:34Z</time>
      </trkpt>
      <trkpt lat="59.9743215" lon="17.7335714">
        <ele>28.4962</ele>
        <time>2012-09-30T09:18:35Z</time>
      </trkpt>
      <trkpt lat="59.9743186" lon="17.7336148">
        <ele>28.4962</ele>
        <time>2012-09-30T09:18:36Z</time>
      </trkpt>
      <trkpt lat="59.9743152" lon="17.7336519">
        <ele>28.4962</ele>
        <time>2012-09-30T09:18:37Z</time>
      </trkpt>
      <trkpt lat="59.9743134" lon="17.7336903">
        <ele>28.4962</ele>
        <time>2012-09-30T09:18:38Z</time>
      </trkpt>
      <trkpt lat="59.9743092" lon="17.7337349">
        <ele>28.0155</ele>
        <time>2012-09-30T09:18:39Z</time>
      </trkpt>
      <trkpt lat="59.9743039" lon="17.7337803">
        <ele>27.5349</ele>
        <time>2012-09-30T09:18:40Z</time>
      </trkpt>
      <trkpt lat="59.9743019" lon="17.7338219">
        <ele>27.5349</ele>
        <time>2012-09-30T09:18:41Z</time>
      </trkpt>
      <trkpt lat="59.9743017" lon="17.7338663">
        <ele>27.5349</ele>
        <time>2012-09-30T09:18:42Z</time>
      </trkpt>
      <trkpt lat="59.9742983" lon="17.7339112">
        <ele>27.5349</ele>
        <time>2012-09-30T09:18:43Z</time>
      </trkpt>
      <trkpt lat="59.9742947" lon="17.7339504">
        <ele>27.5349</ele>
        <time>2012-09-30T09:18:44Z</time>
      </trkpt>
      <trkpt lat="59.9742935" lon="17.7339939">
        <ele>27.5349</ele>
        <time>2012-09-30T09:18:45Z</time>
      </trkpt>
      <trkpt lat="59.9742893" lon="17.7340369">
        <ele>27.5349</ele>
        <time>2012-09-30T09:18:46Z</time>
      </trkpt>
      <trkpt lat="59.9742867" lon="17.7340783">
        <ele>27.5349</ele>
        <time>2012-09-30T09:18:47Z</time>
      </trkpt>
      <trkpt lat="59.9742828" lon="17.7341172">
        <ele>27.5349</ele>
        <time>2012-09-30T09:18:48Z</time>
      </trkpt>
      <trkpt lat="59.9742769" lon="17.7341588">
        <ele>27.0543</ele>
        <time>2012-09-30T09:18:49Z</time>
      </trkpt>
      <trkpt lat="59.9742715" lon="17.734198">
        <ele>26.5736</ele>
        <time>2012-09-30T09:18:50Z</time>
      </trkpt>
      <trkpt lat="59.9742698" lon="17.734241">
        <ele>26.5736</ele>
        <time>2012-09-30T09:18:51Z</time>
      </trkpt>
      <trkpt lat="59.9742687" lon="17.7342886">
        <ele>26.5736</ele>
        <time>2012-09-30T09:18:52Z</time>
      </trkpt>
      <trkpt lat="59.9742678" lon="17.7343313">
        <ele>26.0929</ele>
        <time>2012-09-30T09:18:53Z</time>
      </trkpt>
      <trkpt lat="59.9742683" lon="17.7343737">
        <ele>26.0929</ele>
        <time>2012-09-30T09:18:54Z</time>
      </trkpt>
      <trkpt lat="59.9742683" lon="17.7344207">
        <ele>26.0929</ele>
        <time>2012-09-30T09:18:55Z</time>
      </trkpt>
      <trkpt lat="59.9742681" lon="17.7344643">
        <ele>26.0929</ele>
        <time>2012-09-30T09:18:56Z</time>
      </trkpt>
      <trkpt lat="59.9742692" lon="17.7345099">
        <ele>26.0929</ele>
        <time>2012-09-30T09:18:57Z</time>
      </trkpt>
      <trkpt lat="59.9742698" lon="17.7345574">
        <ele>26.0929</ele>
        <time>2012-09-30T09:18:58Z</time>
      </trkpt>
      <trkpt lat="59.9742688" lon="17.734599">
        <ele>25.6123</ele>
        <time>2012-09-30T09:18:59Z</time>
      </trkpt>
      <trkpt lat="59.9742698" lon="17.7346421">
        <ele>25.6123</ele>
        <time>2012-09-30T09:19:00Z</time>
      </trkpt>
      <trkpt lat="59.9742709" lon="17.7346911">
        <ele>25.6123</ele>
        <time>2012-09-30T09:19:01Z</time>
      </trkpt>
      <trkpt lat="59.9742707" lon="17.7347361">
        <ele>25.1317</ele>
        <time>2012-09-30T09:19:02Z</time>
      </trkpt>
      <trkpt lat="59.9742724" lon="17.7347814">
        <ele>25.1317</ele>
        <time>2012-09-30T09:19:03Z</time>
      </trkpt>
      <trkpt lat="59.9742743" lon="17.7348346">
        <ele>25.1317</ele>
        <time>2012-09-30T09:19:04Z</time>
      </trkpt>
      <trkpt lat="59.9742774" lon="17.7348887">
        <ele>25.6123</ele>
        <time>2012-09-30T09:19:05Z</time>
      </trkpt>
      <trkpt lat="59.9742813" lon="17.7349373">
        <ele>26.0929</ele>
        <time>2012-09-30T09:19:06Z</time>
      </trkpt>
      <trkpt lat="59.9742859" lon="17.7349844">
        <ele>26.5736</ele>
        <time>2012-09-30T09:19:07Z</time>
      </trkpt>
      <trkpt lat="59.9742896" lon="17.7350324">
        <ele>26.5736</ele>
        <time>2012-09-30T09:19:08Z</time>
      </trkpt>
      <trkpt lat="59.9742957" lon="17.7350834">
        <ele>27.0543</ele>
        <time>2012-09-30T09:19:09Z</time>
      </trkpt>
      <trkpt lat="59.9743018" lon="17.7351336">
        <ele>27.5349</ele>
        <time>2012-09-30T09:19:10Z</time>
      </trkpt>
      <trkpt lat="59.9743039" lon="17.7351753">
        <ele>27.5349</ele>
        <time>2012-09-30T09:19:11Z</time>
      </trkpt>
      <trkpt lat="59.974308" lon="17.7352171">
        <ele>28.0155</ele>
        <time>2012-09-30T09:19:12Z</time>
      </trkpt>
      <trkpt lat="59.9743128" lon="17.7352635">
        <ele>28.0155</ele>
        <time>2012-09-30T09:19:13Z</time>
      </trkpt>
      <trkpt lat="59.9743159" lon="17.7353057">
        <ele>28.0155</ele>
        <time>2012-09-30T09:19:14Z</time>
      </trkpt>
      <trkpt lat="59.9743214" lon="17.7353489">
        <ele>28.4962</ele>
        <time>2012-09-30T09:19:15Z</time>
      </trkpt>
      <trkpt lat="59.9743263" lon="17.7353951">
        <ele>28.4962</ele>
        <time>2012-09-30T09:19:16Z</time>
      </trkpt>
      <trkpt lat="59.9743294" lon="17.7354397">
        <ele>28.4962</ele>
        <time>2012-09-30T09:19:17Z</time>
      </trkpt>
      <trkpt lat="59.9743328" lon="17.7354794">
        <ele>28.0155</ele>
        <time>2012-09-30T09:19:18Z</time>
      </trkpt>
      <trkpt lat="59.9743398" lon="17.7355222">
        <ele>28.4962</ele>
        <time>2012-09-30T09:19:19Z</time>
      </trkpt>
      <trkpt lat="59.9743473" lon="17.7355614">
        <ele>28.9769</ele>
        <time>2012-09-30T09:19:20Z</time>
      </trkpt>
      <trkpt lat="59.9743569" lon="17.7355993">
        <ele>29.4575</ele>
        <time>2012-09-30T09:19:21Z</time>
      </trkpt>
      <trkpt lat="59.9743649" lon="17.7356411">
        <ele>29.4575</ele>
        <time>2012-09-30T09:19:22Z</time>
      </trkpt>
      <trkpt lat="59.9743713" lon="17.7356854">
        <ele>29.4575</ele>
        <time>2012-09-30T09:19:23Z</time>
      </trkpt>
      <trkpt lat="59.9743786" lon="17.7357252">
        <ele>29.4575</ele>
        <time>2012-09-30T09:19:24Z</time>
      </trkpt>
      <trkpt lat="59.9743873" lon="17.7357677">
        <ele>29.4575</ele>
        <time>2012-09-30T09:19:25Z</time>
      </trkpt>
      <trkpt lat="59.9743969" lon="17.7358102">
        <ele>29.9381</ele>
        <time>2012-09-30T09:19:26Z</time>
      </trkpt>
      <trkpt lat="59.9744083" lon="17.7358464">
        <ele>29.9381</ele>
        <time>2012-09-30T09:19:27Z</time>
      </trkpt>
      <trkpt lat="59.9744168" lon="17.7358837">
        <ele>30.4188</ele>
        <time>2012-09-30T09:19:28Z</time>
      </trkpt>
      <trkpt lat="59.9744219" lon="17.7359224">
        <ele>30.4188</ele>
        <time>2012-09-30T09:19:29Z</time>
      </trkpt>
      <trkpt lat="59.9744283" lon="17.7359607">
        <ele>30.8995</ele>
        <time>2012-09-30T09:19:30Z</time>
      </trkpt>
      <trkpt lat="59.9744402" lon="17.7360023">
        <ele>31.3801</ele>
        <time>2012-09-30T09:19:31Z</time>
      </trkpt>
      <trkpt lat="59.9744544" lon="17.7360441">
        <ele>31.3801</ele>
        <time>2012-09-30T09:19:32Z</time>
      </trkpt>
      <trkpt lat="59.9744668" lon="17.7360816">
        <ele>31.8607</ele>
        <time>2012-09-30T09:19:33Z</time>
      </trkpt>
      <trkpt lat="59.9744791" lon="17.7361172">
        <ele>32.3416</ele>
        <time>2012-09-30T09:19:34Z</time>
      </trkpt>
      <trkpt lat="59.9744922" lon="17.7361609">
        <ele>32.8223</ele>
        <time>2012-09-30T09:19:35Z</time>
      </trkpt>
      <trkpt lat="59.9745046" lon="17.7362084">
        <ele>32.8223</ele>
        <time>2012-09-30T09:19:36Z</time>
      </trkpt>
      <trkpt lat="59.9745149" lon="17.7362464">
        <ele>33.3029</ele>
        <time>2012-09-30T09:19:37Z</time>
      </trkpt>
      <trkpt lat="59.9745252" lon="17.7362864">
        <ele>33.3029</ele>
        <time>2012-09-30T09:19:38Z</time>
      </trkpt>
      <trkpt lat="59.9745366" lon="17.7363305">
        <ele>33.7834</ele>
        <time>2012-09-30T09:19:39Z</time>
      </trkpt>
      <trkpt lat="59.9745496" lon="17.7363674">
        <ele>34.2642</ele>
        <time>2012-09-30T09:19:40Z</time>
      </trkpt>
      <trkpt lat="59.9745637" lon="17.7364041">
        <ele>34.2642</ele>
        <time>2012-09-30T09:19:41Z</time>
      </trkpt>
      <trkpt lat="59.9745755" lon="17.7364457">
        <ele>35.2255</ele>
        <time>2012-09-30T09:19:42Z</time>
      </trkpt>
      <trkpt lat="59.9745858" lon="17.7364856">
        <ele>35.2255</ele>
        <time>2012-09-30T09:19:43Z</time>
      </trkpt>
      <trkpt lat="59.9745975" lon="17.7365191">
        <ele>35.7061</ele>
        <time>2012-09-30T09:19:44Z</time>
      </trkpt>
      <trkpt lat="59.9746045" lon="17.7365514">
        <ele>36.1868</ele>
        <time>2012-09-30T09:19:45Z</time>
      </trkpt>
      <trkpt lat="59.9746115" lon="17.7365855">
        <ele>36.1868</ele>
        <time>2012-09-30T09:19:46Z</time>
      </trkpt>
      <trkpt lat="59.9746222" lon="17.7366201">
        <ele>36.1868</ele>
        <time>2012-09-30T09:19:47Z</time>
      </trkpt>
      <trkpt lat="59.974635" lon="17.7366594">
        <ele>36.1868</ele>
        <time>2012-09-30T09:19:48Z</time>
      </trkpt>
      <trkpt lat="59.9746459" lon="17.736701">
        <ele>36.6675</ele>
        <time>2012-09-30T09:19:49Z</time>
      </trkpt>
      <trkpt lat="59.9746576" lon="17.7367368">
        <ele>36.6675</ele>
        <time>2012-09-30T09:19:50Z</time>
      </trkpt>
      <trkpt lat="59.9746713" lon="17.7367736">
        <ele>36.6675</ele>
        <time>2012-09-30T09:19:51Z</time>
      </trkpt>
      <trkpt lat="59.974683" lon="17.7368102">
        <ele>36.6675</ele>
        <time>2012-09-30T09:19:52Z</time>
      </trkpt>
      <trkpt lat="59.9746946" lon="17.7368461">
        <ele>37.1481</ele>
        <time>2012-09-30T09:19:53Z</time>
      </trkpt>
      <trkpt lat="59.974706" lon="17.7368832">
        <ele>37.6287</ele>
        <time>2012-09-30T09:19:54Z</time>
      </trkpt>
      <trkpt lat="59.974717" lon="17.7369185">
        <ele>38.1094</ele>
        <time>2012-09-30T09:19:55Z</time>
      </trkpt>
      <trkpt lat="59.9747252" lon="17.7369521">
        <ele>38.1094</ele>
        <time>2012-09-30T09:19:56Z</time>
      </trkpt>
      <trkpt lat="59.9747315" lon="17.7369892">
        <ele>38.1094</ele>
        <time>2012-09-30T09:19:57Z</time>
      </trkpt>
      <trkpt lat="59.9747423" lon="17.7370273">
        <ele>38.5901</ele>
        <time>2012-09-30T09:19:58Z</time>
      </trkpt>
      <trkpt lat="59.9747552" lon="17.7370614">
        <ele>38.5901</ele>
        <time>2012-09-30T09:19:59Z</time>
      </trkpt>
      <trkpt lat="59.9747719" lon="17.7371003">
        <ele>38.5901</ele>
        <time>2012-09-30T09:20:00Z</time>
      </trkpt>
      <trkpt lat="59.974788" lon="17.7371434">
        <ele>38.5901</ele>
        <time>2012-09-30T09:20:01Z</time>
      </trkpt>
      <trkpt lat="59.9748009" lon="17.7371818">
        <ele>38.1094</ele>
        <time>2012-09-30T09:20:02Z</time>
      </trkpt>
      <trkpt lat="59.9748168" lon="17.7372195">
        <ele>38.5901</ele>
        <time>2012-09-30T09:20:03Z</time>
      </trkpt>
      <trkpt lat="59.9748313" lon="17.7372588">
        <ele>38.5901</ele>
        <time>2012-09-30T09:20:04Z</time>
      </trkpt>
      <trkpt lat="59.9748453" lon="17.7372968">
        <ele>38.5901</ele>
        <time>2012-09-30T09:20:05Z</time>
      </trkpt>
      <trkpt lat="59.9748605" lon="17.7373337">
        <ele>38.5901</ele>
        <time>2012-09-30T09:20:06Z</time>
      </trkpt>
      <trkpt lat="59.9748768" lon="17.7373725">
        <ele>38.5901</ele>
        <time>2012-09-30T09:20:07Z</time>
      </trkpt>
      <trkpt lat="59.9748935" lon="17.7374071">
        <ele>38.1094</ele>
        <time>2012-09-30T09:20:08Z</time>
      </trkpt>
      <trkpt lat="59.9749091" lon="17.7374428">
        <ele>38.1094</ele>
        <time>2012-09-30T09:20:09Z</time>
      </trkpt>
      <trkpt lat="59.9749251" lon="17.7374799">
        <ele>37.6287</ele>
        <time>2012-09-30T09:20:10Z</time>
      </trkpt>
      <trkpt lat="59.974941" lon="17.7375115">
        <ele>37.6287</ele>
        <time>2012-09-30T09:20:11Z</time>
      </trkpt>
      <trkpt lat="59.9749572" lon="17.7375442">
        <ele>37.1481</ele>
        <time>2012-09-30T09:20:12Z</time>
      </trkpt>
      <trkpt lat="59.9749748" lon="17.7375807">
        <ele>37.1481</ele>
        <time>2012-09-30T09:20:13Z</time>
      </trkpt>
      <trkpt lat="59.9749887" lon="17.7376142">
        <ele>36.6675</ele>
        <time>2012-09-30T09:20:14Z</time>
      </trkpt>
      <trkpt lat="59.9750033" lon="17.7376458">
        <ele>36.1868</ele>
        <time>2012-09-30T09:20:15Z</time>
      </trkpt>
      <trkpt lat="59.9750194" lon="17.7376805">
        <ele>35.7061</ele>
        <time>2012-09-30T09:20:16Z</time>
      </trkpt>
      <trkpt lat="59.9750323" lon="17.7377162">
        <ele>34.7449</ele>
        <time>2012-09-30T09:20:17Z</time>
      </trkpt>
      <trkpt lat="59.9750463" lon="17.7377468">
        <ele>34.2642</ele>
        <time>2012-09-30T09:20:18Z</time>
      </trkpt>
      <trkpt lat="59.9750645" lon="17.7377807">
        <ele>33.7834</ele>
        <time>2012-09-30T09:20:19Z</time>
      </trkpt>
      <trkpt lat="59.9750816" lon="17.7378185">
        <ele>33.3029</ele>
        <time>2012-09-30T09:20:20Z</time>
      </trkpt>
      <trkpt lat="59.9750992" lon="17.7378506">
        <ele>33.7834</ele>
        <time>2012-09-30T09:20:21Z</time>
      </trkpt>
      <trkpt lat="59.9751156" lon="17.7378832">
        <ele>33.3029</ele>
        <time>2012-09-30T09:20:22Z</time>
      </trkpt>
      <trkpt lat="59.9751366" lon="17.7379188">
        <ele>33.7834</ele>
        <time>2012-09-30T09:20:23Z</time>
      </trkpt>
      <trkpt lat="59.9751596" lon="17.7379462">
        <ele>34.2642</ele>
        <time>2012-09-30T09:20:24Z</time>
      </trkpt>
      <trkpt lat="59.9751806" lon="17.7379741">
        <ele>34.2642</ele>
        <time>2012-09-30T09:20:25Z</time>
      </trkpt>
      <trkpt lat="59.9752023" lon="17.7380058">
        <ele>34.7449</ele>
        <time>2012-09-30T09:20:26Z</time>
      </trkpt>
      <trkpt lat="59.9752217" lon="17.7380318">
        <ele>34.7449</ele>
        <time>2012-09-30T09:20:27Z</time>
      </trkpt>
      <trkpt lat="59.97524" lon="17.7380587">
        <ele>34.7449</ele>
        <time>2012-09-30T09:20:28Z</time>
      </trkpt>
      <trkpt lat="59.9752561" lon="17.7380835">
        <ele>35.2255</ele>
        <time>2012-09-30T09:20:29Z</time>
      </trkpt>
      <trkpt lat="59.9752682" lon="17.7381068">
        <ele>34.7449</ele>
        <time>2012-09-30T09:20:30Z</time>
      </trkpt>
      <trkpt lat="59.9752856" lon="17.7381354">
        <ele>35.2255</ele>
        <time>2012-09-30T09:20:31Z</time>
      </trkpt>
      <trkpt lat="59.9753043" lon="17.7381679">
        <ele>35.7061</ele>
        <time>2012-09-30T09:20:32Z</time>
      </trkpt>
      <trkpt lat="59.9753243" lon="17.7382043">
        <ele>35.7061</ele>
        <time>2012-09-30T09:20:33Z</time>
      </trkpt>
      <trkpt lat="59.9753443" lon="17.7382415">
        <ele>35.7061</ele>
        <time>2012-09-30T09:20:34Z</time>
      </trkpt>
      <trkpt lat="59.9753598" lon="17.738277">
        <ele>35.7061</ele>
        <time>2012-09-30T09:20:35Z</time>
      </trkpt>
      <trkpt lat="59.9753754" lon="17.7383069">
        <ele>35.7061</ele>
        <time>2012-09-30T09:20:36Z</time>
      </trkpt>
      <trkpt lat="59.9753916" lon="17.7383338">
        <ele>35.2255</ele>
        <time>2012-09-30T09:20:37Z</time>
      </trkpt>
      <trkpt lat="59.9754077" lon="17.7383676">
        <ele>35.2255</ele>
        <time>2012-09-30T09:20:38Z</time>
      </trkpt>
      <trkpt lat="59.9754285" lon="17.7384007">
        <ele>35.7061</ele>
        <time>2012-09-30T09:20:39Z</time>
      </trkpt>
      <trkpt lat="59.9754491" lon="17.7384275">
        <ele>35.7061</ele>
        <time>2012-09-30T09:20:40Z</time>
      </trkpt>
      <trkpt lat="59.975468" lon="17.7384566">
        <ele>36.1868</ele>
        <time>2012-09-30T09:20:41Z</time>
      </trkpt>
      <trkpt lat="59.975489" lon="17.7384939">
        <ele>36.1868</ele>
        <time>2012-09-30T09:20:42Z</time>
      </trkpt>
      <trkpt lat="59.9755088" lon="17.7385265">
        <ele>36.1868</ele>
        <time>2012-09-30T09:20:43Z</time>
      </trkpt>
      <trkpt lat="59.9755312" lon="17.7385555">
        <ele>36.1868</ele>
        <time>2012-09-30T09:20:44Z</time>
      </trkpt>
      <trkpt lat="59.9755535" lon="17.7385876">
        <ele>36.1868</ele>
        <time>2012-09-30T09:20:45Z</time>
      </trkpt>
      <trkpt lat="59.975575" lon="17.7386176">
        <ele>36.1868</ele>
        <time>2012-09-30T09:20:46Z</time>
      </trkpt>
      <trkpt lat="59.9755957" lon="17.7386493">
        <ele>36.1868</ele>
        <time>2012-09-30T09:20:47Z</time>
      </trkpt>
      <trkpt lat="59.9756125" lon="17.7386845">
        <ele>36.1868</ele>
        <time>2012-09-30T09:20:48Z</time>
      </trkpt>
      <trkpt lat="59.9756279" lon="17.7387149">
        <ele>36.1868</ele>
        <time>2012-09-30T09:20:49Z</time>
      </trkpt>
      <trkpt lat="59.9756479" lon="17.738738">
        <ele>35.7061</ele>
        <time>2012-09-30T09:20:50Z</time>
      </trkpt>
      <trkpt lat="59.9756669" lon="17.7387641">
        <ele>35.7061</ele>
        <time>2012-09-30T09:20:51Z</time>
      </trkpt>
      <trkpt lat="59.9756808" lon="17.7387919">
        <ele>35.7061</ele>
        <time>2012-09-30T09:20:52Z</time>
      </trkpt>
      <trkpt lat="59.9756959" lon="17.7388202">
        <ele>35.2255</ele>
        <time>2012-09-30T09:20:53Z</time>
      </trkpt>
      <trkpt lat="59.975713" lon="17.7388514">
        <ele>34.7449</ele>
        <time>2012-09-30T09:20:54Z</time>
      </trkpt>
      <trkpt lat="59.9757332" lon="17.7388823">
        <ele>35.2255</ele>
        <time>2012-09-30T09:20:55Z</time>
      </trkpt>
      <trkpt lat="59.9757539" lon="17.7389148">
        <ele>35.2255</ele>
        <time>2012-09-30T09:20:56Z</time>
      </trkpt>
      <trkpt lat="59.9757757" lon="17.738946">
        <ele>35.2255</ele>
        <time>2012-09-30T09:20:57Z</time>
      </trkpt>
      <trkpt lat="59.9757975" lon="17.7389745">
        <ele>35.2255</ele>
        <time>2012-09-30T09:20:58Z</time>
      </trkpt>
      <trkpt lat="59.9758201" lon="17.7390055">
        <ele>35.7061</ele>
        <time>2012-09-30T09:20:59Z</time>
      </trkpt>
      <trkpt lat="59.9758434" lon="17.7390294">
        <ele>35.7061</ele>
        <time>2012-09-30T09:21:00Z</time>
      </trkpt>
      <trkpt lat="59.9758683" lon="17.7390544">
        <ele>35.7061</ele>
        <time>2012-09-30T09:21:01Z</time>
      </trkpt>
      <trkpt lat="59.9758886" lon="17.7390856">
        <ele>35.7061</ele>
        <time>2012-09-30T09:21:02Z</time>
      </trkpt>
      <trkpt lat="59.9759095" lon="17.7391115">
        <ele>35.7061</ele>
        <time>2012-09-30T09:21:03Z</time>
      </trkpt>
      <trkpt lat="59.9759343" lon="17.7391403">
        <ele>36.1868</ele>
        <time>2012-09-30T09:21:04Z</time>
      </trkpt>
      <trkpt lat="59.9759554" lon="17.7391704">
        <ele>35.7061</ele>
        <time>2012-09-30T09:21:05Z</time>
      </trkpt>
      <trkpt lat="59.9759751" lon="17.7391992">
        <ele>35.7061</ele>
        <time>2012-09-30T09:21:06Z</time>
      </trkpt>
      <trkpt lat="59.9759931" lon="17.7392322">
        <ele>35.7061</ele>
        <time>2012-09-30T09:21:07Z</time>
      </trkpt>
      <trkpt lat="59.9760119" lon="17.7392653">
        <ele>35.7061</ele>
        <time>2012-09-30T09:21:08Z</time>
      </trkpt>
      <trkpt lat="59.9760333" lon="17.7392977">
        <ele>35.7061</ele>
        <time>2012-09-30T09:21:09Z</time>
      </trkpt>
      <trkpt lat="59.9760565" lon="17.7393274">
        <ele>35.7061</ele>
        <time>2012-09-30T09:21:10Z</time>
      </trkpt>
      <trkpt lat="59.9760776" lon="17.739352">
        <ele>35.7061</ele>
        <time>2012-09-30T09:21:11Z</time>
      </trkpt>
      <trkpt lat="59.9760948" lon="17.7393842">
        <ele>35.7061</ele>
        <time>2012-09-30T09:21:12Z</time>
      </trkpt>
      <trkpt lat="59.9761112" lon="17.73942">
        <ele>36.1868</ele>
        <time>2012-09-30T09:21:13Z</time>
      </trkpt>
      <trkpt lat="59.9761285" lon="17.7394556">
        <ele>36.1868</ele>
        <time>2012-09-30T09:21:14Z</time>
      </trkpt>
      <trkpt lat="59.9761482" lon="17.7394962">
        <ele>36.1868</ele>
        <time>2012-09-30T09:21:15Z</time>
      </trkpt>
      <trkpt lat="59.9761637" lon="17.739531">
        <ele>35.7061</ele>
        <time>2012-09-30T09:21:16Z</time>
      </trkpt>
      <trkpt lat="59.9761793" lon="17.7395616">
        <ele>35.7061</ele>
        <time>2012-09-30T09:21:17Z</time>
      </trkpt>
      <trkpt lat="59.9761947" lon="17.7395921">
        <ele>35.7061</ele>
        <time>2012-09-30T09:21:18Z</time>
      </trkpt>
      <trkpt lat="59.9762089" lon="17.7396206">
        <ele>35.7061</ele>
        <time>2012-09-30T09:21:19Z</time>
      </trkpt>
      <trkpt lat="59.9762233" lon="17.7396543">
        <ele>35.7061</ele>
        <time>2012-09-30T09:21:20Z</time>
      </trkpt>
      <trkpt lat="59.976235" lon="17.7396884">
        <ele>35.2255</ele>
        <time>2012-09-30T09:21:21Z</time>
      </trkpt>
      <trkpt lat="59.9762489" lon="17.7397212">
        <ele>35.2255</ele>
        <time>2012-09-30T09:21:22Z</time>
      </trkpt>
      <trkpt lat="59.9762625" lon="17.7397547">
        <ele>34.7449</ele>
        <time>2012-09-30T09:21:23Z</time>
      </trkpt>
      <trkpt lat="59.9762771" lon="17.7397817">
        <ele>34.7449</ele>
        <time>2012-09-30T09:21:24Z</time>
      </trkpt>
      <trkpt lat="59.9762897" lon="17.7398082">
        <ele>34.7449</ele>
        <time>2012-09-30T09:21:25Z</time>
      </trkpt>
      <trkpt lat="59.9763041" lon="17.7398384">
        <ele>35.2255</ele>
        <time>2012-09-30T09:21:26Z</time>
      </trkpt>
      <trkpt lat="59.9763178" lon="17.7398752">
        <ele>35.2255</ele>
        <time>2012-09-30T09:21:27Z</time>
      </trkpt>
      <trkpt lat="59.9763323" lon="17.7399194">
        <ele>35.2255</ele>
        <time>2012-09-30T09:21:28Z</time>
      </trkpt>
      <trkpt lat="59.9763435" lon="17.7399633">
        <ele>35.2255</ele>
        <time>2012-09-30T09:21:29Z</time>
      </trkpt>
      <trkpt lat="59.9763532" lon="17.7400027">
        <ele>35.2255</ele>
        <time>2012-09-30T09:21:30Z</time>
      </trkpt>
      <trkpt lat="59.9763614" lon="17.7400448">
        <ele>35.2255</ele>
        <time>2012-09-30T09:21:31Z</time>
      </trkpt>
      <trkpt lat="59.9763648" lon="17.7400878">
        <ele>34.7449</ele>
        <time>2012-09-30T09:21:32Z</time>
      </trkpt>
      <trkpt lat="59.9763621" lon="17.740124">
        <ele>34.2642</ele>
        <time>2012-09-30T09:21:33Z</time>
      </trkpt>
      <trkpt lat="59.9763595" lon="17.740164">
        <ele>34.2642</ele>
        <time>2012-09-30T09:21:34Z</time>
      </trkpt>
      <trkpt lat="59.9763533" lon="17.740206">
        <ele>33.7834</ele>
        <time>2012-09-30T09:21:35Z</time>
      </trkpt>
      <trkpt lat="59.9763394" lon="17.7402441">
        <ele>33.7834</ele>
        <time>2012-09-30T09:21:36Z</time>
      </trkpt>
      <trkpt lat="59.9763257" lon="17.7402819">
        <ele>33.7834</ele>
        <time>2012-09-30T09:21:37Z</time>
      </trkpt>
      <trkpt lat="59.9763103" lon="17.740324">
        <ele>33.7834</ele>
        <time>2012-09-30T09:21:38Z</time>
      </trkpt>
      <trkpt lat="59.9762922" lon="17.7403665">
        <ele>33.7834</ele>
        <time>2012-09-30T09:21:39Z</time>
      </trkpt>
      <trkpt lat="59.9762756" lon="17.7404055">
        <ele>33.7834</ele>
        <time>2012-09-30T09:21:40Z</time>
      </trkpt>
      <trkpt lat="59.97626" lon="17.740443">
        <ele>33.7834</ele>
        <time>2012-09-30T09:21:41Z</time>
      </trkpt>
      <trkpt lat="59.9762443" lon="17.7404836">
        <ele>33.3029</ele>
        <time>2012-09-30T09:21:42Z</time>
      </trkpt>
      <trkpt lat="59.9762299" lon="17.7405235">
        <ele>33.7834</ele>
        <time>2012-09-30T09:21:43Z</time>
      </trkpt>
      <trkpt lat="59.9762149" lon="17.7405613">
        <ele>34.2642</ele>
        <time>2012-09-30T09:21:44Z</time>
      </trkpt>
      <trkpt lat="59.9761959" lon="17.7406079">
        <ele>34.2642</ele>
        <time>2012-09-30T09:21:45Z</time>
      </trkpt>
      <trkpt lat="59.9761782" lon="17.7406497">
        <ele>34.2642</ele>
        <time>2012-09-30T09:21:46Z</time>
      </trkpt>
      <trkpt lat="59.9761638" lon="17.7406795">
        <ele>34.7449</ele>
        <time>2012-09-30T09:21:47Z</time>
      </trkpt>
      <trkpt lat="59.9761471" lon="17.740712">
        <ele>35.2255</ele>
        <time>2012-09-30T09:21:48Z</time>
      </trkpt>
      <trkpt lat="59.9761329" lon="17.7407498">
        <ele>35.2255</ele>
        <time>2012-09-30T09:21:49Z</time>
      </trkpt>
      <trkpt lat="59.9761197" lon="17.7407805">
        <ele>35.7061</ele>
        <time>2012-09-30T09:21:50Z</time>
      </trkpt>
      <trkpt lat="59.9761058" lon="17.7408108">
        <ele>35.7061</ele>
        <time>2012-09-30T09:21:51Z</time>
      </trkpt>
      <trkpt lat="59.9760944" lon="17.7408519">
        <ele>36.1868</ele>
        <time>2012-09-30T09:21:52Z</time>
      </trkpt>
      <trkpt lat="59.9760821" lon="17.7408913">
        <ele>36.6675</ele>
        <time>2012-09-30T09:21:53Z</time>
      </trkpt>
      <trkpt lat="59.9760688" lon="17.7409328">
        <ele>36.6675</ele>
        <time>2012-09-30T09:21:54Z</time>
      </trkpt>
      <trkpt lat="59.9760548" lon="17.7409803">
        <ele>36.6675</ele>
        <time>2012-09-30T09:21:55Z</time>
      </trkpt>
      <trkpt lat="59.9760399" lon="17.7410214">
        <ele>37.1481</ele>
        <time>2012-09-30T09:21:56Z</time>
      </trkpt>
      <trkpt lat="59.9760269" lon="17.7410606">
        <ele>37.1481</ele>
        <time>2012-09-30T09:21:57Z</time>
      </trkpt>
      <trkpt lat="59.9760202" lon="17.7411058">
        <ele>37.1481</ele>
        <time>2012-09-30T09:21:58Z</time>
      </trkpt>
      <trkpt lat="59.9760067" lon="17.7411393">
        <ele>37.1481</ele>
        <time>2012-09-30T09:21:59Z</time>
      </trkpt>
      <trkpt lat="59.9759903" lon="17.7411675">
        <ele>37.1481</ele>
        <time>2012-09-30T09:22:00Z</time>
      </trkpt>
      <trkpt lat="59.9759756" lon="17.7412046">
        <ele>37.1481</ele>
        <time>2012-09-30T09:22:01Z</time>
      </trkpt>
      <trkpt lat="59.9759601" lon="17.7412399">
        <ele>37.1481</ele>
        <time>2012-09-30T09:22:02Z</time>
      </trkpt>
      <trkpt lat="59.9759473" lon="17.7412772">
        <ele>36.6675</ele>
        <time>2012-09-30T09:22:03Z</time>
      </trkpt>
      <trkpt lat="59.9759354" lon="17.7413155">
        <ele>37.1481</ele>
        <time>2012-09-30T09:22:04Z</time>
      </trkpt>
      <trkpt lat="59.9759223" lon="17.7413543">
        <ele>37.1481</ele>
        <time>2012-09-30T09:22:05Z</time>
      </trkpt>
      <trkpt lat="59.9759123" lon="17.7413901">
        <ele>37.1481</ele>
        <time>2012-09-30T09:22:06Z</time>
      </trkpt>
      <trkpt lat="59.9759052" lon="17.7414269">
        <ele>37.1481</ele>
        <time>2012-09-30T09:22:07Z</time>
      </trkpt>
      <trkpt lat="59.9758959" lon="17.7414668">
        <ele>37.1481</ele>
        <time>2012-09-30T09:22:08Z</time>
      </trkpt>
      <trkpt lat="59.9758849" lon="17.7415086">
        <ele>37.6287</ele>
        <time>2012-09-30T09:22:09Z</time>
      </trkpt>
      <trkpt lat="59.9758722" lon="17.7415578">
        <ele>37.6287</ele>
        <time>2012-09-30T09:22:10Z</time>
      </trkpt>
      <trkpt lat="59.9758592" lon="17.74161">
        <ele>37.1481</ele>
        <time>2012-09-30T09:22:11Z</time>
      </trkpt>
      <trkpt lat="59.9758447" lon="17.7416636">
        <ele>37.1481</ele>
        <time>2012-09-30T09:22:12Z</time>
      </trkpt>
      <trkpt lat="59.9758312" lon="17.7417059">
        <ele>36.6675</ele>
        <time>2012-09-30T09:22:13Z</time>
      </trkpt>
      <trkpt lat="59.9758177" lon="17.741746">
        <ele>36.6675</ele>
        <time>2012-09-30T09:22:14Z</time>
      </trkpt>
      <trkpt lat="59.9758057" lon="17.7417909">
        <ele>36.6675</ele>
        <time>2012-09-30T09:22:15Z</time>
      </trkpt>
      <trkpt lat="59.9757934" lon="17.7418318">
        <ele>36.1868</ele>
        <time>2012-09-30T09:22:16Z</time>
      </trkpt>
      <trkpt lat="59.9757791" lon="17.7418786">
        <ele>36.1868</ele>
        <time>2012-09-30T09:22:17Z</time>
      </trkpt>
      <trkpt lat="59.975766" lon="17.7419246">
        <ele>36.1868</ele>
        <time>2012-09-30T09:22:18Z</time>
      </trkpt>
      <trkpt lat="59.9757524" lon="17.741965">
        <ele>36.1868</ele>
        <time>2012-09-30T09:22:19Z</time>
      </trkpt>
      <trkpt lat="59.97574" lon="17.741997">
        <ele>35.7061</ele>
        <time>2012-09-30T09:22:20Z</time>
      </trkpt>
      <trkpt lat="59.9757322" lon="17.7420236">
        <ele>35.2255</ele>
        <time>2012-09-30T09:22:21Z</time>
      </trkpt>
      <trkpt lat="59.9757253" lon="17.7420558">
        <ele>35.2255</ele>
        <time>2012-09-30T09:22:22Z</time>
      </trkpt>
      <trkpt lat="59.9757162" lon="17.7420971">
        <ele>35.2255</ele>
        <time>2012-09-30T09:22:23Z</time>
      </trkpt>
      <trkpt lat="59.9757059" lon="17.7421389">
        <ele>35.7061</ele>
        <time>2012-09-30T09:22:24Z</time>
      </trkpt>
      <trkpt lat="59.9756945" lon="17.7421767">
        <ele>35.7061</ele>
        <time>2012-09-30T09:22:25Z</time>
      </trkpt>
      <trkpt lat="59.9756831" lon="17.7422162">
        <ele>35.7061</ele>
        <time>2012-09-30T09:22:26Z</time>
      </trkpt>
      <trkpt lat="59.975673" lon="17.7422472">
        <ele>35.7061</ele>
        <time>2012-09-30T09:22:27Z</time>
      </trkpt>
      <trkpt lat="59.9756637" lon="17.7422784">
        <ele>35.7061</ele>
        <time>2012-09-30T09:22:28Z</time>
      </trkpt>
      <trkpt lat="59.9756546" lon="17.7423158">
        <ele>35.7061</ele>
        <time>2012-09-30T09:22:29Z</time>
      </trkpt>
      <trkpt lat="59.9756439" lon="17.7423525">
        <ele>35.7061</ele>
        <time>2012-09-30T09:22:30Z</time>
      </trkpt>
      <trkpt lat="59.9756325" lon="17.7423867">
        <ele>35.7061</ele>
        <time>2012-09-30T09:22:31Z</time>
      </trkpt>
      <trkpt lat="59.9756249" lon="17.7424172">
        <ele>35.7061</ele>
        <time>2012-09-30T09:22:32Z</time>
      </trkpt>
      <trkpt lat="59.9756171" lon="17.7424374">
        <ele>35.7061</ele>
        <time>2012-09-30T09:22:33Z</time>
      </trkpt>
      <trkpt lat="59.9756062" lon="17.7424635">
        <ele>35.7061</ele>
        <time>2012-09-30T09:22:34Z</time>
      </trkpt>
      <trkpt lat="59.9755988" lon="17.7424855">
        <ele>35.7061</ele>
        <time>2012-09-30T09:22:35Z</time>
      </trkpt>
      <trkpt lat="59.9755959" lon="17.7424791">
        <ele>35.2255</ele>
        <time>2012-09-30T09:22:36Z</time>
      </trkpt>
      <trkpt lat="59.9755877" lon="17.7425018">
        <ele>35.2255</ele>
        <time>2012-09-30T09:22:37Z</time>
      </trkpt>
      <trkpt lat="59.9755727" lon="17.742543">
        <ele>35.2255</ele>
        <time>2012-09-30T09:22:38Z</time>
      </trkpt>
      <trkpt lat="59.9755548" lon="17.7425862">
        <ele>36.1868</ele>
        <time>2012-09-30T09:22:39Z</time>
      </trkpt>
      <trkpt lat="59.975541" lon="17.7426297">
        <ele>36.6675</ele>
        <time>2012-09-30T09:22:40Z</time>
      </trkpt>
      <trkpt lat="59.9755232" lon="17.7426658">
        <ele>37.1481</ele>
        <time>2012-09-30T09:22:41Z</time>
      </trkpt>
      <trkpt lat="59.9755043" lon="17.7427022">
        <ele>37.1481</ele>
        <time>2012-09-30T09:22:42Z</time>
      </trkpt>
      <trkpt lat="59.9754882" lon="17.7427469">
        <ele>37.1481</ele>
        <time>2012-09-30T09:22:43Z</time>
      </trkpt>
      <trkpt lat="59.9754747" lon="17.742787">
        <ele>37.6287</ele>
        <time>2012-09-30T09:22:44Z</time>
      </trkpt>
      <trkpt lat="59.9754654" lon="17.7428193">
        <ele>38.1094</ele>
        <time>2012-09-30T09:22:45Z</time>
      </trkpt>
      <trkpt lat="59.9754571" lon="17.7428481">
        <ele>38.1094</ele>
        <time>2012-09-30T09:22:46Z</time>
      </trkpt>
      <trkpt lat="59.9754494" lon="17.7428662">
        <ele>38.1094</ele>
        <time>2012-09-30T09:22:47Z</time>
      </trkpt>
      <trkpt lat="59.9754411" lon="17.7428857">
        <ele>36.1868</ele>
        <time>2012-09-30T09:22:48Z</time>
      </trkpt>
      <trkpt lat="59.9754286" lon="17.7429301">
        <ele>35.7061</ele>
        <time>2012-09-30T09:22:49Z</time>
      </trkpt>
      <trkpt lat="59.9754172" lon="17.7429778">
        <ele>35.7061</ele>
        <time>2012-09-30T09:22:50Z</time>
      </trkpt>
      <trkpt lat="59.9754074" lon="17.7430292">
        <ele>35.7061</ele>
        <time>2012-09-30T09:22:51Z</time>
      </trkpt>
      <trkpt lat="59.9753975" lon="17.7430874">
        <ele>35.7061</ele>
        <time>2012-09-30T09:22:52Z</time>
      </trkpt>
      <trkpt lat="59.9753887" lon="17.7431465">
        <ele>35.2255</ele>
        <time>2012-09-30T09:22:53Z</time>
      </trkpt>
      <trkpt lat="59.9753789" lon="17.7432051">
        <ele>35.7061</ele>
        <time>2012-09-30T09:22:54Z</time>
      </trkpt>
      <trkpt lat="59.9753663" lon="17.7432409">
        <ele>34.7449</ele>
        <time>2012-09-30T09:22:55Z</time>
      </trkpt>
      <trkpt lat="59.9753552" lon="17.7432817">
        <ele>34.2642</ele>
        <time>2012-09-30T09:22:56Z</time>
      </trkpt>
      <trkpt lat="59.9753461" lon="17.7433223">
        <ele>33.7834</ele>
        <time>2012-09-30T09:22:57Z</time>
      </trkpt>
      <trkpt lat="59.9753398" lon="17.7433702">
        <ele>33.3029</ele>
        <time>2012-09-30T09:22:58Z</time>
      </trkpt>
      <trkpt lat="59.9753339" lon="17.7434145">
        <ele>32.8223</ele>
        <time>2012-09-30T09:22:59Z</time>
      </trkpt>
      <trkpt lat="59.9753324" lon="17.7434479">
        <ele>32.8223</ele>
        <time>2012-09-30T09:23:00Z</time>
      </trkpt>
      <trkpt lat="59.9753285" lon="17.7434799">
        <ele>32.3416</ele>
        <time>2012-09-30T09:23:01Z</time>
      </trkpt>
      <trkpt lat="59.9753193" lon="17.7435143">
        <ele>31.8607</ele>
        <time>2012-09-30T09:23:02Z</time>
      </trkpt>
      <trkpt lat="59.975311" lon="17.7435448">
        <ele>31.8607</ele>
        <time>2012-09-30T09:23:03Z</time>
      </trkpt>
      <trkpt lat="59.9753022" lon="17.7435802">
        <ele>31.3801</ele>
        <time>2012-09-30T09:23:04Z</time>
      </trkpt>
      <trkpt lat="59.9752954" lon="17.743628">
        <ele>30.8995</ele>
        <time>2012-09-30T09:23:05Z</time>
      </trkpt>
      <trkpt lat="59.9752917" lon="17.7436807">
        <ele>31.3801</ele>
        <time>2012-09-30T09:23:06Z</time>
      </trkpt>
      <trkpt lat="59.9752868" lon="17.7437185">
        <ele>31.3801</ele>
        <time>2012-09-30T09:23:07Z</time>
      </trkpt>
      <trkpt lat="59.9752789" lon="17.7437587">
        <ele>30.8995</ele>
        <time>2012-09-30T09:23:08Z</time>
      </trkpt>
      <trkpt lat="59.9752711" lon="17.7438108">
        <ele>31.3801</ele>
        <time>2012-09-30T09:23:09Z</time>
      </trkpt>
      <trkpt lat="59.9752622" lon="17.7438594">
        <ele>31.3801</ele>
        <time>2012-09-30T09:23:10Z</time>
      </trkpt>
      <trkpt lat="59.9752511" lon="17.7438992">
        <ele>31.3801</ele>
        <time>2012-09-30T09:23:11Z</time>
      </trkpt>
      <trkpt lat="59.9752432" lon="17.7439449">
        <ele>31.3801</ele>
        <time>2012-09-30T09:23:12Z</time>
      </trkpt>
      <trkpt lat="59.9752385" lon="17.7440058">
        <ele>32.3416</ele>
        <time>2012-09-30T09:23:13Z</time>
      </trkpt>
      <trkpt lat="59.9752339" lon="17.7440274">
        <ele>32.3416</ele>
        <time>2012-09-30T09:23:14Z</time>
      </trkpt>
      <trkpt lat="59.975223" lon="17.7440576">
        <ele>32.3416</ele>
        <time>2012-09-30T09:23:15Z</time>
      </trkpt>
      <trkpt lat="59.9752101" lon="17.744091">
        <ele>31.3801</ele>
        <time>2012-09-30T09:23:16Z</time>
      </trkpt>
      <trkpt lat="59.9751995" lon="17.7441174">
        <ele>31.3801</ele>
        <time>2012-09-30T09:23:17Z</time>
      </trkpt>
      <trkpt lat="59.9751912" lon="17.7441512">
        <ele>30.4188</ele>
        <time>2012-09-30T09:23:18Z</time>
      </trkpt>
      <trkpt lat="59.9751774" lon="17.7441908">
        <ele>30.4188</ele>
        <time>2012-09-30T09:23:19Z</time>
      </trkpt>
      <trkpt lat="59.9751606" lon="17.7442335">
        <ele>30.4188</ele>
        <time>2012-09-30T09:23:20Z</time>
      </trkpt>
      <trkpt lat="59.9751475" lon="17.744282">
        <ele>30.4188</ele>
        <time>2012-09-30T09:23:21Z</time>
      </trkpt>
      <trkpt lat="59.9751395" lon="17.7443252">
        <ele>30.4188</ele>
        <time>2012-09-30T09:23:22Z</time>
      </trkpt>
      <trkpt lat="59.9751316" lon="17.7443655">
        <ele>29.9381</ele>
        <time>2012-09-30T09:23:23Z</time>
      </trkpt>
      <trkpt lat="59.9751207" lon="17.7444014">
        <ele>28.9769</ele>
        <time>2012-09-30T09:23:24Z</time>
      </trkpt>
      <trkpt lat="59.9751075" lon="17.744451">
        <ele>29.9381</ele>
        <time>2012-09-30T09:23:25Z</time>
      </trkpt>
      <trkpt lat="59.9750949" lon="17.7445048">
        <ele>30.8995</ele>
        <time>2012-09-30T09:23:26Z</time>
      </trkpt>
      <trkpt lat="59.9750842" lon="17.7445551">
        <ele>31.3801</ele>
        <time>2012-09-30T09:23:27Z</time>
      </trkpt>
      <trkpt lat="59.9750691" lon="17.744609">
        <ele>32.8223</ele>
        <time>2012-09-30T09:23:28Z</time>
      </trkpt>
      <trkpt lat="59.9750539" lon="17.7446644">
        <ele>33.7834</ele>
        <time>2012-09-30T09:23:29Z</time>
      </trkpt>
      <trkpt lat="59.9750409" lon="17.7447166">
        <ele>34.2642</ele>
        <time>2012-09-30T09:23:30Z</time>
      </trkpt>
      <trkpt lat="59.9750277" lon="17.7447715">
        <ele>34.2642</ele>
        <time>2012-09-30T09:23:31Z</time>
      </trkpt>
      <trkpt lat="59.9750161" lon="17.7448177">
        <ele>34.7449</ele>
        <time>2012-09-30T09:23:32Z</time>
      </trkpt>
      <trkpt lat="59.9750043" lon="17.7448629">
        <ele>34.7449</ele>
        <time>2012-09-30T09:23:33Z</time>
      </trkpt>
      <trkpt lat="59.974994" lon="17.7448863">
        <ele>34.7449</ele>
        <time>2012-09-30T09:23:34Z</time>
      </trkpt>
      <trkpt lat="59.9749851" lon="17.7449085">
        <ele>34.7449</ele>
        <time>2012-09-30T09:23:35Z</time>
      </trkpt>
      <trkpt lat="59.9749785" lon="17.7449334">
        <ele>35.2255</ele>
        <time>2012-09-30T09:23:36Z</time>
      </trkpt>
      <trkpt lat="59.9749669" lon="17.7449714">
        <ele>36.1868</ele>
        <time>2012-09-30T09:23:37Z</time>
      </trkpt>
      <trkpt lat="59.9749513" lon="17.7450282">
        <ele>36.6675</ele>
        <time>2012-09-30T09:23:38Z</time>
      </trkpt>
      <trkpt lat="59.9749387" lon="17.7450763">
        <ele>36.6675</ele>
        <time>2012-09-30T09:23:39Z</time>
      </trkpt>
      <trkpt lat="59.974922" lon="17.7451111">
        <ele>36.1868</ele>
        <time>2012-09-30T09:23:40Z</time>
      </trkpt>
      <trkpt lat="59.9749003" lon="17.7451327">
        <ele>36.1868</ele>
        <time>2012-09-30T09:23:41Z</time>
      </trkpt>
      <trkpt lat="59.9748832" lon="17.7451518">
        <ele>36.1868</ele>
        <time>2012-09-30T09:23:42Z</time>
      </trkpt>
      <trkpt lat="59.9748676" lon="17.7451833">
        <ele>36.6675</ele>
        <time>2012-09-30T09:23:43Z</time>
      </trkpt>
      <trkpt lat="59.974852" lon="17.7452187">
        <ele>36.6675</ele>
        <time>2012-09-30T09:23:44Z</time>
      </trkpt>
      <trkpt lat="59.974838" lon="17.745258">
        <ele>36.1868</ele>
        <time>2012-09-30T09:23:45Z</time>
      </trkpt>
      <trkpt lat="59.9748234" lon="17.7452962">
        <ele>36.1868</ele>
        <time>2012-09-30T09:23:46Z</time>
      </trkpt>
      <trkpt lat="59.9748029" lon="17.7453259">
        <ele>36.1868</ele>
        <time>2012-09-30T09:23:47Z</time>
      </trkpt>
      <trkpt lat="59.9747851" lon="17.7453616">
        <ele>36.1868</ele>
        <time>2012-09-30T09:23:48Z</time>
      </trkpt>
      <trkpt lat="59.9747692" lon="17.7454005">
        <ele>36.1868</ele>
        <time>2012-09-30T09:23:49Z</time>
      </trkpt>
      <trkpt lat="59.9747531" lon="17.7454377">
        <ele>35.7061</ele>
        <time>2012-09-30T09:23:50Z</time>
      </trkpt>
      <trkpt lat="59.9747401" lon="17.7454808">
        <ele>36.1868</ele>
        <time>2012-09-30T09:23:51Z</time>
      </trkpt>
      <trkpt lat="59.9747196" lon="17.7455407">
        <ele>36.1868</ele>
        <time>2012-09-30T09:23:53Z</time>
      </trkpt>
      <trkpt lat="59.9747076" lon="17.7455792">
        <ele>36.6675</ele>
        <time>2012-09-30T09:23:54Z</time>
      </trkpt>
      <trkpt lat="59.9746858" lon="17.7456275">
        <ele>36.6675</ele>
        <time>2012-09-30T09:23:55Z</time>
      </trkpt>
      <trkpt lat="59.9746649" lon="17.7456869">
        <ele>36.6675</ele>
        <time>2012-09-30T09:23:56Z</time>
      </trkpt>
      <trkpt lat="59.9746445" lon="17.7457476">
        <ele>37.1481</ele>
        <time>2012-09-30T09:23:57Z</time>
      </trkpt>
      <trkpt lat="59.9746257" lon="17.7457995">
        <ele>37.6287</ele>
        <time>2012-09-30T09:23:58Z</time>
      </trkpt>
      <trkpt lat="59.9746072" lon="17.745843">
        <ele>38.1094</ele>
        <time>2012-09-30T09:23:59Z</time>
      </trkpt>
      <trkpt lat="59.9745895" lon="17.7458841">
        <ele>38.1094</ele>
        <time>2012-09-30T09:24:00Z</time>
      </trkpt>
      <trkpt lat="59.9745743" lon="17.7459247">
        <ele>38.5901</ele>
        <time>2012-09-30T09:24:01Z</time>
      </trkpt>
      <trkpt lat="59.9745579" lon="17.7459616">
        <ele>38.1094</ele>
        <time>2012-09-30T09:24:02Z</time>
      </trkpt>
      <trkpt lat="59.9745386" lon="17.7459947">
        <ele>38.1094</ele>
        <time>2012-09-30T09:24:03Z</time>
      </trkpt>
      <trkpt lat="59.9745221" lon="17.7460266">
        <ele>38.1094</ele>
        <time>2012-09-30T09:24:04Z</time>
      </trkpt>
      <trkpt lat="59.9745056" lon="17.7460568">
        <ele>38.1094</ele>
        <time>2012-09-30T09:24:05Z</time>
      </trkpt>
      <trkpt lat="59.9744868" lon="17.7460886">
        <ele>38.1094</ele>
        <time>2012-09-30T09:24:06Z</time>
      </trkpt>
      <trkpt lat="59.9744655" lon="17.7461252">
        <ele>38.1094</ele>
        <time>2012-09-30T09:24:07Z</time>
      </trkpt>
      <trkpt lat="59.9744424" lon="17.7461532">
        <ele>38.1094</ele>
        <time>2012-09-30T09:24:08Z</time>
      </trkpt>
      <trkpt lat="59.9744195" lon="17.7461895">
        <ele>38.1094</ele>
        <time>2012-09-30T09:24:09Z</time>
      </trkpt>
      <trkpt lat="59.9744014" lon="17.7462214">
        <ele>38.1094</ele>
        <time>2012-09-30T09:24:10Z</time>
      </trkpt>
      <trkpt lat="59.9743828" lon="17.74625">
        <ele>38.1094</ele>
        <time>2012-09-30T09:24:11Z</time>
      </trkpt>
      <trkpt lat="59.9743609" lon="17.7462747">
        <ele>38.5901</ele>
        <time>2012-09-30T09:24:12Z</time>
      </trkpt>
      <trkpt lat="59.9743388" lon="17.7462947">
        <ele>38.1094</ele>
        <time>2012-09-30T09:24:13Z</time>
      </trkpt>
      <trkpt lat="59.9743201" lon="17.7463208">
        <ele>38.1094</ele>
        <time>2012-09-30T09:24:14Z</time>
      </trkpt>
      <trkpt lat="59.9743017" lon="17.7463438">
        <ele>38.5901</ele>
        <time>2012-09-30T09:24:15Z</time>
      </trkpt>
      <trkpt lat="59.9742795" lon="17.7463623">
        <ele>38.5901</ele>
        <time>2012-09-30T09:24:16Z</time>
      </trkpt>
      <trkpt lat="59.9742603" lon="17.7463856">
        <ele>38.5901</ele>
        <time>2012-09-30T09:24:17Z</time>
      </trkpt>
      <trkpt lat="59.974242" lon="17.7464086">
        <ele>38.1094</ele>
        <time>2012-09-30T09:24:18Z</time>
      </trkpt>
      <trkpt lat="59.9742187" lon="17.7464293">
        <ele>38.1094</ele>
        <time>2012-09-30T09:24:19Z</time>
      </trkpt>
      <trkpt lat="59.9741977" lon="17.7464662">
        <ele>38.1094</ele>
        <time>2012-09-30T09:24:20Z</time>
      </trkpt>
      <trkpt lat="59.9741787" lon="17.7465049">
        <ele>38.1094</ele>
        <time>2012-09-30T09:24:21Z</time>
      </trkpt>
      <trkpt lat="59.9741622" lon="17.7465339">
        <ele>38.1094</ele>
        <time>2012-09-30T09:24:22Z</time>
      </trkpt>
      <trkpt lat="59.9741466" lon="17.7465684">
        <ele>38.1094</ele>
        <time>2012-09-30T09:24:23Z</time>
      </trkpt>
      <trkpt lat="59.9741315" lon="17.746607">
        <ele>38.5901</ele>
        <time>2012-09-30T09:24:24Z</time>
      </trkpt>
      <trkpt lat="59.9741165" lon="17.7466411">
        <ele>38.5901</ele>
        <time>2012-09-30T09:24:25Z</time>
      </trkpt>
      <trkpt lat="59.9741013" lon="17.7466748">
        <ele>38.5901</ele>
        <time>2012-09-30T09:24:26Z</time>
      </trkpt>
      <trkpt lat="59.9740835" lon="17.7467076">
        <ele>38.5901</ele>
        <time>2012-09-30T09:24:27Z</time>
      </trkpt>
      <trkpt lat="59.9740684" lon="17.7467466">
        <ele>39.0707</ele>
        <time>2012-09-30T09:24:28Z</time>
      </trkpt>
      <trkpt lat="59.9740527" lon="17.7467801">
        <ele>39.0707</ele>
        <time>2012-09-30T09:24:29Z</time>
      </trkpt>
      <trkpt lat="59.9740346" lon="17.746812">
        <ele>38.5901</ele>
        <time>2012-09-30T09:24:30Z</time>
      </trkpt>
      <trkpt lat="59.9740189" lon="17.7468425">
        <ele>38.5901</ele>
        <time>2012-09-30T09:24:31Z</time>
      </trkpt>
      <trkpt lat="59.9740062" lon="17.7468789">
        <ele>38.5901</ele>
        <time>2012-09-30T09:24:32Z</time>
      </trkpt>
      <trkpt lat="59.9739874" lon="17.7469038">
        <ele>38.5901</ele>
        <time>2012-09-30T09:24:33Z</time>
      </trkpt>
      <trkpt lat="59.9739656" lon="17.7469302">
        <ele>38.5901</ele>
        <time>2012-09-30T09:24:34Z</time>
      </trkpt>
      <trkpt lat="59.9739445" lon="17.7469538">
        <ele>38.5901</ele>
        <time>2012-09-30T09:24:35Z</time>
      </trkpt>
      <trkpt lat="59.9739267" lon="17.7469758">
        <ele>38.1094</ele>
        <time>2012-09-30T09:24:36Z</time>
      </trkpt>
      <trkpt lat="59.9739086" lon="17.7470037">
        <ele>38.1094</ele>
        <time>2012-09-30T09:24:37Z</time>
      </trkpt>
      <trkpt lat="59.9738926" lon="17.74703">
        <ele>38.1094</ele>
        <time>2012-09-30T09:24:38Z</time>
      </trkpt>
      <trkpt lat="59.9738741" lon="17.7470504">
        <ele>38.1094</ele>
        <time>2012-09-30T09:24:39Z</time>
      </trkpt>
      <trkpt lat="59.9738523" lon="17.7470694">
        <ele>38.1094</ele>
        <time>2012-09-30T09:24:40Z</time>
      </trkpt>
      <trkpt lat="59.9738337" lon="17.7470892">
        <ele>38.1094</ele>
        <time>2012-09-30T09:24:41Z</time>
      </trkpt>
      <trkpt lat="59.9738148" lon="17.7471094">
        <ele>37.6287</ele>
        <time>2012-09-30T09:24:42Z</time>
      </trkpt>
      <trkpt lat="59.9737938" lon="17.7471302">
        <ele>37.6287</ele>
        <time>2012-09-30T09:24:43Z</time>
      </trkpt>
      <trkpt lat="59.9737736" lon="17.7471515">
        <ele>37.6287</ele>
        <time>2012-09-30T09:24:44Z</time>
      </trkpt>
      <trkpt lat="59.9737564" lon="17.7471735">
        <ele>37.6287</ele>
        <time>2012-09-30T09:24:45Z</time>
      </trkpt>
      <trkpt lat="59.9737368" lon="17.7471935">
        <ele>37.6287</ele>
        <time>2012-09-30T09:24:46Z</time>
      </trkpt>
      <trkpt lat="59.9737161" lon="17.7472089">
        <ele>38.1094</ele>
        <time>2012-09-30T09:24:47Z</time>
      </trkpt>
      <trkpt lat="59.9736969" lon="17.7472141">
        <ele>38.1094</ele>
        <time>2012-09-30T09:24:48Z</time>
      </trkpt>
      <trkpt lat="59.9736791" lon="17.747237">
        <ele>38.1094</ele>
        <time>2012-09-30T09:24:49Z</time>
      </trkpt>
      <trkpt lat="59.9736582" lon="17.747258">
        <ele>38.5901</ele>
        <time>2012-09-30T09:24:50Z</time>
      </trkpt>
      <trkpt lat="59.9736361" lon="17.7472793">
        <ele>38.5901</ele>
        <time>2012-09-30T09:24:51Z</time>
      </trkpt>
      <trkpt lat="59.9736178" lon="17.7472934">
        <ele>38.5901</ele>
        <time>2012-09-30T09:24:52Z</time>
      </trkpt>
      <trkpt lat="59.9735993" lon="17.7473145">
        <ele>38.5901</ele>
        <time>2012-09-30T09:24:53Z</time>
      </trkpt>
      <trkpt lat="59.9735774" lon="17.74734">
        <ele>38.5901</ele>
        <time>2012-09-30T09:24:54Z</time>
      </trkpt>
      <trkpt lat="59.9735569" lon="17.7473617">
        <ele>37.6287</ele>
        <time>2012-09-30T09:24:55Z</time>
      </trkpt>
      <trkpt lat="59.9735377" lon="17.7473809">
        <ele>37.1481</ele>
        <time>2012-09-30T09:24:56Z</time>
      </trkpt>
      <trkpt lat="59.9735141" lon="17.7473952">
        <ele>37.1481</ele>
        <time>2012-09-30T09:24:57Z</time>
      </trkpt>
      <trkpt lat="59.9734929" lon="17.747416">
        <ele>36.6675</ele>
        <time>2012-09-30T09:24:58Z</time>
      </trkpt>
      <trkpt lat="59.9734737" lon="17.7474399">
        <ele>36.1868</ele>
        <time>2012-09-30T09:24:59Z</time>
      </trkpt>
      <trkpt lat="59.9734544" lon="17.7474566">
        <ele>35.2255</ele>
        <time>2012-09-30T09:25:00Z</time>
      </trkpt>
      <trkpt lat="59.9734322" lon="17.7474703">
        <ele>34.7449</ele>
        <time>2012-09-30T09:25:01Z</time>
      </trkpt>
      <trkpt lat="59.9734114" lon="17.7474896">
        <ele>34.2642</ele>
        <time>2012-09-30T09:25:02Z</time>
      </trkpt>
      <trkpt lat="59.9733924" lon="17.7475078">
        <ele>33.7834</ele>
        <time>2012-09-30T09:25:03Z</time>
      </trkpt>
      <trkpt lat="59.9733704" lon="17.74752">
        <ele>32.8223</ele>
        <time>2012-09-30T09:25:04Z</time>
      </trkpt>
      <trkpt lat="59.9733409" lon="17.747527">
        <ele>32.3416</ele>
        <time>2012-09-30T09:25:05Z</time>
      </trkpt>
      <trkpt lat="59.9733153" lon="17.7475436">
        <ele>32.3416</ele>
        <time>2012-09-30T09:25:06Z</time>
      </trkpt>
      <trkpt lat="59.9732964" lon="17.7475596">
        <ele>31.3801</ele>
        <time>2012-09-30T09:25:07Z</time>
      </trkpt>
      <trkpt lat="59.9732747" lon="17.7475744">
        <ele>30.8995</ele>
        <time>2012-09-30T09:25:08Z</time>
      </trkpt>
      <trkpt lat="59.9732518" lon="17.7475868">
        <ele>30.4188</ele>
        <time>2012-09-30T09:25:09Z</time>
      </trkpt>
      <trkpt lat="59.9732285" lon="17.7476055">
        <ele>30.4188</ele>
        <time>2012-09-30T09:25:10Z</time>
      </trkpt>
      <trkpt lat="59.9732063" lon="17.7476302">
        <ele>30.4188</ele>
        <time>2012-09-30T09:25:11Z</time>
      </trkpt>
      <trkpt lat="59.9731867" lon="17.7476573">
        <ele>30.4188</ele>
        <time>2012-09-30T09:25:12Z</time>
      </trkpt>
      <trkpt lat="59.9731696" lon="17.7476793">
        <ele>29.9381</ele>
        <time>2012-09-30T09:25:13Z</time>
      </trkpt>
      <trkpt lat="59.9731471" lon="17.7477073">
        <ele>29.9381</ele>
        <time>2012-09-30T09:25:14Z</time>
      </trkpt>
      <trkpt lat="59.9731281" lon="17.7477305">
        <ele>29.9381</ele>
        <time>2012-09-30T09:25:15Z</time>
      </trkpt>
      <trkpt lat="59.9731085" lon="17.7477513">
        <ele>29.9381</ele>
        <time>2012-09-30T09:25:16Z</time>
      </trkpt>
      <trkpt lat="59.9730893" lon="17.7477809">
        <ele>30.4188</ele>
        <time>2012-09-30T09:25:17Z</time>
      </trkpt>
      <trkpt lat="59.9730704" lon="17.7478124">
        <ele>30.8995</ele>
        <time>2012-09-30T09:25:18Z</time>
      </trkpt>
      <trkpt lat="59.9730544" lon="17.7478399">
        <ele>30.8995</ele>
        <time>2012-09-30T09:25:19Z</time>
      </trkpt>
      <trkpt lat="59.9730381" lon="17.7478788">
        <ele>31.8607</ele>
        <time>2012-09-30T09:25:20Z</time>
      </trkpt>
      <trkpt lat="59.9730182" lon="17.7479222">
        <ele>32.3416</ele>
        <time>2012-09-30T09:25:21Z</time>
      </trkpt>
      <trkpt lat="59.9729962" lon="17.7479586">
        <ele>32.8223</ele>
        <time>2012-09-30T09:25:22Z</time>
      </trkpt>
      <trkpt lat="59.9729739" lon="17.7479792">
        <ele>33.7834</ele>
        <time>2012-09-30T09:25:23Z</time>
      </trkpt>
      <trkpt lat="59.9729556" lon="17.7480025">
        <ele>34.2642</ele>
        <time>2012-09-30T09:25:24Z</time>
      </trkpt>
      <trkpt lat="59.9729375" lon="17.7480345">
        <ele>34.2642</ele>
        <time>2012-09-30T09:25:25Z</time>
      </trkpt>
      <trkpt lat="59.9729178" lon="17.7480606">
        <ele>34.2642</ele>
        <time>2012-09-30T09:25:26Z</time>
      </trkpt>
      <trkpt lat="59.9729006" lon="17.7480807">
        <ele>34.7449</ele>
        <time>2012-09-30T09:25:27Z</time>
      </trkpt>
      <trkpt lat="59.9728862" lon="17.7481065">
        <ele>34.7449</ele>
        <time>2012-09-30T09:25:28Z</time>
      </trkpt>
      <trkpt lat="59.9728695" lon="17.7481444">
        <ele>34.7449</ele>
        <time>2012-09-30T09:25:29Z</time>
      </trkpt>
      <trkpt lat="59.9728571" lon="17.7481831">
        <ele>35.2255</ele>
        <time>2012-09-30T09:25:30Z</time>
      </trkpt>
      <trkpt lat="59.9728453" lon="17.7482132">
        <ele>35.2255</ele>
        <time>2012-09-30T09:25:31Z</time>
      </trkpt>
      <trkpt lat="59.9728307" lon="17.7482424">
        <ele>34.7449</ele>
        <time>2012-09-30T09:25:32Z</time>
      </trkpt>
      <trkpt lat="59.9728189" lon="17.7482785">
        <ele>34.7449</ele>
        <time>2012-09-30T09:25:33Z</time>
      </trkpt>
      <trkpt lat="59.9728054" lon="17.7483155">
        <ele>34.7449</ele>
        <time>2012-09-30T09:25:34Z</time>
      </trkpt>
      <trkpt lat="59.972789" lon="17.7483521">
        <ele>34.2642</ele>
        <time>2012-09-30T09:25:35Z</time>
      </trkpt>
      <trkpt lat="59.9727722" lon="17.7483911">
        <ele>34.7449</ele>
        <time>2012-09-30T09:25:36Z</time>
      </trkpt>
      <trkpt lat="59.9727588" lon="17.7484276">
        <ele>34.7449</ele>
        <time>2012-09-30T09:25:37Z</time>
      </trkpt>
      <trkpt lat="59.9727407" lon="17.7484613">
        <ele>34.2642</ele>
        <time>2012-09-30T09:25:38Z</time>
      </trkpt>
      <trkpt lat="59.9727219" lon="17.7484884">
        <ele>34.2642</ele>
        <time>2012-09-30T09:25:39Z</time>
      </trkpt>
      <trkpt lat="59.9727035" lon="17.7485148">
        <ele>33.7834</ele>
        <time>2012-09-30T09:25:40Z</time>
      </trkpt>
      <trkpt lat="59.972691" lon="17.7485417">
        <ele>34.2642</ele>
        <time>2012-09-30T09:25:41Z</time>
      </trkpt>
      <trkpt lat="59.9726801" lon="17.7485692">
        <ele>33.7834</ele>
        <time>2012-09-30T09:25:42Z</time>
      </trkpt>
      <trkpt lat="59.9726648" lon="17.7486075">
        <ele>33.7834</ele>
        <time>2012-09-30T09:25:43Z</time>
      </trkpt>
      <trkpt lat="59.9726505" lon="17.7486482">
        <ele>33.7834</ele>
        <time>2012-09-30T09:25:44Z</time>
      </trkpt>
      <trkpt lat="59.9726353" lon="17.7486894">
        <ele>33.7834</ele>
        <time>2012-09-30T09:25:45Z</time>
      </trkpt>
      <trkpt lat="59.9726178" lon="17.7487142">
        <ele>33.3029</ele>
        <time>2012-09-30T09:25:46Z</time>
      </trkpt>
      <trkpt lat="59.9725981" lon="17.7487439">
        <ele>33.3029</ele>
        <time>2012-09-30T09:25:47Z</time>
      </trkpt>
      <trkpt lat="59.9725863" lon="17.7487711">
        <ele>32.8223</ele>
        <time>2012-09-30T09:25:48Z</time>
      </trkpt>
      <trkpt lat="59.9725726" lon="17.7488044">
        <ele>32.8223</ele>
        <time>2012-09-30T09:25:49Z</time>
      </trkpt>
      <trkpt lat="59.9725564" lon="17.7488474">
        <ele>32.8223</ele>
        <time>2012-09-30T09:25:50Z</time>
      </trkpt>
      <trkpt lat="59.9725416" lon="17.7488796">
        <ele>32.3416</ele>
        <time>2012-09-30T09:25:51Z</time>
      </trkpt>
      <trkpt lat="59.9725253" lon="17.7489158">
        <ele>32.3416</ele>
        <time>2012-09-30T09:25:52Z</time>
      </trkpt>
      <trkpt lat="59.9725108" lon="17.7489565">
        <ele>32.3416</ele>
        <time>2012-09-30T09:25:53Z</time>
      </trkpt>
      <trkpt lat="59.9724946" lon="17.7489928">
        <ele>32.3416</ele>
        <time>2012-09-30T09:25:54Z</time>
      </trkpt>
      <trkpt lat="59.9724784" lon="17.7490369">
        <ele>32.8223</ele>
        <time>2012-09-30T09:25:55Z</time>
      </trkpt>
      <trkpt lat="59.9724655" lon="17.7490715">
        <ele>32.3416</ele>
        <time>2012-09-30T09:25:56Z</time>
      </trkpt>
      <trkpt lat="59.972454" lon="17.7491067">
        <ele>32.8223</ele>
        <time>2012-09-30T09:25:57Z</time>
      </trkpt>
      <trkpt lat="59.9724424" lon="17.7491441">
        <ele>32.3416</ele>
        <time>2012-09-30T09:25:58Z</time>
      </trkpt>
      <trkpt lat="59.972426" lon="17.7491887">
        <ele>32.8223</ele>
        <time>2012-09-30T09:25:59Z</time>
      </trkpt>
      <trkpt lat="59.9724086" lon="17.7492295">
        <ele>32.3416</ele>
        <time>2012-09-30T09:26:00Z</time>
      </trkpt>
      <trkpt lat="59.9723919" lon="17.7492679">
        <ele>31.8607</ele>
        <time>2012-09-30T09:26:01Z</time>
      </trkpt>
      <trkpt lat="59.9723734" lon="17.7493022">
        <ele>31.8607</ele>
        <time>2012-09-30T09:26:02Z</time>
      </trkpt>
      <trkpt lat="59.9723548" lon="17.7493394">
        <ele>31.3801</ele>
        <time>2012-09-30T09:26:03Z</time>
      </trkpt>
      <trkpt lat="59.9723367" lon="17.7493779">
        <ele>31.3801</ele>
        <time>2012-09-30T09:26:04Z</time>
      </trkpt>
      <trkpt lat="59.9723204" lon="17.7494097">
        <ele>31.3801</ele>
        <time>2012-09-30T09:26:05Z</time>
      </trkpt>
      <trkpt lat="59.972304" lon="17.7494396">
        <ele>31.8607</ele>
        <time>2012-09-30T09:26:06Z</time>
      </trkpt>
      <trkpt lat="59.97229" lon="17.7494622">
        <ele>32.3416</ele>
        <time>2012-09-30T09:26:07Z</time>
      </trkpt>
      <trkpt lat="59.9722759" lon="17.7494856">
        <ele>31.8607</ele>
        <time>2012-09-30T09:26:08Z</time>
      </trkpt>
      <trkpt lat="59.9722603" lon="17.7495128">
        <ele>30.8995</ele>
        <time>2012-09-30T09:26:09Z</time>
      </trkpt>
      <trkpt lat="59.972246" lon="17.7495394">
        <ele>29.9381</ele>
        <time>2012-09-30T09:26:10Z</time>
      </trkpt>
      <trkpt lat="59.9722325" lon="17.7495687">
        <ele>29.4575</ele>
        <time>2012-09-30T09:26:11Z</time>
      </trkpt>
      <trkpt lat="59.9722225" lon="17.7495934">
        <ele>28.9769</ele>
        <time>2012-09-30T09:26:12Z</time>
      </trkpt>
      <trkpt lat="59.9722138" lon="17.7496186">
        <ele>28.4962</ele>
        <time>2012-09-30T09:26:13Z</time>
      </trkpt>
      <trkpt lat="59.972202" lon="17.7496528">
        <ele>28.0155</ele>
        <time>2012-09-30T09:26:14Z</time>
      </trkpt>
      <trkpt lat="59.9721865" lon="17.7496843">
        <ele>28.0155</ele>
        <time>2012-09-30T09:26:15Z</time>
      </trkpt>
      <trkpt lat="59.9721699" lon="17.749713">
        <ele>28.0155</ele>
        <time>2012-09-30T09:26:16Z</time>
      </trkpt>
      <trkpt lat="59.9721558" lon="17.7497452">
        <ele>27.5349</ele>
        <time>2012-09-30T09:26:17Z</time>
      </trkpt>
      <trkpt lat="59.9721456" lon="17.7497896">
        <ele>27.5349</ele>
        <time>2012-09-30T09:26:18Z</time>
      </trkpt>
      <trkpt lat="59.9721349" lon="17.7498247">
        <ele>27.5349</ele>
        <time>2012-09-30T09:26:19Z</time>
      </trkpt>
      <trkpt lat="59.972118" lon="17.7498471">
        <ele>27.5349</ele>
        <time>2012-09-30T09:26:20Z</time>
      </trkpt>
      <trkpt lat="59.972102" lon="17.7498704">
        <ele>27.5349</ele>
        <time>2012-09-30T09:26:21Z</time>
      </trkpt>
      <trkpt lat="59.972087" lon="17.7498956">
        <ele>26.5736</ele>
        <time>2012-09-30T09:26:22Z</time>
      </trkpt>
      <trkpt lat="59.9720761" lon="17.7499196">
        <ele>26.0929</ele>
        <time>2012-09-30T09:26:23Z</time>
      </trkpt>
      <trkpt lat="59.9720626" lon="17.7499424">
        <ele>26.0929</ele>
        <time>2012-09-30T09:26:24Z</time>
      </trkpt>
      <trkpt lat="59.9720429" lon="17.7499724">
        <ele>26.0929</ele>
        <time>2012-09-30T09:26:25Z</time>
      </trkpt>
      <trkpt lat="59.9720258" lon="17.7500044">
        <ele>26.0929</ele>
        <time>2012-09-30T09:26:26Z</time>
      </trkpt>
      <trkpt lat="59.9720086" lon="17.7500336">
        <ele>26.5736</ele>
        <time>2012-09-30T09:26:27Z</time>
      </trkpt>
      <trkpt lat="59.9719891" lon="17.7500601">
        <ele>27.0543</ele>
        <time>2012-09-30T09:26:28Z</time>
      </trkpt>
      <trkpt lat="59.9719668" lon="17.7500957">
        <ele>27.0543</ele>
        <time>2012-09-30T09:26:29Z</time>
      </trkpt>
      <trkpt lat="59.9719476" lon="17.7501352">
        <ele>27.5349</ele>
        <time>2012-09-30T09:26:30Z</time>
      </trkpt>
      <trkpt lat="59.971932" lon="17.7501767">
        <ele>27.5349</ele>
        <time>2012-09-30T09:26:31Z</time>
      </trkpt>
      <trkpt lat="59.9719166" lon="17.7502222">
        <ele>28.0155</ele>
        <time>2012-09-30T09:26:32Z</time>
      </trkpt>
      <trkpt lat="59.9719021" lon="17.7502678">
        <ele>28.0155</ele>
        <time>2012-09-30T09:26:33Z</time>
      </trkpt>
      <trkpt lat="59.9718884" lon="17.7503196">
        <ele>28.4962</ele>
        <time>2012-09-30T09:26:34Z</time>
      </trkpt>
      <trkpt lat="59.9718709" lon="17.7503476">
        <ele>28.9769</ele>
        <time>2012-09-30T09:26:35Z</time>
      </trkpt>
      <trkpt lat="59.9718492" lon="17.7503756">
        <ele>29.4575</ele>
        <time>2012-09-30T09:26:36Z</time>
      </trkpt>
      <trkpt lat="59.9718289" lon="17.7504061">
        <ele>29.9381</ele>
        <time>2012-09-30T09:26:37Z</time>
      </trkpt>
      <trkpt lat="59.9718112" lon="17.750437">
        <ele>30.4188</ele>
        <time>2012-09-30T09:26:38Z</time>
      </trkpt>
      <trkpt lat="59.9717921" lon="17.7504777">
        <ele>30.8995</ele>
        <time>2012-09-30T09:26:39Z</time>
      </trkpt>
      <trkpt lat="59.9717715" lon="17.7505297">
        <ele>31.3801</ele>
        <time>2012-09-30T09:26:40Z</time>
      </trkpt>
      <trkpt lat="59.9717507" lon="17.7505755">
        <ele>31.8607</ele>
        <time>2012-09-30T09:26:41Z</time>
      </trkpt>
      <trkpt lat="59.97173" lon="17.7506138">
        <ele>31.8607</ele>
        <time>2012-09-30T09:26:42Z</time>
      </trkpt>
      <trkpt lat="59.971707" lon="17.7506427">
        <ele>31.8607</ele>
        <time>2012-09-30T09:26:43Z</time>
      </trkpt>
      <trkpt lat="59.971686" lon="17.7506815">
        <ele>32.3416</ele>
        <time>2012-09-30T09:26:44Z</time>
      </trkpt>
      <trkpt lat="59.9716684" lon="17.7507242">
        <ele>31.8607</ele>
        <time>2012-09-30T09:26:45Z</time>
      </trkpt>
      <trkpt lat="59.971646" lon="17.750762">
        <ele>31.8607</ele>
        <time>2012-09-30T09:26:46Z</time>
      </trkpt>
      <trkpt lat="59.9716244" lon="17.750793">
        <ele>31.8607</ele>
        <time>2012-09-30T09:26:47Z</time>
      </trkpt>
      <trkpt lat="59.9716026" lon="17.7508236">
        <ele>31.8607</ele>
        <time>2012-09-30T09:26:48Z</time>
      </trkpt>
      <trkpt lat="59.9715726" lon="17.7508587">
        <ele>32.3416</ele>
        <time>2012-09-30T09:26:49Z</time>
      </trkpt>
      <trkpt lat="59.971548" lon="17.7508952">
        <ele>32.3416</ele>
        <time>2012-09-30T09:26:50Z</time>
      </trkpt>
      <trkpt lat="59.9715331" lon="17.7509402">
        <ele>32.8223</ele>
        <time>2012-09-30T09:26:51Z</time>
      </trkpt>
      <trkpt lat="59.971513" lon="17.7509689">
        <ele>32.8223</ele>
        <time>2012-09-30T09:26:52Z</time>
      </trkpt>
      <trkpt lat="59.9714907" lon="17.7509918">
        <ele>32.8223</ele>
        <time>2012-09-30T09:26:53Z</time>
      </trkpt>
      <trkpt lat="59.97147" lon="17.7510151">
        <ele>32.8223</ele>
        <time>2012-09-30T09:26:54Z</time>
      </trkpt>
      <trkpt lat="59.9714468" lon="17.7510469">
        <ele>33.3029</ele>
        <time>2012-09-30T09:26:55Z</time>
      </trkpt>
      <trkpt lat="59.9714232" lon="17.7510846">
        <ele>33.3029</ele>
        <time>2012-09-30T09:26:56Z</time>
      </trkpt>
      <trkpt lat="59.9714078" lon="17.7511234">
        <ele>33.3029</ele>
        <time>2012-09-30T09:26:57Z</time>
      </trkpt>
      <trkpt lat="59.9713907" lon="17.7511528">
        <ele>32.8223</ele>
        <time>2012-09-30T09:26:58Z</time>
      </trkpt>
      <trkpt lat="59.9713711" lon="17.7511779">
        <ele>31.8607</ele>
        <time>2012-09-30T09:26:59Z</time>
      </trkpt>
      <trkpt lat="59.9713524" lon="17.7512047">
        <ele>31.8607</ele>
        <time>2012-09-30T09:27:00Z</time>
      </trkpt>
      <trkpt lat="59.9713354" lon="17.7512265">
        <ele>31.3801</ele>
        <time>2012-09-30T09:27:01Z</time>
      </trkpt>
      <trkpt lat="59.9713208" lon="17.7512498">
        <ele>30.4188</ele>
        <time>2012-09-30T09:27:02Z</time>
      </trkpt>
      <trkpt lat="59.9712996" lon="17.7512654">
        <ele>29.9381</ele>
        <time>2012-09-30T09:27:03Z</time>
      </trkpt>
      <trkpt lat="59.9712814" lon="17.7512889">
        <ele>28.9769</ele>
        <time>2012-09-30T09:27:04Z</time>
      </trkpt>
      <trkpt lat="59.971258" lon="17.7513136">
        <ele>28.9769</ele>
        <time>2012-09-30T09:27:05Z</time>
      </trkpt>
      <trkpt lat="59.9712367" lon="17.7513317">
        <ele>28.4962</ele>
        <time>2012-09-30T09:27:06Z</time>
      </trkpt>
      <trkpt lat="59.9712157" lon="17.7513526">
        <ele>28.9769</ele>
        <time>2012-09-30T09:27:07Z</time>
      </trkpt>
      <trkpt lat="59.9711924" lon="17.7513747">
        <ele>28.9769</ele>
        <time>2012-09-30T09:27:08Z</time>
      </trkpt>
      <trkpt lat="59.9711678" lon="17.7514022">
        <ele>28.9769</ele>
        <time>2012-09-30T09:27:09Z</time>
      </trkpt>
      <trkpt lat="59.9711452" lon="17.751428">
        <ele>28.9769</ele>
        <time>2012-09-30T09:27:10Z</time>
      </trkpt>
      <trkpt lat="59.9711217" lon="17.7514488">
        <ele>28.9769</ele>
        <time>2012-09-30T09:27:11Z</time>
      </trkpt>
      <trkpt lat="59.9710999" lon="17.7514727">
        <ele>28.0155</ele>
        <time>2012-09-30T09:27:12Z</time>
      </trkpt>
      <trkpt lat="59.9710806" lon="17.7515043">
        <ele>28.4962</ele>
        <time>2012-09-30T09:27:13Z</time>
      </trkpt>
      <trkpt lat="59.9710623" lon="17.751541">
        <ele>28.4962</ele>
        <time>2012-09-30T09:27:14Z</time>
      </trkpt>
      <trkpt lat="59.9710407" lon="17.75157">
        <ele>28.4962</ele>
        <time>2012-09-30T09:27:15Z</time>
      </trkpt>
      <trkpt lat="59.9710197" lon="17.7516002">
        <ele>28.4962</ele>
        <time>2012-09-30T09:27:16Z</time>
      </trkpt>
      <trkpt lat="59.9709987" lon="17.7516173">
        <ele>28.0155</ele>
        <time>2012-09-30T09:27:17Z</time>
      </trkpt>
      <trkpt lat="59.9709759" lon="17.751639">
        <ele>28.0155</ele>
        <time>2012-09-30T09:27:18Z</time>
      </trkpt>
      <trkpt lat="59.9709561" lon="17.7516623">
        <ele>27.5349</ele>
        <time>2012-09-30T09:27:19Z</time>
      </trkpt>
      <trkpt lat="59.9709389" lon="17.751688">
        <ele>27.5349</ele>
        <time>2012-09-30T09:27:20Z</time>
      </trkpt>
      <trkpt lat="59.9709183" lon="17.7517099">
        <ele>27.0543</ele>
        <time>2012-09-30T09:27:21Z</time>
      </trkpt>
      <trkpt lat="59.9708997" lon="17.751727">
        <ele>27.0543</ele>
        <time>2012-09-30T09:27:22Z</time>
      </trkpt>
      <trkpt lat="59.9708806" lon="17.7517538">
        <ele>27.0543</ele>
        <time>2012-09-30T09:27:23Z</time>
      </trkpt>
      <trkpt lat="59.9708598" lon="17.7517773">
        <ele>27.5349</ele>
        <time>2012-09-30T09:27:24Z</time>
      </trkpt>
      <trkpt lat="59.9708431" lon="17.7518017">
        <ele>27.5349</ele>
        <time>2012-09-30T09:27:25Z</time>
      </trkpt>
      <trkpt lat="59.9708261" lon="17.7518372">
        <ele>28.0155</ele>
        <time>2012-09-30T09:27:26Z</time>
      </trkpt>
      <trkpt lat="59.9708096" lon="17.7518694">
        <ele>27.5349</ele>
        <time>2012-09-30T09:27:27Z</time>
      </trkpt>
      <trkpt lat="59.9707938" lon="17.7518983">
        <ele>27.5349</ele>
        <time>2012-09-30T09:27:28Z</time>
      </trkpt>
      <trkpt lat="59.9707749" lon="17.751928">
        <ele>27.5349</ele>
        <time>2012-09-30T09:27:29Z</time>
      </trkpt>
      <trkpt lat="59.9707587" lon="17.7519549">
        <ele>27.5349</ele>
        <time>2012-09-30T09:27:30Z</time>
      </trkpt>
      <trkpt lat="59.970738" lon="17.7519829">
        <ele>27.5349</ele>
        <time>2012-09-30T09:27:31Z</time>
      </trkpt>
      <trkpt lat="59.970719" lon="17.7520185">
        <ele>27.5349</ele>
        <time>2012-09-30T09:27:32Z</time>
      </trkpt>
      <trkpt lat="59.9706987" lon="17.7520506">
        <ele>27.5349</ele>
        <time>2012-09-30T09:27:33Z</time>
      </trkpt>
      <trkpt lat="59.9706791" lon="17.7520818">
        <ele>28.4962</ele>
        <time>2012-09-30T09:27:34Z</time>
      </trkpt>
      <trkpt lat="59.9706591" lon="17.7521135">
        <ele>28.4962</ele>
        <time>2012-09-30T09:27:35Z</time>
      </trkpt>
      <trkpt lat="59.9706402" lon="17.7521505">
        <ele>28.9769</ele>
        <time>2012-09-30T09:27:36Z</time>
      </trkpt>
      <trkpt lat="59.9706235" lon="17.7521844">
        <ele>28.9769</ele>
        <time>2012-09-30T09:27:37Z</time>
      </trkpt>
      <trkpt lat="59.970604" lon="17.7522191">
        <ele>28.9769</ele>
        <time>2012-09-30T09:27:38Z</time>
      </trkpt>
      <trkpt lat="59.9705876" lon="17.7522573">
        <ele>28.4962</ele>
        <time>2012-09-30T09:27:39Z</time>
      </trkpt>
      <trkpt lat="59.9705745" lon="17.7523015">
        <ele>28.4962</ele>
        <time>2012-09-30T09:27:40Z</time>
      </trkpt>
      <trkpt lat="59.9705604" lon="17.7523439">
        <ele>28.0155</ele>
        <time>2012-09-30T09:27:41Z</time>
      </trkpt>
      <trkpt lat="59.97055" lon="17.7523798">
        <ele>27.5349</ele>
        <time>2012-09-30T09:27:42Z</time>
      </trkpt>
      <trkpt lat="59.9705364" lon="17.7524106">
        <ele>28.0155</ele>
        <time>2012-09-30T09:27:43Z</time>
      </trkpt>
      <trkpt lat="59.9705227" lon="17.7524418">
        <ele>27.5349</ele>
        <time>2012-09-30T09:27:44Z</time>
      </trkpt>
      <trkpt lat="59.9705101" lon="17.7524776">
        <ele>28.0155</ele>
        <time>2012-09-30T09:27:45Z</time>
      </trkpt>
      <trkpt lat="59.9704933" lon="17.7525131">
        <ele>28.4962</ele>
        <time>2012-09-30T09:27:46Z</time>
      </trkpt>
      <trkpt lat="59.9704811" lon="17.7525501">
        <ele>28.4962</ele>
        <time>2012-09-30T09:27:47Z</time>
      </trkpt>
      <trkpt lat="59.9704729" lon="17.7525934">
        <ele>28.4962</ele>
        <time>2012-09-30T09:27:48Z</time>
      </trkpt>
      <trkpt lat="59.9704597" lon="17.7526345">
        <ele>29.4575</ele>
        <time>2012-09-30T09:27:49Z</time>
      </trkpt>
      <trkpt lat="59.9704459" lon="17.7526745">
        <ele>28.9769</ele>
        <time>2012-09-30T09:27:50Z</time>
      </trkpt>
      <trkpt lat="59.9704358" lon="17.7527208">
        <ele>28.9769</ele>
        <time>2012-09-30T09:27:51Z</time>
      </trkpt>
      <trkpt lat="59.9704231" lon="17.7527581">
        <ele>29.4575</ele>
        <time>2012-09-30T09:27:52Z</time>
      </trkpt>
      <trkpt lat="59.9704091" lon="17.7527972">
        <ele>29.4575</ele>
        <time>2012-09-30T09:27:53Z</time>
      </trkpt>
      <trkpt lat="59.9703937" lon="17.7528431">
        <ele>29.4575</ele>
        <time>2012-09-30T09:27:54Z</time>
      </trkpt>
      <trkpt lat="59.970377" lon="17.752877">
        <ele>28.9769</ele>
        <time>2012-09-30T09:27:55Z</time>
      </trkpt>
      <trkpt lat="59.9703555" lon="17.7529022">
        <ele>28.9769</ele>
        <time>2012-09-30T09:27:56Z</time>
      </trkpt>
      <trkpt lat="59.9703357" lon="17.752932">
        <ele>28.4962</ele>
        <time>2012-09-30T09:27:57Z</time>
      </trkpt>
      <trkpt lat="59.9703143" lon="17.7529702">
        <ele>28.4962</ele>
        <time>2012-09-30T09:27:58Z</time>
      </trkpt>
      <trkpt lat="59.9703004" lon="17.7530125">
        <ele>28.4962</ele>
        <time>2012-09-30T09:27:59Z</time>
      </trkpt>
      <trkpt lat="59.9702946" lon="17.7530591">
        <ele>28.0155</ele>
        <time>2012-09-30T09:28:00Z</time>
      </trkpt>
      <trkpt lat="59.9702841" lon="17.7531009">
        <ele>28.9769</ele>
        <time>2012-09-30T09:28:01Z</time>
      </trkpt>
      <trkpt lat="59.9702743" lon="17.7531316">
        <ele>28.9769</ele>
        <time>2012-09-30T09:28:02Z</time>
      </trkpt>
      <trkpt lat="59.9702651" lon="17.7531672">
        <ele>29.9381</ele>
        <time>2012-09-30T09:28:03Z</time>
      </trkpt>
      <trkpt lat="59.9702543" lon="17.753207">
        <ele>30.4188</ele>
        <time>2012-09-30T09:28:04Z</time>
      </trkpt>
      <trkpt lat="59.970239" lon="17.7532515">
        <ele>30.8995</ele>
        <time>2012-09-30T09:28:05Z</time>
      </trkpt>
      <trkpt lat="59.9702194" lon="17.7533054">
        <ele>32.3416</ele>
        <time>2012-09-30T09:28:06Z</time>
      </trkpt>
      <trkpt lat="59.970202" lon="17.7533492">
        <ele>33.7834</ele>
        <time>2012-09-30T09:28:07Z</time>
      </trkpt>
      <trkpt lat="59.970188" lon="17.753392">
        <ele>33.7834</ele>
        <time>2012-09-30T09:28:08Z</time>
      </trkpt>
      <trkpt lat="59.9701733" lon="17.7534414">
        <ele>34.7449</ele>
        <time>2012-09-30T09:28:09Z</time>
      </trkpt>
      <trkpt lat="59.9701531" lon="17.7534761">
        <ele>35.7061</ele>
        <time>2012-09-30T09:28:10Z</time>
      </trkpt>
      <trkpt lat="59.9701377" lon="17.7535101">
        <ele>35.7061</ele>
        <time>2012-09-30T09:28:11Z</time>
      </trkpt>
      <trkpt lat="59.9701236" lon="17.7535458">
        <ele>36.1868</ele>
        <time>2012-09-30T09:28:12Z</time>
      </trkpt>
      <trkpt lat="59.9701066" lon="17.7535805">
        <ele>36.1868</ele>
        <time>2012-09-30T09:28:13Z</time>
      </trkpt>
      <trkpt lat="59.970091" lon="17.7536208">
        <ele>36.6675</ele>
        <time>2012-09-30T09:28:14Z</time>
      </trkpt>
      <trkpt lat="59.9700775" lon="17.7536564">
        <ele>36.6675</ele>
        <time>2012-09-30T09:28:15Z</time>
      </trkpt>
      <trkpt lat="59.9700636" lon="17.753697">
        <ele>36.6675</ele>
        <time>2012-09-30T09:28:16Z</time>
      </trkpt>
      <trkpt lat="59.970052" lon="17.7537353">
        <ele>37.1481</ele>
        <time>2012-09-30T09:28:17Z</time>
      </trkpt>
      <trkpt lat="59.9700396" lon="17.7537703">
        <ele>37.6287</ele>
        <time>2012-09-30T09:28:18Z</time>
      </trkpt>
      <trkpt lat="59.9700238" lon="17.7537985">
        <ele>37.6287</ele>
        <time>2012-09-30T09:28:19Z</time>
      </trkpt>
      <trkpt lat="59.9700118" lon="17.7538141">
        <ele>37.6287</ele>
        <time>2012-09-30T09:28:20Z</time>
      </trkpt>
      <trkpt lat="59.9700009" lon="17.7538349">
        <ele>37.1481</ele>
        <time>2012-09-30T09:28:21Z</time>
      </trkpt>
      <trkpt lat="59.9699844" lon="17.7538716">
        <ele>37.6287</ele>
        <time>2012-09-30T09:28:22Z</time>
      </trkpt>
      <trkpt lat="59.9699693" lon="17.7539099">
        <ele>37.1481</ele>
        <time>2012-09-30T09:28:23Z</time>
      </trkpt>
      <trkpt lat="59.9699517" lon="17.753943">
        <ele>37.1481</ele>
        <time>2012-09-30T09:28:24Z</time>
      </trkpt>
      <trkpt lat="59.9699347" lon="17.753973">
        <ele>37.1481</ele>
        <time>2012-09-30T09:28:25Z</time>
      </trkpt>
      <trkpt lat="59.9699171" lon="17.7540034">
        <ele>37.1481</ele>
        <time>2012-09-30T09:28:26Z</time>
      </trkpt>
      <trkpt lat="59.9698978" lon="17.7540347">
        <ele>37.6287</ele>
        <time>2012-09-30T09:28:27Z</time>
      </trkpt>
      <trkpt lat="59.9698805" lon="17.7540683">
        <ele>37.6287</ele>
        <time>2012-09-30T09:28:28Z</time>
      </trkpt>
      <trkpt lat="59.9698642" lon="17.7541026">
        <ele>38.1094</ele>
        <time>2012-09-30T09:28:29Z</time>
      </trkpt>
      <trkpt lat="59.9698476" lon="17.7541335">
        <ele>38.5901</ele>
        <time>2012-09-30T09:28:30Z</time>
      </trkpt>
      <trkpt lat="59.9698293" lon="17.7541585">
        <ele>38.5901</ele>
        <time>2012-09-30T09:28:31Z</time>
      </trkpt>
      <trkpt lat="59.9698086" lon="17.7541969">
        <ele>38.5901</ele>
        <time>2012-09-30T09:28:32Z</time>
      </trkpt>
      <trkpt lat="59.969791" lon="17.754234">
        <ele>38.5901</ele>
        <time>2012-09-30T09:28:33Z</time>
      </trkpt>
      <trkpt lat="59.9697739" lon="17.7542718">
        <ele>38.5901</ele>
        <time>2012-09-30T09:28:34Z</time>
      </trkpt>
      <trkpt lat="59.969756" lon="17.7543098">
        <ele>38.5901</ele>
        <time>2012-09-30T09:28:35Z</time>
      </trkpt>
      <trkpt lat="59.9697383" lon="17.7543404">
        <ele>38.1094</ele>
        <time>2012-09-30T09:28:36Z</time>
      </trkpt>
      <trkpt lat="59.9697221" lon="17.7543688">
        <ele>38.1094</ele>
        <time>2012-09-30T09:28:37Z</time>
      </trkpt>
      <trkpt lat="59.9697071" lon="17.7543921">
        <ele>38.1094</ele>
        <time>2012-09-30T09:28:38Z</time>
      </trkpt>
      <trkpt lat="59.9696927" lon="17.7544175">
        <ele>37.6287</ele>
        <time>2012-09-30T09:28:39Z</time>
      </trkpt>
      <trkpt lat="59.9696781" lon="17.7544522">
        <ele>37.6287</ele>
        <time>2012-09-30T09:28:40Z</time>
      </trkpt>
      <trkpt lat="59.9696632" lon="17.7544978">
        <ele>37.6287</ele>
        <time>2012-09-30T09:28:41Z</time>
      </trkpt>
      <trkpt lat="59.9696445" lon="17.7545397">
        <ele>37.6287</ele>
        <time>2012-09-30T09:28:42Z</time>
      </trkpt>
      <trkpt lat="59.9696299" lon="17.7545798">
        <ele>37.6287</ele>
        <time>2012-09-30T09:28:43Z</time>
      </trkpt>
      <trkpt lat="59.9696177" lon="17.7546254">
        <ele>37.1481</ele>
        <time>2012-09-30T09:28:44Z</time>
      </trkpt>
      <trkpt lat="59.969606" lon="17.7546584">
        <ele>36.6675</ele>
        <time>2012-09-30T09:28:45Z</time>
      </trkpt>
      <trkpt lat="59.969592" lon="17.7546976">
        <ele>36.6675</ele>
        <time>2012-09-30T09:28:46Z</time>
      </trkpt>
      <trkpt lat="59.9695742" lon="17.7547364">
        <ele>37.1481</ele>
        <time>2012-09-30T09:28:47Z</time>
      </trkpt>
      <trkpt lat="59.9695569" lon="17.7547673">
        <ele>36.6675</ele>
        <time>2012-09-30T09:28:48Z</time>
      </trkpt>
      <trkpt lat="59.9695409" lon="17.7548006">
        <ele>36.6675</ele>
        <time>2012-09-30T09:28:49Z</time>
      </trkpt>
      <trkpt lat="59.9695231" lon="17.7548369">
        <ele>36.6675</ele>
        <time>2012-09-30T09:28:50Z</time>
      </trkpt>
      <trkpt lat="59.9695065" lon="17.7548714">
        <ele>37.1481</ele>
        <time>2012-09-30T09:28:51Z</time>
      </trkpt>
      <trkpt lat="59.9694917" lon="17.754907">
        <ele>36.6675</ele>
        <time>2012-09-30T09:28:52Z</time>
      </trkpt>
      <trkpt lat="59.9694731" lon="17.7549494">
        <ele>36.6675</ele>
        <time>2012-09-30T09:28:53Z</time>
      </trkpt>
      <trkpt lat="59.9694558" lon="17.7549945">
        <ele>36.6675</ele>
        <time>2012-09-30T09:28:54Z</time>
      </trkpt>
      <trkpt lat="59.9694392" lon="17.7550334">
        <ele>36.6675</ele>
        <time>2012-09-30T09:28:55Z</time>
      </trkpt>
      <trkpt lat="59.9694221" lon="17.7550638">
        <ele>36.1868</ele>
        <time>2012-09-30T09:28:56Z</time>
      </trkpt>
      <trkpt lat="59.9694058" lon="17.7550929">
        <ele>36.1868</ele>
        <time>2012-09-30T09:28:57Z</time>
      </trkpt>
      <trkpt lat="59.9693901" lon="17.7551272">
        <ele>36.6675</ele>
        <time>2012-09-30T09:28:58Z</time>
      </trkpt>
      <trkpt lat="59.9693763" lon="17.7551572">
        <ele>36.1868</ele>
        <time>2012-09-30T09:28:59Z</time>
      </trkpt>
      <trkpt lat="59.9693602" lon="17.7551852">
        <ele>36.1868</ele>
        <time>2012-09-30T09:29:00Z</time>
      </trkpt>
      <trkpt lat="59.9693431" lon="17.7552133">
        <ele>36.1868</ele>
        <time>2012-09-30T09:29:01Z</time>
      </trkpt>
      <trkpt lat="59.9693252" lon="17.7552444">
        <ele>36.6675</ele>
        <time>2012-09-30T09:29:02Z</time>
      </trkpt>
      <trkpt lat="59.9693081" lon="17.7552743">
        <ele>36.1868</ele>
        <time>2012-09-30T09:29:03Z</time>
      </trkpt>
      <trkpt lat="59.9692905" lon="17.75531">
        <ele>36.6675</ele>
        <time>2012-09-30T09:29:04Z</time>
      </trkpt>
      <trkpt lat="59.9692732" lon="17.7553472">
        <ele>36.6675</ele>
        <time>2012-09-30T09:29:05Z</time>
      </trkpt>
      <trkpt lat="59.9692565" lon="17.7553791">
        <ele>36.6675</ele>
        <time>2012-09-30T09:29:06Z</time>
      </trkpt>
      <trkpt lat="59.969241" lon="17.7554153">
        <ele>36.6675</ele>
        <time>2012-09-30T09:29:07Z</time>
      </trkpt>
      <trkpt lat="59.9692235" lon="17.7554519">
        <ele>37.1481</ele>
        <time>2012-09-30T09:29:08Z</time>
      </trkpt>
      <trkpt lat="59.9692084" lon="17.7554815">
        <ele>36.6675</ele>
        <time>2012-09-30T09:29:09Z</time>
      </trkpt>
      <trkpt lat="59.9691944" lon="17.7555093">
        <ele>36.6675</ele>
        <time>2012-09-30T09:29:10Z</time>
      </trkpt>
      <trkpt lat="59.9691794" lon="17.7555373">
        <ele>36.1868</ele>
        <time>2012-09-30T09:29:11Z</time>
      </trkpt>
      <trkpt lat="59.9691663" lon="17.7555573">
        <ele>36.1868</ele>
        <time>2012-09-30T09:29:12Z</time>
      </trkpt>
      <trkpt lat="59.969153" lon="17.7555774">
        <ele>35.7061</ele>
        <time>2012-09-30T09:29:13Z</time>
      </trkpt>
      <trkpt lat="59.9691375" lon="17.7556013">
        <ele>35.7061</ele>
        <time>2012-09-30T09:29:14Z</time>
      </trkpt>
      <trkpt lat="59.9691238" lon="17.7556271">
        <ele>35.7061</ele>
        <time>2012-09-30T09:29:15Z</time>
      </trkpt>
      <trkpt lat="59.9691105" lon="17.7556617">
        <ele>36.1868</ele>
        <time>2012-09-30T09:29:16Z</time>
      </trkpt>
      <trkpt lat="59.9690959" lon="17.7556948">
        <ele>35.7061</ele>
        <time>2012-09-30T09:29:17Z</time>
      </trkpt>
      <trkpt lat="59.9690823" lon="17.7557285">
        <ele>35.7061</ele>
        <time>2012-09-30T09:29:18Z</time>
      </trkpt>
      <trkpt lat="59.9690694" lon="17.7557633">
        <ele>36.1868</ele>
        <time>2012-09-30T09:29:19Z</time>
      </trkpt>
      <trkpt lat="59.969052" lon="17.7558009">
        <ele>36.6675</ele>
        <time>2012-09-30T09:29:20Z</time>
      </trkpt>
      <trkpt lat="59.9690347" lon="17.7558441">
        <ele>37.1481</ele>
        <time>2012-09-30T09:29:21Z</time>
      </trkpt>
      <trkpt lat="59.9690192" lon="17.7558812">
        <ele>37.1481</ele>
        <time>2012-09-30T09:29:22Z</time>
      </trkpt>
      <trkpt lat="59.9690041" lon="17.7559129">
        <ele>37.1481</ele>
        <time>2012-09-30T09:29:23Z</time>
      </trkpt>
      <trkpt lat="59.968986" lon="17.7559493">
        <ele>36.6675</ele>
        <time>2012-09-30T09:29:24Z</time>
      </trkpt>
      <trkpt lat="59.9689654" lon="17.7559938">
        <ele>37.1481</ele>
        <time>2012-09-30T09:29:25Z</time>
      </trkpt>
      <trkpt lat="59.9689479" lon="17.7560318">
        <ele>36.6675</ele>
        <time>2012-09-30T09:29:26Z</time>
      </trkpt>
      <trkpt lat="59.9689303" lon="17.7560724">
        <ele>36.6675</ele>
        <time>2012-09-30T09:29:27Z</time>
      </trkpt>
      <trkpt lat="59.9689141" lon="17.7561029">
        <ele>36.1868</ele>
        <time>2012-09-30T09:29:28Z</time>
      </trkpt>
      <trkpt lat="59.968894" lon="17.7561306">
        <ele>35.7061</ele>
        <time>2012-09-30T09:29:29Z</time>
      </trkpt>
      <trkpt lat="59.9688727" lon="17.7561617">
        <ele>35.2255</ele>
        <time>2012-09-30T09:29:30Z</time>
      </trkpt>
      <trkpt lat="59.968857" lon="17.756188">
        <ele>35.2255</ele>
        <time>2012-09-30T09:29:31Z</time>
      </trkpt>
      <trkpt lat="59.9688421" lon="17.7562136">
        <ele>35.2255</ele>
        <time>2012-09-30T09:29:32Z</time>
      </trkpt>
      <trkpt lat="59.9688271" lon="17.7562445">
        <ele>35.2255</ele>
        <time>2012-09-30T09:29:33Z</time>
      </trkpt>
      <trkpt lat="59.9688131" lon="17.7562813">
        <ele>35.2255</ele>
        <time>2012-09-30T09:29:34Z</time>
      </trkpt>
      <trkpt lat="59.9687991" lon="17.7563037">
        <ele>34.7449</ele>
        <time>2012-09-30T09:29:35Z</time>
      </trkpt>
      <trkpt lat="59.9687844" lon="17.7563259">
        <ele>34.2642</ele>
        <time>2012-09-30T09:29:36Z</time>
      </trkpt>
      <trkpt lat="59.9687715" lon="17.7563585">
        <ele>33.7834</ele>
        <time>2012-09-30T09:29:37Z</time>
      </trkpt>
      <trkpt lat="59.9687619" lon="17.7563979">
        <ele>33.3029</ele>
        <time>2012-09-30T09:29:38Z</time>
      </trkpt>
      <trkpt lat="59.96875" lon="17.7564347">
        <ele>33.3029</ele>
        <time>2012-09-30T09:29:39Z</time>
      </trkpt>
      <trkpt lat="59.9687395" lon="17.7564673">
        <ele>32.8223</ele>
        <time>2012-09-30T09:29:40Z</time>
      </trkpt>
      <trkpt lat="59.968727" lon="17.7564663">
        <ele>31.8607</ele>
        <time>2012-09-30T09:29:41Z</time>
      </trkpt>
      <trkpt lat="59.9687186" lon="17.7564347">
        <ele>30.8995</ele>
        <time>2012-09-30T09:29:42Z</time>
      </trkpt>
      <trkpt lat="59.9687188" lon="17.7563849">
        <ele>30.4188</ele>
        <time>2012-09-30T09:29:43Z</time>
      </trkpt>
      <trkpt lat="59.968726" lon="17.7563377">
        <ele>29.9381</ele>
        <time>2012-09-30T09:29:44Z</time>
      </trkpt>
      <trkpt lat="59.9687401" lon="17.7563035">
        <ele>29.9381</ele>
        <time>2012-09-30T09:29:45Z</time>
      </trkpt>
      <trkpt lat="59.9687567" lon="17.7562744">
        <ele>29.9381</ele>
        <time>2012-09-30T09:29:46Z</time>
      </trkpt>
      <trkpt lat="59.9687743" lon="17.7562425">
        <ele>29.4575</ele>
        <time>2012-09-30T09:29:47Z</time>
      </trkpt>
      <trkpt lat="59.968792" lon="17.7562114">
        <ele>29.4575</ele>
        <time>2012-09-30T09:29:48Z</time>
      </trkpt>
      <trkpt lat="59.9688088" lon="17.7561815">
        <ele>29.4575</ele>
        <time>2012-09-30T09:29:49Z</time>
      </trkpt>
      <trkpt lat="59.9688254" lon="17.7561486">
        <ele>29.9381</ele>
        <time>2012-09-30T09:29:50Z</time>
      </trkpt>
      <trkpt lat="59.9688421" lon="17.7561119">
        <ele>29.9381</ele>
        <time>2012-09-30T09:29:51Z</time>
      </trkpt>
      <trkpt lat="59.9688582" lon="17.7560757">
        <ele>29.9381</ele>
        <time>2012-09-30T09:29:52Z</time>
      </trkpt>
      <trkpt lat="59.9688758" lon="17.7560374">
        <ele>29.9381</ele>
        <time>2012-09-30T09:29:53Z</time>
      </trkpt>
      <trkpt lat="59.9688951" lon="17.7559994">
        <ele>30.4188</ele>
        <time>2012-09-30T09:29:54Z</time>
      </trkpt>
      <trkpt lat="59.9689121" lon="17.7559623">
        <ele>30.4188</ele>
        <time>2012-09-30T09:29:55Z</time>
      </trkpt>
      <trkpt lat="59.9689265" lon="17.7559297">
        <ele>30.4188</ele>
        <time>2012-09-30T09:29:56Z</time>
      </trkpt>
      <trkpt lat="59.9689451" lon="17.7558993">
        <ele>30.4188</ele>
        <time>2012-09-30T09:29:57Z</time>
      </trkpt>
      <trkpt lat="59.9689639" lon="17.7558652">
        <ele>30.4188</ele>
        <time>2012-09-30T09:29:58Z</time>
      </trkpt>
      <trkpt lat="59.9689789" lon="17.7558344">
        <ele>30.4188</ele>
        <time>2012-09-30T09:29:59Z</time>
      </trkpt>
      <trkpt lat="59.9689995" lon="17.7558114">
        <ele>30.8995</ele>
        <time>2012-09-30T09:30:00Z</time>
      </trkpt>
      <trkpt lat="59.9690197" lon="17.7557871">
        <ele>30.8995</ele>
        <time>2012-09-30T09:30:01Z</time>
      </trkpt>
      <trkpt lat="59.969038" lon="17.7557591">
        <ele>30.8995</ele>
        <time>2012-09-30T09:30:02Z</time>
      </trkpt>
      <trkpt lat="59.969055" lon="17.7557315">
        <ele>31.3801</ele>
        <time>2012-09-30T09:30:03Z</time>
      </trkpt>
      <trkpt lat="59.9690705" lon="17.7556984">
        <ele>31.3801</ele>
        <time>2012-09-30T09:30:04Z</time>
      </trkpt>
      <trkpt lat="59.9690866" lon="17.7556668">
        <ele>31.3801</ele>
        <time>2012-09-30T09:30:05Z</time>
      </trkpt>
      <trkpt lat="59.9691037" lon="17.7556354">
        <ele>31.8607</ele>
        <time>2012-09-30T09:30:06Z</time>
      </trkpt>
      <trkpt lat="59.969123" lon="17.7556039">
        <ele>32.3416</ele>
        <time>2012-09-30T09:30:07Z</time>
      </trkpt>
      <trkpt lat="59.9691415" lon="17.7555742">
        <ele>32.3416</ele>
        <time>2012-09-30T09:30:08Z</time>
      </trkpt>
      <trkpt lat="59.96916" lon="17.7555457">
        <ele>32.3416</ele>
        <time>2012-09-30T09:30:09Z</time>
      </trkpt>
      <trkpt lat="59.9691803" lon="17.7555179">
        <ele>32.8223</ele>
        <time>2012-09-30T09:30:10Z</time>
      </trkpt>
      <trkpt lat="59.9691948" lon="17.7554809">
        <ele>33.3029</ele>
        <time>2012-09-30T09:30:11Z</time>
      </trkpt>
      <trkpt lat="59.9692068" lon="17.7554468">
        <ele>33.3029</ele>
        <time>2012-09-30T09:30:12Z</time>
      </trkpt>
      <trkpt lat="59.9692239" lon="17.7554163">
        <ele>33.7834</ele>
        <time>2012-09-30T09:30:13Z</time>
      </trkpt>
      <trkpt lat="59.9692414" lon="17.7553862">
        <ele>33.7834</ele>
        <time>2012-09-30T09:30:14Z</time>
      </trkpt>
      <trkpt lat="59.9692586" lon="17.7553583">
        <ele>33.7834</ele>
        <time>2012-09-30T09:30:15Z</time>
      </trkpt>
      <trkpt lat="59.9692792" lon="17.7553339">
        <ele>33.7834</ele>
        <time>2012-09-30T09:30:16Z</time>
      </trkpt>
      <trkpt lat="59.9693001" lon="17.7553064">
        <ele>33.7834</ele>
        <time>2012-09-30T09:30:17Z</time>
      </trkpt>
      <trkpt lat="59.9693157" lon="17.7552755">
        <ele>34.2642</ele>
        <time>2012-09-30T09:30:18Z</time>
      </trkpt>
      <trkpt lat="59.969327" lon="17.7552422">
        <ele>34.2642</ele>
        <time>2012-09-30T09:30:19Z</time>
      </trkpt>
      <trkpt lat="59.969343" lon="17.7552085">
        <ele>34.2642</ele>
        <time>2012-09-30T09:30:20Z</time>
      </trkpt>
      <trkpt lat="59.9693574" lon="17.7551749">
        <ele>34.7449</ele>
        <time>2012-09-30T09:30:21Z</time>
      </trkpt>
      <trkpt lat="59.9693674" lon="17.7551376">
        <ele>34.7449</ele>
        <time>2012-09-30T09:30:22Z</time>
      </trkpt>
      <trkpt lat="59.9693792" lon="17.7550992">
        <ele>34.7449</ele>
        <time>2012-09-30T09:30:23Z</time>
      </trkpt>
      <trkpt lat="59.9693933" lon="17.7550676">
        <ele>34.7449</ele>
        <time>2012-09-30T09:30:24Z</time>
      </trkpt>
      <trkpt lat="59.9694079" lon="17.7550391">
        <ele>35.2255</ele>
        <time>2012-09-30T09:30:25Z</time>
      </trkpt>
      <trkpt lat="59.9694219" lon="17.7550037">
        <ele>35.7061</ele>
        <time>2012-09-30T09:30:26Z</time>
      </trkpt>
      <trkpt lat="59.9694389" lon="17.7549681">
        <ele>35.7061</ele>
        <time>2012-09-30T09:30:27Z</time>
      </trkpt>
      <trkpt lat="59.9694586" lon="17.7549355">
        <ele>36.1868</ele>
        <time>2012-09-30T09:30:28Z</time>
      </trkpt>
      <trkpt lat="59.9694767" lon="17.7549004">
        <ele>36.6675</ele>
        <time>2012-09-30T09:30:29Z</time>
      </trkpt>
      <trkpt lat="59.9694959" lon="17.7548644">
        <ele>36.6675</ele>
        <time>2012-09-30T09:30:30Z</time>
      </trkpt>
      <trkpt lat="59.9695127" lon="17.7548392">
        <ele>37.1481</ele>
        <time>2012-09-30T09:30:31Z</time>
      </trkpt>
      <trkpt lat="59.969526" lon="17.7548112">
        <ele>37.1481</ele>
        <time>2012-09-30T09:30:32Z</time>
      </trkpt>
      <trkpt lat="59.9695394" lon="17.7547782">
        <ele>36.6675</ele>
        <time>2012-09-30T09:30:33Z</time>
      </trkpt>
      <trkpt lat="59.9695566" lon="17.7547465">
        <ele>37.1481</ele>
        <time>2012-09-30T09:30:34Z</time>
      </trkpt>
      <trkpt lat="59.9695757" lon="17.7547169">
        <ele>37.6287</ele>
        <time>2012-09-30T09:30:35Z</time>
      </trkpt>
      <trkpt lat="59.9695954" lon="17.7546849">
        <ele>37.6287</ele>
        <time>2012-09-30T09:30:36Z</time>
      </trkpt>
      <trkpt lat="59.969611" lon="17.754649">
        <ele>37.6287</ele>
        <time>2012-09-30T09:30:37Z</time>
      </trkpt>
      <trkpt lat="59.9696265" lon="17.7546159">
        <ele>37.1481</ele>
        <time>2012-09-30T09:30:38Z</time>
      </trkpt>
      <trkpt lat="59.9696476" lon="17.7545834">
        <ele>37.6287</ele>
        <time>2012-09-30T09:30:39Z</time>
      </trkpt>
      <trkpt lat="59.9696673" lon="17.7545439">
        <ele>37.1481</ele>
        <time>2012-09-30T09:30:40Z</time>
      </trkpt>
      <trkpt lat="59.9696833" lon="17.7544999">
        <ele>36.6675</ele>
        <time>2012-09-30T09:30:41Z</time>
      </trkpt>
      <trkpt lat="59.9696969" lon="17.7544625">
        <ele>36.6675</ele>
        <time>2012-09-30T09:30:42Z</time>
      </trkpt>
      <trkpt lat="59.9697093" lon="17.75442">
        <ele>36.1868</ele>
        <time>2012-09-30T09:30:43Z</time>
      </trkpt>
      <trkpt lat="59.9697264" lon="17.7543837">
        <ele>36.1868</ele>
        <time>2012-09-30T09:30:44Z</time>
      </trkpt>
      <trkpt lat="59.9697412" lon="17.7543601">
        <ele>36.1868</ele>
        <time>2012-09-30T09:30:45Z</time>
      </trkpt>
      <trkpt lat="59.9697589" lon="17.75433">
        <ele>35.7061</ele>
        <time>2012-09-30T09:30:46Z</time>
      </trkpt>
      <trkpt lat="59.9697771" lon="17.7542912">
        <ele>35.2255</ele>
        <time>2012-09-30T09:30:47Z</time>
      </trkpt>
      <trkpt lat="59.969793" lon="17.7542549">
        <ele>34.7449</ele>
        <time>2012-09-30T09:30:48Z</time>
      </trkpt>
      <trkpt lat="59.9698035" lon="17.7542154">
        <ele>33.3029</ele>
        <time>2012-09-30T09:30:49Z</time>
      </trkpt>
      <trkpt lat="59.9698186" lon="17.7541776">
        <ele>32.8223</ele>
        <time>2012-09-30T09:30:50Z</time>
      </trkpt>
      <trkpt lat="59.9698352" lon="17.7541508">
        <ele>32.8223</ele>
        <time>2012-09-30T09:30:51Z</time>
      </trkpt>
      <trkpt lat="59.9698521" lon="17.7541229">
        <ele>32.3416</ele>
        <time>2012-09-30T09:30:52Z</time>
      </trkpt>
      <trkpt lat="59.9698662" lon="17.7540822">
        <ele>31.8607</ele>
        <time>2012-09-30T09:30:53Z</time>
      </trkpt>
      <trkpt lat="59.9698802" lon="17.7540424">
        <ele>31.8607</ele>
        <time>2012-09-30T09:30:54Z</time>
      </trkpt>
      <trkpt lat="59.9698921" lon="17.7540062">
        <ele>31.3801</ele>
        <time>2012-09-30T09:30:55Z</time>
      </trkpt>
      <trkpt lat="59.969906" lon="17.7539687">
        <ele>31.3801</ele>
        <time>2012-09-30T09:30:56Z</time>
      </trkpt>
      <trkpt lat="59.9699211" lon="17.7539354">
        <ele>31.3801</ele>
        <time>2012-09-30T09:30:57Z</time>
      </trkpt>
      <trkpt lat="59.9699383" lon="17.7539026">
        <ele>31.3801</ele>
        <time>2012-09-30T09:30:58Z</time>
      </trkpt>
      <trkpt lat="59.9699558" lon="17.7538675">
        <ele>31.3801</ele>
        <time>2012-09-30T09:30:59Z</time>
      </trkpt>
      <trkpt lat="59.9699696" lon="17.7538337">
        <ele>31.3801</ele>
        <time>2012-09-30T09:31:00Z</time>
      </trkpt>
      <trkpt lat="59.9699867" lon="17.7538017">
        <ele>31.3801</ele>
        <time>2012-09-30T09:31:01Z</time>
      </trkpt>
      <trkpt lat="59.9700028" lon="17.7537659">
        <ele>31.3801</ele>
        <time>2012-09-30T09:31:02Z</time>
      </trkpt>
      <trkpt lat="59.9700159" lon="17.7537275">
        <ele>31.3801</ele>
        <time>2012-09-30T09:31:03Z</time>
      </trkpt>
      <trkpt lat="59.9700299" lon="17.7536917">
        <ele>31.3801</ele>
        <time>2012-09-30T09:31:04Z</time>
      </trkpt>
      <trkpt lat="59.9700464" lon="17.7536554">
        <ele>31.3801</ele>
        <time>2012-09-30T09:31:05Z</time>
      </trkpt>
      <trkpt lat="59.9700615" lon="17.7536219">
        <ele>31.3801</ele>
        <time>2012-09-30T09:31:06Z</time>
      </trkpt>
      <trkpt lat="59.9700756" lon="17.7535903">
        <ele>31.3801</ele>
        <time>2012-09-30T09:31:07Z</time>
      </trkpt>
      <trkpt lat="59.9700904" lon="17.7535555">
        <ele>31.8607</ele>
        <time>2012-09-30T09:31:08Z</time>
      </trkpt>
      <trkpt lat="59.9701045" lon="17.7535212">
        <ele>31.8607</ele>
        <time>2012-09-30T09:31:09Z</time>
      </trkpt>
      <trkpt lat="59.970118" lon="17.7534861">
        <ele>32.3416</ele>
        <time>2012-09-30T09:31:10Z</time>
      </trkpt>
      <trkpt lat="59.9701328" lon="17.7534495">
        <ele>32.3416</ele>
        <time>2012-09-30T09:31:11Z</time>
      </trkpt>
      <trkpt lat="59.9701485" lon="17.7534147">
        <ele>32.3416</ele>
        <time>2012-09-30T09:31:12Z</time>
      </trkpt>
      <trkpt lat="59.970162" lon="17.7533764">
        <ele>32.3416</ele>
        <time>2012-09-30T09:31:13Z</time>
      </trkpt>
      <trkpt lat="59.970176" lon="17.7533355">
        <ele>32.3416</ele>
        <time>2012-09-30T09:31:14Z</time>
      </trkpt>
      <trkpt lat="59.9701941" lon="17.7533008">
        <ele>32.3416</ele>
        <time>2012-09-30T09:31:15Z</time>
      </trkpt>
      <trkpt lat="59.9702103" lon="17.7532664">
        <ele>32.3416</ele>
        <time>2012-09-30T09:31:16Z</time>
      </trkpt>
      <trkpt lat="59.9702226" lon="17.7532269">
        <ele>31.8607</ele>
        <time>2012-09-30T09:31:17Z</time>
      </trkpt>
      <trkpt lat="59.9702366" lon="17.7531922">
        <ele>31.8607</ele>
        <time>2012-09-30T09:31:18Z</time>
      </trkpt>
      <trkpt lat="59.970251" lon="17.7531592">
        <ele>31.8607</ele>
        <time>2012-09-30T09:31:19Z</time>
      </trkpt>
      <trkpt lat="59.9702644" lon="17.7531224">
        <ele>31.3801</ele>
        <time>2012-09-30T09:31:20Z</time>
      </trkpt>
      <trkpt lat="59.9702776" lon="17.7530855">
        <ele>30.8995</ele>
        <time>2012-09-30T09:31:21Z</time>
      </trkpt>
      <trkpt lat="59.9702932" lon="17.7530505">
        <ele>30.8995</ele>
        <time>2012-09-30T09:31:22Z</time>
      </trkpt>
      <trkpt lat="59.9703089" lon="17.7530177">
        <ele>30.8995</ele>
        <time>2012-09-30T09:31:23Z</time>
      </trkpt>
      <trkpt lat="59.9703246" lon="17.7529859">
        <ele>30.8995</ele>
        <time>2012-09-30T09:31:24Z</time>
      </trkpt>
      <trkpt lat="59.9703377" lon="17.7529541">
        <ele>30.8995</ele>
        <time>2012-09-30T09:31:25Z</time>
      </trkpt>
      <trkpt lat="59.970351" lon="17.7529184">
        <ele>30.8995</ele>
        <time>2012-09-30T09:31:26Z</time>
      </trkpt>
      <trkpt lat="59.9703629" lon="17.7528789">
        <ele>30.8995</ele>
        <time>2012-09-30T09:31:27Z</time>
      </trkpt>
      <trkpt lat="59.9703713" lon="17.7528344">
        <ele>31.3801</ele>
        <time>2012-09-30T09:31:28Z</time>
      </trkpt>
      <trkpt lat="59.9703859" lon="17.7527936">
        <ele>31.3801</ele>
        <time>2012-09-30T09:31:29Z</time>
      </trkpt>
      <trkpt lat="59.970407" lon="17.7527566">
        <ele>30.8995</ele>
        <time>2012-09-30T09:31:30Z</time>
      </trkpt>
      <trkpt lat="59.970424" lon="17.7527125">
        <ele>30.8995</ele>
        <time>2012-09-30T09:31:31Z</time>
      </trkpt>
      <trkpt lat="59.9704392" lon="17.7526694">
        <ele>31.3801</ele>
        <time>2012-09-30T09:31:32Z</time>
      </trkpt>
      <trkpt lat="59.9704526" lon="17.7526309">
        <ele>30.8995</ele>
        <time>2012-09-30T09:31:33Z</time>
      </trkpt>
      <trkpt lat="59.9704644" lon="17.7525914">
        <ele>31.3801</ele>
        <time>2012-09-30T09:31:34Z</time>
      </trkpt>
      <trkpt lat="59.970477" lon="17.752553">
        <ele>31.3801</ele>
        <time>2012-09-30T09:31:35Z</time>
      </trkpt>
      <trkpt lat="59.9704904" lon="17.7525173">
        <ele>31.3801</ele>
        <time>2012-09-30T09:31:36Z</time>
      </trkpt>
      <trkpt lat="59.9705022" lon="17.752482">
        <ele>31.3801</ele>
        <time>2012-09-30T09:31:37Z</time>
      </trkpt>
      <trkpt lat="59.9705149" lon="17.7524422">
        <ele>31.3801</ele>
        <time>2012-09-30T09:31:38Z</time>
      </trkpt>
      <trkpt lat="59.9705314" lon="17.7524138">
        <ele>31.8607</ele>
        <time>2012-09-30T09:31:39Z</time>
      </trkpt>
      <trkpt lat="59.9705448" lon="17.7523895">
        <ele>31.8607</ele>
        <time>2012-09-30T09:31:40Z</time>
      </trkpt>
      <trkpt lat="59.9705573" lon="17.7523568">
        <ele>32.3416</ele>
        <time>2012-09-30T09:31:41Z</time>
      </trkpt>
      <trkpt lat="59.9705714" lon="17.7523222">
        <ele>32.3416</ele>
        <time>2012-09-30T09:31:42Z</time>
      </trkpt>
      <trkpt lat="59.9705831" lon="17.7522864">
        <ele>32.3416</ele>
        <time>2012-09-30T09:31:43Z</time>
      </trkpt>
      <trkpt lat="59.9705952" lon="17.7522481">
        <ele>32.8223</ele>
        <time>2012-09-30T09:31:44Z</time>
      </trkpt>
      <trkpt lat="59.970608" lon="17.7522119">
        <ele>33.3029</ele>
        <time>2012-09-30T09:31:45Z</time>
      </trkpt>
      <trkpt lat="59.9706221" lon="17.7521688">
        <ele>33.3029</ele>
        <time>2012-09-30T09:31:46Z</time>
      </trkpt>
      <trkpt lat="59.9706412" lon="17.7521336">
        <ele>33.3029</ele>
        <time>2012-09-30T09:31:47Z</time>
      </trkpt>
      <trkpt lat="59.9706632" lon="17.7521049">
        <ele>33.3029</ele>
        <time>2012-09-30T09:31:48Z</time>
      </trkpt>
      <trkpt lat="59.9706822" lon="17.7520795">
        <ele>32.8223</ele>
        <time>2012-09-30T09:31:49Z</time>
      </trkpt>
      <trkpt lat="59.9706987" lon="17.7520524">
        <ele>32.8223</ele>
        <time>2012-09-30T09:31:50Z</time>
      </trkpt>
      <trkpt lat="59.9707162" lon="17.7520201">
        <ele>32.8223</ele>
        <time>2012-09-30T09:31:51Z</time>
      </trkpt>
      <trkpt lat="59.9707349" lon="17.7519889">
        <ele>32.8223</ele>
        <time>2012-09-30T09:31:52Z</time>
      </trkpt>
      <trkpt lat="59.9707524" lon="17.7519606">
        <ele>32.8223</ele>
        <time>2012-09-30T09:31:53Z</time>
      </trkpt>
      <trkpt lat="59.9707707" lon="17.7519316">
        <ele>32.8223</ele>
        <time>2012-09-30T09:31:54Z</time>
      </trkpt>
      <trkpt lat="59.9707896" lon="17.7519037">
        <ele>32.8223</ele>
        <time>2012-09-30T09:31:55Z</time>
      </trkpt>
      <trkpt lat="59.9708078" lon="17.7518762">
        <ele>32.8223</ele>
        <time>2012-09-30T09:31:56Z</time>
      </trkpt>
      <trkpt lat="59.9708282" lon="17.7518455">
        <ele>32.8223</ele>
        <time>2012-09-30T09:31:57Z</time>
      </trkpt>
      <trkpt lat="59.9708484" lon="17.751815">
        <ele>32.8223</ele>
        <time>2012-09-30T09:31:58Z</time>
      </trkpt>
      <trkpt lat="59.9708685" lon="17.7517849">
        <ele>32.8223</ele>
        <time>2012-09-30T09:31:59Z</time>
      </trkpt>
      <trkpt lat="59.9708882" lon="17.7517606">
        <ele>32.8223</ele>
        <time>2012-09-30T09:32:00Z</time>
      </trkpt>
      <trkpt lat="59.9709078" lon="17.7517325">
        <ele>32.8223</ele>
        <time>2012-09-30T09:32:01Z</time>
      </trkpt>
      <trkpt lat="59.9709277" lon="17.7517061">
        <ele>32.8223</ele>
        <time>2012-09-30T09:32:02Z</time>
      </trkpt>
      <trkpt lat="59.9709471" lon="17.7516818">
        <ele>32.8223</ele>
        <time>2012-09-30T09:32:03Z</time>
      </trkpt>
      <trkpt lat="59.9709649" lon="17.7516587">
        <ele>32.8223</ele>
        <time>2012-09-30T09:32:04Z</time>
      </trkpt>
      <trkpt lat="59.970982" lon="17.7516285">
        <ele>32.3416</ele>
        <time>2012-09-30T09:32:05Z</time>
      </trkpt>
      <trkpt lat="59.9709971" lon="17.7515932">
        <ele>32.8223</ele>
        <time>2012-09-30T09:32:06Z</time>
      </trkpt>
      <trkpt lat="59.9710153" lon="17.7515665">
        <ele>32.8223</ele>
        <time>2012-09-30T09:32:07Z</time>
      </trkpt>
      <trkpt lat="59.9710378" lon="17.7515509">
        <ele>32.8223</ele>
        <time>2012-09-30T09:32:08Z</time>
      </trkpt>
      <trkpt lat="59.9710593" lon="17.7515369">
        <ele>32.3416</ele>
        <time>2012-09-30T09:32:09Z</time>
      </trkpt>
      <trkpt lat="59.9710809" lon="17.7515197">
        <ele>32.3416</ele>
        <time>2012-09-30T09:32:10Z</time>
      </trkpt>
      <trkpt lat="59.9711034" lon="17.7515037">
        <ele>31.8607</ele>
        <time>2012-09-30T09:32:11Z</time>
      </trkpt>
      <trkpt lat="59.971124" lon="17.7514789">
        <ele>31.8607</ele>
        <time>2012-09-30T09:32:12Z</time>
      </trkpt>
      <trkpt lat="59.9711446" lon="17.7514587">
        <ele>31.3801</ele>
        <time>2012-09-30T09:32:13Z</time>
      </trkpt>
      <trkpt lat="59.9711648" lon="17.7514362">
        <ele>31.3801</ele>
        <time>2012-09-30T09:32:14Z</time>
      </trkpt>
      <trkpt lat="59.9711864" lon="17.751412">
        <ele>30.8995</ele>
        <time>2012-09-30T09:32:15Z</time>
      </trkpt>
      <trkpt lat="59.9712093" lon="17.751387">
        <ele>30.8995</ele>
        <time>2012-09-30T09:32:16Z</time>
      </trkpt>
      <trkpt lat="59.971228" lon="17.7513663">
        <ele>30.4188</ele>
        <time>2012-09-30T09:32:17Z</time>
      </trkpt>
      <trkpt lat="59.9712467" lon="17.7513447">
        <ele>30.4188</ele>
        <time>2012-09-30T09:32:18Z</time>
      </trkpt>
      <trkpt lat="59.9712649" lon="17.7513224">
        <ele>30.4188</ele>
        <time>2012-09-30T09:32:19Z</time>
      </trkpt>
      <trkpt lat="59.9712876" lon="17.7513057">
        <ele>30.4188</ele>
        <time>2012-09-30T09:32:20Z</time>
      </trkpt>
      <trkpt lat="59.9713084" lon="17.7512888">
        <ele>29.9381</ele>
        <time>2012-09-30T09:32:21Z</time>
      </trkpt>
      <trkpt lat="59.9713234" lon="17.7512678">
        <ele>29.9381</ele>
        <time>2012-09-30T09:32:22Z</time>
      </trkpt>
      <trkpt lat="59.9713399" lon="17.7512461">
        <ele>29.9381</ele>
        <time>2012-09-30T09:32:23Z</time>
      </trkpt>
      <trkpt lat="59.9713589" lon="17.7512262">
        <ele>29.9381</ele>
        <time>2012-09-30T09:32:24Z</time>
      </trkpt>
      <trkpt lat="59.9713776" lon="17.7512044">
        <ele>29.9381</ele>
        <time>2012-09-30T09:32:25Z</time>
      </trkpt>
      <trkpt lat="59.971395" lon="17.7511769">
        <ele>29.4575</ele>
        <time>2012-09-30T09:32:26Z</time>
      </trkpt>
      <trkpt lat="59.9714134" lon="17.751152">
        <ele>28.9769</ele>
        <time>2012-09-30T09:32:27Z</time>
      </trkpt>
      <trkpt lat="59.971432" lon="17.7511292">
        <ele>28.4962</ele>
        <time>2012-09-30T09:32:28Z</time>
      </trkpt>
      <trkpt lat="59.9714488" lon="17.7511084">
        <ele>28.4962</ele>
        <time>2012-09-30T09:32:29Z</time>
      </trkpt>
      <trkpt lat="59.9714637" lon="17.7510871">
        <ele>28.0155</ele>
        <time>2012-09-30T09:32:30Z</time>
      </trkpt>
      <trkpt lat="59.9714819" lon="17.751066">
        <ele>28.0155</ele>
        <time>2012-09-30T09:32:31Z</time>
      </trkpt>
      <trkpt lat="59.9715014" lon="17.7510397">
        <ele>27.5349</ele>
        <time>2012-09-30T09:32:32Z</time>
      </trkpt>
      <trkpt lat="59.9715203" lon="17.7510114">
        <ele>28.0155</ele>
        <time>2012-09-30T09:32:33Z</time>
      </trkpt>
      <trkpt lat="59.9715389" lon="17.7509831">
        <ele>27.5349</ele>
        <time>2012-09-30T09:32:34Z</time>
      </trkpt>
      <trkpt lat="59.971558" lon="17.7509547">
        <ele>28.0155</ele>
        <time>2012-09-30T09:32:35Z</time>
      </trkpt>
      <trkpt lat="59.9715765" lon="17.7509292">
        <ele>27.5349</ele>
        <time>2012-09-30T09:32:36Z</time>
      </trkpt>
      <trkpt lat="59.9715943" lon="17.7509011">
        <ele>27.0543</ele>
        <time>2012-09-30T09:32:37Z</time>
      </trkpt>
      <trkpt lat="59.9716124" lon="17.7508769">
        <ele>26.5736</ele>
        <time>2012-09-30T09:32:38Z</time>
      </trkpt>
      <trkpt lat="59.9716314" lon="17.7508545">
        <ele>26.5736</ele>
        <time>2012-09-30T09:32:39Z</time>
      </trkpt>
      <trkpt lat="59.9716516" lon="17.7508323">
        <ele>26.5736</ele>
        <time>2012-09-30T09:32:40Z</time>
      </trkpt>
      <trkpt lat="59.9716694" lon="17.7508097">
        <ele>26.5736</ele>
        <time>2012-09-30T09:32:41Z</time>
      </trkpt>
      <trkpt lat="59.9716853" lon="17.7507889">
        <ele>26.0929</ele>
        <time>2012-09-30T09:32:42Z</time>
      </trkpt>
      <trkpt lat="59.9717026" lon="17.7507656">
        <ele>26.0929</ele>
        <time>2012-09-30T09:32:43Z</time>
      </trkpt>
      <trkpt lat="59.9717202" lon="17.7507402">
        <ele>25.6123</ele>
        <time>2012-09-30T09:32:44Z</time>
      </trkpt>
      <trkpt lat="59.9717372" lon="17.7507148">
        <ele>25.6123</ele>
        <time>2012-09-30T09:32:45Z</time>
      </trkpt>
      <trkpt lat="59.9717547" lon="17.7506897">
        <ele>25.1317</ele>
        <time>2012-09-30T09:32:46Z</time>
      </trkpt>
      <trkpt lat="59.9717708" lon="17.7506643">
        <ele>24.651</ele>
        <time>2012-09-30T09:32:47Z</time>
      </trkpt>
      <trkpt lat="59.9717868" lon="17.7506366">
        <ele>24.1703</ele>
        <time>2012-09-30T09:32:48Z</time>
      </trkpt>
      <trkpt lat="59.9718056" lon="17.7506131">
        <ele>24.1703</ele>
        <time>2012-09-30T09:32:49Z</time>
      </trkpt>
      <trkpt lat="59.9718182" lon="17.7505823">
        <ele>23.6896</ele>
        <time>2012-09-30T09:32:50Z</time>
      </trkpt>
      <trkpt lat="59.9718304" lon="17.750549">
        <ele>24.1703</ele>
        <time>2012-09-30T09:32:51Z</time>
      </trkpt>
      <trkpt lat="59.9718471" lon="17.7505152">
        <ele>24.1703</ele>
        <time>2012-09-30T09:32:52Z</time>
      </trkpt>
      <trkpt lat="59.971864" lon="17.7504781">
        <ele>23.6896</ele>
        <time>2012-09-30T09:32:53Z</time>
      </trkpt>
      <trkpt lat="59.9718808" lon="17.7504398">
        <ele>24.1703</ele>
        <time>2012-09-30T09:32:54Z</time>
      </trkpt>
      <trkpt lat="59.9718998" lon="17.7504069">
        <ele>23.6896</ele>
        <time>2012-09-30T09:32:55Z</time>
      </trkpt>
      <trkpt lat="59.971916" lon="17.7503703">
        <ele>24.1703</ele>
        <time>2012-09-30T09:32:56Z</time>
      </trkpt>
      <trkpt lat="59.9719311" lon="17.7503295">
        <ele>24.1703</ele>
        <time>2012-09-30T09:32:57Z</time>
      </trkpt>
      <trkpt lat="59.9719444" lon="17.7502899">
        <ele>24.1703</ele>
        <time>2012-09-30T09:32:58Z</time>
      </trkpt>
      <trkpt lat="59.9719572" lon="17.7502604">
        <ele>24.1703</ele>
        <time>2012-09-30T09:32:59Z</time>
      </trkpt>
      <trkpt lat="59.9719713" lon="17.7502279">
        <ele>24.1703</ele>
        <time>2012-09-30T09:33:00Z</time>
      </trkpt>
      <trkpt lat="59.971986" lon="17.7501895">
        <ele>25.1317</ele>
        <time>2012-09-30T09:33:01Z</time>
      </trkpt>
      <trkpt lat="59.9719994" lon="17.7501534">
        <ele>25.6123</ele>
        <time>2012-09-30T09:33:02Z</time>
      </trkpt>
      <trkpt lat="59.9720128" lon="17.750117">
        <ele>26.0929</ele>
        <time>2012-09-30T09:33:03Z</time>
      </trkpt>
      <trkpt lat="59.9720249" lon="17.7500796">
        <ele>26.0929</ele>
        <time>2012-09-30T09:33:04Z</time>
      </trkpt>
      <trkpt lat="59.9720383" lon="17.7500383">
        <ele>26.0929</ele>
        <time>2012-09-30T09:33:05Z</time>
      </trkpt>
      <trkpt lat="59.9720559" lon="17.7500005">
        <ele>26.5736</ele>
        <time>2012-09-30T09:33:06Z</time>
      </trkpt>
      <trkpt lat="59.9720715" lon="17.7499612">
        <ele>27.0543</ele>
        <time>2012-09-30T09:33:07Z</time>
      </trkpt>
      <trkpt lat="59.9720868" lon="17.7499293">
        <ele>27.5349</ele>
        <time>2012-09-30T09:33:08Z</time>
      </trkpt>
      <trkpt lat="59.9721019" lon="17.7499023">
        <ele>28.0155</ele>
        <time>2012-09-30T09:33:09Z</time>
      </trkpt>
      <trkpt lat="59.9721174" lon="17.7498631">
        <ele>28.9769</ele>
        <time>2012-09-30T09:33:10Z</time>
      </trkpt>
      <trkpt lat="59.9721306" lon="17.7498288">
        <ele>28.9769</ele>
        <time>2012-09-30T09:33:11Z</time>
      </trkpt>
      <trkpt lat="59.9721455" lon="17.7497958">
        <ele>29.4575</ele>
        <time>2012-09-30T09:33:12Z</time>
      </trkpt>
      <trkpt lat="59.9721636" lon="17.7497679">
        <ele>29.9381</ele>
        <time>2012-09-30T09:33:13Z</time>
      </trkpt>
      <trkpt lat="59.9721756" lon="17.7497342">
        <ele>29.9381</ele>
        <time>2012-09-30T09:33:14Z</time>
      </trkpt>
      <trkpt lat="59.9721822" lon="17.7496898">
        <ele>30.4188</ele>
        <time>2012-09-30T09:33:15Z</time>
      </trkpt>
      <trkpt lat="59.972194" lon="17.7496575">
        <ele>30.4188</ele>
        <time>2012-09-30T09:33:16Z</time>
      </trkpt>
      <trkpt lat="59.9722052" lon="17.7496223">
        <ele>30.8995</ele>
        <time>2012-09-30T09:33:17Z</time>
      </trkpt>
      <trkpt lat="59.9722119" lon="17.749574">
        <ele>30.8995</ele>
        <time>2012-09-30T09:33:18Z</time>
      </trkpt>
      <trkpt lat="59.9722185" lon="17.7495318">
        <ele>30.8995</ele>
        <time>2012-09-30T09:33:19Z</time>
      </trkpt>
      <trkpt lat="59.9722329" lon="17.7494959">
        <ele>31.3801</ele>
        <time>2012-09-30T09:33:20Z</time>
      </trkpt>
      <trkpt lat="59.9722497" lon="17.7494704">
        <ele>31.8607</ele>
        <time>2012-09-30T09:33:21Z</time>
      </trkpt>
      <trkpt lat="59.9722614" lon="17.7494396">
        <ele>31.8607</ele>
        <time>2012-09-30T09:33:22Z</time>
      </trkpt>
      <trkpt lat="59.9722765" lon="17.7494084">
        <ele>31.8607</ele>
        <time>2012-09-30T09:33:23Z</time>
      </trkpt>
      <trkpt lat="59.9722893" lon="17.7493766">
        <ele>32.3416</ele>
        <time>2012-09-30T09:33:24Z</time>
      </trkpt>
      <trkpt lat="59.9723015" lon="17.7493467">
        <ele>32.3416</ele>
        <time>2012-09-30T09:33:25Z</time>
      </trkpt>
      <trkpt lat="59.9723175" lon="17.749315">
        <ele>33.3029</ele>
        <time>2012-09-30T09:33:26Z</time>
      </trkpt>
      <trkpt lat="59.9723325" lon="17.7492831">
        <ele>33.3029</ele>
        <time>2012-09-30T09:33:27Z</time>
      </trkpt>
      <trkpt lat="59.972346" lon="17.7492457">
        <ele>33.7834</ele>
        <time>2012-09-30T09:33:28Z</time>
      </trkpt>
      <trkpt lat="59.9723573" lon="17.7492103">
        <ele>34.2642</ele>
        <time>2012-09-30T09:33:29Z</time>
      </trkpt>
      <trkpt lat="59.9723716" lon="17.7491767">
        <ele>34.2642</ele>
        <time>2012-09-30T09:33:30Z</time>
      </trkpt>
      <trkpt lat="59.9723849" lon="17.7491343">
        <ele>34.7449</ele>
        <time>2012-09-30T09:33:31Z</time>
      </trkpt>
      <trkpt lat="59.9723979" lon="17.7490898">
        <ele>35.2255</ele>
        <time>2012-09-30T09:33:32Z</time>
      </trkpt>
      <trkpt lat="59.9724071" lon="17.7490494">
        <ele>35.2255</ele>
        <time>2012-09-30T09:33:33Z</time>
      </trkpt>
      <trkpt lat="59.972419" lon="17.7490163">
        <ele>35.2255</ele>
        <time>2012-09-30T09:33:34Z</time>
      </trkpt>
      <trkpt lat="59.9724319" lon="17.7489877">
        <ele>34.7449</ele>
        <time>2012-09-30T09:33:35Z</time>
      </trkpt>
      <trkpt lat="59.9724509" lon="17.7489597">
        <ele>35.2255</ele>
        <time>2012-09-30T09:33:36Z</time>
      </trkpt>
      <trkpt lat="59.972468" lon="17.7489281">
        <ele>34.7449</ele>
        <time>2012-09-30T09:33:37Z</time>
      </trkpt>
      <trkpt lat="59.9724898" lon="17.7488949">
        <ele>35.2255</ele>
        <time>2012-09-30T09:33:38Z</time>
      </trkpt>
      <trkpt lat="59.9725071" lon="17.7488624">
        <ele>35.2255</ele>
        <time>2012-09-30T09:33:39Z</time>
      </trkpt>
      <trkpt lat="59.9725231" lon="17.7488349">
        <ele>35.2255</ele>
        <time>2012-09-30T09:33:40Z</time>
      </trkpt>
      <trkpt lat="59.9725401" lon="17.7488024">
        <ele>35.2255</ele>
        <time>2012-09-30T09:33:41Z</time>
      </trkpt>
      <trkpt lat="59.9725573" lon="17.7487696">
        <ele>34.7449</ele>
        <time>2012-09-30T09:33:42Z</time>
      </trkpt>
      <trkpt lat="59.9725728" lon="17.7487347">
        <ele>34.2642</ele>
        <time>2012-09-30T09:33:43Z</time>
      </trkpt>
      <trkpt lat="59.9725921" lon="17.7487023">
        <ele>34.2642</ele>
        <time>2012-09-30T09:33:44Z</time>
      </trkpt>
      <trkpt lat="59.9726126" lon="17.7486662">
        <ele>33.7834</ele>
        <time>2012-09-30T09:33:45Z</time>
      </trkpt>
      <trkpt lat="59.9726293" lon="17.7486246">
        <ele>33.7834</ele>
        <time>2012-09-30T09:33:46Z</time>
      </trkpt>
      <trkpt lat="59.9726472" lon="17.748592">
        <ele>33.7834</ele>
        <time>2012-09-30T09:33:47Z</time>
      </trkpt>
      <trkpt lat="59.9726656" lon="17.7485557">
        <ele>33.3029</ele>
        <time>2012-09-30T09:33:48Z</time>
      </trkpt>
      <trkpt lat="59.9726825" lon="17.7485147">
        <ele>33.3029</ele>
        <time>2012-09-30T09:33:49Z</time>
      </trkpt>
      <trkpt lat="59.9726987" lon="17.748476">
        <ele>32.8223</ele>
        <time>2012-09-30T09:33:50Z</time>
      </trkpt>
      <trkpt lat="59.9727163" lon="17.7484361">
        <ele>32.8223</ele>
        <time>2012-09-30T09:33:51Z</time>
      </trkpt>
      <trkpt lat="59.9727399" lon="17.7483929">
        <ele>32.8223</ele>
        <time>2012-09-30T09:33:52Z</time>
      </trkpt>
      <trkpt lat="59.9727631" lon="17.7483523">
        <ele>32.3416</ele>
        <time>2012-09-30T09:33:53Z</time>
      </trkpt>
      <trkpt lat="59.9727806" lon="17.7483148">
        <ele>31.8607</ele>
        <time>2012-09-30T09:33:54Z</time>
      </trkpt>
      <trkpt lat="59.9727934" lon="17.7482672">
        <ele>31.8607</ele>
        <time>2012-09-30T09:33:55Z</time>
      </trkpt>
      <trkpt lat="59.972812" lon="17.7482272">
        <ele>31.8607</ele>
        <time>2012-09-30T09:33:56Z</time>
      </trkpt>
      <trkpt lat="59.9728285" lon="17.748191">
        <ele>31.3801</ele>
        <time>2012-09-30T09:33:57Z</time>
      </trkpt>
      <trkpt lat="59.9728469" lon="17.7481561">
        <ele>31.3801</ele>
        <time>2012-09-30T09:33:58Z</time>
      </trkpt>
      <trkpt lat="59.9728658" lon="17.7481212">
        <ele>31.3801</ele>
        <time>2012-09-30T09:33:59Z</time>
      </trkpt>
      <trkpt lat="59.9728845" lon="17.748089">
        <ele>31.3801</ele>
        <time>2012-09-30T09:34:00Z</time>
      </trkpt>
      <trkpt lat="59.9729021" lon="17.7480582">
        <ele>31.3801</ele>
        <time>2012-09-30T09:34:01Z</time>
      </trkpt>
      <trkpt lat="59.9729185" lon="17.7480206">
        <ele>31.3801</ele>
        <time>2012-09-30T09:34:02Z</time>
      </trkpt>
      <trkpt lat="59.9729386" lon="17.7479857">
        <ele>30.8995</ele>
        <time>2012-09-30T09:34:03Z</time>
      </trkpt>
      <trkpt lat="59.9729588" lon="17.7479557">
        <ele>30.8995</ele>
        <time>2012-09-30T09:34:04Z</time>
      </trkpt>
      <trkpt lat="59.9729803" lon="17.7479279">
        <ele>30.4188</ele>
        <time>2012-09-30T09:34:05Z</time>
      </trkpt>
      <trkpt lat="59.9730032" lon="17.7479031">
        <ele>30.4188</ele>
        <time>2012-09-30T09:34:06Z</time>
      </trkpt>
      <trkpt lat="59.9730238" lon="17.7478821">
        <ele>30.4188</ele>
        <time>2012-09-30T09:34:07Z</time>
      </trkpt>
      <trkpt lat="59.973044" lon="17.7478638">
        <ele>30.4188</ele>
        <time>2012-09-30T09:34:08Z</time>
      </trkpt>
      <trkpt lat="59.9730624" lon="17.7478431">
        <ele>29.9381</ele>
        <time>2012-09-30T09:34:09Z</time>
      </trkpt>
      <trkpt lat="59.9730845" lon="17.747823">
        <ele>29.9381</ele>
        <time>2012-09-30T09:34:10Z</time>
      </trkpt>
      <trkpt lat="59.9731064" lon="17.7478025">
        <ele>29.9381</ele>
        <time>2012-09-30T09:34:11Z</time>
      </trkpt>
      <trkpt lat="59.9731255" lon="17.7477791">
        <ele>29.9381</ele>
        <time>2012-09-30T09:34:12Z</time>
      </trkpt>
      <trkpt lat="59.9731466" lon="17.7477585">
        <ele>29.4575</ele>
        <time>2012-09-30T09:34:13Z</time>
      </trkpt>
      <trkpt lat="59.9731684" lon="17.7477376">
        <ele>29.4575</ele>
        <time>2012-09-30T09:34:14Z</time>
      </trkpt>
      <trkpt lat="59.9731929" lon="17.7477202">
        <ele>28.9769</ele>
        <time>2012-09-30T09:34:15Z</time>
      </trkpt>
      <trkpt lat="59.9732153" lon="17.7477009">
        <ele>28.4962</ele>
        <time>2012-09-30T09:34:16Z</time>
      </trkpt>
      <trkpt lat="59.9732357" lon="17.7476827">
        <ele>28.4962</ele>
        <time>2012-09-30T09:34:17Z</time>
      </trkpt>
      <trkpt lat="59.973257" lon="17.7476642">
        <ele>28.9769</ele>
        <time>2012-09-30T09:34:18Z</time>
      </trkpt>
      <trkpt lat="59.9732793" lon="17.7476462">
        <ele>28.9769</ele>
        <time>2012-09-30T09:34:19Z</time>
      </trkpt>
      <trkpt lat="59.9733016" lon="17.7476331">
        <ele>28.9769</ele>
        <time>2012-09-30T09:34:20Z</time>
      </trkpt>
      <trkpt lat="59.9733225" lon="17.7476195">
        <ele>28.9769</ele>
        <time>2012-09-30T09:34:21Z</time>
      </trkpt>
      <trkpt lat="59.9733437" lon="17.7475969">
        <ele>28.9769</ele>
        <time>2012-09-30T09:34:22Z</time>
      </trkpt>
      <trkpt lat="59.9733659" lon="17.747576">
        <ele>28.9769</ele>
        <time>2012-09-30T09:34:23Z</time>
      </trkpt>
      <trkpt lat="59.9733866" lon="17.7475574">
        <ele>29.4575</ele>
        <time>2012-09-30T09:34:24Z</time>
      </trkpt>
      <trkpt lat="59.973408" lon="17.7475354">
        <ele>28.9769</ele>
        <time>2012-09-30T09:34:25Z</time>
      </trkpt>
      <trkpt lat="59.9734299" lon="17.7475141">
        <ele>28.9769</ele>
        <time>2012-09-30T09:34:26Z</time>
      </trkpt>
      <trkpt lat="59.9734501" lon="17.7474906">
        <ele>28.9769</ele>
        <time>2012-09-30T09:34:27Z</time>
      </trkpt>
      <trkpt lat="59.9734725" lon="17.747468">
        <ele>29.4575</ele>
        <time>2012-09-30T09:34:28Z</time>
      </trkpt>
      <trkpt lat="59.9734963" lon="17.7474451">
        <ele>29.4575</ele>
        <time>2012-09-30T09:34:29Z</time>
      </trkpt>
      <trkpt lat="59.9735197" lon="17.7474196">
        <ele>29.4575</ele>
        <time>2012-09-30T09:34:30Z</time>
      </trkpt>
      <trkpt lat="59.9735434" lon="17.747398">
        <ele>29.4575</ele>
        <time>2012-09-30T09:34:31Z</time>
      </trkpt>
      <trkpt lat="59.9735674" lon="17.7473768">
        <ele>29.4575</ele>
        <time>2012-09-30T09:34:32Z</time>
      </trkpt>
      <trkpt lat="59.9735914" lon="17.7473533">
        <ele>29.9381</ele>
        <time>2012-09-30T09:34:33Z</time>
      </trkpt>
      <trkpt lat="59.9736166" lon="17.7473263">
        <ele>29.9381</ele>
        <time>2012-09-30T09:34:34Z</time>
      </trkpt>
      <trkpt lat="59.9736389" lon="17.7473016">
        <ele>30.4188</ele>
        <time>2012-09-30T09:34:35Z</time>
      </trkpt>
      <trkpt lat="59.9736606" lon="17.747283">
        <ele>29.9381</ele>
        <time>2012-09-30T09:34:36Z</time>
      </trkpt>
      <trkpt lat="59.9736827" lon="17.7472538">
        <ele>29.9381</ele>
        <time>2012-09-30T09:34:37Z</time>
      </trkpt>
      <trkpt lat="59.9737045" lon="17.7472331">
        <ele>29.9381</ele>
        <time>2012-09-30T09:34:38Z</time>
      </trkpt>
      <trkpt lat="59.973727" lon="17.7472197">
        <ele>30.4188</ele>
        <time>2012-09-30T09:34:39Z</time>
      </trkpt>
      <trkpt lat="59.9737498" lon="17.7472011">
        <ele>30.4188</ele>
        <time>2012-09-30T09:34:40Z</time>
      </trkpt>
      <trkpt lat="59.9737718" lon="17.7471866">
        <ele>29.9381</ele>
        <time>2012-09-30T09:34:41Z</time>
      </trkpt>
      <trkpt lat="59.9737934" lon="17.7471689">
        <ele>29.4575</ele>
        <time>2012-09-30T09:34:42Z</time>
      </trkpt>
      <trkpt lat="59.9738161" lon="17.7471443">
        <ele>28.9769</ele>
        <time>2012-09-30T09:34:43Z</time>
      </trkpt>
      <trkpt lat="59.9738397" lon="17.7471233">
        <ele>28.9769</ele>
        <time>2012-09-30T09:34:44Z</time>
      </trkpt>
      <trkpt lat="59.9738611" lon="17.7471001">
        <ele>28.4962</ele>
        <time>2012-09-30T09:34:45Z</time>
      </trkpt>
      <trkpt lat="59.9738809" lon="17.7470746">
        <ele>28.4962</ele>
        <time>2012-09-30T09:34:46Z</time>
      </trkpt>
      <trkpt lat="59.9739034" lon="17.7470491">
        <ele>28.0155</ele>
        <time>2012-09-30T09:34:47Z</time>
      </trkpt>
      <trkpt lat="59.9739254" lon="17.7470219">
        <ele>28.4962</ele>
        <time>2012-09-30T09:34:48Z</time>
      </trkpt>
      <trkpt lat="59.9739469" lon="17.746998">
        <ele>28.4962</ele>
        <time>2012-09-30T09:34:49Z</time>
      </trkpt>
      <trkpt lat="59.9739725" lon="17.7469867">
        <ele>28.9769</ele>
        <time>2012-09-30T09:34:50Z</time>
      </trkpt>
      <trkpt lat="59.9739936" lon="17.7469782">
        <ele>28.9769</ele>
        <time>2012-09-30T09:34:51Z</time>
      </trkpt>
      <trkpt lat="59.9740109" lon="17.7469629">
        <ele>28.9769</ele>
        <time>2012-09-30T09:34:52Z</time>
      </trkpt>
      <trkpt lat="59.9740311" lon="17.7469421">
        <ele>29.4575</ele>
        <time>2012-09-30T09:34:53Z</time>
      </trkpt>
      <trkpt lat="59.974051" lon="17.7469218">
        <ele>28.9769</ele>
        <time>2012-09-30T09:34:54Z</time>
      </trkpt>
      <trkpt lat="59.9740705" lon="17.7469043">
        <ele>29.4575</ele>
        <time>2012-09-30T09:34:55Z</time>
      </trkpt>
      <trkpt lat="59.9740906" lon="17.7468826">
        <ele>29.4575</ele>
        <time>2012-09-30T09:34:56Z</time>
      </trkpt>
      <trkpt lat="59.9741102" lon="17.7468596">
        <ele>29.4575</ele>
        <time>2012-09-30T09:34:57Z</time>
      </trkpt>
      <trkpt lat="59.9741277" lon="17.7468349">
        <ele>29.4575</ele>
        <time>2012-09-30T09:34:58Z</time>
      </trkpt>
      <trkpt lat="59.9741492" lon="17.746807">
        <ele>29.4575</ele>
        <time>2012-09-30T09:34:59Z</time>
      </trkpt>
      <trkpt lat="59.9741736" lon="17.7467815">
        <ele>29.4575</ele>
        <time>2012-09-30T09:35:00Z</time>
      </trkpt>
      <trkpt lat="59.9741971" lon="17.7467582">
        <ele>29.4575</ele>
        <time>2012-09-30T09:35:01Z</time>
      </trkpt>
      <trkpt lat="59.9742178" lon="17.7467314">
        <ele>29.9381</ele>
        <time>2012-09-30T09:35:02Z</time>
      </trkpt>
      <trkpt lat="59.9742357" lon="17.7467041">
        <ele>29.9381</ele>
        <time>2012-09-30T09:35:03Z</time>
      </trkpt>
      <trkpt lat="59.9742548" lon="17.7466757">
        <ele>29.9381</ele>
        <time>2012-09-30T09:35:04Z</time>
      </trkpt>
      <trkpt lat="59.9742718" lon="17.746643">
        <ele>30.4188</ele>
        <time>2012-09-30T09:35:05Z</time>
      </trkpt>
      <trkpt lat="59.9742911" lon="17.7466096">
        <ele>30.4188</ele>
        <time>2012-09-30T09:35:06Z</time>
      </trkpt>
      <trkpt lat="59.9743108" lon="17.7465793">
        <ele>30.8995</ele>
        <time>2012-09-30T09:35:07Z</time>
      </trkpt>
      <trkpt lat="59.9743269" lon="17.7465515">
        <ele>30.8995</ele>
        <time>2012-09-30T09:35:08Z</time>
      </trkpt>
      <trkpt lat="59.9743423" lon="17.7465215">
        <ele>30.8995</ele>
        <time>2012-09-30T09:35:09Z</time>
      </trkpt>
      <trkpt lat="59.9743606" lon="17.746494">
        <ele>30.8995</ele>
        <time>2012-09-30T09:35:10Z</time>
      </trkpt>
      <trkpt lat="59.9743784" lon="17.7464711">
        <ele>30.8995</ele>
        <time>2012-09-30T09:35:11Z</time>
      </trkpt>
      <trkpt lat="59.9743942" lon="17.7464479">
        <ele>30.8995</ele>
        <time>2012-09-30T09:35:12Z</time>
      </trkpt>
      <trkpt lat="59.9744148" lon="17.7464174">
        <ele>30.4188</ele>
        <time>2012-09-30T09:35:13Z</time>
      </trkpt>
      <trkpt lat="59.9744361" lon="17.7463859">
        <ele>30.4188</ele>
        <time>2012-09-30T09:35:14Z</time>
      </trkpt>
      <trkpt lat="59.9744521" lon="17.7463588">
        <ele>29.9381</ele>
        <time>2012-09-30T09:35:15Z</time>
      </trkpt>
      <trkpt lat="59.974473" lon="17.7463327">
        <ele>29.9381</ele>
        <time>2012-09-30T09:35:16Z</time>
      </trkpt>
      <trkpt lat="59.9744986" lon="17.7463085">
        <ele>29.4575</ele>
        <time>2012-09-30T09:35:17Z</time>
      </trkpt>
      <trkpt lat="59.9745129" lon="17.7462697">
        <ele>29.4575</ele>
        <time>2012-09-30T09:35:18Z</time>
      </trkpt>
      <trkpt lat="59.9745257" lon="17.7462366">
        <ele>29.4575</ele>
        <time>2012-09-30T09:35:19Z</time>
      </trkpt>
      <trkpt lat="59.9745372" lon="17.7462059">
        <ele>29.4575</ele>
        <time>2012-09-30T09:35:20Z</time>
      </trkpt>
      <trkpt lat="59.9745511" lon="17.7461816">
        <ele>29.9381</ele>
        <time>2012-09-30T09:35:21Z</time>
      </trkpt>
      <trkpt lat="59.9745698" lon="17.7461528">
        <ele>30.4188</ele>
        <time>2012-09-30T09:35:22Z</time>
      </trkpt>
      <trkpt lat="59.974589" lon="17.7461255">
        <ele>29.9381</ele>
        <time>2012-09-30T09:35:23Z</time>
      </trkpt>
      <trkpt lat="59.9746081" lon="17.7461002">
        <ele>30.4188</ele>
        <time>2012-09-30T09:35:24Z</time>
      </trkpt>
      <trkpt lat="59.9746267" lon="17.7460717">
        <ele>30.8995</ele>
        <time>2012-09-30T09:35:25Z</time>
      </trkpt>
      <trkpt lat="59.9746458" lon="17.7460428">
        <ele>30.8995</ele>
        <time>2012-09-30T09:35:26Z</time>
      </trkpt>
      <trkpt lat="59.9746646" lon="17.7460184">
        <ele>30.8995</ele>
        <time>2012-09-30T09:35:27Z</time>
      </trkpt>
      <trkpt lat="59.9746837" lon="17.7459953">
        <ele>30.8995</ele>
        <time>2012-09-30T09:35:28Z</time>
      </trkpt>
      <trkpt lat="59.9746977" lon="17.7459647">
        <ele>30.8995</ele>
        <time>2012-09-30T09:35:29Z</time>
      </trkpt>
      <trkpt lat="59.9747068" lon="17.7459334">
        <ele>30.4188</ele>
        <time>2012-09-30T09:35:30Z</time>
      </trkpt>
      <trkpt lat="59.9747215" lon="17.7458976">
        <ele>30.8995</ele>
        <time>2012-09-30T09:35:31Z</time>
      </trkpt>
      <trkpt lat="59.9747392" lon="17.7458595">
        <ele>30.4188</ele>
        <time>2012-09-30T09:35:32Z</time>
      </trkpt>
      <trkpt lat="59.9747572" lon="17.7458187">
        <ele>29.4575</ele>
        <time>2012-09-30T09:35:33Z</time>
      </trkpt>
      <trkpt lat="59.9747728" lon="17.7457809">
        <ele>29.4575</ele>
        <time>2012-09-30T09:35:34Z</time>
      </trkpt>
      <trkpt lat="59.974789" lon="17.7457466">
        <ele>28.9769</ele>
        <time>2012-09-30T09:35:35Z</time>
      </trkpt>
      <trkpt lat="59.9748071" lon="17.7457163">
        <ele>28.9769</ele>
        <time>2012-09-30T09:35:36Z</time>
      </trkpt>
      <trkpt lat="59.9748236" lon="17.7456889">
        <ele>28.4962</ele>
        <time>2012-09-30T09:35:37Z</time>
      </trkpt>
      <trkpt lat="59.9748386" lon="17.745659">
        <ele>28.0155</ele>
        <time>2012-09-30T09:35:38Z</time>
      </trkpt>
      <trkpt lat="59.9748548" lon="17.745629">
        <ele>28.0155</ele>
        <time>2012-09-30T09:35:39Z</time>
      </trkpt>
      <trkpt lat="59.9748747" lon="17.7456031">
        <ele>27.5349</ele>
        <time>2012-09-30T09:35:40Z</time>
      </trkpt>
      <trkpt lat="59.9748928" lon="17.7455735">
        <ele>27.5349</ele>
        <time>2012-09-30T09:35:41Z</time>
      </trkpt>
      <trkpt lat="59.9749091" lon="17.7455357">
        <ele>27.5349</ele>
        <time>2012-09-30T09:35:42Z</time>
      </trkpt>
      <trkpt lat="59.9749252" lon="17.7454944">
        <ele>27.5349</ele>
        <time>2012-09-30T09:35:43Z</time>
      </trkpt>
      <trkpt lat="59.9749408" lon="17.7454565">
        <ele>27.5349</ele>
        <time>2012-09-30T09:35:44Z</time>
      </trkpt>
      <trkpt lat="59.9749567" lon="17.7454197">
        <ele>27.5349</ele>
        <time>2012-09-30T09:35:45Z</time>
      </trkpt>
      <trkpt lat="59.9749737" lon="17.7453829">
        <ele>27.0543</ele>
        <time>2012-09-30T09:35:46Z</time>
      </trkpt>
      <trkpt lat="59.9749867" lon="17.7453451">
        <ele>27.0543</ele>
        <time>2012-09-30T09:35:47Z</time>
      </trkpt>
      <trkpt lat="59.9749992" lon="17.7453042">
        <ele>26.5736</ele>
        <time>2012-09-30T09:35:48Z</time>
      </trkpt>
      <trkpt lat="59.9750163" lon="17.7452638">
        <ele>26.5736</ele>
        <time>2012-09-30T09:35:49Z</time>
      </trkpt>
      <trkpt lat="59.9750313" lon="17.745224">
        <ele>26.5736</ele>
        <time>2012-09-30T09:35:50Z</time>
      </trkpt>
      <trkpt lat="59.9750426" lon="17.7451829">
        <ele>26.5736</ele>
        <time>2012-09-30T09:35:51Z</time>
      </trkpt>
      <trkpt lat="59.9750556" lon="17.74514">
        <ele>26.5736</ele>
        <time>2012-09-30T09:35:52Z</time>
      </trkpt>
      <trkpt lat="59.9750684" lon="17.7450974">
        <ele>26.5736</ele>
        <time>2012-09-30T09:35:53Z</time>
      </trkpt>
      <trkpt lat="59.9750798" lon="17.7450577">
        <ele>26.5736</ele>
        <time>2012-09-30T09:35:54Z</time>
      </trkpt>
      <trkpt lat="59.9750914" lon="17.7450182">
        <ele>26.5736</ele>
        <time>2012-09-30T09:35:55Z</time>
      </trkpt>
      <trkpt lat="59.9751054" lon="17.7449755">
        <ele>27.0543</ele>
        <time>2012-09-30T09:35:56Z</time>
      </trkpt>
      <trkpt lat="59.9751179" lon="17.7449362">
        <ele>27.0543</ele>
        <time>2012-09-30T09:35:57Z</time>
      </trkpt>
      <trkpt lat="59.9751287" lon="17.7448994">
        <ele>27.5349</ele>
        <time>2012-09-30T09:35:58Z</time>
      </trkpt>
      <trkpt lat="59.9751447" lon="17.7448595">
        <ele>27.0543</ele>
        <time>2012-09-30T09:35:59Z</time>
      </trkpt>
      <trkpt lat="59.9751623" lon="17.744826">
        <ele>27.0543</ele>
        <time>2012-09-30T09:36:00Z</time>
      </trkpt>
      <trkpt lat="59.9751775" lon="17.7447956">
        <ele>27.5349</ele>
        <time>2012-09-30T09:36:01Z</time>
      </trkpt>
      <trkpt lat="59.9751914" lon="17.7447528">
        <ele>27.5349</ele>
        <time>2012-09-30T09:36:02Z</time>
      </trkpt>
      <trkpt lat="59.9752024" lon="17.7447037">
        <ele>27.5349</ele>
        <time>2012-09-30T09:36:03Z</time>
      </trkpt>
      <trkpt lat="59.9752107" lon="17.7446533">
        <ele>27.5349</ele>
        <time>2012-09-30T09:36:04Z</time>
      </trkpt>
      <trkpt lat="59.9752212" lon="17.7446093">
        <ele>28.0155</ele>
        <time>2012-09-30T09:36:05Z</time>
      </trkpt>
      <trkpt lat="59.9752339" lon="17.7445669">
        <ele>28.0155</ele>
        <time>2012-09-30T09:36:06Z</time>
      </trkpt>
      <trkpt lat="59.9752436" lon="17.7445246">
        <ele>28.0155</ele>
        <time>2012-09-30T09:36:07Z</time>
      </trkpt>
      <trkpt lat="59.9752551" lon="17.7444775">
        <ele>28.0155</ele>
        <time>2012-09-30T09:36:08Z</time>
      </trkpt>
      <trkpt lat="59.9752671" lon="17.7444313">
        <ele>28.4962</ele>
        <time>2012-09-30T09:36:09Z</time>
      </trkpt>
      <trkpt lat="59.9752782" lon="17.744396">
        <ele>28.4962</ele>
        <time>2012-09-30T09:36:10Z</time>
      </trkpt>
      <trkpt lat="59.9752862" lon="17.7443552">
        <ele>28.4962</ele>
        <time>2012-09-30T09:36:11Z</time>
      </trkpt>
      <trkpt lat="59.9752964" lon="17.7443091">
        <ele>28.4962</ele>
        <time>2012-09-30T09:36:12Z</time>
      </trkpt>
      <trkpt lat="59.9753059" lon="17.7442648">
        <ele>28.9769</ele>
        <time>2012-09-30T09:36:13Z</time>
      </trkpt>
      <trkpt lat="59.9753146" lon="17.7442283">
        <ele>28.9769</ele>
        <time>2012-09-30T09:36:14Z</time>
      </trkpt>
      <trkpt lat="59.9753234" lon="17.7441867">
        <ele>29.4575</ele>
        <time>2012-09-30T09:36:15Z</time>
      </trkpt>
      <trkpt lat="59.9753316" lon="17.7441432">
        <ele>29.4575</ele>
        <time>2012-09-30T09:36:16Z</time>
      </trkpt>
      <trkpt lat="59.9753374" lon="17.7441019">
        <ele>29.4575</ele>
        <time>2012-09-30T09:36:17Z</time>
      </trkpt>
      <trkpt lat="59.9753421" lon="17.7440545">
        <ele>29.9381</ele>
        <time>2012-09-30T09:36:18Z</time>
      </trkpt>
      <trkpt lat="59.9753473" lon="17.7439997">
        <ele>30.4188</ele>
        <time>2012-09-30T09:36:19Z</time>
      </trkpt>
      <trkpt lat="59.9753531" lon="17.7439506">
        <ele>30.8995</ele>
        <time>2012-09-30T09:36:20Z</time>
      </trkpt>
      <trkpt lat="59.9753592" lon="17.7439055">
        <ele>31.3801</ele>
        <time>2012-09-30T09:36:21Z</time>
      </trkpt>
      <trkpt lat="59.9753659" lon="17.743857">
        <ele>32.3416</ele>
        <time>2012-09-30T09:36:22Z</time>
      </trkpt>
      <trkpt lat="59.9753728" lon="17.7438102">
        <ele>32.3416</ele>
        <time>2012-09-30T09:36:23Z</time>
      </trkpt>
      <trkpt lat="59.975379" lon="17.7437657">
        <ele>32.8223</ele>
        <time>2012-09-30T09:36:24Z</time>
      </trkpt>
      <trkpt lat="59.9753859" lon="17.7437175">
        <ele>33.3029</ele>
        <time>2012-09-30T09:36:25Z</time>
      </trkpt>
      <trkpt lat="59.9753933" lon="17.7436698">
        <ele>33.3029</ele>
        <time>2012-09-30T09:36:26Z</time>
      </trkpt>
      <trkpt lat="59.9753992" lon="17.7436247">
        <ele>33.7834</ele>
        <time>2012-09-30T09:36:27Z</time>
      </trkpt>
      <trkpt lat="59.9754054" lon="17.743577">
        <ele>33.7834</ele>
        <time>2012-09-30T09:36:28Z</time>
      </trkpt>
      <trkpt lat="59.9754118" lon="17.7435282">
        <ele>34.2642</ele>
        <time>2012-09-30T09:36:29Z</time>
      </trkpt>
      <trkpt lat="59.9754177" lon="17.7434858">
        <ele>34.2642</ele>
        <time>2012-09-30T09:36:30Z</time>
      </trkpt>
      <trkpt lat="59.9754251" lon="17.743444">
        <ele>34.2642</ele>
        <time>2012-09-30T09:36:31Z</time>
      </trkpt>
      <trkpt lat="59.9754354" lon="17.7433961">
        <ele>34.2642</ele>
        <time>2012-09-30T09:36:32Z</time>
      </trkpt>
      <trkpt lat="59.9754438" lon="17.7433474">
        <ele>34.7449</ele>
        <time>2012-09-30T09:36:33Z</time>
      </trkpt>
      <trkpt lat="59.9754504" lon="17.7433008">
        <ele>35.2255</ele>
        <time>2012-09-30T09:36:34Z</time>
      </trkpt>
      <trkpt lat="59.9754612" lon="17.7432523">
        <ele>35.2255</ele>
        <time>2012-09-30T09:36:35Z</time>
      </trkpt>
      <trkpt lat="59.9754738" lon="17.7432072">
        <ele>35.2255</ele>
        <time>2012-09-30T09:36:36Z</time>
      </trkpt>
      <trkpt lat="59.975486" lon="17.7431673">
        <ele>35.2255</ele>
        <time>2012-09-30T09:36:37Z</time>
      </trkpt>
      <trkpt lat="59.9754976" lon="17.7431253">
        <ele>35.2255</ele>
        <time>2012-09-30T09:36:38Z</time>
      </trkpt>
      <trkpt lat="59.975509" lon="17.7430841">
        <ele>35.2255</ele>
        <time>2012-09-30T09:36:39Z</time>
      </trkpt>
      <trkpt lat="59.9755178" lon="17.7430413">
        <ele>34.7449</ele>
        <time>2012-09-30T09:36:40Z</time>
      </trkpt>
      <trkpt lat="59.9755276" lon="17.7429948">
        <ele>34.7449</ele>
        <time>2012-09-30T09:36:41Z</time>
      </trkpt>
      <trkpt lat="59.9755365" lon="17.7429456">
        <ele>34.7449</ele>
        <time>2012-09-30T09:36:42Z</time>
      </trkpt>
      <trkpt lat="59.9755436" lon="17.7429045">
        <ele>34.7449</ele>
        <time>2012-09-30T09:36:43Z</time>
      </trkpt>
      <trkpt lat="59.9755541" lon="17.7428688">
        <ele>34.7449</ele>
        <time>2012-09-30T09:36:44Z</time>
      </trkpt>
      <trkpt lat="59.975567" lon="17.7428374">
        <ele>34.7449</ele>
        <time>2012-09-30T09:36:45Z</time>
      </trkpt>
      <trkpt lat="59.9755769" lon="17.7428046">
        <ele>34.7449</ele>
        <time>2012-09-30T09:36:46Z</time>
      </trkpt>
      <trkpt lat="59.9755861" lon="17.7427664">
        <ele>34.7449</ele>
        <time>2012-09-30T09:36:47Z</time>
      </trkpt>
      <trkpt lat="59.9755965" lon="17.7427259">
        <ele>34.7449</ele>
        <time>2012-09-30T09:36:48Z</time>
      </trkpt>
      <trkpt lat="59.9756058" lon="17.7426999">
        <ele>34.7449</ele>
        <time>2012-09-30T09:36:49Z</time>
      </trkpt>
      <trkpt lat="59.9756156" lon="17.7426718">
        <ele>35.2255</ele>
        <time>2012-09-30T09:36:50Z</time>
      </trkpt>
      <trkpt lat="59.9756271" lon="17.7426297">
        <ele>35.2255</ele>
        <time>2012-09-30T09:36:51Z</time>
      </trkpt>
      <trkpt lat="59.9756406" lon="17.7425989">
        <ele>35.2255</ele>
        <time>2012-09-30T09:36:52Z</time>
      </trkpt>
      <trkpt lat="59.9756535" lon="17.7425746">
        <ele>35.7061</ele>
        <time>2012-09-30T09:36:53Z</time>
      </trkpt>
      <trkpt lat="59.9756659" lon="17.7425374">
        <ele>36.1868</ele>
        <time>2012-09-30T09:36:54Z</time>
      </trkpt>
      <trkpt lat="59.9756768" lon="17.7424904">
        <ele>35.7061</ele>
        <time>2012-09-30T09:36:55Z</time>
      </trkpt>
      <trkpt lat="59.9756879" lon="17.742455">
        <ele>36.1868</ele>
        <time>2012-09-30T09:36:56Z</time>
      </trkpt>
      <trkpt lat="59.9757001" lon="17.7424163">
        <ele>36.1868</ele>
        <time>2012-09-30T09:36:57Z</time>
      </trkpt>
      <trkpt lat="59.975711" lon="17.7423663">
        <ele>35.7061</ele>
        <time>2012-09-30T09:36:58Z</time>
      </trkpt>
      <trkpt lat="59.975719" lon="17.7423173">
        <ele>35.7061</ele>
        <time>2012-09-30T09:36:59Z</time>
      </trkpt>
      <trkpt lat="59.9757305" lon="17.7422741">
        <ele>35.7061</ele>
        <time>2012-09-30T09:37:00Z</time>
      </trkpt>
      <trkpt lat="59.9757491" lon="17.742237">
        <ele>35.2255</ele>
        <time>2012-09-30T09:37:01Z</time>
      </trkpt>
      <trkpt lat="59.9757664" lon="17.7422066">
        <ele>35.2255</ele>
        <time>2012-09-30T09:37:02Z</time>
      </trkpt>
      <trkpt lat="59.9757796" lon="17.742179">
        <ele>35.2255</ele>
        <time>2012-09-30T09:37:03Z</time>
      </trkpt>
      <trkpt lat="59.9757926" lon="17.7421351">
        <ele>35.2255</ele>
        <time>2012-09-30T09:37:04Z</time>
      </trkpt>
      <trkpt lat="59.9758042" lon="17.7420871">
        <ele>34.7449</ele>
        <time>2012-09-30T09:37:05Z</time>
      </trkpt>
      <trkpt lat="59.9758156" lon="17.7420403">
        <ele>34.2642</ele>
        <time>2012-09-30T09:37:06Z</time>
      </trkpt>
      <trkpt lat="59.9758276" lon="17.7419905">
        <ele>34.2642</ele>
        <time>2012-09-30T09:37:07Z</time>
      </trkpt>
      <trkpt lat="59.9758402" lon="17.7419558">
        <ele>34.7449</ele>
        <time>2012-09-30T09:37:08Z</time>
      </trkpt>
      <trkpt lat="59.9758488" lon="17.7419193">
        <ele>34.2642</ele>
        <time>2012-09-30T09:37:09Z</time>
      </trkpt>
      <trkpt lat="59.9758589" lon="17.7418719">
        <ele>34.2642</ele>
        <time>2012-09-30T09:37:10Z</time>
      </trkpt>
      <trkpt lat="59.9758715" lon="17.7418225">
        <ele>33.7834</ele>
        <time>2012-09-30T09:37:11Z</time>
      </trkpt>
      <trkpt lat="59.9758813" lon="17.7417755">
        <ele>33.7834</ele>
        <time>2012-09-30T09:37:12Z</time>
      </trkpt>
      <trkpt lat="59.9758924" lon="17.7417309">
        <ele>33.7834</ele>
        <time>2012-09-30T09:37:13Z</time>
      </trkpt>
      <trkpt lat="59.9759068" lon="17.7416867">
        <ele>33.3029</ele>
        <time>2012-09-30T09:37:14Z</time>
      </trkpt>
      <trkpt lat="59.9759179" lon="17.741646">
        <ele>33.3029</ele>
        <time>2012-09-30T09:37:15Z</time>
      </trkpt>
      <trkpt lat="59.975927" lon="17.741605">
        <ele>33.3029</ele>
        <time>2012-09-30T09:37:16Z</time>
      </trkpt>
      <trkpt lat="59.9759373" lon="17.7415546">
        <ele>32.8223</ele>
        <time>2012-09-30T09:37:17Z</time>
      </trkpt>
      <trkpt lat="59.9759498" lon="17.7415035">
        <ele>32.3416</ele>
        <time>2012-09-30T09:37:18Z</time>
      </trkpt>
      <trkpt lat="59.975961" lon="17.7414591">
        <ele>31.8607</ele>
        <time>2012-09-30T09:37:19Z</time>
      </trkpt>
      <trkpt lat="59.9759724" lon="17.7414124">
        <ele>31.8607</ele>
        <time>2012-09-30T09:37:20Z</time>
      </trkpt>
      <trkpt lat="59.975983" lon="17.7413564">
        <ele>31.3801</ele>
        <time>2012-09-30T09:37:21Z</time>
      </trkpt>
      <trkpt lat="59.9759943" lon="17.7413128">
        <ele>30.8995</ele>
        <time>2012-09-30T09:37:22Z</time>
      </trkpt>
      <trkpt lat="59.9760081" lon="17.741272">
        <ele>30.4188</ele>
        <time>2012-09-30T09:37:23Z</time>
      </trkpt>
      <trkpt lat="59.9760228" lon="17.7412255">
        <ele>29.9381</ele>
        <time>2012-09-30T09:37:24Z</time>
      </trkpt>
      <trkpt lat="59.976033" lon="17.7411713">
        <ele>29.4575</ele>
        <time>2012-09-30T09:37:25Z</time>
      </trkpt>
      <trkpt lat="59.9760459" lon="17.7411307">
        <ele>28.9769</ele>
        <time>2012-09-30T09:37:26Z</time>
      </trkpt>
      <trkpt lat="59.9760635" lon="17.7411042">
        <ele>28.4962</ele>
        <time>2012-09-30T09:37:27Z</time>
      </trkpt>
      <trkpt lat="59.9760794" lon="17.7410889">
        <ele>28.0155</ele>
        <time>2012-09-30T09:37:28Z</time>
      </trkpt>
      <trkpt lat="59.9760933" lon="17.7410689">
        <ele>28.0155</ele>
        <time>2012-09-30T09:37:29Z</time>
      </trkpt>
      <trkpt lat="59.9761068" lon="17.7410319">
        <ele>28.0155</ele>
        <time>2012-09-30T09:37:30Z</time>
      </trkpt>
      <trkpt lat="59.9761191" lon="17.7409975">
        <ele>28.0155</ele>
        <time>2012-09-30T09:37:31Z</time>
      </trkpt>
      <trkpt lat="59.9761295" lon="17.7409565">
        <ele>28.0155</ele>
        <time>2012-09-30T09:37:32Z</time>
      </trkpt>
      <trkpt lat="59.976145" lon="17.7409152">
        <ele>28.0155</ele>
        <time>2012-09-30T09:37:33Z</time>
      </trkpt>
      <trkpt lat="59.9761601" lon="17.7408774">
        <ele>28.0155</ele>
        <time>2012-09-30T09:37:34Z</time>
      </trkpt>
      <trkpt lat="59.9761709" lon="17.7408299">
        <ele>28.0155</ele>
        <time>2012-09-30T09:37:35Z</time>
      </trkpt>
      <trkpt lat="59.9761868" lon="17.7407869">
        <ele>28.0155</ele>
        <time>2012-09-30T09:37:36Z</time>
      </trkpt>
      <trkpt lat="59.976205" lon="17.7407592">
        <ele>28.0155</ele>
        <time>2012-09-30T09:37:37Z</time>
      </trkpt>
      <trkpt lat="59.9762187" lon="17.740725">
        <ele>28.0155</ele>
        <time>2012-09-30T09:37:38Z</time>
      </trkpt>
      <trkpt lat="59.9762332" lon="17.7406844">
        <ele>28.0155</ele>
        <time>2012-09-30T09:37:39Z</time>
      </trkpt>
      <trkpt lat="59.9762505" lon="17.7406571">
        <ele>28.4962</ele>
        <time>2012-09-30T09:37:40Z</time>
      </trkpt>
      <trkpt lat="59.9762653" lon="17.740625">
        <ele>28.0155</ele>
        <time>2012-09-30T09:37:41Z</time>
      </trkpt>
      <trkpt lat="59.9762813" lon="17.7405823">
        <ele>28.0155</ele>
        <time>2012-09-30T09:37:42Z</time>
      </trkpt>
      <trkpt lat="59.9762959" lon="17.740541">
        <ele>28.0155</ele>
        <time>2012-09-30T09:37:43Z</time>
      </trkpt>
      <trkpt lat="59.9763122" lon="17.7405033">
        <ele>28.0155</ele>
        <time>2012-09-30T09:37:44Z</time>
      </trkpt>
      <trkpt lat="59.9763294" lon="17.7404628">
        <ele>28.0155</ele>
        <time>2012-09-30T09:37:45Z</time>
      </trkpt>
      <trkpt lat="59.9763456" lon="17.7404313">
        <ele>27.5349</ele>
        <time>2012-09-30T09:37:46Z</time>
      </trkpt>
      <trkpt lat="59.9763626" lon="17.7403853">
        <ele>27.5349</ele>
        <time>2012-09-30T09:37:47Z</time>
      </trkpt>
      <trkpt lat="59.9763798" lon="17.7403383">
        <ele>27.0543</ele>
        <time>2012-09-30T09:37:48Z</time>
      </trkpt>
      <trkpt lat="59.9763963" lon="17.7403075">
        <ele>26.5736</ele>
        <time>2012-09-30T09:37:49Z</time>
      </trkpt>
      <trkpt lat="59.9764097" lon="17.7402769">
        <ele>26.0929</ele>
        <time>2012-09-30T09:37:50Z</time>
      </trkpt>
      <trkpt lat="59.9764226" lon="17.7402365">
        <ele>25.6123</ele>
        <time>2012-09-30T09:37:51Z</time>
      </trkpt>
      <trkpt lat="59.9764371" lon="17.740195">
        <ele>25.1317</ele>
        <time>2012-09-30T09:37:52Z</time>
      </trkpt>
      <trkpt lat="59.9764508" lon="17.7401567">
        <ele>24.651</ele>
        <time>2012-09-30T09:37:53Z</time>
      </trkpt>
      <trkpt lat="59.976467" lon="17.7401152">
        <ele>23.6896</ele>
        <time>2012-09-30T09:37:54Z</time>
      </trkpt>
      <trkpt lat="59.9764822" lon="17.7400692">
        <ele>23.209</ele>
        <time>2012-09-30T09:37:55Z</time>
      </trkpt>
      <trkpt lat="59.9764956" lon="17.7400234">
        <ele>23.209</ele>
        <time>2012-09-30T09:37:56Z</time>
      </trkpt>
      <trkpt lat="59.9765118" lon="17.7399676">
        <ele>22.2476</ele>
        <time>2012-09-30T09:37:57Z</time>
      </trkpt>
      <trkpt lat="59.9765274" lon="17.7399211">
        <ele>22.2476</ele>
        <time>2012-09-30T09:37:58Z</time>
      </trkpt>
      <trkpt lat="59.9765428" lon="17.7398874">
        <ele>21.767</ele>
        <time>2012-09-30T09:37:59Z</time>
      </trkpt>
      <trkpt lat="59.9765589" lon="17.7398512">
        <ele>21.2864</ele>
        <time>2012-09-30T09:38:00Z</time>
      </trkpt>
      <trkpt lat="59.9765734" lon="17.7398159">
        <ele>20.8057</ele>
        <time>2012-09-30T09:38:01Z</time>
      </trkpt>
      <trkpt lat="59.9765838" lon="17.7397862">
        <ele>20.8057</ele>
        <time>2012-09-30T09:38:02Z</time>
      </trkpt>
      <trkpt lat="59.9765981" lon="17.7397546">
        <ele>20.8057</ele>
        <time>2012-09-30T09:38:03Z</time>
      </trkpt>
      <trkpt lat="59.9766152" lon="17.7397217">
        <ele>20.8057</ele>
        <time>2012-09-30T09:38:04Z</time>
      </trkpt>
      <trkpt lat="59.9766314" lon="17.7396908">
        <ele>20.8057</ele>
        <time>2012-09-30T09:38:05Z</time>
      </trkpt>
      <trkpt lat="59.9766501" lon="17.7396619">
        <ele>20.8057</ele>
        <time>2012-09-30T09:38:06Z</time>
      </trkpt>
      <trkpt lat="59.9766687" lon="17.7396357">
        <ele>20.325</ele>
        <time>2012-09-30T09:38:07Z</time>
      </trkpt>
      <trkpt lat="59.9766887" lon="17.7396154">
        <ele>20.325</ele>
        <time>2012-09-30T09:38:08Z</time>
      </trkpt>
      <trkpt lat="59.9767098" lon="17.7395993">
        <ele>20.325</ele>
        <time>2012-09-30T09:38:09Z</time>
      </trkpt>
      <trkpt lat="59.9767268" lon="17.7395802">
        <ele>20.325</ele>
        <time>2012-09-30T09:38:10Z</time>
      </trkpt>
      <trkpt lat="59.9767411" lon="17.7395572">
        <ele>20.325</ele>
        <time>2012-09-30T09:38:11Z</time>
      </trkpt>
      <trkpt lat="59.9767589" lon="17.7395372">
        <ele>19.8444</ele>
        <time>2012-09-30T09:38:12Z</time>
      </trkpt>
      <trkpt lat="59.9767796" lon="17.7395105">
        <ele>19.8444</ele>
        <time>2012-09-30T09:38:13Z</time>
      </trkpt>
      <trkpt lat="59.9768011" lon="17.7394912">
        <ele>19.8444</ele>
        <time>2012-09-30T09:38:14Z</time>
      </trkpt>
      <trkpt lat="59.9768205" lon="17.7394786">
        <ele>19.8444</ele>
        <time>2012-09-30T09:38:15Z</time>
      </trkpt>
      <trkpt lat="59.9768334" lon="17.7394533">
        <ele>19.8444</ele>
        <time>2012-09-30T09:38:16Z</time>
      </trkpt>
      <trkpt lat="59.9768499" lon="17.7394313">
        <ele>19.8444</ele>
        <time>2012-09-30T09:38:17Z</time>
      </trkpt>
      <trkpt lat="59.9768686" lon="17.7394158">
        <ele>19.8444</ele>
        <time>2012-09-30T09:38:18Z</time>
      </trkpt>
      <trkpt lat="59.9768862" lon="17.7393947">
        <ele>20.325</ele>
        <time>2012-09-30T09:38:19Z</time>
      </trkpt>
      <trkpt lat="59.9769065" lon="17.739373">
        <ele>20.8057</ele>
        <time>2012-09-30T09:38:20Z</time>
      </trkpt>
      <trkpt lat="59.9769277" lon="17.7393626">
        <ele>20.8057</ele>
        <time>2012-09-30T09:38:21Z</time>
      </trkpt>
      <trkpt lat="59.9769484" lon="17.7393543">
        <ele>21.2864</ele>
        <time>2012-09-30T09:38:22Z</time>
      </trkpt>
      <trkpt lat="59.9769703" lon="17.7393451">
        <ele>21.2864</ele>
        <time>2012-09-30T09:38:23Z</time>
      </trkpt>
      <trkpt lat="59.9769924" lon="17.7393325">
        <ele>21.767</ele>
        <time>2012-09-30T09:38:24Z</time>
      </trkpt>
      <trkpt lat="59.9770133" lon="17.7393197">
        <ele>21.767</ele>
        <time>2012-09-30T09:38:25Z</time>
      </trkpt>
      <trkpt lat="59.977036" lon="17.7393133">
        <ele>21.767</ele>
        <time>2012-09-30T09:38:26Z</time>
      </trkpt>
      <trkpt lat="59.9770578" lon="17.7393098">
        <ele>22.2476</ele>
        <time>2012-09-30T09:38:27Z</time>
      </trkpt>
      <trkpt lat="59.977076" lon="17.7393051">
        <ele>22.7283</ele>
        <time>2012-09-30T09:38:28Z</time>
      </trkpt>
      <trkpt lat="59.9770967" lon="17.739298">
        <ele>22.7283</ele>
        <time>2012-09-30T09:38:29Z</time>
      </trkpt>
      <trkpt lat="59.9771173" lon="17.7392894">
        <ele>23.209</ele>
        <time>2012-09-30T09:38:30Z</time>
      </trkpt>
      <trkpt lat="59.9771361" lon="17.7392795">
        <ele>23.209</ele>
        <time>2012-09-30T09:38:31Z</time>
      </trkpt>
      <trkpt lat="59.9771557" lon="17.7392657">
        <ele>23.6896</ele>
        <time>2012-09-30T09:38:32Z</time>
      </trkpt>
      <trkpt lat="59.977176" lon="17.7392508">
        <ele>23.6896</ele>
        <time>2012-09-30T09:38:33Z</time>
      </trkpt>
      <trkpt lat="59.9771966" lon="17.7392367">
        <ele>24.651</ele>
        <time>2012-09-30T09:38:34Z</time>
      </trkpt>
      <trkpt lat="59.9772174" lon="17.7392222">
        <ele>25.1317</ele>
        <time>2012-09-30T09:38:35Z</time>
      </trkpt>
      <trkpt lat="59.9772385" lon="17.7392072">
        <ele>24.651</ele>
        <time>2012-09-30T09:38:36Z</time>
      </trkpt>
      <trkpt lat="59.9772593" lon="17.7391931">
        <ele>25.1317</ele>
        <time>2012-09-30T09:38:37Z</time>
      </trkpt>
      <trkpt lat="59.9772808" lon="17.7391808">
        <ele>25.1317</ele>
        <time>2012-09-30T09:38:38Z</time>
      </trkpt>
      <trkpt lat="59.9773018" lon="17.7391683">
        <ele>25.1317</ele>
        <time>2012-09-30T09:38:39Z</time>
      </trkpt>
      <trkpt lat="59.9773226" lon="17.7391534">
        <ele>25.1317</ele>
        <time>2012-09-30T09:38:40Z</time>
      </trkpt>
      <trkpt lat="59.9773468" lon="17.7391414">
        <ele>25.6123</ele>
        <time>2012-09-30T09:38:41Z</time>
      </trkpt>
      <trkpt lat="59.9773682" lon="17.7391329">
        <ele>25.6123</ele>
        <time>2012-09-30T09:38:42Z</time>
      </trkpt>
      <trkpt lat="59.9773897" lon="17.7391274">
        <ele>25.6123</ele>
        <time>2012-09-30T09:38:43Z</time>
      </trkpt>
      <trkpt lat="59.9774122" lon="17.7391248">
        <ele>26.0929</ele>
        <time>2012-09-30T09:38:44Z</time>
      </trkpt>
      <trkpt lat="59.977431" lon="17.7391202">
        <ele>26.0929</ele>
        <time>2012-09-30T09:38:45Z</time>
      </trkpt>
      <trkpt lat="59.9774495" lon="17.739117">
        <ele>26.5736</ele>
        <time>2012-09-30T09:38:46Z</time>
      </trkpt>
      <trkpt lat="59.9774675" lon="17.7390954">
        <ele>27.0543</ele>
        <time>2012-09-30T09:38:47Z</time>
      </trkpt>
      <trkpt lat="59.9774855" lon="17.739084">
        <ele>27.5349</ele>
        <time>2012-09-30T09:38:48Z</time>
      </trkpt>
      <trkpt lat="59.9775052" lon="17.739063">
        <ele>28.0155</ele>
        <time>2012-09-30T09:38:49Z</time>
      </trkpt>
      <trkpt lat="59.9775276" lon="17.7390374">
        <ele>28.9769</ele>
        <time>2012-09-30T09:38:50Z</time>
      </trkpt>
      <trkpt lat="59.9775505" lon="17.7390197">
        <ele>28.9769</ele>
        <time>2012-09-30T09:38:51Z</time>
      </trkpt>
      <trkpt lat="59.9775702" lon="17.7390004">
        <ele>29.4575</ele>
        <time>2012-09-30T09:38:52Z</time>
      </trkpt>
      <trkpt lat="59.977589" lon="17.7389917">
        <ele>29.9381</ele>
        <time>2012-09-30T09:38:53Z</time>
      </trkpt>
      <trkpt lat="59.9776053" lon="17.7389824">
        <ele>30.4188</ele>
        <time>2012-09-30T09:38:54Z</time>
      </trkpt>
      <trkpt lat="59.9776192" lon="17.7389725">
        <ele>30.4188</ele>
        <time>2012-09-30T09:38:55Z</time>
      </trkpt>
      <trkpt lat="59.9776363" lon="17.7389648">
        <ele>30.8995</ele>
        <time>2012-09-30T09:38:56Z</time>
      </trkpt>
      <trkpt lat="59.9776536" lon="17.7389636">
        <ele>30.8995</ele>
        <time>2012-09-30T09:38:57Z</time>
      </trkpt>
      <trkpt lat="59.9776719" lon="17.7389612">
        <ele>31.3801</ele>
        <time>2012-09-30T09:38:58Z</time>
      </trkpt>
      <trkpt lat="59.9776918" lon="17.7389612">
        <ele>31.3801</ele>
        <time>2012-09-30T09:38:59Z</time>
      </trkpt>
      <trkpt lat="59.977711" lon="17.7389662">
        <ele>31.3801</ele>
        <time>2012-09-30T09:39:00Z</time>
      </trkpt>
      <trkpt lat="59.977731" lon="17.7389662">
        <ele>31.8607</ele>
        <time>2012-09-30T09:39:01Z</time>
      </trkpt>
      <trkpt lat="59.9777491" lon="17.7389652">
        <ele>31.8607</ele>
        <time>2012-09-30T09:39:02Z</time>
      </trkpt>
      <trkpt lat="59.97777" lon="17.7389687">
        <ele>32.3416</ele>
        <time>2012-09-30T09:39:03Z</time>
      </trkpt>
      <trkpt lat="59.9777898" lon="17.7389745">
        <ele>32.3416</ele>
        <time>2012-09-30T09:39:04Z</time>
      </trkpt>
      <trkpt lat="59.9778136" lon="17.7389783">
        <ele>32.8223</ele>
        <time>2012-09-30T09:39:05Z</time>
      </trkpt>
      <trkpt lat="59.9778342" lon="17.7389815">
        <ele>33.3029</ele>
        <time>2012-09-30T09:39:06Z</time>
      </trkpt>
      <trkpt lat="59.9778501" lon="17.7389926">
        <ele>33.3029</ele>
        <time>2012-09-30T09:39:07Z</time>
      </trkpt>
      <trkpt lat="59.9778695" lon="17.739005">
        <ele>34.2642</ele>
        <time>2012-09-30T09:39:08Z</time>
      </trkpt>
      <trkpt lat="59.9778923" lon="17.7390207">
        <ele>34.2642</ele>
        <time>2012-09-30T09:39:09Z</time>
      </trkpt>
      <trkpt lat="59.9779129" lon="17.7390337">
        <ele>34.2642</ele>
        <time>2012-09-30T09:39:10Z</time>
      </trkpt>
      <trkpt lat="59.977928" lon="17.7390409">
        <ele>34.2642</ele>
        <time>2012-09-30T09:39:11Z</time>
      </trkpt>
      <trkpt lat="59.9779432" lon="17.7390522">
        <ele>34.7449</ele>
        <time>2012-09-30T09:39:12Z</time>
      </trkpt>
      <trkpt lat="59.9779563" lon="17.7390674">
        <ele>34.2642</ele>
        <time>2012-09-30T09:39:13Z</time>
      </trkpt>
      <trkpt lat="59.9779687" lon="17.7390725">
        <ele>34.2642</ele>
        <time>2012-09-30T09:39:14Z</time>
      </trkpt>
      <trkpt lat="59.9779828" lon="17.739074">
        <ele>34.2642</ele>
        <time>2012-09-30T09:39:15Z</time>
      </trkpt>
      <trkpt lat="59.9780003" lon="17.7390825">
        <ele>33.7834</ele>
        <time>2012-09-30T09:39:16Z</time>
      </trkpt>
      <trkpt lat="59.9780195" lon="17.7390965">
        <ele>33.7834</ele>
        <time>2012-09-30T09:39:17Z</time>
      </trkpt>
      <trkpt lat="59.9780384" lon="17.7391127">
        <ele>33.3029</ele>
        <time>2012-09-30T09:39:18Z</time>
      </trkpt>
      <trkpt lat="59.9780615" lon="17.7391249">
        <ele>33.7834</ele>
        <time>2012-09-30T09:39:19Z</time>
      </trkpt>
      <trkpt lat="59.9780865" lon="17.7391336">
        <ele>33.7834</ele>
        <time>2012-09-30T09:39:20Z</time>
      </trkpt>
      <trkpt lat="59.9781041" lon="17.7391393">
        <ele>33.7834</ele>
        <time>2012-09-30T09:39:21Z</time>
      </trkpt>
      <trkpt lat="59.9781263" lon="17.7391543">
        <ele>33.7834</ele>
        <time>2012-09-30T09:39:22Z</time>
      </trkpt>
      <trkpt lat="59.9781433" lon="17.7391658">
        <ele>33.3029</ele>
        <time>2012-09-30T09:39:23Z</time>
      </trkpt>
      <trkpt lat="59.9781581" lon="17.7391751">
        <ele>33.3029</ele>
        <time>2012-09-30T09:39:24Z</time>
      </trkpt>
      <trkpt lat="59.9781768" lon="17.7391793">
        <ele>33.3029</ele>
        <time>2012-09-30T09:39:25Z</time>
      </trkpt>
      <trkpt lat="59.9781957" lon="17.7391875">
        <ele>32.3416</ele>
        <time>2012-09-30T09:39:26Z</time>
      </trkpt>
      <trkpt lat="59.9782139" lon="17.7392003">
        <ele>31.8607</ele>
        <time>2012-09-30T09:39:27Z</time>
      </trkpt>
      <trkpt lat="59.978233" lon="17.7392087">
        <ele>31.8607</ele>
        <time>2012-09-30T09:39:28Z</time>
      </trkpt>
      <trkpt lat="59.9782533" lon="17.7392165">
        <ele>30.8995</ele>
        <time>2012-09-30T09:39:29Z</time>
      </trkpt>
      <trkpt lat="59.9782719" lon="17.7392239">
        <ele>29.9381</ele>
        <time>2012-09-30T09:39:30Z</time>
      </trkpt>
      <trkpt lat="59.9782912" lon="17.7392296">
        <ele>29.4575</ele>
        <time>2012-09-30T09:39:31Z</time>
      </trkpt>
      <trkpt lat="59.9783103" lon="17.7392386">
        <ele>28.4962</ele>
        <time>2012-09-30T09:39:32Z</time>
      </trkpt>
      <trkpt lat="59.9783299" lon="17.7392451">
        <ele>28.0155</ele>
        <time>2012-09-30T09:39:33Z</time>
      </trkpt>
      <trkpt lat="59.9783518" lon="17.7392479">
        <ele>27.5349</ele>
        <time>2012-09-30T09:39:34Z</time>
      </trkpt>
      <trkpt lat="59.9783721" lon="17.7392616">
        <ele>26.5736</ele>
        <time>2012-09-30T09:39:35Z</time>
      </trkpt>
      <trkpt lat="59.97839" lon="17.7392818">
        <ele>26.0929</ele>
        <time>2012-09-30T09:39:36Z</time>
      </trkpt>
      <trkpt lat="59.978406" lon="17.7392945">
        <ele>25.1317</ele>
        <time>2012-09-30T09:39:37Z</time>
      </trkpt>
      <trkpt lat="59.9784252" lon="17.7393004">
        <ele>24.651</ele>
        <time>2012-09-30T09:39:38Z</time>
      </trkpt>
      <trkpt lat="59.9784472" lon="17.7393124">
        <ele>24.1703</ele>
        <time>2012-09-30T09:39:39Z</time>
      </trkpt>
      <trkpt lat="59.9784687" lon="17.7393196">
        <ele>23.6896</ele>
        <time>2012-09-30T09:39:40Z</time>
      </trkpt>
      <trkpt lat="59.9784844" lon="17.7393261">
        <ele>23.209</ele>
        <time>2012-09-30T09:39:41Z</time>
      </trkpt>
      <trkpt lat="59.9785031" lon="17.739332">
        <ele>22.7283</ele>
        <time>2012-09-30T09:39:42Z</time>
      </trkpt>
      <trkpt lat="59.9785207" lon="17.739341">
        <ele>21.767</ele>
        <time>2012-09-30T09:39:43Z</time>
      </trkpt>
      <trkpt lat="59.9785358" lon="17.7393515">
        <ele>21.2864</ele>
        <time>2012-09-30T09:39:44Z</time>
      </trkpt>
      <trkpt lat="59.9785553" lon="17.739359">
        <ele>20.8057</ele>
        <time>2012-09-30T09:39:45Z</time>
      </trkpt>
      <trkpt lat="59.9785758" lon="17.7393564">
        <ele>20.325</ele>
        <time>2012-09-30T09:39:46Z</time>
      </trkpt>
      <trkpt lat="59.9785958" lon="17.7393594">
        <ele>19.3638</ele>
        <time>2012-09-30T09:39:47Z</time>
      </trkpt>
      <trkpt lat="59.9786159" lon="17.739358">
        <ele>18.8831</ele>
        <time>2012-09-30T09:39:48Z</time>
      </trkpt>
      <trkpt lat="59.9786341" lon="17.7393549">
        <ele>18.4023</ele>
        <time>2012-09-30T09:39:49Z</time>
      </trkpt>
      <trkpt lat="59.978652" lon="17.7393536">
        <ele>17.9218</ele>
        <time>2012-09-30T09:39:50Z</time>
      </trkpt>
      <trkpt lat="59.9786691" lon="17.7393577">
        <ele>17.9218</ele>
        <time>2012-09-30T09:39:51Z</time>
      </trkpt>
      <trkpt lat="59.9786879" lon="17.7393562">
        <ele>17.4412</ele>
        <time>2012-09-30T09:39:52Z</time>
      </trkpt>
      <trkpt lat="59.9787091" lon="17.739352">
        <ele>16.9604</ele>
        <time>2012-09-30T09:39:53Z</time>
      </trkpt>
      <trkpt lat="59.9787309" lon="17.7393444">
        <ele>16.9604</ele>
        <time>2012-09-30T09:39:54Z</time>
      </trkpt>
      <trkpt lat="59.9787522" lon="17.7393388">
        <ele>16.9604</ele>
        <time>2012-09-30T09:39:55Z</time>
      </trkpt>
      <trkpt lat="59.9787734" lon="17.7393398">
        <ele>16.4797</ele>
        <time>2012-09-30T09:39:56Z</time>
      </trkpt>
      <trkpt lat="59.9787974" lon="17.7393357">
        <ele>16.4797</ele>
        <time>2012-09-30T09:39:57Z</time>
      </trkpt>
      <trkpt lat="59.978822" lon="17.7393256">
        <ele>16.4797</ele>
        <time>2012-09-30T09:39:58Z</time>
      </trkpt>
      <trkpt lat="59.9788459" lon="17.7393184">
        <ele>15.999</ele>
        <time>2012-09-30T09:39:59Z</time>
      </trkpt>
      <trkpt lat="59.9788668" lon="17.7393159">
        <ele>15.999</ele>
        <time>2012-09-30T09:40:00Z</time>
      </trkpt>
      <trkpt lat="59.9788869" lon="17.7393067">
        <ele>15.5184</ele>
        <time>2012-09-30T09:40:01Z</time>
      </trkpt>
      <trkpt lat="59.97891" lon="17.7392963">
        <ele>15.5184</ele>
        <time>2012-09-30T09:40:02Z</time>
      </trkpt>
      <trkpt lat="59.9789356" lon="17.7392932">
        <ele>15.5184</ele>
        <time>2012-09-30T09:40:03Z</time>
      </trkpt>
      <trkpt lat="59.978976" lon="17.7392839">
        <ele>17.9218</ele>
        <time>2012-09-30T09:40:04Z</time>
      </trkpt>
      <trkpt lat="59.9790049" lon="17.739275">
        <ele>18.4023</ele>
        <time>2012-09-30T09:40:05Z</time>
      </trkpt>
      <trkpt lat="59.979041" lon="17.7392552">
        <ele>19.8444</ele>
        <time>2012-09-30T09:40:06Z</time>
      </trkpt>
      <trkpt lat="59.9790735" lon="17.7392388">
        <ele>21.767</ele>
        <time>2012-09-30T09:40:07Z</time>
      </trkpt>
      <trkpt lat="59.9791074" lon="17.7392242">
        <ele>23.209</ele>
        <time>2012-09-30T09:40:08Z</time>
      </trkpt>
      <trkpt lat="59.9791366" lon="17.7392035">
        <ele>24.1703</ele>
        <time>2012-09-30T09:40:09Z</time>
      </trkpt>
      <trkpt lat="59.9791653" lon="17.7391781">
        <ele>25.1317</ele>
        <time>2012-09-30T09:40:10Z</time>
      </trkpt>
      <trkpt lat="59.979193" lon="17.7391527">
        <ele>25.6123</ele>
        <time>2012-09-30T09:40:11Z</time>
      </trkpt>
      <trkpt lat="59.9792188" lon="17.7391366">
        <ele>26.5736</ele>
        <time>2012-09-30T09:40:12Z</time>
      </trkpt>
      <trkpt lat="59.97924" lon="17.7391207">
        <ele>27.5349</ele>
        <time>2012-09-30T09:40:13Z</time>
      </trkpt>
      <trkpt lat="59.9792639" lon="17.7391062">
        <ele>28.4962</ele>
        <time>2012-09-30T09:40:14Z</time>
      </trkpt>
      <trkpt lat="59.9792893" lon="17.7390915">
        <ele>29.4575</ele>
        <time>2012-09-30T09:40:15Z</time>
      </trkpt>
      <trkpt lat="59.9793256" lon="17.7390683">
        <ele>31.3801</ele>
        <time>2012-09-30T09:40:16Z</time>
      </trkpt>
      <trkpt lat="59.9793567" lon="17.7390528">
        <ele>32.8223</ele>
        <time>2012-09-30T09:40:17Z</time>
      </trkpt>
      <trkpt lat="59.9793876" lon="17.7390402">
        <ele>34.2642</ele>
        <time>2012-09-30T09:40:18Z</time>
      </trkpt>
      <trkpt lat="59.9794159" lon="17.7390216">
        <ele>35.2255</ele>
        <time>2012-09-30T09:40:19Z</time>
      </trkpt>
      <trkpt lat="59.9794421" lon="17.7390015">
        <ele>36.6675</ele>
        <time>2012-09-30T09:40:20Z</time>
      </trkpt>
      <trkpt lat="59.9794638" lon="17.7389815">
        <ele>37.6287</ele>
        <time>2012-09-30T09:40:21Z</time>
      </trkpt>
      <trkpt lat="59.9794815" lon="17.738967">
        <ele>38.5901</ele>
        <time>2012-09-30T09:40:22Z</time>
      </trkpt>
      <trkpt lat="59.9794981" lon="17.7389483">
        <ele>39.0707</ele>
        <time>2012-09-30T09:40:23Z</time>
      </trkpt>
      <trkpt lat="59.9795192" lon="17.7389363">
        <ele>39.5513</ele>
        <time>2012-09-30T09:40:24Z</time>
      </trkpt>
      <trkpt lat="59.9795404" lon="17.7389257">
        <ele>39.5513</ele>
        <time>2012-09-30T09:40:25Z</time>
      </trkpt>
      <trkpt lat="59.9795577" lon="17.7389113">
        <ele>40.0321</ele>
        <time>2012-09-30T09:40:26Z</time>
      </trkpt>
      <trkpt lat="59.9795746" lon="17.7389061">
        <ele>40.5128</ele>
        <time>2012-09-30T09:40:27Z</time>
      </trkpt>
      <trkpt lat="59.9795912" lon="17.7388922">
        <ele>40.5128</ele>
        <time>2012-09-30T09:40:28Z</time>
      </trkpt>
      <trkpt lat="59.9796104" lon="17.738881">
        <ele>40.9934</ele>
        <time>2012-09-30T09:40:29Z</time>
      </trkpt>
      <trkpt lat="59.979639" lon="17.7388577">
        <ele>41.9547</ele>
        <time>2012-09-30T09:40:30Z</time>
      </trkpt>
      <trkpt lat="59.9796659" lon="17.7388451">
        <ele>41.9547</ele>
        <time>2012-09-30T09:40:31Z</time>
      </trkpt>
      <trkpt lat="59.9796938" lon="17.7388399">
        <ele>41.9547</ele>
        <time>2012-09-30T09:40:32Z</time>
      </trkpt>
      <trkpt lat="59.9797224" lon="17.7388254">
        <ele>42.916</ele>
        <time>2012-09-30T09:40:33Z</time>
      </trkpt>
      <trkpt lat="59.9797482" lon="17.7388136">
        <ele>42.916</ele>
        <time>2012-09-30T09:40:34Z</time>
      </trkpt>
      <trkpt lat="59.9797706" lon="17.7388063">
        <ele>43.3966</ele>
        <time>2012-09-30T09:40:35Z</time>
      </trkpt>
      <trkpt lat="59.9797908" lon="17.7388024">
        <ele>43.8773</ele>
        <time>2012-09-30T09:40:36Z</time>
      </trkpt>
      <trkpt lat="59.9798156" lon="17.7388033">
        <ele>44.358</ele>
        <time>2012-09-30T09:40:37Z</time>
      </trkpt>
      <trkpt lat="59.9798456" lon="17.7387927">
        <ele>44.8386</ele>
        <time>2012-09-30T09:40:38Z</time>
      </trkpt>
      <trkpt lat="59.9798789" lon="17.7387751">
        <ele>46.2806</ele>
        <time>2012-09-30T09:40:39Z</time>
      </trkpt>
      <trkpt lat="59.9799093" lon="17.73877">
        <ele>46.7612</ele>
        <time>2012-09-30T09:40:40Z</time>
      </trkpt>
      <trkpt lat="59.9799395" lon="17.7387555">
        <ele>47.7225</ele>
        <time>2012-09-30T09:40:41Z</time>
      </trkpt>
      <trkpt lat="59.9799652" lon="17.7387317">
        <ele>48.2034</ele>
        <time>2012-09-30T09:40:42Z</time>
      </trkpt>
      <trkpt lat="59.9799913" lon="17.7387182">
        <ele>48.684</ele>
        <time>2012-09-30T09:40:43Z</time>
      </trkpt>
      <trkpt lat="59.9800172" lon="17.7387128">
        <ele>48.684</ele>
        <time>2012-09-30T09:40:44Z</time>
      </trkpt>
      <trkpt lat="59.9800403" lon="17.738712">
        <ele>49.6453</ele>
        <time>2012-09-30T09:40:45Z</time>
      </trkpt>
      <trkpt lat="59.9800597" lon="17.7387172">
        <ele>49.6453</ele>
        <time>2012-09-30T09:40:46Z</time>
      </trkpt>
      <trkpt lat="59.980085" lon="17.7387178">
        <ele>50.6066</ele>
        <time>2012-09-30T09:40:47Z</time>
      </trkpt>
      <trkpt lat="59.9801058" lon="17.7387213">
        <ele>51.0872</ele>
        <time>2012-09-30T09:40:48Z</time>
      </trkpt>
      <trkpt lat="59.9801274" lon="17.7387233">
        <ele>51.0872</ele>
        <time>2012-09-30T09:40:49Z</time>
      </trkpt>
      <trkpt lat="59.9801487" lon="17.7387135">
        <ele>51.5679</ele>
        <time>2012-09-30T09:40:50Z</time>
      </trkpt>
      <trkpt lat="59.9801725" lon="17.7387072">
        <ele>51.5679</ele>
        <time>2012-09-30T09:40:51Z</time>
      </trkpt>
      <trkpt lat="59.9802048" lon="17.7387017">
        <ele>52.0486</ele>
        <time>2012-09-30T09:40:52Z</time>
      </trkpt>
      <trkpt lat="59.9802379" lon="17.738697">
        <ele>52.5292</ele>
        <time>2012-09-30T09:40:53Z</time>
      </trkpt>
      <trkpt lat="59.9802659" lon="17.7387084">
        <ele>52.5292</ele>
        <time>2012-09-30T09:40:54Z</time>
      </trkpt>
      <trkpt lat="59.9802891" lon="17.7387176">
        <ele>52.0486</ele>
        <time>2012-09-30T09:40:55Z</time>
      </trkpt>
      <trkpt lat="59.9803224" lon="17.7387111">
        <ele>53.4905</ele>
        <time>2012-09-30T09:40:56Z</time>
      </trkpt>
      <trkpt lat="59.9803539" lon="17.7387094">
        <ele>53.9712</ele>
        <time>2012-09-30T09:40:57Z</time>
      </trkpt>
      <trkpt lat="59.9803809" lon="17.7387108">
        <ele>54.4518</ele>
        <time>2012-09-30T09:40:58Z</time>
      </trkpt>
      <trkpt lat="59.9803969" lon="17.7387107">
        <ele>54.4518</ele>
        <time>2012-09-30T09:40:59Z</time>
      </trkpt>
      <trkpt lat="59.9804103" lon="17.73871">
        <ele>53.4905</ele>
        <time>2012-09-30T09:41:00Z</time>
      </trkpt>
      <trkpt lat="59.9804258" lon="17.7387108">
        <ele>53.0098</ele>
        <time>2012-09-30T09:41:01Z</time>
      </trkpt>
      <trkpt lat="59.9804391" lon="17.7387109">
        <ele>52.5292</ele>
        <time>2012-09-30T09:41:02Z</time>
      </trkpt>
      <trkpt lat="59.9804549" lon="17.7387083">
        <ele>52.5292</ele>
        <time>2012-09-30T09:41:03Z</time>
      </trkpt>
      <trkpt lat="59.9804736" lon="17.73871">
        <ele>52.5292</ele>
        <time>2012-09-30T09:41:04Z</time>
      </trkpt>
      <trkpt lat="59.9804987" lon="17.7387021">
        <ele>51.5679</ele>
        <time>2012-09-30T09:41:05Z</time>
      </trkpt>
      <trkpt lat="59.9805217" lon="17.7386965">
        <ele>51.5679</ele>
        <time>2012-09-30T09:41:06Z</time>
      </trkpt>
      <trkpt lat="59.9805414" lon="17.7386923">
        <ele>51.0872</ele>
        <time>2012-09-30T09:41:07Z</time>
      </trkpt>
      <trkpt lat="59.9805622" lon="17.7386934">
        <ele>51.0872</ele>
        <time>2012-09-30T09:41:08Z</time>
      </trkpt>
      <trkpt lat="59.9805837" lon="17.7386968">
        <ele>51.5679</ele>
        <time>2012-09-30T09:41:09Z</time>
      </trkpt>
      <trkpt lat="59.9806029" lon="17.7387016">
        <ele>51.0872</ele>
        <time>2012-09-30T09:41:10Z</time>
      </trkpt>
      <trkpt lat="59.9806201" lon="17.7387076">
        <ele>50.6066</ele>
        <time>2012-09-30T09:41:11Z</time>
      </trkpt>
      <trkpt lat="59.9806399" lon="17.7386989">
        <ele>50.6066</ele>
        <time>2012-09-30T09:41:12Z</time>
      </trkpt>
      <trkpt lat="59.9806616" lon="17.7386938">
        <ele>50.126</ele>
        <time>2012-09-30T09:41:13Z</time>
      </trkpt>
      <trkpt lat="59.9806838" lon="17.7386964">
        <ele>49.1646</ele>
        <time>2012-09-30T09:41:14Z</time>
      </trkpt>
      <trkpt lat="59.9807057" lon="17.7386949">
        <ele>48.684</ele>
        <time>2012-09-30T09:41:15Z</time>
      </trkpt>
      <trkpt lat="59.9807252" lon="17.7386815">
        <ele>48.684</ele>
        <time>2012-09-30T09:41:16Z</time>
      </trkpt>
      <trkpt lat="59.9807477" lon="17.7386648">
        <ele>49.6453</ele>
        <time>2012-09-30T09:41:17Z</time>
      </trkpt>
      <trkpt lat="59.9807771" lon="17.7386452">
        <ele>50.6066</ele>
        <time>2012-09-30T09:41:18Z</time>
      </trkpt>
      <trkpt lat="59.9807962" lon="17.7386395">
        <ele>50.126</ele>
        <time>2012-09-30T09:41:19Z</time>
      </trkpt>
      <trkpt lat="59.9808086" lon="17.738632">
        <ele>49.6453</ele>
        <time>2012-09-30T09:41:20Z</time>
      </trkpt>
      <trkpt lat="59.9808206" lon="17.7386239">
        <ele>48.684</ele>
        <time>2012-09-30T09:41:21Z</time>
      </trkpt>
      <trkpt lat="59.9808311" lon="17.7386268">
        <ele>47.7225</ele>
        <time>2012-09-30T09:41:22Z</time>
      </trkpt>
      <trkpt lat="59.9808393" lon="17.7386218">
        <ele>47.2418</ele>
        <time>2012-09-30T09:41:23Z</time>
      </trkpt>
      <trkpt lat="59.9808465" lon="17.7386125">
        <ele>46.2806</ele>
        <time>2012-09-30T09:41:24Z</time>
      </trkpt>
      <trkpt lat="59.9808563" lon="17.7386022">
        <ele>45.3192</ele>
        <time>2012-09-30T09:41:25Z</time>
      </trkpt>
      <trkpt lat="59.9808668" lon="17.7385971">
        <ele>44.8386</ele>
        <time>2012-09-30T09:41:26Z</time>
      </trkpt>
      <trkpt lat="59.98089" lon="17.7385968">
        <ele>44.8386</ele>
        <time>2012-09-30T09:41:27Z</time>
      </trkpt>
      <trkpt lat="59.9809107" lon="17.738598">
        <ele>44.8386</ele>
        <time>2012-09-30T09:41:28Z</time>
      </trkpt>
      <trkpt lat="59.980933" lon="17.7385969">
        <ele>45.3192</ele>
        <time>2012-09-30T09:41:29Z</time>
      </trkpt>
      <trkpt lat="59.9809444" lon="17.7385882">
        <ele>45.3192</ele>
        <time>2012-09-30T09:41:30Z</time>
      </trkpt>
      <trkpt lat="59.9809605" lon="17.7385871">
        <ele>45.3192</ele>
        <time>2012-09-30T09:41:31Z</time>
      </trkpt>
      <trkpt lat="59.9809782" lon="17.7385918">
        <ele>45.3192</ele>
        <time>2012-09-30T09:41:32Z</time>
      </trkpt>
      <trkpt lat="59.9809988" lon="17.738596">
        <ele>45.7999</ele>
        <time>2012-09-30T09:41:33Z</time>
      </trkpt>
      <trkpt lat="59.9810211" lon="17.738597">
        <ele>45.3192</ele>
        <time>2012-09-30T09:41:34Z</time>
      </trkpt>
      <trkpt lat="59.9810506" lon="17.7385932">
        <ele>45.3192</ele>
        <time>2012-09-30T09:41:35Z</time>
      </trkpt>
      <trkpt lat="59.9810755" lon="17.7385891">
        <ele>44.8386</ele>
        <time>2012-09-30T09:41:36Z</time>
      </trkpt>
      <trkpt lat="59.9810966" lon="17.738585">
        <ele>44.358</ele>
        <time>2012-09-30T09:41:37Z</time>
      </trkpt>
      <trkpt lat="59.9811189" lon="17.7385799">
        <ele>44.8386</ele>
        <time>2012-09-30T09:41:38Z</time>
      </trkpt>
      <trkpt lat="59.9811612" lon="17.7385551">
        <ele>46.2806</ele>
        <time>2012-09-30T09:41:40Z</time>
      </trkpt>
      <trkpt lat="59.9811831" lon="17.7385503">
        <ele>46.7612</ele>
        <time>2012-09-30T09:41:41Z</time>
      </trkpt>
      <trkpt lat="59.9812053" lon="17.7385411">
        <ele>46.2806</ele>
        <time>2012-09-30T09:41:42Z</time>
      </trkpt>
      <trkpt lat="59.9812315" lon="17.7385369">
        <ele>46.2806</ele>
        <time>2012-09-30T09:41:43Z</time>
      </trkpt>
      <trkpt lat="59.9812577" lon="17.7385178">
        <ele>46.7612</ele>
        <time>2012-09-30T09:41:44Z</time>
      </trkpt>
      <trkpt lat="59.9812806" lon="17.738502">
        <ele>46.7612</ele>
        <time>2012-09-30T09:41:45Z</time>
      </trkpt>
      <trkpt lat="59.9813012" lon="17.7384933">
        <ele>46.7612</ele>
        <time>2012-09-30T09:41:46Z</time>
      </trkpt>
      <trkpt lat="59.9813267" lon="17.7384897">
        <ele>46.7612</ele>
        <time>2012-09-30T09:41:47Z</time>
      </trkpt>
      <trkpt lat="59.9813473" lon="17.7384876">
        <ele>46.2806</ele>
        <time>2012-09-30T09:41:48Z</time>
      </trkpt>
      <trkpt lat="59.9813644" lon="17.7384747">
        <ele>45.3192</ele>
        <time>2012-09-30T09:41:49Z</time>
      </trkpt>
      <trkpt lat="59.9813816" lon="17.7384567">
        <ele>45.3192</ele>
        <time>2012-09-30T09:41:50Z</time>
      </trkpt>
      <trkpt lat="59.9813966" lon="17.7384519">
        <ele>44.358</ele>
        <time>2012-09-30T09:41:51Z</time>
      </trkpt>
      <trkpt lat="59.9814132" lon="17.738454">
        <ele>43.3966</ele>
        <time>2012-09-30T09:41:52Z</time>
      </trkpt>
      <trkpt lat="59.9814318" lon="17.7384493">
        <ele>42.916</ele>
        <time>2012-09-30T09:41:53Z</time>
      </trkpt>
      <trkpt lat="59.981466" lon="17.7384373">
        <ele>44.358</ele>
        <time>2012-09-30T09:41:54Z</time>
      </trkpt>
      <trkpt lat="59.9814899" lon="17.7384302">
        <ele>43.8773</ele>
        <time>2012-09-30T09:41:55Z</time>
      </trkpt>
      <trkpt lat="59.9815111" lon="17.7384179">
        <ele>43.3966</ele>
        <time>2012-09-30T09:41:56Z</time>
      </trkpt>
      <trkpt lat="59.9815396" lon="17.7384073">
        <ele>44.358</ele>
        <time>2012-09-30T09:41:57Z</time>
      </trkpt>
      <trkpt lat="59.9815567" lon="17.7384011">
        <ele>44.358</ele>
        <time>2012-09-30T09:41:58Z</time>
      </trkpt>
      <trkpt lat="59.9815739" lon="17.7383975">
        <ele>43.8773</ele>
        <time>2012-09-30T09:41:59Z</time>
      </trkpt>
      <trkpt lat="59.9815877" lon="17.7383913">
        <ele>43.3966</ele>
        <time>2012-09-30T09:42:00Z</time>
      </trkpt>
      <trkpt lat="59.9816024" lon="17.7383865">
        <ele>43.3966</ele>
        <time>2012-09-30T09:42:01Z</time>
      </trkpt>
      <trkpt lat="59.981619" lon="17.7383803">
        <ele>42.916</ele>
        <time>2012-09-30T09:42:02Z</time>
      </trkpt>
      <trkpt lat="59.9816383" lon="17.7383769">
        <ele>41.9547</ele>
        <time>2012-09-30T09:42:03Z</time>
      </trkpt>
      <trkpt lat="59.981664" lon="17.7383779">
        <ele>42.916</ele>
        <time>2012-09-30T09:42:04Z</time>
      </trkpt>
      <trkpt lat="59.9816875" lon="17.7383753">
        <ele>42.916</ele>
        <time>2012-09-30T09:42:05Z</time>
      </trkpt>
      <trkpt lat="59.9817126" lon="17.7383689">
        <ele>43.3966</ele>
        <time>2012-09-30T09:42:06Z</time>
      </trkpt>
      <trkpt lat="59.9817384" lon="17.7383554">
        <ele>44.358</ele>
        <time>2012-09-30T09:42:07Z</time>
      </trkpt>
      <trkpt lat="59.981767" lon="17.7383536">
        <ele>44.358</ele>
        <time>2012-09-30T09:42:08Z</time>
      </trkpt>
      <trkpt lat="59.9817972" lon="17.7383379">
        <ele>44.8386</ele>
        <time>2012-09-30T09:42:09Z</time>
      </trkpt>
      <trkpt lat="59.9818265" lon="17.7383202">
        <ele>45.3192</ele>
        <time>2012-09-30T09:42:10Z</time>
      </trkpt>
      <trkpt lat="59.9818521" lon="17.7383068">
        <ele>45.3192</ele>
        <time>2012-09-30T09:42:11Z</time>
      </trkpt>
      <trkpt lat="59.9818779" lon="17.7382925">
        <ele>45.7999</ele>
        <time>2012-09-30T09:42:12Z</time>
      </trkpt>
      <trkpt lat="59.9819021" lon="17.7382794">
        <ele>46.7612</ele>
        <time>2012-09-30T09:42:13Z</time>
      </trkpt>
      <trkpt lat="59.9819255" lon="17.7382629">
        <ele>47.2418</ele>
        <time>2012-09-30T09:42:14Z</time>
      </trkpt>
      <trkpt lat="59.9819424" lon="17.7382529">
        <ele>47.2418</ele>
        <time>2012-09-30T09:42:15Z</time>
      </trkpt>
      <trkpt lat="59.9819592" lon="17.7382499">
        <ele>46.7612</ele>
        <time>2012-09-30T09:42:16Z</time>
      </trkpt>
      <trkpt lat="59.9819866" lon="17.7382435">
        <ele>47.2418</ele>
        <time>2012-09-30T09:42:17Z</time>
      </trkpt>
      <trkpt lat="59.9820047" lon="17.7382312">
        <ele>47.7225</ele>
        <time>2012-09-30T09:42:18Z</time>
      </trkpt>
      <trkpt lat="59.9820202" lon="17.7382215">
        <ele>47.2418</ele>
        <time>2012-09-30T09:42:19Z</time>
      </trkpt>
      <trkpt lat="59.9820385" lon="17.7382169">
        <ele>47.7225</ele>
        <time>2012-09-30T09:42:20Z</time>
      </trkpt>
      <trkpt lat="59.982056" lon="17.7382143">
        <ele>47.7225</ele>
        <time>2012-09-30T09:42:21Z</time>
      </trkpt>
      <trkpt lat="59.9820753" lon="17.7382085">
        <ele>47.2418</ele>
        <time>2012-09-30T09:42:22Z</time>
      </trkpt>
      <trkpt lat="59.9821016" lon="17.7382002">
        <ele>47.7225</ele>
        <time>2012-09-30T09:42:23Z</time>
      </trkpt>
      <trkpt lat="59.9821265" lon="17.738194">
        <ele>47.7225</ele>
        <time>2012-09-30T09:42:24Z</time>
      </trkpt>
      <trkpt lat="59.9821529" lon="17.7381908">
        <ele>48.2034</ele>
        <time>2012-09-30T09:42:25Z</time>
      </trkpt>
      <trkpt lat="59.9821781" lon="17.7381824">
        <ele>48.2034</ele>
        <time>2012-09-30T09:42:26Z</time>
      </trkpt>
      <trkpt lat="59.982205" lon="17.7381697">
        <ele>48.684</ele>
        <time>2012-09-30T09:42:27Z</time>
      </trkpt>
      <trkpt lat="59.9822296" lon="17.7381541">
        <ele>48.2034</ele>
        <time>2012-09-30T09:42:28Z</time>
      </trkpt>
      <trkpt lat="59.9822506" lon="17.738139">
        <ele>47.7225</ele>
        <time>2012-09-30T09:42:29Z</time>
      </trkpt>
      <trkpt lat="59.98227" lon="17.7381318">
        <ele>47.2418</ele>
        <time>2012-09-30T09:42:30Z</time>
      </trkpt>
      <trkpt lat="59.9822944" lon="17.7381251">
        <ele>46.7612</ele>
        <time>2012-09-30T09:42:31Z</time>
      </trkpt>
      <trkpt lat="59.9823162" lon="17.7381148">
        <ele>45.7999</ele>
        <time>2012-09-30T09:42:32Z</time>
      </trkpt>
      <trkpt lat="59.9823408" lon="17.7381017">
        <ele>45.3192</ele>
        <time>2012-09-30T09:42:33Z</time>
      </trkpt>
      <trkpt lat="59.9823672" lon="17.7380862">
        <ele>45.3192</ele>
        <time>2012-09-30T09:42:34Z</time>
      </trkpt>
      <trkpt lat="59.9823889" lon="17.7380767">
        <ele>44.358</ele>
        <time>2012-09-30T09:42:35Z</time>
      </trkpt>
      <trkpt lat="59.9824083" lon="17.7380741">
        <ele>43.3966</ele>
        <time>2012-09-30T09:42:36Z</time>
      </trkpt>
      <trkpt lat="59.9824311" lon="17.7380783">
        <ele>43.3966</ele>
        <time>2012-09-30T09:42:37Z</time>
      </trkpt>
      <trkpt lat="59.9824514" lon="17.7380846">
        <ele>42.4354</ele>
        <time>2012-09-30T09:42:38Z</time>
      </trkpt>
      <trkpt lat="59.9824704" lon="17.7380898">
        <ele>41.9547</ele>
        <time>2012-09-30T09:42:39Z</time>
      </trkpt>
      <trkpt lat="59.9825031" lon="17.7380822">
        <ele>42.916</ele>
        <time>2012-09-30T09:42:40Z</time>
      </trkpt>
      <trkpt lat="59.982535" lon="17.7380795">
        <ele>43.8773</ele>
        <time>2012-09-30T09:42:41Z</time>
      </trkpt>
      <trkpt lat="59.9825612" lon="17.7380746">
        <ele>43.8773</ele>
        <time>2012-09-30T09:42:42Z</time>
      </trkpt>
      <trkpt lat="59.9825818" lon="17.7380738">
        <ele>43.3966</ele>
        <time>2012-09-30T09:42:43Z</time>
      </trkpt>
      <trkpt lat="59.9826015" lon="17.7380762">
        <ele>42.916</ele>
        <time>2012-09-30T09:42:44Z</time>
      </trkpt>
      <trkpt lat="59.9826217" lon="17.7380873">
        <ele>41.9547</ele>
        <time>2012-09-30T09:42:45Z</time>
      </trkpt>
      <trkpt lat="59.9826448" lon="17.7380946">
        <ele>41.474</ele>
        <time>2012-09-30T09:42:46Z</time>
      </trkpt>
      <trkpt lat="59.9826689" lon="17.7380967">
        <ele>40.9934</ele>
        <time>2012-09-30T09:42:47Z</time>
      </trkpt>
      <trkpt lat="59.9826916" lon="17.7380974">
        <ele>40.5128</ele>
        <time>2012-09-30T09:42:48Z</time>
      </trkpt>
      <trkpt lat="59.9827145" lon="17.7381079">
        <ele>40.0321</ele>
        <time>2012-09-30T09:42:49Z</time>
      </trkpt>
      <trkpt lat="59.9827356" lon="17.7381231">
        <ele>39.0707</ele>
        <time>2012-09-30T09:42:50Z</time>
      </trkpt>
      <trkpt lat="59.9827554" lon="17.7381339">
        <ele>38.1094</ele>
        <time>2012-09-30T09:42:51Z</time>
      </trkpt>
      <trkpt lat="59.9827719" lon="17.7381458">
        <ele>36.6675</ele>
        <time>2012-09-30T09:42:52Z</time>
      </trkpt>
      <trkpt lat="59.9827909" lon="17.7381549">
        <ele>36.1868</ele>
        <time>2012-09-30T09:42:53Z</time>
      </trkpt>
      <trkpt lat="59.9828041" lon="17.7381578">
        <ele>34.7449</ele>
        <time>2012-09-30T09:42:54Z</time>
      </trkpt>
      <trkpt lat="59.9828191" lon="17.7381637">
        <ele>34.2642</ele>
        <time>2012-09-30T09:42:55Z</time>
      </trkpt>
      <trkpt lat="59.9828363" lon="17.7381703">
        <ele>33.3029</ele>
        <time>2012-09-30T09:42:56Z</time>
      </trkpt>
      <trkpt lat="59.9828533" lon="17.7381783">
        <ele>32.3416</ele>
        <time>2012-09-30T09:42:57Z</time>
      </trkpt>
      <trkpt lat="59.9828698" lon="17.7381756">
        <ele>31.8607</ele>
        <time>2012-09-30T09:42:58Z</time>
      </trkpt>
      <trkpt lat="59.9828841" lon="17.7381774">
        <ele>30.8995</ele>
        <time>2012-09-30T09:42:59Z</time>
      </trkpt>
      <trkpt lat="59.9828993" lon="17.738187">
        <ele>29.9381</ele>
        <time>2012-09-30T09:43:00Z</time>
      </trkpt>
      <trkpt lat="59.9829134" lon="17.7381924">
        <ele>28.9769</ele>
        <time>2012-09-30T09:43:01Z</time>
      </trkpt>
      <trkpt lat="59.9829293" lon="17.7381902">
        <ele>28.9769</ele>
        <time>2012-09-30T09:43:02Z</time>
      </trkpt>
      <trkpt lat="59.9829564" lon="17.7381934">
        <ele>30.4188</ele>
        <time>2012-09-30T09:43:03Z</time>
      </trkpt>
      <trkpt lat="59.9829729" lon="17.7381936">
        <ele>30.4188</ele>
        <time>2012-09-30T09:43:04Z</time>
      </trkpt>
      <trkpt lat="59.9829878" lon="17.7381891">
        <ele>29.9381</ele>
        <time>2012-09-30T09:43:05Z</time>
      </trkpt>
      <trkpt lat="59.9830185" lon="17.738182">
        <ele>31.3801</ele>
        <time>2012-09-30T09:43:06Z</time>
      </trkpt>
      <trkpt lat="59.983048" lon="17.7381726">
        <ele>32.3416</ele>
        <time>2012-09-30T09:43:07Z</time>
      </trkpt>
      <trkpt lat="59.9830795" lon="17.738167">
        <ele>33.7834</ele>
        <time>2012-09-30T09:43:08Z</time>
      </trkpt>
      <trkpt lat="59.9831092" lon="17.7381711">
        <ele>35.2255</ele>
        <time>2012-09-30T09:43:09Z</time>
      </trkpt>
      <trkpt lat="59.9831336" lon="17.7381702">
        <ele>36.1868</ele>
        <time>2012-09-30T09:43:10Z</time>
      </trkpt>
      <trkpt lat="59.9831521" lon="17.7381666">
        <ele>36.1868</ele>
        <time>2012-09-30T09:43:11Z</time>
      </trkpt>
      <trkpt lat="59.9831673" lon="17.7381534">
        <ele>36.1868</ele>
        <time>2012-09-30T09:43:12Z</time>
      </trkpt>
      <trkpt lat="59.9831851" lon="17.7381396">
        <ele>35.7061</ele>
        <time>2012-09-30T09:43:13Z</time>
      </trkpt>
      <trkpt lat="59.983204" lon="17.7381291">
        <ele>35.7061</ele>
        <time>2012-09-30T09:43:14Z</time>
      </trkpt>
      <trkpt lat="59.9832227" lon="17.7381233">
        <ele>36.1868</ele>
        <time>2012-09-30T09:43:15Z</time>
      </trkpt>
      <trkpt lat="59.9832434" lon="17.7381169">
        <ele>37.1481</ele>
        <time>2012-09-30T09:43:16Z</time>
      </trkpt>
      <trkpt lat="59.9832681" lon="17.7381224">
        <ele>37.1481</ele>
        <time>2012-09-30T09:43:17Z</time>
      </trkpt>
      <trkpt lat="59.983298" lon="17.7381245">
        <ele>37.1481</ele>
        <time>2012-09-30T09:43:18Z</time>
      </trkpt>
      <trkpt lat="59.9833324" lon="17.7381266">
        <ele>37.6287</ele>
        <time>2012-09-30T09:43:19Z</time>
      </trkpt>
      <trkpt lat="59.9833676" lon="17.7381218">
        <ele>39.0707</ele>
        <time>2012-09-30T09:43:20Z</time>
      </trkpt>
      <trkpt lat="59.983392" lon="17.7381117">
        <ele>39.0707</ele>
        <time>2012-09-30T09:43:21Z</time>
      </trkpt>
      <trkpt lat="59.9834239" lon="17.738111">
        <ele>40.0321</ele>
        <time>2012-09-30T09:43:22Z</time>
      </trkpt>
      <trkpt lat="59.9834524" lon="17.7381122">
        <ele>40.0321</ele>
        <time>2012-09-30T09:43:23Z</time>
      </trkpt>
      <trkpt lat="59.9834909" lon="17.7381037">
        <ele>41.474</ele>
        <time>2012-09-30T09:43:24Z</time>
      </trkpt>
      <trkpt lat="59.9835205" lon="17.7380893">
        <ele>41.9547</ele>
        <time>2012-09-30T09:43:25Z</time>
      </trkpt>
      <trkpt lat="59.9835524" lon="17.7380817">
        <ele>43.3966</ele>
        <time>2012-09-30T09:43:26Z</time>
      </trkpt>
      <trkpt lat="59.9835789" lon="17.7380748">
        <ele>43.8773</ele>
        <time>2012-09-30T09:43:27Z</time>
      </trkpt>
      <trkpt lat="59.9836215" lon="17.7380571">
        <ele>45.7999</ele>
        <time>2012-09-30T09:43:28Z</time>
      </trkpt>
      <trkpt lat="59.9836627" lon="17.7380381">
        <ele>47.7225</ele>
        <time>2012-09-30T09:43:29Z</time>
      </trkpt>
      <trkpt lat="59.9836995" lon="17.7380324">
        <ele>48.684</ele>
        <time>2012-09-30T09:43:30Z</time>
      </trkpt>
      <trkpt lat="59.983737" lon="17.7380228">
        <ele>50.126</ele>
        <time>2012-09-30T09:43:31Z</time>
      </trkpt>
      <trkpt lat="59.9837703" lon="17.7380096">
        <ele>51.0872</ele>
        <time>2012-09-30T09:43:32Z</time>
      </trkpt>
      <trkpt lat="59.9838023" lon="17.7379881">
        <ele>51.5679</ele>
        <time>2012-09-30T09:43:33Z</time>
      </trkpt>
      <trkpt lat="59.983848" lon="17.7379742">
        <ele>54.4518</ele>
        <time>2012-09-30T09:43:34Z</time>
      </trkpt>
      <trkpt lat="59.9838847" lon="17.7379535">
        <ele>56.3745</ele>
        <time>2012-09-30T09:43:35Z</time>
      </trkpt>
      <trkpt lat="59.9839192" lon="17.7379395">
        <ele>57.3358</ele>
        <time>2012-09-30T09:43:36Z</time>
      </trkpt>
      <trkpt lat="59.9839535" lon="17.7379299">
        <ele>58.2971</ele>
        <time>2012-09-30T09:43:37Z</time>
      </trkpt>
      <trkpt lat="59.983981" lon="17.737921">
        <ele>58.7777</ele>
        <time>2012-09-30T09:43:38Z</time>
      </trkpt>
      <trkpt lat="59.9840011" lon="17.7379185">
        <ele>59.2584</ele>
        <time>2012-09-30T09:43:39Z</time>
      </trkpt>
      <trkpt lat="59.984016" lon="17.7379138">
        <ele>59.7391</ele>
        <time>2012-09-30T09:43:40Z</time>
      </trkpt>
      <trkpt lat="59.9840289" lon="17.7379101">
        <ele>59.7391</ele>
        <time>2012-09-30T09:43:41Z</time>
      </trkpt>
      <trkpt lat="59.9840472" lon="17.7379123">
        <ele>60.2197</ele>
        <time>2012-09-30T09:43:42Z</time>
      </trkpt>
      <trkpt lat="59.9840685" lon="17.7379063">
        <ele>60.2197</ele>
        <time>2012-09-30T09:43:43Z</time>
      </trkpt>
      <trkpt lat="59.9840925" lon="17.737895">
        <ele>60.7003</ele>
        <time>2012-09-30T09:43:44Z</time>
      </trkpt>
      <trkpt lat="59.9841162" lon="17.7378956">
        <ele>61.181</ele>
        <time>2012-09-30T09:43:45Z</time>
      </trkpt>
      <trkpt lat="59.9841339" lon="17.7378894">
        <ele>60.7003</ele>
        <time>2012-09-30T09:43:46Z</time>
      </trkpt>
      <trkpt lat="59.9841616" lon="17.7378762">
        <ele>61.181</ele>
        <time>2012-09-30T09:43:47Z</time>
      </trkpt>
      <trkpt lat="59.9841885" lon="17.7378738">
        <ele>61.6617</ele>
        <time>2012-09-30T09:43:48Z</time>
      </trkpt>
      <trkpt lat="59.9842159" lon="17.7378832">
        <ele>62.1423</ele>
        <time>2012-09-30T09:43:49Z</time>
      </trkpt>
      <trkpt lat="59.984237" lon="17.7378837">
        <ele>61.6617</ele>
        <time>2012-09-30T09:43:50Z</time>
      </trkpt>
      <trkpt lat="59.9842566" lon="17.7378877">
        <ele>61.6617</ele>
        <time>2012-09-30T09:43:51Z</time>
      </trkpt>
      <trkpt lat="59.9842726" lon="17.7378899">
        <ele>61.181</ele>
        <time>2012-09-30T09:43:52Z</time>
      </trkpt>
      <trkpt lat="59.9842877" lon="17.7378892">
        <ele>60.7003</ele>
        <time>2012-09-30T09:43:53Z</time>
      </trkpt>
      <trkpt lat="59.9843031" lon="17.7378957">
        <ele>58.7777</ele>
        <time>2012-09-30T09:43:54Z</time>
      </trkpt>
      <trkpt lat="59.9843224" lon="17.7379083">
        <ele>57.8165</ele>
        <time>2012-09-30T09:43:55Z</time>
      </trkpt>
      <trkpt lat="59.9843425" lon="17.737921">
        <ele>56.8551</ele>
        <time>2012-09-30T09:43:56Z</time>
      </trkpt>
      <trkpt lat="59.9843576" lon="17.7379304">
        <ele>55.4131</ele>
        <time>2012-09-30T09:43:57Z</time>
      </trkpt>
      <trkpt lat="59.984387" lon="17.7379333">
        <ele>56.3745</ele>
        <time>2012-09-30T09:43:58Z</time>
      </trkpt>
      <trkpt lat="59.9844167" lon="17.7379418">
        <ele>56.8551</ele>
        <time>2012-09-30T09:43:59Z</time>
      </trkpt>
      <trkpt lat="59.9844436" lon="17.73795">
        <ele>57.8165</ele>
        <time>2012-09-30T09:44:00Z</time>
      </trkpt>
      <trkpt lat="59.98447" lon="17.7379625">
        <ele>58.2971</ele>
        <time>2012-09-30T09:44:01Z</time>
      </trkpt>
      <trkpt lat="59.9844886" lon="17.7379774">
        <ele>56.8551</ele>
        <time>2012-09-30T09:44:02Z</time>
      </trkpt>
      <trkpt lat="59.9845176" lon="17.7379691">
        <ele>57.8165</ele>
        <time>2012-09-30T09:44:03Z</time>
      </trkpt>
      <trkpt lat="59.9845371" lon="17.7379672">
        <ele>56.8551</ele>
        <time>2012-09-30T09:44:04Z</time>
      </trkpt>
      <trkpt lat="59.9845631" lon="17.73797">
        <ele>55.8938</ele>
        <time>2012-09-30T09:44:05Z</time>
      </trkpt>
      <trkpt lat="59.9845903" lon="17.7379785">
        <ele>55.4131</ele>
        <time>2012-09-30T09:44:06Z</time>
      </trkpt>
      <trkpt lat="59.9846104" lon="17.73798">
        <ele>54.4518</ele>
        <time>2012-09-30T09:44:07Z</time>
      </trkpt>
      <trkpt lat="59.984626" lon="17.7379904">
        <ele>53.4905</ele>
        <time>2012-09-30T09:44:08Z</time>
      </trkpt>
      <trkpt lat="59.9846412" lon="17.7379959">
        <ele>53.0098</ele>
        <time>2012-09-30T09:44:09Z</time>
      </trkpt>
      <trkpt lat="59.9846559" lon="17.7380071">
        <ele>51.5679</ele>
        <time>2012-09-30T09:44:10Z</time>
      </trkpt>
      <trkpt lat="59.9846713" lon="17.7380246">
        <ele>50.6066</ele>
        <time>2012-09-30T09:44:11Z</time>
      </trkpt>
      <trkpt lat="59.9846856" lon="17.7380344">
        <ele>49.6453</ele>
        <time>2012-09-30T09:44:12Z</time>
      </trkpt>
      <trkpt lat="59.9847041" lon="17.7380456">
        <ele>48.684</ele>
        <time>2012-09-30T09:44:13Z</time>
      </trkpt>
      <trkpt lat="59.9847221" lon="17.7380583">
        <ele>47.7225</ele>
        <time>2012-09-30T09:44:14Z</time>
      </trkpt>
      <trkpt lat="59.9847362" lon="17.7380742">
        <ele>46.2806</ele>
        <time>2012-09-30T09:44:15Z</time>
      </trkpt>
      <trkpt lat="59.9847474" lon="17.7380887">
        <ele>44.8386</ele>
        <time>2012-09-30T09:44:16Z</time>
      </trkpt>
      <trkpt lat="59.9847632" lon="17.7381013">
        <ele>43.8773</ele>
        <time>2012-09-30T09:44:17Z</time>
      </trkpt>
      <trkpt lat="59.9847849" lon="17.738113">
        <ele>43.3966</ele>
        <time>2012-09-30T09:44:18Z</time>
      </trkpt>
      <trkpt lat="59.9848086" lon="17.7381233">
        <ele>43.3966</ele>
        <time>2012-09-30T09:44:19Z</time>
      </trkpt>
      <trkpt lat="59.9848345" lon="17.7381221">
        <ele>44.358</ele>
        <time>2012-09-30T09:44:20Z</time>
      </trkpt>
      <trkpt lat="59.984862" lon="17.7381176">
        <ele>45.3192</ele>
        <time>2012-09-30T09:44:21Z</time>
      </trkpt>
      <trkpt lat="59.9848788" lon="17.7381155">
        <ele>45.7999</ele>
        <time>2012-09-30T09:44:22Z</time>
      </trkpt>
      <trkpt lat="59.9849014" lon="17.738124">
        <ele>46.2806</ele>
        <time>2012-09-30T09:44:23Z</time>
      </trkpt>
      <trkpt lat="59.9849205" lon="17.7381295">
        <ele>45.7999</ele>
        <time>2012-09-30T09:44:24Z</time>
      </trkpt>
      <trkpt lat="59.9849391" lon="17.7381259">
        <ele>45.3192</ele>
        <time>2012-09-30T09:44:25Z</time>
      </trkpt>
      <trkpt lat="59.9849661" lon="17.7381322">
        <ele>45.7999</ele>
        <time>2012-09-30T09:44:26Z</time>
      </trkpt>
      <trkpt lat="59.9849928" lon="17.7381292">
        <ele>46.2806</ele>
        <time>2012-09-30T09:44:27Z</time>
      </trkpt>
      <trkpt lat="59.985019" lon="17.7381323">
        <ele>46.7612</ele>
        <time>2012-09-30T09:44:28Z</time>
      </trkpt>
      <trkpt lat="59.9850464" lon="17.7381404">
        <ele>47.2418</ele>
        <time>2012-09-30T09:44:29Z</time>
      </trkpt>
      <trkpt lat="59.9850705" lon="17.7381452">
        <ele>47.7225</ele>
        <time>2012-09-30T09:44:30Z</time>
      </trkpt>
      <trkpt lat="59.9850868" lon="17.7381544">
        <ele>46.7612</ele>
        <time>2012-09-30T09:44:31Z</time>
      </trkpt>
      <trkpt lat="59.9851087" lon="17.7381695">
        <ele>47.2418</ele>
        <time>2012-09-30T09:44:32Z</time>
      </trkpt>
      <trkpt lat="59.9851254" lon="17.7381712">
        <ele>47.2418</ele>
        <time>2012-09-30T09:44:33Z</time>
      </trkpt>
      <trkpt lat="59.9851526" lon="17.7381728">
        <ele>47.7225</ele>
        <time>2012-09-30T09:44:34Z</time>
      </trkpt>
      <trkpt lat="59.9851745" lon="17.7381772">
        <ele>47.7225</ele>
        <time>2012-09-30T09:44:35Z</time>
      </trkpt>
      <trkpt lat="59.9851952" lon="17.7381873">
        <ele>47.7225</ele>
        <time>2012-09-30T09:44:36Z</time>
      </trkpt>
      <trkpt lat="59.9852164" lon="17.7381944">
        <ele>47.2418</ele>
        <time>2012-09-30T09:44:37Z</time>
      </trkpt>
      <trkpt lat="59.985246" lon="17.7382058">
        <ele>48.2034</ele>
        <time>2012-09-30T09:44:38Z</time>
      </trkpt>
      <trkpt lat="59.9852655" lon="17.7382134">
        <ele>47.7225</ele>
        <time>2012-09-30T09:44:39Z</time>
      </trkpt>
      <trkpt lat="59.9852926" lon="17.7382219">
        <ele>48.684</ele>
        <time>2012-09-30T09:44:40Z</time>
      </trkpt>
      <trkpt lat="59.9853141" lon="17.7382277">
        <ele>48.684</ele>
        <time>2012-09-30T09:44:41Z</time>
      </trkpt>
      <trkpt lat="59.9853408" lon="17.7382323">
        <ele>48.684</ele>
        <time>2012-09-30T09:44:42Z</time>
      </trkpt>
      <trkpt lat="59.9853636" lon="17.7382404">
        <ele>49.1646</ele>
        <time>2012-09-30T09:44:43Z</time>
      </trkpt>
      <trkpt lat="59.9853806" lon="17.7382469">
        <ele>49.6453</ele>
        <time>2012-09-30T09:44:44Z</time>
      </trkpt>
      <trkpt lat="59.9853981" lon="17.7382545">
        <ele>50.126</ele>
        <time>2012-09-30T09:44:45Z</time>
      </trkpt>
      <trkpt lat="59.9854205" lon="17.7382618">
        <ele>51.0872</ele>
        <time>2012-09-30T09:44:46Z</time>
      </trkpt>
      <trkpt lat="59.9854512" lon="17.7382766">
        <ele>51.5679</ele>
        <time>2012-09-30T09:44:47Z</time>
      </trkpt>
      <trkpt lat="59.9854809" lon="17.7382919">
        <ele>51.5679</ele>
        <time>2012-09-30T09:44:48Z</time>
      </trkpt>
      <trkpt lat="59.9854993" lon="17.7382989">
        <ele>50.6066</ele>
        <time>2012-09-30T09:44:49Z</time>
      </trkpt>
      <trkpt lat="59.985519" lon="17.7383031">
        <ele>50.6066</ele>
        <time>2012-09-30T09:44:50Z</time>
      </trkpt>
      <trkpt lat="59.9855397" lon="17.7383084">
        <ele>50.6066</ele>
        <time>2012-09-30T09:44:51Z</time>
      </trkpt>
      <trkpt lat="59.9855588" lon="17.7383262">
        <ele>50.126</ele>
        <time>2012-09-30T09:44:52Z</time>
      </trkpt>
      <trkpt lat="59.9855841" lon="17.7383349">
        <ele>51.0872</ele>
        <time>2012-09-30T09:44:53Z</time>
      </trkpt>
      <trkpt lat="59.985606" lon="17.7383364">
        <ele>52.0486</ele>
        <time>2012-09-30T09:44:54Z</time>
      </trkpt>
      <trkpt lat="59.985627" lon="17.7383464">
        <ele>52.5292</ele>
        <time>2012-09-30T09:44:55Z</time>
      </trkpt>
      <trkpt lat="59.9856464" lon="17.7383633">
        <ele>52.5292</ele>
        <time>2012-09-30T09:44:56Z</time>
      </trkpt>
      <trkpt lat="59.9856671" lon="17.7383764">
        <ele>53.0098</ele>
        <time>2012-09-30T09:44:57Z</time>
      </trkpt>
      <trkpt lat="59.9856876" lon="17.7383828">
        <ele>52.5292</ele>
        <time>2012-09-30T09:44:58Z</time>
      </trkpt>
      <trkpt lat="59.9857099" lon="17.7383974">
        <ele>52.0486</ele>
        <time>2012-09-30T09:44:59Z</time>
      </trkpt>
      <trkpt lat="59.9857265" lon="17.7384198">
        <ele>52.0486</ele>
        <time>2012-09-30T09:45:00Z</time>
      </trkpt>
      <trkpt lat="59.9857428" lon="17.7384424">
        <ele>51.5679</ele>
        <time>2012-09-30T09:45:01Z</time>
      </trkpt>
      <trkpt lat="59.9857572" lon="17.7384525">
        <ele>50.126</ele>
        <time>2012-09-30T09:45:02Z</time>
      </trkpt>
      <trkpt lat="59.9857831" lon="17.7384658">
        <ele>50.126</ele>
        <time>2012-09-30T09:45:03Z</time>
      </trkpt>
      <trkpt lat="59.9857974" lon="17.7384839">
        <ele>49.6453</ele>
        <time>2012-09-30T09:45:04Z</time>
      </trkpt>
      <trkpt lat="59.9858177" lon="17.7384986">
        <ele>49.1646</ele>
        <time>2012-09-30T09:45:05Z</time>
      </trkpt>
      <trkpt lat="59.9858335" lon="17.7385035">
        <ele>48.684</ele>
        <time>2012-09-30T09:45:06Z</time>
      </trkpt>
      <trkpt lat="59.9858581" lon="17.7385144">
        <ele>48.684</ele>
        <time>2012-09-30T09:45:07Z</time>
      </trkpt>
      <trkpt lat="59.9858728" lon="17.7385258">
        <ele>48.2034</ele>
        <time>2012-09-30T09:45:08Z</time>
      </trkpt>
      <trkpt lat="59.9858927" lon="17.7385363">
        <ele>48.2034</ele>
        <time>2012-09-30T09:45:09Z</time>
      </trkpt>
      <trkpt lat="59.9859162" lon="17.738545">
        <ele>48.684</ele>
        <time>2012-09-30T09:45:10Z</time>
      </trkpt>
      <trkpt lat="59.9859428" lon="17.7385585">
        <ele>49.1646</ele>
        <time>2012-09-30T09:45:11Z</time>
      </trkpt>
      <trkpt lat="59.9859718" lon="17.738568">
        <ele>49.1646</ele>
        <time>2012-09-30T09:45:12Z</time>
      </trkpt>
      <trkpt lat="59.9859997" lon="17.7385726">
        <ele>49.6453</ele>
        <time>2012-09-30T09:45:13Z</time>
      </trkpt>
      <trkpt lat="59.986022" lon="17.7385766">
        <ele>49.6453</ele>
        <time>2012-09-30T09:45:14Z</time>
      </trkpt>
      <trkpt lat="59.9860477" lon="17.7385883">
        <ele>50.6066</ele>
        <time>2012-09-30T09:45:15Z</time>
      </trkpt>
      <trkpt lat="59.9860748" lon="17.7386105">
        <ele>51.5679</ele>
        <time>2012-09-30T09:45:16Z</time>
      </trkpt>
      <trkpt lat="59.9860986" lon="17.7386301">
        <ele>51.0872</ele>
        <time>2012-09-30T09:45:17Z</time>
      </trkpt>
      <trkpt lat="59.986121" lon="17.7386415">
        <ele>50.126</ele>
        <time>2012-09-30T09:45:18Z</time>
      </trkpt>
      <trkpt lat="59.9861505" lon="17.738656">
        <ele>51.0872</ele>
        <time>2012-09-30T09:45:19Z</time>
      </trkpt>
      <trkpt lat="59.9861711" lon="17.7386648">
        <ele>52.0486</ele>
        <time>2012-09-30T09:45:20Z</time>
      </trkpt>
      <trkpt lat="59.9861912" lon="17.7386852">
        <ele>52.5292</ele>
        <time>2012-09-30T09:45:21Z</time>
      </trkpt>
      <trkpt lat="59.9862168" lon="17.738697">
        <ele>53.0098</ele>
        <time>2012-09-30T09:45:22Z</time>
      </trkpt>
      <trkpt lat="59.9862442" lon="17.7387113">
        <ele>53.9712</ele>
        <time>2012-09-30T09:45:23Z</time>
      </trkpt>
      <trkpt lat="59.9862702" lon="17.7387252">
        <ele>53.9712</ele>
        <time>2012-09-30T09:45:24Z</time>
      </trkpt>
      <trkpt lat="59.9863001" lon="17.7387451">
        <ele>54.4518</ele>
        <time>2012-09-30T09:45:25Z</time>
      </trkpt>
      <trkpt lat="59.9863259" lon="17.738762">
        <ele>54.9324</ele>
        <time>2012-09-30T09:45:26Z</time>
      </trkpt>
      <trkpt lat="59.9863504" lon="17.7387809">
        <ele>55.4131</ele>
        <time>2012-09-30T09:45:27Z</time>
      </trkpt>
      <trkpt lat="59.9863699" lon="17.7387933">
        <ele>55.8938</ele>
        <time>2012-09-30T09:45:28Z</time>
      </trkpt>
      <trkpt lat="59.9863897" lon="17.7388057">
        <ele>56.3745</ele>
        <time>2012-09-30T09:45:29Z</time>
      </trkpt>
      <trkpt lat="59.9864047" lon="17.7388243">
        <ele>55.8938</ele>
        <time>2012-09-30T09:45:30Z</time>
      </trkpt>
      <trkpt lat="59.9864291" lon="17.7388471">
        <ele>55.8938</ele>
        <time>2012-09-30T09:45:31Z</time>
      </trkpt>
      <trkpt lat="59.9864548" lon="17.7388689">
        <ele>55.8938</ele>
        <time>2012-09-30T09:45:32Z</time>
      </trkpt>
      <trkpt lat="59.986481" lon="17.7388927">
        <ele>55.8938</ele>
        <time>2012-09-30T09:45:33Z</time>
      </trkpt>
      <trkpt lat="59.9865114" lon="17.7389031">
        <ele>56.8551</ele>
        <time>2012-09-30T09:45:34Z</time>
      </trkpt>
      <trkpt lat="59.98654" lon="17.7389234">
        <ele>56.8551</ele>
        <time>2012-09-30T09:45:35Z</time>
      </trkpt>
      <trkpt lat="59.9865718" lon="17.7389296">
        <ele>57.3358</ele>
        <time>2012-09-30T09:45:36Z</time>
      </trkpt>
      <trkpt lat="59.9865948" lon="17.7389441">
        <ele>57.8165</ele>
        <time>2012-09-30T09:45:37Z</time>
      </trkpt>
      <trkpt lat="59.9866207" lon="17.7389543">
        <ele>58.2971</ele>
        <time>2012-09-30T09:45:38Z</time>
      </trkpt>
      <trkpt lat="59.9866421" lon="17.7389763">
        <ele>57.8165</ele>
        <time>2012-09-30T09:45:39Z</time>
      </trkpt>
      <trkpt lat="59.9866643" lon="17.7390022">
        <ele>57.3358</ele>
        <time>2012-09-30T09:45:40Z</time>
      </trkpt>
      <trkpt lat="59.9866846" lon="17.7390254">
        <ele>56.8551</ele>
        <time>2012-09-30T09:45:41Z</time>
      </trkpt>
      <trkpt lat="59.9867088" lon="17.7390369">
        <ele>57.8165</ele>
        <time>2012-09-30T09:45:42Z</time>
      </trkpt>
      <trkpt lat="59.9867281" lon="17.7390518">
        <ele>57.8165</ele>
        <time>2012-09-30T09:45:43Z</time>
      </trkpt>
      <trkpt lat="59.9867539" lon="17.7390579">
        <ele>58.2971</ele>
        <time>2012-09-30T09:45:44Z</time>
      </trkpt>
      <trkpt lat="59.9867714" lon="17.7390683">
        <ele>58.2971</ele>
        <time>2012-09-30T09:45:45Z</time>
      </trkpt>
      <trkpt lat="59.9867871" lon="17.7390818">
        <ele>58.2971</ele>
        <time>2012-09-30T09:45:46Z</time>
      </trkpt>
      <trkpt lat="59.9868021" lon="17.739101">
        <ele>58.2971</ele>
        <time>2012-09-30T09:45:47Z</time>
      </trkpt>
      <trkpt lat="59.9868181" lon="17.739122">
        <ele>58.7777</ele>
        <time>2012-09-30T09:45:48Z</time>
      </trkpt>
      <trkpt lat="59.9868347" lon="17.7391461">
        <ele>58.7777</ele>
        <time>2012-09-30T09:45:49Z</time>
      </trkpt>
      <trkpt lat="59.9868528" lon="17.7391683">
        <ele>58.2971</ele>
        <time>2012-09-30T09:45:50Z</time>
      </trkpt>
      <trkpt lat="59.9868687" lon="17.7391866">
        <ele>57.8165</ele>
        <time>2012-09-30T09:45:51Z</time>
      </trkpt>
      <trkpt lat="59.9868848" lon="17.7392062">
        <ele>57.3358</ele>
        <time>2012-09-30T09:45:52Z</time>
      </trkpt>
      <trkpt lat="59.9869066" lon="17.7392202">
        <ele>57.3358</ele>
        <time>2012-09-30T09:45:53Z</time>
      </trkpt>
      <trkpt lat="59.9869272" lon="17.7392315">
        <ele>57.8165</ele>
        <time>2012-09-30T09:45:54Z</time>
      </trkpt>
      <trkpt lat="59.9869405" lon="17.7392476">
        <ele>57.3358</ele>
        <time>2012-09-30T09:45:55Z</time>
      </trkpt>
      <trkpt lat="59.9869567" lon="17.7392663">
        <ele>56.3745</ele>
        <time>2012-09-30T09:45:56Z</time>
      </trkpt>
      <trkpt lat="59.9869762" lon="17.7392761">
        <ele>55.8938</ele>
        <time>2012-09-30T09:45:57Z</time>
      </trkpt>
      <trkpt lat="59.9869897" lon="17.7392901">
        <ele>55.4131</ele>
        <time>2012-09-30T09:45:58Z</time>
      </trkpt>
      <trkpt lat="59.9870046" lon="17.7393072">
        <ele>53.9712</ele>
        <time>2012-09-30T09:45:59Z</time>
      </trkpt>
      <trkpt lat="59.9870194" lon="17.7393235">
        <ele>53.0098</ele>
        <time>2012-09-30T09:46:00Z</time>
      </trkpt>
      <trkpt lat="59.9870356" lon="17.7393373">
        <ele>52.5292</ele>
        <time>2012-09-30T09:46:01Z</time>
      </trkpt>
      <trkpt lat="59.9870549" lon="17.7393502">
        <ele>52.5292</ele>
        <time>2012-09-30T09:46:02Z</time>
      </trkpt>
      <trkpt lat="59.9870774" lon="17.7393573">
        <ele>52.0486</ele>
        <time>2012-09-30T09:46:03Z</time>
      </trkpt>
      <trkpt lat="59.9870988" lon="17.7393668">
        <ele>52.0486</ele>
        <time>2012-09-30T09:46:04Z</time>
      </trkpt>
      <trkpt lat="59.9871217" lon="17.7393792">
        <ele>52.0486</ele>
        <time>2012-09-30T09:46:05Z</time>
      </trkpt>
      <trkpt lat="59.9871373" lon="17.7393824">
        <ele>52.5292</ele>
        <time>2012-09-30T09:46:06Z</time>
      </trkpt>
      <trkpt lat="59.9871528" lon="17.739373">
        <ele>52.5292</ele>
        <time>2012-09-30T09:46:07Z</time>
      </trkpt>
      <trkpt lat="59.9871686" lon="17.7393714">
        <ele>53.0098</ele>
        <time>2012-09-30T09:46:08Z</time>
      </trkpt>
      <trkpt lat="59.9871796" lon="17.7393709">
        <ele>52.5292</ele>
        <time>2012-09-30T09:46:09Z</time>
      </trkpt>
      <trkpt lat="59.9871886" lon="17.7393688">
        <ele>52.0486</ele>
        <time>2012-09-30T09:46:10Z</time>
      </trkpt>
      <trkpt lat="59.9871978" lon="17.7393686">
        <ele>51.5679</ele>
        <time>2012-09-30T09:46:11Z</time>
      </trkpt>
      <trkpt lat="59.9872147" lon="17.739365">
        <ele>51.5679</ele>
        <time>2012-09-30T09:46:12Z</time>
      </trkpt>
      <trkpt lat="59.987233" lon="17.7393572">
        <ele>51.5679</ele>
        <time>2012-09-30T09:46:13Z</time>
      </trkpt>
      <trkpt lat="59.9872491" lon="17.7393567">
        <ele>50.6066</ele>
        <time>2012-09-30T09:46:14Z</time>
      </trkpt>
      <trkpt lat="59.9872644" lon="17.7393536">
        <ele>49.6453</ele>
        <time>2012-09-30T09:46:15Z</time>
      </trkpt>
      <trkpt lat="59.9872802" lon="17.7393467">
        <ele>49.1646</ele>
        <time>2012-09-30T09:46:16Z</time>
      </trkpt>
      <trkpt lat="59.9873004" lon="17.739341">
        <ele>49.1646</ele>
        <time>2012-09-30T09:46:17Z</time>
      </trkpt>
      <trkpt lat="59.9873159" lon="17.7393381">
        <ele>48.2034</ele>
        <time>2012-09-30T09:46:18Z</time>
      </trkpt>
      <trkpt lat="59.9873333" lon="17.7393316">
        <ele>48.2034</ele>
        <time>2012-09-30T09:46:19Z</time>
      </trkpt>
      <trkpt lat="59.9873487" lon="17.7393263">
        <ele>47.7225</ele>
        <time>2012-09-30T09:46:20Z</time>
      </trkpt>
      <trkpt lat="59.9873687" lon="17.7393257">
        <ele>47.2418</ele>
        <time>2012-09-30T09:46:21Z</time>
      </trkpt>
      <trkpt lat="59.9873919" lon="17.7393318">
        <ele>46.7612</ele>
        <time>2012-09-30T09:46:22Z</time>
      </trkpt>
      <trkpt lat="59.9874147" lon="17.739338">
        <ele>45.7999</ele>
        <time>2012-09-30T09:46:23Z</time>
      </trkpt>
      <trkpt lat="59.9874375" lon="17.7393427">
        <ele>45.3192</ele>
        <time>2012-09-30T09:46:24Z</time>
      </trkpt>
      <trkpt lat="59.98746" lon="17.7393425">
        <ele>44.8386</ele>
        <time>2012-09-30T09:46:25Z</time>
      </trkpt>
      <trkpt lat="59.9874787" lon="17.7393413">
        <ele>44.358</ele>
        <time>2012-09-30T09:46:26Z</time>
      </trkpt>
      <trkpt lat="59.9875033" lon="17.7393423">
        <ele>45.3192</ele>
        <time>2012-09-30T09:46:27Z</time>
      </trkpt>
      <trkpt lat="59.9875343" lon="17.7393464">
        <ele>45.7999</ele>
        <time>2012-09-30T09:46:28Z</time>
      </trkpt>
      <trkpt lat="59.9875712" lon="17.7393407">
        <ele>47.2418</ele>
        <time>2012-09-30T09:46:29Z</time>
      </trkpt>
      <trkpt lat="59.9875936" lon="17.7393387">
        <ele>47.2418</ele>
        <time>2012-09-30T09:46:30Z</time>
      </trkpt>
      <trkpt lat="59.9876247" lon="17.7393375">
        <ele>48.2034</ele>
        <time>2012-09-30T09:46:31Z</time>
      </trkpt>
      <trkpt lat="59.9876526" lon="17.739334">
        <ele>48.684</ele>
        <time>2012-09-30T09:46:32Z</time>
      </trkpt>
      <trkpt lat="59.9876811" lon="17.739332">
        <ele>49.1646</ele>
        <time>2012-09-30T09:46:33Z</time>
      </trkpt>
      <trkpt lat="59.9877008" lon="17.7393251">
        <ele>49.1646</ele>
        <time>2012-09-30T09:46:34Z</time>
      </trkpt>
      <trkpt lat="59.9877169" lon="17.7393221">
        <ele>48.2034</ele>
        <time>2012-09-30T09:46:35Z</time>
      </trkpt>
      <trkpt lat="59.9877359" lon="17.7393275">
        <ele>48.2034</ele>
        <time>2012-09-30T09:46:36Z</time>
      </trkpt>
      <trkpt lat="59.9877509" lon="17.7393221">
        <ele>47.2418</ele>
        <time>2012-09-30T09:46:37Z</time>
      </trkpt>
      <trkpt lat="59.9877785" lon="17.7393171">
        <ele>47.7225</ele>
        <time>2012-09-30T09:46:38Z</time>
      </trkpt>
      <trkpt lat="59.9877996" lon="17.7393015">
        <ele>48.684</ele>
        <time>2012-09-30T09:46:39Z</time>
      </trkpt>
      <trkpt lat="59.9878171" lon="17.7392895">
        <ele>49.1646</ele>
        <time>2012-09-30T09:46:40Z</time>
      </trkpt>
      <trkpt lat="59.9878377" lon="17.739289">
        <ele>49.1646</ele>
        <time>2012-09-30T09:46:41Z</time>
      </trkpt>
      <trkpt lat="59.9878557" lon="17.7392849">
        <ele>49.1646</ele>
        <time>2012-09-30T09:46:42Z</time>
      </trkpt>
      <trkpt lat="59.9878749" lon="17.7392859">
        <ele>49.6453</ele>
        <time>2012-09-30T09:46:43Z</time>
      </trkpt>
      <trkpt lat="59.9878919" lon="17.7392834">
        <ele>49.1646</ele>
        <time>2012-09-30T09:46:44Z</time>
      </trkpt>
      <trkpt lat="59.9879018" lon="17.7392848">
        <ele>48.2034</ele>
        <time>2012-09-30T09:46:45Z</time>
      </trkpt>
      <trkpt lat="59.9879146" lon="17.7392802">
        <ele>47.7225</ele>
        <time>2012-09-30T09:46:46Z</time>
      </trkpt>
      <trkpt lat="59.9879277" lon="17.739271">
        <ele>47.2418</ele>
        <time>2012-09-30T09:46:47Z</time>
      </trkpt>
      <trkpt lat="59.9879513" lon="17.7392723">
        <ele>47.2418</ele>
        <time>2012-09-30T09:46:48Z</time>
      </trkpt>
      <trkpt lat="59.9879778" lon="17.7392735">
        <ele>48.2034</ele>
        <time>2012-09-30T09:46:49Z</time>
      </trkpt>
      <trkpt lat="59.9879961" lon="17.7392664">
        <ele>47.7225</ele>
        <time>2012-09-30T09:46:50Z</time>
      </trkpt>
      <trkpt lat="59.9880132" lon="17.7392574">
        <ele>46.7612</ele>
        <time>2012-09-30T09:46:51Z</time>
      </trkpt>
      <trkpt lat="59.9880319" lon="17.7392585">
        <ele>46.2806</ele>
        <time>2012-09-30T09:46:52Z</time>
      </trkpt>
      <trkpt lat="59.9880492" lon="17.7392399">
        <ele>46.2806</ele>
        <time>2012-09-30T09:46:53Z</time>
      </trkpt>
      <trkpt lat="59.9880687" lon="17.7392325">
        <ele>46.2806</ele>
        <time>2012-09-30T09:46:54Z</time>
      </trkpt>
      <trkpt lat="59.9880851" lon="17.7392201">
        <ele>47.2418</ele>
        <time>2012-09-30T09:46:55Z</time>
      </trkpt>
      <trkpt lat="59.9880995" lon="17.7392139">
        <ele>46.7612</ele>
        <time>2012-09-30T09:46:56Z</time>
      </trkpt>
      <trkpt lat="59.9881183" lon="17.7392029">
        <ele>46.7612</ele>
        <time>2012-09-30T09:46:57Z</time>
      </trkpt>
      <trkpt lat="59.9881461" lon="17.7391949">
        <ele>48.2034</ele>
        <time>2012-09-30T09:46:58Z</time>
      </trkpt>
      <trkpt lat="59.9881673" lon="17.739189">
        <ele>47.7225</ele>
        <time>2012-09-30T09:46:59Z</time>
      </trkpt>
      <trkpt lat="59.9881851" lon="17.7391756">
        <ele>47.7225</ele>
        <time>2012-09-30T09:47:00Z</time>
      </trkpt>
      <trkpt lat="59.9882183" lon="17.7391655">
        <ele>49.1646</ele>
        <time>2012-09-30T09:47:01Z</time>
      </trkpt>
      <trkpt lat="59.98826" lon="17.7391559">
        <ele>50.126</ele>
        <time>2012-09-30T09:47:02Z</time>
      </trkpt>
      <trkpt lat="59.9882974" lon="17.7391352">
        <ele>52.0486</ele>
        <time>2012-09-30T09:47:03Z</time>
      </trkpt>
      <trkpt lat="59.9883322" lon="17.739121">
        <ele>53.0098</ele>
        <time>2012-09-30T09:47:04Z</time>
      </trkpt>
      <trkpt lat="59.9883595" lon="17.7391046">
        <ele>53.9712</ele>
        <time>2012-09-30T09:47:05Z</time>
      </trkpt>
      <trkpt lat="59.9883794" lon="17.7390827">
        <ele>53.9712</ele>
        <time>2012-09-30T09:47:06Z</time>
      </trkpt>
      <trkpt lat="59.9884047" lon="17.7390762">
        <ele>53.4905</ele>
        <time>2012-09-30T09:47:07Z</time>
      </trkpt>
      <trkpt lat="59.9884265" lon="17.739068">
        <ele>53.0098</ele>
        <time>2012-09-30T09:47:08Z</time>
      </trkpt>
      <trkpt lat="59.9884466" lon="17.7390471">
        <ele>52.5292</ele>
        <time>2012-09-30T09:47:09Z</time>
      </trkpt>
      <trkpt lat="59.9884667" lon="17.7390255">
        <ele>53.0098</ele>
        <time>2012-09-30T09:47:10Z</time>
      </trkpt>
      <trkpt lat="59.9884917" lon="17.739011">
        <ele>54.4518</ele>
        <time>2012-09-30T09:47:11Z</time>
      </trkpt>
      <trkpt lat="59.9885068" lon="17.7389972">
        <ele>55.8938</ele>
        <time>2012-09-30T09:47:12Z</time>
      </trkpt>
      <trkpt lat="59.9885266" lon="17.7389819">
        <ele>57.3358</ele>
        <time>2012-09-30T09:47:13Z</time>
      </trkpt>
      <trkpt lat="59.9885466" lon="17.7389684">
        <ele>58.2971</ele>
        <time>2012-09-30T09:47:14Z</time>
      </trkpt>
      <trkpt lat="59.988573" lon="17.7389563">
        <ele>59.2584</ele>
        <time>2012-09-30T09:47:15Z</time>
      </trkpt>
      <trkpt lat="59.988598" lon="17.7389451">
        <ele>59.2584</ele>
        <time>2012-09-30T09:47:16Z</time>
      </trkpt>
      <trkpt lat="59.9886287" lon="17.7389284">
        <ele>60.2197</ele>
        <time>2012-09-30T09:47:17Z</time>
      </trkpt>
      <trkpt lat="59.9886554" lon="17.7388985">
        <ele>61.181</ele>
        <time>2012-09-30T09:47:18Z</time>
      </trkpt>
      <trkpt lat="59.9886818" lon="17.7388731">
        <ele>61.6617</ele>
        <time>2012-09-30T09:47:19Z</time>
      </trkpt>
      <trkpt lat="59.9887068" lon="17.7388555">
        <ele>61.6617</ele>
        <time>2012-09-30T09:47:20Z</time>
      </trkpt>
      <trkpt lat="59.9887342" lon="17.7388353">
        <ele>61.6617</ele>
        <time>2012-09-30T09:47:21Z</time>
      </trkpt>
      <trkpt lat="59.9887587" lon="17.7388213">
        <ele>61.6617</ele>
        <time>2012-09-30T09:47:22Z</time>
      </trkpt>
      <trkpt lat="59.988784" lon="17.7388078">
        <ele>61.6617</ele>
        <time>2012-09-30T09:47:23Z</time>
      </trkpt>
      <trkpt lat="59.9888093" lon="17.7387962">
        <ele>61.181</ele>
        <time>2012-09-30T09:47:24Z</time>
      </trkpt>
      <trkpt lat="59.9888337" lon="17.7387866">
        <ele>61.6617</ele>
        <time>2012-09-30T09:47:25Z</time>
      </trkpt>
      <trkpt lat="59.9888591" lon="17.7387788">
        <ele>61.181</ele>
        <time>2012-09-30T09:47:26Z</time>
      </trkpt>
      <trkpt lat="59.9888854" lon="17.7387748">
        <ele>60.7003</ele>
        <time>2012-09-30T09:47:27Z</time>
      </trkpt>
      <trkpt lat="59.9889063" lon="17.7387602">
        <ele>60.7003</ele>
        <time>2012-09-30T09:47:28Z</time>
      </trkpt>
      <trkpt lat="59.9889185" lon="17.7387395">
        <ele>60.7003</ele>
        <time>2012-09-30T09:47:29Z</time>
      </trkpt>
      <trkpt lat="59.9889363" lon="17.7387316">
        <ele>60.7003</ele>
        <time>2012-09-30T09:47:30Z</time>
      </trkpt>
      <trkpt lat="59.9889622" lon="17.7387177">
        <ele>61.181</ele>
        <time>2012-09-30T09:47:31Z</time>
      </trkpt>
      <trkpt lat="59.9889865" lon="17.7386944">
        <ele>61.6617</ele>
        <time>2012-09-30T09:47:32Z</time>
      </trkpt>
      <trkpt lat="59.9890077" lon="17.7386683">
        <ele>62.6229</ele>
        <time>2012-09-30T09:47:33Z</time>
      </trkpt>
      <trkpt lat="59.9890317" lon="17.7386519">
        <ele>62.6229</ele>
        <time>2012-09-30T09:47:34Z</time>
      </trkpt>
      <trkpt lat="59.9890606" lon="17.738645">
        <ele>62.6229</ele>
        <time>2012-09-30T09:47:35Z</time>
      </trkpt>
      <trkpt lat="59.9890845" lon="17.738638">
        <ele>63.1036</ele>
        <time>2012-09-30T09:47:36Z</time>
      </trkpt>
      <trkpt lat="59.989106" lon="17.7386228">
        <ele>63.1036</ele>
        <time>2012-09-30T09:47:37Z</time>
      </trkpt>
      <trkpt lat="59.9891237" lon="17.7386079">
        <ele>63.5844</ele>
        <time>2012-09-30T09:47:38Z</time>
      </trkpt>
      <trkpt lat="59.9891407" lon="17.7385971">
        <ele>63.1036</ele>
        <time>2012-09-30T09:47:39Z</time>
      </trkpt>
      <trkpt lat="59.9891595" lon="17.738583">
        <ele>63.1036</ele>
        <time>2012-09-30T09:47:40Z</time>
      </trkpt>
      <trkpt lat="59.9891787" lon="17.7385663">
        <ele>62.6229</ele>
        <time>2012-09-30T09:47:41Z</time>
      </trkpt>
      <trkpt lat="59.9892009" lon="17.7385503">
        <ele>62.6229</ele>
        <time>2012-09-30T09:47:42Z</time>
      </trkpt>
      <trkpt lat="59.9892248" lon="17.7385356">
        <ele>63.1036</ele>
        <time>2012-09-30T09:47:43Z</time>
      </trkpt>
      <trkpt lat="59.9892458" lon="17.7385289">
        <ele>62.6229</ele>
        <time>2012-09-30T09:47:44Z</time>
      </trkpt>
      <trkpt lat="59.9892704" lon="17.7385229">
        <ele>62.1423</ele>
        <time>2012-09-30T09:47:45Z</time>
      </trkpt>
      <trkpt lat="59.989299" lon="17.7385127">
        <ele>62.6229</ele>
        <time>2012-09-30T09:47:46Z</time>
      </trkpt>
      <trkpt lat="59.9893253" lon="17.7384992">
        <ele>62.6229</ele>
        <time>2012-09-30T09:47:47Z</time>
      </trkpt>
      <trkpt lat="59.9893476" lon="17.7384898">
        <ele>62.1423</ele>
        <time>2012-09-30T09:47:48Z</time>
      </trkpt>
      <trkpt lat="59.9893667" lon="17.7384804">
        <ele>62.1423</ele>
        <time>2012-09-30T09:47:49Z</time>
      </trkpt>
      <trkpt lat="59.9893841" lon="17.7384741">
        <ele>62.1423</ele>
        <time>2012-09-30T09:47:50Z</time>
      </trkpt>
      <trkpt lat="59.9893964" lon="17.738455">
        <ele>62.1423</ele>
        <time>2012-09-30T09:47:51Z</time>
      </trkpt>
      <trkpt lat="59.9894112" lon="17.7384424">
        <ele>62.1423</ele>
        <time>2012-09-30T09:47:52Z</time>
      </trkpt>
      <trkpt lat="59.9894318" lon="17.7384378">
        <ele>61.6617</ele>
        <time>2012-09-30T09:47:53Z</time>
      </trkpt>
      <trkpt lat="59.9894537" lon="17.7384204">
        <ele>61.181</ele>
        <time>2012-09-30T09:47:54Z</time>
      </trkpt>
      <trkpt lat="59.9894691" lon="17.7384188">
        <ele>60.2197</ele>
        <time>2012-09-30T09:47:55Z</time>
      </trkpt>
      <trkpt lat="59.9894825" lon="17.7384197">
        <ele>59.2584</ele>
        <time>2012-09-30T09:47:56Z</time>
      </trkpt>
      <trkpt lat="59.9894993" lon="17.738425">
        <ele>58.2971</ele>
        <time>2012-09-30T09:47:57Z</time>
      </trkpt>
      <trkpt lat="59.9895148" lon="17.7384337">
        <ele>56.8551</ele>
        <time>2012-09-30T09:47:58Z</time>
      </trkpt>
      <trkpt lat="59.9895357" lon="17.7384373">
        <ele>56.3745</ele>
        <time>2012-09-30T09:47:59Z</time>
      </trkpt>
      <trkpt lat="59.9895592" lon="17.7384358">
        <ele>56.3745</ele>
        <time>2012-09-30T09:48:00Z</time>
      </trkpt>
      <trkpt lat="59.9895807" lon="17.7384357">
        <ele>55.8938</ele>
        <time>2012-09-30T09:48:01Z</time>
      </trkpt>
      <trkpt lat="59.9895957" lon="17.7384286">
        <ele>54.9324</ele>
        <time>2012-09-30T09:48:02Z</time>
      </trkpt>
      <trkpt lat="59.9896163" lon="17.7384284">
        <ele>54.9324</ele>
        <time>2012-09-30T09:48:03Z</time>
      </trkpt>
      <trkpt lat="59.9896413" lon="17.7384255">
        <ele>54.9324</ele>
        <time>2012-09-30T09:48:04Z</time>
      </trkpt>
      <trkpt lat="59.9896613" lon="17.7384109">
        <ele>55.4131</ele>
        <time>2012-09-30T09:48:05Z</time>
      </trkpt>
      <trkpt lat="59.989679" lon="17.7384053">
        <ele>54.4518</ele>
        <time>2012-09-30T09:48:06Z</time>
      </trkpt>
      <trkpt lat="59.9897068" lon="17.7383994">
        <ele>54.4518</ele>
        <time>2012-09-30T09:48:07Z</time>
      </trkpt>
      <trkpt lat="59.9897273" lon="17.7383825">
        <ele>54.9324</ele>
        <time>2012-09-30T09:48:08Z</time>
      </trkpt>
      <trkpt lat="59.9897493" lon="17.7383685">
        <ele>55.4131</ele>
        <time>2012-09-30T09:48:09Z</time>
      </trkpt>
      <trkpt lat="59.9897657" lon="17.7383516">
        <ele>55.4131</ele>
        <time>2012-09-30T09:48:10Z</time>
      </trkpt>
      <trkpt lat="59.9897841" lon="17.7383432">
        <ele>55.4131</ele>
        <time>2012-09-30T09:48:11Z</time>
      </trkpt>
      <trkpt lat="59.9897994" lon="17.7383292">
        <ele>54.9324</ele>
        <time>2012-09-30T09:48:12Z</time>
      </trkpt>
      <trkpt lat="59.9898163" lon="17.7383141">
        <ele>55.4131</ele>
        <time>2012-09-30T09:48:13Z</time>
      </trkpt>
      <trkpt lat="59.9898309" lon="17.7382976">
        <ele>54.9324</ele>
        <time>2012-09-30T09:48:14Z</time>
      </trkpt>
      <trkpt lat="59.9898572" lon="17.7382854">
        <ele>55.8938</ele>
        <time>2012-09-30T09:48:15Z</time>
      </trkpt>
      <trkpt lat="59.9898827" lon="17.7382793">
        <ele>56.3745</ele>
        <time>2012-09-30T09:48:16Z</time>
      </trkpt>
      <trkpt lat="59.9899137" lon="17.7382686">
        <ele>57.3358</ele>
        <time>2012-09-30T09:48:17Z</time>
      </trkpt>
      <trkpt lat="59.9899431" lon="17.7382535">
        <ele>57.8165</ele>
        <time>2012-09-30T09:48:18Z</time>
      </trkpt>
      <trkpt lat="59.9899707" lon="17.7382389">
        <ele>58.2971</ele>
        <time>2012-09-30T09:48:19Z</time>
      </trkpt>
      <trkpt lat="59.9899925" lon="17.73822">
        <ele>59.7391</ele>
        <time>2012-09-30T09:48:20Z</time>
      </trkpt>
      <trkpt lat="59.9900111" lon="17.7382018">
        <ele>60.7003</ele>
        <time>2012-09-30T09:48:21Z</time>
      </trkpt>
      <trkpt lat="59.9900355" lon="17.7381991">
        <ele>61.6617</ele>
        <time>2012-09-30T09:48:22Z</time>
      </trkpt>
      <trkpt lat="59.9900566" lon="17.7381939">
        <ele>61.6617</ele>
        <time>2012-09-30T09:48:23Z</time>
      </trkpt>
      <trkpt lat="59.9900781" lon="17.7381853">
        <ele>62.1423</ele>
        <time>2012-09-30T09:48:24Z</time>
      </trkpt>
      <trkpt lat="59.9901029" lon="17.7381741">
        <ele>62.6229</ele>
        <time>2012-09-30T09:48:25Z</time>
      </trkpt>
      <trkpt lat="59.990124" lon="17.7381557">
        <ele>63.1036</ele>
        <time>2012-09-30T09:48:26Z</time>
      </trkpt>
      <trkpt lat="59.9901463" lon="17.7381361">
        <ele>63.5844</ele>
        <time>2012-09-30T09:48:27Z</time>
      </trkpt>
      <trkpt lat="59.9901713" lon="17.7381091">
        <ele>64.5457</ele>
        <time>2012-09-30T09:48:28Z</time>
      </trkpt>
      <trkpt lat="59.9901935" lon="17.7381094">
        <ele>63.5844</ele>
        <time>2012-09-30T09:48:29Z</time>
      </trkpt>
      <trkpt lat="59.9902203" lon="17.7381018">
        <ele>63.5844</ele>
        <time>2012-09-30T09:48:30Z</time>
      </trkpt>
      <trkpt lat="59.9902443" lon="17.7380831">
        <ele>64.0651</ele>
        <time>2012-09-30T09:48:31Z</time>
      </trkpt>
      <trkpt lat="59.99027" lon="17.7380722">
        <ele>64.0651</ele>
        <time>2012-09-30T09:48:32Z</time>
      </trkpt>
      <trkpt lat="59.9902915" lon="17.7380672">
        <ele>63.1036</ele>
        <time>2012-09-30T09:48:33Z</time>
      </trkpt>
      <trkpt lat="59.9903181" lon="17.7380658">
        <ele>63.1036</ele>
        <time>2012-09-30T09:48:34Z</time>
      </trkpt>
      <trkpt lat="59.9903419" lon="17.7380594">
        <ele>63.5844</ele>
        <time>2012-09-30T09:48:35Z</time>
      </trkpt>
      <trkpt lat="59.9903623" lon="17.7380606">
        <ele>63.5844</ele>
        <time>2012-09-30T09:48:36Z</time>
      </trkpt>
      <trkpt lat="59.9903823" lon="17.7380572">
        <ele>63.5844</ele>
        <time>2012-09-30T09:48:37Z</time>
      </trkpt>
      <trkpt lat="59.9904038" lon="17.738053">
        <ele>63.1036</ele>
        <time>2012-09-30T09:48:38Z</time>
      </trkpt>
      <trkpt lat="59.9904336" lon="17.7380463">
        <ele>63.1036</ele>
        <time>2012-09-30T09:48:39Z</time>
      </trkpt>
      <trkpt lat="59.9904587" lon="17.7380338">
        <ele>63.1036</ele>
        <time>2012-09-30T09:48:40Z</time>
      </trkpt>
      <trkpt lat="59.9904854" lon="17.7380231">
        <ele>62.6229</ele>
        <time>2012-09-30T09:48:41Z</time>
      </trkpt>
      <trkpt lat="59.9905093" lon="17.738012">
        <ele>63.1036</ele>
        <time>2012-09-30T09:48:42Z</time>
      </trkpt>
      <trkpt lat="59.9905303" lon="17.7380092">
        <ele>62.6229</ele>
        <time>2012-09-30T09:48:43Z</time>
      </trkpt>
      <trkpt lat="59.9905528" lon="17.7380064">
        <ele>62.6229</ele>
        <time>2012-09-30T09:48:44Z</time>
      </trkpt>
      <trkpt lat="59.9905722" lon="17.7380023">
        <ele>62.6229</ele>
        <time>2012-09-30T09:48:45Z</time>
      </trkpt>
      <trkpt lat="59.9905892" lon="17.7379982">
        <ele>62.1423</ele>
        <time>2012-09-30T09:48:46Z</time>
      </trkpt>
      <trkpt lat="59.9906084" lon="17.7379878">
        <ele>62.6229</ele>
        <time>2012-09-30T09:48:47Z</time>
      </trkpt>
      <trkpt lat="59.9906327" lon="17.7379716">
        <ele>63.5844</ele>
        <time>2012-09-30T09:48:48Z</time>
      </trkpt>
      <trkpt lat="59.9906565" lon="17.737954">
        <ele>64.0651</ele>
        <time>2012-09-30T09:48:49Z</time>
      </trkpt>
      <trkpt lat="59.9906757" lon="17.7379308">
        <ele>65.5071</ele>
        <time>2012-09-30T09:48:50Z</time>
      </trkpt>
      <trkpt lat="59.9906981" lon="17.7379154">
        <ele>66.4683</ele>
        <time>2012-09-30T09:48:51Z</time>
      </trkpt>
      <trkpt lat="59.9907183" lon="17.7379004">
        <ele>66.4683</ele>
        <time>2012-09-30T09:48:52Z</time>
      </trkpt>
      <trkpt lat="59.9907462" lon="17.7378883">
        <ele>67.4297</ele>
        <time>2012-09-30T09:48:53Z</time>
      </trkpt>
      <trkpt lat="59.9907712" lon="17.7378721">
        <ele>66.4683</ele>
        <time>2012-09-30T09:48:54Z</time>
      </trkpt>
      <trkpt lat="59.9907996" lon="17.7378377">
        <ele>65.9877</ele>
        <time>2012-09-30T09:48:55Z</time>
      </trkpt>
      <trkpt lat="59.9908187" lon="17.7378113">
        <ele>65.5071</ele>
        <time>2012-09-30T09:48:56Z</time>
      </trkpt>
      <trkpt lat="59.9908388" lon="17.7377863">
        <ele>65.9877</ele>
        <time>2012-09-30T09:48:57Z</time>
      </trkpt>
      <trkpt lat="59.9908579" lon="17.7377714">
        <ele>65.9877</ele>
        <time>2012-09-30T09:48:58Z</time>
      </trkpt>
      <trkpt lat="59.9908772" lon="17.7377557">
        <ele>65.9877</ele>
        <time>2012-09-30T09:48:59Z</time>
      </trkpt>
      <trkpt lat="59.9909027" lon="17.7377289">
        <ele>65.9877</ele>
        <time>2012-09-30T09:49:00Z</time>
      </trkpt>
      <trkpt lat="59.9909285" lon="17.7377232">
        <ele>65.9877</ele>
        <time>2012-09-30T09:49:01Z</time>
      </trkpt>
      <trkpt lat="59.9909523" lon="17.7377142">
        <ele>65.9877</ele>
        <time>2012-09-30T09:49:02Z</time>
      </trkpt>
      <trkpt lat="59.9909758" lon="17.737704">
        <ele>65.9877</ele>
        <time>2012-09-30T09:49:03Z</time>
      </trkpt>
      <trkpt lat="59.9909988" lon="17.7376884">
        <ele>65.5071</ele>
        <time>2012-09-30T09:49:04Z</time>
      </trkpt>
      <trkpt lat="59.9910239" lon="17.7376729">
        <ele>65.5071</ele>
        <time>2012-09-30T09:49:05Z</time>
      </trkpt>
      <trkpt lat="59.9910487" lon="17.7376568">
        <ele>65.0264</ele>
        <time>2012-09-30T09:49:06Z</time>
      </trkpt>
      <trkpt lat="59.991075" lon="17.7376489">
        <ele>64.5457</ele>
        <time>2012-09-30T09:49:07Z</time>
      </trkpt>
      <trkpt lat="59.991099" lon="17.7376454">
        <ele>64.0651</ele>
        <time>2012-09-30T09:49:08Z</time>
      </trkpt>
      <trkpt lat="59.9911246" lon="17.7376387">
        <ele>64.0651</ele>
        <time>2012-09-30T09:49:09Z</time>
      </trkpt>
      <trkpt lat="59.9911533" lon="17.7376309">
        <ele>64.0651</ele>
        <time>2012-09-30T09:49:10Z</time>
      </trkpt>
      <trkpt lat="59.9911856" lon="17.7376231">
        <ele>63.5844</ele>
        <time>2012-09-30T09:49:11Z</time>
      </trkpt>
      <trkpt lat="59.9912056" lon="17.7376214">
        <ele>62.6229</ele>
        <time>2012-09-30T09:49:12Z</time>
      </trkpt>
      <trkpt lat="59.9912233" lon="17.737616">
        <ele>62.1423</ele>
        <time>2012-09-30T09:49:13Z</time>
      </trkpt>
      <trkpt lat="59.9912444" lon="17.7376127">
        <ele>61.181</ele>
        <time>2012-09-30T09:49:14Z</time>
      </trkpt>
      <trkpt lat="59.9912697" lon="17.7376066">
        <ele>61.181</ele>
        <time>2012-09-30T09:49:15Z</time>
      </trkpt>
      <trkpt lat="59.9912918" lon="17.7375992">
        <ele>60.2197</ele>
        <time>2012-09-30T09:49:16Z</time>
      </trkpt>
      <trkpt lat="59.9913257" lon="17.7375955">
        <ele>60.2197</ele>
        <time>2012-09-30T09:49:17Z</time>
      </trkpt>
      <trkpt lat="59.9913497" lon="17.7375984">
        <ele>59.2584</ele>
        <time>2012-09-30T09:49:18Z</time>
      </trkpt>
      <trkpt lat="59.9913843" lon="17.7375934">
        <ele>59.7391</ele>
        <time>2012-09-30T09:49:19Z</time>
      </trkpt>
      <trkpt lat="59.9914124" lon="17.7375827">
        <ele>59.2584</ele>
        <time>2012-09-30T09:49:20Z</time>
      </trkpt>
      <trkpt lat="59.9914393" lon="17.7375807">
        <ele>59.2584</ele>
        <time>2012-09-30T09:49:21Z</time>
      </trkpt>
      <trkpt lat="59.9914573" lon="17.7375869">
        <ele>57.8165</ele>
        <time>2012-09-30T09:49:22Z</time>
      </trkpt>
      <trkpt lat="59.9914757" lon="17.7375961">
        <ele>57.3358</ele>
        <time>2012-09-30T09:49:23Z</time>
      </trkpt>
      <trkpt lat="59.9914963" lon="17.7376146">
        <ele>56.3745</ele>
        <time>2012-09-30T09:49:24Z</time>
      </trkpt>
      <trkpt lat="59.9915175" lon="17.7376214">
        <ele>54.9324</ele>
        <time>2012-09-30T09:49:25Z</time>
      </trkpt>
      <trkpt lat="59.9915382" lon="17.7376252">
        <ele>53.9712</ele>
        <time>2012-09-30T09:49:26Z</time>
      </trkpt>
      <trkpt lat="59.9915615" lon="17.7376203">
        <ele>53.9712</ele>
        <time>2012-09-30T09:49:27Z</time>
      </trkpt>
      <trkpt lat="59.9915875" lon="17.7376236">
        <ele>54.4518</ele>
        <time>2012-09-30T09:49:28Z</time>
      </trkpt>
      <trkpt lat="59.9916071" lon="17.7376287">
        <ele>53.4905</ele>
        <time>2012-09-30T09:49:29Z</time>
      </trkpt>
      <trkpt lat="59.9916326" lon="17.7376225">
        <ele>53.4905</ele>
        <time>2012-09-30T09:49:30Z</time>
      </trkpt>
      <trkpt lat="59.9916506" lon="17.7376198">
        <ele>53.0098</ele>
        <time>2012-09-30T09:49:31Z</time>
      </trkpt>
      <trkpt lat="59.9916857" lon="17.7376133">
        <ele>53.9712</ele>
        <time>2012-09-30T09:49:32Z</time>
      </trkpt>
      <trkpt lat="59.9917127" lon="17.7376058">
        <ele>53.9712</ele>
        <time>2012-09-30T09:49:33Z</time>
      </trkpt>
      <trkpt lat="59.9917354" lon="17.7375921">
        <ele>54.9324</ele>
        <time>2012-09-30T09:49:34Z</time>
      </trkpt>
      <trkpt lat="59.9917519" lon="17.7375682">
        <ele>55.4131</ele>
        <time>2012-09-30T09:49:35Z</time>
      </trkpt>
      <trkpt lat="59.9917723" lon="17.7375642">
        <ele>54.9324</ele>
        <time>2012-09-30T09:49:36Z</time>
      </trkpt>
      <trkpt lat="59.9917905" lon="17.737559">
        <ele>54.9324</ele>
        <time>2012-09-30T09:49:37Z</time>
      </trkpt>
      <trkpt lat="59.9918136" lon="17.7375548">
        <ele>55.4131</ele>
        <time>2012-09-30T09:49:38Z</time>
      </trkpt>
      <trkpt lat="59.9918308" lon="17.7375488">
        <ele>54.9324</ele>
        <time>2012-09-30T09:49:39Z</time>
      </trkpt>
      <trkpt lat="59.9918514" lon="17.7375459">
        <ele>54.4518</ele>
        <time>2012-09-30T09:49:40Z</time>
      </trkpt>
      <trkpt lat="59.9918774" lon="17.7375401">
        <ele>54.4518</ele>
        <time>2012-09-30T09:49:41Z</time>
      </trkpt>
      <trkpt lat="59.9918906" lon="17.737535">
        <ele>54.4518</ele>
        <time>2012-09-30T09:49:42Z</time>
      </trkpt>
      <trkpt lat="59.9919014" lon="17.7375308">
        <ele>53.9712</ele>
        <time>2012-09-30T09:49:43Z</time>
      </trkpt>
      <trkpt lat="59.9919305" lon="17.7375305">
        <ele>54.4518</ele>
        <time>2012-09-30T09:49:44Z</time>
      </trkpt>
      <trkpt lat="59.9919515" lon="17.7375139">
        <ele>54.4518</ele>
        <time>2012-09-30T09:49:45Z</time>
      </trkpt>
      <trkpt lat="59.9919696" lon="17.7375034">
        <ele>53.9712</ele>
        <time>2012-09-30T09:49:46Z</time>
      </trkpt>
      <trkpt lat="59.9919905" lon="17.7374963">
        <ele>53.4905</ele>
        <time>2012-09-30T09:49:47Z</time>
      </trkpt>
      <trkpt lat="59.9920101" lon="17.7374925">
        <ele>53.0098</ele>
        <time>2012-09-30T09:49:48Z</time>
      </trkpt>
      <trkpt lat="59.9920317" lon="17.7374934">
        <ele>52.5292</ele>
        <time>2012-09-30T09:49:49Z</time>
      </trkpt>
      <trkpt lat="59.9920599" lon="17.7374967">
        <ele>52.5292</ele>
        <time>2012-09-30T09:49:50Z</time>
      </trkpt>
      <trkpt lat="59.9920902" lon="17.7374931">
        <ele>53.4905</ele>
        <time>2012-09-30T09:49:51Z</time>
      </trkpt>
      <trkpt lat="59.9921089" lon="17.7374917">
        <ele>53.4905</ele>
        <time>2012-09-30T09:49:52Z</time>
      </trkpt>
      <trkpt lat="59.9921263" lon="17.737491">
        <ele>52.5292</ele>
        <time>2012-09-30T09:49:53Z</time>
      </trkpt>
      <trkpt lat="59.9921483" lon="17.7374891">
        <ele>52.0486</ele>
        <time>2012-09-30T09:49:54Z</time>
      </trkpt>
      <trkpt lat="59.9921692" lon="17.7374895">
        <ele>51.5679</ele>
        <time>2012-09-30T09:49:55Z</time>
      </trkpt>
      <trkpt lat="59.9921982" lon="17.7375053">
        <ele>52.0486</ele>
        <time>2012-09-30T09:49:56Z</time>
      </trkpt>
      <trkpt lat="59.9922215" lon="17.7375163">
        <ele>53.0098</ele>
        <time>2012-09-30T09:49:57Z</time>
      </trkpt>
      <trkpt lat="59.9922317" lon="17.7375326">
        <ele>53.4905</ele>
        <time>2012-09-30T09:49:58Z</time>
      </trkpt>
      <trkpt lat="59.992227" lon="17.7375537">
        <ele>52.5292</ele>
        <time>2012-09-30T09:49:59Z</time>
      </trkpt>
      <trkpt lat="59.9922241" lon="17.7375568">
        <ele>52.5292</ele>
        <time>2012-09-30T09:50:00Z</time>
      </trkpt>
      <trkpt lat="59.9922136" lon="17.7375615">
        <ele>52.0486</ele>
        <time>2012-09-30T09:50:01Z</time>
      </trkpt>
      <trkpt lat="59.9922026" lon="17.737563">
        <ele>51.5679</ele>
        <time>2012-09-30T09:50:02Z</time>
      </trkpt>
      <trkpt lat="59.9921815" lon="17.7375683">
        <ele>50.6066</ele>
        <time>2012-09-30T09:50:03Z</time>
      </trkpt>
      <trkpt lat="59.9921628" lon="17.7375657">
        <ele>50.6066</ele>
        <time>2012-09-30T09:50:04Z</time>
      </trkpt>
      <trkpt lat="59.9921401" lon="17.7375734">
        <ele>50.126</ele>
        <time>2012-09-30T09:50:05Z</time>
      </trkpt>
      <trkpt lat="59.9921214" lon="17.7375775">
        <ele>49.6453</ele>
        <time>2012-09-30T09:50:06Z</time>
      </trkpt>
      <trkpt lat="59.9920982" lon="17.7375716">
        <ele>50.126</ele>
        <time>2012-09-30T09:50:07Z</time>
      </trkpt>
      <trkpt lat="59.992078" lon="17.7375629">
        <ele>50.126</ele>
        <time>2012-09-30T09:50:08Z</time>
      </trkpt>
      <trkpt lat="59.9920596" lon="17.7375625">
        <ele>49.6453</ele>
        <time>2012-09-30T09:50:09Z</time>
      </trkpt>
      <trkpt lat="59.9920424" lon="17.7375647">
        <ele>49.6453</ele>
        <time>2012-09-30T09:50:10Z</time>
      </trkpt>
      <trkpt lat="59.992026" lon="17.7375661">
        <ele>49.1646</ele>
        <time>2012-09-30T09:50:11Z</time>
      </trkpt>
      <trkpt lat="59.9920043" lon="17.7375696">
        <ele>48.684</ele>
        <time>2012-09-30T09:50:12Z</time>
      </trkpt>
      <trkpt lat="59.9919883" lon="17.7375716">
        <ele>48.2034</ele>
        <time>2012-09-30T09:50:13Z</time>
      </trkpt>
      <trkpt lat="59.9919661" lon="17.7375748">
        <ele>47.7225</ele>
        <time>2012-09-30T09:50:14Z</time>
      </trkpt>
      <trkpt lat="59.9919421" lon="17.7375791">
        <ele>47.2418</ele>
        <time>2012-09-30T09:50:15Z</time>
      </trkpt>
      <trkpt lat="59.9919156" lon="17.7375749">
        <ele>47.2418</ele>
        <time>2012-09-30T09:50:16Z</time>
      </trkpt>
      <trkpt lat="59.9918875" lon="17.737601">
        <ele>47.2418</ele>
        <time>2012-09-30T09:50:17Z</time>
      </trkpt>
      <trkpt lat="59.9918659" lon="17.7376038">
        <ele>46.7612</ele>
        <time>2012-09-30T09:50:18Z</time>
      </trkpt>
      <trkpt lat="59.9918449" lon="17.737604">
        <ele>46.7612</ele>
        <time>2012-09-30T09:50:19Z</time>
      </trkpt>
      <trkpt lat="59.9918219" lon="17.7375941">
        <ele>46.7612</ele>
        <time>2012-09-30T09:50:20Z</time>
      </trkpt>
      <trkpt lat="59.9917989" lon="17.7375906">
        <ele>46.7612</ele>
        <time>2012-09-30T09:50:21Z</time>
      </trkpt>
      <trkpt lat="59.9917806" lon="17.737592">
        <ele>46.7612</ele>
        <time>2012-09-30T09:50:22Z</time>
      </trkpt>
      <trkpt lat="59.9917589" lon="17.7375916">
        <ele>46.2806</ele>
        <time>2012-09-30T09:50:23Z</time>
      </trkpt>
      <trkpt lat="59.9917356" lon="17.7375906">
        <ele>46.7612</ele>
        <time>2012-09-30T09:50:24Z</time>
      </trkpt>
      <trkpt lat="59.9917164" lon="17.7375869">
        <ele>46.7612</ele>
        <time>2012-09-30T09:50:25Z</time>
      </trkpt>
      <trkpt lat="59.9917024" lon="17.7375728">
        <ele>46.2806</ele>
        <time>2012-09-30T09:50:26Z</time>
      </trkpt>
      <trkpt lat="59.9916859" lon="17.7375543">
        <ele>46.2806</ele>
        <time>2012-09-30T09:50:27Z</time>
      </trkpt>
      <trkpt lat="59.9916636" lon="17.7375385">
        <ele>45.7999</ele>
        <time>2012-09-30T09:50:28Z</time>
      </trkpt>
      <trkpt lat="59.991638" lon="17.7375217">
        <ele>45.7999</ele>
        <time>2012-09-30T09:50:29Z</time>
      </trkpt>
      <trkpt lat="59.9916178" lon="17.7375055">
        <ele>45.7999</ele>
        <time>2012-09-30T09:50:30Z</time>
      </trkpt>
      <trkpt lat="59.9915993" lon="17.737505">
        <ele>45.7999</ele>
        <time>2012-09-30T09:50:31Z</time>
      </trkpt>
      <trkpt lat="59.9915816" lon="17.7375112">
        <ele>45.7999</ele>
        <time>2012-09-30T09:50:32Z</time>
      </trkpt>
      <trkpt lat="59.9915671" lon="17.73752">
        <ele>46.2806</ele>
        <time>2012-09-30T09:50:33Z</time>
      </trkpt>
      <trkpt lat="59.9915486" lon="17.7375264">
        <ele>46.2806</ele>
        <time>2012-09-30T09:50:34Z</time>
      </trkpt>
      <trkpt lat="59.9915251" lon="17.7375298">
        <ele>46.2806</ele>
        <time>2012-09-30T09:50:35Z</time>
      </trkpt>
      <trkpt lat="59.9914982" lon="17.7375336">
        <ele>46.7612</ele>
        <time>2012-09-30T09:50:36Z</time>
      </trkpt>
      <trkpt lat="59.9914693" lon="17.7375522">
        <ele>47.2418</ele>
        <time>2012-09-30T09:50:37Z</time>
      </trkpt>
      <trkpt lat="59.9914456" lon="17.7375585">
        <ele>47.7225</ele>
        <time>2012-09-30T09:50:38Z</time>
      </trkpt>
      <trkpt lat="59.9914264" lon="17.7375637">
        <ele>47.2418</ele>
        <time>2012-09-30T09:50:39Z</time>
      </trkpt>
      <trkpt lat="59.9914031" lon="17.7375804">
        <ele>47.7225</ele>
        <time>2012-09-30T09:50:40Z</time>
      </trkpt>
      <trkpt lat="59.9913886" lon="17.7376186">
        <ele>47.2418</ele>
        <time>2012-09-30T09:50:41Z</time>
      </trkpt>
      <trkpt lat="59.9913754" lon="17.7376497">
        <ele>46.2806</ele>
        <time>2012-09-30T09:50:42Z</time>
      </trkpt>
      <trkpt lat="59.9913476" lon="17.7376582">
        <ele>46.2806</ele>
        <time>2012-09-30T09:50:43Z</time>
      </trkpt>
      <trkpt lat="59.9913186" lon="17.7376626">
        <ele>46.2806</ele>
        <time>2012-09-30T09:50:44Z</time>
      </trkpt>
      <trkpt lat="59.9912916" lon="17.7376667">
        <ele>46.2806</ele>
        <time>2012-09-30T09:50:45Z</time>
      </trkpt>
      <trkpt lat="59.9912682" lon="17.737676">
        <ele>46.2806</ele>
        <time>2012-09-30T09:50:46Z</time>
      </trkpt>
      <trkpt lat="59.99125" lon="17.7376873">
        <ele>46.7612</ele>
        <time>2012-09-30T09:50:47Z</time>
      </trkpt>
      <trkpt lat="59.9912322" lon="17.7376954">
        <ele>46.7612</ele>
        <time>2012-09-30T09:50:48Z</time>
      </trkpt>
      <trkpt lat="59.9912134" lon="17.737717">
        <ele>46.7612</ele>
        <time>2012-09-30T09:50:49Z</time>
      </trkpt>
      <trkpt lat="59.9911953" lon="17.7377427">
        <ele>46.7612</ele>
        <time>2012-09-30T09:50:50Z</time>
      </trkpt>
      <trkpt lat="59.9911724" lon="17.7377612">
        <ele>47.2418</ele>
        <time>2012-09-30T09:50:51Z</time>
      </trkpt>
      <trkpt lat="59.9911476" lon="17.7377889">
        <ele>47.2418</ele>
        <time>2012-09-30T09:50:52Z</time>
      </trkpt>
      <trkpt lat="59.9911249" lon="17.7377992">
        <ele>47.2418</ele>
        <time>2012-09-30T09:50:53Z</time>
      </trkpt>
      <trkpt lat="59.9910969" lon="17.7378048">
        <ele>47.2418</ele>
        <time>2012-09-30T09:50:54Z</time>
      </trkpt>
      <trkpt lat="59.9910708" lon="17.7378231">
        <ele>47.2418</ele>
        <time>2012-09-30T09:50:55Z</time>
      </trkpt>
      <trkpt lat="59.9910443" lon="17.7378464">
        <ele>46.7612</ele>
        <time>2012-09-30T09:50:56Z</time>
      </trkpt>
      <trkpt lat="59.9910202" lon="17.7378569">
        <ele>46.2806</ele>
        <time>2012-09-30T09:50:57Z</time>
      </trkpt>
      <trkpt lat="59.990996" lon="17.7378546">
        <ele>46.2806</ele>
        <time>2012-09-30T09:50:58Z</time>
      </trkpt>
      <trkpt lat="59.9909749" lon="17.7378563">
        <ele>46.2806</ele>
        <time>2012-09-30T09:50:59Z</time>
      </trkpt>
      <trkpt lat="59.9909509" lon="17.7378643">
        <ele>45.7999</ele>
        <time>2012-09-30T09:51:00Z</time>
      </trkpt>
      <trkpt lat="59.9909263" lon="17.737879">
        <ele>46.2806</ele>
        <time>2012-09-30T09:51:01Z</time>
      </trkpt>
      <trkpt lat="59.9909022" lon="17.7378889">
        <ele>46.7612</ele>
        <time>2012-09-30T09:51:02Z</time>
      </trkpt>
      <trkpt lat="59.9908809" lon="17.737903">
        <ele>47.2418</ele>
        <time>2012-09-30T09:51:03Z</time>
      </trkpt>
      <trkpt lat="59.990858" lon="17.7379073">
        <ele>47.2418</ele>
        <time>2012-09-30T09:51:04Z</time>
      </trkpt>
      <trkpt lat="59.9908358" lon="17.7379143">
        <ele>46.7612</ele>
        <time>2012-09-30T09:51:05Z</time>
      </trkpt>
      <trkpt lat="59.9908105" lon="17.7379285">
        <ele>46.7612</ele>
        <time>2012-09-30T09:51:06Z</time>
      </trkpt>
      <trkpt lat="59.9907861" lon="17.7379406">
        <ele>47.2418</ele>
        <time>2012-09-30T09:51:07Z</time>
      </trkpt>
      <trkpt lat="59.9907649" lon="17.7379459">
        <ele>47.7225</ele>
        <time>2012-09-30T09:51:08Z</time>
      </trkpt>
      <trkpt lat="59.9907508" lon="17.7379447">
        <ele>47.2418</ele>
        <time>2012-09-30T09:51:09Z</time>
      </trkpt>
      <trkpt lat="59.9907338" lon="17.7379553">
        <ele>47.2418</ele>
        <time>2012-09-30T09:51:10Z</time>
      </trkpt>
      <trkpt lat="59.9907176" lon="17.7379831">
        <ele>46.7612</ele>
        <time>2012-09-30T09:51:11Z</time>
      </trkpt>
      <trkpt lat="59.9907079" lon="17.7379966">
        <ele>46.7612</ele>
        <time>2012-09-30T09:51:12Z</time>
      </trkpt>
      <trkpt lat="59.9906944" lon="17.7380075">
        <ele>46.2806</ele>
        <time>2012-09-30T09:51:13Z</time>
      </trkpt>
      <trkpt lat="59.9906722" lon="17.738008">
        <ele>46.2806</ele>
        <time>2012-09-30T09:51:14Z</time>
      </trkpt>
      <trkpt lat="59.9906488" lon="17.7380112">
        <ele>46.2806</ele>
        <time>2012-09-30T09:51:15Z</time>
      </trkpt>
      <trkpt lat="59.9906286" lon="17.7380153">
        <ele>46.7612</ele>
        <time>2012-09-30T09:51:16Z</time>
      </trkpt>
      <trkpt lat="59.9906089" lon="17.738022">
        <ele>46.7612</ele>
        <time>2012-09-30T09:51:17Z</time>
      </trkpt>
      <trkpt lat="59.990587" lon="17.7380224">
        <ele>47.2418</ele>
        <time>2012-09-30T09:51:18Z</time>
      </trkpt>
      <trkpt lat="59.9905634" lon="17.7380224">
        <ele>47.7225</ele>
        <time>2012-09-30T09:51:19Z</time>
      </trkpt>
      <trkpt lat="59.9905457" lon="17.7380237">
        <ele>47.7225</ele>
        <time>2012-09-30T09:51:20Z</time>
      </trkpt>
      <trkpt lat="59.9905337" lon="17.7380297">
        <ele>47.2418</ele>
        <time>2012-09-30T09:51:21Z</time>
      </trkpt>
      <trkpt lat="59.9905172" lon="17.7380323">
        <ele>47.2418</ele>
        <time>2012-09-30T09:51:22Z</time>
      </trkpt>
      <trkpt lat="59.9904979" lon="17.73804">
        <ele>46.7612</ele>
        <time>2012-09-30T09:51:23Z</time>
      </trkpt>
      <trkpt lat="59.9904794" lon="17.7380461">
        <ele>46.7612</ele>
        <time>2012-09-30T09:51:24Z</time>
      </trkpt>
      <trkpt lat="59.9904562" lon="17.7380496">
        <ele>46.7612</ele>
        <time>2012-09-30T09:51:25Z</time>
      </trkpt>
      <trkpt lat="59.9904274" lon="17.7380694">
        <ele>46.7612</ele>
        <time>2012-09-30T09:51:26Z</time>
      </trkpt>
      <trkpt lat="59.990397" lon="17.7380957">
        <ele>46.2806</ele>
        <time>2012-09-30T09:51:27Z</time>
      </trkpt>
      <trkpt lat="59.9903642" lon="17.7381163">
        <ele>45.7999</ele>
        <time>2012-09-30T09:51:28Z</time>
      </trkpt>
      <trkpt lat="59.9903331" lon="17.7381333">
        <ele>45.7999</ele>
        <time>2012-09-30T09:51:29Z</time>
      </trkpt>
      <trkpt lat="59.9903064" lon="17.7381537">
        <ele>44.8386</ele>
        <time>2012-09-30T09:51:30Z</time>
      </trkpt>
      <trkpt lat="59.990282" lon="17.7381748">
        <ele>44.358</ele>
        <time>2012-09-30T09:51:31Z</time>
      </trkpt>
      <trkpt lat="59.9902602" lon="17.7381857">
        <ele>44.8386</ele>
        <time>2012-09-30T09:51:32Z</time>
      </trkpt>
      <trkpt lat="59.9902388" lon="17.7381908">
        <ele>44.358</ele>
        <time>2012-09-30T09:51:33Z</time>
      </trkpt>
      <trkpt lat="59.9902219" lon="17.7382106">
        <ele>43.8773</ele>
        <time>2012-09-30T09:51:34Z</time>
      </trkpt>
      <trkpt lat="59.9902032" lon="17.7382312">
        <ele>43.3966</ele>
        <time>2012-09-30T09:51:35Z</time>
      </trkpt>
      <trkpt lat="59.9901845" lon="17.7382499">
        <ele>42.916</ele>
        <time>2012-09-30T09:51:36Z</time>
      </trkpt>
      <trkpt lat="59.990166" lon="17.7382898">
        <ele>43.3966</ele>
        <time>2012-09-30T09:51:37Z</time>
      </trkpt>
      <trkpt lat="59.9901501" lon="17.7383044">
        <ele>43.3966</ele>
        <time>2012-09-30T09:51:38Z</time>
      </trkpt>
      <trkpt lat="59.9901334" lon="17.7383121">
        <ele>43.3966</ele>
        <time>2012-09-30T09:51:39Z</time>
      </trkpt>
      <trkpt lat="59.990108" lon="17.7383219">
        <ele>42.916</ele>
        <time>2012-09-30T09:51:40Z</time>
      </trkpt>
      <trkpt lat="59.9900919" lon="17.7383364">
        <ele>41.9547</ele>
        <time>2012-09-30T09:51:41Z</time>
      </trkpt>
      <trkpt lat="59.990065" lon="17.7383464">
        <ele>41.9547</ele>
        <time>2012-09-30T09:51:42Z</time>
      </trkpt>
      <trkpt lat="59.9900334" lon="17.7383603">
        <ele>42.4354</ele>
        <time>2012-09-30T09:51:43Z</time>
      </trkpt>
      <trkpt lat="59.9900142" lon="17.7383726">
        <ele>40.9934</ele>
        <time>2012-09-30T09:51:44Z</time>
      </trkpt>
      <trkpt lat="59.9899857" lon="17.7383742">
        <ele>40.5128</ele>
        <time>2012-09-30T09:51:45Z</time>
      </trkpt>
      <trkpt lat="59.9899624" lon="17.7383774">
        <ele>40.0321</ele>
        <time>2012-09-30T09:51:46Z</time>
      </trkpt>
      <trkpt lat="59.989938" lon="17.7383831">
        <ele>40.5128</ele>
        <time>2012-09-30T09:51:47Z</time>
      </trkpt>
      <trkpt lat="59.989913" lon="17.7384021">
        <ele>40.9934</ele>
        <time>2012-09-30T09:51:48Z</time>
      </trkpt>
      <trkpt lat="59.9898851" lon="17.7384365">
        <ele>41.474</ele>
        <time>2012-09-30T09:51:49Z</time>
      </trkpt>
      <trkpt lat="59.9898583" lon="17.7384365">
        <ele>41.474</ele>
        <time>2012-09-30T09:51:50Z</time>
      </trkpt>
      <trkpt lat="59.9898358" lon="17.7384386">
        <ele>41.474</ele>
        <time>2012-09-30T09:51:51Z</time>
      </trkpt>
      <trkpt lat="59.9898115" lon="17.7384324">
        <ele>42.4354</ele>
        <time>2012-09-30T09:51:52Z</time>
      </trkpt>
      <trkpt lat="59.9897842" lon="17.7384264">
        <ele>42.916</ele>
        <time>2012-09-30T09:51:53Z</time>
      </trkpt>
      <trkpt lat="59.9897571" lon="17.7384298">
        <ele>42.916</ele>
        <time>2012-09-30T09:51:54Z</time>
      </trkpt>
      <trkpt lat="59.989731" lon="17.7384307">
        <ele>43.8773</ele>
        <time>2012-09-30T09:51:55Z</time>
      </trkpt>
      <trkpt lat="59.9897046" lon="17.7384317">
        <ele>44.358</ele>
        <time>2012-09-30T09:51:56Z</time>
      </trkpt>
      <trkpt lat="59.9896744" lon="17.7384296">
        <ele>44.8386</ele>
        <time>2012-09-30T09:51:57Z</time>
      </trkpt>
      <trkpt lat="59.9896488" lon="17.7384244">
        <ele>44.8386</ele>
        <time>2012-09-30T09:51:58Z</time>
      </trkpt>
      <trkpt lat="59.9896273" lon="17.7384199">
        <ele>45.3192</ele>
        <time>2012-09-30T09:51:59Z</time>
      </trkpt>
      <trkpt lat="59.9896022" lon="17.7384145">
        <ele>45.7999</ele>
        <time>2012-09-30T09:52:00Z</time>
      </trkpt>
      <trkpt lat="59.9895682" lon="17.7384232">
        <ele>46.2806</ele>
        <time>2012-09-30T09:52:01Z</time>
      </trkpt>
      <trkpt lat="59.9895439" lon="17.7384243">
        <ele>46.2806</ele>
        <time>2012-09-30T09:52:02Z</time>
      </trkpt>
      <trkpt lat="59.9895193" lon="17.7384287">
        <ele>46.2806</ele>
        <time>2012-09-30T09:52:03Z</time>
      </trkpt>
      <trkpt lat="59.9894927" lon="17.7384405">
        <ele>46.7612</ele>
        <time>2012-09-30T09:52:04Z</time>
      </trkpt>
      <trkpt lat="59.9894701" lon="17.7384603">
        <ele>47.2418</ele>
        <time>2012-09-30T09:52:05Z</time>
      </trkpt>
      <trkpt lat="59.9894437" lon="17.7384756">
        <ele>47.7225</ele>
        <time>2012-09-30T09:52:06Z</time>
      </trkpt>
      <trkpt lat="59.9894194" lon="17.7385017">
        <ele>47.7225</ele>
        <time>2012-09-30T09:52:07Z</time>
      </trkpt>
      <trkpt lat="59.9893952" lon="17.7385171">
        <ele>48.684</ele>
        <time>2012-09-30T09:52:08Z</time>
      </trkpt>
      <trkpt lat="59.9893696" lon="17.7385302">
        <ele>48.684</ele>
        <time>2012-09-30T09:52:09Z</time>
      </trkpt>
      <trkpt lat="59.9893432" lon="17.7385447">
        <ele>49.6453</ele>
        <time>2012-09-30T09:52:10Z</time>
      </trkpt>
      <trkpt lat="59.9893226" lon="17.7385588">
        <ele>49.6453</ele>
        <time>2012-09-30T09:52:11Z</time>
      </trkpt>
      <trkpt lat="59.9893019" lon="17.7385689">
        <ele>49.6453</ele>
        <time>2012-09-30T09:52:12Z</time>
      </trkpt>
      <trkpt lat="59.9892834" lon="17.7385789">
        <ele>49.6453</ele>
        <time>2012-09-30T09:52:13Z</time>
      </trkpt>
      <trkpt lat="59.9892672" lon="17.73859">
        <ele>49.1646</ele>
        <time>2012-09-30T09:52:14Z</time>
      </trkpt>
      <trkpt lat="59.9892429" lon="17.7386022">
        <ele>49.1646</ele>
        <time>2012-09-30T09:52:15Z</time>
      </trkpt>
      <trkpt lat="59.9892186" lon="17.7386192">
        <ele>49.1646</ele>
        <time>2012-09-30T09:52:16Z</time>
      </trkpt>
      <trkpt lat="59.9891988" lon="17.7386332">
        <ele>49.1646</ele>
        <time>2012-09-30T09:52:17Z</time>
      </trkpt>
      <trkpt lat="59.9891847" lon="17.7386442">
        <ele>49.1646</ele>
        <time>2012-09-30T09:52:18Z</time>
      </trkpt>
      <trkpt lat="59.9891629" lon="17.7386514">
        <ele>48.684</ele>
        <time>2012-09-30T09:52:19Z</time>
      </trkpt>
      <trkpt lat="59.9891427" lon="17.7386612">
        <ele>48.2034</ele>
        <time>2012-09-30T09:52:20Z</time>
      </trkpt>
      <trkpt lat="59.9891231" lon="17.7386812">
        <ele>48.2034</ele>
        <time>2012-09-30T09:52:21Z</time>
      </trkpt>
      <trkpt lat="59.9891041" lon="17.7386944">
        <ele>47.7225</ele>
        <time>2012-09-30T09:52:22Z</time>
      </trkpt>
      <trkpt lat="59.9890808" lon="17.7387068">
        <ele>48.2034</ele>
        <time>2012-09-30T09:52:23Z</time>
      </trkpt>
      <trkpt lat="59.989059" lon="17.7387182">
        <ele>48.2034</ele>
        <time>2012-09-30T09:52:24Z</time>
      </trkpt>
      <trkpt lat="59.9890392" lon="17.7387437">
        <ele>48.2034</ele>
        <time>2012-09-30T09:52:25Z</time>
      </trkpt>
      <trkpt lat="59.9890191" lon="17.7387752">
        <ele>48.2034</ele>
        <time>2012-09-30T09:52:26Z</time>
      </trkpt>
      <trkpt lat="59.9889967" lon="17.7388">
        <ele>48.2034</ele>
        <time>2012-09-30T09:52:27Z</time>
      </trkpt>
      <trkpt lat="59.9889721" lon="17.7388204">
        <ele>48.2034</ele>
        <time>2012-09-30T09:52:28Z</time>
      </trkpt>
      <trkpt lat="59.9889524" lon="17.7388388">
        <ele>48.2034</ele>
        <time>2012-09-30T09:52:29Z</time>
      </trkpt>
      <trkpt lat="59.9889301" lon="17.7388528">
        <ele>47.7225</ele>
        <time>2012-09-30T09:52:30Z</time>
      </trkpt>
      <trkpt lat="59.9889062" lon="17.738871">
        <ele>47.2418</ele>
        <time>2012-09-30T09:52:31Z</time>
      </trkpt>
      <trkpt lat="59.9888842" lon="17.7388984">
        <ele>46.7612</ele>
        <time>2012-09-30T09:52:32Z</time>
      </trkpt>
      <trkpt lat="59.988867" lon="17.7389201">
        <ele>45.7999</ele>
        <time>2012-09-30T09:52:33Z</time>
      </trkpt>
      <trkpt lat="59.988847" lon="17.7389345">
        <ele>45.3192</ele>
        <time>2012-09-30T09:52:34Z</time>
      </trkpt>
      <trkpt lat="59.9888259" lon="17.7389477">
        <ele>44.358</ele>
        <time>2012-09-30T09:52:35Z</time>
      </trkpt>
      <trkpt lat="59.9888021" lon="17.7389643">
        <ele>44.358</ele>
        <time>2012-09-30T09:52:36Z</time>
      </trkpt>
      <trkpt lat="59.9887786" lon="17.7389679">
        <ele>44.358</ele>
        <time>2012-09-30T09:52:37Z</time>
      </trkpt>
      <trkpt lat="59.9887553" lon="17.7389725">
        <ele>43.8773</ele>
        <time>2012-09-30T09:52:38Z</time>
      </trkpt>
      <trkpt lat="59.9887358" lon="17.7389752">
        <ele>43.8773</ele>
        <time>2012-09-30T09:52:39Z</time>
      </trkpt>
      <trkpt lat="59.988718" lon="17.7389793">
        <ele>43.8773</ele>
        <time>2012-09-30T09:52:40Z</time>
      </trkpt>
      <trkpt lat="59.988701" lon="17.7389936">
        <ele>43.3966</ele>
        <time>2012-09-30T09:52:41Z</time>
      </trkpt>
      <trkpt lat="59.9886787" lon="17.7390027">
        <ele>42.916</ele>
        <time>2012-09-30T09:52:42Z</time>
      </trkpt>
      <trkpt lat="59.9886605" lon="17.7390155">
        <ele>42.4354</ele>
        <time>2012-09-30T09:52:43Z</time>
      </trkpt>
      <trkpt lat="59.988641" lon="17.739027">
        <ele>41.9547</ele>
        <time>2012-09-30T09:52:44Z</time>
      </trkpt>
      <trkpt lat="59.988624" lon="17.7390364">
        <ele>42.4354</ele>
        <time>2012-09-30T09:52:45Z</time>
      </trkpt>
      <trkpt lat="59.9886089" lon="17.7390538">
        <ele>41.9547</ele>
        <time>2012-09-30T09:52:46Z</time>
      </trkpt>
      <trkpt lat="59.9885952" lon="17.7390709">
        <ele>41.9547</ele>
        <time>2012-09-30T09:52:47Z</time>
      </trkpt>
      <trkpt lat="59.9885748" lon="17.739076">
        <ele>41.9547</ele>
        <time>2012-09-30T09:52:48Z</time>
      </trkpt>
      <trkpt lat="59.988555" lon="17.7390931">
        <ele>42.4354</ele>
        <time>2012-09-30T09:52:49Z</time>
      </trkpt>
      <trkpt lat="59.9885364" lon="17.7390998">
        <ele>42.4354</ele>
        <time>2012-09-30T09:52:50Z</time>
      </trkpt>
      <trkpt lat="59.9885247" lon="17.7391133">
        <ele>42.916</ele>
        <time>2012-09-30T09:52:51Z</time>
      </trkpt>
      <trkpt lat="59.9885068" lon="17.739116">
        <ele>42.4354</ele>
        <time>2012-09-30T09:52:52Z</time>
      </trkpt>
      <trkpt lat="59.9884912" lon="17.739122">
        <ele>42.916</ele>
        <time>2012-09-30T09:52:53Z</time>
      </trkpt>
      <trkpt lat="59.9884709" lon="17.73912">
        <ele>42.4354</ele>
        <time>2012-09-30T09:52:54Z</time>
      </trkpt>
      <trkpt lat="59.9884462" lon="17.7391215">
        <ele>42.916</ele>
        <time>2012-09-30T09:52:55Z</time>
      </trkpt>
      <trkpt lat="59.9884207" lon="17.7391212">
        <ele>42.916</ele>
        <time>2012-09-30T09:52:56Z</time>
      </trkpt>
      <trkpt lat="59.9883969" lon="17.7391253">
        <ele>42.4354</ele>
        <time>2012-09-30T09:52:57Z</time>
      </trkpt>
      <trkpt lat="59.9883787" lon="17.7391343">
        <ele>42.4354</ele>
        <time>2012-09-30T09:52:58Z</time>
      </trkpt>
      <trkpt lat="59.9883577" lon="17.7391461">
        <ele>41.9547</ele>
        <time>2012-09-30T09:52:59Z</time>
      </trkpt>
      <trkpt lat="59.9883385" lon="17.7391553">
        <ele>41.9547</ele>
        <time>2012-09-30T09:53:00Z</time>
      </trkpt>
      <trkpt lat="59.9883191" lon="17.7391626">
        <ele>41.474</ele>
        <time>2012-09-30T09:53:01Z</time>
      </trkpt>
      <trkpt lat="59.9882997" lon="17.7391656">
        <ele>41.474</ele>
        <time>2012-09-30T09:53:02Z</time>
      </trkpt>
      <trkpt lat="59.988285" lon="17.7391757">
        <ele>41.9547</ele>
        <time>2012-09-30T09:53:03Z</time>
      </trkpt>
      <trkpt lat="59.9882685" lon="17.7391811">
        <ele>41.9547</ele>
        <time>2012-09-30T09:53:04Z</time>
      </trkpt>
      <trkpt lat="59.9882473" lon="17.7391678">
        <ele>41.9547</ele>
        <time>2012-09-30T09:53:05Z</time>
      </trkpt>
      <trkpt lat="59.9882236" lon="17.7391517">
        <ele>41.474</ele>
        <time>2012-09-30T09:53:06Z</time>
      </trkpt>
      <trkpt lat="59.988196" lon="17.7391524">
        <ele>41.474</ele>
        <time>2012-09-30T09:53:07Z</time>
      </trkpt>
      <trkpt lat="59.9881705" lon="17.7391562">
        <ele>41.9547</ele>
        <time>2012-09-30T09:53:08Z</time>
      </trkpt>
      <trkpt lat="59.9881426" lon="17.7391559">
        <ele>42.4354</ele>
        <time>2012-09-30T09:53:09Z</time>
      </trkpt>
      <trkpt lat="59.9881116" lon="17.7391502">
        <ele>42.916</ele>
        <time>2012-09-30T09:53:10Z</time>
      </trkpt>
      <trkpt lat="59.9880753" lon="17.7391564">
        <ele>42.916</ele>
        <time>2012-09-30T09:53:11Z</time>
      </trkpt>
      <trkpt lat="59.9880452" lon="17.7391626">
        <ele>43.3966</ele>
        <time>2012-09-30T09:53:12Z</time>
      </trkpt>
      <trkpt lat="59.9880164" lon="17.7391678">
        <ele>43.8773</ele>
        <time>2012-09-30T09:53:13Z</time>
      </trkpt>
      <trkpt lat="59.9879979" lon="17.7391783">
        <ele>44.358</ele>
        <time>2012-09-30T09:53:14Z</time>
      </trkpt>
      <trkpt lat="59.987972" lon="17.7392021">
        <ele>44.8386</ele>
        <time>2012-09-30T09:53:15Z</time>
      </trkpt>
      <trkpt lat="59.9879488" lon="17.7392309">
        <ele>44.358</ele>
        <time>2012-09-30T09:53:16Z</time>
      </trkpt>
      <trkpt lat="59.9879247" lon="17.739245">
        <ele>44.358</ele>
        <time>2012-09-30T09:53:17Z</time>
      </trkpt>
      <trkpt lat="59.9879022" lon="17.7392567">
        <ele>43.8773</ele>
        <time>2012-09-30T09:53:18Z</time>
      </trkpt>
      <trkpt lat="59.9878743" lon="17.7392595">
        <ele>43.3966</ele>
        <time>2012-09-30T09:53:19Z</time>
      </trkpt>
      <trkpt lat="59.9878463" lon="17.7392713">
        <ele>42.4354</ele>
        <time>2012-09-30T09:53:20Z</time>
      </trkpt>
      <trkpt lat="59.9878231" lon="17.7392849">
        <ele>41.474</ele>
        <time>2012-09-30T09:53:21Z</time>
      </trkpt>
      <trkpt lat="59.9877969" lon="17.7392854">
        <ele>40.9934</ele>
        <time>2012-09-30T09:53:22Z</time>
      </trkpt>
      <trkpt lat="59.987764" lon="17.7392906">
        <ele>40.9934</ele>
        <time>2012-09-30T09:53:23Z</time>
      </trkpt>
      <trkpt lat="59.9877353" lon="17.7392902">
        <ele>40.9934</ele>
        <time>2012-09-30T09:53:24Z</time>
      </trkpt>
      <trkpt lat="59.9877075" lon="17.7392948">
        <ele>41.474</ele>
        <time>2012-09-30T09:53:25Z</time>
      </trkpt>
      <trkpt lat="59.9876788" lon="17.7393035">
        <ele>41.9547</ele>
        <time>2012-09-30T09:53:26Z</time>
      </trkpt>
      <trkpt lat="59.9876521" lon="17.7393077">
        <ele>41.9547</ele>
        <time>2012-09-30T09:53:27Z</time>
      </trkpt>
      <trkpt lat="59.9876219" lon="17.7393116">
        <ele>41.9547</ele>
        <time>2012-09-30T09:53:28Z</time>
      </trkpt>
      <trkpt lat="59.9875965" lon="17.7393187">
        <ele>41.9547</ele>
        <time>2012-09-30T09:53:29Z</time>
      </trkpt>
      <trkpt lat="59.9875761" lon="17.7393269">
        <ele>42.4354</ele>
        <time>2012-09-30T09:53:30Z</time>
      </trkpt>
      <trkpt lat="59.9875561" lon="17.7393376">
        <ele>42.4354</ele>
        <time>2012-09-30T09:53:31Z</time>
      </trkpt>
      <trkpt lat="59.9875356" lon="17.7393346">
        <ele>42.4354</ele>
        <time>2012-09-30T09:53:32Z</time>
      </trkpt>
      <trkpt lat="59.9875144" lon="17.7393304">
        <ele>42.4354</ele>
        <time>2012-09-30T09:53:33Z</time>
      </trkpt>
      <trkpt lat="59.9874931" lon="17.7393455">
        <ele>42.4354</ele>
        <time>2012-09-30T09:53:34Z</time>
      </trkpt>
      <trkpt lat="59.987475" lon="17.7393601">
        <ele>42.4354</ele>
        <time>2012-09-30T09:53:35Z</time>
      </trkpt>
      <trkpt lat="59.9874547" lon="17.7393822">
        <ele>42.4354</ele>
        <time>2012-09-30T09:53:36Z</time>
      </trkpt>
      <trkpt lat="59.9874237" lon="17.7393833">
        <ele>43.3966</ele>
        <time>2012-09-30T09:53:37Z</time>
      </trkpt>
      <trkpt lat="59.9873944" lon="17.7393786">
        <ele>44.358</ele>
        <time>2012-09-30T09:53:38Z</time>
      </trkpt>
      <trkpt lat="59.9873704" lon="17.7393805">
        <ele>45.3192</ele>
        <time>2012-09-30T09:53:39Z</time>
      </trkpt>
      <trkpt lat="59.9873461" lon="17.7393761">
        <ele>45.3192</ele>
        <time>2012-09-30T09:53:40Z</time>
      </trkpt>
      <trkpt lat="59.987316" lon="17.7393719">
        <ele>45.7999</ele>
        <time>2012-09-30T09:53:41Z</time>
      </trkpt>
      <trkpt lat="59.9872851" lon="17.739363">
        <ele>46.2806</ele>
        <time>2012-09-30T09:53:42Z</time>
      </trkpt>
      <trkpt lat="59.9872518" lon="17.7393584">
        <ele>47.2418</ele>
        <time>2012-09-30T09:53:43Z</time>
      </trkpt>
      <trkpt lat="59.9872202" lon="17.7393472">
        <ele>47.2418</ele>
        <time>2012-09-30T09:53:44Z</time>
      </trkpt>
      <trkpt lat="59.987188" lon="17.7393392">
        <ele>47.2418</ele>
        <time>2012-09-30T09:53:45Z</time>
      </trkpt>
      <trkpt lat="59.9871626" lon="17.7393293">
        <ele>47.7225</ele>
        <time>2012-09-30T09:53:46Z</time>
      </trkpt>
      <trkpt lat="59.987138" lon="17.7393168">
        <ele>48.2034</ele>
        <time>2012-09-30T09:53:47Z</time>
      </trkpt>
      <trkpt lat="59.9871149" lon="17.7393046">
        <ele>48.684</ele>
        <time>2012-09-30T09:53:48Z</time>
      </trkpt>
      <trkpt lat="59.987088" lon="17.7392967">
        <ele>49.1646</ele>
        <time>2012-09-30T09:53:49Z</time>
      </trkpt>
      <trkpt lat="59.9870564" lon="17.7392844">
        <ele>49.1646</ele>
        <time>2012-09-30T09:53:50Z</time>
      </trkpt>
      <trkpt lat="59.9870289" lon="17.7392726">
        <ele>49.1646</ele>
        <time>2012-09-30T09:53:51Z</time>
      </trkpt>
      <trkpt lat="59.9870049" lon="17.7392605">
        <ele>49.1646</ele>
        <time>2012-09-30T09:53:52Z</time>
      </trkpt>
      <trkpt lat="59.9869808" lon="17.7392563">
        <ele>49.6453</ele>
        <time>2012-09-30T09:53:53Z</time>
      </trkpt>
      <trkpt lat="59.986958" lon="17.739251">
        <ele>50.126</ele>
        <time>2012-09-30T09:53:54Z</time>
      </trkpt>
      <trkpt lat="59.9869361" lon="17.7392414">
        <ele>50.126</ele>
        <time>2012-09-30T09:53:55Z</time>
      </trkpt>
      <trkpt lat="59.986916" lon="17.739227">
        <ele>50.6066</ele>
        <time>2012-09-30T09:53:56Z</time>
      </trkpt>
      <trkpt lat="59.9868895" lon="17.7392128">
        <ele>50.6066</ele>
        <time>2012-09-30T09:53:57Z</time>
      </trkpt>
      <trkpt lat="59.9868631" lon="17.7391984">
        <ele>50.6066</ele>
        <time>2012-09-30T09:53:58Z</time>
      </trkpt>
      <trkpt lat="59.9868341" lon="17.739189">
        <ele>51.5679</ele>
        <time>2012-09-30T09:53:59Z</time>
      </trkpt>
      <trkpt lat="59.9868009" lon="17.7391813">
        <ele>52.5292</ele>
        <time>2012-09-30T09:54:00Z</time>
      </trkpt>
      <trkpt lat="59.986774" lon="17.7391657">
        <ele>52.5292</ele>
        <time>2012-09-30T09:54:01Z</time>
      </trkpt>
      <trkpt lat="59.9867523" lon="17.7391426">
        <ele>52.5292</ele>
        <time>2012-09-30T09:54:02Z</time>
      </trkpt>
      <trkpt lat="59.9867276" lon="17.7391316">
        <ele>53.0098</ele>
        <time>2012-09-30T09:54:03Z</time>
      </trkpt>
      <trkpt lat="59.9867058" lon="17.7391189">
        <ele>53.0098</ele>
        <time>2012-09-30T09:54:04Z</time>
      </trkpt>
      <trkpt lat="59.9866843" lon="17.7390928">
        <ele>53.0098</ele>
        <time>2012-09-30T09:54:05Z</time>
      </trkpt>
      <trkpt lat="59.9866604" lon="17.739064">
        <ele>53.0098</ele>
        <time>2012-09-30T09:54:06Z</time>
      </trkpt>
      <trkpt lat="59.9866456" lon="17.739036">
        <ele>52.5292</ele>
        <time>2012-09-30T09:54:07Z</time>
      </trkpt>
      <trkpt lat="59.9866337" lon="17.7390122">
        <ele>52.0486</ele>
        <time>2012-09-30T09:54:08Z</time>
      </trkpt>
      <trkpt lat="59.9866187" lon="17.73899">
        <ele>51.0872</ele>
        <time>2012-09-30T09:54:09Z</time>
      </trkpt>
      <trkpt lat="59.986598" lon="17.7389766">
        <ele>51.0872</ele>
        <time>2012-09-30T09:54:10Z</time>
      </trkpt>
      <trkpt lat="59.9865753" lon="17.7389533">
        <ele>51.0872</ele>
        <time>2012-09-30T09:54:11Z</time>
      </trkpt>
      <trkpt lat="59.9865554" lon="17.7389239">
        <ele>50.126</ele>
        <time>2012-09-30T09:54:12Z</time>
      </trkpt>
      <trkpt lat="59.9865353" lon="17.7388964">
        <ele>49.6453</ele>
        <time>2012-09-30T09:54:13Z</time>
      </trkpt>
      <trkpt lat="59.9865204" lon="17.7388745">
        <ele>49.1646</ele>
        <time>2012-09-30T09:54:14Z</time>
      </trkpt>
      <trkpt lat="59.9865047" lon="17.7388661">
        <ele>48.684</ele>
        <time>2012-09-30T09:54:15Z</time>
      </trkpt>
      <trkpt lat="59.9864865" lon="17.7388612">
        <ele>48.684</ele>
        <time>2012-09-30T09:54:16Z</time>
      </trkpt>
      <trkpt lat="59.9864679" lon="17.7388451">
        <ele>48.2034</ele>
        <time>2012-09-30T09:54:17Z</time>
      </trkpt>
      <trkpt lat="59.986447" lon="17.738833">
        <ele>47.2418</ele>
        <time>2012-09-30T09:54:18Z</time>
      </trkpt>
      <trkpt lat="59.9864222" lon="17.7388042">
        <ele>47.7225</ele>
        <time>2012-09-30T09:54:19Z</time>
      </trkpt>
      <trkpt lat="59.9864093" lon="17.738781">
        <ele>46.7612</ele>
        <time>2012-09-30T09:54:20Z</time>
      </trkpt>
      <trkpt lat="59.9863885" lon="17.7387698">
        <ele>46.7612</ele>
        <time>2012-09-30T09:54:21Z</time>
      </trkpt>
      <trkpt lat="59.9863706" lon="17.7387488">
        <ele>45.7999</ele>
        <time>2012-09-30T09:54:22Z</time>
      </trkpt>
      <trkpt lat="59.9863515" lon="17.7387254">
        <ele>45.7999</ele>
        <time>2012-09-30T09:54:23Z</time>
      </trkpt>
      <trkpt lat="59.9863317" lon="17.7387061">
        <ele>45.3192</ele>
        <time>2012-09-30T09:54:24Z</time>
      </trkpt>
      <trkpt lat="59.986308" lon="17.7386856">
        <ele>45.3192</ele>
        <time>2012-09-30T09:54:25Z</time>
      </trkpt>
      <trkpt lat="59.9862887" lon="17.7386612">
        <ele>44.358</ele>
        <time>2012-09-30T09:54:26Z</time>
      </trkpt>
      <trkpt lat="59.9862667" lon="17.7386415">
        <ele>44.8386</ele>
        <time>2012-09-30T09:54:27Z</time>
      </trkpt>
      <trkpt lat="59.9862515" lon="17.7386323">
        <ele>43.8773</ele>
        <time>2012-09-30T09:54:28Z</time>
      </trkpt>
      <trkpt lat="59.9862326" lon="17.7386183">
        <ele>43.8773</ele>
        <time>2012-09-30T09:54:29Z</time>
      </trkpt>
      <trkpt lat="59.986218" lon="17.7386074">
        <ele>43.8773</ele>
        <time>2012-09-30T09:54:30Z</time>
      </trkpt>
      <trkpt lat="59.9862032" lon="17.7385996">
        <ele>43.8773</ele>
        <time>2012-09-30T09:54:31Z</time>
      </trkpt>
      <trkpt lat="59.986184" lon="17.7385823">
        <ele>43.8773</ele>
        <time>2012-09-30T09:54:32Z</time>
      </trkpt>
      <trkpt lat="59.9861652" lon="17.7385554">
        <ele>43.3966</ele>
        <time>2012-09-30T09:54:33Z</time>
      </trkpt>
      <trkpt lat="59.9861466" lon="17.7385338">
        <ele>42.4354</ele>
        <time>2012-09-30T09:54:34Z</time>
      </trkpt>
      <trkpt lat="59.986126" lon="17.7385166">
        <ele>41.9547</ele>
        <time>2012-09-30T09:54:35Z</time>
      </trkpt>
      <trkpt lat="59.9861095" lon="17.7384975">
        <ele>41.474</ele>
        <time>2012-09-30T09:54:36Z</time>
      </trkpt>
      <trkpt lat="59.9860917" lon="17.7384732">
        <ele>41.474</ele>
        <time>2012-09-30T09:54:37Z</time>
      </trkpt>
      <trkpt lat="59.9860732" lon="17.7384566">
        <ele>40.9934</ele>
        <time>2012-09-30T09:54:38Z</time>
      </trkpt>
      <trkpt lat="59.9860518" lon="17.738438">
        <ele>40.0321</ele>
        <time>2012-09-30T09:54:39Z</time>
      </trkpt>
      <trkpt lat="59.9860318" lon="17.7384233">
        <ele>39.0707</ele>
        <time>2012-09-30T09:54:40Z</time>
      </trkpt>
      <trkpt lat="59.9860119" lon="17.7384099">
        <ele>39.0707</ele>
        <time>2012-09-30T09:54:41Z</time>
      </trkpt>
      <trkpt lat="59.9859831" lon="17.7384016">
        <ele>39.0707</ele>
        <time>2012-09-30T09:54:42Z</time>
      </trkpt>
      <trkpt lat="59.9859592" lon="17.7383955">
        <ele>39.0707</ele>
        <time>2012-09-30T09:54:43Z</time>
      </trkpt>
      <trkpt lat="59.985936" lon="17.738394">
        <ele>38.5901</ele>
        <time>2012-09-30T09:54:44Z</time>
      </trkpt>
      <trkpt lat="59.9859187" lon="17.738385">
        <ele>38.5901</ele>
        <time>2012-09-30T09:54:45Z</time>
      </trkpt>
      <trkpt lat="59.9859013" lon="17.738367">
        <ele>38.1094</ele>
        <time>2012-09-30T09:54:46Z</time>
      </trkpt>
      <trkpt lat="59.9858821" lon="17.7383473">
        <ele>37.6287</ele>
        <time>2012-09-30T09:54:47Z</time>
      </trkpt>
      <trkpt lat="59.9858613" lon="17.7383296">
        <ele>37.6287</ele>
        <time>2012-09-30T09:54:48Z</time>
      </trkpt>
      <trkpt lat="59.985837" lon="17.7383135">
        <ele>37.6287</ele>
        <time>2012-09-30T09:54:49Z</time>
      </trkpt>
      <trkpt lat="59.9858111" lon="17.7383044">
        <ele>37.1481</ele>
        <time>2012-09-30T09:54:50Z</time>
      </trkpt>
      <trkpt lat="59.9857829" lon="17.7382899">
        <ele>36.6675</ele>
        <time>2012-09-30T09:54:51Z</time>
      </trkpt>
      <trkpt lat="59.9857535" lon="17.7382717">
        <ele>37.1481</ele>
        <time>2012-09-30T09:54:52Z</time>
      </trkpt>
      <trkpt lat="59.9857309" lon="17.7382561">
        <ele>36.6675</ele>
        <time>2012-09-30T09:54:53Z</time>
      </trkpt>
      <trkpt lat="59.9857045" lon="17.7382461">
        <ele>36.6675</ele>
        <time>2012-09-30T09:54:54Z</time>
      </trkpt>
      <trkpt lat="59.9856827" lon="17.738235">
        <ele>37.1481</ele>
        <time>2012-09-30T09:54:55Z</time>
      </trkpt>
      <trkpt lat="59.9856648" lon="17.7382235">
        <ele>36.6675</ele>
        <time>2012-09-30T09:54:56Z</time>
      </trkpt>
      <trkpt lat="59.9856431" lon="17.73822">
        <ele>36.1868</ele>
        <time>2012-09-30T09:54:57Z</time>
      </trkpt>
      <trkpt lat="59.985623" lon="17.7382217">
        <ele>36.1868</ele>
        <time>2012-09-30T09:54:58Z</time>
      </trkpt>
      <trkpt lat="59.9856059" lon="17.7382194">
        <ele>35.7061</ele>
        <time>2012-09-30T09:54:59Z</time>
      </trkpt>
      <trkpt lat="59.9855894" lon="17.7382169">
        <ele>35.2255</ele>
        <time>2012-09-30T09:55:00Z</time>
      </trkpt>
      <trkpt lat="59.9855666" lon="17.7382172">
        <ele>34.7449</ele>
        <time>2012-09-30T09:55:01Z</time>
      </trkpt>
      <trkpt lat="59.9855395" lon="17.7382091">
        <ele>34.7449</ele>
        <time>2012-09-30T09:55:02Z</time>
      </trkpt>
      <trkpt lat="59.9855111" lon="17.7382005">
        <ele>35.7061</ele>
        <time>2012-09-30T09:55:03Z</time>
      </trkpt>
      <trkpt lat="59.9854902" lon="17.7381941">
        <ele>35.2255</ele>
        <time>2012-09-30T09:55:04Z</time>
      </trkpt>
      <trkpt lat="59.9854664" lon="17.7381845">
        <ele>35.7061</ele>
        <time>2012-09-30T09:55:05Z</time>
      </trkpt>
      <trkpt lat="59.9854412" lon="17.7381691">
        <ele>36.1868</ele>
        <time>2012-09-30T09:55:06Z</time>
      </trkpt>
      <trkpt lat="59.98542" lon="17.738155">
        <ele>36.1868</ele>
        <time>2012-09-30T09:55:07Z</time>
      </trkpt>
      <trkpt lat="59.9853944" lon="17.7381463">
        <ele>36.6675</ele>
        <time>2012-09-30T09:55:08Z</time>
      </trkpt>
      <trkpt lat="59.9853732" lon="17.7381396">
        <ele>36.6675</ele>
        <time>2012-09-30T09:55:09Z</time>
      </trkpt>
      <trkpt lat="59.9853517" lon="17.7381282">
        <ele>36.6675</ele>
        <time>2012-09-30T09:55:10Z</time>
      </trkpt>
      <trkpt lat="59.9853256" lon="17.7381163">
        <ele>36.6675</ele>
        <time>2012-09-30T09:55:11Z</time>
      </trkpt>
      <trkpt lat="59.9852948" lon="17.7381016">
        <ele>36.6675</ele>
        <time>2012-09-30T09:55:12Z</time>
      </trkpt>
      <trkpt lat="59.985267" lon="17.7380892">
        <ele>36.6675</ele>
        <time>2012-09-30T09:55:13Z</time>
      </trkpt>
      <trkpt lat="59.9852413" lon="17.7380891">
        <ele>37.1481</ele>
        <time>2012-09-30T09:55:14Z</time>
      </trkpt>
      <trkpt lat="59.9852159" lon="17.7380944">
        <ele>37.6287</ele>
        <time>2012-09-30T09:55:15Z</time>
      </trkpt>
      <trkpt lat="59.9851946" lon="17.7381091">
        <ele>38.5901</ele>
        <time>2012-09-30T09:55:16Z</time>
      </trkpt>
      <trkpt lat="59.9851666" lon="17.7381251">
        <ele>39.5513</ele>
        <time>2012-09-30T09:55:17Z</time>
      </trkpt>
      <trkpt lat="59.9851413" lon="17.7381266">
        <ele>40.0321</ele>
        <time>2012-09-30T09:55:18Z</time>
      </trkpt>
      <trkpt lat="59.985115" lon="17.7381251">
        <ele>40.5128</ele>
        <time>2012-09-30T09:55:19Z</time>
      </trkpt>
      <trkpt lat="59.9850893" lon="17.7381292">
        <ele>40.9934</ele>
        <time>2012-09-30T09:55:20Z</time>
      </trkpt>
      <trkpt lat="59.9850678" lon="17.7381171">
        <ele>40.9934</ele>
        <time>2012-09-30T09:55:21Z</time>
      </trkpt>
      <trkpt lat="59.9850444" lon="17.7381126">
        <ele>40.5128</ele>
        <time>2012-09-30T09:55:22Z</time>
      </trkpt>
      <trkpt lat="59.9850191" lon="17.7381076">
        <ele>40.5128</ele>
        <time>2012-09-30T09:55:23Z</time>
      </trkpt>
      <trkpt lat="59.9849911" lon="17.7381043">
        <ele>40.9934</ele>
        <time>2012-09-30T09:55:24Z</time>
      </trkpt>
      <trkpt lat="59.9849647" lon="17.7381173">
        <ele>41.474</ele>
        <time>2012-09-30T09:55:25Z</time>
      </trkpt>
      <trkpt lat="59.9849375" lon="17.7381086">
        <ele>41.9547</ele>
        <time>2012-09-30T09:55:26Z</time>
      </trkpt>
      <trkpt lat="59.9849165" lon="17.7381027">
        <ele>41.474</ele>
        <time>2012-09-30T09:55:27Z</time>
      </trkpt>
      <trkpt lat="59.9848857" lon="17.7381081">
        <ele>41.9547</ele>
        <time>2012-09-30T09:55:28Z</time>
      </trkpt>
      <trkpt lat="59.984858" lon="17.7381128">
        <ele>42.4354</ele>
        <time>2012-09-30T09:55:29Z</time>
      </trkpt>
      <trkpt lat="59.9848353" lon="17.7381142">
        <ele>42.916</ele>
        <time>2012-09-30T09:55:30Z</time>
      </trkpt>
      <trkpt lat="59.9848191" lon="17.7381057">
        <ele>42.4354</ele>
        <time>2012-09-30T09:55:31Z</time>
      </trkpt>
      <trkpt lat="59.9847911" lon="17.7381012">
        <ele>42.916</ele>
        <time>2012-09-30T09:55:32Z</time>
      </trkpt>
      <trkpt lat="59.9847609" lon="17.7380805">
        <ele>43.3966</ele>
        <time>2012-09-30T09:55:33Z</time>
      </trkpt>
      <trkpt lat="59.9847387" lon="17.7380609">
        <ele>44.358</ele>
        <time>2012-09-30T09:55:34Z</time>
      </trkpt>
      <trkpt lat="59.9847215" lon="17.7380592">
        <ele>44.358</ele>
        <time>2012-09-30T09:55:35Z</time>
      </trkpt>
      <trkpt lat="59.9846983" lon="17.738067">
        <ele>44.358</ele>
        <time>2012-09-30T09:55:36Z</time>
      </trkpt>
      <trkpt lat="59.9846749" lon="17.7380567">
        <ele>44.358</ele>
        <time>2012-09-30T09:55:37Z</time>
      </trkpt>
      <trkpt lat="59.9846497" lon="17.7380519">
        <ele>44.358</ele>
        <time>2012-09-30T09:55:38Z</time>
      </trkpt>
      <trkpt lat="59.9846233" lon="17.7380606">
        <ele>44.358</ele>
        <time>2012-09-30T09:55:39Z</time>
      </trkpt>
      <trkpt lat="59.9845917" lon="17.7380577">
        <ele>44.8386</ele>
        <time>2012-09-30T09:55:40Z</time>
      </trkpt>
      <trkpt lat="59.9845566" lon="17.7380527">
        <ele>45.7999</ele>
        <time>2012-09-30T09:55:41Z</time>
      </trkpt>
      <trkpt lat="59.9845306" lon="17.7380488">
        <ele>46.2806</ele>
        <time>2012-09-30T09:55:42Z</time>
      </trkpt>
      <trkpt lat="59.984515" lon="17.7380387">
        <ele>46.2806</ele>
        <time>2012-09-30T09:55:43Z</time>
      </trkpt>
      <trkpt lat="59.9844924" lon="17.7380261">
        <ele>45.7999</ele>
        <time>2012-09-30T09:55:44Z</time>
      </trkpt>
      <trkpt lat="59.9844695" lon="17.7380163">
        <ele>45.3192</ele>
        <time>2012-09-30T09:55:45Z</time>
      </trkpt>
      <trkpt lat="59.9844462" lon="17.738007">
        <ele>44.8386</ele>
        <time>2012-09-30T09:55:46Z</time>
      </trkpt>
      <trkpt lat="59.9844218" lon="17.7380008">
        <ele>44.358</ele>
        <time>2012-09-30T09:55:47Z</time>
      </trkpt>
      <trkpt lat="59.9843964" lon="17.737992">
        <ele>43.8773</ele>
        <time>2012-09-30T09:55:48Z</time>
      </trkpt>
      <trkpt lat="59.9843699" lon="17.7379888">
        <ele>43.8773</ele>
        <time>2012-09-30T09:55:49Z</time>
      </trkpt>
      <trkpt lat="59.9843523" lon="17.7379862">
        <ele>43.8773</ele>
        <time>2012-09-30T09:55:50Z</time>
      </trkpt>
      <trkpt lat="59.9843331" lon="17.737981">
        <ele>43.8773</ele>
        <time>2012-09-30T09:55:51Z</time>
      </trkpt>
      <trkpt lat="59.9843128" lon="17.737965">
        <ele>43.3966</ele>
        <time>2012-09-30T09:55:52Z</time>
      </trkpt>
      <trkpt lat="59.9842887" lon="17.7379521">
        <ele>43.3966</ele>
        <time>2012-09-30T09:55:53Z</time>
      </trkpt>
      <trkpt lat="59.9842631" lon="17.7379457">
        <ele>42.916</ele>
        <time>2012-09-30T09:55:54Z</time>
      </trkpt>
      <trkpt lat="59.9842372" lon="17.7379254">
        <ele>42.916</ele>
        <time>2012-09-30T09:55:55Z</time>
      </trkpt>
      <trkpt lat="59.9842121" lon="17.7379138">
        <ele>42.4354</ele>
        <time>2012-09-30T09:55:56Z</time>
      </trkpt>
      <trkpt lat="59.9841897" lon="17.737912">
        <ele>42.4354</ele>
        <time>2012-09-30T09:55:57Z</time>
      </trkpt>
      <trkpt lat="59.9841662" lon="17.7379268">
        <ele>42.4354</ele>
        <time>2012-09-30T09:55:58Z</time>
      </trkpt>
      <trkpt lat="59.9841488" lon="17.7379287">
        <ele>41.474</ele>
        <time>2012-09-30T09:55:59Z</time>
      </trkpt>
      <trkpt lat="59.9841311" lon="17.7379198">
        <ele>41.474</ele>
        <time>2012-09-30T09:56:00Z</time>
      </trkpt>
      <trkpt lat="59.9841171" lon="17.7379091">
        <ele>41.474</ele>
        <time>2012-09-30T09:56:01Z</time>
      </trkpt>
      <trkpt lat="59.9840952" lon="17.7379009">
        <ele>41.474</ele>
        <time>2012-09-30T09:56:02Z</time>
      </trkpt>
      <trkpt lat="59.9840732" lon="17.7379011">
        <ele>41.474</ele>
        <time>2012-09-30T09:56:03Z</time>
      </trkpt>
      <trkpt lat="59.9840493" lon="17.7379084">
        <ele>41.474</ele>
        <time>2012-09-30T09:56:04Z</time>
      </trkpt>
      <trkpt lat="59.9840312" lon="17.7379122">
        <ele>41.474</ele>
        <time>2012-09-30T09:56:05Z</time>
      </trkpt>
      <trkpt lat="59.9840103" lon="17.7379117">
        <ele>41.9547</ele>
        <time>2012-09-30T09:56:06Z</time>
      </trkpt>
      <trkpt lat="59.983986" lon="17.7379131">
        <ele>41.9547</ele>
        <time>2012-09-30T09:56:07Z</time>
      </trkpt>
      <trkpt lat="59.9839587" lon="17.7379219">
        <ele>41.9547</ele>
        <time>2012-09-30T09:56:08Z</time>
      </trkpt>
      <trkpt lat="59.9839288" lon="17.7379288">
        <ele>41.474</ele>
        <time>2012-09-30T09:56:09Z</time>
      </trkpt>
      <trkpt lat="59.9839018" lon="17.7379355">
        <ele>41.9547</ele>
        <time>2012-09-30T09:56:10Z</time>
      </trkpt>
      <trkpt lat="59.9838782" lon="17.7379439">
        <ele>41.474</ele>
        <time>2012-09-30T09:56:11Z</time>
      </trkpt>
      <trkpt lat="59.9838525" lon="17.7379563">
        <ele>40.9934</ele>
        <time>2012-09-30T09:56:12Z</time>
      </trkpt>
      <trkpt lat="59.9838243" lon="17.7379702">
        <ele>40.9934</ele>
        <time>2012-09-30T09:56:13Z</time>
      </trkpt>
      <trkpt lat="59.9838021" lon="17.7379874">
        <ele>40.9934</ele>
        <time>2012-09-30T09:56:14Z</time>
      </trkpt>
      <trkpt lat="59.983783" lon="17.7379993">
        <ele>40.5128</ele>
        <time>2012-09-30T09:56:15Z</time>
      </trkpt>
      <trkpt lat="59.9837613" lon="17.7380116">
        <ele>40.5128</ele>
        <time>2012-09-30T09:56:16Z</time>
      </trkpt>
      <trkpt lat="59.9837357" lon="17.7380202">
        <ele>40.5128</ele>
        <time>2012-09-30T09:56:17Z</time>
      </trkpt>
      <trkpt lat="59.9837095" lon="17.7380075">
        <ele>40.9934</ele>
        <time>2012-09-30T09:56:18Z</time>
      </trkpt>
      <trkpt lat="59.9836848" lon="17.7380094">
        <ele>40.9934</ele>
        <time>2012-09-30T09:56:19Z</time>
      </trkpt>
      <trkpt lat="59.9836583" lon="17.7380166">
        <ele>41.474</ele>
        <time>2012-09-30T09:56:20Z</time>
      </trkpt>
      <trkpt lat="59.9836406" lon="17.7380268">
        <ele>41.9547</ele>
        <time>2012-09-30T09:56:21Z</time>
      </trkpt>
      <trkpt lat="59.9836202" lon="17.7380369">
        <ele>41.9547</ele>
        <time>2012-09-30T09:56:22Z</time>
      </trkpt>
      <trkpt lat="59.9835976" lon="17.7380469">
        <ele>42.916</ele>
        <time>2012-09-30T09:56:23Z</time>
      </trkpt>
      <trkpt lat="59.9835737" lon="17.7380511">
        <ele>43.8773</ele>
        <time>2012-09-30T09:56:24Z</time>
      </trkpt>
      <trkpt lat="59.9835436" lon="17.7380483">
        <ele>44.358</ele>
        <time>2012-09-30T09:56:25Z</time>
      </trkpt>
      <trkpt lat="59.9835187" lon="17.7380463">
        <ele>44.358</ele>
        <time>2012-09-30T09:56:26Z</time>
      </trkpt>
      <trkpt lat="59.9834961" lon="17.7380453">
        <ele>44.8386</ele>
        <time>2012-09-30T09:56:27Z</time>
      </trkpt>
      <trkpt lat="59.9834738" lon="17.7380399">
        <ele>44.8386</ele>
        <time>2012-09-30T09:56:28Z</time>
      </trkpt>
      <trkpt lat="59.9834499" lon="17.7380447">
        <ele>44.358</ele>
        <time>2012-09-30T09:56:29Z</time>
      </trkpt>
      <trkpt lat="59.9834246" lon="17.7380711">
        <ele>44.358</ele>
        <time>2012-09-30T09:56:30Z</time>
      </trkpt>
      <trkpt lat="59.9833959" lon="17.7380883">
        <ele>44.8386</ele>
        <time>2012-09-30T09:56:31Z</time>
      </trkpt>
      <trkpt lat="59.983365" lon="17.738094">
        <ele>45.3192</ele>
        <time>2012-09-30T09:56:32Z</time>
      </trkpt>
      <trkpt lat="59.9833371" lon="17.7381065">
        <ele>45.7999</ele>
        <time>2012-09-30T09:56:33Z</time>
      </trkpt>
      <trkpt lat="59.9833107" lon="17.7381142">
        <ele>45.3192</ele>
        <time>2012-09-30T09:56:34Z</time>
      </trkpt>
      <trkpt lat="59.9832903" lon="17.7381136">
        <ele>45.3192</ele>
        <time>2012-09-30T09:56:35Z</time>
      </trkpt>
      <trkpt lat="59.9832693" lon="17.7381124">
        <ele>45.3192</ele>
        <time>2012-09-30T09:56:36Z</time>
      </trkpt>
      <trkpt lat="59.9832475" lon="17.7381171">
        <ele>44.8386</ele>
        <time>2012-09-30T09:56:37Z</time>
      </trkpt>
      <trkpt lat="59.9832248" lon="17.7381246">
        <ele>44.358</ele>
        <time>2012-09-30T09:56:38Z</time>
      </trkpt>
      <trkpt lat="59.983205" lon="17.7381261">
        <ele>43.3966</ele>
        <time>2012-09-30T09:56:39Z</time>
      </trkpt>
      <trkpt lat="59.9831802" lon="17.7381174">
        <ele>43.8773</ele>
        <time>2012-09-30T09:56:40Z</time>
      </trkpt>
      <trkpt lat="59.9831543" lon="17.7381178">
        <ele>43.8773</ele>
        <time>2012-09-30T09:56:41Z</time>
      </trkpt>
      <trkpt lat="59.9831282" lon="17.738136">
        <ele>43.8773</ele>
        <time>2012-09-30T09:56:42Z</time>
      </trkpt>
      <trkpt lat="59.9831076" lon="17.7381438">
        <ele>43.3966</ele>
        <time>2012-09-30T09:56:43Z</time>
      </trkpt>
      <trkpt lat="59.9830853" lon="17.7381438">
        <ele>43.3966</ele>
        <time>2012-09-30T09:56:44Z</time>
      </trkpt>
      <trkpt lat="59.9830626" lon="17.7381467">
        <ele>42.916</ele>
        <time>2012-09-30T09:56:45Z</time>
      </trkpt>
      <trkpt lat="59.9830377" lon="17.7381443">
        <ele>42.916</ele>
        <time>2012-09-30T09:56:46Z</time>
      </trkpt>
      <trkpt lat="59.9830186" lon="17.7381409">
        <ele>42.916</ele>
        <time>2012-09-30T09:56:47Z</time>
      </trkpt>
      <trkpt lat="59.983003" lon="17.7381423">
        <ele>42.4354</ele>
        <time>2012-09-30T09:56:48Z</time>
      </trkpt>
      <trkpt lat="59.9829864" lon="17.7381374">
        <ele>41.9547</ele>
        <time>2012-09-30T09:56:49Z</time>
      </trkpt>
      <trkpt lat="59.982966" lon="17.7381285">
        <ele>42.4354</ele>
        <time>2012-09-30T09:56:50Z</time>
      </trkpt>
      <trkpt lat="59.9829437" lon="17.738125">
        <ele>42.916</ele>
        <time>2012-09-30T09:56:51Z</time>
      </trkpt>
      <trkpt lat="59.9829185" lon="17.7381158">
        <ele>42.916</ele>
        <time>2012-09-30T09:56:52Z</time>
      </trkpt>
      <trkpt lat="59.9828922" lon="17.7381075">
        <ele>42.4354</ele>
        <time>2012-09-30T09:56:53Z</time>
      </trkpt>
      <trkpt lat="59.9828648" lon="17.7381016">
        <ele>41.9547</ele>
        <time>2012-09-30T09:56:54Z</time>
      </trkpt>
      <trkpt lat="59.9828403" lon="17.7380987">
        <ele>41.9547</ele>
        <time>2012-09-30T09:56:55Z</time>
      </trkpt>
      <trkpt lat="59.9828135" lon="17.7381054">
        <ele>41.474</ele>
        <time>2012-09-30T09:56:56Z</time>
      </trkpt>
      <trkpt lat="59.9827875" lon="17.7381128">
        <ele>41.9547</ele>
        <time>2012-09-30T09:56:57Z</time>
      </trkpt>
      <trkpt lat="59.9827642" lon="17.7381199">
        <ele>41.474</ele>
        <time>2012-09-30T09:56:58Z</time>
      </trkpt>
      <trkpt lat="59.9827406" lon="17.738125">
        <ele>41.474</ele>
        <time>2012-09-30T09:56:59Z</time>
      </trkpt>
      <trkpt lat="59.9827138" lon="17.7381239">
        <ele>41.9547</ele>
        <time>2012-09-30T09:57:00Z</time>
      </trkpt>
      <trkpt lat="59.9826896" lon="17.7381238">
        <ele>41.474</ele>
        <time>2012-09-30T09:57:01Z</time>
      </trkpt>
      <trkpt lat="59.9826673" lon="17.7381189">
        <ele>41.9547</ele>
        <time>2012-09-30T09:57:02Z</time>
      </trkpt>
      <trkpt lat="59.9826436" lon="17.7381142">
        <ele>41.9547</ele>
        <time>2012-09-30T09:57:03Z</time>
      </trkpt>
      <trkpt lat="59.982617" lon="17.7381137">
        <ele>41.474</ele>
        <time>2012-09-30T09:57:04Z</time>
      </trkpt>
      <trkpt lat="59.9825889" lon="17.7381083">
        <ele>40.9934</ele>
        <time>2012-09-30T09:57:05Z</time>
      </trkpt>
      <trkpt lat="59.982562" lon="17.7381074">
        <ele>41.474</ele>
        <time>2012-09-30T09:57:06Z</time>
      </trkpt>
      <trkpt lat="59.9825368" lon="17.7380965">
        <ele>40.9934</ele>
        <time>2012-09-30T09:57:07Z</time>
      </trkpt>
      <trkpt lat="59.9825154" lon="17.7380969">
        <ele>40.9934</ele>
        <time>2012-09-30T09:57:08Z</time>
      </trkpt>
      <trkpt lat="59.9824946" lon="17.738101">
        <ele>40.5128</ele>
        <time>2012-09-30T09:57:09Z</time>
      </trkpt>
      <trkpt lat="59.9824725" lon="17.7380979">
        <ele>40.0321</ele>
        <time>2012-09-30T09:57:10Z</time>
      </trkpt>
      <trkpt lat="59.9824508" lon="17.7380971">
        <ele>40.5128</ele>
        <time>2012-09-30T09:57:11Z</time>
      </trkpt>
      <trkpt lat="59.982434" lon="17.7380934">
        <ele>40.5128</ele>
        <time>2012-09-30T09:57:12Z</time>
      </trkpt>
      <trkpt lat="59.9824202" lon="17.7380903">
        <ele>40.5128</ele>
        <time>2012-09-30T09:57:13Z</time>
      </trkpt>
      <trkpt lat="59.9824045" lon="17.7380902">
        <ele>40.9934</ele>
        <time>2012-09-30T09:57:14Z</time>
      </trkpt>
      <trkpt lat="59.982387" lon="17.7381079">
        <ele>40.9934</ele>
        <time>2012-09-30T09:57:15Z</time>
      </trkpt>
      <trkpt lat="59.9823647" lon="17.7381172">
        <ele>40.9934</ele>
        <time>2012-09-30T09:57:16Z</time>
      </trkpt>
      <trkpt lat="59.9823368" lon="17.7381198">
        <ele>41.474</ele>
        <time>2012-09-30T09:57:17Z</time>
      </trkpt>
      <trkpt lat="59.9823102" lon="17.7381275">
        <ele>41.9547</ele>
        <time>2012-09-30T09:57:18Z</time>
      </trkpt>
      <trkpt lat="59.9822875" lon="17.7381324">
        <ele>41.9547</ele>
        <time>2012-09-30T09:57:19Z</time>
      </trkpt>
      <trkpt lat="59.9822577" lon="17.7381454">
        <ele>41.9547</ele>
        <time>2012-09-30T09:57:20Z</time>
      </trkpt>
      <trkpt lat="59.9822291" lon="17.7381539">
        <ele>41.474</ele>
        <time>2012-09-30T09:57:21Z</time>
      </trkpt>
      <trkpt lat="59.982205" lon="17.738163">
        <ele>41.474</ele>
        <time>2012-09-30T09:57:22Z</time>
      </trkpt>
      <trkpt lat="59.9821834" lon="17.7381696">
        <ele>41.474</ele>
        <time>2012-09-30T09:57:23Z</time>
      </trkpt>
      <trkpt lat="59.9821611" lon="17.7381826">
        <ele>41.474</ele>
        <time>2012-09-30T09:57:24Z</time>
      </trkpt>
      <trkpt lat="59.9821385" lon="17.7381936">
        <ele>40.5128</ele>
        <time>2012-09-30T09:57:25Z</time>
      </trkpt>
      <trkpt lat="59.9821168" lon="17.7382057">
        <ele>40.5128</ele>
        <time>2012-09-30T09:57:26Z</time>
      </trkpt>
      <trkpt lat="59.9820965" lon="17.7382193">
        <ele>40.0321</ele>
        <time>2012-09-30T09:57:27Z</time>
      </trkpt>
      <trkpt lat="59.9820758" lon="17.7382313">
        <ele>40.5128</ele>
        <time>2012-09-30T09:57:28Z</time>
      </trkpt>
      <trkpt lat="59.9820586" lon="17.7382391">
        <ele>40.9934</ele>
        <time>2012-09-30T09:57:29Z</time>
      </trkpt>
      <trkpt lat="59.9820413" lon="17.7382471">
        <ele>40.9934</ele>
        <time>2012-09-30T09:57:30Z</time>
      </trkpt>
      <trkpt lat="59.9820229" lon="17.7382524">
        <ele>40.9934</ele>
        <time>2012-09-30T09:57:31Z</time>
      </trkpt>
      <trkpt lat="59.9820044" lon="17.7382577">
        <ele>40.5128</ele>
        <time>2012-09-30T09:57:32Z</time>
      </trkpt>
      <trkpt lat="59.9819875" lon="17.738271">
        <ele>40.5128</ele>
        <time>2012-09-30T09:57:33Z</time>
      </trkpt>
      <trkpt lat="59.9819664" lon="17.7382823">
        <ele>40.5128</ele>
        <time>2012-09-30T09:57:34Z</time>
      </trkpt>
      <trkpt lat="59.9819447" lon="17.7382906">
        <ele>40.0321</ele>
        <time>2012-09-30T09:57:35Z</time>
      </trkpt>
      <trkpt lat="59.9819225" lon="17.7382976">
        <ele>40.0321</ele>
        <time>2012-09-30T09:57:36Z</time>
      </trkpt>
      <trkpt lat="59.9819016" lon="17.7382948">
        <ele>40.0321</ele>
        <time>2012-09-30T09:57:37Z</time>
      </trkpt>
      <trkpt lat="59.981887" lon="17.7382886">
        <ele>39.5513</ele>
        <time>2012-09-30T09:57:38Z</time>
      </trkpt>
      <trkpt lat="59.9818706" lon="17.7382836">
        <ele>39.5513</ele>
        <time>2012-09-30T09:57:39Z</time>
      </trkpt>
      <trkpt lat="59.9818479" lon="17.738287">
        <ele>39.5513</ele>
        <time>2012-09-30T09:57:40Z</time>
      </trkpt>
      <trkpt lat="59.9818223" lon="17.738295">
        <ele>39.5513</ele>
        <time>2012-09-30T09:57:41Z</time>
      </trkpt>
      <trkpt lat="59.9817942" lon="17.7383131">
        <ele>39.5513</ele>
        <time>2012-09-30T09:57:42Z</time>
      </trkpt>
      <trkpt lat="59.9817701" lon="17.738324">
        <ele>39.5513</ele>
        <time>2012-09-30T09:57:43Z</time>
      </trkpt>
      <trkpt lat="59.9817458" lon="17.7383401">
        <ele>39.5513</ele>
        <time>2012-09-30T09:57:44Z</time>
      </trkpt>
      <trkpt lat="59.9817195" lon="17.7383492">
        <ele>40.0321</ele>
        <time>2012-09-30T09:57:45Z</time>
      </trkpt>
      <trkpt lat="59.9816924" lon="17.7383545">
        <ele>40.0321</ele>
        <time>2012-09-30T09:57:46Z</time>
      </trkpt>
      <trkpt lat="59.9816671" lon="17.7383648">
        <ele>40.5128</ele>
        <time>2012-09-30T09:57:47Z</time>
      </trkpt>
      <trkpt lat="59.9816436" lon="17.7383741">
        <ele>40.5128</ele>
        <time>2012-09-30T09:57:48Z</time>
      </trkpt>
      <trkpt lat="59.9816223" lon="17.7383877">
        <ele>40.0321</ele>
        <time>2012-09-30T09:57:49Z</time>
      </trkpt>
      <trkpt lat="59.9815979" lon="17.7384101">
        <ele>40.9934</ele>
        <time>2012-09-30T09:57:50Z</time>
      </trkpt>
      <trkpt lat="59.9815733" lon="17.7384162">
        <ele>40.5128</ele>
        <time>2012-09-30T09:57:51Z</time>
      </trkpt>
      <trkpt lat="59.9815478" lon="17.7384199">
        <ele>40.5128</ele>
        <time>2012-09-30T09:57:52Z</time>
      </trkpt>
      <trkpt lat="59.9815197" lon="17.738424">
        <ele>40.5128</ele>
        <time>2012-09-30T09:57:53Z</time>
      </trkpt>
      <trkpt lat="59.9814915" lon="17.7384307">
        <ele>40.0321</ele>
        <time>2012-09-30T09:57:54Z</time>
      </trkpt>
      <trkpt lat="59.9814723" lon="17.7384473">
        <ele>39.5513</ele>
        <time>2012-09-30T09:57:55Z</time>
      </trkpt>
      <trkpt lat="59.981456" lon="17.7384586">
        <ele>39.0707</ele>
        <time>2012-09-30T09:57:56Z</time>
      </trkpt>
      <trkpt lat="59.9814407" lon="17.7384624">
        <ele>38.5901</ele>
        <time>2012-09-30T09:57:57Z</time>
      </trkpt>
      <trkpt lat="59.9814182" lon="17.7384596">
        <ele>38.5901</ele>
        <time>2012-09-30T09:57:58Z</time>
      </trkpt>
      <trkpt lat="59.9813909" lon="17.7384613">
        <ele>38.5901</ele>
        <time>2012-09-30T09:57:59Z</time>
      </trkpt>
      <trkpt lat="59.981369" lon="17.7384686">
        <ele>38.5901</ele>
        <time>2012-09-30T09:58:00Z</time>
      </trkpt>
      <trkpt lat="59.9813464" lon="17.7384833">
        <ele>38.5901</ele>
        <time>2012-09-30T09:58:01Z</time>
      </trkpt>
      <trkpt lat="59.9813327" lon="17.7384966">
        <ele>38.5901</ele>
        <time>2012-09-30T09:58:02Z</time>
      </trkpt>
      <trkpt lat="59.9813163" lon="17.7385129">
        <ele>38.1094</ele>
        <time>2012-09-30T09:58:03Z</time>
      </trkpt>
      <trkpt lat="59.9812923" lon="17.7385281">
        <ele>38.1094</ele>
        <time>2012-09-30T09:58:04Z</time>
      </trkpt>
      <trkpt lat="59.9812716" lon="17.7385377">
        <ele>38.1094</ele>
        <time>2012-09-30T09:58:05Z</time>
      </trkpt>
      <trkpt lat="59.9812515" lon="17.7385472">
        <ele>38.5901</ele>
        <time>2012-09-30T09:58:06Z</time>
      </trkpt>
      <trkpt lat="59.9812333" lon="17.7385507">
        <ele>39.0707</ele>
        <time>2012-09-30T09:58:07Z</time>
      </trkpt>
      <trkpt lat="59.9812101" lon="17.7385426">
        <ele>40.0321</ele>
        <time>2012-09-30T09:58:08Z</time>
      </trkpt>
      <trkpt lat="59.9811918" lon="17.7385349">
        <ele>40.5128</ele>
        <time>2012-09-30T09:58:09Z</time>
      </trkpt>
      <trkpt lat="59.9811755" lon="17.7385353">
        <ele>40.5128</ele>
        <time>2012-09-30T09:58:10Z</time>
      </trkpt>
      <trkpt lat="59.9811542" lon="17.7385416">
        <ele>40.9934</ele>
        <time>2012-09-30T09:58:11Z</time>
      </trkpt>
      <trkpt lat="59.9811359" lon="17.7385461">
        <ele>40.9934</ele>
        <time>2012-09-30T09:58:12Z</time>
      </trkpt>
      <trkpt lat="59.9811167" lon="17.7385357">
        <ele>40.9934</ele>
        <time>2012-09-30T09:58:13Z</time>
      </trkpt>
      <trkpt lat="59.9811008" lon="17.7385192">
        <ele>40.9934</ele>
        <time>2012-09-30T09:58:14Z</time>
      </trkpt>
      <trkpt lat="59.9810801" lon="17.7385092">
        <ele>40.9934</ele>
        <time>2012-09-30T09:58:15Z</time>
      </trkpt>
      <trkpt lat="59.9810589" lon="17.7385219">
        <ele>40.9934</ele>
        <time>2012-09-30T09:58:16Z</time>
      </trkpt>
      <trkpt lat="59.981033" lon="17.7385346">
        <ele>40.9934</ele>
        <time>2012-09-30T09:58:17Z</time>
      </trkpt>
      <trkpt lat="59.9809997" lon="17.7385404">
        <ele>40.5128</ele>
        <time>2012-09-30T09:58:18Z</time>
      </trkpt>
      <trkpt lat="59.9809693" lon="17.7385566">
        <ele>40.5128</ele>
        <time>2012-09-30T09:58:19Z</time>
      </trkpt>
      <trkpt lat="59.980938" lon="17.7385802">
        <ele>40.0321</ele>
        <time>2012-09-30T09:58:20Z</time>
      </trkpt>
      <trkpt lat="59.9809103" lon="17.7385927">
        <ele>39.0707</ele>
        <time>2012-09-30T09:58:21Z</time>
      </trkpt>
      <trkpt lat="59.9808816" lon="17.738609">
        <ele>38.5901</ele>
        <time>2012-09-30T09:58:22Z</time>
      </trkpt>
      <trkpt lat="59.9808506" lon="17.7386177">
        <ele>38.1094</ele>
        <time>2012-09-30T09:58:23Z</time>
      </trkpt>
      <trkpt lat="59.9808237" lon="17.7386243">
        <ele>37.1481</ele>
        <time>2012-09-30T09:58:24Z</time>
      </trkpt>
      <trkpt lat="59.9807891" lon="17.7386375">
        <ele>37.1481</ele>
        <time>2012-09-30T09:58:25Z</time>
      </trkpt>
      <trkpt lat="59.9807591" lon="17.7386449">
        <ele>36.6675</ele>
        <time>2012-09-30T09:58:26Z</time>
      </trkpt>
      <trkpt lat="59.980731" lon="17.7386518">
        <ele>36.6675</ele>
        <time>2012-09-30T09:58:27Z</time>
      </trkpt>
      <trkpt lat="59.9807004" lon="17.7386569">
        <ele>36.6675</ele>
        <time>2012-09-30T09:58:28Z</time>
      </trkpt>
      <trkpt lat="59.9806717" lon="17.7386563">
        <ele>36.6675</ele>
        <time>2012-09-30T09:58:29Z</time>
      </trkpt>
      <trkpt lat="59.9806417" lon="17.7386638">
        <ele>36.1868</ele>
        <time>2012-09-30T09:58:30Z</time>
      </trkpt>
      <trkpt lat="59.9806149" lon="17.7386814">
        <ele>36.1868</ele>
        <time>2012-09-30T09:58:31Z</time>
      </trkpt>
      <trkpt lat="59.9805927" lon="17.7386928">
        <ele>35.7061</ele>
        <time>2012-09-30T09:58:32Z</time>
      </trkpt>
      <trkpt lat="59.9805683" lon="17.7387014">
        <ele>35.2255</ele>
        <time>2012-09-30T09:58:33Z</time>
      </trkpt>
      <trkpt lat="59.9805424" lon="17.7387073">
        <ele>35.2255</ele>
        <time>2012-09-30T09:58:34Z</time>
      </trkpt>
      <trkpt lat="59.9805145" lon="17.7387103">
        <ele>34.7449</ele>
        <time>2012-09-30T09:58:35Z</time>
      </trkpt>
      <trkpt lat="59.9804885" lon="17.7387138">
        <ele>35.2255</ele>
        <time>2012-09-30T09:58:36Z</time>
      </trkpt>
      <trkpt lat="59.9804652" lon="17.7387155">
        <ele>35.7061</ele>
        <time>2012-09-30T09:58:37Z</time>
      </trkpt>
      <trkpt lat="59.9804399" lon="17.7387185">
        <ele>35.7061</ele>
        <time>2012-09-30T09:58:38Z</time>
      </trkpt>
      <trkpt lat="59.9804134" lon="17.7387289">
        <ele>36.1868</ele>
        <time>2012-09-30T09:58:39Z</time>
      </trkpt>
      <trkpt lat="59.9803894" lon="17.7387382">
        <ele>36.1868</ele>
        <time>2012-09-30T09:58:40Z</time>
      </trkpt>
      <trkpt lat="59.9803636" lon="17.7387452">
        <ele>35.7061</ele>
        <time>2012-09-30T09:58:41Z</time>
      </trkpt>
      <trkpt lat="59.9803369" lon="17.7387511">
        <ele>35.7061</ele>
        <time>2012-09-30T09:58:42Z</time>
      </trkpt>
      <trkpt lat="59.9803104" lon="17.7387529">
        <ele>36.1868</ele>
        <time>2012-09-30T09:58:43Z</time>
      </trkpt>
      <trkpt lat="59.9802858" lon="17.7387527">
        <ele>35.7061</ele>
        <time>2012-09-30T09:58:44Z</time>
      </trkpt>
      <trkpt lat="59.9802633" lon="17.7387533">
        <ele>35.7061</ele>
        <time>2012-09-30T09:58:45Z</time>
      </trkpt>
      <trkpt lat="59.9802409" lon="17.7387488">
        <ele>35.7061</ele>
        <time>2012-09-30T09:58:46Z</time>
      </trkpt>
      <trkpt lat="59.9802174" lon="17.7387482">
        <ele>35.2255</ele>
        <time>2012-09-30T09:58:47Z</time>
      </trkpt>
      <trkpt lat="59.9801901" lon="17.738743">
        <ele>35.2255</ele>
        <time>2012-09-30T09:58:48Z</time>
      </trkpt>
      <trkpt lat="59.9801635" lon="17.7387307">
        <ele>35.2255</ele>
        <time>2012-09-30T09:58:49Z</time>
      </trkpt>
      <trkpt lat="59.9801379" lon="17.7387095">
        <ele>35.2255</ele>
        <time>2012-09-30T09:58:50Z</time>
      </trkpt>
      <trkpt lat="59.9801155" lon="17.7386924">
        <ele>35.2255</ele>
        <time>2012-09-30T09:58:51Z</time>
      </trkpt>
      <trkpt lat="59.9800939" lon="17.7386923">
        <ele>35.7061</ele>
        <time>2012-09-30T09:58:52Z</time>
      </trkpt>
      <trkpt lat="59.9800716" lon="17.7386963">
        <ele>35.7061</ele>
        <time>2012-09-30T09:58:53Z</time>
      </trkpt>
      <trkpt lat="59.9800475" lon="17.7387009">
        <ele>35.2255</ele>
        <time>2012-09-30T09:58:54Z</time>
      </trkpt>
      <trkpt lat="59.9800232" lon="17.7387017">
        <ele>35.2255</ele>
        <time>2012-09-30T09:58:55Z</time>
      </trkpt>
      <trkpt lat="59.979997" lon="17.7386985">
        <ele>35.7061</ele>
        <time>2012-09-30T09:58:56Z</time>
      </trkpt>
      <trkpt lat="59.9799747" lon="17.7386953">
        <ele>35.7061</ele>
        <time>2012-09-30T09:58:57Z</time>
      </trkpt>
      <trkpt lat="59.9799529" lon="17.7386943">
        <ele>35.7061</ele>
        <time>2012-09-30T09:58:58Z</time>
      </trkpt>
      <trkpt lat="59.9799261" lon="17.7387001">
        <ele>35.7061</ele>
        <time>2012-09-30T09:58:59Z</time>
      </trkpt>
      <trkpt lat="59.9799016" lon="17.7387094">
        <ele>36.1868</ele>
        <time>2012-09-30T09:59:00Z</time>
      </trkpt>
      <trkpt lat="59.9798764" lon="17.7387203">
        <ele>36.1868</ele>
        <time>2012-09-30T09:59:01Z</time>
      </trkpt>
      <trkpt lat="59.9798488" lon="17.73873">
        <ele>36.6675</ele>
        <time>2012-09-30T09:59:02Z</time>
      </trkpt>
      <trkpt lat="59.9798258" lon="17.7387337">
        <ele>37.6287</ele>
        <time>2012-09-30T09:59:03Z</time>
      </trkpt>
      <trkpt lat="59.9798035" lon="17.7387399">
        <ele>38.1094</ele>
        <time>2012-09-30T09:59:04Z</time>
      </trkpt>
      <trkpt lat="59.9797781" lon="17.7387498">
        <ele>38.5901</ele>
        <time>2012-09-30T09:59:05Z</time>
      </trkpt>
      <trkpt lat="59.9797544" lon="17.7387586">
        <ele>38.5901</ele>
        <time>2012-09-30T09:59:06Z</time>
      </trkpt>
      <trkpt lat="59.9797312" lon="17.7387677">
        <ele>39.0707</ele>
        <time>2012-09-30T09:59:07Z</time>
      </trkpt>
      <trkpt lat="59.9797074" lon="17.7387714">
        <ele>39.5513</ele>
        <time>2012-09-30T09:59:08Z</time>
      </trkpt>
      <trkpt lat="59.9796877" lon="17.7387781">
        <ele>40.5128</ele>
        <time>2012-09-30T09:59:09Z</time>
      </trkpt>
      <trkpt lat="59.9796654" lon="17.7387938">
        <ele>40.9934</ele>
        <time>2012-09-30T09:59:10Z</time>
      </trkpt>
      <trkpt lat="59.9796385" lon="17.738809">
        <ele>41.474</ele>
        <time>2012-09-30T09:59:11Z</time>
      </trkpt>
      <trkpt lat="59.9796168" lon="17.7388139">
        <ele>41.474</ele>
        <time>2012-09-30T09:59:12Z</time>
      </trkpt>
      <trkpt lat="59.9795935" lon="17.7388271">
        <ele>41.474</ele>
        <time>2012-09-30T09:59:13Z</time>
      </trkpt>
      <trkpt lat="59.9795691" lon="17.738846">
        <ele>41.474</ele>
        <time>2012-09-30T09:59:14Z</time>
      </trkpt>
      <trkpt lat="59.9795442" lon="17.7388601">
        <ele>40.9934</ele>
        <time>2012-09-30T09:59:15Z</time>
      </trkpt>
      <trkpt lat="59.9795214" lon="17.7388722">
        <ele>41.474</ele>
        <time>2012-09-30T09:59:16Z</time>
      </trkpt>
      <trkpt lat="59.9795017" lon="17.738886">
        <ele>41.474</ele>
        <time>2012-09-30T09:59:17Z</time>
      </trkpt>
      <trkpt lat="59.9794738" lon="17.7389021">
        <ele>41.474</ele>
        <time>2012-09-30T09:59:18Z</time>
      </trkpt>
      <trkpt lat="59.9794497" lon="17.7389155">
        <ele>40.5128</ele>
        <time>2012-09-30T09:59:19Z</time>
      </trkpt>
      <trkpt lat="59.979427" lon="17.7389357">
        <ele>40.0321</ele>
        <time>2012-09-30T09:59:20Z</time>
      </trkpt>
      <trkpt lat="59.9794027" lon="17.7389646">
        <ele>39.5513</ele>
        <time>2012-09-30T09:59:21Z</time>
      </trkpt>
      <trkpt lat="59.9793803" lon="17.738985">
        <ele>39.0707</ele>
        <time>2012-09-30T09:59:22Z</time>
      </trkpt>
      <trkpt lat="59.9793562" lon="17.7390071">
        <ele>39.0707</ele>
        <time>2012-09-30T09:59:23Z</time>
      </trkpt>
      <trkpt lat="59.979329" lon="17.7390295">
        <ele>39.0707</ele>
        <time>2012-09-30T09:59:24Z</time>
      </trkpt>
      <trkpt lat="59.9793011" lon="17.7390581">
        <ele>38.5901</ele>
        <time>2012-09-30T09:59:25Z</time>
      </trkpt>
      <trkpt lat="59.9792754" lon="17.7390895">
        <ele>38.5901</ele>
        <time>2012-09-30T09:59:26Z</time>
      </trkpt>
      <trkpt lat="59.9792504" lon="17.7391091">
        <ele>38.5901</ele>
        <time>2012-09-30T09:59:27Z</time>
      </trkpt>
      <trkpt lat="59.979226" lon="17.7391187">
        <ele>38.5901</ele>
        <time>2012-09-30T09:59:28Z</time>
      </trkpt>
      <trkpt lat="59.9792023" lon="17.7391254">
        <ele>38.5901</ele>
        <time>2012-09-30T09:59:29Z</time>
      </trkpt>
      <trkpt lat="59.9791804" lon="17.7391341">
        <ele>38.5901</ele>
        <time>2012-09-30T09:59:30Z</time>
      </trkpt>
      <trkpt lat="59.9791558" lon="17.7391495">
        <ele>38.5901</ele>
        <time>2012-09-30T09:59:31Z</time>
      </trkpt>
      <trkpt lat="59.979128" lon="17.7391565">
        <ele>38.5901</ele>
        <time>2012-09-30T09:59:32Z</time>
      </trkpt>
      <trkpt lat="59.9791034" lon="17.7391635">
        <ele>38.5901</ele>
        <time>2012-09-30T09:59:33Z</time>
      </trkpt>
      <trkpt lat="59.979079" lon="17.7391806">
        <ele>38.5901</ele>
        <time>2012-09-30T09:59:34Z</time>
      </trkpt>
      <trkpt lat="59.9790545" lon="17.7392031">
        <ele>38.5901</ele>
        <time>2012-09-30T09:59:35Z</time>
      </trkpt>
      <trkpt lat="59.9790301" lon="17.7392238">
        <ele>38.5901</ele>
        <time>2012-09-30T09:59:36Z</time>
      </trkpt>
      <trkpt lat="59.9790006" lon="17.7392456">
        <ele>38.5901</ele>
        <time>2012-09-30T09:59:37Z</time>
      </trkpt>
      <trkpt lat="59.9789706" lon="17.7392622">
        <ele>38.5901</ele>
        <time>2012-09-30T09:59:38Z</time>
      </trkpt>
      <trkpt lat="59.9789437" lon="17.7392728">
        <ele>38.5901</ele>
        <time>2012-09-30T09:59:39Z</time>
      </trkpt>
      <trkpt lat="59.9789208" lon="17.7392831">
        <ele>38.1094</ele>
        <time>2012-09-30T09:59:40Z</time>
      </trkpt>
    </trkseg>
  </trk>
</gpx>